<?xml version="1.0" encoding="UTF-8" standalone="no" ?>
<gpx xmlns="http://www.topografix.com/GPX/1/1" xmlns:xsi="http://www.w3.org/2001/XMLSchema-instance" xsi:schemaLocation="http://www.topografix.com/GPX/1/1 http://www.topografix.com/GPX/1/1/gpx.xsd" version="1.1" creator="VisuGPX - https://www.visugpx.com">
  <metadata>
    <name>St sauflieu</name>
    <desc><![CDATA[13 pax]]></desc>
  </metadata>
  <trk>
    <name><![CDATA[St sauflieu_1]]></name>
    <trkseg>
      <trkpt lat="49.78949" lon="2.25278">
        <ele>118.3</ele>
        <time>2022-10-07T12:01:14Z</time>
      </trkpt>
      <trkpt lat="49.78948" lon="2.25278">
        <ele>118.3</ele>
        <time>2022-10-07T12:01:16Z</time>
      </trkpt>
      <trkpt lat="49.78947" lon="2.25279">
        <ele>118.3</ele>
        <time>2022-10-07T12:01:17Z</time>
      </trkpt>
      <trkpt lat="49.78946" lon="2.25279">
        <ele>118.2</ele>
        <time>2022-10-07T12:01:18Z</time>
      </trkpt>
      <trkpt lat="49.78942" lon="2.25279">
        <ele>118.2</ele>
        <time>2022-10-07T12:01:19Z</time>
      </trkpt>
      <trkpt lat="49.7894" lon="2.25278">
        <ele>118.2</ele>
        <time>2022-10-07T12:01:20Z</time>
      </trkpt>
      <trkpt lat="49.78939" lon="2.25277">
        <ele>118.2</ele>
        <time>2022-10-07T12:01:21Z</time>
      </trkpt>
      <trkpt lat="49.78936" lon="2.25276">
        <ele>118.3</ele>
        <time>2022-10-07T12:01:23Z</time>
      </trkpt>
      <trkpt lat="49.78936" lon="2.25275">
        <ele>118.3</ele>
        <time>2022-10-07T12:01:24Z</time>
      </trkpt>
      <trkpt lat="49.78934" lon="2.25274">
        <ele>118.3</ele>
        <time>2022-10-07T12:01:25Z</time>
      </trkpt>
      <trkpt lat="49.78933" lon="2.25273">
        <ele>118.3</ele>
        <time>2022-10-07T12:01:26Z</time>
      </trkpt>
      <trkpt lat="49.78931" lon="2.25272">
        <ele>118.3</ele>
        <time>2022-10-07T12:01:27Z</time>
      </trkpt>
      <trkpt lat="49.7893" lon="2.25272">
        <ele>118.3</ele>
        <time>2022-10-07T12:01:28Z</time>
      </trkpt>
      <trkpt lat="49.78929" lon="2.25271">
        <ele>118.3</ele>
        <time>2022-10-07T12:01:29Z</time>
      </trkpt>
      <trkpt lat="49.78928" lon="2.25271">
        <ele>118.3</ele>
        <time>2022-10-07T12:01:30Z</time>
      </trkpt>
      <trkpt lat="49.78927" lon="2.25271">
        <ele>118.3</ele>
        <time>2022-10-07T12:01:31Z</time>
      </trkpt>
      <trkpt lat="49.78926" lon="2.2527">
        <ele>118.3</ele>
        <time>2022-10-07T12:01:32Z</time>
      </trkpt>
      <trkpt lat="49.78924" lon="2.25268">
        <ele>118.4</ele>
        <time>2022-10-07T12:01:33Z</time>
      </trkpt>
      <trkpt lat="49.78923" lon="2.25266">
        <ele>118.4</ele>
        <time>2022-10-07T12:01:35Z</time>
      </trkpt>
      <trkpt lat="49.78921" lon="2.25265">
        <ele>118.4</ele>
        <time>2022-10-07T12:01:36Z</time>
      </trkpt>
      <trkpt lat="49.78922" lon="2.25265">
        <ele>118.4</ele>
        <time>2022-10-07T12:01:37Z</time>
      </trkpt>
      <trkpt lat="49.78923" lon="2.25265">
        <ele>118.4</ele>
        <time>2022-10-07T12:01:38Z</time>
      </trkpt>
      <trkpt lat="49.78922" lon="2.25264">
        <ele>118.4</ele>
        <time>2022-10-07T12:01:39Z</time>
      </trkpt>
      <trkpt lat="49.78921" lon="2.25263">
        <ele>118.4</ele>
        <time>2022-10-07T12:01:40Z</time>
      </trkpt>
      <trkpt lat="49.7892" lon="2.25262">
        <ele>118.4</ele>
        <time>2022-10-07T12:01:41Z</time>
      </trkpt>
      <trkpt lat="49.78919" lon="2.2526">
        <ele>118.5</ele>
        <time>2022-10-07T12:01:43Z</time>
      </trkpt>
      <trkpt lat="49.78917" lon="2.25259">
        <ele>118.5</ele>
        <time>2022-10-07T12:01:44Z</time>
      </trkpt>
      <trkpt lat="49.78916" lon="2.25257">
        <ele>118.5</ele>
        <time>2022-10-07T12:01:45Z</time>
      </trkpt>
      <trkpt lat="49.78915" lon="2.25255">
        <ele>118.5</ele>
        <time>2022-10-07T12:01:46Z</time>
      </trkpt>
      <trkpt lat="49.78914" lon="2.25254">
        <ele>118.6</ele>
        <time>2022-10-07T12:01:47Z</time>
      </trkpt>
      <trkpt lat="49.78912" lon="2.25252">
        <ele>118.6</ele>
        <time>2022-10-07T12:01:48Z</time>
      </trkpt>
      <trkpt lat="49.78912" lon="2.25251">
        <ele>118.6</ele>
        <time>2022-10-07T12:01:49Z</time>
      </trkpt>
      <trkpt lat="49.78911" lon="2.2525">
        <ele>118.6</ele>
        <time>2022-10-07T12:01:50Z</time>
      </trkpt>
      <trkpt lat="49.78911" lon="2.25248">
        <ele>118.6</ele>
        <time>2022-10-07T12:01:51Z</time>
      </trkpt>
      <trkpt lat="49.7891" lon="2.25246">
        <ele>118.7</ele>
        <time>2022-10-07T12:01:53Z</time>
      </trkpt>
      <trkpt lat="49.7891" lon="2.25244">
        <ele>118.8</ele>
        <time>2022-10-07T12:01:54Z</time>
      </trkpt>
      <trkpt lat="49.7891" lon="2.25241">
        <ele>118.8</ele>
        <time>2022-10-07T12:01:55Z</time>
      </trkpt>
      <trkpt lat="49.78909" lon="2.25237">
        <ele>118.8</ele>
        <time>2022-10-07T12:01:56Z</time>
      </trkpt>
      <trkpt lat="49.78909" lon="2.25235">
        <ele>118.8</ele>
        <time>2022-10-07T12:01:58Z</time>
      </trkpt>
      <trkpt lat="49.78909" lon="2.25233">
        <ele>118.8</ele>
        <time>2022-10-07T12:01:59Z</time>
      </trkpt>
      <trkpt lat="49.78909" lon="2.25231">
        <ele>118.8</ele>
        <time>2022-10-07T12:02:00Z</time>
      </trkpt>
      <trkpt lat="49.78909" lon="2.2523">
        <ele>118.8</ele>
        <time>2022-10-07T12:02:01Z</time>
      </trkpt>
      <trkpt lat="49.78907" lon="2.2523">
        <ele>118.8</ele>
        <time>2022-10-07T12:02:03Z</time>
      </trkpt>
      <trkpt lat="49.78907" lon="2.25229">
        <ele>118.8</ele>
        <time>2022-10-07T12:02:04Z</time>
      </trkpt>
      <trkpt lat="49.78908" lon="2.25228">
        <ele>118.8</ele>
        <time>2022-10-07T12:02:05Z</time>
      </trkpt>
      <trkpt lat="49.78908" lon="2.25227">
        <ele>118.8</ele>
        <time>2022-10-07T12:02:06Z</time>
      </trkpt>
      <trkpt lat="49.78909" lon="2.25226">
        <ele>118.8</ele>
        <time>2022-10-07T12:02:07Z</time>
      </trkpt>
      <trkpt lat="49.78907" lon="2.25223">
        <ele>118.8</ele>
        <time>2022-10-07T12:02:08Z</time>
      </trkpt>
      <trkpt lat="49.78907" lon="2.25221">
        <ele>118.8</ele>
        <time>2022-10-07T12:02:10Z</time>
      </trkpt>
      <trkpt lat="49.78907" lon="2.25219">
        <ele>118.9</ele>
        <time>2022-10-07T12:02:11Z</time>
      </trkpt>
      <trkpt lat="49.78907" lon="2.25218">
        <ele>118.9</ele>
        <time>2022-10-07T12:02:12Z</time>
      </trkpt>
      <trkpt lat="49.78907" lon="2.25217">
        <ele>118.9</ele>
        <time>2022-10-07T12:02:13Z</time>
      </trkpt>
      <trkpt lat="49.78907" lon="2.25215">
        <ele>118.9</ele>
        <time>2022-10-07T12:02:14Z</time>
      </trkpt>
      <trkpt lat="49.78907" lon="2.25213">
        <ele>118.9</ele>
        <time>2022-10-07T12:02:15Z</time>
      </trkpt>
      <trkpt lat="49.78907" lon="2.25212">
        <ele>118.9</ele>
        <time>2022-10-07T12:02:16Z</time>
      </trkpt>
      <trkpt lat="49.78908" lon="2.25211">
        <ele>118.9</ele>
        <time>2022-10-07T12:02:17Z</time>
      </trkpt>
      <trkpt lat="49.78908" lon="2.2521">
        <ele>118.9</ele>
        <time>2022-10-07T12:02:18Z</time>
      </trkpt>
      <trkpt lat="49.78908" lon="2.25208">
        <ele>119</ele>
        <time>2022-10-07T12:02:19Z</time>
      </trkpt>
      <trkpt lat="49.78908" lon="2.25207">
        <ele>119</ele>
        <time>2022-10-07T12:02:20Z</time>
      </trkpt>
      <trkpt lat="49.78908" lon="2.25205">
        <ele>119</ele>
        <time>2022-10-07T12:02:21Z</time>
      </trkpt>
      <trkpt lat="49.78909" lon="2.25203">
        <ele>119</ele>
        <time>2022-10-07T12:02:23Z</time>
      </trkpt>
      <trkpt lat="49.78909" lon="2.25201">
        <ele>119</ele>
        <time>2022-10-07T12:02:24Z</time>
      </trkpt>
      <trkpt lat="49.78909" lon="2.25196">
        <ele>119.1</ele>
        <time>2022-10-07T12:02:25Z</time>
      </trkpt>
      <trkpt lat="49.78908" lon="2.25195">
        <ele>119.1</ele>
        <time>2022-10-07T12:02:26Z</time>
      </trkpt>
      <trkpt lat="49.78909" lon="2.2519">
        <ele>119.1</ele>
        <time>2022-10-07T12:02:28Z</time>
      </trkpt>
      <trkpt lat="49.78909" lon="2.25188">
        <ele>119.2</ele>
        <time>2022-10-07T12:02:29Z</time>
      </trkpt>
      <trkpt lat="49.78909" lon="2.25183">
        <ele>119.2</ele>
        <time>2022-10-07T12:02:30Z</time>
      </trkpt>
      <trkpt lat="49.78909" lon="2.25181">
        <ele>119.2</ele>
        <time>2022-10-07T12:02:31Z</time>
      </trkpt>
      <trkpt lat="49.78908" lon="2.25176">
        <ele>119.2</ele>
        <time>2022-10-07T12:02:32Z</time>
      </trkpt>
      <trkpt lat="49.78908" lon="2.25175">
        <ele>119.3</ele>
        <time>2022-10-07T12:02:33Z</time>
      </trkpt>
      <trkpt lat="49.78908" lon="2.25172">
        <ele>119.3</ele>
        <time>2022-10-07T12:02:34Z</time>
      </trkpt>
      <trkpt lat="49.78908" lon="2.25169">
        <ele>119.3</ele>
        <time>2022-10-07T12:02:35Z</time>
      </trkpt>
      <trkpt lat="49.78907" lon="2.25167">
        <ele>119.3</ele>
        <time>2022-10-07T12:02:36Z</time>
      </trkpt>
      <trkpt lat="49.78907" lon="2.25164">
        <ele>119.3</ele>
        <time>2022-10-07T12:02:37Z</time>
      </trkpt>
      <trkpt lat="49.78906" lon="2.25162">
        <ele>119.3</ele>
        <time>2022-10-07T12:02:38Z</time>
      </trkpt>
      <trkpt lat="49.78905" lon="2.25158">
        <ele>119.3</ele>
        <time>2022-10-07T12:02:40Z</time>
      </trkpt>
      <trkpt lat="49.78904" lon="2.25156">
        <ele>119.3</ele>
        <time>2022-10-07T12:02:41Z</time>
      </trkpt>
      <trkpt lat="49.78903" lon="2.25155">
        <ele>119.3</ele>
        <time>2022-10-07T12:02:42Z</time>
      </trkpt>
      <trkpt lat="49.78902" lon="2.25153">
        <ele>119.3</ele>
        <time>2022-10-07T12:02:43Z</time>
      </trkpt>
      <trkpt lat="49.78901" lon="2.25151">
        <ele>119.3</ele>
        <time>2022-10-07T12:02:44Z</time>
      </trkpt>
      <trkpt lat="49.789" lon="2.25149">
        <ele>119.3</ele>
        <time>2022-10-07T12:02:45Z</time>
      </trkpt>
      <trkpt lat="49.78899" lon="2.25148">
        <ele>119.3</ele>
        <time>2022-10-07T12:02:46Z</time>
      </trkpt>
      <trkpt lat="49.78898" lon="2.25146">
        <ele>119.3</ele>
        <time>2022-10-07T12:02:48Z</time>
      </trkpt>
      <trkpt lat="49.78896" lon="2.25144">
        <ele>119.3</ele>
        <time>2022-10-07T12:02:49Z</time>
      </trkpt>
      <trkpt lat="49.78895" lon="2.25143">
        <ele>119.3</ele>
        <time>2022-10-07T12:02:50Z</time>
      </trkpt>
      <trkpt lat="49.78894" lon="2.25141">
        <ele>119.3</ele>
        <time>2022-10-07T12:02:51Z</time>
      </trkpt>
      <trkpt lat="49.78892" lon="2.2514">
        <ele>119.3</ele>
        <time>2022-10-07T12:02:52Z</time>
      </trkpt>
      <trkpt lat="49.78892" lon="2.25139">
        <ele>119.3</ele>
        <time>2022-10-07T12:02:53Z</time>
      </trkpt>
      <trkpt lat="49.7889" lon="2.25138">
        <ele>119.3</ele>
        <time>2022-10-07T12:02:54Z</time>
      </trkpt>
      <trkpt lat="49.78889" lon="2.25137">
        <ele>119.3</ele>
        <time>2022-10-07T12:02:55Z</time>
      </trkpt>
      <trkpt lat="49.78887" lon="2.25136">
        <ele>119.4</ele>
        <time>2022-10-07T12:02:56Z</time>
      </trkpt>
      <trkpt lat="49.78886" lon="2.25135">
        <ele>119.4</ele>
        <time>2022-10-07T12:02:57Z</time>
      </trkpt>
      <trkpt lat="49.78883" lon="2.25134">
        <ele>119.4</ele>
        <time>2022-10-07T12:02:58Z</time>
      </trkpt>
      <trkpt lat="49.78881" lon="2.25134">
        <ele>119.5</ele>
        <time>2022-10-07T12:02:59Z</time>
      </trkpt>
      <trkpt lat="49.7888" lon="2.25134">
        <ele>119.5</ele>
        <time>2022-10-07T12:03:00Z</time>
      </trkpt>
      <trkpt lat="49.78879" lon="2.25133">
        <ele>119.5</ele>
        <time>2022-10-07T12:03:01Z</time>
      </trkpt>
      <trkpt lat="49.78876" lon="2.25131">
        <ele>119.5</ele>
        <time>2022-10-07T12:03:02Z</time>
      </trkpt>
      <trkpt lat="49.78876" lon="2.25131">
        <ele>119.6</ele>
        <time>2022-10-07T12:03:03Z</time>
      </trkpt>
      <trkpt lat="49.78874" lon="2.25131">
        <ele>119.6</ele>
        <time>2022-10-07T12:03:05Z</time>
      </trkpt>
      <trkpt lat="49.78873" lon="2.25131">
        <ele>119.6</ele>
        <time>2022-10-07T12:03:06Z</time>
      </trkpt>
      <trkpt lat="49.78872" lon="2.25131">
        <ele>119.6</ele>
        <time>2022-10-07T12:03:07Z</time>
      </trkpt>
      <trkpt lat="49.7887" lon="2.25129">
        <ele>119.7</ele>
        <time>2022-10-07T12:03:08Z</time>
      </trkpt>
      <trkpt lat="49.78869" lon="2.25128">
        <ele>119.7</ele>
        <time>2022-10-07T12:03:09Z</time>
      </trkpt>
      <trkpt lat="49.78868" lon="2.25127">
        <ele>119.7</ele>
        <time>2022-10-07T12:03:10Z</time>
      </trkpt>
      <trkpt lat="49.78868" lon="2.25127">
        <ele>119.7</ele>
        <time>2022-10-07T12:03:11Z</time>
      </trkpt>
      <trkpt lat="49.78866" lon="2.25126">
        <ele>119.8</ele>
        <time>2022-10-07T12:03:12Z</time>
      </trkpt>
      <trkpt lat="49.78865" lon="2.25125">
        <ele>119.8</ele>
        <time>2022-10-07T12:03:13Z</time>
      </trkpt>
      <trkpt lat="49.78864" lon="2.25124">
        <ele>119.8</ele>
        <time>2022-10-07T12:03:14Z</time>
      </trkpt>
      <trkpt lat="49.78862" lon="2.25122">
        <ele>119.9</ele>
        <time>2022-10-07T12:03:15Z</time>
      </trkpt>
      <trkpt lat="49.78862" lon="2.25122">
        <ele>119.9</ele>
        <time>2022-10-07T12:03:16Z</time>
      </trkpt>
      <trkpt lat="49.78861" lon="2.25121">
        <ele>119.9</ele>
        <time>2022-10-07T12:03:17Z</time>
      </trkpt>
      <trkpt lat="49.7886" lon="2.25121">
        <ele>119.9</ele>
        <time>2022-10-07T12:03:18Z</time>
      </trkpt>
      <trkpt lat="49.78858" lon="2.25121">
        <ele>120</ele>
        <time>2022-10-07T12:03:19Z</time>
      </trkpt>
      <trkpt lat="49.78857" lon="2.25121">
        <ele>120</ele>
        <time>2022-10-07T12:03:21Z</time>
      </trkpt>
      <trkpt lat="49.78856" lon="2.25121">
        <ele>120.1</ele>
        <time>2022-10-07T12:03:22Z</time>
      </trkpt>
      <trkpt lat="49.78855" lon="2.25117">
        <ele>120.1</ele>
        <time>2022-10-07T12:03:23Z</time>
      </trkpt>
      <trkpt lat="49.78855" lon="2.25115">
        <ele>120.1</ele>
        <time>2022-10-07T12:03:24Z</time>
      </trkpt>
      <trkpt lat="49.78855" lon="2.25113">
        <ele>120.2</ele>
        <time>2022-10-07T12:03:25Z</time>
      </trkpt>
      <trkpt lat="49.78855" lon="2.25109">
        <ele>120.2</ele>
        <time>2022-10-07T12:03:26Z</time>
      </trkpt>
      <trkpt lat="49.78856" lon="2.25107">
        <ele>120.3</ele>
        <time>2022-10-07T12:03:27Z</time>
      </trkpt>
      <trkpt lat="49.78857" lon="2.25105">
        <ele>120.3</ele>
        <time>2022-10-07T12:03:28Z</time>
      </trkpt>
      <trkpt lat="49.78858" lon="2.25103">
        <ele>120.4</ele>
        <time>2022-10-07T12:03:29Z</time>
      </trkpt>
      <trkpt lat="49.78859" lon="2.25102">
        <ele>120.4</ele>
        <time>2022-10-07T12:03:30Z</time>
      </trkpt>
      <trkpt lat="49.78861" lon="2.251">
        <ele>120.4</ele>
        <time>2022-10-07T12:03:31Z</time>
      </trkpt>
      <trkpt lat="49.78862" lon="2.251">
        <ele>120.4</ele>
        <time>2022-10-07T12:03:33Z</time>
      </trkpt>
      <trkpt lat="49.78863" lon="2.25099">
        <ele>120.5</ele>
        <time>2022-10-07T12:03:34Z</time>
      </trkpt>
      <trkpt lat="49.78863" lon="2.25098">
        <ele>120.5</ele>
        <time>2022-10-07T12:03:35Z</time>
      </trkpt>
      <trkpt lat="49.78864" lon="2.25097">
        <ele>120.5</ele>
        <time>2022-10-07T12:03:36Z</time>
      </trkpt>
      <trkpt lat="49.78865" lon="2.25096">
        <ele>120.5</ele>
        <time>2022-10-07T12:03:37Z</time>
      </trkpt>
      <trkpt lat="49.78866" lon="2.25092">
        <ele>120.6</ele>
        <time>2022-10-07T12:03:38Z</time>
      </trkpt>
      <trkpt lat="49.78866" lon="2.25091">
        <ele>120.6</ele>
        <time>2022-10-07T12:03:39Z</time>
      </trkpt>
      <trkpt lat="49.78866" lon="2.25088">
        <ele>120.6</ele>
        <time>2022-10-07T12:03:41Z</time>
      </trkpt>
      <trkpt lat="49.78866" lon="2.25086">
        <ele>120.7</ele>
        <time>2022-10-07T12:03:42Z</time>
      </trkpt>
      <trkpt lat="49.78867" lon="2.25084">
        <ele>120.7</ele>
        <time>2022-10-07T12:03:43Z</time>
      </trkpt>
      <trkpt lat="49.78867" lon="2.25081">
        <ele>120.7</ele>
        <time>2022-10-07T12:03:44Z</time>
      </trkpt>
      <trkpt lat="49.78867" lon="2.25078">
        <ele>120.8</ele>
        <time>2022-10-07T12:03:45Z</time>
      </trkpt>
      <trkpt lat="49.78867" lon="2.25076">
        <ele>120.8</ele>
        <time>2022-10-07T12:03:46Z</time>
      </trkpt>
      <trkpt lat="49.78868" lon="2.25073">
        <ele>120.8</ele>
        <time>2022-10-07T12:03:47Z</time>
      </trkpt>
      <trkpt lat="49.78868" lon="2.25071">
        <ele>120.8</ele>
        <time>2022-10-07T12:03:48Z</time>
      </trkpt>
      <trkpt lat="49.78869" lon="2.25067">
        <ele>120.9</ele>
        <time>2022-10-07T12:03:50Z</time>
      </trkpt>
      <trkpt lat="49.78869" lon="2.25066">
        <ele>120.9</ele>
        <time>2022-10-07T12:03:51Z</time>
      </trkpt>
      <trkpt lat="49.7887" lon="2.25064">
        <ele>120.9</ele>
        <time>2022-10-07T12:03:52Z</time>
      </trkpt>
      <trkpt lat="49.7887" lon="2.25062">
        <ele>120.9</ele>
        <time>2022-10-07T12:03:53Z</time>
      </trkpt>
      <trkpt lat="49.78871" lon="2.25056">
        <ele>121</ele>
        <time>2022-10-07T12:03:54Z</time>
      </trkpt>
      <trkpt lat="49.78871" lon="2.25056">
        <ele>121</ele>
        <time>2022-10-07T12:03:56Z</time>
      </trkpt>
      <trkpt lat="49.78872" lon="2.25056">
        <ele>121</ele>
        <time>2022-10-07T12:03:57Z</time>
      </trkpt>
      <trkpt lat="49.78873" lon="2.25056">
        <ele>121</ele>
        <time>2022-10-07T12:03:58Z</time>
      </trkpt>
      <trkpt lat="49.78874" lon="2.25055">
        <ele>121</ele>
        <time>2022-10-07T12:03:59Z</time>
      </trkpt>
      <trkpt lat="49.78876" lon="2.25055">
        <ele>121.1</ele>
        <time>2022-10-07T12:04:00Z</time>
      </trkpt>
      <trkpt lat="49.78876" lon="2.25054">
        <ele>121.1</ele>
        <time>2022-10-07T12:04:01Z</time>
      </trkpt>
      <trkpt lat="49.78877" lon="2.25053">
        <ele>121.1</ele>
        <time>2022-10-07T12:04:02Z</time>
      </trkpt>
      <trkpt lat="49.78878" lon="2.25051">
        <ele>121.1</ele>
        <time>2022-10-07T12:04:03Z</time>
      </trkpt>
      <trkpt lat="49.78879" lon="2.25049">
        <ele>121.1</ele>
        <time>2022-10-07T12:04:04Z</time>
      </trkpt>
      <trkpt lat="49.7888" lon="2.25046">
        <ele>121.2</ele>
        <time>2022-10-07T12:04:05Z</time>
      </trkpt>
      <trkpt lat="49.78881" lon="2.25046">
        <ele>121.2</ele>
        <time>2022-10-07T12:04:06Z</time>
      </trkpt>
      <trkpt lat="49.78881" lon="2.25045">
        <ele>121.2</ele>
        <time>2022-10-07T12:04:07Z</time>
      </trkpt>
      <trkpt lat="49.78882" lon="2.25043">
        <ele>121.2</ele>
        <time>2022-10-07T12:04:08Z</time>
      </trkpt>
      <trkpt lat="49.78883" lon="2.25041">
        <ele>121.2</ele>
        <time>2022-10-07T12:04:09Z</time>
      </trkpt>
      <trkpt lat="49.78883" lon="2.25038">
        <ele>121.3</ele>
        <time>2022-10-07T12:04:10Z</time>
      </trkpt>
      <trkpt lat="49.78884" lon="2.25037">
        <ele>121.3</ele>
        <time>2022-10-07T12:04:11Z</time>
      </trkpt>
      <trkpt lat="49.78885" lon="2.25036">
        <ele>121.3</ele>
        <time>2022-10-07T12:04:13Z</time>
      </trkpt>
      <trkpt lat="49.78885" lon="2.25035">
        <ele>121.3</ele>
        <time>2022-10-07T12:04:14Z</time>
      </trkpt>
      <trkpt lat="49.78886" lon="2.25033">
        <ele>121.3</ele>
        <time>2022-10-07T12:04:15Z</time>
      </trkpt>
      <trkpt lat="49.78888" lon="2.25031">
        <ele>121.3</ele>
        <time>2022-10-07T12:04:16Z</time>
      </trkpt>
      <trkpt lat="49.78888" lon="2.2503">
        <ele>121.4</ele>
        <time>2022-10-07T12:04:17Z</time>
      </trkpt>
      <trkpt lat="49.78889" lon="2.25029">
        <ele>121.4</ele>
        <time>2022-10-07T12:04:18Z</time>
      </trkpt>
      <trkpt lat="49.7889" lon="2.25027">
        <ele>121.4</ele>
        <time>2022-10-07T12:04:19Z</time>
      </trkpt>
      <trkpt lat="49.78891" lon="2.25025">
        <ele>121.4</ele>
        <time>2022-10-07T12:04:20Z</time>
      </trkpt>
      <trkpt lat="49.78892" lon="2.25023">
        <ele>121.4</ele>
        <time>2022-10-07T12:04:21Z</time>
      </trkpt>
      <trkpt lat="49.78893" lon="2.25021">
        <ele>121.4</ele>
        <time>2022-10-07T12:04:22Z</time>
      </trkpt>
      <trkpt lat="49.78894" lon="2.2502">
        <ele>121.5</ele>
        <time>2022-10-07T12:04:23Z</time>
      </trkpt>
      <trkpt lat="49.78894" lon="2.25018">
        <ele>121.5</ele>
        <time>2022-10-07T12:04:24Z</time>
      </trkpt>
      <trkpt lat="49.78895" lon="2.25017">
        <ele>121.5</ele>
        <time>2022-10-07T12:04:25Z</time>
      </trkpt>
      <trkpt lat="49.78897" lon="2.25014">
        <ele>121.5</ele>
        <time>2022-10-07T12:04:26Z</time>
      </trkpt>
      <trkpt lat="49.78897" lon="2.25012">
        <ele>121.5</ele>
        <time>2022-10-07T12:04:27Z</time>
      </trkpt>
      <trkpt lat="49.78897" lon="2.25012">
        <ele>121.5</ele>
        <time>2022-10-07T12:04:29Z</time>
      </trkpt>
      <trkpt lat="49.78898" lon="2.2501">
        <ele>121.5</ele>
        <time>2022-10-07T12:04:30Z</time>
      </trkpt>
      <trkpt lat="49.78899" lon="2.25009">
        <ele>121.6</ele>
        <time>2022-10-07T12:04:31Z</time>
      </trkpt>
      <trkpt lat="49.78899" lon="2.25008">
        <ele>121.6</ele>
        <time>2022-10-07T12:04:32Z</time>
      </trkpt>
      <trkpt lat="49.789" lon="2.25005">
        <ele>121.6</ele>
        <time>2022-10-07T12:04:33Z</time>
      </trkpt>
      <trkpt lat="49.78901" lon="2.25004">
        <ele>121.6</ele>
        <time>2022-10-07T12:04:34Z</time>
      </trkpt>
      <trkpt lat="49.78902" lon="2.25001">
        <ele>121.6</ele>
        <time>2022-10-07T12:04:35Z</time>
      </trkpt>
      <trkpt lat="49.78903" lon="2.25">
        <ele>121.6</ele>
        <time>2022-10-07T12:04:36Z</time>
      </trkpt>
      <trkpt lat="49.78903" lon="2.24999">
        <ele>121.6</ele>
        <time>2022-10-07T12:04:37Z</time>
      </trkpt>
      <trkpt lat="49.78904" lon="2.24997">
        <ele>121.6</ele>
        <time>2022-10-07T12:04:38Z</time>
      </trkpt>
      <trkpt lat="49.78905" lon="2.24995">
        <ele>121.6</ele>
        <time>2022-10-07T12:04:39Z</time>
      </trkpt>
      <trkpt lat="49.78906" lon="2.24993">
        <ele>121.6</ele>
        <time>2022-10-07T12:04:40Z</time>
      </trkpt>
      <trkpt lat="49.78907" lon="2.24991">
        <ele>121.6</ele>
        <time>2022-10-07T12:04:41Z</time>
      </trkpt>
      <trkpt lat="49.78909" lon="2.24988">
        <ele>121.7</ele>
        <time>2022-10-07T12:04:42Z</time>
      </trkpt>
      <trkpt lat="49.7891" lon="2.24987">
        <ele>121.7</ele>
        <time>2022-10-07T12:04:43Z</time>
      </trkpt>
      <trkpt lat="49.78911" lon="2.24985">
        <ele>121.7</ele>
        <time>2022-10-07T12:04:44Z</time>
      </trkpt>
      <trkpt lat="49.78912" lon="2.24984">
        <ele>121.7</ele>
        <time>2022-10-07T12:04:45Z</time>
      </trkpt>
      <trkpt lat="49.78912" lon="2.24983">
        <ele>121.7</ele>
        <time>2022-10-07T12:04:46Z</time>
      </trkpt>
      <trkpt lat="49.78914" lon="2.24978">
        <ele>121.7</ele>
        <time>2022-10-07T12:04:48Z</time>
      </trkpt>
      <trkpt lat="49.78914" lon="2.24977">
        <ele>121.7</ele>
        <time>2022-10-07T12:04:49Z</time>
      </trkpt>
      <trkpt lat="49.78914" lon="2.24976">
        <ele>121.7</ele>
        <time>2022-10-07T12:04:50Z</time>
      </trkpt>
      <trkpt lat="49.78915" lon="2.24975">
        <ele>121.7</ele>
        <time>2022-10-07T12:04:51Z</time>
      </trkpt>
      <trkpt lat="49.78916" lon="2.24973">
        <ele>121.7</ele>
        <time>2022-10-07T12:04:52Z</time>
      </trkpt>
      <trkpt lat="49.78917" lon="2.24971">
        <ele>121.7</ele>
        <time>2022-10-07T12:04:53Z</time>
      </trkpt>
      <trkpt lat="49.78918" lon="2.24969">
        <ele>121.7</ele>
        <time>2022-10-07T12:04:54Z</time>
      </trkpt>
      <trkpt lat="49.7892" lon="2.24967">
        <ele>121.6</ele>
        <time>2022-10-07T12:04:56Z</time>
      </trkpt>
      <trkpt lat="49.7892" lon="2.24966">
        <ele>121.6</ele>
        <time>2022-10-07T12:04:57Z</time>
      </trkpt>
      <trkpt lat="49.78921" lon="2.24965">
        <ele>121.6</ele>
        <time>2022-10-07T12:04:58Z</time>
      </trkpt>
      <trkpt lat="49.78922" lon="2.24964">
        <ele>121.6</ele>
        <time>2022-10-07T12:04:59Z</time>
      </trkpt>
      <trkpt lat="49.78923" lon="2.24962">
        <ele>121.6</ele>
        <time>2022-10-07T12:05:01Z</time>
      </trkpt>
      <trkpt lat="49.78924" lon="2.24961">
        <ele>121.6</ele>
        <time>2022-10-07T12:05:02Z</time>
      </trkpt>
      <trkpt lat="49.78924" lon="2.24959">
        <ele>121.5</ele>
        <time>2022-10-07T12:05:03Z</time>
      </trkpt>
      <trkpt lat="49.78925" lon="2.24958">
        <ele>121.5</ele>
        <time>2022-10-07T12:05:04Z</time>
      </trkpt>
      <trkpt lat="49.78925" lon="2.24957">
        <ele>121.5</ele>
        <time>2022-10-07T12:05:05Z</time>
      </trkpt>
      <trkpt lat="49.78926" lon="2.24956">
        <ele>121.5</ele>
        <time>2022-10-07T12:05:06Z</time>
      </trkpt>
      <trkpt lat="49.78926" lon="2.24954">
        <ele>121.5</ele>
        <time>2022-10-07T12:05:07Z</time>
      </trkpt>
      <trkpt lat="49.78927" lon="2.24952">
        <ele>121.5</ele>
        <time>2022-10-07T12:05:08Z</time>
      </trkpt>
      <trkpt lat="49.78928" lon="2.24951">
        <ele>121.5</ele>
        <time>2022-10-07T12:05:09Z</time>
      </trkpt>
      <trkpt lat="49.78928" lon="2.2495">
        <ele>121.4</ele>
        <time>2022-10-07T12:05:10Z</time>
      </trkpt>
      <trkpt lat="49.78928" lon="2.24949">
        <ele>121.4</ele>
        <time>2022-10-07T12:05:11Z</time>
      </trkpt>
      <trkpt lat="49.78929" lon="2.24947">
        <ele>121.4</ele>
        <time>2022-10-07T12:05:12Z</time>
      </trkpt>
      <trkpt lat="49.7893" lon="2.24945">
        <ele>121.4</ele>
        <time>2022-10-07T12:05:13Z</time>
      </trkpt>
      <trkpt lat="49.7893" lon="2.24944">
        <ele>121.4</ele>
        <time>2022-10-07T12:05:14Z</time>
      </trkpt>
      <trkpt lat="49.78931" lon="2.24942">
        <ele>121.3</ele>
        <time>2022-10-07T12:05:15Z</time>
      </trkpt>
      <trkpt lat="49.78931" lon="2.2494">
        <ele>121.3</ele>
        <time>2022-10-07T12:05:17Z</time>
      </trkpt>
      <trkpt lat="49.78932" lon="2.24939">
        <ele>121.3</ele>
        <time>2022-10-07T12:05:18Z</time>
      </trkpt>
      <trkpt lat="49.78932" lon="2.24937">
        <ele>121.3</ele>
        <time>2022-10-07T12:05:19Z</time>
      </trkpt>
      <trkpt lat="49.78932" lon="2.24936">
        <ele>121.3</ele>
        <time>2022-10-07T12:05:20Z</time>
      </trkpt>
      <trkpt lat="49.78933" lon="2.24934">
        <ele>121.3</ele>
        <time>2022-10-07T12:05:21Z</time>
      </trkpt>
      <trkpt lat="49.78934" lon="2.24932">
        <ele>121.2</ele>
        <time>2022-10-07T12:05:22Z</time>
      </trkpt>
      <trkpt lat="49.78935" lon="2.2493">
        <ele>121.2</ele>
        <time>2022-10-07T12:05:23Z</time>
      </trkpt>
      <trkpt lat="49.78936" lon="2.24928">
        <ele>121.2</ele>
        <time>2022-10-07T12:05:24Z</time>
      </trkpt>
      <trkpt lat="49.78937" lon="2.24927">
        <ele>121.2</ele>
        <time>2022-10-07T12:05:26Z</time>
      </trkpt>
      <trkpt lat="49.78937" lon="2.24926">
        <ele>121.2</ele>
        <time>2022-10-07T12:05:27Z</time>
      </trkpt>
      <trkpt lat="49.78938" lon="2.24924">
        <ele>121.1</ele>
        <time>2022-10-07T12:05:28Z</time>
      </trkpt>
      <trkpt lat="49.78938" lon="2.24924">
        <ele>121.1</ele>
        <time>2022-10-07T12:05:29Z</time>
      </trkpt>
      <trkpt lat="49.78939" lon="2.24923">
        <ele>121.1</ele>
        <time>2022-10-07T12:05:30Z</time>
      </trkpt>
      <trkpt lat="49.7894" lon="2.24921">
        <ele>121.1</ele>
        <time>2022-10-07T12:05:31Z</time>
      </trkpt>
      <trkpt lat="49.78942" lon="2.24918">
        <ele>121</ele>
        <time>2022-10-07T12:05:33Z</time>
      </trkpt>
      <trkpt lat="49.78942" lon="2.24919">
        <ele>121</ele>
        <time>2022-10-07T12:05:34Z</time>
      </trkpt>
      <trkpt lat="49.78942" lon="2.24919">
        <ele>121</ele>
        <time>2022-10-07T12:05:35Z</time>
      </trkpt>
      <trkpt lat="49.78943" lon="2.24918">
        <ele>121</ele>
        <time>2022-10-07T12:05:36Z</time>
      </trkpt>
      <trkpt lat="49.78943" lon="2.24916">
        <ele>121</ele>
        <time>2022-10-07T12:05:37Z</time>
      </trkpt>
      <trkpt lat="49.78944" lon="2.24915">
        <ele>121</ele>
        <time>2022-10-07T12:05:38Z</time>
      </trkpt>
      <trkpt lat="49.78945" lon="2.24913">
        <ele>121</ele>
        <time>2022-10-07T12:05:39Z</time>
      </trkpt>
      <trkpt lat="49.78946" lon="2.24912">
        <ele>121</ele>
        <time>2022-10-07T12:05:40Z</time>
      </trkpt>
      <trkpt lat="49.78946" lon="2.24911">
        <ele>121</ele>
        <time>2022-10-07T12:05:41Z</time>
      </trkpt>
      <trkpt lat="49.78948" lon="2.24907">
        <ele>120.9</ele>
        <time>2022-10-07T12:05:43Z</time>
      </trkpt>
      <trkpt lat="49.78949" lon="2.24906">
        <ele>120.9</ele>
        <time>2022-10-07T12:05:44Z</time>
      </trkpt>
      <trkpt lat="49.7895" lon="2.24905">
        <ele>120.9</ele>
        <time>2022-10-07T12:05:45Z</time>
      </trkpt>
      <trkpt lat="49.78951" lon="2.24902">
        <ele>120.9</ele>
        <time>2022-10-07T12:05:47Z</time>
      </trkpt>
      <trkpt lat="49.78954" lon="2.249">
        <ele>120.8</ele>
        <time>2022-10-07T12:05:48Z</time>
      </trkpt>
      <trkpt lat="49.78954" lon="2.24901">
        <ele>120.8</ele>
        <time>2022-10-07T12:05:49Z</time>
      </trkpt>
      <trkpt lat="49.78955" lon="2.24899">
        <ele>120.8</ele>
        <time>2022-10-07T12:05:50Z</time>
      </trkpt>
      <trkpt lat="49.78955" lon="2.24898">
        <ele>120.8</ele>
        <time>2022-10-07T12:05:51Z</time>
      </trkpt>
      <trkpt lat="49.78956" lon="2.24896">
        <ele>120.8</ele>
        <time>2022-10-07T12:05:52Z</time>
      </trkpt>
      <trkpt lat="49.78957" lon="2.24893">
        <ele>120.7</ele>
        <time>2022-10-07T12:05:53Z</time>
      </trkpt>
      <trkpt lat="49.78957" lon="2.24892">
        <ele>120.7</ele>
        <time>2022-10-07T12:05:54Z</time>
      </trkpt>
      <trkpt lat="49.78959" lon="2.24888">
        <ele>120.7</ele>
        <time>2022-10-07T12:05:56Z</time>
      </trkpt>
      <trkpt lat="49.7896" lon="2.24884">
        <ele>120.7</ele>
        <time>2022-10-07T12:05:57Z</time>
      </trkpt>
      <trkpt lat="49.78961" lon="2.24883">
        <ele>120.7</ele>
        <time>2022-10-07T12:05:59Z</time>
      </trkpt>
      <trkpt lat="49.78961" lon="2.24882">
        <ele>120.6</ele>
        <time>2022-10-07T12:06:00Z</time>
      </trkpt>
      <trkpt lat="49.78962" lon="2.2488">
        <ele>120.6</ele>
        <time>2022-10-07T12:06:01Z</time>
      </trkpt>
      <trkpt lat="49.78963" lon="2.24878">
        <ele>120.6</ele>
        <time>2022-10-07T12:06:02Z</time>
      </trkpt>
      <trkpt lat="49.78964" lon="2.24877">
        <ele>120.6</ele>
        <time>2022-10-07T12:06:03Z</time>
      </trkpt>
      <trkpt lat="49.78965" lon="2.24875">
        <ele>120.6</ele>
        <time>2022-10-07T12:06:04Z</time>
      </trkpt>
      <trkpt lat="49.78966" lon="2.24874">
        <ele>120.6</ele>
        <time>2022-10-07T12:06:05Z</time>
      </trkpt>
      <trkpt lat="49.78966" lon="2.24872">
        <ele>120.6</ele>
        <time>2022-10-07T12:06:06Z</time>
      </trkpt>
      <trkpt lat="49.78969" lon="2.24869">
        <ele>120.5</ele>
        <time>2022-10-07T12:06:07Z</time>
      </trkpt>
      <trkpt lat="49.78969" lon="2.24867">
        <ele>120.5</ele>
        <time>2022-10-07T12:06:09Z</time>
      </trkpt>
      <trkpt lat="49.7897" lon="2.24866">
        <ele>120.5</ele>
        <time>2022-10-07T12:06:10Z</time>
      </trkpt>
      <trkpt lat="49.7897" lon="2.24865">
        <ele>120.5</ele>
        <time>2022-10-07T12:06:11Z</time>
      </trkpt>
      <trkpt lat="49.78971" lon="2.24864">
        <ele>120.5</ele>
        <time>2022-10-07T12:06:12Z</time>
      </trkpt>
      <trkpt lat="49.78973" lon="2.24863">
        <ele>120.5</ele>
        <time>2022-10-07T12:06:13Z</time>
      </trkpt>
      <trkpt lat="49.78973" lon="2.24862">
        <ele>120.5</ele>
        <time>2022-10-07T12:06:15Z</time>
      </trkpt>
      <trkpt lat="49.78973" lon="2.2486">
        <ele>120.5</ele>
        <time>2022-10-07T12:06:16Z</time>
      </trkpt>
      <trkpt lat="49.78974" lon="2.24857">
        <ele>120.4</ele>
        <time>2022-10-07T12:06:18Z</time>
      </trkpt>
      <trkpt lat="49.78974" lon="2.24856">
        <ele>120.4</ele>
        <time>2022-10-07T12:06:19Z</time>
      </trkpt>
      <trkpt lat="49.78974" lon="2.24854">
        <ele>120.4</ele>
        <time>2022-10-07T12:06:20Z</time>
      </trkpt>
      <trkpt lat="49.78975" lon="2.24852">
        <ele>120.4</ele>
        <time>2022-10-07T12:06:21Z</time>
      </trkpt>
      <trkpt lat="49.78975" lon="2.24849">
        <ele>120.4</ele>
        <time>2022-10-07T12:06:23Z</time>
      </trkpt>
      <trkpt lat="49.78974" lon="2.24848">
        <ele>120.4</ele>
        <time>2022-10-07T12:06:24Z</time>
      </trkpt>
      <trkpt lat="49.78975" lon="2.24846">
        <ele>120.4</ele>
        <time>2022-10-07T12:06:25Z</time>
      </trkpt>
      <trkpt lat="49.78975" lon="2.24844">
        <ele>120.4</ele>
        <time>2022-10-07T12:06:26Z</time>
      </trkpt>
      <trkpt lat="49.78976" lon="2.24842">
        <ele>120.4</ele>
        <time>2022-10-07T12:06:27Z</time>
      </trkpt>
      <trkpt lat="49.78977" lon="2.24842">
        <ele>120.4</ele>
        <time>2022-10-07T12:06:29Z</time>
      </trkpt>
      <trkpt lat="49.78977" lon="2.2484">
        <ele>120.3</ele>
        <time>2022-10-07T12:06:30Z</time>
      </trkpt>
      <trkpt lat="49.78978" lon="2.24838">
        <ele>120.3</ele>
        <time>2022-10-07T12:06:31Z</time>
      </trkpt>
      <trkpt lat="49.78978" lon="2.24836">
        <ele>120.3</ele>
        <time>2022-10-07T12:06:32Z</time>
      </trkpt>
      <trkpt lat="49.78979" lon="2.24832">
        <ele>120.3</ele>
        <time>2022-10-07T12:06:33Z</time>
      </trkpt>
      <trkpt lat="49.78978" lon="2.24831">
        <ele>120.3</ele>
        <time>2022-10-07T12:06:34Z</time>
      </trkpt>
      <trkpt lat="49.78978" lon="2.2483">
        <ele>120.3</ele>
        <time>2022-10-07T12:06:35Z</time>
      </trkpt>
      <trkpt lat="49.78978" lon="2.24829">
        <ele>120.3</ele>
        <time>2022-10-07T12:06:36Z</time>
      </trkpt>
      <trkpt lat="49.78978" lon="2.24828">
        <ele>120.3</ele>
        <time>2022-10-07T12:06:37Z</time>
      </trkpt>
      <trkpt lat="49.78979" lon="2.24825">
        <ele>120.3</ele>
        <time>2022-10-07T12:06:38Z</time>
      </trkpt>
      <trkpt lat="49.7898" lon="2.24823">
        <ele>120.3</ele>
        <time>2022-10-07T12:06:39Z</time>
      </trkpt>
      <trkpt lat="49.7898" lon="2.24822">
        <ele>120.3</ele>
        <time>2022-10-07T12:06:40Z</time>
      </trkpt>
      <trkpt lat="49.78981" lon="2.24819">
        <ele>120.2</ele>
        <time>2022-10-07T12:06:41Z</time>
      </trkpt>
      <trkpt lat="49.78981" lon="2.24817">
        <ele>120.2</ele>
        <time>2022-10-07T12:06:42Z</time>
      </trkpt>
      <trkpt lat="49.78982" lon="2.24816">
        <ele>120.2</ele>
        <time>2022-10-07T12:06:43Z</time>
      </trkpt>
      <trkpt lat="49.78982" lon="2.24815">
        <ele>120.2</ele>
        <time>2022-10-07T12:06:44Z</time>
      </trkpt>
      <trkpt lat="49.78982" lon="2.24813">
        <ele>120.2</ele>
        <time>2022-10-07T12:06:45Z</time>
      </trkpt>
      <trkpt lat="49.78983" lon="2.24812">
        <ele>120.2</ele>
        <time>2022-10-07T12:06:46Z</time>
      </trkpt>
      <trkpt lat="49.78984" lon="2.24809">
        <ele>120.2</ele>
        <time>2022-10-07T12:06:47Z</time>
      </trkpt>
      <trkpt lat="49.78984" lon="2.24808">
        <ele>120.2</ele>
        <time>2022-10-07T12:06:48Z</time>
      </trkpt>
      <trkpt lat="49.78985" lon="2.24806">
        <ele>120.2</ele>
        <time>2022-10-07T12:06:49Z</time>
      </trkpt>
      <trkpt lat="49.78985" lon="2.24805">
        <ele>120.2</ele>
        <time>2022-10-07T12:06:51Z</time>
      </trkpt>
      <trkpt lat="49.78985" lon="2.24804">
        <ele>120.2</ele>
        <time>2022-10-07T12:06:52Z</time>
      </trkpt>
      <trkpt lat="49.78986" lon="2.24801">
        <ele>120.2</ele>
        <time>2022-10-07T12:06:54Z</time>
      </trkpt>
      <trkpt lat="49.78986" lon="2.248">
        <ele>120.2</ele>
        <time>2022-10-07T12:06:55Z</time>
      </trkpt>
      <trkpt lat="49.78987" lon="2.24799">
        <ele>120.2</ele>
        <time>2022-10-07T12:06:56Z</time>
      </trkpt>
      <trkpt lat="49.78987" lon="2.24798">
        <ele>120.2</ele>
        <time>2022-10-07T12:06:57Z</time>
      </trkpt>
      <trkpt lat="49.78988" lon="2.24797">
        <ele>120.1</ele>
        <time>2022-10-07T12:06:58Z</time>
      </trkpt>
      <trkpt lat="49.78988" lon="2.24796">
        <ele>120.1</ele>
        <time>2022-10-07T12:06:59Z</time>
      </trkpt>
      <trkpt lat="49.78989" lon="2.24795">
        <ele>120.1</ele>
        <time>2022-10-07T12:07:00Z</time>
      </trkpt>
      <trkpt lat="49.7899" lon="2.24794">
        <ele>120.1</ele>
        <time>2022-10-07T12:07:02Z</time>
      </trkpt>
      <trkpt lat="49.78991" lon="2.24791">
        <ele>120.1</ele>
        <time>2022-10-07T12:07:03Z</time>
      </trkpt>
      <trkpt lat="49.78991" lon="2.2479">
        <ele>120.1</ele>
        <time>2022-10-07T12:07:04Z</time>
      </trkpt>
      <trkpt lat="49.78992" lon="2.24789">
        <ele>120.1</ele>
        <time>2022-10-07T12:07:05Z</time>
      </trkpt>
      <trkpt lat="49.78993" lon="2.24786">
        <ele>120.1</ele>
        <time>2022-10-07T12:07:06Z</time>
      </trkpt>
      <trkpt lat="49.78993" lon="2.24785">
        <ele>120.1</ele>
        <time>2022-10-07T12:07:07Z</time>
      </trkpt>
      <trkpt lat="49.78994" lon="2.24784">
        <ele>120.1</ele>
        <time>2022-10-07T12:07:08Z</time>
      </trkpt>
      <trkpt lat="49.78994" lon="2.24782">
        <ele>120</ele>
        <time>2022-10-07T12:07:09Z</time>
      </trkpt>
      <trkpt lat="49.78996" lon="2.2478">
        <ele>120</ele>
        <time>2022-10-07T12:07:11Z</time>
      </trkpt>
      <trkpt lat="49.78997" lon="2.24778">
        <ele>120</ele>
        <time>2022-10-07T12:07:12Z</time>
      </trkpt>
      <trkpt lat="49.78998" lon="2.24777">
        <ele>120</ele>
        <time>2022-10-07T12:07:13Z</time>
      </trkpt>
      <trkpt lat="49.78999" lon="2.24775">
        <ele>120</ele>
        <time>2022-10-07T12:07:14Z</time>
      </trkpt>
      <trkpt lat="49.79" lon="2.24773">
        <ele>119.9</ele>
        <time>2022-10-07T12:07:16Z</time>
      </trkpt>
      <trkpt lat="49.79001" lon="2.24772">
        <ele>119.9</ele>
        <time>2022-10-07T12:07:17Z</time>
      </trkpt>
      <trkpt lat="49.79003" lon="2.2477">
        <ele>119.8</ele>
        <time>2022-10-07T12:07:18Z</time>
      </trkpt>
      <trkpt lat="49.79004" lon="2.24769">
        <ele>119.8</ele>
        <time>2022-10-07T12:07:19Z</time>
      </trkpt>
      <trkpt lat="49.79005" lon="2.24768">
        <ele>119.8</ele>
        <time>2022-10-07T12:07:20Z</time>
      </trkpt>
      <trkpt lat="49.79007" lon="2.24766">
        <ele>119.7</ele>
        <time>2022-10-07T12:07:22Z</time>
      </trkpt>
      <trkpt lat="49.79009" lon="2.24763">
        <ele>119.6</ele>
        <time>2022-10-07T12:07:23Z</time>
      </trkpt>
      <trkpt lat="49.7901" lon="2.24762">
        <ele>119.6</ele>
        <time>2022-10-07T12:07:24Z</time>
      </trkpt>
      <trkpt lat="49.79011" lon="2.24761">
        <ele>119.6</ele>
        <time>2022-10-07T12:07:25Z</time>
      </trkpt>
      <trkpt lat="49.79012" lon="2.2476">
        <ele>119.6</ele>
        <time>2022-10-07T12:07:26Z</time>
      </trkpt>
      <trkpt lat="49.79013" lon="2.24759">
        <ele>119.5</ele>
        <time>2022-10-07T12:07:28Z</time>
      </trkpt>
      <trkpt lat="49.79014" lon="2.24757">
        <ele>119.5</ele>
        <time>2022-10-07T12:07:29Z</time>
      </trkpt>
      <trkpt lat="49.79016" lon="2.24755">
        <ele>119.4</ele>
        <time>2022-10-07T12:07:30Z</time>
      </trkpt>
      <trkpt lat="49.79018" lon="2.24753">
        <ele>119.4</ele>
        <time>2022-10-07T12:07:31Z</time>
      </trkpt>
      <trkpt lat="49.79019" lon="2.24752">
        <ele>119.3</ele>
        <time>2022-10-07T12:07:32Z</time>
      </trkpt>
      <trkpt lat="49.7902" lon="2.2475">
        <ele>119.3</ele>
        <time>2022-10-07T12:07:33Z</time>
      </trkpt>
      <trkpt lat="49.7902" lon="2.2475">
        <ele>119.3</ele>
        <time>2022-10-07T12:07:34Z</time>
      </trkpt>
      <trkpt lat="49.79021" lon="2.24749">
        <ele>119.2</ele>
        <time>2022-10-07T12:07:35Z</time>
      </trkpt>
      <trkpt lat="49.79023" lon="2.24748">
        <ele>119.2</ele>
        <time>2022-10-07T12:07:36Z</time>
      </trkpt>
      <trkpt lat="49.79025" lon="2.24745">
        <ele>119.1</ele>
        <time>2022-10-07T12:07:37Z</time>
      </trkpt>
      <trkpt lat="49.79026" lon="2.24743">
        <ele>119.1</ele>
        <time>2022-10-07T12:07:38Z</time>
      </trkpt>
      <trkpt lat="49.79027" lon="2.24742">
        <ele>119</ele>
        <time>2022-10-07T12:07:40Z</time>
      </trkpt>
      <trkpt lat="49.79028" lon="2.2474">
        <ele>119</ele>
        <time>2022-10-07T12:07:41Z</time>
      </trkpt>
      <trkpt lat="49.79029" lon="2.24739">
        <ele>118.9</ele>
        <time>2022-10-07T12:07:42Z</time>
      </trkpt>
      <trkpt lat="49.79031" lon="2.24737">
        <ele>118.9</ele>
        <time>2022-10-07T12:07:43Z</time>
      </trkpt>
      <trkpt lat="49.79032" lon="2.24735">
        <ele>118.8</ele>
        <time>2022-10-07T12:07:44Z</time>
      </trkpt>
      <trkpt lat="49.79033" lon="2.24734">
        <ele>118.8</ele>
        <time>2022-10-07T12:07:46Z</time>
      </trkpt>
      <trkpt lat="49.79033" lon="2.24733">
        <ele>118.8</ele>
        <time>2022-10-07T12:07:47Z</time>
      </trkpt>
      <trkpt lat="49.79034" lon="2.24731">
        <ele>118.7</ele>
        <time>2022-10-07T12:07:48Z</time>
      </trkpt>
      <trkpt lat="49.79034" lon="2.24729">
        <ele>118.7</ele>
        <time>2022-10-07T12:07:49Z</time>
      </trkpt>
      <trkpt lat="49.79034" lon="2.24727">
        <ele>118.6</ele>
        <time>2022-10-07T12:07:50Z</time>
      </trkpt>
      <trkpt lat="49.79034" lon="2.24725">
        <ele>118.6</ele>
        <time>2022-10-07T12:07:51Z</time>
      </trkpt>
      <trkpt lat="49.79033" lon="2.24723">
        <ele>118.6</ele>
        <time>2022-10-07T12:07:52Z</time>
      </trkpt>
      <trkpt lat="49.79031" lon="2.2472">
        <ele>118.5</ele>
        <time>2022-10-07T12:07:54Z</time>
      </trkpt>
      <trkpt lat="49.79031" lon="2.24719">
        <ele>118.5</ele>
        <time>2022-10-07T12:07:55Z</time>
      </trkpt>
      <trkpt lat="49.7903" lon="2.24719">
        <ele>118.5</ele>
        <time>2022-10-07T12:07:56Z</time>
      </trkpt>
      <trkpt lat="49.7903" lon="2.24719">
        <ele>118.5</ele>
        <time>2022-10-07T12:07:57Z</time>
      </trkpt>
      <trkpt lat="49.7903" lon="2.24719">
        <ele>118.5</ele>
        <time>2022-10-07T12:07:58Z</time>
      </trkpt>
      <trkpt lat="49.79029" lon="2.2472">
        <ele>118.5</ele>
        <time>2022-10-07T12:07:59Z</time>
      </trkpt>
      <trkpt lat="49.79029" lon="2.24721">
        <ele>118.4</ele>
        <time>2022-10-07T12:08:00Z</time>
      </trkpt>
      <trkpt lat="49.79029" lon="2.24721">
        <ele>118.4</ele>
        <time>2022-10-07T12:08:02Z</time>
      </trkpt>
      <trkpt lat="49.79028" lon="2.24721">
        <ele>118.4</ele>
        <time>2022-10-07T12:08:03Z</time>
      </trkpt>
      <trkpt lat="49.79028" lon="2.24721">
        <ele>118.4</ele>
        <time>2022-10-07T12:08:04Z</time>
      </trkpt>
      <trkpt lat="49.79028" lon="2.24721">
        <ele>118.4</ele>
        <time>2022-10-07T12:08:05Z</time>
      </trkpt>
      <trkpt lat="49.79028" lon="2.24721">
        <ele>118.4</ele>
        <time>2022-10-07T12:08:06Z</time>
      </trkpt>
      <trkpt lat="49.79028" lon="2.24721">
        <ele>118.4</ele>
        <time>2022-10-07T12:08:07Z</time>
      </trkpt>
      <trkpt lat="49.79028" lon="2.24721">
        <ele>118.4</ele>
        <time>2022-10-07T12:08:08Z</time>
      </trkpt>
      <trkpt lat="49.79028" lon="2.24722">
        <ele>118.4</ele>
        <time>2022-10-07T12:08:09Z</time>
      </trkpt>
      <trkpt lat="49.79028" lon="2.24722">
        <ele>118.4</ele>
        <time>2022-10-07T12:08:10Z</time>
      </trkpt>
      <trkpt lat="49.79028" lon="2.24722">
        <ele>118.4</ele>
        <time>2022-10-07T12:08:11Z</time>
      </trkpt>
      <trkpt lat="49.79028" lon="2.24722">
        <ele>118.4</ele>
        <time>2022-10-07T12:08:12Z</time>
      </trkpt>
      <trkpt lat="49.79028" lon="2.24722">
        <ele>118.4</ele>
        <time>2022-10-07T12:08:13Z</time>
      </trkpt>
      <trkpt lat="49.79028" lon="2.24723">
        <ele>118.4</ele>
        <time>2022-10-07T12:08:14Z</time>
      </trkpt>
      <trkpt lat="49.79028" lon="2.24723">
        <ele>118.4</ele>
        <time>2022-10-07T12:08:15Z</time>
      </trkpt>
      <trkpt lat="49.79028" lon="2.24723">
        <ele>118.4</ele>
        <time>2022-10-07T12:08:16Z</time>
      </trkpt>
      <trkpt lat="49.79028" lon="2.24723">
        <ele>118.4</ele>
        <time>2022-10-07T12:08:17Z</time>
      </trkpt>
      <trkpt lat="49.79028" lon="2.24723">
        <ele>118.4</ele>
        <time>2022-10-07T12:08:18Z</time>
      </trkpt>
      <trkpt lat="49.79028" lon="2.24724">
        <ele>118.4</ele>
        <time>2022-10-07T12:08:19Z</time>
      </trkpt>
      <trkpt lat="49.79028" lon="2.24724">
        <ele>118.4</ele>
        <time>2022-10-07T12:08:20Z</time>
      </trkpt>
      <trkpt lat="49.79028" lon="2.24724">
        <ele>118.4</ele>
        <time>2022-10-07T12:08:21Z</time>
      </trkpt>
      <trkpt lat="49.79028" lon="2.24724">
        <ele>118.4</ele>
        <time>2022-10-07T12:08:22Z</time>
      </trkpt>
      <trkpt lat="49.79028" lon="2.24724">
        <ele>118.4</ele>
        <time>2022-10-07T12:08:23Z</time>
      </trkpt>
      <trkpt lat="49.79028" lon="2.24725">
        <ele>118.4</ele>
        <time>2022-10-07T12:08:24Z</time>
      </trkpt>
      <trkpt lat="49.79028" lon="2.24725">
        <ele>118.4</ele>
        <time>2022-10-07T12:08:25Z</time>
      </trkpt>
      <trkpt lat="49.79028" lon="2.24725">
        <ele>118.4</ele>
        <time>2022-10-07T12:08:26Z</time>
      </trkpt>
      <trkpt lat="49.79028" lon="2.24725">
        <ele>118.4</ele>
        <time>2022-10-07T12:08:27Z</time>
      </trkpt>
      <trkpt lat="49.79028" lon="2.24725">
        <ele>118.4</ele>
        <time>2022-10-07T12:08:28Z</time>
      </trkpt>
      <trkpt lat="49.79029" lon="2.24726">
        <ele>118.4</ele>
        <time>2022-10-07T12:08:29Z</time>
      </trkpt>
      <trkpt lat="49.79029" lon="2.24726">
        <ele>118.4</ele>
        <time>2022-10-07T12:08:30Z</time>
      </trkpt>
      <trkpt lat="49.79029" lon="2.24726">
        <ele>118.4</ele>
        <time>2022-10-07T12:08:31Z</time>
      </trkpt>
      <trkpt lat="49.79029" lon="2.24726">
        <ele>118.4</ele>
        <time>2022-10-07T12:08:32Z</time>
      </trkpt>
      <trkpt lat="49.79029" lon="2.24726">
        <ele>118.4</ele>
        <time>2022-10-07T12:08:33Z</time>
      </trkpt>
      <trkpt lat="49.79029" lon="2.24727">
        <ele>118.4</ele>
        <time>2022-10-07T12:08:34Z</time>
      </trkpt>
      <trkpt lat="49.79029" lon="2.24727">
        <ele>118.3</ele>
        <time>2022-10-07T12:08:35Z</time>
      </trkpt>
      <trkpt lat="49.79029" lon="2.24728">
        <ele>118.3</ele>
        <time>2022-10-07T12:08:36Z</time>
      </trkpt>
      <trkpt lat="49.7903" lon="2.24728">
        <ele>118.3</ele>
        <time>2022-10-07T12:08:37Z</time>
      </trkpt>
      <trkpt lat="49.7903" lon="2.24728">
        <ele>118.3</ele>
        <time>2022-10-07T12:08:38Z</time>
      </trkpt>
      <trkpt lat="49.79029" lon="2.24722">
        <ele>118.3</ele>
        <time>2022-10-07T12:08:39Z</time>
      </trkpt>
      <trkpt lat="49.79029" lon="2.2472">
        <ele>118.2</ele>
        <time>2022-10-07T12:08:40Z</time>
      </trkpt>
      <trkpt lat="49.79029" lon="2.24717">
        <ele>118.2</ele>
        <time>2022-10-07T12:08:42Z</time>
      </trkpt>
      <trkpt lat="49.79029" lon="2.24716">
        <ele>118.2</ele>
        <time>2022-10-07T12:08:43Z</time>
      </trkpt>
      <trkpt lat="49.79029" lon="2.24714">
        <ele>118.2</ele>
        <time>2022-10-07T12:08:44Z</time>
      </trkpt>
      <trkpt lat="49.7903" lon="2.24713">
        <ele>118.1</ele>
        <time>2022-10-07T12:08:45Z</time>
      </trkpt>
      <trkpt lat="49.79031" lon="2.2471">
        <ele>118.1</ele>
        <time>2022-10-07T12:08:46Z</time>
      </trkpt>
      <trkpt lat="49.79031" lon="2.24709">
        <ele>118.1</ele>
        <time>2022-10-07T12:08:47Z</time>
      </trkpt>
      <trkpt lat="49.79031" lon="2.24708">
        <ele>118.1</ele>
        <time>2022-10-07T12:08:49Z</time>
      </trkpt>
      <trkpt lat="49.7903" lon="2.24707">
        <ele>118.1</ele>
        <time>2022-10-07T12:08:50Z</time>
      </trkpt>
      <trkpt lat="49.7903" lon="2.24706">
        <ele>117.9</ele>
        <time>2022-10-07T12:08:51Z</time>
      </trkpt>
      <trkpt lat="49.7903" lon="2.24704">
        <ele>117.9</ele>
        <time>2022-10-07T12:08:52Z</time>
      </trkpt>
      <trkpt lat="49.7903" lon="2.24702">
        <ele>118</ele>
        <time>2022-10-07T12:08:53Z</time>
      </trkpt>
      <trkpt lat="49.7903" lon="2.24701">
        <ele>118</ele>
        <time>2022-10-07T12:08:54Z</time>
      </trkpt>
      <trkpt lat="49.7903" lon="2.247">
        <ele>118</ele>
        <time>2022-10-07T12:08:55Z</time>
      </trkpt>
      <trkpt lat="49.79029" lon="2.24698">
        <ele>118</ele>
        <time>2022-10-07T12:08:56Z</time>
      </trkpt>
      <trkpt lat="49.79028" lon="2.24697">
        <ele>118</ele>
        <time>2022-10-07T12:08:57Z</time>
      </trkpt>
      <trkpt lat="49.79027" lon="2.24696">
        <ele>118</ele>
        <time>2022-10-07T12:08:58Z</time>
      </trkpt>
      <trkpt lat="49.79026" lon="2.24694">
        <ele>118</ele>
        <time>2022-10-07T12:09:00Z</time>
      </trkpt>
      <trkpt lat="49.79025" lon="2.24694">
        <ele>118</ele>
        <time>2022-10-07T12:09:01Z</time>
      </trkpt>
      <trkpt lat="49.79023" lon="2.24693">
        <ele>118</ele>
        <time>2022-10-07T12:09:02Z</time>
      </trkpt>
      <trkpt lat="49.79022" lon="2.24692">
        <ele>118</ele>
        <time>2022-10-07T12:09:03Z</time>
      </trkpt>
      <trkpt lat="49.79021" lon="2.24691">
        <ele>118</ele>
        <time>2022-10-07T12:09:04Z</time>
      </trkpt>
      <trkpt lat="49.79019" lon="2.2469">
        <ele>118</ele>
        <time>2022-10-07T12:09:05Z</time>
      </trkpt>
      <trkpt lat="49.79018" lon="2.2469">
        <ele>118.1</ele>
        <time>2022-10-07T12:09:06Z</time>
      </trkpt>
      <trkpt lat="49.79017" lon="2.2469">
        <ele>118.1</ele>
        <time>2022-10-07T12:09:07Z</time>
      </trkpt>
      <trkpt lat="49.79016" lon="2.24689">
        <ele>118.1</ele>
        <time>2022-10-07T12:09:08Z</time>
      </trkpt>
      <trkpt lat="49.79015" lon="2.24688">
        <ele>118.1</ele>
        <time>2022-10-07T12:09:09Z</time>
      </trkpt>
      <trkpt lat="49.79014" lon="2.24688">
        <ele>118.1</ele>
        <time>2022-10-07T12:09:10Z</time>
      </trkpt>
      <trkpt lat="49.79013" lon="2.24688">
        <ele>118.1</ele>
        <time>2022-10-07T12:09:12Z</time>
      </trkpt>
      <trkpt lat="49.79012" lon="2.24687">
        <ele>118.1</ele>
        <time>2022-10-07T12:09:13Z</time>
      </trkpt>
      <trkpt lat="49.79012" lon="2.24687">
        <ele>118.1</ele>
        <time>2022-10-07T12:09:14Z</time>
      </trkpt>
      <trkpt lat="49.79011" lon="2.24686">
        <ele>118.1</ele>
        <time>2022-10-07T12:09:15Z</time>
      </trkpt>
      <trkpt lat="49.79009" lon="2.24686">
        <ele>118.1</ele>
        <time>2022-10-07T12:09:16Z</time>
      </trkpt>
      <trkpt lat="49.79008" lon="2.24685">
        <ele>118.2</ele>
        <time>2022-10-07T12:09:17Z</time>
      </trkpt>
      <trkpt lat="49.79006" lon="2.24684">
        <ele>118.2</ele>
        <time>2022-10-07T12:09:18Z</time>
      </trkpt>
      <trkpt lat="49.79005" lon="2.24684">
        <ele>118.2</ele>
        <time>2022-10-07T12:09:19Z</time>
      </trkpt>
      <trkpt lat="49.79004" lon="2.24684">
        <ele>118.2</ele>
        <time>2022-10-07T12:09:20Z</time>
      </trkpt>
      <trkpt lat="49.79002" lon="2.24684">
        <ele>118.3</ele>
        <time>2022-10-07T12:09:21Z</time>
      </trkpt>
      <trkpt lat="49.79001" lon="2.24684">
        <ele>118.3</ele>
        <time>2022-10-07T12:09:22Z</time>
      </trkpt>
      <trkpt lat="49.79" lon="2.24683">
        <ele>118.3</ele>
        <time>2022-10-07T12:09:24Z</time>
      </trkpt>
      <trkpt lat="49.78999" lon="2.24683">
        <ele>118.3</ele>
        <time>2022-10-07T12:09:25Z</time>
      </trkpt>
      <trkpt lat="49.78998" lon="2.24682">
        <ele>118.3</ele>
        <time>2022-10-07T12:09:26Z</time>
      </trkpt>
      <trkpt lat="49.78997" lon="2.24682">
        <ele>118.4</ele>
        <time>2022-10-07T12:09:27Z</time>
      </trkpt>
      <trkpt lat="49.78997" lon="2.24682">
        <ele>118.4</ele>
        <time>2022-10-07T12:09:28Z</time>
      </trkpt>
      <trkpt lat="49.78996" lon="2.24681">
        <ele>118.4</ele>
        <time>2022-10-07T12:09:29Z</time>
      </trkpt>
      <trkpt lat="49.78994" lon="2.2468">
        <ele>118.4</ele>
        <time>2022-10-07T12:09:30Z</time>
      </trkpt>
      <trkpt lat="49.78993" lon="2.24679">
        <ele>118.5</ele>
        <time>2022-10-07T12:09:31Z</time>
      </trkpt>
      <trkpt lat="49.78991" lon="2.24679">
        <ele>118.5</ele>
        <time>2022-10-07T12:09:32Z</time>
      </trkpt>
      <trkpt lat="49.78989" lon="2.24678">
        <ele>118.6</ele>
        <time>2022-10-07T12:09:34Z</time>
      </trkpt>
      <trkpt lat="49.78987" lon="2.24677">
        <ele>118.6</ele>
        <time>2022-10-07T12:09:35Z</time>
      </trkpt>
      <trkpt lat="49.78986" lon="2.24677">
        <ele>118.7</ele>
        <time>2022-10-07T12:09:36Z</time>
      </trkpt>
      <trkpt lat="49.78984" lon="2.24676">
        <ele>118.7</ele>
        <time>2022-10-07T12:09:37Z</time>
      </trkpt>
      <trkpt lat="49.78983" lon="2.24676">
        <ele>118.8</ele>
        <time>2022-10-07T12:09:38Z</time>
      </trkpt>
      <trkpt lat="49.78981" lon="2.24675">
        <ele>118.8</ele>
        <time>2022-10-07T12:09:39Z</time>
      </trkpt>
      <trkpt lat="49.78979" lon="2.24675">
        <ele>118.9</ele>
        <time>2022-10-07T12:09:41Z</time>
      </trkpt>
      <trkpt lat="49.78976" lon="2.24674">
        <ele>118.9</ele>
        <time>2022-10-07T12:09:42Z</time>
      </trkpt>
      <trkpt lat="49.78976" lon="2.24674">
        <ele>118.9</ele>
        <time>2022-10-07T12:09:43Z</time>
      </trkpt>
      <trkpt lat="49.78975" lon="2.24673">
        <ele>119</ele>
        <time>2022-10-07T12:09:44Z</time>
      </trkpt>
      <trkpt lat="49.78974" lon="2.24673">
        <ele>119</ele>
        <time>2022-10-07T12:09:45Z</time>
      </trkpt>
      <trkpt lat="49.78973" lon="2.24672">
        <ele>119</ele>
        <time>2022-10-07T12:09:46Z</time>
      </trkpt>
      <trkpt lat="49.78971" lon="2.24671">
        <ele>119.1</ele>
        <time>2022-10-07T12:09:47Z</time>
      </trkpt>
      <trkpt lat="49.7897" lon="2.2467">
        <ele>119.1</ele>
        <time>2022-10-07T12:09:48Z</time>
      </trkpt>
      <trkpt lat="49.78969" lon="2.2467">
        <ele>119.1</ele>
        <time>2022-10-07T12:09:49Z</time>
      </trkpt>
      <trkpt lat="49.78968" lon="2.24669">
        <ele>119.2</ele>
        <time>2022-10-07T12:09:50Z</time>
      </trkpt>
      <trkpt lat="49.78966" lon="2.24668">
        <ele>119.2</ele>
        <time>2022-10-07T12:09:52Z</time>
      </trkpt>
      <trkpt lat="49.78965" lon="2.24667">
        <ele>119.2</ele>
        <time>2022-10-07T12:09:53Z</time>
      </trkpt>
      <trkpt lat="49.78963" lon="2.24666">
        <ele>119.3</ele>
        <time>2022-10-07T12:09:54Z</time>
      </trkpt>
      <trkpt lat="49.78961" lon="2.24666">
        <ele>119.3</ele>
        <time>2022-10-07T12:09:56Z</time>
      </trkpt>
      <trkpt lat="49.7896" lon="2.24665">
        <ele>119.4</ele>
        <time>2022-10-07T12:09:57Z</time>
      </trkpt>
      <trkpt lat="49.78959" lon="2.24665">
        <ele>119.4</ele>
        <time>2022-10-07T12:09:58Z</time>
      </trkpt>
      <trkpt lat="49.78958" lon="2.24664">
        <ele>119.4</ele>
        <time>2022-10-07T12:09:59Z</time>
      </trkpt>
      <trkpt lat="49.78957" lon="2.24663">
        <ele>119.4</ele>
        <time>2022-10-07T12:10:00Z</time>
      </trkpt>
      <trkpt lat="49.78956" lon="2.24663">
        <ele>119.5</ele>
        <time>2022-10-07T12:10:01Z</time>
      </trkpt>
      <trkpt lat="49.78954" lon="2.24663">
        <ele>119.5</ele>
        <time>2022-10-07T12:10:02Z</time>
      </trkpt>
      <trkpt lat="49.78953" lon="2.24662">
        <ele>119.5</ele>
        <time>2022-10-07T12:10:03Z</time>
      </trkpt>
      <trkpt lat="49.78952" lon="2.24662">
        <ele>119.5</ele>
        <time>2022-10-07T12:10:04Z</time>
      </trkpt>
      <trkpt lat="49.78951" lon="2.24661">
        <ele>119.6</ele>
        <time>2022-10-07T12:10:06Z</time>
      </trkpt>
      <trkpt lat="49.78949" lon="2.24661">
        <ele>119.6</ele>
        <time>2022-10-07T12:10:07Z</time>
      </trkpt>
      <trkpt lat="49.78948" lon="2.24661">
        <ele>119.6</ele>
        <time>2022-10-07T12:10:08Z</time>
      </trkpt>
      <trkpt lat="49.78947" lon="2.24661">
        <ele>119.7</ele>
        <time>2022-10-07T12:10:09Z</time>
      </trkpt>
      <trkpt lat="49.78945" lon="2.2466">
        <ele>119.7</ele>
        <time>2022-10-07T12:10:10Z</time>
      </trkpt>
      <trkpt lat="49.78944" lon="2.2466">
        <ele>119.7</ele>
        <time>2022-10-07T12:10:12Z</time>
      </trkpt>
      <trkpt lat="49.78943" lon="2.24659">
        <ele>119.8</ele>
        <time>2022-10-07T12:10:13Z</time>
      </trkpt>
      <trkpt lat="49.78942" lon="2.24659">
        <ele>119.8</ele>
        <time>2022-10-07T12:10:14Z</time>
      </trkpt>
      <trkpt lat="49.7894" lon="2.24658">
        <ele>119.8</ele>
        <time>2022-10-07T12:10:15Z</time>
      </trkpt>
      <trkpt lat="49.78938" lon="2.24657">
        <ele>119.9</ele>
        <time>2022-10-07T12:10:16Z</time>
      </trkpt>
      <trkpt lat="49.78937" lon="2.24657">
        <ele>119.9</ele>
        <time>2022-10-07T12:10:17Z</time>
      </trkpt>
      <trkpt lat="49.78937" lon="2.24657">
        <ele>119.9</ele>
        <time>2022-10-07T12:10:18Z</time>
      </trkpt>
      <trkpt lat="49.78935" lon="2.24656">
        <ele>120</ele>
        <time>2022-10-07T12:10:20Z</time>
      </trkpt>
      <trkpt lat="49.78934" lon="2.24656">
        <ele>120</ele>
        <time>2022-10-07T12:10:21Z</time>
      </trkpt>
      <trkpt lat="49.78933" lon="2.24655">
        <ele>120</ele>
        <time>2022-10-07T12:10:22Z</time>
      </trkpt>
      <trkpt lat="49.78932" lon="2.24655">
        <ele>120</ele>
        <time>2022-10-07T12:10:23Z</time>
      </trkpt>
      <trkpt lat="49.78931" lon="2.24654">
        <ele>120.1</ele>
        <time>2022-10-07T12:10:24Z</time>
      </trkpt>
      <trkpt lat="49.78931" lon="2.24654">
        <ele>120.1</ele>
        <time>2022-10-07T12:10:25Z</time>
      </trkpt>
      <trkpt lat="49.7893" lon="2.24653">
        <ele>120.1</ele>
        <time>2022-10-07T12:10:26Z</time>
      </trkpt>
      <trkpt lat="49.78928" lon="2.24652">
        <ele>120.1</ele>
        <time>2022-10-07T12:10:27Z</time>
      </trkpt>
      <trkpt lat="49.78927" lon="2.24652">
        <ele>120.2</ele>
        <time>2022-10-07T12:10:28Z</time>
      </trkpt>
      <trkpt lat="49.78926" lon="2.24651">
        <ele>120.2</ele>
        <time>2022-10-07T12:10:29Z</time>
      </trkpt>
      <trkpt lat="49.78925" lon="2.2465">
        <ele>120.2</ele>
        <time>2022-10-07T12:10:30Z</time>
      </trkpt>
      <trkpt lat="49.78923" lon="2.24649">
        <ele>120.3</ele>
        <time>2022-10-07T12:10:32Z</time>
      </trkpt>
      <trkpt lat="49.78921" lon="2.24648">
        <ele>120.3</ele>
        <time>2022-10-07T12:10:33Z</time>
      </trkpt>
      <trkpt lat="49.7892" lon="2.24647">
        <ele>120.4</ele>
        <time>2022-10-07T12:10:34Z</time>
      </trkpt>
      <trkpt lat="49.78919" lon="2.24647">
        <ele>120.4</ele>
        <time>2022-10-07T12:10:35Z</time>
      </trkpt>
      <trkpt lat="49.78918" lon="2.24646">
        <ele>120.4</ele>
        <time>2022-10-07T12:10:36Z</time>
      </trkpt>
      <trkpt lat="49.78917" lon="2.24645">
        <ele>120.5</ele>
        <time>2022-10-07T12:10:37Z</time>
      </trkpt>
      <trkpt lat="49.78916" lon="2.24644">
        <ele>120.5</ele>
        <time>2022-10-07T12:10:39Z</time>
      </trkpt>
      <trkpt lat="49.78913" lon="2.24643">
        <ele>120.6</ele>
        <time>2022-10-07T12:10:40Z</time>
      </trkpt>
      <trkpt lat="49.78913" lon="2.24643">
        <ele>120.6</ele>
        <time>2022-10-07T12:10:41Z</time>
      </trkpt>
      <trkpt lat="49.78912" lon="2.24642">
        <ele>120.6</ele>
        <time>2022-10-07T12:10:42Z</time>
      </trkpt>
      <trkpt lat="49.7891" lon="2.24641">
        <ele>120.7</ele>
        <time>2022-10-07T12:10:43Z</time>
      </trkpt>
      <trkpt lat="49.78909" lon="2.24641">
        <ele>120.7</ele>
        <time>2022-10-07T12:10:44Z</time>
      </trkpt>
      <trkpt lat="49.78906" lon="2.24639">
        <ele>120.8</ele>
        <time>2022-10-07T12:10:46Z</time>
      </trkpt>
      <trkpt lat="49.78905" lon="2.24639">
        <ele>120.8</ele>
        <time>2022-10-07T12:10:47Z</time>
      </trkpt>
      <trkpt lat="49.78904" lon="2.24638">
        <ele>120.8</ele>
        <time>2022-10-07T12:10:48Z</time>
      </trkpt>
      <trkpt lat="49.78903" lon="2.24638">
        <ele>120.9</ele>
        <time>2022-10-07T12:10:49Z</time>
      </trkpt>
      <trkpt lat="49.78902" lon="2.24638">
        <ele>120.9</ele>
        <time>2022-10-07T12:10:50Z</time>
      </trkpt>
      <trkpt lat="49.78901" lon="2.24638">
        <ele>120.9</ele>
        <time>2022-10-07T12:10:51Z</time>
      </trkpt>
      <trkpt lat="49.78899" lon="2.24637">
        <ele>121</ele>
        <time>2022-10-07T12:10:52Z</time>
      </trkpt>
      <trkpt lat="49.78898" lon="2.24637">
        <ele>121</ele>
        <time>2022-10-07T12:10:53Z</time>
      </trkpt>
      <trkpt lat="49.78897" lon="2.24637">
        <ele>121</ele>
        <time>2022-10-07T12:10:55Z</time>
      </trkpt>
      <trkpt lat="49.78896" lon="2.24636">
        <ele>121.1</ele>
        <time>2022-10-07T12:10:56Z</time>
      </trkpt>
      <trkpt lat="49.78895" lon="2.24636">
        <ele>121.1</ele>
        <time>2022-10-07T12:10:57Z</time>
      </trkpt>
      <trkpt lat="49.78894" lon="2.24636">
        <ele>121.1</ele>
        <time>2022-10-07T12:10:58Z</time>
      </trkpt>
      <trkpt lat="49.78893" lon="2.24635">
        <ele>121.1</ele>
        <time>2022-10-07T12:10:59Z</time>
      </trkpt>
      <trkpt lat="49.78892" lon="2.24635">
        <ele>121.2</ele>
        <time>2022-10-07T12:11:00Z</time>
      </trkpt>
      <trkpt lat="49.78891" lon="2.24635">
        <ele>121.2</ele>
        <time>2022-10-07T12:11:01Z</time>
      </trkpt>
      <trkpt lat="49.78889" lon="2.24634">
        <ele>121.2</ele>
        <time>2022-10-07T12:11:02Z</time>
      </trkpt>
      <trkpt lat="49.78888" lon="2.24634">
        <ele>121.2</ele>
        <time>2022-10-07T12:11:03Z</time>
      </trkpt>
      <trkpt lat="49.78887" lon="2.24633">
        <ele>121.3</ele>
        <time>2022-10-07T12:11:05Z</time>
      </trkpt>
      <trkpt lat="49.78886" lon="2.24633">
        <ele>121.3</ele>
        <time>2022-10-07T12:11:06Z</time>
      </trkpt>
      <trkpt lat="49.78885" lon="2.24632">
        <ele>121.3</ele>
        <time>2022-10-07T12:11:07Z</time>
      </trkpt>
      <trkpt lat="49.78883" lon="2.24632">
        <ele>121.4</ele>
        <time>2022-10-07T12:11:08Z</time>
      </trkpt>
      <trkpt lat="49.78882" lon="2.24632">
        <ele>121.4</ele>
        <time>2022-10-07T12:11:09Z</time>
      </trkpt>
      <trkpt lat="49.78881" lon="2.24633">
        <ele>121.4</ele>
        <time>2022-10-07T12:11:11Z</time>
      </trkpt>
      <trkpt lat="49.78881" lon="2.24634">
        <ele>121.4</ele>
        <time>2022-10-07T12:11:12Z</time>
      </trkpt>
      <trkpt lat="49.78881" lon="2.24635">
        <ele>121.4</ele>
        <time>2022-10-07T12:11:13Z</time>
      </trkpt>
      <trkpt lat="49.78881" lon="2.24636">
        <ele>121.4</ele>
        <time>2022-10-07T12:11:14Z</time>
      </trkpt>
      <trkpt lat="49.78881" lon="2.24636">
        <ele>121.5</ele>
        <time>2022-10-07T12:11:15Z</time>
      </trkpt>
      <trkpt lat="49.7888" lon="2.24635">
        <ele>121.5</ele>
        <time>2022-10-07T12:11:17Z</time>
      </trkpt>
      <trkpt lat="49.78879" lon="2.24634">
        <ele>121.5</ele>
        <time>2022-10-07T12:11:18Z</time>
      </trkpt>
      <trkpt lat="49.78878" lon="2.24634">
        <ele>121.5</ele>
        <time>2022-10-07T12:11:19Z</time>
      </trkpt>
      <trkpt lat="49.78877" lon="2.24633">
        <ele>121.5</ele>
        <time>2022-10-07T12:11:20Z</time>
      </trkpt>
      <trkpt lat="49.78876" lon="2.24633">
        <ele>121.5</ele>
        <time>2022-10-07T12:11:21Z</time>
      </trkpt>
      <trkpt lat="49.78875" lon="2.24632">
        <ele>121.6</ele>
        <time>2022-10-07T12:11:22Z</time>
      </trkpt>
      <trkpt lat="49.78874" lon="2.24631">
        <ele>121.6</ele>
        <time>2022-10-07T12:11:24Z</time>
      </trkpt>
      <trkpt lat="49.78873" lon="2.2463">
        <ele>121.6</ele>
        <time>2022-10-07T12:11:25Z</time>
      </trkpt>
      <trkpt lat="49.78871" lon="2.24629">
        <ele>121.7</ele>
        <time>2022-10-07T12:11:26Z</time>
      </trkpt>
      <trkpt lat="49.7887" lon="2.24628">
        <ele>121.7</ele>
        <time>2022-10-07T12:11:27Z</time>
      </trkpt>
      <trkpt lat="49.78869" lon="2.24627">
        <ele>121.7</ele>
        <time>2022-10-07T12:11:28Z</time>
      </trkpt>
      <trkpt lat="49.78867" lon="2.24626">
        <ele>121.7</ele>
        <time>2022-10-07T12:11:29Z</time>
      </trkpt>
      <trkpt lat="49.78866" lon="2.24626">
        <ele>121.7</ele>
        <time>2022-10-07T12:11:30Z</time>
      </trkpt>
      <trkpt lat="49.78865" lon="2.24625">
        <ele>121.8</ele>
        <time>2022-10-07T12:11:31Z</time>
      </trkpt>
      <trkpt lat="49.78864" lon="2.24625">
        <ele>121.8</ele>
        <time>2022-10-07T12:11:32Z</time>
      </trkpt>
      <trkpt lat="49.78862" lon="2.24624">
        <ele>121.8</ele>
        <time>2022-10-07T12:11:33Z</time>
      </trkpt>
      <trkpt lat="49.78861" lon="2.24623">
        <ele>121.8</ele>
        <time>2022-10-07T12:11:34Z</time>
      </trkpt>
      <trkpt lat="49.78859" lon="2.24623">
        <ele>121.8</ele>
        <time>2022-10-07T12:11:35Z</time>
      </trkpt>
      <trkpt lat="49.78858" lon="2.24622">
        <ele>121.9</ele>
        <time>2022-10-07T12:11:37Z</time>
      </trkpt>
      <trkpt lat="49.78856" lon="2.24621">
        <ele>121.9</ele>
        <time>2022-10-07T12:11:38Z</time>
      </trkpt>
      <trkpt lat="49.78855" lon="2.24621">
        <ele>121.9</ele>
        <time>2022-10-07T12:11:39Z</time>
      </trkpt>
      <trkpt lat="49.78854" lon="2.2462">
        <ele>121.9</ele>
        <time>2022-10-07T12:11:40Z</time>
      </trkpt>
      <trkpt lat="49.78853" lon="2.2462">
        <ele>122</ele>
        <time>2022-10-07T12:11:41Z</time>
      </trkpt>
      <trkpt lat="49.78851" lon="2.24619">
        <ele>122</ele>
        <time>2022-10-07T12:11:42Z</time>
      </trkpt>
      <trkpt lat="49.7885" lon="2.24618">
        <ele>122</ele>
        <time>2022-10-07T12:11:43Z</time>
      </trkpt>
      <trkpt lat="49.78849" lon="2.24618">
        <ele>122</ele>
        <time>2022-10-07T12:11:44Z</time>
      </trkpt>
      <trkpt lat="49.78847" lon="2.24617">
        <ele>122.1</ele>
        <time>2022-10-07T12:11:46Z</time>
      </trkpt>
      <trkpt lat="49.78846" lon="2.24616">
        <ele>122.1</ele>
        <time>2022-10-07T12:11:47Z</time>
      </trkpt>
      <trkpt lat="49.78844" lon="2.24615">
        <ele>122.1</ele>
        <time>2022-10-07T12:11:48Z</time>
      </trkpt>
      <trkpt lat="49.78843" lon="2.24614">
        <ele>122.2</ele>
        <time>2022-10-07T12:11:49Z</time>
      </trkpt>
      <trkpt lat="49.78841" lon="2.24613">
        <ele>122.2</ele>
        <time>2022-10-07T12:11:50Z</time>
      </trkpt>
      <trkpt lat="49.7884" lon="2.24612">
        <ele>122.2</ele>
        <time>2022-10-07T12:11:52Z</time>
      </trkpt>
      <trkpt lat="49.78839" lon="2.24612">
        <ele>122.2</ele>
        <time>2022-10-07T12:11:53Z</time>
      </trkpt>
      <trkpt lat="49.78838" lon="2.24611">
        <ele>122.3</ele>
        <time>2022-10-07T12:11:54Z</time>
      </trkpt>
      <trkpt lat="49.78837" lon="2.24611">
        <ele>122.3</ele>
        <time>2022-10-07T12:11:55Z</time>
      </trkpt>
      <trkpt lat="49.78835" lon="2.2461">
        <ele>122.3</ele>
        <time>2022-10-07T12:11:56Z</time>
      </trkpt>
      <trkpt lat="49.78833" lon="2.24609">
        <ele>122.4</ele>
        <time>2022-10-07T12:11:58Z</time>
      </trkpt>
      <trkpt lat="49.78831" lon="2.24608">
        <ele>122.4</ele>
        <time>2022-10-07T12:11:59Z</time>
      </trkpt>
      <trkpt lat="49.7883" lon="2.24608">
        <ele>122.4</ele>
        <time>2022-10-07T12:12:00Z</time>
      </trkpt>
      <trkpt lat="49.7883" lon="2.24608">
        <ele>122.4</ele>
        <time>2022-10-07T12:12:01Z</time>
      </trkpt>
      <trkpt lat="49.78828" lon="2.24607">
        <ele>122.4</ele>
        <time>2022-10-07T12:12:02Z</time>
      </trkpt>
      <trkpt lat="49.78827" lon="2.24606">
        <ele>122.5</ele>
        <time>2022-10-07T12:12:03Z</time>
      </trkpt>
      <trkpt lat="49.78825" lon="2.24605">
        <ele>122.5</ele>
        <time>2022-10-07T12:12:04Z</time>
      </trkpt>
      <trkpt lat="49.78824" lon="2.24605">
        <ele>122.5</ele>
        <time>2022-10-07T12:12:05Z</time>
      </trkpt>
      <trkpt lat="49.78823" lon="2.24605">
        <ele>122.5</ele>
        <time>2022-10-07T12:12:06Z</time>
      </trkpt>
      <trkpt lat="49.7882" lon="2.24604">
        <ele>122.6</ele>
        <time>2022-10-07T12:12:08Z</time>
      </trkpt>
      <trkpt lat="49.7882" lon="2.24603">
        <ele>122.6</ele>
        <time>2022-10-07T12:12:09Z</time>
      </trkpt>
      <trkpt lat="49.78818" lon="2.24602">
        <ele>122.6</ele>
        <time>2022-10-07T12:12:10Z</time>
      </trkpt>
      <trkpt lat="49.78817" lon="2.24601">
        <ele>122.6</ele>
        <time>2022-10-07T12:12:11Z</time>
      </trkpt>
      <trkpt lat="49.78816" lon="2.24601">
        <ele>122.7</ele>
        <time>2022-10-07T12:12:12Z</time>
      </trkpt>
      <trkpt lat="49.78814" lon="2.246">
        <ele>122.7</ele>
        <time>2022-10-07T12:12:13Z</time>
      </trkpt>
      <trkpt lat="49.78814" lon="2.246">
        <ele>122.7</ele>
        <time>2022-10-07T12:12:14Z</time>
      </trkpt>
      <trkpt lat="49.78813" lon="2.246">
        <ele>122.7</ele>
        <time>2022-10-07T12:12:15Z</time>
      </trkpt>
      <trkpt lat="49.78811" lon="2.24599">
        <ele>122.7</ele>
        <time>2022-10-07T12:12:16Z</time>
      </trkpt>
      <trkpt lat="49.7881" lon="2.24599">
        <ele>122.7</ele>
        <time>2022-10-07T12:12:18Z</time>
      </trkpt>
      <trkpt lat="49.78809" lon="2.24599">
        <ele>122.7</ele>
        <time>2022-10-07T12:12:19Z</time>
      </trkpt>
      <trkpt lat="49.78808" lon="2.24599">
        <ele>122.7</ele>
        <time>2022-10-07T12:12:20Z</time>
      </trkpt>
      <trkpt lat="49.78807" lon="2.24599">
        <ele>122.8</ele>
        <time>2022-10-07T12:12:21Z</time>
      </trkpt>
      <trkpt lat="49.78806" lon="2.24598">
        <ele>122.8</ele>
        <time>2022-10-07T12:12:22Z</time>
      </trkpt>
      <trkpt lat="49.78804" lon="2.24598">
        <ele>122.8</ele>
        <time>2022-10-07T12:12:23Z</time>
      </trkpt>
      <trkpt lat="49.78803" lon="2.24597">
        <ele>122.8</ele>
        <time>2022-10-07T12:12:24Z</time>
      </trkpt>
      <trkpt lat="49.78802" lon="2.24597">
        <ele>122.8</ele>
        <time>2022-10-07T12:12:25Z</time>
      </trkpt>
      <trkpt lat="49.78801" lon="2.24598">
        <ele>122.8</ele>
        <time>2022-10-07T12:12:27Z</time>
      </trkpt>
      <trkpt lat="49.78799" lon="2.24597">
        <ele>122.8</ele>
        <time>2022-10-07T12:12:28Z</time>
      </trkpt>
      <trkpt lat="49.78798" lon="2.24597">
        <ele>122.9</ele>
        <time>2022-10-07T12:12:29Z</time>
      </trkpt>
      <trkpt lat="49.78797" lon="2.24597">
        <ele>122.9</ele>
        <time>2022-10-07T12:12:30Z</time>
      </trkpt>
      <trkpt lat="49.78796" lon="2.24597">
        <ele>122.9</ele>
        <time>2022-10-07T12:12:31Z</time>
      </trkpt>
      <trkpt lat="49.78795" lon="2.24596">
        <ele>122.9</ele>
        <time>2022-10-07T12:12:32Z</time>
      </trkpt>
      <trkpt lat="49.78794" lon="2.24596">
        <ele>122.9</ele>
        <time>2022-10-07T12:12:34Z</time>
      </trkpt>
      <trkpt lat="49.78793" lon="2.24596">
        <ele>122.9</ele>
        <time>2022-10-07T12:12:35Z</time>
      </trkpt>
      <trkpt lat="49.78792" lon="2.24596">
        <ele>122.9</ele>
        <time>2022-10-07T12:12:36Z</time>
      </trkpt>
      <trkpt lat="49.78791" lon="2.24596">
        <ele>123</ele>
        <time>2022-10-07T12:12:37Z</time>
      </trkpt>
      <trkpt lat="49.7879" lon="2.24595">
        <ele>123</ele>
        <time>2022-10-07T12:12:38Z</time>
      </trkpt>
      <trkpt lat="49.78789" lon="2.24595">
        <ele>123</ele>
        <time>2022-10-07T12:12:39Z</time>
      </trkpt>
      <trkpt lat="49.78788" lon="2.24594">
        <ele>123</ele>
        <time>2022-10-07T12:12:40Z</time>
      </trkpt>
      <trkpt lat="49.78786" lon="2.24594">
        <ele>123</ele>
        <time>2022-10-07T12:12:42Z</time>
      </trkpt>
      <trkpt lat="49.78785" lon="2.24593">
        <ele>123</ele>
        <time>2022-10-07T12:12:43Z</time>
      </trkpt>
      <trkpt lat="49.78784" lon="2.24592">
        <ele>123.1</ele>
        <time>2022-10-07T12:12:44Z</time>
      </trkpt>
      <trkpt lat="49.78783" lon="2.24592">
        <ele>123.1</ele>
        <time>2022-10-07T12:12:45Z</time>
      </trkpt>
      <trkpt lat="49.78782" lon="2.24591">
        <ele>123.1</ele>
        <time>2022-10-07T12:12:46Z</time>
      </trkpt>
      <trkpt lat="49.7878" lon="2.2459">
        <ele>123.1</ele>
        <time>2022-10-07T12:12:47Z</time>
      </trkpt>
      <trkpt lat="49.78779" lon="2.24589">
        <ele>123.1</ele>
        <time>2022-10-07T12:12:48Z</time>
      </trkpt>
      <trkpt lat="49.78778" lon="2.24589">
        <ele>123.1</ele>
        <time>2022-10-07T12:12:49Z</time>
      </trkpt>
      <trkpt lat="49.78776" lon="2.24587">
        <ele>123.2</ele>
        <time>2022-10-07T12:12:51Z</time>
      </trkpt>
      <trkpt lat="49.78775" lon="2.24587">
        <ele>123.2</ele>
        <time>2022-10-07T12:12:52Z</time>
      </trkpt>
      <trkpt lat="49.78774" lon="2.24586">
        <ele>123.2</ele>
        <time>2022-10-07T12:12:53Z</time>
      </trkpt>
      <trkpt lat="49.78773" lon="2.24586">
        <ele>123.2</ele>
        <time>2022-10-07T12:12:54Z</time>
      </trkpt>
      <trkpt lat="49.78772" lon="2.24585">
        <ele>123.2</ele>
        <time>2022-10-07T12:12:55Z</time>
      </trkpt>
      <trkpt lat="49.7877" lon="2.24584">
        <ele>123.3</ele>
        <time>2022-10-07T12:12:57Z</time>
      </trkpt>
      <trkpt lat="49.78767" lon="2.24582">
        <ele>123.3</ele>
        <time>2022-10-07T12:12:58Z</time>
      </trkpt>
      <trkpt lat="49.78767" lon="2.24582">
        <ele>123.3</ele>
        <time>2022-10-07T12:12:59Z</time>
      </trkpt>
      <trkpt lat="49.78765" lon="2.2458">
        <ele>123.3</ele>
        <time>2022-10-07T12:13:00Z</time>
      </trkpt>
      <trkpt lat="49.78763" lon="2.2458">
        <ele>123.3</ele>
        <time>2022-10-07T12:13:02Z</time>
      </trkpt>
      <trkpt lat="49.78762" lon="2.24579">
        <ele>123.3</ele>
        <time>2022-10-07T12:13:03Z</time>
      </trkpt>
      <trkpt lat="49.78762" lon="2.24579">
        <ele>123.4</ele>
        <time>2022-10-07T12:13:04Z</time>
      </trkpt>
      <trkpt lat="49.7876" lon="2.24578">
        <ele>123.4</ele>
        <time>2022-10-07T12:13:05Z</time>
      </trkpt>
      <trkpt lat="49.78759" lon="2.24578">
        <ele>123.4</ele>
        <time>2022-10-07T12:13:06Z</time>
      </trkpt>
      <trkpt lat="49.78756" lon="2.24577">
        <ele>123.4</ele>
        <time>2022-10-07T12:13:07Z</time>
      </trkpt>
      <trkpt lat="49.78755" lon="2.24577">
        <ele>123.4</ele>
        <time>2022-10-07T12:13:08Z</time>
      </trkpt>
      <trkpt lat="49.78754" lon="2.24577">
        <ele>123.4</ele>
        <time>2022-10-07T12:13:09Z</time>
      </trkpt>
      <trkpt lat="49.78752" lon="2.24576">
        <ele>123.5</ele>
        <time>2022-10-07T12:13:10Z</time>
      </trkpt>
      <trkpt lat="49.78751" lon="2.24576">
        <ele>123.5</ele>
        <time>2022-10-07T12:13:11Z</time>
      </trkpt>
      <trkpt lat="49.78749" lon="2.24576">
        <ele>123.5</ele>
        <time>2022-10-07T12:13:13Z</time>
      </trkpt>
      <trkpt lat="49.78748" lon="2.24575">
        <ele>123.5</ele>
        <time>2022-10-07T12:13:14Z</time>
      </trkpt>
      <trkpt lat="49.78746" lon="2.24575">
        <ele>123.5</ele>
        <time>2022-10-07T12:13:15Z</time>
      </trkpt>
      <trkpt lat="49.78745" lon="2.24575">
        <ele>123.5</ele>
        <time>2022-10-07T12:13:16Z</time>
      </trkpt>
      <trkpt lat="49.78744" lon="2.24575">
        <ele>123.5</ele>
        <time>2022-10-07T12:13:17Z</time>
      </trkpt>
      <trkpt lat="49.78742" lon="2.24574">
        <ele>123.6</ele>
        <time>2022-10-07T12:13:18Z</time>
      </trkpt>
      <trkpt lat="49.7874" lon="2.24573">
        <ele>123.6</ele>
        <time>2022-10-07T12:13:20Z</time>
      </trkpt>
      <trkpt lat="49.78739" lon="2.24573">
        <ele>123.6</ele>
        <time>2022-10-07T12:13:21Z</time>
      </trkpt>
      <trkpt lat="49.78739" lon="2.24572">
        <ele>123.6</ele>
        <time>2022-10-07T12:13:22Z</time>
      </trkpt>
      <trkpt lat="49.78736" lon="2.24571">
        <ele>123.6</ele>
        <time>2022-10-07T12:13:23Z</time>
      </trkpt>
      <trkpt lat="49.78736" lon="2.24571">
        <ele>123.6</ele>
        <time>2022-10-07T12:13:24Z</time>
      </trkpt>
      <trkpt lat="49.78735" lon="2.2457">
        <ele>123.6</ele>
        <time>2022-10-07T12:13:25Z</time>
      </trkpt>
      <trkpt lat="49.78733" lon="2.2457">
        <ele>123.6</ele>
        <time>2022-10-07T12:13:26Z</time>
      </trkpt>
      <trkpt lat="49.78732" lon="2.24569">
        <ele>123.6</ele>
        <time>2022-10-07T12:13:27Z</time>
      </trkpt>
      <trkpt lat="49.78731" lon="2.24569">
        <ele>123.6</ele>
        <time>2022-10-07T12:13:28Z</time>
      </trkpt>
      <trkpt lat="49.78729" lon="2.24568">
        <ele>123.7</ele>
        <time>2022-10-07T12:13:30Z</time>
      </trkpt>
      <trkpt lat="49.78728" lon="2.24567">
        <ele>123.7</ele>
        <time>2022-10-07T12:13:31Z</time>
      </trkpt>
      <trkpt lat="49.78727" lon="2.24567">
        <ele>123.7</ele>
        <time>2022-10-07T12:13:32Z</time>
      </trkpt>
      <trkpt lat="49.78726" lon="2.24566">
        <ele>123.7</ele>
        <time>2022-10-07T12:13:33Z</time>
      </trkpt>
      <trkpt lat="49.78725" lon="2.24566">
        <ele>123.7</ele>
        <time>2022-10-07T12:13:34Z</time>
      </trkpt>
      <trkpt lat="49.78724" lon="2.24566">
        <ele>123.7</ele>
        <time>2022-10-07T12:13:35Z</time>
      </trkpt>
      <trkpt lat="49.78723" lon="2.24566">
        <ele>123.7</ele>
        <time>2022-10-07T12:13:36Z</time>
      </trkpt>
      <trkpt lat="49.78722" lon="2.24565">
        <ele>123.7</ele>
        <time>2022-10-07T12:13:37Z</time>
      </trkpt>
      <trkpt lat="49.7872" lon="2.24564">
        <ele>123.8</ele>
        <time>2022-10-07T12:13:39Z</time>
      </trkpt>
      <trkpt lat="49.78719" lon="2.24564">
        <ele>123.8</ele>
        <time>2022-10-07T12:13:40Z</time>
      </trkpt>
      <trkpt lat="49.78718" lon="2.24564">
        <ele>123.8</ele>
        <time>2022-10-07T12:13:41Z</time>
      </trkpt>
      <trkpt lat="49.78717" lon="2.24564">
        <ele>123.8</ele>
        <time>2022-10-07T12:13:42Z</time>
      </trkpt>
      <trkpt lat="49.78715" lon="2.24563">
        <ele>123.8</ele>
        <time>2022-10-07T12:13:43Z</time>
      </trkpt>
      <trkpt lat="49.78714" lon="2.24562">
        <ele>123.8</ele>
        <time>2022-10-07T12:13:44Z</time>
      </trkpt>
      <trkpt lat="49.78712" lon="2.24561">
        <ele>123.8</ele>
        <time>2022-10-07T12:13:45Z</time>
      </trkpt>
      <trkpt lat="49.78711" lon="2.24561">
        <ele>123.9</ele>
        <time>2022-10-07T12:13:47Z</time>
      </trkpt>
      <trkpt lat="49.78711" lon="2.24561">
        <ele>123.9</ele>
        <time>2022-10-07T12:13:48Z</time>
      </trkpt>
      <trkpt lat="49.78709" lon="2.2456">
        <ele>123.9</ele>
        <time>2022-10-07T12:13:49Z</time>
      </trkpt>
      <trkpt lat="49.78708" lon="2.2456">
        <ele>123.9</ele>
        <time>2022-10-07T12:13:50Z</time>
      </trkpt>
      <trkpt lat="49.78708" lon="2.2456">
        <ele>123.9</ele>
        <time>2022-10-07T12:13:51Z</time>
      </trkpt>
      <trkpt lat="49.78707" lon="2.24559">
        <ele>123.9</ele>
        <time>2022-10-07T12:13:52Z</time>
      </trkpt>
      <trkpt lat="49.78705" lon="2.24559">
        <ele>123.9</ele>
        <time>2022-10-07T12:13:53Z</time>
      </trkpt>
      <trkpt lat="49.78703" lon="2.24558">
        <ele>123.9</ele>
        <time>2022-10-07T12:13:54Z</time>
      </trkpt>
      <trkpt lat="49.78702" lon="2.24558">
        <ele>124</ele>
        <time>2022-10-07T12:13:55Z</time>
      </trkpt>
      <trkpt lat="49.78701" lon="2.24557">
        <ele>124</ele>
        <time>2022-10-07T12:13:56Z</time>
      </trkpt>
      <trkpt lat="49.78699" lon="2.24556">
        <ele>124</ele>
        <time>2022-10-07T12:13:57Z</time>
      </trkpt>
      <trkpt lat="49.78698" lon="2.24555">
        <ele>124</ele>
        <time>2022-10-07T12:13:59Z</time>
      </trkpt>
      <trkpt lat="49.78697" lon="2.24555">
        <ele>124</ele>
        <time>2022-10-07T12:14:00Z</time>
      </trkpt>
      <trkpt lat="49.78696" lon="2.24554">
        <ele>124</ele>
        <time>2022-10-07T12:14:01Z</time>
      </trkpt>
      <trkpt lat="49.78695" lon="2.24553">
        <ele>124</ele>
        <time>2022-10-07T12:14:02Z</time>
      </trkpt>
      <trkpt lat="49.78694" lon="2.24552">
        <ele>124</ele>
        <time>2022-10-07T12:14:03Z</time>
      </trkpt>
      <trkpt lat="49.78692" lon="2.24551">
        <ele>124</ele>
        <time>2022-10-07T12:14:04Z</time>
      </trkpt>
      <trkpt lat="49.78691" lon="2.24551">
        <ele>124</ele>
        <time>2022-10-07T12:14:05Z</time>
      </trkpt>
      <trkpt lat="49.78691" lon="2.2455">
        <ele>124</ele>
        <time>2022-10-07T12:14:06Z</time>
      </trkpt>
      <trkpt lat="49.78689" lon="2.2455">
        <ele>124</ele>
        <time>2022-10-07T12:14:07Z</time>
      </trkpt>
      <trkpt lat="49.78686" lon="2.24549">
        <ele>124.1</ele>
        <time>2022-10-07T12:14:08Z</time>
      </trkpt>
      <trkpt lat="49.78686" lon="2.24548">
        <ele>124.1</ele>
        <time>2022-10-07T12:14:09Z</time>
      </trkpt>
      <trkpt lat="49.78684" lon="2.24547">
        <ele>124.1</ele>
        <time>2022-10-07T12:14:10Z</time>
      </trkpt>
      <trkpt lat="49.78683" lon="2.24547">
        <ele>124.1</ele>
        <time>2022-10-07T12:14:12Z</time>
      </trkpt>
      <trkpt lat="49.78682" lon="2.24547">
        <ele>124.1</ele>
        <time>2022-10-07T12:14:13Z</time>
      </trkpt>
      <trkpt lat="49.7868" lon="2.24546">
        <ele>124.1</ele>
        <time>2022-10-07T12:14:14Z</time>
      </trkpt>
      <trkpt lat="49.78679" lon="2.24546">
        <ele>124.1</ele>
        <time>2022-10-07T12:14:15Z</time>
      </trkpt>
      <trkpt lat="49.78679" lon="2.24545">
        <ele>124.1</ele>
        <time>2022-10-07T12:14:16Z</time>
      </trkpt>
      <trkpt lat="49.78677" lon="2.24545">
        <ele>124.1</ele>
        <time>2022-10-07T12:14:17Z</time>
      </trkpt>
      <trkpt lat="49.78677" lon="2.24545">
        <ele>124.1</ele>
        <time>2022-10-07T12:14:18Z</time>
      </trkpt>
      <trkpt lat="49.78675" lon="2.24544">
        <ele>124.1</ele>
        <time>2022-10-07T12:14:19Z</time>
      </trkpt>
      <trkpt lat="49.78674" lon="2.24544">
        <ele>124.1</ele>
        <time>2022-10-07T12:14:20Z</time>
      </trkpt>
      <trkpt lat="49.78673" lon="2.24544">
        <ele>124.1</ele>
        <time>2022-10-07T12:14:21Z</time>
      </trkpt>
      <trkpt lat="49.78672" lon="2.24543">
        <ele>124.1</ele>
        <time>2022-10-07T12:14:22Z</time>
      </trkpt>
      <trkpt lat="49.7867" lon="2.24543">
        <ele>124.1</ele>
        <time>2022-10-07T12:14:23Z</time>
      </trkpt>
      <trkpt lat="49.78669" lon="2.24543">
        <ele>124.1</ele>
        <time>2022-10-07T12:14:24Z</time>
      </trkpt>
      <trkpt lat="49.78667" lon="2.24543">
        <ele>124.1</ele>
        <time>2022-10-07T12:14:25Z</time>
      </trkpt>
      <trkpt lat="49.78666" lon="2.24542">
        <ele>124.1</ele>
        <time>2022-10-07T12:14:27Z</time>
      </trkpt>
      <trkpt lat="49.78665" lon="2.24542">
        <ele>124.1</ele>
        <time>2022-10-07T12:14:28Z</time>
      </trkpt>
      <trkpt lat="49.78663" lon="2.24542">
        <ele>124.1</ele>
        <time>2022-10-07T12:14:29Z</time>
      </trkpt>
      <trkpt lat="49.78662" lon="2.24542">
        <ele>124.1</ele>
        <time>2022-10-07T12:14:30Z</time>
      </trkpt>
      <trkpt lat="49.78662" lon="2.24542">
        <ele>124.1</ele>
        <time>2022-10-07T12:14:31Z</time>
      </trkpt>
      <trkpt lat="49.7866" lon="2.24542">
        <ele>124.1</ele>
        <time>2022-10-07T12:14:32Z</time>
      </trkpt>
      <trkpt lat="49.78659" lon="2.24541">
        <ele>124.1</ele>
        <time>2022-10-07T12:14:33Z</time>
      </trkpt>
      <trkpt lat="49.78656" lon="2.24541">
        <ele>124.1</ele>
        <time>2022-10-07T12:14:34Z</time>
      </trkpt>
      <trkpt lat="49.78656" lon="2.2454">
        <ele>124.1</ele>
        <time>2022-10-07T12:14:35Z</time>
      </trkpt>
      <trkpt lat="49.78655" lon="2.2454">
        <ele>124.1</ele>
        <time>2022-10-07T12:14:36Z</time>
      </trkpt>
      <trkpt lat="49.78654" lon="2.2454">
        <ele>124.1</ele>
        <time>2022-10-07T12:14:37Z</time>
      </trkpt>
      <trkpt lat="49.78652" lon="2.24539">
        <ele>124.2</ele>
        <time>2022-10-07T12:14:38Z</time>
      </trkpt>
      <trkpt lat="49.78651" lon="2.24539">
        <ele>124.2</ele>
        <time>2022-10-07T12:14:39Z</time>
      </trkpt>
      <trkpt lat="49.7865" lon="2.24538">
        <ele>124.2</ele>
        <time>2022-10-07T12:14:40Z</time>
      </trkpt>
      <trkpt lat="49.78649" lon="2.24537">
        <ele>124.2</ele>
        <time>2022-10-07T12:14:41Z</time>
      </trkpt>
      <trkpt lat="49.78648" lon="2.24536">
        <ele>124.2</ele>
        <time>2022-10-07T12:14:42Z</time>
      </trkpt>
      <trkpt lat="49.78647" lon="2.24534">
        <ele>124.2</ele>
        <time>2022-10-07T12:14:44Z</time>
      </trkpt>
      <trkpt lat="49.78646" lon="2.24534">
        <ele>124.2</ele>
        <time>2022-10-07T12:14:45Z</time>
      </trkpt>
      <trkpt lat="49.78645" lon="2.24533">
        <ele>124.2</ele>
        <time>2022-10-07T12:14:46Z</time>
      </trkpt>
      <trkpt lat="49.78643" lon="2.24532">
        <ele>124.2</ele>
        <time>2022-10-07T12:14:47Z</time>
      </trkpt>
      <trkpt lat="49.78642" lon="2.24532">
        <ele>124.2</ele>
        <time>2022-10-07T12:14:48Z</time>
      </trkpt>
      <trkpt lat="49.78641" lon="2.24531">
        <ele>124.2</ele>
        <time>2022-10-07T12:14:49Z</time>
      </trkpt>
      <trkpt lat="49.78639" lon="2.24531">
        <ele>124.3</ele>
        <time>2022-10-07T12:14:50Z</time>
      </trkpt>
      <trkpt lat="49.78638" lon="2.2453">
        <ele>124.3</ele>
        <time>2022-10-07T12:14:51Z</time>
      </trkpt>
      <trkpt lat="49.78636" lon="2.24529">
        <ele>124.3</ele>
        <time>2022-10-07T12:14:52Z</time>
      </trkpt>
      <trkpt lat="49.78634" lon="2.24529">
        <ele>124.3</ele>
        <time>2022-10-07T12:14:54Z</time>
      </trkpt>
      <trkpt lat="49.78633" lon="2.24529">
        <ele>124.3</ele>
        <time>2022-10-07T12:14:55Z</time>
      </trkpt>
      <trkpt lat="49.78632" lon="2.24528">
        <ele>124.3</ele>
        <time>2022-10-07T12:14:56Z</time>
      </trkpt>
      <trkpt lat="49.78631" lon="2.24528">
        <ele>124.3</ele>
        <time>2022-10-07T12:14:57Z</time>
      </trkpt>
      <trkpt lat="49.78629" lon="2.24527">
        <ele>124.4</ele>
        <time>2022-10-07T12:14:58Z</time>
      </trkpt>
      <trkpt lat="49.78629" lon="2.24527">
        <ele>124.4</ele>
        <time>2022-10-07T12:14:59Z</time>
      </trkpt>
      <trkpt lat="49.78628" lon="2.24527">
        <ele>124.4</ele>
        <time>2022-10-07T12:15:00Z</time>
      </trkpt>
      <trkpt lat="49.78626" lon="2.24526">
        <ele>124.4</ele>
        <time>2022-10-07T12:15:01Z</time>
      </trkpt>
      <trkpt lat="49.78625" lon="2.24525">
        <ele>124.4</ele>
        <time>2022-10-07T12:15:02Z</time>
      </trkpt>
      <trkpt lat="49.78624" lon="2.24525">
        <ele>124.4</ele>
        <time>2022-10-07T12:15:03Z</time>
      </trkpt>
      <trkpt lat="49.78624" lon="2.24525">
        <ele>124.4</ele>
        <time>2022-10-07T12:15:04Z</time>
      </trkpt>
      <trkpt lat="49.78623" lon="2.24524">
        <ele>124.4</ele>
        <time>2022-10-07T12:15:05Z</time>
      </trkpt>
      <trkpt lat="49.78621" lon="2.24524">
        <ele>124.4</ele>
        <time>2022-10-07T12:15:06Z</time>
      </trkpt>
      <trkpt lat="49.7862" lon="2.24523">
        <ele>124.5</ele>
        <time>2022-10-07T12:15:08Z</time>
      </trkpt>
      <trkpt lat="49.78619" lon="2.24522">
        <ele>124.5</ele>
        <time>2022-10-07T12:15:09Z</time>
      </trkpt>
      <trkpt lat="49.78618" lon="2.24521">
        <ele>124.5</ele>
        <time>2022-10-07T12:15:10Z</time>
      </trkpt>
      <trkpt lat="49.78617" lon="2.24521">
        <ele>124.5</ele>
        <time>2022-10-07T12:15:11Z</time>
      </trkpt>
      <trkpt lat="49.78616" lon="2.2452">
        <ele>124.5</ele>
        <time>2022-10-07T12:15:12Z</time>
      </trkpt>
      <trkpt lat="49.78615" lon="2.24519">
        <ele>124.5</ele>
        <time>2022-10-07T12:15:13Z</time>
      </trkpt>
      <trkpt lat="49.78613" lon="2.24518">
        <ele>124.6</ele>
        <time>2022-10-07T12:15:14Z</time>
      </trkpt>
      <trkpt lat="49.78612" lon="2.24518">
        <ele>124.6</ele>
        <time>2022-10-07T12:15:16Z</time>
      </trkpt>
      <trkpt lat="49.78611" lon="2.24518">
        <ele>124.6</ele>
        <time>2022-10-07T12:15:17Z</time>
      </trkpt>
      <trkpt lat="49.78609" lon="2.24517">
        <ele>124.6</ele>
        <time>2022-10-07T12:15:18Z</time>
      </trkpt>
      <trkpt lat="49.78608" lon="2.24517">
        <ele>124.7</ele>
        <time>2022-10-07T12:15:19Z</time>
      </trkpt>
      <trkpt lat="49.78607" lon="2.24517">
        <ele>124.7</ele>
        <time>2022-10-07T12:15:20Z</time>
      </trkpt>
      <trkpt lat="49.78606" lon="2.24517">
        <ele>124.7</ele>
        <time>2022-10-07T12:15:21Z</time>
      </trkpt>
      <trkpt lat="49.78605" lon="2.24517">
        <ele>124.7</ele>
        <time>2022-10-07T12:15:22Z</time>
      </trkpt>
      <trkpt lat="49.78603" lon="2.24516">
        <ele>124.7</ele>
        <time>2022-10-07T12:15:24Z</time>
      </trkpt>
      <trkpt lat="49.78602" lon="2.24516">
        <ele>124.7</ele>
        <time>2022-10-07T12:15:25Z</time>
      </trkpt>
      <trkpt lat="49.78601" lon="2.24515">
        <ele>124.8</ele>
        <time>2022-10-07T12:15:26Z</time>
      </trkpt>
      <trkpt lat="49.786" lon="2.24515">
        <ele>124.8</ele>
        <time>2022-10-07T12:15:27Z</time>
      </trkpt>
      <trkpt lat="49.78599" lon="2.24514">
        <ele>124.8</ele>
        <time>2022-10-07T12:15:28Z</time>
      </trkpt>
      <trkpt lat="49.78597" lon="2.24513">
        <ele>124.8</ele>
        <time>2022-10-07T12:15:29Z</time>
      </trkpt>
      <trkpt lat="49.78596" lon="2.24513">
        <ele>124.8</ele>
        <time>2022-10-07T12:15:30Z</time>
      </trkpt>
      <trkpt lat="49.78595" lon="2.24512">
        <ele>124.9</ele>
        <time>2022-10-07T12:15:31Z</time>
      </trkpt>
      <trkpt lat="49.78594" lon="2.24511">
        <ele>124.9</ele>
        <time>2022-10-07T12:15:33Z</time>
      </trkpt>
      <trkpt lat="49.78593" lon="2.24511">
        <ele>124.9</ele>
        <time>2022-10-07T12:15:34Z</time>
      </trkpt>
      <trkpt lat="49.78591" lon="2.2451">
        <ele>124.9</ele>
        <time>2022-10-07T12:15:35Z</time>
      </trkpt>
      <trkpt lat="49.7859" lon="2.2451">
        <ele>124.9</ele>
        <time>2022-10-07T12:15:36Z</time>
      </trkpt>
      <trkpt lat="49.78588" lon="2.24508">
        <ele>125</ele>
        <time>2022-10-07T12:15:38Z</time>
      </trkpt>
      <trkpt lat="49.78587" lon="2.24508">
        <ele>125</ele>
        <time>2022-10-07T12:15:39Z</time>
      </trkpt>
      <trkpt lat="49.78585" lon="2.24507">
        <ele>125</ele>
        <time>2022-10-07T12:15:40Z</time>
      </trkpt>
      <trkpt lat="49.78584" lon="2.24507">
        <ele>125</ele>
        <time>2022-10-07T12:15:41Z</time>
      </trkpt>
      <trkpt lat="49.78583" lon="2.24507">
        <ele>125</ele>
        <time>2022-10-07T12:15:42Z</time>
      </trkpt>
      <trkpt lat="49.78581" lon="2.24506">
        <ele>125</ele>
        <time>2022-10-07T12:15:43Z</time>
      </trkpt>
      <trkpt lat="49.7858" lon="2.24505">
        <ele>125</ele>
        <time>2022-10-07T12:15:44Z</time>
      </trkpt>
      <trkpt lat="49.78578" lon="2.24504">
        <ele>125.1</ele>
        <time>2022-10-07T12:15:46Z</time>
      </trkpt>
      <trkpt lat="49.78578" lon="2.24504">
        <ele>125.1</ele>
        <time>2022-10-07T12:15:47Z</time>
      </trkpt>
      <trkpt lat="49.78577" lon="2.24503">
        <ele>125.1</ele>
        <time>2022-10-07T12:15:48Z</time>
      </trkpt>
      <trkpt lat="49.78575" lon="2.24503">
        <ele>125.1</ele>
        <time>2022-10-07T12:15:49Z</time>
      </trkpt>
      <trkpt lat="49.78575" lon="2.24502">
        <ele>125.1</ele>
        <time>2022-10-07T12:15:50Z</time>
      </trkpt>
      <trkpt lat="49.78574" lon="2.24502">
        <ele>125.1</ele>
        <time>2022-10-07T12:15:51Z</time>
      </trkpt>
      <trkpt lat="49.78572" lon="2.24502">
        <ele>125.1</ele>
        <time>2022-10-07T12:15:52Z</time>
      </trkpt>
      <trkpt lat="49.78571" lon="2.24501">
        <ele>125.1</ele>
        <time>2022-10-07T12:15:53Z</time>
      </trkpt>
      <trkpt lat="49.7857" lon="2.24501">
        <ele>125.2</ele>
        <time>2022-10-07T12:15:54Z</time>
      </trkpt>
      <trkpt lat="49.78569" lon="2.245">
        <ele>125.2</ele>
        <time>2022-10-07T12:15:55Z</time>
      </trkpt>
      <trkpt lat="49.78567" lon="2.24499">
        <ele>125.2</ele>
        <time>2022-10-07T12:15:57Z</time>
      </trkpt>
      <trkpt lat="49.78566" lon="2.24499">
        <ele>125.2</ele>
        <time>2022-10-07T12:15:58Z</time>
      </trkpt>
      <trkpt lat="49.78564" lon="2.24498">
        <ele>125.2</ele>
        <time>2022-10-07T12:15:59Z</time>
      </trkpt>
      <trkpt lat="49.78563" lon="2.24497">
        <ele>125.2</ele>
        <time>2022-10-07T12:16:00Z</time>
      </trkpt>
      <trkpt lat="49.78562" lon="2.24497">
        <ele>125.3</ele>
        <time>2022-10-07T12:16:01Z</time>
      </trkpt>
      <trkpt lat="49.78561" lon="2.24496">
        <ele>125.3</ele>
        <time>2022-10-07T12:16:02Z</time>
      </trkpt>
      <trkpt lat="49.78559" lon="2.24495">
        <ele>125.3</ele>
        <time>2022-10-07T12:16:04Z</time>
      </trkpt>
      <trkpt lat="49.78558" lon="2.24495">
        <ele>125.3</ele>
        <time>2022-10-07T12:16:05Z</time>
      </trkpt>
      <trkpt lat="49.78557" lon="2.24494">
        <ele>125.3</ele>
        <time>2022-10-07T12:16:06Z</time>
      </trkpt>
      <trkpt lat="49.78556" lon="2.24494">
        <ele>125.3</ele>
        <time>2022-10-07T12:16:07Z</time>
      </trkpt>
      <trkpt lat="49.78555" lon="2.24493">
        <ele>125.3</ele>
        <time>2022-10-07T12:16:08Z</time>
      </trkpt>
      <trkpt lat="49.78553" lon="2.24493">
        <ele>125.4</ele>
        <time>2022-10-07T12:16:10Z</time>
      </trkpt>
      <trkpt lat="49.78553" lon="2.24494">
        <ele>125.4</ele>
        <time>2022-10-07T12:16:11Z</time>
      </trkpt>
      <trkpt lat="49.78552" lon="2.24494">
        <ele>125.4</ele>
        <time>2022-10-07T12:16:12Z</time>
      </trkpt>
      <trkpt lat="49.78552" lon="2.24494">
        <ele>125.4</ele>
        <time>2022-10-07T12:16:13Z</time>
      </trkpt>
      <trkpt lat="49.78551" lon="2.24494">
        <ele>125.4</ele>
        <time>2022-10-07T12:16:14Z</time>
      </trkpt>
      <trkpt lat="49.7855" lon="2.24493">
        <ele>125.4</ele>
        <time>2022-10-07T12:16:15Z</time>
      </trkpt>
      <trkpt lat="49.78549" lon="2.24493">
        <ele>125.4</ele>
        <time>2022-10-07T12:16:17Z</time>
      </trkpt>
      <trkpt lat="49.78548" lon="2.24492">
        <ele>125.4</ele>
        <time>2022-10-07T12:16:18Z</time>
      </trkpt>
      <trkpt lat="49.78547" lon="2.24492">
        <ele>125.4</ele>
        <time>2022-10-07T12:16:19Z</time>
      </trkpt>
      <trkpt lat="49.78547" lon="2.24491">
        <ele>125.4</ele>
        <time>2022-10-07T12:16:20Z</time>
      </trkpt>
      <trkpt lat="49.78546" lon="2.24491">
        <ele>125.5</ele>
        <time>2022-10-07T12:16:21Z</time>
      </trkpt>
      <trkpt lat="49.78545" lon="2.2449">
        <ele>125.5</ele>
        <time>2022-10-07T12:16:23Z</time>
      </trkpt>
      <trkpt lat="49.78544" lon="2.24489">
        <ele>125.5</ele>
        <time>2022-10-07T12:16:24Z</time>
      </trkpt>
      <trkpt lat="49.78544" lon="2.24488">
        <ele>125.5</ele>
        <time>2022-10-07T12:16:25Z</time>
      </trkpt>
      <trkpt lat="49.78543" lon="2.24488">
        <ele>125.5</ele>
        <time>2022-10-07T12:16:26Z</time>
      </trkpt>
      <trkpt lat="49.78542" lon="2.24487">
        <ele>125.5</ele>
        <time>2022-10-07T12:16:28Z</time>
      </trkpt>
      <trkpt lat="49.78541" lon="2.24485">
        <ele>125.5</ele>
        <time>2022-10-07T12:16:29Z</time>
      </trkpt>
      <trkpt lat="49.7854" lon="2.24484">
        <ele>125.5</ele>
        <time>2022-10-07T12:16:30Z</time>
      </trkpt>
      <trkpt lat="49.78539" lon="2.24484">
        <ele>125.5</ele>
        <time>2022-10-07T12:16:31Z</time>
      </trkpt>
      <trkpt lat="49.78538" lon="2.24483">
        <ele>125.5</ele>
        <time>2022-10-07T12:16:32Z</time>
      </trkpt>
      <trkpt lat="49.78538" lon="2.24483">
        <ele>125.5</ele>
        <time>2022-10-07T12:16:33Z</time>
      </trkpt>
      <trkpt lat="49.78536" lon="2.24482">
        <ele>125.5</ele>
        <time>2022-10-07T12:16:34Z</time>
      </trkpt>
      <trkpt lat="49.78535" lon="2.24482">
        <ele>125.5</ele>
        <time>2022-10-07T12:16:35Z</time>
      </trkpt>
      <trkpt lat="49.78534" lon="2.24481">
        <ele>125.6</ele>
        <time>2022-10-07T12:16:37Z</time>
      </trkpt>
      <trkpt lat="49.78533" lon="2.24481">
        <ele>125.6</ele>
        <time>2022-10-07T12:16:38Z</time>
      </trkpt>
      <trkpt lat="49.78532" lon="2.2448">
        <ele>125.6</ele>
        <time>2022-10-07T12:16:39Z</time>
      </trkpt>
      <trkpt lat="49.78531" lon="2.2448">
        <ele>125.6</ele>
        <time>2022-10-07T12:16:40Z</time>
      </trkpt>
      <trkpt lat="49.7853" lon="2.2448">
        <ele>125.6</ele>
        <time>2022-10-07T12:16:41Z</time>
      </trkpt>
      <trkpt lat="49.78529" lon="2.2448">
        <ele>125.6</ele>
        <time>2022-10-07T12:16:42Z</time>
      </trkpt>
      <trkpt lat="49.78528" lon="2.2448">
        <ele>125.6</ele>
        <time>2022-10-07T12:16:43Z</time>
      </trkpt>
      <trkpt lat="49.78526" lon="2.24479">
        <ele>125.6</ele>
        <time>2022-10-07T12:16:44Z</time>
      </trkpt>
      <trkpt lat="49.78525" lon="2.24479">
        <ele>125.6</ele>
        <time>2022-10-07T12:16:45Z</time>
      </trkpt>
      <trkpt lat="49.78523" lon="2.24478">
        <ele>125.6</ele>
        <time>2022-10-07T12:16:47Z</time>
      </trkpt>
      <trkpt lat="49.78522" lon="2.24478">
        <ele>125.7</ele>
        <time>2022-10-07T12:16:48Z</time>
      </trkpt>
      <trkpt lat="49.78521" lon="2.24477">
        <ele>125.7</ele>
        <time>2022-10-07T12:16:49Z</time>
      </trkpt>
      <trkpt lat="49.7852" lon="2.24477">
        <ele>125.7</ele>
        <time>2022-10-07T12:16:50Z</time>
      </trkpt>
      <trkpt lat="49.78519" lon="2.24477">
        <ele>125.7</ele>
        <time>2022-10-07T12:16:51Z</time>
      </trkpt>
      <trkpt lat="49.78518" lon="2.24477">
        <ele>125.7</ele>
        <time>2022-10-07T12:16:52Z</time>
      </trkpt>
      <trkpt lat="49.78517" lon="2.24477">
        <ele>125.7</ele>
        <time>2022-10-07T12:16:54Z</time>
      </trkpt>
      <trkpt lat="49.78515" lon="2.24476">
        <ele>125.7</ele>
        <time>2022-10-07T12:16:55Z</time>
      </trkpt>
      <trkpt lat="49.78514" lon="2.24476">
        <ele>125.7</ele>
        <time>2022-10-07T12:16:56Z</time>
      </trkpt>
      <trkpt lat="49.78513" lon="2.24475">
        <ele>125.7</ele>
        <time>2022-10-07T12:16:57Z</time>
      </trkpt>
      <trkpt lat="49.78512" lon="2.24475">
        <ele>125.8</ele>
        <time>2022-10-07T12:16:59Z</time>
      </trkpt>
      <trkpt lat="49.78511" lon="2.24474">
        <ele>125.8</ele>
        <time>2022-10-07T12:17:00Z</time>
      </trkpt>
      <trkpt lat="49.7851" lon="2.24474">
        <ele>125.8</ele>
        <time>2022-10-07T12:17:01Z</time>
      </trkpt>
      <trkpt lat="49.78509" lon="2.24474">
        <ele>125.8</ele>
        <time>2022-10-07T12:17:02Z</time>
      </trkpt>
      <trkpt lat="49.78508" lon="2.24474">
        <ele>125.8</ele>
        <time>2022-10-07T12:17:03Z</time>
      </trkpt>
      <trkpt lat="49.78506" lon="2.24474">
        <ele>125.8</ele>
        <time>2022-10-07T12:17:05Z</time>
      </trkpt>
      <trkpt lat="49.78505" lon="2.24473">
        <ele>125.8</ele>
        <time>2022-10-07T12:17:06Z</time>
      </trkpt>
      <trkpt lat="49.78503" lon="2.24472">
        <ele>125.8</ele>
        <time>2022-10-07T12:17:07Z</time>
      </trkpt>
      <trkpt lat="49.78502" lon="2.24472">
        <ele>125.8</ele>
        <time>2022-10-07T12:17:08Z</time>
      </trkpt>
      <trkpt lat="49.78501" lon="2.24472">
        <ele>125.8</ele>
        <time>2022-10-07T12:17:09Z</time>
      </trkpt>
      <trkpt lat="49.785" lon="2.24471">
        <ele>125.8</ele>
        <time>2022-10-07T12:17:10Z</time>
      </trkpt>
      <trkpt lat="49.78499" lon="2.24471">
        <ele>125.8</ele>
        <time>2022-10-07T12:17:11Z</time>
      </trkpt>
      <trkpt lat="49.78497" lon="2.2447">
        <ele>125.8</ele>
        <time>2022-10-07T12:17:12Z</time>
      </trkpt>
      <trkpt lat="49.78496" lon="2.2447">
        <ele>125.9</ele>
        <time>2022-10-07T12:17:13Z</time>
      </trkpt>
      <trkpt lat="49.78495" lon="2.24469">
        <ele>125.9</ele>
        <time>2022-10-07T12:17:14Z</time>
      </trkpt>
      <trkpt lat="49.78494" lon="2.24468">
        <ele>125.9</ele>
        <time>2022-10-07T12:17:15Z</time>
      </trkpt>
      <trkpt lat="49.78493" lon="2.24468">
        <ele>125.9</ele>
        <time>2022-10-07T12:17:16Z</time>
      </trkpt>
      <trkpt lat="49.78492" lon="2.24467">
        <ele>125.9</ele>
        <time>2022-10-07T12:17:18Z</time>
      </trkpt>
      <trkpt lat="49.7849" lon="2.24466">
        <ele>125.9</ele>
        <time>2022-10-07T12:17:19Z</time>
      </trkpt>
      <trkpt lat="49.78488" lon="2.24466">
        <ele>126</ele>
        <time>2022-10-07T12:17:20Z</time>
      </trkpt>
      <trkpt lat="49.78487" lon="2.24465">
        <ele>126</ele>
        <time>2022-10-07T12:17:21Z</time>
      </trkpt>
      <trkpt lat="49.78486" lon="2.24465">
        <ele>126</ele>
        <time>2022-10-07T12:17:22Z</time>
      </trkpt>
      <trkpt lat="49.78484" lon="2.24464">
        <ele>126</ele>
        <time>2022-10-07T12:17:24Z</time>
      </trkpt>
      <trkpt lat="49.78483" lon="2.24464">
        <ele>126</ele>
        <time>2022-10-07T12:17:25Z</time>
      </trkpt>
      <trkpt lat="49.78482" lon="2.24464">
        <ele>126</ele>
        <time>2022-10-07T12:17:26Z</time>
      </trkpt>
      <trkpt lat="49.78481" lon="2.24463">
        <ele>126.1</ele>
        <time>2022-10-07T12:17:27Z</time>
      </trkpt>
      <trkpt lat="49.7848" lon="2.24463">
        <ele>126.1</ele>
        <time>2022-10-07T12:17:28Z</time>
      </trkpt>
      <trkpt lat="49.78478" lon="2.24462">
        <ele>126.1</ele>
        <time>2022-10-07T12:17:29Z</time>
      </trkpt>
      <trkpt lat="49.78477" lon="2.24462">
        <ele>126.1</ele>
        <time>2022-10-07T12:17:30Z</time>
      </trkpt>
      <trkpt lat="49.78476" lon="2.24462">
        <ele>126.1</ele>
        <time>2022-10-07T12:17:31Z</time>
      </trkpt>
      <trkpt lat="49.78475" lon="2.24461">
        <ele>126.2</ele>
        <time>2022-10-07T12:17:33Z</time>
      </trkpt>
      <trkpt lat="49.78473" lon="2.24461">
        <ele>126.2</ele>
        <time>2022-10-07T12:17:34Z</time>
      </trkpt>
      <trkpt lat="49.78471" lon="2.24461">
        <ele>126.2</ele>
        <time>2022-10-07T12:17:35Z</time>
      </trkpt>
      <trkpt lat="49.7847" lon="2.2446">
        <ele>126.2</ele>
        <time>2022-10-07T12:17:36Z</time>
      </trkpt>
      <trkpt lat="49.78469" lon="2.24459">
        <ele>126.2</ele>
        <time>2022-10-07T12:17:37Z</time>
      </trkpt>
      <trkpt lat="49.78468" lon="2.24459">
        <ele>126.2</ele>
        <time>2022-10-07T12:17:38Z</time>
      </trkpt>
      <trkpt lat="49.78466" lon="2.24458">
        <ele>126.2</ele>
        <time>2022-10-07T12:17:39Z</time>
      </trkpt>
      <trkpt lat="49.78465" lon="2.24458">
        <ele>126.2</ele>
        <time>2022-10-07T12:17:40Z</time>
      </trkpt>
      <trkpt lat="49.78464" lon="2.24458">
        <ele>126.3</ele>
        <time>2022-10-07T12:17:41Z</time>
      </trkpt>
      <trkpt lat="49.78463" lon="2.24456">
        <ele>126.3</ele>
        <time>2022-10-07T12:17:43Z</time>
      </trkpt>
      <trkpt lat="49.78462" lon="2.24456">
        <ele>126.3</ele>
        <time>2022-10-07T12:17:44Z</time>
      </trkpt>
      <trkpt lat="49.78461" lon="2.24456">
        <ele>126.3</ele>
        <time>2022-10-07T12:17:45Z</time>
      </trkpt>
      <trkpt lat="49.7846" lon="2.24455">
        <ele>126.3</ele>
        <time>2022-10-07T12:17:46Z</time>
      </trkpt>
      <trkpt lat="49.78458" lon="2.24455">
        <ele>126.3</ele>
        <time>2022-10-07T12:17:47Z</time>
      </trkpt>
      <trkpt lat="49.78456" lon="2.24454">
        <ele>126.3</ele>
        <time>2022-10-07T12:17:48Z</time>
      </trkpt>
      <trkpt lat="49.78455" lon="2.24453">
        <ele>126.4</ele>
        <time>2022-10-07T12:17:49Z</time>
      </trkpt>
      <trkpt lat="49.78454" lon="2.24453">
        <ele>126.4</ele>
        <time>2022-10-07T12:17:51Z</time>
      </trkpt>
      <trkpt lat="49.78453" lon="2.24452">
        <ele>126.4</ele>
        <time>2022-10-07T12:17:52Z</time>
      </trkpt>
      <trkpt lat="49.78452" lon="2.24452">
        <ele>126.4</ele>
        <time>2022-10-07T12:17:53Z</time>
      </trkpt>
      <trkpt lat="49.78451" lon="2.24451">
        <ele>126.4</ele>
        <time>2022-10-07T12:17:54Z</time>
      </trkpt>
      <trkpt lat="49.78449" lon="2.2445">
        <ele>126.4</ele>
        <time>2022-10-07T12:17:55Z</time>
      </trkpt>
      <trkpt lat="49.78448" lon="2.2445">
        <ele>126.4</ele>
        <time>2022-10-07T12:17:56Z</time>
      </trkpt>
      <trkpt lat="49.78447" lon="2.24449">
        <ele>126.4</ele>
        <time>2022-10-07T12:17:57Z</time>
      </trkpt>
      <trkpt lat="49.78446" lon="2.24449">
        <ele>126.5</ele>
        <time>2022-10-07T12:17:58Z</time>
      </trkpt>
      <trkpt lat="49.78444" lon="2.24448">
        <ele>126.5</ele>
        <time>2022-10-07T12:18:00Z</time>
      </trkpt>
      <trkpt lat="49.78443" lon="2.24448">
        <ele>126.5</ele>
        <time>2022-10-07T12:18:01Z</time>
      </trkpt>
      <trkpt lat="49.78442" lon="2.24447">
        <ele>126.5</ele>
        <time>2022-10-07T12:18:02Z</time>
      </trkpt>
      <trkpt lat="49.78441" lon="2.24447">
        <ele>126.5</ele>
        <time>2022-10-07T12:18:03Z</time>
      </trkpt>
      <trkpt lat="49.7844" lon="2.24447">
        <ele>126.5</ele>
        <time>2022-10-07T12:18:04Z</time>
      </trkpt>
      <trkpt lat="49.7844" lon="2.24446">
        <ele>126.5</ele>
        <time>2022-10-07T12:18:05Z</time>
      </trkpt>
      <trkpt lat="49.78438" lon="2.24446">
        <ele>126.6</ele>
        <time>2022-10-07T12:18:07Z</time>
      </trkpt>
      <trkpt lat="49.78437" lon="2.24445">
        <ele>126.6</ele>
        <time>2022-10-07T12:18:08Z</time>
      </trkpt>
      <trkpt lat="49.78436" lon="2.24445">
        <ele>126.6</ele>
        <time>2022-10-07T12:18:09Z</time>
      </trkpt>
      <trkpt lat="49.78435" lon="2.24444">
        <ele>126.6</ele>
        <time>2022-10-07T12:18:10Z</time>
      </trkpt>
      <trkpt lat="49.78434" lon="2.24444">
        <ele>126.6</ele>
        <time>2022-10-07T12:18:11Z</time>
      </trkpt>
      <trkpt lat="49.78433" lon="2.24444">
        <ele>126.6</ele>
        <time>2022-10-07T12:18:12Z</time>
      </trkpt>
      <trkpt lat="49.78432" lon="2.24443">
        <ele>126.6</ele>
        <time>2022-10-07T12:18:13Z</time>
      </trkpt>
      <trkpt lat="49.7843" lon="2.24443">
        <ele>126.7</ele>
        <time>2022-10-07T12:18:15Z</time>
      </trkpt>
      <trkpt lat="49.78429" lon="2.24443">
        <ele>126.7</ele>
        <time>2022-10-07T12:18:16Z</time>
      </trkpt>
      <trkpt lat="49.78428" lon="2.24443">
        <ele>126.7</ele>
        <time>2022-10-07T12:18:17Z</time>
      </trkpt>
      <trkpt lat="49.78427" lon="2.24442">
        <ele>126.7</ele>
        <time>2022-10-07T12:18:18Z</time>
      </trkpt>
      <trkpt lat="49.78426" lon="2.24442">
        <ele>126.7</ele>
        <time>2022-10-07T12:18:19Z</time>
      </trkpt>
      <trkpt lat="49.78425" lon="2.24442">
        <ele>126.7</ele>
        <time>2022-10-07T12:18:20Z</time>
      </trkpt>
      <trkpt lat="49.78424" lon="2.24442">
        <ele>126.7</ele>
        <time>2022-10-07T12:18:21Z</time>
      </trkpt>
      <trkpt lat="49.78423" lon="2.24442">
        <ele>126.7</ele>
        <time>2022-10-07T12:18:23Z</time>
      </trkpt>
      <trkpt lat="49.78422" lon="2.24442">
        <ele>126.8</ele>
        <time>2022-10-07T12:18:24Z</time>
      </trkpt>
      <trkpt lat="49.78421" lon="2.24441">
        <ele>126.8</ele>
        <time>2022-10-07T12:18:25Z</time>
      </trkpt>
      <trkpt lat="49.7842" lon="2.24441">
        <ele>126.8</ele>
        <time>2022-10-07T12:18:26Z</time>
      </trkpt>
      <trkpt lat="49.78419" lon="2.24441">
        <ele>126.8</ele>
        <time>2022-10-07T12:18:27Z</time>
      </trkpt>
      <trkpt lat="49.78418" lon="2.2444">
        <ele>126.8</ele>
        <time>2022-10-07T12:18:28Z</time>
      </trkpt>
      <trkpt lat="49.78416" lon="2.24439">
        <ele>126.9</ele>
        <time>2022-10-07T12:18:29Z</time>
      </trkpt>
      <trkpt lat="49.78415" lon="2.24439">
        <ele>126.9</ele>
        <time>2022-10-07T12:18:31Z</time>
      </trkpt>
      <trkpt lat="49.78415" lon="2.24438">
        <ele>126.9</ele>
        <time>2022-10-07T12:18:32Z</time>
      </trkpt>
      <trkpt lat="49.78413" lon="2.24437">
        <ele>126.9</ele>
        <time>2022-10-07T12:18:33Z</time>
      </trkpt>
      <trkpt lat="49.78412" lon="2.24437">
        <ele>126.9</ele>
        <time>2022-10-07T12:18:34Z</time>
      </trkpt>
      <trkpt lat="49.78411" lon="2.24437">
        <ele>126.9</ele>
        <time>2022-10-07T12:18:35Z</time>
      </trkpt>
      <trkpt lat="49.7841" lon="2.24436">
        <ele>126.9</ele>
        <time>2022-10-07T12:18:36Z</time>
      </trkpt>
      <trkpt lat="49.78409" lon="2.24436">
        <ele>127</ele>
        <time>2022-10-07T12:18:37Z</time>
      </trkpt>
      <trkpt lat="49.78408" lon="2.24435">
        <ele>127</ele>
        <time>2022-10-07T12:18:38Z</time>
      </trkpt>
      <trkpt lat="49.78406" lon="2.24435">
        <ele>127</ele>
        <time>2022-10-07T12:18:40Z</time>
      </trkpt>
      <trkpt lat="49.78405" lon="2.24434">
        <ele>127</ele>
        <time>2022-10-07T12:18:41Z</time>
      </trkpt>
      <trkpt lat="49.78404" lon="2.24434">
        <ele>127</ele>
        <time>2022-10-07T12:18:42Z</time>
      </trkpt>
      <trkpt lat="49.78403" lon="2.24434">
        <ele>127</ele>
        <time>2022-10-07T12:18:43Z</time>
      </trkpt>
      <trkpt lat="49.78402" lon="2.24434">
        <ele>127</ele>
        <time>2022-10-07T12:18:44Z</time>
      </trkpt>
      <trkpt lat="49.784" lon="2.24434">
        <ele>127.1</ele>
        <time>2022-10-07T12:18:45Z</time>
      </trkpt>
      <trkpt lat="49.78399" lon="2.24433">
        <ele>127.1</ele>
        <time>2022-10-07T12:18:46Z</time>
      </trkpt>
      <trkpt lat="49.78398" lon="2.24433">
        <ele>127.1</ele>
        <time>2022-10-07T12:18:47Z</time>
      </trkpt>
      <trkpt lat="49.78397" lon="2.24433">
        <ele>127.1</ele>
        <time>2022-10-07T12:18:48Z</time>
      </trkpt>
      <trkpt lat="49.78395" lon="2.24432">
        <ele>127.1</ele>
        <time>2022-10-07T12:18:49Z</time>
      </trkpt>
      <trkpt lat="49.78394" lon="2.24432">
        <ele>127.1</ele>
        <time>2022-10-07T12:18:51Z</time>
      </trkpt>
      <trkpt lat="49.78393" lon="2.24431">
        <ele>127.1</ele>
        <time>2022-10-07T12:18:52Z</time>
      </trkpt>
      <trkpt lat="49.78392" lon="2.24431">
        <ele>127.1</ele>
        <time>2022-10-07T12:18:53Z</time>
      </trkpt>
      <trkpt lat="49.78391" lon="2.2443">
        <ele>127.1</ele>
        <time>2022-10-07T12:18:54Z</time>
      </trkpt>
      <trkpt lat="49.7839" lon="2.2443">
        <ele>127.1</ele>
        <time>2022-10-07T12:18:55Z</time>
      </trkpt>
      <trkpt lat="49.78389" lon="2.24429">
        <ele>127.1</ele>
        <time>2022-10-07T12:18:56Z</time>
      </trkpt>
      <trkpt lat="49.78388" lon="2.24429">
        <ele>127.1</ele>
        <time>2022-10-07T12:18:57Z</time>
      </trkpt>
      <trkpt lat="49.78387" lon="2.24429">
        <ele>127.2</ele>
        <time>2022-10-07T12:18:58Z</time>
      </trkpt>
      <trkpt lat="49.78386" lon="2.24428">
        <ele>127.2</ele>
        <time>2022-10-07T12:18:59Z</time>
      </trkpt>
      <trkpt lat="49.78384" lon="2.24427">
        <ele>127.2</ele>
        <time>2022-10-07T12:19:00Z</time>
      </trkpt>
      <trkpt lat="49.78383" lon="2.24427">
        <ele>127.2</ele>
        <time>2022-10-07T12:19:01Z</time>
      </trkpt>
      <trkpt lat="49.78382" lon="2.24427">
        <ele>127.2</ele>
        <time>2022-10-07T12:19:03Z</time>
      </trkpt>
      <trkpt lat="49.78381" lon="2.24426">
        <ele>127.2</ele>
        <time>2022-10-07T12:19:04Z</time>
      </trkpt>
      <trkpt lat="49.7838" lon="2.24426">
        <ele>127.2</ele>
        <time>2022-10-07T12:19:05Z</time>
      </trkpt>
      <trkpt lat="49.7838" lon="2.24425">
        <ele>127.2</ele>
        <time>2022-10-07T12:19:06Z</time>
      </trkpt>
      <trkpt lat="49.78379" lon="2.24425">
        <ele>127.2</ele>
        <time>2022-10-07T12:19:07Z</time>
      </trkpt>
      <trkpt lat="49.78378" lon="2.24425">
        <ele>127.2</ele>
        <time>2022-10-07T12:19:08Z</time>
      </trkpt>
      <trkpt lat="49.78377" lon="2.24424">
        <ele>127.2</ele>
        <time>2022-10-07T12:19:09Z</time>
      </trkpt>
      <trkpt lat="49.78375" lon="2.24423">
        <ele>127.2</ele>
        <time>2022-10-07T12:19:10Z</time>
      </trkpt>
      <trkpt lat="49.78374" lon="2.24423">
        <ele>127.3</ele>
        <time>2022-10-07T12:19:11Z</time>
      </trkpt>
      <trkpt lat="49.78373" lon="2.24423">
        <ele>127.3</ele>
        <time>2022-10-07T12:19:13Z</time>
      </trkpt>
      <trkpt lat="49.78372" lon="2.24422">
        <ele>127.3</ele>
        <time>2022-10-07T12:19:14Z</time>
      </trkpt>
      <trkpt lat="49.7837" lon="2.24421">
        <ele>127.3</ele>
        <time>2022-10-07T12:19:15Z</time>
      </trkpt>
      <trkpt lat="49.78369" lon="2.24421">
        <ele>127.3</ele>
        <time>2022-10-07T12:19:16Z</time>
      </trkpt>
      <trkpt lat="49.78368" lon="2.2442">
        <ele>127.3</ele>
        <time>2022-10-07T12:19:17Z</time>
      </trkpt>
      <trkpt lat="49.78367" lon="2.2442">
        <ele>127.3</ele>
        <time>2022-10-07T12:19:18Z</time>
      </trkpt>
      <trkpt lat="49.78366" lon="2.24419">
        <ele>127.3</ele>
        <time>2022-10-07T12:19:19Z</time>
      </trkpt>
      <trkpt lat="49.78365" lon="2.24419">
        <ele>127.4</ele>
        <time>2022-10-07T12:19:20Z</time>
      </trkpt>
      <trkpt lat="49.78364" lon="2.24418">
        <ele>127.4</ele>
        <time>2022-10-07T12:19:21Z</time>
      </trkpt>
      <trkpt lat="49.78361" lon="2.24417">
        <ele>127.4</ele>
        <time>2022-10-07T12:19:22Z</time>
      </trkpt>
      <trkpt lat="49.7836" lon="2.24417">
        <ele>127.4</ele>
        <time>2022-10-07T12:19:24Z</time>
      </trkpt>
      <trkpt lat="49.78359" lon="2.24416">
        <ele>127.4</ele>
        <time>2022-10-07T12:19:25Z</time>
      </trkpt>
      <trkpt lat="49.78358" lon="2.24416">
        <ele>127.4</ele>
        <time>2022-10-07T12:19:26Z</time>
      </trkpt>
      <trkpt lat="49.78358" lon="2.24415">
        <ele>127.5</ele>
        <time>2022-10-07T12:19:27Z</time>
      </trkpt>
      <trkpt lat="49.78357" lon="2.24415">
        <ele>127.5</ele>
        <time>2022-10-07T12:19:28Z</time>
      </trkpt>
      <trkpt lat="49.78355" lon="2.24414">
        <ele>127.5</ele>
        <time>2022-10-07T12:19:29Z</time>
      </trkpt>
      <trkpt lat="49.78354" lon="2.24413">
        <ele>127.5</ele>
        <time>2022-10-07T12:19:30Z</time>
      </trkpt>
      <trkpt lat="49.78353" lon="2.24413">
        <ele>127.5</ele>
        <time>2022-10-07T12:19:31Z</time>
      </trkpt>
      <trkpt lat="49.78351" lon="2.24412">
        <ele>127.6</ele>
        <time>2022-10-07T12:19:32Z</time>
      </trkpt>
      <trkpt lat="49.7835" lon="2.24411">
        <ele>127.6</ele>
        <time>2022-10-07T12:19:34Z</time>
      </trkpt>
      <trkpt lat="49.78349" lon="2.24411">
        <ele>127.6</ele>
        <time>2022-10-07T12:19:35Z</time>
      </trkpt>
      <trkpt lat="49.78349" lon="2.24411">
        <ele>127.6</ele>
        <time>2022-10-07T12:19:36Z</time>
      </trkpt>
      <trkpt lat="49.78348" lon="2.2441">
        <ele>127.6</ele>
        <time>2022-10-07T12:19:37Z</time>
      </trkpt>
      <trkpt lat="49.78347" lon="2.2441">
        <ele>127.6</ele>
        <time>2022-10-07T12:19:38Z</time>
      </trkpt>
      <trkpt lat="49.78346" lon="2.2441">
        <ele>127.6</ele>
        <time>2022-10-07T12:19:39Z</time>
      </trkpt>
      <trkpt lat="49.78345" lon="2.24409">
        <ele>127.6</ele>
        <time>2022-10-07T12:19:40Z</time>
      </trkpt>
      <trkpt lat="49.78344" lon="2.24409">
        <ele>127.7</ele>
        <time>2022-10-07T12:19:41Z</time>
      </trkpt>
      <trkpt lat="49.78343" lon="2.24409">
        <ele>127.7</ele>
        <time>2022-10-07T12:19:43Z</time>
      </trkpt>
      <trkpt lat="49.78342" lon="2.24408">
        <ele>127.7</ele>
        <time>2022-10-07T12:19:44Z</time>
      </trkpt>
      <trkpt lat="49.78341" lon="2.24408">
        <ele>127.7</ele>
        <time>2022-10-07T12:19:45Z</time>
      </trkpt>
      <trkpt lat="49.7834" lon="2.24407">
        <ele>127.7</ele>
        <time>2022-10-07T12:19:46Z</time>
      </trkpt>
      <trkpt lat="49.78339" lon="2.24407">
        <ele>127.7</ele>
        <time>2022-10-07T12:19:47Z</time>
      </trkpt>
      <trkpt lat="49.78338" lon="2.24407">
        <ele>127.7</ele>
        <time>2022-10-07T12:19:48Z</time>
      </trkpt>
      <trkpt lat="49.78336" lon="2.24406">
        <ele>127.8</ele>
        <time>2022-10-07T12:19:49Z</time>
      </trkpt>
      <trkpt lat="49.78335" lon="2.24406">
        <ele>127.8</ele>
        <time>2022-10-07T12:19:50Z</time>
      </trkpt>
      <trkpt lat="49.78334" lon="2.24406">
        <ele>127.8</ele>
        <time>2022-10-07T12:19:51Z</time>
      </trkpt>
      <trkpt lat="49.78333" lon="2.24406">
        <ele>127.8</ele>
        <time>2022-10-07T12:19:53Z</time>
      </trkpt>
      <trkpt lat="49.78331" lon="2.24405">
        <ele>127.8</ele>
        <time>2022-10-07T12:19:54Z</time>
      </trkpt>
      <trkpt lat="49.7833" lon="2.24405">
        <ele>127.8</ele>
        <time>2022-10-07T12:19:55Z</time>
      </trkpt>
      <trkpt lat="49.7833" lon="2.24405">
        <ele>127.8</ele>
        <time>2022-10-07T12:19:56Z</time>
      </trkpt>
      <trkpt lat="49.78329" lon="2.24405">
        <ele>127.8</ele>
        <time>2022-10-07T12:19:57Z</time>
      </trkpt>
      <trkpt lat="49.78327" lon="2.24405">
        <ele>127.9</ele>
        <time>2022-10-07T12:19:58Z</time>
      </trkpt>
      <trkpt lat="49.78326" lon="2.24404">
        <ele>127.9</ele>
        <time>2022-10-07T12:19:59Z</time>
      </trkpt>
      <trkpt lat="49.78325" lon="2.24404">
        <ele>127.9</ele>
        <time>2022-10-07T12:20:00Z</time>
      </trkpt>
      <trkpt lat="49.78324" lon="2.24403">
        <ele>127.9</ele>
        <time>2022-10-07T12:20:01Z</time>
      </trkpt>
      <trkpt lat="49.78323" lon="2.24403">
        <ele>127.9</ele>
        <time>2022-10-07T12:20:03Z</time>
      </trkpt>
      <trkpt lat="49.78321" lon="2.24403">
        <ele>127.9</ele>
        <time>2022-10-07T12:20:04Z</time>
      </trkpt>
      <trkpt lat="49.7832" lon="2.24402">
        <ele>127.9</ele>
        <time>2022-10-07T12:20:05Z</time>
      </trkpt>
      <trkpt lat="49.78319" lon="2.24402">
        <ele>127.9</ele>
        <time>2022-10-07T12:20:06Z</time>
      </trkpt>
      <trkpt lat="49.78318" lon="2.24401">
        <ele>127.9</ele>
        <time>2022-10-07T12:20:07Z</time>
      </trkpt>
      <trkpt lat="49.78317" lon="2.24401">
        <ele>128</ele>
        <time>2022-10-07T12:20:08Z</time>
      </trkpt>
      <trkpt lat="49.78316" lon="2.244">
        <ele>128</ele>
        <time>2022-10-07T12:20:09Z</time>
      </trkpt>
      <trkpt lat="49.78314" lon="2.244">
        <ele>128</ele>
        <time>2022-10-07T12:20:10Z</time>
      </trkpt>
      <trkpt lat="49.78313" lon="2.24399">
        <ele>128</ele>
        <time>2022-10-07T12:20:11Z</time>
      </trkpt>
      <trkpt lat="49.78312" lon="2.24399">
        <ele>128</ele>
        <time>2022-10-07T12:20:12Z</time>
      </trkpt>
      <trkpt lat="49.78311" lon="2.24399">
        <ele>128</ele>
        <time>2022-10-07T12:20:14Z</time>
      </trkpt>
      <trkpt lat="49.7831" lon="2.24398">
        <ele>128</ele>
        <time>2022-10-07T12:20:15Z</time>
      </trkpt>
      <trkpt lat="49.78309" lon="2.24398">
        <ele>128</ele>
        <time>2022-10-07T12:20:16Z</time>
      </trkpt>
      <trkpt lat="49.78308" lon="2.24397">
        <ele>128</ele>
        <time>2022-10-07T12:20:17Z</time>
      </trkpt>
      <trkpt lat="49.78307" lon="2.24397">
        <ele>128</ele>
        <time>2022-10-07T12:20:18Z</time>
      </trkpt>
      <trkpt lat="49.78306" lon="2.24396">
        <ele>128</ele>
        <time>2022-10-07T12:20:19Z</time>
      </trkpt>
      <trkpt lat="49.78304" lon="2.24396">
        <ele>128</ele>
        <time>2022-10-07T12:20:20Z</time>
      </trkpt>
      <trkpt lat="49.78302" lon="2.24395">
        <ele>128.1</ele>
        <time>2022-10-07T12:20:21Z</time>
      </trkpt>
      <trkpt lat="49.78301" lon="2.24395">
        <ele>128.1</ele>
        <time>2022-10-07T12:20:22Z</time>
      </trkpt>
      <trkpt lat="49.783" lon="2.24395">
        <ele>128.1</ele>
        <time>2022-10-07T12:20:24Z</time>
      </trkpt>
      <trkpt lat="49.783" lon="2.24394">
        <ele>128.1</ele>
        <time>2022-10-07T12:20:25Z</time>
      </trkpt>
      <trkpt lat="49.78299" lon="2.24394">
        <ele>128.1</ele>
        <time>2022-10-07T12:20:26Z</time>
      </trkpt>
      <trkpt lat="49.78298" lon="2.24394">
        <ele>128.1</ele>
        <time>2022-10-07T12:20:27Z</time>
      </trkpt>
      <trkpt lat="49.78296" lon="2.24393">
        <ele>128.1</ele>
        <time>2022-10-07T12:20:28Z</time>
      </trkpt>
      <trkpt lat="49.78295" lon="2.24392">
        <ele>128.1</ele>
        <time>2022-10-07T12:20:29Z</time>
      </trkpt>
      <trkpt lat="49.78294" lon="2.24392">
        <ele>128.2</ele>
        <time>2022-10-07T12:20:30Z</time>
      </trkpt>
      <trkpt lat="49.78293" lon="2.2439">
        <ele>128.2</ele>
        <time>2022-10-07T12:20:32Z</time>
      </trkpt>
      <trkpt lat="49.78292" lon="2.24389">
        <ele>128.2</ele>
        <time>2022-10-07T12:20:33Z</time>
      </trkpt>
      <trkpt lat="49.78291" lon="2.24389">
        <ele>128.2</ele>
        <time>2022-10-07T12:20:34Z</time>
      </trkpt>
      <trkpt lat="49.78289" lon="2.24388">
        <ele>128.2</ele>
        <time>2022-10-07T12:20:35Z</time>
      </trkpt>
      <trkpt lat="49.78287" lon="2.24388">
        <ele>128.2</ele>
        <time>2022-10-07T12:20:36Z</time>
      </trkpt>
      <trkpt lat="49.78286" lon="2.24388">
        <ele>128.3</ele>
        <time>2022-10-07T12:20:37Z</time>
      </trkpt>
      <trkpt lat="49.78285" lon="2.24387">
        <ele>128.3</ele>
        <time>2022-10-07T12:20:38Z</time>
      </trkpt>
      <trkpt lat="49.78283" lon="2.24387">
        <ele>128.3</ele>
        <time>2022-10-07T12:20:40Z</time>
      </trkpt>
      <trkpt lat="49.78282" lon="2.24386">
        <ele>128.3</ele>
        <time>2022-10-07T12:20:41Z</time>
      </trkpt>
      <trkpt lat="49.78281" lon="2.24386">
        <ele>128.3</ele>
        <time>2022-10-07T12:20:42Z</time>
      </trkpt>
      <trkpt lat="49.78279" lon="2.24385">
        <ele>128.3</ele>
        <time>2022-10-07T12:20:43Z</time>
      </trkpt>
      <trkpt lat="49.78278" lon="2.24385">
        <ele>128.3</ele>
        <time>2022-10-07T12:20:44Z</time>
      </trkpt>
      <trkpt lat="49.78277" lon="2.24385">
        <ele>128.3</ele>
        <time>2022-10-07T12:20:45Z</time>
      </trkpt>
      <trkpt lat="49.78276" lon="2.24384">
        <ele>128.3</ele>
        <time>2022-10-07T12:20:46Z</time>
      </trkpt>
      <trkpt lat="49.78275" lon="2.24384">
        <ele>128.3</ele>
        <time>2022-10-07T12:20:48Z</time>
      </trkpt>
      <trkpt lat="49.78274" lon="2.24383">
        <ele>128.3</ele>
        <time>2022-10-07T12:20:49Z</time>
      </trkpt>
      <trkpt lat="49.78272" lon="2.24381">
        <ele>128.3</ele>
        <time>2022-10-07T12:20:50Z</time>
      </trkpt>
      <trkpt lat="49.78272" lon="2.24381">
        <ele>128.4</ele>
        <time>2022-10-07T12:20:51Z</time>
      </trkpt>
      <trkpt lat="49.78271" lon="2.2438">
        <ele>128.4</ele>
        <time>2022-10-07T12:20:52Z</time>
      </trkpt>
      <trkpt lat="49.7827" lon="2.2438">
        <ele>128.4</ele>
        <time>2022-10-07T12:20:53Z</time>
      </trkpt>
      <trkpt lat="49.78269" lon="2.24379">
        <ele>128.4</ele>
        <time>2022-10-07T12:20:54Z</time>
      </trkpt>
      <trkpt lat="49.78268" lon="2.24379">
        <ele>128.4</ele>
        <time>2022-10-07T12:20:55Z</time>
      </trkpt>
      <trkpt lat="49.78266" lon="2.24378">
        <ele>128.4</ele>
        <time>2022-10-07T12:20:56Z</time>
      </trkpt>
      <trkpt lat="49.78265" lon="2.24377">
        <ele>128.4</ele>
        <time>2022-10-07T12:20:57Z</time>
      </trkpt>
      <trkpt lat="49.78263" lon="2.24376">
        <ele>128.4</ele>
        <time>2022-10-07T12:20:58Z</time>
      </trkpt>
      <trkpt lat="49.78262" lon="2.24376">
        <ele>128.4</ele>
        <time>2022-10-07T12:21:00Z</time>
      </trkpt>
      <trkpt lat="49.78262" lon="2.24375">
        <ele>128.4</ele>
        <time>2022-10-07T12:21:01Z</time>
      </trkpt>
      <trkpt lat="49.7826" lon="2.24374">
        <ele>128.4</ele>
        <time>2022-10-07T12:21:02Z</time>
      </trkpt>
      <trkpt lat="49.78259" lon="2.24374">
        <ele>128.4</ele>
        <time>2022-10-07T12:21:04Z</time>
      </trkpt>
      <trkpt lat="49.78258" lon="2.24374">
        <ele>128.4</ele>
        <time>2022-10-07T12:21:05Z</time>
      </trkpt>
      <trkpt lat="49.78256" lon="2.24373">
        <ele>128.4</ele>
        <time>2022-10-07T12:21:06Z</time>
      </trkpt>
      <trkpt lat="49.78255" lon="2.24372">
        <ele>128.4</ele>
        <time>2022-10-07T12:21:07Z</time>
      </trkpt>
      <trkpt lat="49.78254" lon="2.24372">
        <ele>128.4</ele>
        <time>2022-10-07T12:21:08Z</time>
      </trkpt>
      <trkpt lat="49.78253" lon="2.24372">
        <ele>128.4</ele>
        <time>2022-10-07T12:21:09Z</time>
      </trkpt>
      <trkpt lat="49.78252" lon="2.24372">
        <ele>128.4</ele>
        <time>2022-10-07T12:21:10Z</time>
      </trkpt>
      <trkpt lat="49.7825" lon="2.24371">
        <ele>128.4</ele>
        <time>2022-10-07T12:21:12Z</time>
      </trkpt>
      <trkpt lat="49.78248" lon="2.2437">
        <ele>128.4</ele>
        <time>2022-10-07T12:21:13Z</time>
      </trkpt>
      <trkpt lat="49.78247" lon="2.2437">
        <ele>128.4</ele>
        <time>2022-10-07T12:21:14Z</time>
      </trkpt>
      <trkpt lat="49.78246" lon="2.2437">
        <ele>128.4</ele>
        <time>2022-10-07T12:21:15Z</time>
      </trkpt>
      <trkpt lat="49.78245" lon="2.24369">
        <ele>128.4</ele>
        <time>2022-10-07T12:21:16Z</time>
      </trkpt>
      <trkpt lat="49.78244" lon="2.24368">
        <ele>128.4</ele>
        <time>2022-10-07T12:21:17Z</time>
      </trkpt>
      <trkpt lat="49.78243" lon="2.24368">
        <ele>128.4</ele>
        <time>2022-10-07T12:21:18Z</time>
      </trkpt>
      <trkpt lat="49.78242" lon="2.24368">
        <ele>128.4</ele>
        <time>2022-10-07T12:21:19Z</time>
      </trkpt>
      <trkpt lat="49.7824" lon="2.24368">
        <ele>128.4</ele>
        <time>2022-10-07T12:21:20Z</time>
      </trkpt>
      <trkpt lat="49.78239" lon="2.24368">
        <ele>128.4</ele>
        <time>2022-10-07T12:21:21Z</time>
      </trkpt>
      <trkpt lat="49.78239" lon="2.24367">
        <ele>128.4</ele>
        <time>2022-10-07T12:21:22Z</time>
      </trkpt>
      <trkpt lat="49.78237" lon="2.24367">
        <ele>128.4</ele>
        <time>2022-10-07T12:21:24Z</time>
      </trkpt>
      <trkpt lat="49.78236" lon="2.24366">
        <ele>128.4</ele>
        <time>2022-10-07T12:21:25Z</time>
      </trkpt>
      <trkpt lat="49.78234" lon="2.24366">
        <ele>128.4</ele>
        <time>2022-10-07T12:21:26Z</time>
      </trkpt>
      <trkpt lat="49.78233" lon="2.24365">
        <ele>128.4</ele>
        <time>2022-10-07T12:21:27Z</time>
      </trkpt>
      <trkpt lat="49.78232" lon="2.24365">
        <ele>128.4</ele>
        <time>2022-10-07T12:21:28Z</time>
      </trkpt>
      <trkpt lat="49.78231" lon="2.24364">
        <ele>128.4</ele>
        <time>2022-10-07T12:21:29Z</time>
      </trkpt>
      <trkpt lat="49.7823" lon="2.24363">
        <ele>128.4</ele>
        <time>2022-10-07T12:21:30Z</time>
      </trkpt>
      <trkpt lat="49.78229" lon="2.24363">
        <ele>128.4</ele>
        <time>2022-10-07T12:21:31Z</time>
      </trkpt>
      <trkpt lat="49.78228" lon="2.24362">
        <ele>128.4</ele>
        <time>2022-10-07T12:21:33Z</time>
      </trkpt>
      <trkpt lat="49.78226" lon="2.2436">
        <ele>128.4</ele>
        <time>2022-10-07T12:21:34Z</time>
      </trkpt>
      <trkpt lat="49.78225" lon="2.24359">
        <ele>128.5</ele>
        <time>2022-10-07T12:21:35Z</time>
      </trkpt>
      <trkpt lat="49.78224" lon="2.24358">
        <ele>128.5</ele>
        <time>2022-10-07T12:21:36Z</time>
      </trkpt>
      <trkpt lat="49.78223" lon="2.24358">
        <ele>128.5</ele>
        <time>2022-10-07T12:21:37Z</time>
      </trkpt>
      <trkpt lat="49.78222" lon="2.24357">
        <ele>128.5</ele>
        <time>2022-10-07T12:21:38Z</time>
      </trkpt>
      <trkpt lat="49.78221" lon="2.24356">
        <ele>128.5</ele>
        <time>2022-10-07T12:21:39Z</time>
      </trkpt>
      <trkpt lat="49.78219" lon="2.24356">
        <ele>128.5</ele>
        <time>2022-10-07T12:21:41Z</time>
      </trkpt>
      <trkpt lat="49.78218" lon="2.24355">
        <ele>128.5</ele>
        <time>2022-10-07T12:21:42Z</time>
      </trkpt>
      <trkpt lat="49.78217" lon="2.24355">
        <ele>128.5</ele>
        <time>2022-10-07T12:21:43Z</time>
      </trkpt>
      <trkpt lat="49.78216" lon="2.24354">
        <ele>128.5</ele>
        <time>2022-10-07T12:21:44Z</time>
      </trkpt>
      <trkpt lat="49.78215" lon="2.24354">
        <ele>128.5</ele>
        <time>2022-10-07T12:21:45Z</time>
      </trkpt>
      <trkpt lat="49.78213" lon="2.24353">
        <ele>128.5</ele>
        <time>2022-10-07T12:21:46Z</time>
      </trkpt>
      <trkpt lat="49.78212" lon="2.24353">
        <ele>128.5</ele>
        <time>2022-10-07T12:21:47Z</time>
      </trkpt>
      <trkpt lat="49.78211" lon="2.24353">
        <ele>128.5</ele>
        <time>2022-10-07T12:21:48Z</time>
      </trkpt>
      <trkpt lat="49.78209" lon="2.24352">
        <ele>128.5</ele>
        <time>2022-10-07T12:21:49Z</time>
      </trkpt>
      <trkpt lat="49.78207" lon="2.24351">
        <ele>128.5</ele>
        <time>2022-10-07T12:21:50Z</time>
      </trkpt>
      <trkpt lat="49.78206" lon="2.2435">
        <ele>128.5</ele>
        <time>2022-10-07T12:21:51Z</time>
      </trkpt>
      <trkpt lat="49.78204" lon="2.2435">
        <ele>128.5</ele>
        <time>2022-10-07T12:21:53Z</time>
      </trkpt>
      <trkpt lat="49.78203" lon="2.24349">
        <ele>128.5</ele>
        <time>2022-10-07T12:21:54Z</time>
      </trkpt>
      <trkpt lat="49.782" lon="2.24347">
        <ele>128.5</ele>
        <time>2022-10-07T12:21:56Z</time>
      </trkpt>
      <trkpt lat="49.782" lon="2.24347">
        <ele>128.5</ele>
        <time>2022-10-07T12:21:57Z</time>
      </trkpt>
      <trkpt lat="49.78199" lon="2.24347">
        <ele>128.5</ele>
        <time>2022-10-07T12:21:58Z</time>
      </trkpt>
      <trkpt lat="49.78198" lon="2.24346">
        <ele>128.5</ele>
        <time>2022-10-07T12:21:59Z</time>
      </trkpt>
      <trkpt lat="49.78196" lon="2.24345">
        <ele>128.5</ele>
        <time>2022-10-07T12:22:00Z</time>
      </trkpt>
      <trkpt lat="49.78195" lon="2.24345">
        <ele>128.5</ele>
        <time>2022-10-07T12:22:01Z</time>
      </trkpt>
      <trkpt lat="49.78194" lon="2.24344">
        <ele>128.5</ele>
        <time>2022-10-07T12:22:02Z</time>
      </trkpt>
      <trkpt lat="49.78192" lon="2.24344">
        <ele>128.5</ele>
        <time>2022-10-07T12:22:03Z</time>
      </trkpt>
      <trkpt lat="49.78191" lon="2.24343">
        <ele>128.5</ele>
        <time>2022-10-07T12:22:04Z</time>
      </trkpt>
      <trkpt lat="49.7819" lon="2.24343">
        <ele>128.5</ele>
        <time>2022-10-07T12:22:06Z</time>
      </trkpt>
      <trkpt lat="49.78189" lon="2.24343">
        <ele>128.5</ele>
        <time>2022-10-07T12:22:07Z</time>
      </trkpt>
      <trkpt lat="49.78188" lon="2.24343">
        <ele>128.5</ele>
        <time>2022-10-07T12:22:08Z</time>
      </trkpt>
      <trkpt lat="49.78187" lon="2.24342">
        <ele>128.5</ele>
        <time>2022-10-07T12:22:09Z</time>
      </trkpt>
      <trkpt lat="49.78186" lon="2.24342">
        <ele>128.5</ele>
        <time>2022-10-07T12:22:10Z</time>
      </trkpt>
      <trkpt lat="49.78184" lon="2.24341">
        <ele>128.5</ele>
        <time>2022-10-07T12:22:11Z</time>
      </trkpt>
      <trkpt lat="49.78183" lon="2.2434">
        <ele>128.5</ele>
        <time>2022-10-07T12:22:13Z</time>
      </trkpt>
      <trkpt lat="49.78181" lon="2.2434">
        <ele>128.5</ele>
        <time>2022-10-07T12:22:14Z</time>
      </trkpt>
      <trkpt lat="49.7818" lon="2.2434">
        <ele>128.5</ele>
        <time>2022-10-07T12:22:15Z</time>
      </trkpt>
      <trkpt lat="49.78179" lon="2.24339">
        <ele>128.5</ele>
        <time>2022-10-07T12:22:16Z</time>
      </trkpt>
      <trkpt lat="49.78178" lon="2.24339">
        <ele>128.5</ele>
        <time>2022-10-07T12:22:17Z</time>
      </trkpt>
      <trkpt lat="49.78177" lon="2.24338">
        <ele>128.5</ele>
        <time>2022-10-07T12:22:18Z</time>
      </trkpt>
      <trkpt lat="49.78175" lon="2.24338">
        <ele>128.5</ele>
        <time>2022-10-07T12:22:19Z</time>
      </trkpt>
      <trkpt lat="49.78174" lon="2.24337">
        <ele>128.6</ele>
        <time>2022-10-07T12:22:20Z</time>
      </trkpt>
      <trkpt lat="49.78173" lon="2.24337">
        <ele>128.6</ele>
        <time>2022-10-07T12:22:21Z</time>
      </trkpt>
      <trkpt lat="49.78173" lon="2.24337">
        <ele>128.6</ele>
        <time>2022-10-07T12:22:22Z</time>
      </trkpt>
      <trkpt lat="49.78172" lon="2.24337">
        <ele>128.6</ele>
        <time>2022-10-07T12:22:23Z</time>
      </trkpt>
      <trkpt lat="49.78171" lon="2.24337">
        <ele>128.6</ele>
        <time>2022-10-07T12:22:24Z</time>
      </trkpt>
      <trkpt lat="49.78169" lon="2.24336">
        <ele>128.6</ele>
        <time>2022-10-07T12:22:26Z</time>
      </trkpt>
      <trkpt lat="49.78167" lon="2.24335">
        <ele>128.6</ele>
        <time>2022-10-07T12:22:27Z</time>
      </trkpt>
      <trkpt lat="49.78166" lon="2.24335">
        <ele>128.6</ele>
        <time>2022-10-07T12:22:28Z</time>
      </trkpt>
      <trkpt lat="49.78166" lon="2.24335">
        <ele>128.6</ele>
        <time>2022-10-07T12:22:29Z</time>
      </trkpt>
      <trkpt lat="49.78165" lon="2.24334">
        <ele>128.6</ele>
        <time>2022-10-07T12:22:30Z</time>
      </trkpt>
      <trkpt lat="49.78163" lon="2.24333">
        <ele>128.6</ele>
        <time>2022-10-07T12:22:31Z</time>
      </trkpt>
      <trkpt lat="49.78162" lon="2.24333">
        <ele>128.6</ele>
        <time>2022-10-07T12:22:32Z</time>
      </trkpt>
      <trkpt lat="49.78161" lon="2.24332">
        <ele>128.6</ele>
        <time>2022-10-07T12:22:33Z</time>
      </trkpt>
      <trkpt lat="49.7816" lon="2.24332">
        <ele>128.6</ele>
        <time>2022-10-07T12:22:34Z</time>
      </trkpt>
      <trkpt lat="49.78159" lon="2.24332">
        <ele>128.6</ele>
        <time>2022-10-07T12:22:35Z</time>
      </trkpt>
      <trkpt lat="49.78157" lon="2.24331">
        <ele>128.7</ele>
        <time>2022-10-07T12:22:36Z</time>
      </trkpt>
      <trkpt lat="49.78156" lon="2.24331">
        <ele>128.7</ele>
        <time>2022-10-07T12:22:38Z</time>
      </trkpt>
      <trkpt lat="49.78155" lon="2.2433">
        <ele>128.7</ele>
        <time>2022-10-07T12:22:39Z</time>
      </trkpt>
      <trkpt lat="49.78154" lon="2.2433">
        <ele>128.7</ele>
        <time>2022-10-07T12:22:40Z</time>
      </trkpt>
      <trkpt lat="49.78152" lon="2.24329">
        <ele>128.7</ele>
        <time>2022-10-07T12:22:41Z</time>
      </trkpt>
      <trkpt lat="49.78151" lon="2.24329">
        <ele>128.7</ele>
        <time>2022-10-07T12:22:42Z</time>
      </trkpt>
      <trkpt lat="49.7815" lon="2.24328">
        <ele>128.7</ele>
        <time>2022-10-07T12:22:43Z</time>
      </trkpt>
      <trkpt lat="49.78149" lon="2.24328">
        <ele>128.7</ele>
        <time>2022-10-07T12:22:44Z</time>
      </trkpt>
      <trkpt lat="49.78148" lon="2.24327">
        <ele>128.7</ele>
        <time>2022-10-07T12:22:45Z</time>
      </trkpt>
      <trkpt lat="49.78146" lon="2.24327">
        <ele>128.7</ele>
        <time>2022-10-07T12:22:46Z</time>
      </trkpt>
      <trkpt lat="49.78145" lon="2.24326">
        <ele>128.7</ele>
        <time>2022-10-07T12:22:47Z</time>
      </trkpt>
      <trkpt lat="49.78143" lon="2.24325">
        <ele>128.7</ele>
        <time>2022-10-07T12:22:48Z</time>
      </trkpt>
      <trkpt lat="49.78142" lon="2.24325">
        <ele>128.7</ele>
        <time>2022-10-07T12:22:49Z</time>
      </trkpt>
      <trkpt lat="49.78141" lon="2.24324">
        <ele>128.7</ele>
        <time>2022-10-07T12:22:50Z</time>
      </trkpt>
      <trkpt lat="49.78139" lon="2.24323">
        <ele>128.7</ele>
        <time>2022-10-07T12:22:52Z</time>
      </trkpt>
      <trkpt lat="49.78138" lon="2.24322">
        <ele>128.7</ele>
        <time>2022-10-07T12:22:53Z</time>
      </trkpt>
      <trkpt lat="49.78137" lon="2.24322">
        <ele>128.7</ele>
        <time>2022-10-07T12:22:54Z</time>
      </trkpt>
      <trkpt lat="49.78136" lon="2.24321">
        <ele>128.7</ele>
        <time>2022-10-07T12:22:55Z</time>
      </trkpt>
      <trkpt lat="49.78136" lon="2.2432">
        <ele>128.8</ele>
        <time>2022-10-07T12:22:56Z</time>
      </trkpt>
      <trkpt lat="49.78133" lon="2.24319">
        <ele>128.8</ele>
        <time>2022-10-07T12:22:57Z</time>
      </trkpt>
      <trkpt lat="49.78133" lon="2.24319">
        <ele>128.8</ele>
        <time>2022-10-07T12:22:58Z</time>
      </trkpt>
      <trkpt lat="49.78132" lon="2.24319">
        <ele>128.8</ele>
        <time>2022-10-07T12:22:59Z</time>
      </trkpt>
      <trkpt lat="49.7813" lon="2.24318">
        <ele>128.8</ele>
        <time>2022-10-07T12:23:01Z</time>
      </trkpt>
      <trkpt lat="49.78129" lon="2.24318">
        <ele>128.8</ele>
        <time>2022-10-07T12:23:02Z</time>
      </trkpt>
      <trkpt lat="49.78126" lon="2.24317">
        <ele>128.8</ele>
        <time>2022-10-07T12:23:03Z</time>
      </trkpt>
      <trkpt lat="49.78126" lon="2.24317">
        <ele>128.8</ele>
        <time>2022-10-07T12:23:04Z</time>
      </trkpt>
      <trkpt lat="49.78125" lon="2.24316">
        <ele>128.8</ele>
        <time>2022-10-07T12:23:05Z</time>
      </trkpt>
      <trkpt lat="49.78123" lon="2.24316">
        <ele>128.8</ele>
        <time>2022-10-07T12:23:06Z</time>
      </trkpt>
      <trkpt lat="49.78122" lon="2.24315">
        <ele>128.8</ele>
        <time>2022-10-07T12:23:07Z</time>
      </trkpt>
      <trkpt lat="49.7812" lon="2.24315">
        <ele>128.9</ele>
        <time>2022-10-07T12:23:09Z</time>
      </trkpt>
      <trkpt lat="49.78119" lon="2.24315">
        <ele>128.9</ele>
        <time>2022-10-07T12:23:10Z</time>
      </trkpt>
      <trkpt lat="49.78118" lon="2.24315">
        <ele>128.9</ele>
        <time>2022-10-07T12:23:11Z</time>
      </trkpt>
      <trkpt lat="49.78117" lon="2.24315">
        <ele>128.9</ele>
        <time>2022-10-07T12:23:12Z</time>
      </trkpt>
      <trkpt lat="49.78116" lon="2.24315">
        <ele>128.9</ele>
        <time>2022-10-07T12:23:13Z</time>
      </trkpt>
      <trkpt lat="49.78114" lon="2.24315">
        <ele>128.9</ele>
        <time>2022-10-07T12:23:14Z</time>
      </trkpt>
      <trkpt lat="49.78113" lon="2.24314">
        <ele>128.9</ele>
        <time>2022-10-07T12:23:15Z</time>
      </trkpt>
      <trkpt lat="49.78112" lon="2.24314">
        <ele>128.9</ele>
        <time>2022-10-07T12:23:16Z</time>
      </trkpt>
      <trkpt lat="49.78111" lon="2.24314">
        <ele>128.9</ele>
        <time>2022-10-07T12:23:17Z</time>
      </trkpt>
      <trkpt lat="49.7811" lon="2.24314">
        <ele>128.9</ele>
        <time>2022-10-07T12:23:18Z</time>
      </trkpt>
      <trkpt lat="49.78109" lon="2.24314">
        <ele>128.9</ele>
        <time>2022-10-07T12:23:20Z</time>
      </trkpt>
      <trkpt lat="49.78108" lon="2.24313">
        <ele>128.9</ele>
        <time>2022-10-07T12:23:21Z</time>
      </trkpt>
      <trkpt lat="49.78106" lon="2.24313">
        <ele>128.9</ele>
        <time>2022-10-07T12:23:22Z</time>
      </trkpt>
      <trkpt lat="49.78104" lon="2.24312">
        <ele>128.9</ele>
        <time>2022-10-07T12:23:23Z</time>
      </trkpt>
      <trkpt lat="49.78104" lon="2.24312">
        <ele>128.9</ele>
        <time>2022-10-07T12:23:24Z</time>
      </trkpt>
      <trkpt lat="49.78103" lon="2.24311">
        <ele>128.9</ele>
        <time>2022-10-07T12:23:25Z</time>
      </trkpt>
      <trkpt lat="49.78102" lon="2.24311">
        <ele>128.9</ele>
        <time>2022-10-07T12:23:26Z</time>
      </trkpt>
      <trkpt lat="49.781" lon="2.2431">
        <ele>129</ele>
        <time>2022-10-07T12:23:27Z</time>
      </trkpt>
      <trkpt lat="49.78099" lon="2.2431">
        <ele>129</ele>
        <time>2022-10-07T12:23:28Z</time>
      </trkpt>
      <trkpt lat="49.78099" lon="2.2431">
        <ele>129</ele>
        <time>2022-10-07T12:23:29Z</time>
      </trkpt>
      <trkpt lat="49.78098" lon="2.24309">
        <ele>129</ele>
        <time>2022-10-07T12:23:30Z</time>
      </trkpt>
      <trkpt lat="49.78096" lon="2.24309">
        <ele>129</ele>
        <time>2022-10-07T12:23:31Z</time>
      </trkpt>
      <trkpt lat="49.78095" lon="2.24308">
        <ele>129</ele>
        <time>2022-10-07T12:23:33Z</time>
      </trkpt>
      <trkpt lat="49.78094" lon="2.24308">
        <ele>129</ele>
        <time>2022-10-07T12:23:34Z</time>
      </trkpt>
      <trkpt lat="49.78093" lon="2.24308">
        <ele>129</ele>
        <time>2022-10-07T12:23:35Z</time>
      </trkpt>
      <trkpt lat="49.78092" lon="2.24308">
        <ele>129</ele>
        <time>2022-10-07T12:23:36Z</time>
      </trkpt>
      <trkpt lat="49.7809" lon="2.24307">
        <ele>129</ele>
        <time>2022-10-07T12:23:37Z</time>
      </trkpt>
      <trkpt lat="49.78089" lon="2.24307">
        <ele>129</ele>
        <time>2022-10-07T12:23:38Z</time>
      </trkpt>
      <trkpt lat="49.78088" lon="2.24307">
        <ele>129</ele>
        <time>2022-10-07T12:23:39Z</time>
      </trkpt>
      <trkpt lat="49.78087" lon="2.24306">
        <ele>129</ele>
        <time>2022-10-07T12:23:40Z</time>
      </trkpt>
      <trkpt lat="49.78085" lon="2.24306">
        <ele>129</ele>
        <time>2022-10-07T12:23:42Z</time>
      </trkpt>
      <trkpt lat="49.78085" lon="2.24305">
        <ele>129</ele>
        <time>2022-10-07T12:23:43Z</time>
      </trkpt>
      <trkpt lat="49.78083" lon="2.24305">
        <ele>129</ele>
        <time>2022-10-07T12:23:44Z</time>
      </trkpt>
      <trkpt lat="49.78082" lon="2.24304">
        <ele>129</ele>
        <time>2022-10-07T12:23:45Z</time>
      </trkpt>
      <trkpt lat="49.78081" lon="2.24304">
        <ele>129</ele>
        <time>2022-10-07T12:23:46Z</time>
      </trkpt>
      <trkpt lat="49.7808" lon="2.24304">
        <ele>129</ele>
        <time>2022-10-07T12:23:48Z</time>
      </trkpt>
      <trkpt lat="49.78079" lon="2.24303">
        <ele>129.1</ele>
        <time>2022-10-07T12:23:49Z</time>
      </trkpt>
      <trkpt lat="49.78078" lon="2.24303">
        <ele>129.1</ele>
        <time>2022-10-07T12:23:50Z</time>
      </trkpt>
      <trkpt lat="49.78077" lon="2.24303">
        <ele>129.1</ele>
        <time>2022-10-07T12:23:51Z</time>
      </trkpt>
      <trkpt lat="49.78076" lon="2.24303">
        <ele>129.1</ele>
        <time>2022-10-07T12:23:52Z</time>
      </trkpt>
      <trkpt lat="49.78075" lon="2.24302">
        <ele>129.1</ele>
        <time>2022-10-07T12:23:53Z</time>
      </trkpt>
      <trkpt lat="49.78073" lon="2.24301">
        <ele>129.1</ele>
        <time>2022-10-07T12:23:54Z</time>
      </trkpt>
      <trkpt lat="49.78072" lon="2.24301">
        <ele>129.1</ele>
        <time>2022-10-07T12:23:55Z</time>
      </trkpt>
      <trkpt lat="49.78071" lon="2.24301">
        <ele>129.1</ele>
        <time>2022-10-07T12:23:56Z</time>
      </trkpt>
      <trkpt lat="49.7807" lon="2.243">
        <ele>129.1</ele>
        <time>2022-10-07T12:23:57Z</time>
      </trkpt>
      <trkpt lat="49.78069" lon="2.243">
        <ele>129.1</ele>
        <time>2022-10-07T12:23:59Z</time>
      </trkpt>
      <trkpt lat="49.78068" lon="2.24299">
        <ele>129.1</ele>
        <time>2022-10-07T12:24:00Z</time>
      </trkpt>
      <trkpt lat="49.78067" lon="2.24299">
        <ele>129.1</ele>
        <time>2022-10-07T12:24:01Z</time>
      </trkpt>
      <trkpt lat="49.78065" lon="2.24298">
        <ele>129.1</ele>
        <time>2022-10-07T12:24:02Z</time>
      </trkpt>
      <trkpt lat="49.78064" lon="2.24298">
        <ele>129.1</ele>
        <time>2022-10-07T12:24:03Z</time>
      </trkpt>
      <trkpt lat="49.78064" lon="2.24297">
        <ele>129.1</ele>
        <time>2022-10-07T12:24:04Z</time>
      </trkpt>
      <trkpt lat="49.78063" lon="2.24296">
        <ele>129.1</ele>
        <time>2022-10-07T12:24:05Z</time>
      </trkpt>
      <trkpt lat="49.78062" lon="2.24295">
        <ele>129.1</ele>
        <time>2022-10-07T12:24:06Z</time>
      </trkpt>
      <trkpt lat="49.7806" lon="2.24294">
        <ele>129.1</ele>
        <time>2022-10-07T12:24:07Z</time>
      </trkpt>
      <trkpt lat="49.78059" lon="2.24293">
        <ele>129.1</ele>
        <time>2022-10-07T12:24:08Z</time>
      </trkpt>
      <trkpt lat="49.78058" lon="2.24293">
        <ele>129.1</ele>
        <time>2022-10-07T12:24:09Z</time>
      </trkpt>
      <trkpt lat="49.78057" lon="2.24292">
        <ele>129.1</ele>
        <time>2022-10-07T12:24:10Z</time>
      </trkpt>
      <trkpt lat="49.78055" lon="2.24291">
        <ele>129.1</ele>
        <time>2022-10-07T12:24:12Z</time>
      </trkpt>
      <trkpt lat="49.78055" lon="2.24291">
        <ele>129.1</ele>
        <time>2022-10-07T12:24:13Z</time>
      </trkpt>
      <trkpt lat="49.78054" lon="2.2429">
        <ele>129.1</ele>
        <time>2022-10-07T12:24:14Z</time>
      </trkpt>
      <trkpt lat="49.78053" lon="2.2429">
        <ele>129.1</ele>
        <time>2022-10-07T12:24:15Z</time>
      </trkpt>
      <trkpt lat="49.78052" lon="2.24289">
        <ele>129.1</ele>
        <time>2022-10-07T12:24:16Z</time>
      </trkpt>
      <trkpt lat="49.7805" lon="2.24288">
        <ele>129.1</ele>
        <time>2022-10-07T12:24:17Z</time>
      </trkpt>
      <trkpt lat="49.78049" lon="2.24288">
        <ele>129.1</ele>
        <time>2022-10-07T12:24:18Z</time>
      </trkpt>
      <trkpt lat="49.78048" lon="2.24287">
        <ele>129.2</ele>
        <time>2022-10-07T12:24:19Z</time>
      </trkpt>
      <trkpt lat="49.78046" lon="2.24286">
        <ele>129.2</ele>
        <time>2022-10-07T12:24:21Z</time>
      </trkpt>
      <trkpt lat="49.78044" lon="2.24285">
        <ele>129.2</ele>
        <time>2022-10-07T12:24:22Z</time>
      </trkpt>
      <trkpt lat="49.78043" lon="2.24285">
        <ele>129.2</ele>
        <time>2022-10-07T12:24:23Z</time>
      </trkpt>
      <trkpt lat="49.78042" lon="2.24285">
        <ele>129.2</ele>
        <time>2022-10-07T12:24:25Z</time>
      </trkpt>
      <trkpt lat="49.7804" lon="2.24284">
        <ele>129.2</ele>
        <time>2022-10-07T12:24:26Z</time>
      </trkpt>
      <trkpt lat="49.78039" lon="2.24283">
        <ele>129.2</ele>
        <time>2022-10-07T12:24:27Z</time>
      </trkpt>
      <trkpt lat="49.78038" lon="2.24283">
        <ele>129.2</ele>
        <time>2022-10-07T12:24:28Z</time>
      </trkpt>
      <trkpt lat="49.78037" lon="2.24283">
        <ele>129.2</ele>
        <time>2022-10-07T12:24:29Z</time>
      </trkpt>
      <trkpt lat="49.78035" lon="2.24281">
        <ele>129.1</ele>
        <time>2022-10-07T12:24:30Z</time>
      </trkpt>
      <trkpt lat="49.78034" lon="2.24281">
        <ele>129.1</ele>
        <time>2022-10-07T12:24:31Z</time>
      </trkpt>
      <trkpt lat="49.78033" lon="2.2428">
        <ele>129.1</ele>
        <time>2022-10-07T12:24:32Z</time>
      </trkpt>
      <trkpt lat="49.78032" lon="2.2428">
        <ele>129.1</ele>
        <time>2022-10-07T12:24:33Z</time>
      </trkpt>
      <trkpt lat="49.7803" lon="2.24279">
        <ele>129.1</ele>
        <time>2022-10-07T12:24:34Z</time>
      </trkpt>
      <trkpt lat="49.78029" lon="2.24278">
        <ele>129.1</ele>
        <time>2022-10-07T12:24:35Z</time>
      </trkpt>
      <trkpt lat="49.78027" lon="2.24277">
        <ele>129.1</ele>
        <time>2022-10-07T12:24:36Z</time>
      </trkpt>
      <trkpt lat="49.78026" lon="2.24277">
        <ele>129.1</ele>
        <time>2022-10-07T12:24:38Z</time>
      </trkpt>
      <trkpt lat="49.78025" lon="2.24276">
        <ele>129.1</ele>
        <time>2022-10-07T12:24:39Z</time>
      </trkpt>
      <trkpt lat="49.78024" lon="2.24276">
        <ele>129.1</ele>
        <time>2022-10-07T12:24:40Z</time>
      </trkpt>
      <trkpt lat="49.78023" lon="2.24275">
        <ele>129.1</ele>
        <time>2022-10-07T12:24:41Z</time>
      </trkpt>
      <trkpt lat="49.78021" lon="2.24275">
        <ele>129.1</ele>
        <time>2022-10-07T12:24:42Z</time>
      </trkpt>
      <trkpt lat="49.7802" lon="2.24274">
        <ele>129.1</ele>
        <time>2022-10-07T12:24:43Z</time>
      </trkpt>
      <trkpt lat="49.78019" lon="2.24274">
        <ele>129.1</ele>
        <time>2022-10-07T12:24:44Z</time>
      </trkpt>
      <trkpt lat="49.78016" lon="2.24273">
        <ele>129.1</ele>
        <time>2022-10-07T12:24:46Z</time>
      </trkpt>
      <trkpt lat="49.78016" lon="2.24273">
        <ele>129.1</ele>
        <time>2022-10-07T12:24:47Z</time>
      </trkpt>
      <trkpt lat="49.78014" lon="2.24272">
        <ele>129.1</ele>
        <time>2022-10-07T12:24:48Z</time>
      </trkpt>
      <trkpt lat="49.78013" lon="2.24272">
        <ele>129.1</ele>
        <time>2022-10-07T12:24:49Z</time>
      </trkpt>
      <trkpt lat="49.78012" lon="2.24272">
        <ele>129.1</ele>
        <time>2022-10-07T12:24:50Z</time>
      </trkpt>
      <trkpt lat="49.7801" lon="2.24271">
        <ele>129.1</ele>
        <time>2022-10-07T12:24:51Z</time>
      </trkpt>
      <trkpt lat="49.78008" lon="2.2427">
        <ele>129.1</ele>
        <time>2022-10-07T12:24:52Z</time>
      </trkpt>
      <trkpt lat="49.78007" lon="2.2427">
        <ele>129.1</ele>
        <time>2022-10-07T12:24:53Z</time>
      </trkpt>
      <trkpt lat="49.78006" lon="2.24269">
        <ele>129</ele>
        <time>2022-10-07T12:24:55Z</time>
      </trkpt>
      <trkpt lat="49.78005" lon="2.24269">
        <ele>129</ele>
        <time>2022-10-07T12:24:56Z</time>
      </trkpt>
      <trkpt lat="49.78004" lon="2.24268">
        <ele>129</ele>
        <time>2022-10-07T12:24:57Z</time>
      </trkpt>
      <trkpt lat="49.78003" lon="2.24268">
        <ele>129</ele>
        <time>2022-10-07T12:24:58Z</time>
      </trkpt>
      <trkpt lat="49.78002" lon="2.24268">
        <ele>129</ele>
        <time>2022-10-07T12:24:59Z</time>
      </trkpt>
      <trkpt lat="49.78001" lon="2.24267">
        <ele>129</ele>
        <time>2022-10-07T12:25:00Z</time>
      </trkpt>
      <trkpt lat="49.77999" lon="2.24267">
        <ele>129</ele>
        <time>2022-10-07T12:25:01Z</time>
      </trkpt>
      <trkpt lat="49.77998" lon="2.24266">
        <ele>129</ele>
        <time>2022-10-07T12:25:02Z</time>
      </trkpt>
      <trkpt lat="49.77997" lon="2.24266">
        <ele>129</ele>
        <time>2022-10-07T12:25:03Z</time>
      </trkpt>
      <trkpt lat="49.77996" lon="2.24266">
        <ele>129</ele>
        <time>2022-10-07T12:25:04Z</time>
      </trkpt>
      <trkpt lat="49.77994" lon="2.24266">
        <ele>128.9</ele>
        <time>2022-10-07T12:25:05Z</time>
      </trkpt>
      <trkpt lat="49.77992" lon="2.24264">
        <ele>128.9</ele>
        <time>2022-10-07T12:25:06Z</time>
      </trkpt>
      <trkpt lat="49.77991" lon="2.24264">
        <ele>128.9</ele>
        <time>2022-10-07T12:25:08Z</time>
      </trkpt>
      <trkpt lat="49.7799" lon="2.24263">
        <ele>128.9</ele>
        <time>2022-10-07T12:25:09Z</time>
      </trkpt>
      <trkpt lat="49.77989" lon="2.24263">
        <ele>128.9</ele>
        <time>2022-10-07T12:25:10Z</time>
      </trkpt>
      <trkpt lat="49.77988" lon="2.24262">
        <ele>128.9</ele>
        <time>2022-10-07T12:25:11Z</time>
      </trkpt>
      <trkpt lat="49.77986" lon="2.24261">
        <ele>128.9</ele>
        <time>2022-10-07T12:25:12Z</time>
      </trkpt>
      <trkpt lat="49.77985" lon="2.24261">
        <ele>128.9</ele>
        <time>2022-10-07T12:25:13Z</time>
      </trkpt>
      <trkpt lat="49.77983" lon="2.24261">
        <ele>128.9</ele>
        <time>2022-10-07T12:25:15Z</time>
      </trkpt>
      <trkpt lat="49.77982" lon="2.2426">
        <ele>128.9</ele>
        <time>2022-10-07T12:25:16Z</time>
      </trkpt>
      <trkpt lat="49.77982" lon="2.2426">
        <ele>128.9</ele>
        <time>2022-10-07T12:25:17Z</time>
      </trkpt>
      <trkpt lat="49.7798" lon="2.24259">
        <ele>128.9</ele>
        <time>2022-10-07T12:25:18Z</time>
      </trkpt>
      <trkpt lat="49.77979" lon="2.24258">
        <ele>128.9</ele>
        <time>2022-10-07T12:25:19Z</time>
      </trkpt>
      <trkpt lat="49.77976" lon="2.24258">
        <ele>128.8</ele>
        <time>2022-10-07T12:25:20Z</time>
      </trkpt>
      <trkpt lat="49.77975" lon="2.24257">
        <ele>128.8</ele>
        <time>2022-10-07T12:25:21Z</time>
      </trkpt>
      <trkpt lat="49.77974" lon="2.24257">
        <ele>128.8</ele>
        <time>2022-10-07T12:25:22Z</time>
      </trkpt>
      <trkpt lat="49.77974" lon="2.24256">
        <ele>128.8</ele>
        <time>2022-10-07T12:25:23Z</time>
      </trkpt>
      <trkpt lat="49.77973" lon="2.24256">
        <ele>128.8</ele>
        <time>2022-10-07T12:25:25Z</time>
      </trkpt>
      <trkpt lat="49.77972" lon="2.24255">
        <ele>128.8</ele>
        <time>2022-10-07T12:25:26Z</time>
      </trkpt>
      <trkpt lat="49.77971" lon="2.24255">
        <ele>128.8</ele>
        <time>2022-10-07T12:25:27Z</time>
      </trkpt>
      <trkpt lat="49.77969" lon="2.24254">
        <ele>128.8</ele>
        <time>2022-10-07T12:25:28Z</time>
      </trkpt>
      <trkpt lat="49.77969" lon="2.24254">
        <ele>128.8</ele>
        <time>2022-10-07T12:25:29Z</time>
      </trkpt>
      <trkpt lat="49.77968" lon="2.24254">
        <ele>128.8</ele>
        <time>2022-10-07T12:25:30Z</time>
      </trkpt>
      <trkpt lat="49.77967" lon="2.24254">
        <ele>128.8</ele>
        <time>2022-10-07T12:25:31Z</time>
      </trkpt>
      <trkpt lat="49.77964" lon="2.24253">
        <ele>128.8</ele>
        <time>2022-10-07T12:25:33Z</time>
      </trkpt>
      <trkpt lat="49.77963" lon="2.24252">
        <ele>128.8</ele>
        <time>2022-10-07T12:25:34Z</time>
      </trkpt>
      <trkpt lat="49.77962" lon="2.24252">
        <ele>128.8</ele>
        <time>2022-10-07T12:25:35Z</time>
      </trkpt>
      <trkpt lat="49.77961" lon="2.24252">
        <ele>128.8</ele>
        <time>2022-10-07T12:25:36Z</time>
      </trkpt>
      <trkpt lat="49.77959" lon="2.24251">
        <ele>128.8</ele>
        <time>2022-10-07T12:25:37Z</time>
      </trkpt>
      <trkpt lat="49.77958" lon="2.24251">
        <ele>128.8</ele>
        <time>2022-10-07T12:25:38Z</time>
      </trkpt>
      <trkpt lat="49.77957" lon="2.24251">
        <ele>128.9</ele>
        <time>2022-10-07T12:25:40Z</time>
      </trkpt>
      <trkpt lat="49.77955" lon="2.2425">
        <ele>128.9</ele>
        <time>2022-10-07T12:25:41Z</time>
      </trkpt>
      <trkpt lat="49.77954" lon="2.2425">
        <ele>128.9</ele>
        <time>2022-10-07T12:25:42Z</time>
      </trkpt>
      <trkpt lat="49.77953" lon="2.24249">
        <ele>128.9</ele>
        <time>2022-10-07T12:25:43Z</time>
      </trkpt>
      <trkpt lat="49.77952" lon="2.24249">
        <ele>128.9</ele>
        <time>2022-10-07T12:25:44Z</time>
      </trkpt>
      <trkpt lat="49.77951" lon="2.24248">
        <ele>128.9</ele>
        <time>2022-10-07T12:25:45Z</time>
      </trkpt>
      <trkpt lat="49.7795" lon="2.24248">
        <ele>128.9</ele>
        <time>2022-10-07T12:25:46Z</time>
      </trkpt>
      <trkpt lat="49.77949" lon="2.24247">
        <ele>128.9</ele>
        <time>2022-10-07T12:25:47Z</time>
      </trkpt>
      <trkpt lat="49.77948" lon="2.24247">
        <ele>128.9</ele>
        <time>2022-10-07T12:25:48Z</time>
      </trkpt>
      <trkpt lat="49.77946" lon="2.24246">
        <ele>128.9</ele>
        <time>2022-10-07T12:25:49Z</time>
      </trkpt>
      <trkpt lat="49.77945" lon="2.24246">
        <ele>128.9</ele>
        <time>2022-10-07T12:25:50Z</time>
      </trkpt>
      <trkpt lat="49.77944" lon="2.24245">
        <ele>128.9</ele>
        <time>2022-10-07T12:25:52Z</time>
      </trkpt>
      <trkpt lat="49.77942" lon="2.24245">
        <ele>128.9</ele>
        <time>2022-10-07T12:25:53Z</time>
      </trkpt>
      <trkpt lat="49.77941" lon="2.24244">
        <ele>128.9</ele>
        <time>2022-10-07T12:25:54Z</time>
      </trkpt>
      <trkpt lat="49.7794" lon="2.24244">
        <ele>128.9</ele>
        <time>2022-10-07T12:25:55Z</time>
      </trkpt>
      <trkpt lat="49.77939" lon="2.24243">
        <ele>128.9</ele>
        <time>2022-10-07T12:25:56Z</time>
      </trkpt>
      <trkpt lat="49.77939" lon="2.24243">
        <ele>128.9</ele>
        <time>2022-10-07T12:25:57Z</time>
      </trkpt>
      <trkpt lat="49.77936" lon="2.24242">
        <ele>128.9</ele>
        <time>2022-10-07T12:25:58Z</time>
      </trkpt>
      <trkpt lat="49.77936" lon="2.24242">
        <ele>128.9</ele>
        <time>2022-10-07T12:25:59Z</time>
      </trkpt>
      <trkpt lat="49.77935" lon="2.24242">
        <ele>128.9</ele>
        <time>2022-10-07T12:26:00Z</time>
      </trkpt>
      <trkpt lat="49.77933" lon="2.24241">
        <ele>128.9</ele>
        <time>2022-10-07T12:26:01Z</time>
      </trkpt>
      <trkpt lat="49.77932" lon="2.24241">
        <ele>128.9</ele>
        <time>2022-10-07T12:26:02Z</time>
      </trkpt>
      <trkpt lat="49.77931" lon="2.24241">
        <ele>128.9</ele>
        <time>2022-10-07T12:26:04Z</time>
      </trkpt>
      <trkpt lat="49.7793" lon="2.24241">
        <ele>128.9</ele>
        <time>2022-10-07T12:26:05Z</time>
      </trkpt>
      <trkpt lat="49.77929" lon="2.24241">
        <ele>128.9</ele>
        <time>2022-10-07T12:26:06Z</time>
      </trkpt>
      <trkpt lat="49.77927" lon="2.24241">
        <ele>128.9</ele>
        <time>2022-10-07T12:26:07Z</time>
      </trkpt>
      <trkpt lat="49.77926" lon="2.2424">
        <ele>128.9</ele>
        <time>2022-10-07T12:26:08Z</time>
      </trkpt>
      <trkpt lat="49.77926" lon="2.2424">
        <ele>128.9</ele>
        <time>2022-10-07T12:26:09Z</time>
      </trkpt>
      <trkpt lat="49.77924" lon="2.24239">
        <ele>128.9</ele>
        <time>2022-10-07T12:26:10Z</time>
      </trkpt>
      <trkpt lat="49.77923" lon="2.24238">
        <ele>128.9</ele>
        <time>2022-10-07T12:26:11Z</time>
      </trkpt>
      <trkpt lat="49.77922" lon="2.24238">
        <ele>128.9</ele>
        <time>2022-10-07T12:26:12Z</time>
      </trkpt>
      <trkpt lat="49.77921" lon="2.24238">
        <ele>128.9</ele>
        <time>2022-10-07T12:26:13Z</time>
      </trkpt>
      <trkpt lat="49.7792" lon="2.24237">
        <ele>129</ele>
        <time>2022-10-07T12:26:14Z</time>
      </trkpt>
      <trkpt lat="49.77919" lon="2.24236">
        <ele>129</ele>
        <time>2022-10-07T12:26:16Z</time>
      </trkpt>
      <trkpt lat="49.77917" lon="2.24236">
        <ele>129</ele>
        <time>2022-10-07T12:26:17Z</time>
      </trkpt>
      <trkpt lat="49.77916" lon="2.24235">
        <ele>129</ele>
        <time>2022-10-07T12:26:18Z</time>
      </trkpt>
      <trkpt lat="49.77915" lon="2.24235">
        <ele>129</ele>
        <time>2022-10-07T12:26:19Z</time>
      </trkpt>
      <trkpt lat="49.77914" lon="2.24234">
        <ele>129</ele>
        <time>2022-10-07T12:26:20Z</time>
      </trkpt>
      <trkpt lat="49.77913" lon="2.24234">
        <ele>129</ele>
        <time>2022-10-07T12:26:21Z</time>
      </trkpt>
      <trkpt lat="49.77912" lon="2.24233">
        <ele>129</ele>
        <time>2022-10-07T12:26:22Z</time>
      </trkpt>
      <trkpt lat="49.7791" lon="2.24232">
        <ele>129</ele>
        <time>2022-10-07T12:26:23Z</time>
      </trkpt>
      <trkpt lat="49.77909" lon="2.24232">
        <ele>129</ele>
        <time>2022-10-07T12:26:24Z</time>
      </trkpt>
      <trkpt lat="49.77908" lon="2.24231">
        <ele>129</ele>
        <time>2022-10-07T12:26:25Z</time>
      </trkpt>
      <trkpt lat="49.77907" lon="2.24231">
        <ele>129</ele>
        <time>2022-10-07T12:26:26Z</time>
      </trkpt>
      <trkpt lat="49.77905" lon="2.2423">
        <ele>129</ele>
        <time>2022-10-07T12:26:28Z</time>
      </trkpt>
      <trkpt lat="49.77904" lon="2.24229">
        <ele>129</ele>
        <time>2022-10-07T12:26:29Z</time>
      </trkpt>
      <trkpt lat="49.77903" lon="2.24229">
        <ele>129</ele>
        <time>2022-10-07T12:26:30Z</time>
      </trkpt>
      <trkpt lat="49.77902" lon="2.24228">
        <ele>129</ele>
        <time>2022-10-07T12:26:31Z</time>
      </trkpt>
      <trkpt lat="49.77901" lon="2.24227">
        <ele>129</ele>
        <time>2022-10-07T12:26:32Z</time>
      </trkpt>
      <trkpt lat="49.77899" lon="2.24226">
        <ele>129</ele>
        <time>2022-10-07T12:26:33Z</time>
      </trkpt>
      <trkpt lat="49.77899" lon="2.24225">
        <ele>129</ele>
        <time>2022-10-07T12:26:34Z</time>
      </trkpt>
      <trkpt lat="49.77898" lon="2.24225">
        <ele>129</ele>
        <time>2022-10-07T12:26:35Z</time>
      </trkpt>
      <trkpt lat="49.77896" lon="2.24224">
        <ele>129</ele>
        <time>2022-10-07T12:26:36Z</time>
      </trkpt>
      <trkpt lat="49.77895" lon="2.24223">
        <ele>129</ele>
        <time>2022-10-07T12:26:37Z</time>
      </trkpt>
      <trkpt lat="49.77894" lon="2.24223">
        <ele>129.1</ele>
        <time>2022-10-07T12:26:38Z</time>
      </trkpt>
      <trkpt lat="49.77893" lon="2.24223">
        <ele>129.1</ele>
        <time>2022-10-07T12:26:40Z</time>
      </trkpt>
      <trkpt lat="49.77892" lon="2.24222">
        <ele>129.1</ele>
        <time>2022-10-07T12:26:41Z</time>
      </trkpt>
      <trkpt lat="49.77891" lon="2.24222">
        <ele>129.1</ele>
        <time>2022-10-07T12:26:42Z</time>
      </trkpt>
      <trkpt lat="49.77889" lon="2.24221">
        <ele>129.1</ele>
        <time>2022-10-07T12:26:43Z</time>
      </trkpt>
      <trkpt lat="49.77889" lon="2.24221">
        <ele>129.1</ele>
        <time>2022-10-07T12:26:44Z</time>
      </trkpt>
      <trkpt lat="49.77888" lon="2.2422">
        <ele>129.1</ele>
        <time>2022-10-07T12:26:45Z</time>
      </trkpt>
      <trkpt lat="49.77885" lon="2.2422">
        <ele>129.1</ele>
        <time>2022-10-07T12:26:46Z</time>
      </trkpt>
      <trkpt lat="49.77885" lon="2.24219">
        <ele>129.1</ele>
        <time>2022-10-07T12:26:47Z</time>
      </trkpt>
      <trkpt lat="49.77884" lon="2.24219">
        <ele>129.1</ele>
        <time>2022-10-07T12:26:48Z</time>
      </trkpt>
      <trkpt lat="49.77882" lon="2.24218">
        <ele>129.1</ele>
        <time>2022-10-07T12:26:49Z</time>
      </trkpt>
      <trkpt lat="49.77881" lon="2.24218">
        <ele>129.2</ele>
        <time>2022-10-07T12:26:50Z</time>
      </trkpt>
      <trkpt lat="49.7788" lon="2.24218">
        <ele>129.2</ele>
        <time>2022-10-07T12:26:52Z</time>
      </trkpt>
      <trkpt lat="49.77878" lon="2.24217">
        <ele>129.2</ele>
        <time>2022-10-07T12:26:53Z</time>
      </trkpt>
      <trkpt lat="49.77878" lon="2.24217">
        <ele>129.2</ele>
        <time>2022-10-07T12:26:54Z</time>
      </trkpt>
      <trkpt lat="49.77877" lon="2.24217">
        <ele>129.2</ele>
        <time>2022-10-07T12:26:55Z</time>
      </trkpt>
      <trkpt lat="49.77875" lon="2.24216">
        <ele>129.2</ele>
        <time>2022-10-07T12:26:56Z</time>
      </trkpt>
      <trkpt lat="49.77874" lon="2.24216">
        <ele>129.2</ele>
        <time>2022-10-07T12:26:57Z</time>
      </trkpt>
      <trkpt lat="49.77873" lon="2.24215">
        <ele>129.2</ele>
        <time>2022-10-07T12:26:58Z</time>
      </trkpt>
      <trkpt lat="49.77871" lon="2.24215">
        <ele>129.3</ele>
        <time>2022-10-07T12:26:59Z</time>
      </trkpt>
      <trkpt lat="49.7787" lon="2.24214">
        <ele>129.3</ele>
        <time>2022-10-07T12:27:00Z</time>
      </trkpt>
      <trkpt lat="49.77869" lon="2.24214">
        <ele>129.3</ele>
        <time>2022-10-07T12:27:01Z</time>
      </trkpt>
      <trkpt lat="49.77868" lon="2.24213">
        <ele>129.3</ele>
        <time>2022-10-07T12:27:03Z</time>
      </trkpt>
      <trkpt lat="49.77867" lon="2.24213">
        <ele>129.3</ele>
        <time>2022-10-07T12:27:04Z</time>
      </trkpt>
      <trkpt lat="49.77866" lon="2.24212">
        <ele>129.3</ele>
        <time>2022-10-07T12:27:05Z</time>
      </trkpt>
      <trkpt lat="49.77865" lon="2.24212">
        <ele>129.3</ele>
        <time>2022-10-07T12:27:06Z</time>
      </trkpt>
      <trkpt lat="49.77864" lon="2.24211">
        <ele>129.4</ele>
        <time>2022-10-07T12:27:07Z</time>
      </trkpt>
      <trkpt lat="49.77862" lon="2.2421">
        <ele>129.4</ele>
        <time>2022-10-07T12:27:08Z</time>
      </trkpt>
      <trkpt lat="49.77861" lon="2.2421">
        <ele>129.4</ele>
        <time>2022-10-07T12:27:09Z</time>
      </trkpt>
      <trkpt lat="49.77859" lon="2.24209">
        <ele>129.4</ele>
        <time>2022-10-07T12:27:10Z</time>
      </trkpt>
      <trkpt lat="49.77858" lon="2.24208">
        <ele>129.4</ele>
        <time>2022-10-07T12:27:11Z</time>
      </trkpt>
      <trkpt lat="49.77857" lon="2.24207">
        <ele>129.4</ele>
        <time>2022-10-07T12:27:12Z</time>
      </trkpt>
      <trkpt lat="49.77855" lon="2.24207">
        <ele>129.5</ele>
        <time>2022-10-07T12:27:14Z</time>
      </trkpt>
      <trkpt lat="49.77854" lon="2.24207">
        <ele>129.5</ele>
        <time>2022-10-07T12:27:15Z</time>
      </trkpt>
      <trkpt lat="49.77853" lon="2.24206">
        <ele>129.5</ele>
        <time>2022-10-07T12:27:16Z</time>
      </trkpt>
      <trkpt lat="49.77852" lon="2.24206">
        <ele>129.5</ele>
        <time>2022-10-07T12:27:17Z</time>
      </trkpt>
      <trkpt lat="49.7785" lon="2.24205">
        <ele>129.5</ele>
        <time>2022-10-07T12:27:18Z</time>
      </trkpt>
      <trkpt lat="49.77849" lon="2.24205">
        <ele>129.5</ele>
        <time>2022-10-07T12:27:20Z</time>
      </trkpt>
      <trkpt lat="49.77848" lon="2.24205">
        <ele>129.6</ele>
        <time>2022-10-07T12:27:21Z</time>
      </trkpt>
      <trkpt lat="49.77846" lon="2.24204">
        <ele>129.6</ele>
        <time>2022-10-07T12:27:22Z</time>
      </trkpt>
      <trkpt lat="49.77845" lon="2.24204">
        <ele>129.6</ele>
        <time>2022-10-07T12:27:23Z</time>
      </trkpt>
      <trkpt lat="49.77844" lon="2.24203">
        <ele>129.6</ele>
        <time>2022-10-07T12:27:24Z</time>
      </trkpt>
      <trkpt lat="49.77844" lon="2.24202">
        <ele>129.6</ele>
        <time>2022-10-07T12:27:25Z</time>
      </trkpt>
      <trkpt lat="49.77842" lon="2.24202">
        <ele>129.6</ele>
        <time>2022-10-07T12:27:26Z</time>
      </trkpt>
      <trkpt lat="49.77841" lon="2.24201">
        <ele>129.7</ele>
        <time>2022-10-07T12:27:27Z</time>
      </trkpt>
      <trkpt lat="49.77839" lon="2.24201">
        <ele>129.7</ele>
        <time>2022-10-07T12:27:28Z</time>
      </trkpt>
      <trkpt lat="49.77838" lon="2.242">
        <ele>129.7</ele>
        <time>2022-10-07T12:27:30Z</time>
      </trkpt>
      <trkpt lat="49.77838" lon="2.242">
        <ele>129.7</ele>
        <time>2022-10-07T12:27:31Z</time>
      </trkpt>
      <trkpt lat="49.77836" lon="2.242">
        <ele>129.7</ele>
        <time>2022-10-07T12:27:32Z</time>
      </trkpt>
      <trkpt lat="49.77835" lon="2.24199">
        <ele>129.7</ele>
        <time>2022-10-07T12:27:33Z</time>
      </trkpt>
      <trkpt lat="49.77834" lon="2.24199">
        <ele>129.7</ele>
        <time>2022-10-07T12:27:34Z</time>
      </trkpt>
      <trkpt lat="49.77833" lon="2.24198">
        <ele>129.7</ele>
        <time>2022-10-07T12:27:36Z</time>
      </trkpt>
      <trkpt lat="49.77832" lon="2.24198">
        <ele>129.8</ele>
        <time>2022-10-07T12:27:37Z</time>
      </trkpt>
      <trkpt lat="49.7783" lon="2.24199">
        <ele>129.8</ele>
        <time>2022-10-07T12:27:39Z</time>
      </trkpt>
      <trkpt lat="49.77829" lon="2.24199">
        <ele>129.8</ele>
        <time>2022-10-07T12:27:40Z</time>
      </trkpt>
      <trkpt lat="49.77828" lon="2.242">
        <ele>129.8</ele>
        <time>2022-10-07T12:27:41Z</time>
      </trkpt>
      <trkpt lat="49.77827" lon="2.242">
        <ele>129.8</ele>
        <time>2022-10-07T12:27:42Z</time>
      </trkpt>
      <trkpt lat="49.77825" lon="2.242">
        <ele>129.8</ele>
        <time>2022-10-07T12:27:43Z</time>
      </trkpt>
      <trkpt lat="49.77823" lon="2.24199">
        <ele>129.8</ele>
        <time>2022-10-07T12:27:44Z</time>
      </trkpt>
      <trkpt lat="49.77823" lon="2.24199">
        <ele>129.8</ele>
        <time>2022-10-07T12:27:45Z</time>
      </trkpt>
      <trkpt lat="49.77822" lon="2.24198">
        <ele>129.8</ele>
        <time>2022-10-07T12:27:46Z</time>
      </trkpt>
      <trkpt lat="49.7782" lon="2.24198">
        <ele>129.8</ele>
        <time>2022-10-07T12:27:47Z</time>
      </trkpt>
      <trkpt lat="49.77819" lon="2.24196">
        <ele>129.8</ele>
        <time>2022-10-07T12:27:48Z</time>
      </trkpt>
      <trkpt lat="49.77818" lon="2.24195">
        <ele>129.8</ele>
        <time>2022-10-07T12:27:50Z</time>
      </trkpt>
      <trkpt lat="49.77816" lon="2.24194">
        <ele>129.9</ele>
        <time>2022-10-07T12:27:51Z</time>
      </trkpt>
      <trkpt lat="49.77814" lon="2.24193">
        <ele>129.9</ele>
        <time>2022-10-07T12:27:52Z</time>
      </trkpt>
      <trkpt lat="49.77813" lon="2.24192">
        <ele>129.9</ele>
        <time>2022-10-07T12:27:53Z</time>
      </trkpt>
      <trkpt lat="49.77813" lon="2.24192">
        <ele>129.9</ele>
        <time>2022-10-07T12:27:54Z</time>
      </trkpt>
      <trkpt lat="49.77812" lon="2.24191">
        <ele>129.9</ele>
        <time>2022-10-07T12:27:55Z</time>
      </trkpt>
      <trkpt lat="49.77811" lon="2.24191">
        <ele>129.9</ele>
        <time>2022-10-07T12:27:56Z</time>
      </trkpt>
      <trkpt lat="49.77809" lon="2.2419">
        <ele>129.9</ele>
        <time>2022-10-07T12:27:57Z</time>
      </trkpt>
      <trkpt lat="49.77808" lon="2.2419">
        <ele>129.9</ele>
        <time>2022-10-07T12:27:58Z</time>
      </trkpt>
      <trkpt lat="49.77807" lon="2.24189">
        <ele>130</ele>
        <time>2022-10-07T12:27:59Z</time>
      </trkpt>
      <trkpt lat="49.77806" lon="2.24189">
        <ele>130</ele>
        <time>2022-10-07T12:28:01Z</time>
      </trkpt>
      <trkpt lat="49.77805" lon="2.24189">
        <ele>130</ele>
        <time>2022-10-07T12:28:02Z</time>
      </trkpt>
      <trkpt lat="49.77804" lon="2.24188">
        <ele>130</ele>
        <time>2022-10-07T12:28:03Z</time>
      </trkpt>
      <trkpt lat="49.77803" lon="2.24188">
        <ele>130</ele>
        <time>2022-10-07T12:28:04Z</time>
      </trkpt>
      <trkpt lat="49.77802" lon="2.24187">
        <ele>130</ele>
        <time>2022-10-07T12:28:05Z</time>
      </trkpt>
      <trkpt lat="49.77801" lon="2.24187">
        <ele>130</ele>
        <time>2022-10-07T12:28:06Z</time>
      </trkpt>
      <trkpt lat="49.778" lon="2.24187">
        <ele>130</ele>
        <time>2022-10-07T12:28:07Z</time>
      </trkpt>
      <trkpt lat="49.77797" lon="2.24186">
        <ele>130</ele>
        <time>2022-10-07T12:28:08Z</time>
      </trkpt>
      <trkpt lat="49.77797" lon="2.24185">
        <ele>130</ele>
        <time>2022-10-07T12:28:09Z</time>
      </trkpt>
      <trkpt lat="49.77796" lon="2.24185">
        <ele>130</ele>
        <time>2022-10-07T12:28:10Z</time>
      </trkpt>
      <trkpt lat="49.77794" lon="2.24184">
        <ele>130.1</ele>
        <time>2022-10-07T12:28:11Z</time>
      </trkpt>
      <trkpt lat="49.77793" lon="2.24183">
        <ele>130.1</ele>
        <time>2022-10-07T12:28:13Z</time>
      </trkpt>
      <trkpt lat="49.77792" lon="2.24183">
        <ele>130.1</ele>
        <time>2022-10-07T12:28:14Z</time>
      </trkpt>
      <trkpt lat="49.77791" lon="2.24182">
        <ele>130.1</ele>
        <time>2022-10-07T12:28:15Z</time>
      </trkpt>
      <trkpt lat="49.7779" lon="2.24182">
        <ele>130.1</ele>
        <time>2022-10-07T12:28:16Z</time>
      </trkpt>
      <trkpt lat="49.77789" lon="2.24182">
        <ele>130.1</ele>
        <time>2022-10-07T12:28:17Z</time>
      </trkpt>
      <trkpt lat="49.77788" lon="2.24181">
        <ele>130.1</ele>
        <time>2022-10-07T12:28:18Z</time>
      </trkpt>
      <trkpt lat="49.77787" lon="2.24181">
        <ele>130.2</ele>
        <time>2022-10-07T12:28:19Z</time>
      </trkpt>
      <trkpt lat="49.77785" lon="2.2418">
        <ele>130.2</ele>
        <time>2022-10-07T12:28:20Z</time>
      </trkpt>
      <trkpt lat="49.77784" lon="2.2418">
        <ele>130.2</ele>
        <time>2022-10-07T12:28:21Z</time>
      </trkpt>
      <trkpt lat="49.77783" lon="2.24179">
        <ele>130.2</ele>
        <time>2022-10-07T12:28:22Z</time>
      </trkpt>
      <trkpt lat="49.77781" lon="2.24179">
        <ele>130.2</ele>
        <time>2022-10-07T12:28:23Z</time>
      </trkpt>
      <trkpt lat="49.7778" lon="2.24178">
        <ele>130.2</ele>
        <time>2022-10-07T12:28:25Z</time>
      </trkpt>
      <trkpt lat="49.77779" lon="2.24178">
        <ele>130.2</ele>
        <time>2022-10-07T12:28:26Z</time>
      </trkpt>
      <trkpt lat="49.77778" lon="2.24177">
        <ele>130.3</ele>
        <time>2022-10-07T12:28:27Z</time>
      </trkpt>
      <trkpt lat="49.77777" lon="2.24176">
        <ele>130.3</ele>
        <time>2022-10-07T12:28:28Z</time>
      </trkpt>
      <trkpt lat="49.77775" lon="2.24176">
        <ele>130.3</ele>
        <time>2022-10-07T12:28:29Z</time>
      </trkpt>
      <trkpt lat="49.77774" lon="2.24175">
        <ele>130.3</ele>
        <time>2022-10-07T12:28:30Z</time>
      </trkpt>
      <trkpt lat="49.77774" lon="2.24175">
        <ele>130.3</ele>
        <time>2022-10-07T12:28:31Z</time>
      </trkpt>
      <trkpt lat="49.77772" lon="2.24174">
        <ele>130.3</ele>
        <time>2022-10-07T12:28:32Z</time>
      </trkpt>
      <trkpt lat="49.77771" lon="2.24173">
        <ele>130.3</ele>
        <time>2022-10-07T12:28:33Z</time>
      </trkpt>
      <trkpt lat="49.7777" lon="2.24173">
        <ele>130.3</ele>
        <time>2022-10-07T12:28:34Z</time>
      </trkpt>
      <trkpt lat="49.77769" lon="2.24172">
        <ele>130.3</ele>
        <time>2022-10-07T12:28:36Z</time>
      </trkpt>
      <trkpt lat="49.77767" lon="2.24172">
        <ele>130.4</ele>
        <time>2022-10-07T12:28:37Z</time>
      </trkpt>
      <trkpt lat="49.77766" lon="2.24171">
        <ele>130.4</ele>
        <time>2022-10-07T12:28:38Z</time>
      </trkpt>
      <trkpt lat="49.77765" lon="2.24171">
        <ele>130.4</ele>
        <time>2022-10-07T12:28:39Z</time>
      </trkpt>
      <trkpt lat="49.77764" lon="2.2417">
        <ele>130.4</ele>
        <time>2022-10-07T12:28:40Z</time>
      </trkpt>
      <trkpt lat="49.77763" lon="2.2417">
        <ele>130.4</ele>
        <time>2022-10-07T12:28:41Z</time>
      </trkpt>
      <trkpt lat="49.77762" lon="2.24169">
        <ele>130.4</ele>
        <time>2022-10-07T12:28:42Z</time>
      </trkpt>
      <trkpt lat="49.7776" lon="2.24169">
        <ele>130.4</ele>
        <time>2022-10-07T12:28:44Z</time>
      </trkpt>
      <trkpt lat="49.77758" lon="2.24168">
        <ele>130.4</ele>
        <time>2022-10-07T12:28:45Z</time>
      </trkpt>
      <trkpt lat="49.77757" lon="2.24168">
        <ele>130.5</ele>
        <time>2022-10-07T12:28:46Z</time>
      </trkpt>
      <trkpt lat="49.77755" lon="2.24167">
        <ele>130.5</ele>
        <time>2022-10-07T12:28:48Z</time>
      </trkpt>
      <trkpt lat="49.77753" lon="2.24167">
        <ele>130.5</ele>
        <time>2022-10-07T12:28:49Z</time>
      </trkpt>
      <trkpt lat="49.77753" lon="2.24167">
        <ele>130.5</ele>
        <time>2022-10-07T12:28:50Z</time>
      </trkpt>
      <trkpt lat="49.77752" lon="2.24167">
        <ele>130.5</ele>
        <time>2022-10-07T12:28:51Z</time>
      </trkpt>
      <trkpt lat="49.77751" lon="2.24166">
        <ele>130.5</ele>
        <time>2022-10-07T12:28:52Z</time>
      </trkpt>
      <trkpt lat="49.77749" lon="2.24166">
        <ele>130.6</ele>
        <time>2022-10-07T12:28:53Z</time>
      </trkpt>
      <trkpt lat="49.77747" lon="2.24165">
        <ele>130.6</ele>
        <time>2022-10-07T12:28:54Z</time>
      </trkpt>
      <trkpt lat="49.77746" lon="2.24165">
        <ele>130.6</ele>
        <time>2022-10-07T12:28:55Z</time>
      </trkpt>
      <trkpt lat="49.77746" lon="2.24164">
        <ele>130.6</ele>
        <time>2022-10-07T12:28:56Z</time>
      </trkpt>
      <trkpt lat="49.77744" lon="2.24164">
        <ele>130.6</ele>
        <time>2022-10-07T12:28:57Z</time>
      </trkpt>
      <trkpt lat="49.77743" lon="2.24164">
        <ele>130.6</ele>
        <time>2022-10-07T12:28:58Z</time>
      </trkpt>
      <trkpt lat="49.77742" lon="2.24163">
        <ele>130.7</ele>
        <time>2022-10-07T12:29:00Z</time>
      </trkpt>
      <trkpt lat="49.7774" lon="2.24163">
        <ele>130.7</ele>
        <time>2022-10-07T12:29:01Z</time>
      </trkpt>
      <trkpt lat="49.7774" lon="2.24163">
        <ele>130.7</ele>
        <time>2022-10-07T12:29:02Z</time>
      </trkpt>
      <trkpt lat="49.77739" lon="2.24162">
        <ele>130.7</ele>
        <time>2022-10-07T12:29:03Z</time>
      </trkpt>
      <trkpt lat="49.77737" lon="2.24162">
        <ele>130.7</ele>
        <time>2022-10-07T12:29:04Z</time>
      </trkpt>
      <trkpt lat="49.77736" lon="2.24162">
        <ele>130.7</ele>
        <time>2022-10-07T12:29:05Z</time>
      </trkpt>
      <trkpt lat="49.77735" lon="2.24161">
        <ele>130.7</ele>
        <time>2022-10-07T12:29:06Z</time>
      </trkpt>
      <trkpt lat="49.77734" lon="2.24161">
        <ele>130.8</ele>
        <time>2022-10-07T12:29:07Z</time>
      </trkpt>
      <trkpt lat="49.77733" lon="2.24161">
        <ele>130.8</ele>
        <time>2022-10-07T12:29:08Z</time>
      </trkpt>
      <trkpt lat="49.77732" lon="2.2416">
        <ele>130.8</ele>
        <time>2022-10-07T12:29:09Z</time>
      </trkpt>
      <trkpt lat="49.77731" lon="2.2416">
        <ele>130.8</ele>
        <time>2022-10-07T12:29:10Z</time>
      </trkpt>
      <trkpt lat="49.7773" lon="2.24159">
        <ele>130.8</ele>
        <time>2022-10-07T12:29:12Z</time>
      </trkpt>
      <trkpt lat="49.77729" lon="2.24159">
        <ele>130.8</ele>
        <time>2022-10-07T12:29:13Z</time>
      </trkpt>
      <trkpt lat="49.77727" lon="2.24159">
        <ele>130.8</ele>
        <time>2022-10-07T12:29:14Z</time>
      </trkpt>
      <trkpt lat="49.77727" lon="2.24158">
        <ele>130.8</ele>
        <time>2022-10-07T12:29:15Z</time>
      </trkpt>
      <trkpt lat="49.77726" lon="2.24158">
        <ele>130.8</ele>
        <time>2022-10-07T12:29:16Z</time>
      </trkpt>
      <trkpt lat="49.77725" lon="2.24158">
        <ele>130.9</ele>
        <time>2022-10-07T12:29:17Z</time>
      </trkpt>
      <trkpt lat="49.77724" lon="2.24157">
        <ele>130.9</ele>
        <time>2022-10-07T12:29:18Z</time>
      </trkpt>
      <trkpt lat="49.77721" lon="2.24156">
        <ele>130.9</ele>
        <time>2022-10-07T12:29:19Z</time>
      </trkpt>
      <trkpt lat="49.77721" lon="2.24156">
        <ele>130.9</ele>
        <time>2022-10-07T12:29:20Z</time>
      </trkpt>
      <trkpt lat="49.77719" lon="2.24155">
        <ele>130.9</ele>
        <time>2022-10-07T12:29:22Z</time>
      </trkpt>
      <trkpt lat="49.77718" lon="2.24154">
        <ele>130.9</ele>
        <time>2022-10-07T12:29:23Z</time>
      </trkpt>
      <trkpt lat="49.77717" lon="2.24154">
        <ele>130.9</ele>
        <time>2022-10-07T12:29:24Z</time>
      </trkpt>
      <trkpt lat="49.77717" lon="2.24153">
        <ele>130.9</ele>
        <time>2022-10-07T12:29:25Z</time>
      </trkpt>
      <trkpt lat="49.77716" lon="2.24152">
        <ele>131</ele>
        <time>2022-10-07T12:29:26Z</time>
      </trkpt>
      <trkpt lat="49.77715" lon="2.24152">
        <ele>131</ele>
        <time>2022-10-07T12:29:27Z</time>
      </trkpt>
      <trkpt lat="49.77714" lon="2.24151">
        <ele>131</ele>
        <time>2022-10-07T12:29:28Z</time>
      </trkpt>
      <trkpt lat="49.77712" lon="2.2415">
        <ele>131</ele>
        <time>2022-10-07T12:29:29Z</time>
      </trkpt>
      <trkpt lat="49.77711" lon="2.2415">
        <ele>131</ele>
        <time>2022-10-07T12:29:30Z</time>
      </trkpt>
      <trkpt lat="49.7771" lon="2.24149">
        <ele>131</ele>
        <time>2022-10-07T12:29:31Z</time>
      </trkpt>
      <trkpt lat="49.77708" lon="2.24149">
        <ele>131</ele>
        <time>2022-10-07T12:29:33Z</time>
      </trkpt>
      <trkpt lat="49.77707" lon="2.24148">
        <ele>131.1</ele>
        <time>2022-10-07T12:29:34Z</time>
      </trkpt>
      <trkpt lat="49.77706" lon="2.24147">
        <ele>131.1</ele>
        <time>2022-10-07T12:29:35Z</time>
      </trkpt>
      <trkpt lat="49.77705" lon="2.24147">
        <ele>131.1</ele>
        <time>2022-10-07T12:29:36Z</time>
      </trkpt>
      <trkpt lat="49.77703" lon="2.24146">
        <ele>131.1</ele>
        <time>2022-10-07T12:29:37Z</time>
      </trkpt>
      <trkpt lat="49.77702" lon="2.24145">
        <ele>131.1</ele>
        <time>2022-10-07T12:29:38Z</time>
      </trkpt>
      <trkpt lat="49.77701" lon="2.24145">
        <ele>131.1</ele>
        <time>2022-10-07T12:29:39Z</time>
      </trkpt>
      <trkpt lat="49.77699" lon="2.24144">
        <ele>131.2</ele>
        <time>2022-10-07T12:29:41Z</time>
      </trkpt>
      <trkpt lat="49.77698" lon="2.24143">
        <ele>131.2</ele>
        <time>2022-10-07T12:29:42Z</time>
      </trkpt>
      <trkpt lat="49.77698" lon="2.24143">
        <ele>131.2</ele>
        <time>2022-10-07T12:29:43Z</time>
      </trkpt>
      <trkpt lat="49.77696" lon="2.24142">
        <ele>131.2</ele>
        <time>2022-10-07T12:29:44Z</time>
      </trkpt>
      <trkpt lat="49.77695" lon="2.24142">
        <ele>131.2</ele>
        <time>2022-10-07T12:29:45Z</time>
      </trkpt>
      <trkpt lat="49.77693" lon="2.24141">
        <ele>131.3</ele>
        <time>2022-10-07T12:29:46Z</time>
      </trkpt>
      <trkpt lat="49.77692" lon="2.24141">
        <ele>131.3</ele>
        <time>2022-10-07T12:29:47Z</time>
      </trkpt>
      <trkpt lat="49.77691" lon="2.2414">
        <ele>131.3</ele>
        <time>2022-10-07T12:29:48Z</time>
      </trkpt>
      <trkpt lat="49.7769" lon="2.2414">
        <ele>131.3</ele>
        <time>2022-10-07T12:29:50Z</time>
      </trkpt>
      <trkpt lat="49.77689" lon="2.24139">
        <ele>131.3</ele>
        <time>2022-10-07T12:29:51Z</time>
      </trkpt>
      <trkpt lat="49.77688" lon="2.24139">
        <ele>131.3</ele>
        <time>2022-10-07T12:29:52Z</time>
      </trkpt>
      <trkpt lat="49.77686" lon="2.24138">
        <ele>131.4</ele>
        <time>2022-10-07T12:29:53Z</time>
      </trkpt>
      <trkpt lat="49.77685" lon="2.24137">
        <ele>131.4</ele>
        <time>2022-10-07T12:29:54Z</time>
      </trkpt>
      <trkpt lat="49.77684" lon="2.24137">
        <ele>131.4</ele>
        <time>2022-10-07T12:29:55Z</time>
      </trkpt>
      <trkpt lat="49.77682" lon="2.24136">
        <ele>131.4</ele>
        <time>2022-10-07T12:29:57Z</time>
      </trkpt>
      <trkpt lat="49.77681" lon="2.24135">
        <ele>131.4</ele>
        <time>2022-10-07T12:29:58Z</time>
      </trkpt>
      <trkpt lat="49.7768" lon="2.24135">
        <ele>131.4</ele>
        <time>2022-10-07T12:29:59Z</time>
      </trkpt>
      <trkpt lat="49.77679" lon="2.24135">
        <ele>131.5</ele>
        <time>2022-10-07T12:30:00Z</time>
      </trkpt>
      <trkpt lat="49.77678" lon="2.24134">
        <ele>131.5</ele>
        <time>2022-10-07T12:30:01Z</time>
      </trkpt>
      <trkpt lat="49.77677" lon="2.24134">
        <ele>131.5</ele>
        <time>2022-10-07T12:30:02Z</time>
      </trkpt>
      <trkpt lat="49.77676" lon="2.24133">
        <ele>131.5</ele>
        <time>2022-10-07T12:30:03Z</time>
      </trkpt>
      <trkpt lat="49.77674" lon="2.24132">
        <ele>131.5</ele>
        <time>2022-10-07T12:30:04Z</time>
      </trkpt>
      <trkpt lat="49.77673" lon="2.24132">
        <ele>131.5</ele>
        <time>2022-10-07T12:30:06Z</time>
      </trkpt>
      <trkpt lat="49.77672" lon="2.24131">
        <ele>131.6</ele>
        <time>2022-10-07T12:30:07Z</time>
      </trkpt>
      <trkpt lat="49.77671" lon="2.24131">
        <ele>131.6</ele>
        <time>2022-10-07T12:30:08Z</time>
      </trkpt>
      <trkpt lat="49.77669" lon="2.24131">
        <ele>131.6</ele>
        <time>2022-10-07T12:30:09Z</time>
      </trkpt>
      <trkpt lat="49.77668" lon="2.2413">
        <ele>131.6</ele>
        <time>2022-10-07T12:30:10Z</time>
      </trkpt>
      <trkpt lat="49.77668" lon="2.2413">
        <ele>131.6</ele>
        <time>2022-10-07T12:30:11Z</time>
      </trkpt>
      <trkpt lat="49.77665" lon="2.24129">
        <ele>131.7</ele>
        <time>2022-10-07T12:30:12Z</time>
      </trkpt>
      <trkpt lat="49.77664" lon="2.24129">
        <ele>131.7</ele>
        <time>2022-10-07T12:30:13Z</time>
      </trkpt>
      <trkpt lat="49.77664" lon="2.24129">
        <ele>131.7</ele>
        <time>2022-10-07T12:30:14Z</time>
      </trkpt>
      <trkpt lat="49.77662" lon="2.24129">
        <ele>131.7</ele>
        <time>2022-10-07T12:30:15Z</time>
      </trkpt>
      <trkpt lat="49.77661" lon="2.24128">
        <ele>131.7</ele>
        <time>2022-10-07T12:30:16Z</time>
      </trkpt>
      <trkpt lat="49.7766" lon="2.24128">
        <ele>131.7</ele>
        <time>2022-10-07T12:30:18Z</time>
      </trkpt>
      <trkpt lat="49.77658" lon="2.24127">
        <ele>131.8</ele>
        <time>2022-10-07T12:30:19Z</time>
      </trkpt>
      <trkpt lat="49.77657" lon="2.24127">
        <ele>131.8</ele>
        <time>2022-10-07T12:30:20Z</time>
      </trkpt>
      <trkpt lat="49.77657" lon="2.24126">
        <ele>131.8</ele>
        <time>2022-10-07T12:30:21Z</time>
      </trkpt>
      <trkpt lat="49.77655" lon="2.24125">
        <ele>131.8</ele>
        <time>2022-10-07T12:30:22Z</time>
      </trkpt>
      <trkpt lat="49.77654" lon="2.24125">
        <ele>131.8</ele>
        <time>2022-10-07T12:30:23Z</time>
      </trkpt>
      <trkpt lat="49.77653" lon="2.24124">
        <ele>131.8</ele>
        <time>2022-10-07T12:30:24Z</time>
      </trkpt>
      <trkpt lat="49.77651" lon="2.24124">
        <ele>131.9</ele>
        <time>2022-10-07T12:30:25Z</time>
      </trkpt>
      <trkpt lat="49.7765" lon="2.24123">
        <ele>131.9</ele>
        <time>2022-10-07T12:30:26Z</time>
      </trkpt>
      <trkpt lat="49.77649" lon="2.24123">
        <ele>131.9</ele>
        <time>2022-10-07T12:30:27Z</time>
      </trkpt>
      <trkpt lat="49.77648" lon="2.24122">
        <ele>131.9</ele>
        <time>2022-10-07T12:30:28Z</time>
      </trkpt>
      <trkpt lat="49.77647" lon="2.24122">
        <ele>131.9</ele>
        <time>2022-10-07T12:30:30Z</time>
      </trkpt>
      <trkpt lat="49.77646" lon="2.24121">
        <ele>132</ele>
        <time>2022-10-07T12:30:31Z</time>
      </trkpt>
      <trkpt lat="49.77644" lon="2.24121">
        <ele>132</ele>
        <time>2022-10-07T12:30:32Z</time>
      </trkpt>
      <trkpt lat="49.77643" lon="2.24121">
        <ele>132</ele>
        <time>2022-10-07T12:30:33Z</time>
      </trkpt>
      <trkpt lat="49.77641" lon="2.2412">
        <ele>132.1</ele>
        <time>2022-10-07T12:30:34Z</time>
      </trkpt>
      <trkpt lat="49.7764" lon="2.2412">
        <ele>132.1</ele>
        <time>2022-10-07T12:30:35Z</time>
      </trkpt>
      <trkpt lat="49.7764" lon="2.2412">
        <ele>132.1</ele>
        <time>2022-10-07T12:30:36Z</time>
      </trkpt>
      <trkpt lat="49.77637" lon="2.24119">
        <ele>132.1</ele>
        <time>2022-10-07T12:30:37Z</time>
      </trkpt>
      <trkpt lat="49.77636" lon="2.24118">
        <ele>132.2</ele>
        <time>2022-10-07T12:30:39Z</time>
      </trkpt>
      <trkpt lat="49.77635" lon="2.24118">
        <ele>132.2</ele>
        <time>2022-10-07T12:30:40Z</time>
      </trkpt>
      <trkpt lat="49.77634" lon="2.24118">
        <ele>132.2</ele>
        <time>2022-10-07T12:30:41Z</time>
      </trkpt>
      <trkpt lat="49.77633" lon="2.24117">
        <ele>132.2</ele>
        <time>2022-10-07T12:30:42Z</time>
      </trkpt>
      <trkpt lat="49.77632" lon="2.24117">
        <ele>132.2</ele>
        <time>2022-10-07T12:30:43Z</time>
      </trkpt>
      <trkpt lat="49.7763" lon="2.24116">
        <ele>132.3</ele>
        <time>2022-10-07T12:30:44Z</time>
      </trkpt>
      <trkpt lat="49.77629" lon="2.24116">
        <ele>132.3</ele>
        <time>2022-10-07T12:30:45Z</time>
      </trkpt>
      <trkpt lat="49.77628" lon="2.24115">
        <ele>132.3</ele>
        <time>2022-10-07T12:30:46Z</time>
      </trkpt>
      <trkpt lat="49.77627" lon="2.24114">
        <ele>132.3</ele>
        <time>2022-10-07T12:30:47Z</time>
      </trkpt>
      <trkpt lat="49.77625" lon="2.24113">
        <ele>132.4</ele>
        <time>2022-10-07T12:30:49Z</time>
      </trkpt>
      <trkpt lat="49.77624" lon="2.24113">
        <ele>132.4</ele>
        <time>2022-10-07T12:30:50Z</time>
      </trkpt>
      <trkpt lat="49.77623" lon="2.24113">
        <ele>132.4</ele>
        <time>2022-10-07T12:30:51Z</time>
      </trkpt>
      <trkpt lat="49.77622" lon="2.24113">
        <ele>132.4</ele>
        <time>2022-10-07T12:30:52Z</time>
      </trkpt>
      <trkpt lat="49.77621" lon="2.24113">
        <ele>132.5</ele>
        <time>2022-10-07T12:30:53Z</time>
      </trkpt>
      <trkpt lat="49.77619" lon="2.24112">
        <ele>132.5</ele>
        <time>2022-10-07T12:30:55Z</time>
      </trkpt>
      <trkpt lat="49.77618" lon="2.24112">
        <ele>132.5</ele>
        <time>2022-10-07T12:30:56Z</time>
      </trkpt>
      <trkpt lat="49.77617" lon="2.24112">
        <ele>132.5</ele>
        <time>2022-10-07T12:30:57Z</time>
      </trkpt>
      <trkpt lat="49.77616" lon="2.24112">
        <ele>132.6</ele>
        <time>2022-10-07T12:30:58Z</time>
      </trkpt>
      <trkpt lat="49.77615" lon="2.24111">
        <ele>132.6</ele>
        <time>2022-10-07T12:30:59Z</time>
      </trkpt>
      <trkpt lat="49.77613" lon="2.24111">
        <ele>132.6</ele>
        <time>2022-10-07T12:31:00Z</time>
      </trkpt>
      <trkpt lat="49.77612" lon="2.24111">
        <ele>132.7</ele>
        <time>2022-10-07T12:31:01Z</time>
      </trkpt>
      <trkpt lat="49.77611" lon="2.2411">
        <ele>132.7</ele>
        <time>2022-10-07T12:31:02Z</time>
      </trkpt>
      <trkpt lat="49.7761" lon="2.2411">
        <ele>132.7</ele>
        <time>2022-10-07T12:31:03Z</time>
      </trkpt>
      <trkpt lat="49.77608" lon="2.24109">
        <ele>132.8</ele>
        <time>2022-10-07T12:31:04Z</time>
      </trkpt>
      <trkpt lat="49.77607" lon="2.24109">
        <ele>132.8</ele>
        <time>2022-10-07T12:31:06Z</time>
      </trkpt>
      <trkpt lat="49.77606" lon="2.24109">
        <ele>132.8</ele>
        <time>2022-10-07T12:31:07Z</time>
      </trkpt>
      <trkpt lat="49.77605" lon="2.24109">
        <ele>132.8</ele>
        <time>2022-10-07T12:31:08Z</time>
      </trkpt>
      <trkpt lat="49.77604" lon="2.24108">
        <ele>132.9</ele>
        <time>2022-10-07T12:31:09Z</time>
      </trkpt>
      <trkpt lat="49.77603" lon="2.24108">
        <ele>132.9</ele>
        <time>2022-10-07T12:31:10Z</time>
      </trkpt>
      <trkpt lat="49.77602" lon="2.24108">
        <ele>132.9</ele>
        <time>2022-10-07T12:31:11Z</time>
      </trkpt>
      <trkpt lat="49.776" lon="2.24107">
        <ele>132.9</ele>
        <time>2022-10-07T12:31:13Z</time>
      </trkpt>
      <trkpt lat="49.77599" lon="2.24107">
        <ele>133</ele>
        <time>2022-10-07T12:31:14Z</time>
      </trkpt>
      <trkpt lat="49.77597" lon="2.24106">
        <ele>133</ele>
        <time>2022-10-07T12:31:15Z</time>
      </trkpt>
      <trkpt lat="49.77596" lon="2.24106">
        <ele>133</ele>
        <time>2022-10-07T12:31:16Z</time>
      </trkpt>
      <trkpt lat="49.77595" lon="2.24105">
        <ele>133.1</ele>
        <time>2022-10-07T12:31:17Z</time>
      </trkpt>
      <trkpt lat="49.77594" lon="2.24105">
        <ele>133.1</ele>
        <time>2022-10-07T12:31:18Z</time>
      </trkpt>
      <trkpt lat="49.77592" lon="2.24104">
        <ele>133.1</ele>
        <time>2022-10-07T12:31:19Z</time>
      </trkpt>
      <trkpt lat="49.77591" lon="2.24104">
        <ele>133.1</ele>
        <time>2022-10-07T12:31:20Z</time>
      </trkpt>
      <trkpt lat="49.77591" lon="2.24104">
        <ele>133.2</ele>
        <time>2022-10-07T12:31:21Z</time>
      </trkpt>
      <trkpt lat="49.7759" lon="2.24104">
        <ele>133.2</ele>
        <time>2022-10-07T12:31:23Z</time>
      </trkpt>
      <trkpt lat="49.77588" lon="2.24103">
        <ele>133.2</ele>
        <time>2022-10-07T12:31:24Z</time>
      </trkpt>
      <trkpt lat="49.77587" lon="2.24103">
        <ele>133.2</ele>
        <time>2022-10-07T12:31:25Z</time>
      </trkpt>
      <trkpt lat="49.77586" lon="2.24102">
        <ele>133.3</ele>
        <time>2022-10-07T12:31:26Z</time>
      </trkpt>
      <trkpt lat="49.77585" lon="2.24102">
        <ele>133.3</ele>
        <time>2022-10-07T12:31:27Z</time>
      </trkpt>
      <trkpt lat="49.77584" lon="2.24102">
        <ele>133.3</ele>
        <time>2022-10-07T12:31:28Z</time>
      </trkpt>
      <trkpt lat="49.77582" lon="2.241">
        <ele>133.4</ele>
        <time>2022-10-07T12:31:29Z</time>
      </trkpt>
      <trkpt lat="49.77581" lon="2.241">
        <ele>133.4</ele>
        <time>2022-10-07T12:31:30Z</time>
      </trkpt>
      <trkpt lat="49.7758" lon="2.241">
        <ele>133.4</ele>
        <time>2022-10-07T12:31:31Z</time>
      </trkpt>
      <trkpt lat="49.77578" lon="2.24099">
        <ele>133.4</ele>
        <time>2022-10-07T12:31:32Z</time>
      </trkpt>
      <trkpt lat="49.77577" lon="2.24099">
        <ele>133.4</ele>
        <time>2022-10-07T12:31:34Z</time>
      </trkpt>
      <trkpt lat="49.77576" lon="2.24098">
        <ele>133.5</ele>
        <time>2022-10-07T12:31:35Z</time>
      </trkpt>
      <trkpt lat="49.77575" lon="2.24097">
        <ele>133.5</ele>
        <time>2022-10-07T12:31:36Z</time>
      </trkpt>
      <trkpt lat="49.77574" lon="2.24097">
        <ele>133.5</ele>
        <time>2022-10-07T12:31:37Z</time>
      </trkpt>
      <trkpt lat="49.77573" lon="2.24096">
        <ele>133.5</ele>
        <time>2022-10-07T12:31:38Z</time>
      </trkpt>
      <trkpt lat="49.77571" lon="2.24095">
        <ele>133.6</ele>
        <time>2022-10-07T12:31:39Z</time>
      </trkpt>
      <trkpt lat="49.7757" lon="2.24094">
        <ele>133.6</ele>
        <time>2022-10-07T12:31:40Z</time>
      </trkpt>
      <trkpt lat="49.77569" lon="2.24093">
        <ele>133.6</ele>
        <time>2022-10-07T12:31:41Z</time>
      </trkpt>
      <trkpt lat="49.77568" lon="2.24092">
        <ele>133.7</ele>
        <time>2022-10-07T12:31:42Z</time>
      </trkpt>
      <trkpt lat="49.77567" lon="2.24091">
        <ele>133.7</ele>
        <time>2022-10-07T12:31:44Z</time>
      </trkpt>
      <trkpt lat="49.77566" lon="2.2409">
        <ele>133.7</ele>
        <time>2022-10-07T12:31:45Z</time>
      </trkpt>
      <trkpt lat="49.77564" lon="2.24089">
        <ele>133.7</ele>
        <time>2022-10-07T12:31:46Z</time>
      </trkpt>
      <trkpt lat="49.77563" lon="2.24089">
        <ele>133.8</ele>
        <time>2022-10-07T12:31:47Z</time>
      </trkpt>
      <trkpt lat="49.77562" lon="2.24088">
        <ele>133.8</ele>
        <time>2022-10-07T12:31:48Z</time>
      </trkpt>
      <trkpt lat="49.77561" lon="2.24088">
        <ele>133.8</ele>
        <time>2022-10-07T12:31:49Z</time>
      </trkpt>
      <trkpt lat="49.77559" lon="2.24087">
        <ele>133.9</ele>
        <time>2022-10-07T12:31:50Z</time>
      </trkpt>
      <trkpt lat="49.77558" lon="2.24087">
        <ele>133.9</ele>
        <time>2022-10-07T12:31:51Z</time>
      </trkpt>
      <trkpt lat="49.77558" lon="2.24086">
        <ele>133.9</ele>
        <time>2022-10-07T12:31:52Z</time>
      </trkpt>
      <trkpt lat="49.77556" lon="2.24086">
        <ele>133.9</ele>
        <time>2022-10-07T12:31:53Z</time>
      </trkpt>
      <trkpt lat="49.77555" lon="2.24085">
        <ele>133.9</ele>
        <time>2022-10-07T12:31:55Z</time>
      </trkpt>
      <trkpt lat="49.77554" lon="2.24084">
        <ele>133.9</ele>
        <time>2022-10-07T12:31:56Z</time>
      </trkpt>
      <trkpt lat="49.77553" lon="2.24084">
        <ele>133.9</ele>
        <time>2022-10-07T12:31:57Z</time>
      </trkpt>
      <trkpt lat="49.77552" lon="2.24083">
        <ele>134</ele>
        <time>2022-10-07T12:31:58Z</time>
      </trkpt>
      <trkpt lat="49.77551" lon="2.24083">
        <ele>134</ele>
        <time>2022-10-07T12:31:59Z</time>
      </trkpt>
      <trkpt lat="49.77549" lon="2.24083">
        <ele>134</ele>
        <time>2022-10-07T12:32:00Z</time>
      </trkpt>
      <trkpt lat="49.77548" lon="2.24082">
        <ele>134</ele>
        <time>2022-10-07T12:32:01Z</time>
      </trkpt>
      <trkpt lat="49.77547" lon="2.24082">
        <ele>134</ele>
        <time>2022-10-07T12:32:02Z</time>
      </trkpt>
      <trkpt lat="49.77545" lon="2.24082">
        <ele>134.1</ele>
        <time>2022-10-07T12:32:03Z</time>
      </trkpt>
      <trkpt lat="49.77544" lon="2.24081">
        <ele>134.1</ele>
        <time>2022-10-07T12:32:04Z</time>
      </trkpt>
      <trkpt lat="49.77543" lon="2.24081">
        <ele>134.1</ele>
        <time>2022-10-07T12:32:06Z</time>
      </trkpt>
      <trkpt lat="49.77542" lon="2.24081">
        <ele>134.1</ele>
        <time>2022-10-07T12:32:07Z</time>
      </trkpt>
      <trkpt lat="49.7754" lon="2.2408">
        <ele>134.1</ele>
        <time>2022-10-07T12:32:08Z</time>
      </trkpt>
      <trkpt lat="49.77539" lon="2.2408">
        <ele>134.1</ele>
        <time>2022-10-07T12:32:09Z</time>
      </trkpt>
      <trkpt lat="49.77538" lon="2.24079">
        <ele>134.1</ele>
        <time>2022-10-07T12:32:10Z</time>
      </trkpt>
      <trkpt lat="49.77538" lon="2.24079">
        <ele>134.1</ele>
        <time>2022-10-07T12:32:11Z</time>
      </trkpt>
      <trkpt lat="49.77536" lon="2.24078">
        <ele>134.2</ele>
        <time>2022-10-07T12:32:12Z</time>
      </trkpt>
      <trkpt lat="49.77535" lon="2.24078">
        <ele>134.2</ele>
        <time>2022-10-07T12:32:13Z</time>
      </trkpt>
      <trkpt lat="49.77534" lon="2.24077">
        <ele>134.2</ele>
        <time>2022-10-07T12:32:14Z</time>
      </trkpt>
      <trkpt lat="49.77533" lon="2.24076">
        <ele>134.2</ele>
        <time>2022-10-07T12:32:15Z</time>
      </trkpt>
      <trkpt lat="49.77532" lon="2.24076">
        <ele>134.2</ele>
        <time>2022-10-07T12:32:16Z</time>
      </trkpt>
      <trkpt lat="49.77531" lon="2.24076">
        <ele>134.2</ele>
        <time>2022-10-07T12:32:17Z</time>
      </trkpt>
      <trkpt lat="49.7753" lon="2.24075">
        <ele>134.2</ele>
        <time>2022-10-07T12:32:19Z</time>
      </trkpt>
      <trkpt lat="49.77528" lon="2.24075">
        <ele>134.2</ele>
        <time>2022-10-07T12:32:20Z</time>
      </trkpt>
      <trkpt lat="49.77527" lon="2.24074">
        <ele>134.2</ele>
        <time>2022-10-07T12:32:21Z</time>
      </trkpt>
      <trkpt lat="49.77526" lon="2.24074">
        <ele>134.3</ele>
        <time>2022-10-07T12:32:22Z</time>
      </trkpt>
      <trkpt lat="49.77525" lon="2.24074">
        <ele>134.3</ele>
        <time>2022-10-07T12:32:23Z</time>
      </trkpt>
      <trkpt lat="49.77524" lon="2.24073">
        <ele>134.3</ele>
        <time>2022-10-07T12:32:24Z</time>
      </trkpt>
      <trkpt lat="49.77522" lon="2.24073">
        <ele>134.3</ele>
        <time>2022-10-07T12:32:26Z</time>
      </trkpt>
      <trkpt lat="49.7752" lon="2.24073">
        <ele>134.3</ele>
        <time>2022-10-07T12:32:27Z</time>
      </trkpt>
      <trkpt lat="49.77519" lon="2.24072">
        <ele>134.3</ele>
        <time>2022-10-07T12:32:28Z</time>
      </trkpt>
      <trkpt lat="49.77518" lon="2.24072">
        <ele>134.3</ele>
        <time>2022-10-07T12:32:29Z</time>
      </trkpt>
      <trkpt lat="49.77517" lon="2.24071">
        <ele>134.4</ele>
        <time>2022-10-07T12:32:30Z</time>
      </trkpt>
      <trkpt lat="49.77516" lon="2.24071">
        <ele>134.4</ele>
        <time>2022-10-07T12:32:31Z</time>
      </trkpt>
      <trkpt lat="49.77514" lon="2.2407">
        <ele>134.4</ele>
        <time>2022-10-07T12:32:33Z</time>
      </trkpt>
      <trkpt lat="49.77513" lon="2.24069">
        <ele>134.4</ele>
        <time>2022-10-07T12:32:34Z</time>
      </trkpt>
      <trkpt lat="49.77511" lon="2.24068">
        <ele>134.5</ele>
        <time>2022-10-07T12:32:35Z</time>
      </trkpt>
      <trkpt lat="49.77511" lon="2.24068">
        <ele>134.5</ele>
        <time>2022-10-07T12:32:36Z</time>
      </trkpt>
      <trkpt lat="49.77509" lon="2.24067">
        <ele>134.5</ele>
        <time>2022-10-07T12:32:37Z</time>
      </trkpt>
      <trkpt lat="49.77508" lon="2.24067">
        <ele>134.5</ele>
        <time>2022-10-07T12:32:38Z</time>
      </trkpt>
      <trkpt lat="49.77507" lon="2.24066">
        <ele>134.5</ele>
        <time>2022-10-07T12:32:39Z</time>
      </trkpt>
      <trkpt lat="49.77505" lon="2.24065">
        <ele>134.5</ele>
        <time>2022-10-07T12:32:40Z</time>
      </trkpt>
      <trkpt lat="49.77505" lon="2.24065">
        <ele>134.6</ele>
        <time>2022-10-07T12:32:42Z</time>
      </trkpt>
      <trkpt lat="49.77503" lon="2.24064">
        <ele>134.6</ele>
        <time>2022-10-07T12:32:43Z</time>
      </trkpt>
      <trkpt lat="49.77501" lon="2.24064">
        <ele>134.6</ele>
        <time>2022-10-07T12:32:45Z</time>
      </trkpt>
      <trkpt lat="49.775" lon="2.24063">
        <ele>134.6</ele>
        <time>2022-10-07T12:32:46Z</time>
      </trkpt>
      <trkpt lat="49.77499" lon="2.24063">
        <ele>134.6</ele>
        <time>2022-10-07T12:32:47Z</time>
      </trkpt>
      <trkpt lat="49.77498" lon="2.24063">
        <ele>134.7</ele>
        <time>2022-10-07T12:32:48Z</time>
      </trkpt>
      <trkpt lat="49.77497" lon="2.24062">
        <ele>134.7</ele>
        <time>2022-10-07T12:32:49Z</time>
      </trkpt>
      <trkpt lat="49.77495" lon="2.24062">
        <ele>134.7</ele>
        <time>2022-10-07T12:32:50Z</time>
      </trkpt>
      <trkpt lat="49.77494" lon="2.24062">
        <ele>134.7</ele>
        <time>2022-10-07T12:32:51Z</time>
      </trkpt>
      <trkpt lat="49.77493" lon="2.24061">
        <ele>134.7</ele>
        <time>2022-10-07T12:32:52Z</time>
      </trkpt>
      <trkpt lat="49.77491" lon="2.24061">
        <ele>134.8</ele>
        <time>2022-10-07T12:32:54Z</time>
      </trkpt>
      <trkpt lat="49.77489" lon="2.24061">
        <ele>134.8</ele>
        <time>2022-10-07T12:32:55Z</time>
      </trkpt>
      <trkpt lat="49.77488" lon="2.2406">
        <ele>134.8</ele>
        <time>2022-10-07T12:32:56Z</time>
      </trkpt>
      <trkpt lat="49.77487" lon="2.2406">
        <ele>134.8</ele>
        <time>2022-10-07T12:32:58Z</time>
      </trkpt>
      <trkpt lat="49.77486" lon="2.24059">
        <ele>134.8</ele>
        <time>2022-10-07T12:32:59Z</time>
      </trkpt>
      <trkpt lat="49.77484" lon="2.24058">
        <ele>134.9</ele>
        <time>2022-10-07T12:33:00Z</time>
      </trkpt>
      <trkpt lat="49.77484" lon="2.24058">
        <ele>134.9</ele>
        <time>2022-10-07T12:33:01Z</time>
      </trkpt>
      <trkpt lat="49.77482" lon="2.24057">
        <ele>134.9</ele>
        <time>2022-10-07T12:33:02Z</time>
      </trkpt>
      <trkpt lat="49.77481" lon="2.24057">
        <ele>134.9</ele>
        <time>2022-10-07T12:33:03Z</time>
      </trkpt>
      <trkpt lat="49.7748" lon="2.24056">
        <ele>134.9</ele>
        <time>2022-10-07T12:33:04Z</time>
      </trkpt>
      <trkpt lat="49.77479" lon="2.24055">
        <ele>134.9</ele>
        <time>2022-10-07T12:33:05Z</time>
      </trkpt>
      <trkpt lat="49.77478" lon="2.24055">
        <ele>134.9</ele>
        <time>2022-10-07T12:33:06Z</time>
      </trkpt>
      <trkpt lat="49.77476" lon="2.24054">
        <ele>135</ele>
        <time>2022-10-07T12:33:07Z</time>
      </trkpt>
      <trkpt lat="49.77475" lon="2.24054">
        <ele>135</ele>
        <time>2022-10-07T12:33:09Z</time>
      </trkpt>
      <trkpt lat="49.77474" lon="2.24053">
        <ele>135</ele>
        <time>2022-10-07T12:33:10Z</time>
      </trkpt>
      <trkpt lat="49.77472" lon="2.24052">
        <ele>135</ele>
        <time>2022-10-07T12:33:11Z</time>
      </trkpt>
      <trkpt lat="49.77471" lon="2.24052">
        <ele>135</ele>
        <time>2022-10-07T12:33:12Z</time>
      </trkpt>
      <trkpt lat="49.7747" lon="2.24052">
        <ele>135</ele>
        <time>2022-10-07T12:33:13Z</time>
      </trkpt>
      <trkpt lat="49.77469" lon="2.24051">
        <ele>135</ele>
        <time>2022-10-07T12:33:14Z</time>
      </trkpt>
      <trkpt lat="49.77467" lon="2.2405">
        <ele>135</ele>
        <time>2022-10-07T12:33:15Z</time>
      </trkpt>
      <trkpt lat="49.77466" lon="2.2405">
        <ele>135.1</ele>
        <time>2022-10-07T12:33:17Z</time>
      </trkpt>
      <trkpt lat="49.77465" lon="2.24049">
        <ele>135.1</ele>
        <time>2022-10-07T12:33:18Z</time>
      </trkpt>
      <trkpt lat="49.77464" lon="2.24049">
        <ele>135.1</ele>
        <time>2022-10-07T12:33:19Z</time>
      </trkpt>
      <trkpt lat="49.77462" lon="2.24048">
        <ele>135.1</ele>
        <time>2022-10-07T12:33:20Z</time>
      </trkpt>
      <trkpt lat="49.77461" lon="2.24048">
        <ele>135.1</ele>
        <time>2022-10-07T12:33:21Z</time>
      </trkpt>
      <trkpt lat="49.7746" lon="2.24048">
        <ele>135.1</ele>
        <time>2022-10-07T12:33:22Z</time>
      </trkpt>
      <trkpt lat="49.77458" lon="2.24047">
        <ele>135.1</ele>
        <time>2022-10-07T12:33:23Z</time>
      </trkpt>
      <trkpt lat="49.77457" lon="2.24047">
        <ele>135.1</ele>
        <time>2022-10-07T12:33:24Z</time>
      </trkpt>
      <trkpt lat="49.77456" lon="2.24046">
        <ele>135.2</ele>
        <time>2022-10-07T12:33:25Z</time>
      </trkpt>
      <trkpt lat="49.77455" lon="2.24046">
        <ele>135.2</ele>
        <time>2022-10-07T12:33:26Z</time>
      </trkpt>
      <trkpt lat="49.77454" lon="2.24046">
        <ele>135.2</ele>
        <time>2022-10-07T12:33:28Z</time>
      </trkpt>
      <trkpt lat="49.77453" lon="2.24045">
        <ele>135.2</ele>
        <time>2022-10-07T12:33:29Z</time>
      </trkpt>
      <trkpt lat="49.77452" lon="2.24045">
        <ele>135.2</ele>
        <time>2022-10-07T12:33:30Z</time>
      </trkpt>
      <trkpt lat="49.7745" lon="2.24045">
        <ele>135.2</ele>
        <time>2022-10-07T12:33:31Z</time>
      </trkpt>
      <trkpt lat="49.77449" lon="2.24044">
        <ele>135.2</ele>
        <time>2022-10-07T12:33:32Z</time>
      </trkpt>
      <trkpt lat="49.77448" lon="2.24043">
        <ele>135.2</ele>
        <time>2022-10-07T12:33:33Z</time>
      </trkpt>
      <trkpt lat="49.77447" lon="2.24043">
        <ele>135.2</ele>
        <time>2022-10-07T12:33:34Z</time>
      </trkpt>
      <trkpt lat="49.77446" lon="2.24043">
        <ele>135.2</ele>
        <time>2022-10-07T12:33:35Z</time>
      </trkpt>
      <trkpt lat="49.77445" lon="2.24043">
        <ele>135.3</ele>
        <time>2022-10-07T12:33:36Z</time>
      </trkpt>
      <trkpt lat="49.77444" lon="2.24042">
        <ele>135.3</ele>
        <time>2022-10-07T12:33:37Z</time>
      </trkpt>
      <trkpt lat="49.77443" lon="2.24042">
        <ele>135.3</ele>
        <time>2022-10-07T12:33:38Z</time>
      </trkpt>
      <trkpt lat="49.77442" lon="2.24042">
        <ele>135.3</ele>
        <time>2022-10-07T12:33:40Z</time>
      </trkpt>
      <trkpt lat="49.77441" lon="2.24041">
        <ele>135.3</ele>
        <time>2022-10-07T12:33:41Z</time>
      </trkpt>
      <trkpt lat="49.77439" lon="2.24041">
        <ele>135.3</ele>
        <time>2022-10-07T12:33:42Z</time>
      </trkpt>
      <trkpt lat="49.77439" lon="2.24041">
        <ele>135.3</ele>
        <time>2022-10-07T12:33:43Z</time>
      </trkpt>
      <trkpt lat="49.77437" lon="2.24041">
        <ele>135.4</ele>
        <time>2022-10-07T12:33:44Z</time>
      </trkpt>
      <trkpt lat="49.77436" lon="2.2404">
        <ele>135.4</ele>
        <time>2022-10-07T12:33:45Z</time>
      </trkpt>
      <trkpt lat="49.77434" lon="2.24038">
        <ele>135.4</ele>
        <time>2022-10-07T12:33:46Z</time>
      </trkpt>
      <trkpt lat="49.77434" lon="2.24038">
        <ele>135.4</ele>
        <time>2022-10-07T12:33:48Z</time>
      </trkpt>
      <trkpt lat="49.77433" lon="2.24038">
        <ele>135.4</ele>
        <time>2022-10-07T12:33:49Z</time>
      </trkpt>
      <trkpt lat="49.77431" lon="2.24037">
        <ele>135.5</ele>
        <time>2022-10-07T12:33:50Z</time>
      </trkpt>
      <trkpt lat="49.7743" lon="2.24037">
        <ele>135.5</ele>
        <time>2022-10-07T12:33:51Z</time>
      </trkpt>
      <trkpt lat="49.77428" lon="2.24037">
        <ele>135.5</ele>
        <time>2022-10-07T12:33:52Z</time>
      </trkpt>
      <trkpt lat="49.77427" lon="2.24037">
        <ele>135.5</ele>
        <time>2022-10-07T12:33:53Z</time>
      </trkpt>
      <trkpt lat="49.77426" lon="2.24037">
        <ele>135.5</ele>
        <time>2022-10-07T12:33:54Z</time>
      </trkpt>
      <trkpt lat="49.77424" lon="2.24036">
        <ele>135.5</ele>
        <time>2022-10-07T12:33:56Z</time>
      </trkpt>
      <trkpt lat="49.77423" lon="2.24036">
        <ele>135.6</ele>
        <time>2022-10-07T12:33:57Z</time>
      </trkpt>
      <trkpt lat="49.77422" lon="2.24036">
        <ele>135.6</ele>
        <time>2022-10-07T12:33:58Z</time>
      </trkpt>
      <trkpt lat="49.77421" lon="2.24036">
        <ele>135.6</ele>
        <time>2022-10-07T12:33:59Z</time>
      </trkpt>
      <trkpt lat="49.7742" lon="2.24035">
        <ele>135.6</ele>
        <time>2022-10-07T12:34:00Z</time>
      </trkpt>
      <trkpt lat="49.77419" lon="2.24035">
        <ele>135.6</ele>
        <time>2022-10-07T12:34:01Z</time>
      </trkpt>
      <trkpt lat="49.77417" lon="2.24034">
        <ele>135.6</ele>
        <time>2022-10-07T12:34:02Z</time>
      </trkpt>
      <trkpt lat="49.77416" lon="2.24034">
        <ele>135.6</ele>
        <time>2022-10-07T12:34:03Z</time>
      </trkpt>
      <trkpt lat="49.77415" lon="2.24033">
        <ele>135.6</ele>
        <time>2022-10-07T12:34:04Z</time>
      </trkpt>
      <trkpt lat="49.77413" lon="2.24033">
        <ele>135.7</ele>
        <time>2022-10-07T12:34:05Z</time>
      </trkpt>
      <trkpt lat="49.77412" lon="2.24032">
        <ele>135.7</ele>
        <time>2022-10-07T12:34:06Z</time>
      </trkpt>
      <trkpt lat="49.7741" lon="2.24032">
        <ele>135.7</ele>
        <time>2022-10-07T12:34:08Z</time>
      </trkpt>
      <trkpt lat="49.77409" lon="2.24031">
        <ele>135.7</ele>
        <time>2022-10-07T12:34:09Z</time>
      </trkpt>
      <trkpt lat="49.77408" lon="2.24031">
        <ele>135.7</ele>
        <time>2022-10-07T12:34:10Z</time>
      </trkpt>
      <trkpt lat="49.77407" lon="2.2403">
        <ele>135.7</ele>
        <time>2022-10-07T12:34:11Z</time>
      </trkpt>
      <trkpt lat="49.77406" lon="2.2403">
        <ele>135.7</ele>
        <time>2022-10-07T12:34:12Z</time>
      </trkpt>
      <trkpt lat="49.77405" lon="2.24029">
        <ele>135.7</ele>
        <time>2022-10-07T12:34:13Z</time>
      </trkpt>
      <trkpt lat="49.77404" lon="2.24029">
        <ele>135.7</ele>
        <time>2022-10-07T12:34:14Z</time>
      </trkpt>
      <trkpt lat="49.77402" lon="2.24028">
        <ele>135.8</ele>
        <time>2022-10-07T12:34:15Z</time>
      </trkpt>
      <trkpt lat="49.77402" lon="2.24027">
        <ele>135.8</ele>
        <time>2022-10-07T12:34:16Z</time>
      </trkpt>
      <trkpt lat="49.774" lon="2.24027">
        <ele>135.8</ele>
        <time>2022-10-07T12:34:17Z</time>
      </trkpt>
      <trkpt lat="49.77399" lon="2.24026">
        <ele>135.8</ele>
        <time>2022-10-07T12:34:18Z</time>
      </trkpt>
      <trkpt lat="49.77398" lon="2.24026">
        <ele>135.8</ele>
        <time>2022-10-07T12:34:19Z</time>
      </trkpt>
      <trkpt lat="49.77396" lon="2.24025">
        <ele>135.8</ele>
        <time>2022-10-07T12:34:20Z</time>
      </trkpt>
      <trkpt lat="49.77395" lon="2.24024">
        <ele>135.8</ele>
        <time>2022-10-07T12:34:22Z</time>
      </trkpt>
      <trkpt lat="49.77394" lon="2.24023">
        <ele>135.8</ele>
        <time>2022-10-07T12:34:23Z</time>
      </trkpt>
      <trkpt lat="49.77393" lon="2.24023">
        <ele>135.8</ele>
        <time>2022-10-07T12:34:24Z</time>
      </trkpt>
      <trkpt lat="49.77391" lon="2.24022">
        <ele>135.8</ele>
        <time>2022-10-07T12:34:25Z</time>
      </trkpt>
      <trkpt lat="49.7739" lon="2.24022">
        <ele>135.8</ele>
        <time>2022-10-07T12:34:26Z</time>
      </trkpt>
      <trkpt lat="49.77389" lon="2.24022">
        <ele>135.8</ele>
        <time>2022-10-07T12:34:27Z</time>
      </trkpt>
      <trkpt lat="49.77388" lon="2.24021">
        <ele>135.9</ele>
        <time>2022-10-07T12:34:29Z</time>
      </trkpt>
      <trkpt lat="49.77386" lon="2.2402">
        <ele>135.9</ele>
        <time>2022-10-07T12:34:30Z</time>
      </trkpt>
      <trkpt lat="49.77385" lon="2.2402">
        <ele>135.9</ele>
        <time>2022-10-07T12:34:31Z</time>
      </trkpt>
      <trkpt lat="49.77384" lon="2.24019">
        <ele>135.9</ele>
        <time>2022-10-07T12:34:32Z</time>
      </trkpt>
      <trkpt lat="49.77382" lon="2.24019">
        <ele>135.9</ele>
        <time>2022-10-07T12:34:33Z</time>
      </trkpt>
      <trkpt lat="49.77381" lon="2.24018">
        <ele>135.9</ele>
        <time>2022-10-07T12:34:34Z</time>
      </trkpt>
      <trkpt lat="49.77379" lon="2.24017">
        <ele>135.9</ele>
        <time>2022-10-07T12:34:35Z</time>
      </trkpt>
      <trkpt lat="49.77378" lon="2.24017">
        <ele>135.9</ele>
        <time>2022-10-07T12:34:36Z</time>
      </trkpt>
      <trkpt lat="49.77378" lon="2.24016">
        <ele>135.9</ele>
        <time>2022-10-07T12:34:37Z</time>
      </trkpt>
      <trkpt lat="49.77377" lon="2.24016">
        <ele>135.9</ele>
        <time>2022-10-07T12:34:39Z</time>
      </trkpt>
      <trkpt lat="49.77376" lon="2.24016">
        <ele>135.9</ele>
        <time>2022-10-07T12:34:40Z</time>
      </trkpt>
      <trkpt lat="49.77374" lon="2.24015">
        <ele>135.9</ele>
        <time>2022-10-07T12:34:41Z</time>
      </trkpt>
      <trkpt lat="49.77373" lon="2.24015">
        <ele>135.9</ele>
        <time>2022-10-07T12:34:42Z</time>
      </trkpt>
      <trkpt lat="49.77373" lon="2.24015">
        <ele>136</ele>
        <time>2022-10-07T12:34:43Z</time>
      </trkpt>
      <trkpt lat="49.77372" lon="2.24014">
        <ele>136</ele>
        <time>2022-10-07T12:34:44Z</time>
      </trkpt>
      <trkpt lat="49.7737" lon="2.24014">
        <ele>136</ele>
        <time>2022-10-07T12:34:45Z</time>
      </trkpt>
      <trkpt lat="49.77369" lon="2.24013">
        <ele>136</ele>
        <time>2022-10-07T12:34:47Z</time>
      </trkpt>
      <trkpt lat="49.77369" lon="2.24013">
        <ele>136</ele>
        <time>2022-10-07T12:34:48Z</time>
      </trkpt>
      <trkpt lat="49.77368" lon="2.24012">
        <ele>136</ele>
        <time>2022-10-07T12:34:49Z</time>
      </trkpt>
      <trkpt lat="49.77367" lon="2.24012">
        <ele>136</ele>
        <time>2022-10-07T12:34:50Z</time>
      </trkpt>
      <trkpt lat="49.77365" lon="2.24011">
        <ele>136</ele>
        <time>2022-10-07T12:34:51Z</time>
      </trkpt>
      <trkpt lat="49.77364" lon="2.24011">
        <ele>136</ele>
        <time>2022-10-07T12:34:52Z</time>
      </trkpt>
      <trkpt lat="49.77363" lon="2.2401">
        <ele>136.1</ele>
        <time>2022-10-07T12:34:53Z</time>
      </trkpt>
      <trkpt lat="49.77362" lon="2.24009">
        <ele>136.1</ele>
        <time>2022-10-07T12:34:55Z</time>
      </trkpt>
      <trkpt lat="49.77361" lon="2.24009">
        <ele>136.1</ele>
        <time>2022-10-07T12:34:56Z</time>
      </trkpt>
      <trkpt lat="49.7736" lon="2.24009">
        <ele>136.1</ele>
        <time>2022-10-07T12:34:57Z</time>
      </trkpt>
      <trkpt lat="49.77359" lon="2.24008">
        <ele>136.1</ele>
        <time>2022-10-07T12:34:58Z</time>
      </trkpt>
      <trkpt lat="49.77357" lon="2.24008">
        <ele>136.1</ele>
        <time>2022-10-07T12:34:59Z</time>
      </trkpt>
      <trkpt lat="49.77356" lon="2.24008">
        <ele>136.1</ele>
        <time>2022-10-07T12:35:00Z</time>
      </trkpt>
      <trkpt lat="49.77355" lon="2.24008">
        <ele>136.1</ele>
        <time>2022-10-07T12:35:01Z</time>
      </trkpt>
      <trkpt lat="49.77354" lon="2.24008">
        <ele>136.1</ele>
        <time>2022-10-07T12:35:02Z</time>
      </trkpt>
      <trkpt lat="49.77353" lon="2.24008">
        <ele>136.2</ele>
        <time>2022-10-07T12:35:03Z</time>
      </trkpt>
      <trkpt lat="49.77351" lon="2.24008">
        <ele>136.2</ele>
        <time>2022-10-07T12:35:05Z</time>
      </trkpt>
      <trkpt lat="49.77349" lon="2.24007">
        <ele>136.2</ele>
        <time>2022-10-07T12:35:06Z</time>
      </trkpt>
      <trkpt lat="49.77348" lon="2.24007">
        <ele>136.2</ele>
        <time>2022-10-07T12:35:08Z</time>
      </trkpt>
      <trkpt lat="49.77345" lon="2.24006">
        <ele>136.2</ele>
        <time>2022-10-07T12:35:09Z</time>
      </trkpt>
      <trkpt lat="49.77344" lon="2.24005">
        <ele>136.2</ele>
        <time>2022-10-07T12:35:10Z</time>
      </trkpt>
      <trkpt lat="49.77344" lon="2.24005">
        <ele>136.2</ele>
        <time>2022-10-07T12:35:11Z</time>
      </trkpt>
      <trkpt lat="49.77343" lon="2.24004">
        <ele>136.2</ele>
        <time>2022-10-07T12:35:12Z</time>
      </trkpt>
      <trkpt lat="49.77342" lon="2.24003">
        <ele>136.2</ele>
        <time>2022-10-07T12:35:13Z</time>
      </trkpt>
      <trkpt lat="49.77341" lon="2.24002">
        <ele>136.2</ele>
        <time>2022-10-07T12:35:15Z</time>
      </trkpt>
      <trkpt lat="49.77339" lon="2.24002">
        <ele>136.2</ele>
        <time>2022-10-07T12:35:16Z</time>
      </trkpt>
      <trkpt lat="49.77338" lon="2.24001">
        <ele>136.2</ele>
        <time>2022-10-07T12:35:17Z</time>
      </trkpt>
      <trkpt lat="49.77336" lon="2.24001">
        <ele>136.2</ele>
        <time>2022-10-07T12:35:18Z</time>
      </trkpt>
      <trkpt lat="49.77335" lon="2.24">
        <ele>136.2</ele>
        <time>2022-10-07T12:35:19Z</time>
      </trkpt>
      <trkpt lat="49.77333" lon="2.23999">
        <ele>136.2</ele>
        <time>2022-10-07T12:35:20Z</time>
      </trkpt>
      <trkpt lat="49.77332" lon="2.23999">
        <ele>136.2</ele>
        <time>2022-10-07T12:35:22Z</time>
      </trkpt>
      <trkpt lat="49.77331" lon="2.23998">
        <ele>136.2</ele>
        <time>2022-10-07T12:35:23Z</time>
      </trkpt>
      <trkpt lat="49.7733" lon="2.23998">
        <ele>136.2</ele>
        <time>2022-10-07T12:35:24Z</time>
      </trkpt>
      <trkpt lat="49.77329" lon="2.23997">
        <ele>136.2</ele>
        <time>2022-10-07T12:35:25Z</time>
      </trkpt>
      <trkpt lat="49.77327" lon="2.23996">
        <ele>136.2</ele>
        <time>2022-10-07T12:35:26Z</time>
      </trkpt>
      <trkpt lat="49.77326" lon="2.23995">
        <ele>136.2</ele>
        <time>2022-10-07T12:35:27Z</time>
      </trkpt>
      <trkpt lat="49.77326" lon="2.23995">
        <ele>136.2</ele>
        <time>2022-10-07T12:35:28Z</time>
      </trkpt>
      <trkpt lat="49.77324" lon="2.23995">
        <ele>136.2</ele>
        <time>2022-10-07T12:35:30Z</time>
      </trkpt>
      <trkpt lat="49.77322" lon="2.23994">
        <ele>136.2</ele>
        <time>2022-10-07T12:35:31Z</time>
      </trkpt>
      <trkpt lat="49.7732" lon="2.23993">
        <ele>136.2</ele>
        <time>2022-10-07T12:35:32Z</time>
      </trkpt>
      <trkpt lat="49.77319" lon="2.23993">
        <ele>136.2</ele>
        <time>2022-10-07T12:35:33Z</time>
      </trkpt>
      <trkpt lat="49.77318" lon="2.23993">
        <ele>136.2</ele>
        <time>2022-10-07T12:35:34Z</time>
      </trkpt>
      <trkpt lat="49.77317" lon="2.23992">
        <ele>136.1</ele>
        <time>2022-10-07T12:35:35Z</time>
      </trkpt>
      <trkpt lat="49.77315" lon="2.23992">
        <ele>136.1</ele>
        <time>2022-10-07T12:35:37Z</time>
      </trkpt>
      <trkpt lat="49.77314" lon="2.23992">
        <ele>136.1</ele>
        <time>2022-10-07T12:35:38Z</time>
      </trkpt>
      <trkpt lat="49.77313" lon="2.23991">
        <ele>136.1</ele>
        <time>2022-10-07T12:35:39Z</time>
      </trkpt>
      <trkpt lat="49.77312" lon="2.23991">
        <ele>136.1</ele>
        <time>2022-10-07T12:35:40Z</time>
      </trkpt>
      <trkpt lat="49.7731" lon="2.2399">
        <ele>136.1</ele>
        <time>2022-10-07T12:35:41Z</time>
      </trkpt>
      <trkpt lat="49.77309" lon="2.2399">
        <ele>136.1</ele>
        <time>2022-10-07T12:35:42Z</time>
      </trkpt>
      <trkpt lat="49.77308" lon="2.23989">
        <ele>136.1</ele>
        <time>2022-10-07T12:35:43Z</time>
      </trkpt>
      <trkpt lat="49.77306" lon="2.23988">
        <ele>136.1</ele>
        <time>2022-10-07T12:35:44Z</time>
      </trkpt>
      <trkpt lat="49.77304" lon="2.23987">
        <ele>136.1</ele>
        <time>2022-10-07T12:35:46Z</time>
      </trkpt>
      <trkpt lat="49.77302" lon="2.23987">
        <ele>136.1</ele>
        <time>2022-10-07T12:35:47Z</time>
      </trkpt>
      <trkpt lat="49.77301" lon="2.23986">
        <ele>136.1</ele>
        <time>2022-10-07T12:35:48Z</time>
      </trkpt>
      <trkpt lat="49.773" lon="2.23985">
        <ele>136.1</ele>
        <time>2022-10-07T12:35:49Z</time>
      </trkpt>
      <trkpt lat="49.77298" lon="2.23985">
        <ele>136.1</ele>
        <time>2022-10-07T12:35:50Z</time>
      </trkpt>
      <trkpt lat="49.77297" lon="2.23984">
        <ele>136.1</ele>
        <time>2022-10-07T12:35:52Z</time>
      </trkpt>
      <trkpt lat="49.77295" lon="2.23983">
        <ele>136.1</ele>
        <time>2022-10-07T12:35:53Z</time>
      </trkpt>
      <trkpt lat="49.77294" lon="2.23982">
        <ele>136.1</ele>
        <time>2022-10-07T12:35:54Z</time>
      </trkpt>
      <trkpt lat="49.77293" lon="2.23982">
        <ele>136.1</ele>
        <time>2022-10-07T12:35:55Z</time>
      </trkpt>
      <trkpt lat="49.77292" lon="2.23981">
        <ele>136.1</ele>
        <time>2022-10-07T12:35:56Z</time>
      </trkpt>
      <trkpt lat="49.77291" lon="2.23981">
        <ele>136.1</ele>
        <time>2022-10-07T12:35:57Z</time>
      </trkpt>
      <trkpt lat="49.7729" lon="2.2398">
        <ele>136</ele>
        <time>2022-10-07T12:35:59Z</time>
      </trkpt>
      <trkpt lat="49.77289" lon="2.2398">
        <ele>136</ele>
        <time>2022-10-07T12:36:00Z</time>
      </trkpt>
      <trkpt lat="49.77287" lon="2.23979">
        <ele>136</ele>
        <time>2022-10-07T12:36:01Z</time>
      </trkpt>
      <trkpt lat="49.77286" lon="2.23979">
        <ele>136</ele>
        <time>2022-10-07T12:36:02Z</time>
      </trkpt>
      <trkpt lat="49.77284" lon="2.23979">
        <ele>136</ele>
        <time>2022-10-07T12:36:03Z</time>
      </trkpt>
      <trkpt lat="49.77283" lon="2.23978">
        <ele>136</ele>
        <time>2022-10-07T12:36:04Z</time>
      </trkpt>
      <trkpt lat="49.77281" lon="2.23978">
        <ele>136</ele>
        <time>2022-10-07T12:36:06Z</time>
      </trkpt>
      <trkpt lat="49.7728" lon="2.23978">
        <ele>136</ele>
        <time>2022-10-07T12:36:07Z</time>
      </trkpt>
      <trkpt lat="49.77278" lon="2.23978">
        <ele>135.9</ele>
        <time>2022-10-07T12:36:08Z</time>
      </trkpt>
      <trkpt lat="49.77277" lon="2.23978">
        <ele>135.9</ele>
        <time>2022-10-07T12:36:09Z</time>
      </trkpt>
      <trkpt lat="49.77276" lon="2.23978">
        <ele>135.9</ele>
        <time>2022-10-07T12:36:10Z</time>
      </trkpt>
      <trkpt lat="49.77275" lon="2.23977">
        <ele>135.9</ele>
        <time>2022-10-07T12:36:11Z</time>
      </trkpt>
      <trkpt lat="49.77274" lon="2.23977">
        <ele>135.9</ele>
        <time>2022-10-07T12:36:12Z</time>
      </trkpt>
      <trkpt lat="49.77272" lon="2.23977">
        <ele>135.9</ele>
        <time>2022-10-07T12:36:14Z</time>
      </trkpt>
      <trkpt lat="49.77271" lon="2.23976">
        <ele>135.9</ele>
        <time>2022-10-07T12:36:15Z</time>
      </trkpt>
      <trkpt lat="49.77269" lon="2.23976">
        <ele>135.9</ele>
        <time>2022-10-07T12:36:16Z</time>
      </trkpt>
      <trkpt lat="49.77268" lon="2.23976">
        <ele>135.9</ele>
        <time>2022-10-07T12:36:17Z</time>
      </trkpt>
      <trkpt lat="49.77267" lon="2.23976">
        <ele>135.9</ele>
        <time>2022-10-07T12:36:18Z</time>
      </trkpt>
      <trkpt lat="49.77266" lon="2.23976">
        <ele>135.8</ele>
        <time>2022-10-07T12:36:19Z</time>
      </trkpt>
      <trkpt lat="49.77265" lon="2.23975">
        <ele>135.8</ele>
        <time>2022-10-07T12:36:20Z</time>
      </trkpt>
      <trkpt lat="49.77263" lon="2.23974">
        <ele>135.8</ele>
        <time>2022-10-07T12:36:22Z</time>
      </trkpt>
      <trkpt lat="49.77262" lon="2.23973">
        <ele>135.8</ele>
        <time>2022-10-07T12:36:23Z</time>
      </trkpt>
      <trkpt lat="49.77261" lon="2.23972">
        <ele>135.8</ele>
        <time>2022-10-07T12:36:24Z</time>
      </trkpt>
      <trkpt lat="49.7726" lon="2.23971">
        <ele>135.8</ele>
        <time>2022-10-07T12:36:25Z</time>
      </trkpt>
      <trkpt lat="49.77258" lon="2.2397">
        <ele>135.8</ele>
        <time>2022-10-07T12:36:26Z</time>
      </trkpt>
      <trkpt lat="49.77258" lon="2.2397">
        <ele>135.8</ele>
        <time>2022-10-07T12:36:27Z</time>
      </trkpt>
      <trkpt lat="49.77257" lon="2.2397">
        <ele>135.8</ele>
        <time>2022-10-07T12:36:28Z</time>
      </trkpt>
      <trkpt lat="49.77257" lon="2.23969">
        <ele>135.8</ele>
        <time>2022-10-07T12:36:29Z</time>
      </trkpt>
      <trkpt lat="49.77256" lon="2.23969">
        <ele>135.8</ele>
        <time>2022-10-07T12:36:30Z</time>
      </trkpt>
      <trkpt lat="49.77254" lon="2.23968">
        <ele>135.7</ele>
        <time>2022-10-07T12:36:31Z</time>
      </trkpt>
      <trkpt lat="49.77252" lon="2.23967">
        <ele>135.7</ele>
        <time>2022-10-07T12:36:32Z</time>
      </trkpt>
      <trkpt lat="49.77251" lon="2.23967">
        <ele>135.7</ele>
        <time>2022-10-07T12:36:33Z</time>
      </trkpt>
      <trkpt lat="49.7725" lon="2.23966">
        <ele>135.7</ele>
        <time>2022-10-07T12:36:34Z</time>
      </trkpt>
      <trkpt lat="49.77249" lon="2.23966">
        <ele>135.7</ele>
        <time>2022-10-07T12:36:35Z</time>
      </trkpt>
      <trkpt lat="49.77248" lon="2.23966">
        <ele>135.7</ele>
        <time>2022-10-07T12:36:37Z</time>
      </trkpt>
      <trkpt lat="49.77247" lon="2.23966">
        <ele>135.7</ele>
        <time>2022-10-07T12:36:38Z</time>
      </trkpt>
      <trkpt lat="49.77246" lon="2.23966">
        <ele>135.7</ele>
        <time>2022-10-07T12:36:39Z</time>
      </trkpt>
      <trkpt lat="49.77245" lon="2.23966">
        <ele>135.7</ele>
        <time>2022-10-07T12:36:40Z</time>
      </trkpt>
      <trkpt lat="49.77243" lon="2.23964">
        <ele>135.7</ele>
        <time>2022-10-07T12:36:41Z</time>
      </trkpt>
      <trkpt lat="49.77242" lon="2.23964">
        <ele>135.7</ele>
        <time>2022-10-07T12:36:42Z</time>
      </trkpt>
      <trkpt lat="49.77241" lon="2.23963">
        <ele>135.7</ele>
        <time>2022-10-07T12:36:43Z</time>
      </trkpt>
      <trkpt lat="49.7724" lon="2.23962">
        <ele>135.6</ele>
        <time>2022-10-07T12:36:45Z</time>
      </trkpt>
      <trkpt lat="49.77238" lon="2.23962">
        <ele>135.6</ele>
        <time>2022-10-07T12:36:46Z</time>
      </trkpt>
      <trkpt lat="49.77237" lon="2.23961">
        <ele>135.6</ele>
        <time>2022-10-07T12:36:47Z</time>
      </trkpt>
      <trkpt lat="49.77236" lon="2.2396">
        <ele>135.6</ele>
        <time>2022-10-07T12:36:48Z</time>
      </trkpt>
      <trkpt lat="49.77235" lon="2.23959">
        <ele>135.6</ele>
        <time>2022-10-07T12:36:49Z</time>
      </trkpt>
      <trkpt lat="49.77233" lon="2.23959">
        <ele>135.6</ele>
        <time>2022-10-07T12:36:51Z</time>
      </trkpt>
      <trkpt lat="49.77231" lon="2.23958">
        <ele>135.6</ele>
        <time>2022-10-07T12:36:52Z</time>
      </trkpt>
      <trkpt lat="49.7723" lon="2.23958">
        <ele>135.6</ele>
        <time>2022-10-07T12:36:53Z</time>
      </trkpt>
      <trkpt lat="49.77229" lon="2.23958">
        <ele>135.6</ele>
        <time>2022-10-07T12:36:54Z</time>
      </trkpt>
      <trkpt lat="49.77229" lon="2.23957">
        <ele>135.6</ele>
        <time>2022-10-07T12:36:55Z</time>
      </trkpt>
      <trkpt lat="49.77227" lon="2.23957">
        <ele>135.6</ele>
        <time>2022-10-07T12:36:56Z</time>
      </trkpt>
      <trkpt lat="49.77226" lon="2.23956">
        <ele>135.6</ele>
        <time>2022-10-07T12:36:57Z</time>
      </trkpt>
      <trkpt lat="49.77225" lon="2.23956">
        <ele>135.6</ele>
        <time>2022-10-07T12:36:58Z</time>
      </trkpt>
      <trkpt lat="49.77223" lon="2.23955">
        <ele>135.6</ele>
        <time>2022-10-07T12:36:59Z</time>
      </trkpt>
      <trkpt lat="49.77222" lon="2.23955">
        <ele>135.6</ele>
        <time>2022-10-07T12:37:00Z</time>
      </trkpt>
      <trkpt lat="49.77221" lon="2.23955">
        <ele>135.6</ele>
        <time>2022-10-07T12:37:01Z</time>
      </trkpt>
      <trkpt lat="49.77221" lon="2.23954">
        <ele>135.5</ele>
        <time>2022-10-07T12:37:02Z</time>
      </trkpt>
      <trkpt lat="49.77219" lon="2.23954">
        <ele>135.5</ele>
        <time>2022-10-07T12:37:03Z</time>
      </trkpt>
      <trkpt lat="49.77218" lon="2.23954">
        <ele>135.5</ele>
        <time>2022-10-07T12:37:05Z</time>
      </trkpt>
      <trkpt lat="49.77217" lon="2.23953">
        <ele>135.5</ele>
        <time>2022-10-07T12:37:06Z</time>
      </trkpt>
      <trkpt lat="49.77215" lon="2.23953">
        <ele>135.5</ele>
        <time>2022-10-07T12:37:07Z</time>
      </trkpt>
      <trkpt lat="49.77214" lon="2.23953">
        <ele>135.5</ele>
        <time>2022-10-07T12:37:08Z</time>
      </trkpt>
      <trkpt lat="49.77213" lon="2.23952">
        <ele>135.5</ele>
        <time>2022-10-07T12:37:09Z</time>
      </trkpt>
      <trkpt lat="49.77212" lon="2.23952">
        <ele>135.5</ele>
        <time>2022-10-07T12:37:10Z</time>
      </trkpt>
      <trkpt lat="49.77211" lon="2.23951">
        <ele>135.5</ele>
        <time>2022-10-07T12:37:11Z</time>
      </trkpt>
      <trkpt lat="49.77209" lon="2.2395">
        <ele>135.5</ele>
        <time>2022-10-07T12:37:12Z</time>
      </trkpt>
      <trkpt lat="49.77208" lon="2.2395">
        <ele>135.5</ele>
        <time>2022-10-07T12:37:13Z</time>
      </trkpt>
      <trkpt lat="49.77207" lon="2.2395">
        <ele>135.5</ele>
        <time>2022-10-07T12:37:14Z</time>
      </trkpt>
      <trkpt lat="49.77205" lon="2.23949">
        <ele>135.5</ele>
        <time>2022-10-07T12:37:15Z</time>
      </trkpt>
      <trkpt lat="49.77204" lon="2.23949">
        <ele>135.5</ele>
        <time>2022-10-07T12:37:16Z</time>
      </trkpt>
      <trkpt lat="49.77203" lon="2.23948">
        <ele>135.5</ele>
        <time>2022-10-07T12:37:18Z</time>
      </trkpt>
      <trkpt lat="49.77202" lon="2.23948">
        <ele>135.5</ele>
        <time>2022-10-07T12:37:19Z</time>
      </trkpt>
      <trkpt lat="49.77201" lon="2.23947">
        <ele>135.5</ele>
        <time>2022-10-07T12:37:20Z</time>
      </trkpt>
      <trkpt lat="49.77199" lon="2.23946">
        <ele>135.5</ele>
        <time>2022-10-07T12:37:21Z</time>
      </trkpt>
      <trkpt lat="49.77198" lon="2.23946">
        <ele>135.5</ele>
        <time>2022-10-07T12:37:22Z</time>
      </trkpt>
      <trkpt lat="49.77197" lon="2.23945">
        <ele>135.5</ele>
        <time>2022-10-07T12:37:23Z</time>
      </trkpt>
      <trkpt lat="49.77195" lon="2.23944">
        <ele>135.5</ele>
        <time>2022-10-07T12:37:25Z</time>
      </trkpt>
      <trkpt lat="49.77194" lon="2.23943">
        <ele>135.5</ele>
        <time>2022-10-07T12:37:26Z</time>
      </trkpt>
      <trkpt lat="49.77194" lon="2.23943">
        <ele>135.5</ele>
        <time>2022-10-07T12:37:27Z</time>
      </trkpt>
      <trkpt lat="49.77193" lon="2.23943">
        <ele>135.5</ele>
        <time>2022-10-07T12:37:28Z</time>
      </trkpt>
      <trkpt lat="49.77191" lon="2.23942">
        <ele>135.5</ele>
        <time>2022-10-07T12:37:29Z</time>
      </trkpt>
      <trkpt lat="49.7719" lon="2.23941">
        <ele>135.5</ele>
        <time>2022-10-07T12:37:30Z</time>
      </trkpt>
      <trkpt lat="49.77188" lon="2.23941">
        <ele>135.5</ele>
        <time>2022-10-07T12:37:31Z</time>
      </trkpt>
      <trkpt lat="49.77187" lon="2.2394">
        <ele>135.5</ele>
        <time>2022-10-07T12:37:33Z</time>
      </trkpt>
      <trkpt lat="49.77187" lon="2.23939">
        <ele>135.5</ele>
        <time>2022-10-07T12:37:34Z</time>
      </trkpt>
      <trkpt lat="49.77185" lon="2.23938">
        <ele>135.5</ele>
        <time>2022-10-07T12:37:35Z</time>
      </trkpt>
      <trkpt lat="49.77184" lon="2.23938">
        <ele>135.5</ele>
        <time>2022-10-07T12:37:36Z</time>
      </trkpt>
      <trkpt lat="49.77183" lon="2.23937">
        <ele>135.5</ele>
        <time>2022-10-07T12:37:37Z</time>
      </trkpt>
      <trkpt lat="49.77182" lon="2.23936">
        <ele>135.5</ele>
        <time>2022-10-07T12:37:38Z</time>
      </trkpt>
      <trkpt lat="49.77179" lon="2.23935">
        <ele>135.5</ele>
        <time>2022-10-07T12:37:39Z</time>
      </trkpt>
      <trkpt lat="49.77178" lon="2.23935">
        <ele>135.5</ele>
        <time>2022-10-07T12:37:40Z</time>
      </trkpt>
      <trkpt lat="49.77177" lon="2.23934">
        <ele>135.5</ele>
        <time>2022-10-07T12:37:41Z</time>
      </trkpt>
      <trkpt lat="49.77176" lon="2.23934">
        <ele>135.5</ele>
        <time>2022-10-07T12:37:42Z</time>
      </trkpt>
      <trkpt lat="49.77175" lon="2.23933">
        <ele>135.5</ele>
        <time>2022-10-07T12:37:43Z</time>
      </trkpt>
      <trkpt lat="49.77174" lon="2.23933">
        <ele>135.5</ele>
        <time>2022-10-07T12:37:44Z</time>
      </trkpt>
      <trkpt lat="49.77173" lon="2.23932">
        <ele>135.5</ele>
        <time>2022-10-07T12:37:45Z</time>
      </trkpt>
      <trkpt lat="49.77171" lon="2.23931">
        <ele>135.5</ele>
        <time>2022-10-07T12:37:47Z</time>
      </trkpt>
      <trkpt lat="49.7717" lon="2.2393">
        <ele>135.5</ele>
        <time>2022-10-07T12:37:48Z</time>
      </trkpt>
      <trkpt lat="49.77169" lon="2.23929">
        <ele>135.5</ele>
        <time>2022-10-07T12:37:49Z</time>
      </trkpt>
      <trkpt lat="49.77168" lon="2.23928">
        <ele>135.5</ele>
        <time>2022-10-07T12:37:50Z</time>
      </trkpt>
      <trkpt lat="49.77167" lon="2.23927">
        <ele>135.5</ele>
        <time>2022-10-07T12:37:51Z</time>
      </trkpt>
      <trkpt lat="49.77165" lon="2.23926">
        <ele>135.5</ele>
        <time>2022-10-07T12:37:52Z</time>
      </trkpt>
      <trkpt lat="49.77164" lon="2.23926">
        <ele>135.5</ele>
        <time>2022-10-07T12:37:53Z</time>
      </trkpt>
      <trkpt lat="49.77163" lon="2.23925">
        <ele>135.5</ele>
        <time>2022-10-07T12:37:55Z</time>
      </trkpt>
      <trkpt lat="49.77161" lon="2.23925">
        <ele>135.5</ele>
        <time>2022-10-07T12:37:56Z</time>
      </trkpt>
      <trkpt lat="49.7716" lon="2.23924">
        <ele>135.5</ele>
        <time>2022-10-07T12:37:57Z</time>
      </trkpt>
      <trkpt lat="49.77157" lon="2.23923">
        <ele>135.5</ele>
        <time>2022-10-07T12:37:58Z</time>
      </trkpt>
      <trkpt lat="49.77157" lon="2.23923">
        <ele>135.5</ele>
        <time>2022-10-07T12:37:59Z</time>
      </trkpt>
      <trkpt lat="49.77156" lon="2.23922">
        <ele>135.5</ele>
        <time>2022-10-07T12:38:00Z</time>
      </trkpt>
      <trkpt lat="49.77153" lon="2.23921">
        <ele>135.5</ele>
        <time>2022-10-07T12:38:01Z</time>
      </trkpt>
      <trkpt lat="49.77152" lon="2.23921">
        <ele>135.5</ele>
        <time>2022-10-07T12:38:03Z</time>
      </trkpt>
      <trkpt lat="49.77151" lon="2.23921">
        <ele>135.5</ele>
        <time>2022-10-07T12:38:04Z</time>
      </trkpt>
      <trkpt lat="49.7715" lon="2.2392">
        <ele>135.5</ele>
        <time>2022-10-07T12:38:05Z</time>
      </trkpt>
      <trkpt lat="49.77149" lon="2.2392">
        <ele>135.5</ele>
        <time>2022-10-07T12:38:06Z</time>
      </trkpt>
      <trkpt lat="49.77147" lon="2.23918">
        <ele>135.5</ele>
        <time>2022-10-07T12:38:08Z</time>
      </trkpt>
      <trkpt lat="49.77146" lon="2.23918">
        <ele>135.5</ele>
        <time>2022-10-07T12:38:09Z</time>
      </trkpt>
      <trkpt lat="49.77145" lon="2.23917">
        <ele>135.5</ele>
        <time>2022-10-07T12:38:10Z</time>
      </trkpt>
      <trkpt lat="49.77144" lon="2.23916">
        <ele>135.5</ele>
        <time>2022-10-07T12:38:11Z</time>
      </trkpt>
      <trkpt lat="49.77142" lon="2.23915">
        <ele>135.5</ele>
        <time>2022-10-07T12:38:12Z</time>
      </trkpt>
      <trkpt lat="49.77142" lon="2.23914">
        <ele>135.5</ele>
        <time>2022-10-07T12:38:13Z</time>
      </trkpt>
      <trkpt lat="49.7714" lon="2.23913">
        <ele>135.5</ele>
        <time>2022-10-07T12:38:14Z</time>
      </trkpt>
      <trkpt lat="49.77139" lon="2.23913">
        <ele>135.5</ele>
        <time>2022-10-07T12:38:15Z</time>
      </trkpt>
      <trkpt lat="49.77136" lon="2.23912">
        <ele>135.5</ele>
        <time>2022-10-07T12:38:17Z</time>
      </trkpt>
      <trkpt lat="49.77136" lon="2.23911">
        <ele>135.5</ele>
        <time>2022-10-07T12:38:18Z</time>
      </trkpt>
      <trkpt lat="49.77134" lon="2.23911">
        <ele>135.5</ele>
        <time>2022-10-07T12:38:19Z</time>
      </trkpt>
      <trkpt lat="49.77134" lon="2.23911">
        <ele>135.5</ele>
        <time>2022-10-07T12:38:20Z</time>
      </trkpt>
      <trkpt lat="49.77132" lon="2.2391">
        <ele>135.5</ele>
        <time>2022-10-07T12:38:21Z</time>
      </trkpt>
      <trkpt lat="49.77131" lon="2.2391">
        <ele>135.5</ele>
        <time>2022-10-07T12:38:22Z</time>
      </trkpt>
      <trkpt lat="49.7713" lon="2.2391">
        <ele>135.5</ele>
        <time>2022-10-07T12:38:23Z</time>
      </trkpt>
      <trkpt lat="49.77129" lon="2.2391">
        <ele>135.5</ele>
        <time>2022-10-07T12:38:24Z</time>
      </trkpt>
      <trkpt lat="49.77127" lon="2.23909">
        <ele>135.5</ele>
        <time>2022-10-07T12:38:25Z</time>
      </trkpt>
      <trkpt lat="49.77126" lon="2.23908">
        <ele>135.5</ele>
        <time>2022-10-07T12:38:26Z</time>
      </trkpt>
      <trkpt lat="49.77125" lon="2.23908">
        <ele>135.5</ele>
        <time>2022-10-07T12:38:27Z</time>
      </trkpt>
      <trkpt lat="49.77124" lon="2.23908">
        <ele>135.5</ele>
        <time>2022-10-07T12:38:29Z</time>
      </trkpt>
      <trkpt lat="49.77123" lon="2.23908">
        <ele>135.5</ele>
        <time>2022-10-07T12:38:30Z</time>
      </trkpt>
      <trkpt lat="49.77122" lon="2.23908">
        <ele>135.5</ele>
        <time>2022-10-07T12:38:31Z</time>
      </trkpt>
      <trkpt lat="49.7712" lon="2.23907">
        <ele>135.5</ele>
        <time>2022-10-07T12:38:32Z</time>
      </trkpt>
      <trkpt lat="49.7712" lon="2.23907">
        <ele>135.5</ele>
        <time>2022-10-07T12:38:33Z</time>
      </trkpt>
      <trkpt lat="49.77119" lon="2.23907">
        <ele>135.5</ele>
        <time>2022-10-07T12:38:34Z</time>
      </trkpt>
      <trkpt lat="49.77117" lon="2.23906">
        <ele>135.5</ele>
        <time>2022-10-07T12:38:35Z</time>
      </trkpt>
      <trkpt lat="49.77116" lon="2.23906">
        <ele>135.5</ele>
        <time>2022-10-07T12:38:36Z</time>
      </trkpt>
      <trkpt lat="49.77115" lon="2.23906">
        <ele>135.5</ele>
        <time>2022-10-07T12:38:37Z</time>
      </trkpt>
      <trkpt lat="49.77114" lon="2.23905">
        <ele>135.5</ele>
        <time>2022-10-07T12:38:38Z</time>
      </trkpt>
      <trkpt lat="49.77113" lon="2.23904">
        <ele>135.5</ele>
        <time>2022-10-07T12:38:39Z</time>
      </trkpt>
      <trkpt lat="49.77111" lon="2.23904">
        <ele>135.5</ele>
        <time>2022-10-07T12:38:41Z</time>
      </trkpt>
      <trkpt lat="49.77109" lon="2.23903">
        <ele>135.5</ele>
        <time>2022-10-07T12:38:42Z</time>
      </trkpt>
      <trkpt lat="49.77109" lon="2.23903">
        <ele>135.5</ele>
        <time>2022-10-07T12:38:43Z</time>
      </trkpt>
      <trkpt lat="49.77108" lon="2.23903">
        <ele>135.5</ele>
        <time>2022-10-07T12:38:44Z</time>
      </trkpt>
      <trkpt lat="49.77106" lon="2.23902">
        <ele>135.5</ele>
        <time>2022-10-07T12:38:45Z</time>
      </trkpt>
      <trkpt lat="49.77106" lon="2.23902">
        <ele>135.5</ele>
        <time>2022-10-07T12:38:46Z</time>
      </trkpt>
      <trkpt lat="49.77105" lon="2.23902">
        <ele>135.5</ele>
        <time>2022-10-07T12:38:47Z</time>
      </trkpt>
      <trkpt lat="49.77104" lon="2.23901">
        <ele>135.5</ele>
        <time>2022-10-07T12:38:48Z</time>
      </trkpt>
      <trkpt lat="49.77103" lon="2.23901">
        <ele>135.5</ele>
        <time>2022-10-07T12:38:49Z</time>
      </trkpt>
      <trkpt lat="49.77101" lon="2.239">
        <ele>135.5</ele>
        <time>2022-10-07T12:38:50Z</time>
      </trkpt>
      <trkpt lat="49.771" lon="2.239">
        <ele>135.5</ele>
        <time>2022-10-07T12:38:51Z</time>
      </trkpt>
      <trkpt lat="49.77099" lon="2.239">
        <ele>135.6</ele>
        <time>2022-10-07T12:38:52Z</time>
      </trkpt>
      <trkpt lat="49.77097" lon="2.23899">
        <ele>135.6</ele>
        <time>2022-10-07T12:38:53Z</time>
      </trkpt>
      <trkpt lat="49.77096" lon="2.23899">
        <ele>135.6</ele>
        <time>2022-10-07T12:38:54Z</time>
      </trkpt>
      <trkpt lat="49.77095" lon="2.23898">
        <ele>135.6</ele>
        <time>2022-10-07T12:38:56Z</time>
      </trkpt>
      <trkpt lat="49.77093" lon="2.23897">
        <ele>135.6</ele>
        <time>2022-10-07T12:38:57Z</time>
      </trkpt>
      <trkpt lat="49.77092" lon="2.23897">
        <ele>135.6</ele>
        <time>2022-10-07T12:38:58Z</time>
      </trkpt>
      <trkpt lat="49.77091" lon="2.23897">
        <ele>135.6</ele>
        <time>2022-10-07T12:38:59Z</time>
      </trkpt>
      <trkpt lat="49.7709" lon="2.23896">
        <ele>135.6</ele>
        <time>2022-10-07T12:39:00Z</time>
      </trkpt>
      <trkpt lat="49.77089" lon="2.23896">
        <ele>135.6</ele>
        <time>2022-10-07T12:39:02Z</time>
      </trkpt>
      <trkpt lat="49.77088" lon="2.23896">
        <ele>135.7</ele>
        <time>2022-10-07T12:39:03Z</time>
      </trkpt>
      <trkpt lat="49.77087" lon="2.23896">
        <ele>135.7</ele>
        <time>2022-10-07T12:39:04Z</time>
      </trkpt>
      <trkpt lat="49.77086" lon="2.23896">
        <ele>135.7</ele>
        <time>2022-10-07T12:39:05Z</time>
      </trkpt>
      <trkpt lat="49.77085" lon="2.23898">
        <ele>135.7</ele>
        <time>2022-10-07T12:39:08Z</time>
      </trkpt>
      <trkpt lat="49.77084" lon="2.23898">
        <ele>135.7</ele>
        <time>2022-10-07T12:39:09Z</time>
      </trkpt>
      <trkpt lat="49.77084" lon="2.23897">
        <ele>135.7</ele>
        <time>2022-10-07T12:39:10Z</time>
      </trkpt>
      <trkpt lat="49.77083" lon="2.23897">
        <ele>135.7</ele>
        <time>2022-10-07T12:39:11Z</time>
      </trkpt>
      <trkpt lat="49.77083" lon="2.23897">
        <ele>135.7</ele>
        <time>2022-10-07T12:39:12Z</time>
      </trkpt>
      <trkpt lat="49.77082" lon="2.23897">
        <ele>135.7</ele>
        <time>2022-10-07T12:39:13Z</time>
      </trkpt>
      <trkpt lat="49.77081" lon="2.23896">
        <ele>135.7</ele>
        <time>2022-10-07T12:39:14Z</time>
      </trkpt>
      <trkpt lat="49.77081" lon="2.23896">
        <ele>135.7</ele>
        <time>2022-10-07T12:39:16Z</time>
      </trkpt>
      <trkpt lat="49.7708" lon="2.23896">
        <ele>135.7</ele>
        <time>2022-10-07T12:39:17Z</time>
      </trkpt>
      <trkpt lat="49.7708" lon="2.23896">
        <ele>135.7</ele>
        <time>2022-10-07T12:39:18Z</time>
      </trkpt>
      <trkpt lat="49.77079" lon="2.23895">
        <ele>135.7</ele>
        <time>2022-10-07T12:39:20Z</time>
      </trkpt>
      <trkpt lat="49.77079" lon="2.23895">
        <ele>135.7</ele>
        <time>2022-10-07T12:39:21Z</time>
      </trkpt>
      <trkpt lat="49.77078" lon="2.23895">
        <ele>135.7</ele>
        <time>2022-10-07T12:39:22Z</time>
      </trkpt>
      <trkpt lat="49.77078" lon="2.23895">
        <ele>135.7</ele>
        <time>2022-10-07T12:39:23Z</time>
      </trkpt>
      <trkpt lat="49.77076" lon="2.23893">
        <ele>135.8</ele>
        <time>2022-10-07T12:39:24Z</time>
      </trkpt>
      <trkpt lat="49.77075" lon="2.23892">
        <ele>135.8</ele>
        <time>2022-10-07T12:39:25Z</time>
      </trkpt>
      <trkpt lat="49.77074" lon="2.23892">
        <ele>135.8</ele>
        <time>2022-10-07T12:39:26Z</time>
      </trkpt>
      <trkpt lat="49.77073" lon="2.23891">
        <ele>135.8</ele>
        <time>2022-10-07T12:39:27Z</time>
      </trkpt>
      <trkpt lat="49.77072" lon="2.2389">
        <ele>135.8</ele>
        <time>2022-10-07T12:39:28Z</time>
      </trkpt>
      <trkpt lat="49.77071" lon="2.23889">
        <ele>135.8</ele>
        <time>2022-10-07T12:39:30Z</time>
      </trkpt>
      <trkpt lat="49.77069" lon="2.23888">
        <ele>135.8</ele>
        <time>2022-10-07T12:39:31Z</time>
      </trkpt>
      <trkpt lat="49.77068" lon="2.23888">
        <ele>135.8</ele>
        <time>2022-10-07T12:39:32Z</time>
      </trkpt>
      <trkpt lat="49.77067" lon="2.23887">
        <ele>135.8</ele>
        <time>2022-10-07T12:39:33Z</time>
      </trkpt>
      <trkpt lat="49.77066" lon="2.23887">
        <ele>135.8</ele>
        <time>2022-10-07T12:39:34Z</time>
      </trkpt>
      <trkpt lat="49.77064" lon="2.23887">
        <ele>135.8</ele>
        <time>2022-10-07T12:39:35Z</time>
      </trkpt>
      <trkpt lat="49.77063" lon="2.23886">
        <ele>135.8</ele>
        <time>2022-10-07T12:39:37Z</time>
      </trkpt>
      <trkpt lat="49.77061" lon="2.23886">
        <ele>135.8</ele>
        <time>2022-10-07T12:39:38Z</time>
      </trkpt>
      <trkpt lat="49.7706" lon="2.23886">
        <ele>135.8</ele>
        <time>2022-10-07T12:39:39Z</time>
      </trkpt>
      <trkpt lat="49.77058" lon="2.23885">
        <ele>135.8</ele>
        <time>2022-10-07T12:39:40Z</time>
      </trkpt>
      <trkpt lat="49.77057" lon="2.23885">
        <ele>135.8</ele>
        <time>2022-10-07T12:39:41Z</time>
      </trkpt>
      <trkpt lat="49.77056" lon="2.23885">
        <ele>135.8</ele>
        <time>2022-10-07T12:39:42Z</time>
      </trkpt>
      <trkpt lat="49.77055" lon="2.23884">
        <ele>135.8</ele>
        <time>2022-10-07T12:39:43Z</time>
      </trkpt>
      <trkpt lat="49.77054" lon="2.23884">
        <ele>135.8</ele>
        <time>2022-10-07T12:39:45Z</time>
      </trkpt>
      <trkpt lat="49.77053" lon="2.23884">
        <ele>135.8</ele>
        <time>2022-10-07T12:39:46Z</time>
      </trkpt>
      <trkpt lat="49.77051" lon="2.23883">
        <ele>135.8</ele>
        <time>2022-10-07T12:39:47Z</time>
      </trkpt>
      <trkpt lat="49.7705" lon="2.23882">
        <ele>135.8</ele>
        <time>2022-10-07T12:39:48Z</time>
      </trkpt>
      <trkpt lat="49.77049" lon="2.23882">
        <ele>135.8</ele>
        <time>2022-10-07T12:39:49Z</time>
      </trkpt>
      <trkpt lat="49.77048" lon="2.23881">
        <ele>135.8</ele>
        <time>2022-10-07T12:39:50Z</time>
      </trkpt>
      <trkpt lat="49.77047" lon="2.23881">
        <ele>135.9</ele>
        <time>2022-10-07T12:39:51Z</time>
      </trkpt>
      <trkpt lat="49.77045" lon="2.2388">
        <ele>135.9</ele>
        <time>2022-10-07T12:39:52Z</time>
      </trkpt>
      <trkpt lat="49.77044" lon="2.2388">
        <ele>135.9</ele>
        <time>2022-10-07T12:39:54Z</time>
      </trkpt>
      <trkpt lat="49.77043" lon="2.23879">
        <ele>135.9</ele>
        <time>2022-10-07T12:39:55Z</time>
      </trkpt>
      <trkpt lat="49.77042" lon="2.23879">
        <ele>135.9</ele>
        <time>2022-10-07T12:39:56Z</time>
      </trkpt>
      <trkpt lat="49.7704" lon="2.23878">
        <ele>135.9</ele>
        <time>2022-10-07T12:39:58Z</time>
      </trkpt>
      <trkpt lat="49.77038" lon="2.23877">
        <ele>135.9</ele>
        <time>2022-10-07T12:39:59Z</time>
      </trkpt>
      <trkpt lat="49.77037" lon="2.23877">
        <ele>136</ele>
        <time>2022-10-07T12:40:00Z</time>
      </trkpt>
      <trkpt lat="49.77036" lon="2.23876">
        <ele>136</ele>
        <time>2022-10-07T12:40:01Z</time>
      </trkpt>
      <trkpt lat="49.77034" lon="2.23876">
        <ele>136</ele>
        <time>2022-10-07T12:40:02Z</time>
      </trkpt>
      <trkpt lat="49.77033" lon="2.23875">
        <ele>136</ele>
        <time>2022-10-07T12:40:03Z</time>
      </trkpt>
      <trkpt lat="49.77032" lon="2.23875">
        <ele>136</ele>
        <time>2022-10-07T12:40:05Z</time>
      </trkpt>
      <trkpt lat="49.7703" lon="2.23874">
        <ele>136</ele>
        <time>2022-10-07T12:40:06Z</time>
      </trkpt>
      <trkpt lat="49.77027" lon="2.23872">
        <ele>136.1</ele>
        <time>2022-10-07T12:40:08Z</time>
      </trkpt>
      <trkpt lat="49.77027" lon="2.23872">
        <ele>136.1</ele>
        <time>2022-10-07T12:40:09Z</time>
      </trkpt>
      <trkpt lat="49.77026" lon="2.23872">
        <ele>136.1</ele>
        <time>2022-10-07T12:40:10Z</time>
      </trkpt>
      <trkpt lat="49.77025" lon="2.23871">
        <ele>136.1</ele>
        <time>2022-10-07T12:40:11Z</time>
      </trkpt>
      <trkpt lat="49.77023" lon="2.23871">
        <ele>136.1</ele>
        <time>2022-10-07T12:40:12Z</time>
      </trkpt>
      <trkpt lat="49.77022" lon="2.23871">
        <ele>136.2</ele>
        <time>2022-10-07T12:40:14Z</time>
      </trkpt>
      <trkpt lat="49.7702" lon="2.2387">
        <ele>136.2</ele>
        <time>2022-10-07T12:40:15Z</time>
      </trkpt>
      <trkpt lat="49.77018" lon="2.2387">
        <ele>136.2</ele>
        <time>2022-10-07T12:40:16Z</time>
      </trkpt>
      <trkpt lat="49.77017" lon="2.2387">
        <ele>136.2</ele>
        <time>2022-10-07T12:40:17Z</time>
      </trkpt>
      <trkpt lat="49.77016" lon="2.2387">
        <ele>136.2</ele>
        <time>2022-10-07T12:40:18Z</time>
      </trkpt>
      <trkpt lat="49.77014" lon="2.23869">
        <ele>136.2</ele>
        <time>2022-10-07T12:40:19Z</time>
      </trkpt>
      <trkpt lat="49.77013" lon="2.23869">
        <ele>136.3</ele>
        <time>2022-10-07T12:40:20Z</time>
      </trkpt>
      <trkpt lat="49.77012" lon="2.23869">
        <ele>136.3</ele>
        <time>2022-10-07T12:40:21Z</time>
      </trkpt>
      <trkpt lat="49.7701" lon="2.23868">
        <ele>136.3</ele>
        <time>2022-10-07T12:40:22Z</time>
      </trkpt>
      <trkpt lat="49.77009" lon="2.23868">
        <ele>136.3</ele>
        <time>2022-10-07T12:40:24Z</time>
      </trkpt>
      <trkpt lat="49.77009" lon="2.23868">
        <ele>136.3</ele>
        <time>2022-10-07T12:40:25Z</time>
      </trkpt>
      <trkpt lat="49.77007" lon="2.23867">
        <ele>136.3</ele>
        <time>2022-10-07T12:40:26Z</time>
      </trkpt>
      <trkpt lat="49.77006" lon="2.23866">
        <ele>136.3</ele>
        <time>2022-10-07T12:40:27Z</time>
      </trkpt>
      <trkpt lat="49.77005" lon="2.23865">
        <ele>136.3</ele>
        <time>2022-10-07T12:40:28Z</time>
      </trkpt>
      <trkpt lat="49.77004" lon="2.23865">
        <ele>136.3</ele>
        <time>2022-10-07T12:40:29Z</time>
      </trkpt>
      <trkpt lat="49.77003" lon="2.23864">
        <ele>136.4</ele>
        <time>2022-10-07T12:40:30Z</time>
      </trkpt>
      <trkpt lat="49.77001" lon="2.23863">
        <ele>136.4</ele>
        <time>2022-10-07T12:40:31Z</time>
      </trkpt>
      <trkpt lat="49.77" lon="2.23862">
        <ele>136.4</ele>
        <time>2022-10-07T12:40:33Z</time>
      </trkpt>
      <trkpt lat="49.76999" lon="2.23861">
        <ele>136.4</ele>
        <time>2022-10-07T12:40:34Z</time>
      </trkpt>
      <trkpt lat="49.76998" lon="2.23861">
        <ele>136.4</ele>
        <time>2022-10-07T12:40:35Z</time>
      </trkpt>
      <trkpt lat="49.76996" lon="2.2386">
        <ele>136.4</ele>
        <time>2022-10-07T12:40:36Z</time>
      </trkpt>
      <trkpt lat="49.76994" lon="2.23859">
        <ele>136.4</ele>
        <time>2022-10-07T12:40:38Z</time>
      </trkpt>
      <trkpt lat="49.76994" lon="2.23859">
        <ele>136.4</ele>
        <time>2022-10-07T12:40:39Z</time>
      </trkpt>
      <trkpt lat="49.76992" lon="2.23859">
        <ele>136.4</ele>
        <time>2022-10-07T12:40:41Z</time>
      </trkpt>
      <trkpt lat="49.76991" lon="2.23858">
        <ele>136.4</ele>
        <time>2022-10-07T12:40:42Z</time>
      </trkpt>
      <trkpt lat="49.76989" lon="2.23857">
        <ele>136.4</ele>
        <time>2022-10-07T12:40:43Z</time>
      </trkpt>
      <trkpt lat="49.76988" lon="2.23857">
        <ele>136.4</ele>
        <time>2022-10-07T12:40:44Z</time>
      </trkpt>
      <trkpt lat="49.76986" lon="2.23856">
        <ele>136.4</ele>
        <time>2022-10-07T12:40:45Z</time>
      </trkpt>
      <trkpt lat="49.76985" lon="2.23856">
        <ele>136.4</ele>
        <time>2022-10-07T12:40:46Z</time>
      </trkpt>
      <trkpt lat="49.76984" lon="2.23855">
        <ele>136.4</ele>
        <time>2022-10-07T12:40:47Z</time>
      </trkpt>
      <trkpt lat="49.76983" lon="2.23855">
        <ele>136.4</ele>
        <time>2022-10-07T12:40:48Z</time>
      </trkpt>
      <trkpt lat="49.76982" lon="2.23854">
        <ele>136.4</ele>
        <time>2022-10-07T12:40:49Z</time>
      </trkpt>
      <trkpt lat="49.7698" lon="2.23853">
        <ele>136.4</ele>
        <time>2022-10-07T12:40:51Z</time>
      </trkpt>
      <trkpt lat="49.7698" lon="2.23853">
        <ele>136.4</ele>
        <time>2022-10-07T12:40:52Z</time>
      </trkpt>
      <trkpt lat="49.76978" lon="2.23852">
        <ele>136.4</ele>
        <time>2022-10-07T12:40:53Z</time>
      </trkpt>
      <trkpt lat="49.76978" lon="2.23852">
        <ele>136.4</ele>
        <time>2022-10-07T12:40:54Z</time>
      </trkpt>
      <trkpt lat="49.76977" lon="2.23851">
        <ele>136.4</ele>
        <time>2022-10-07T12:40:55Z</time>
      </trkpt>
      <trkpt lat="49.76975" lon="2.2385">
        <ele>136.4</ele>
        <time>2022-10-07T12:40:57Z</time>
      </trkpt>
      <trkpt lat="49.76973" lon="2.2385">
        <ele>136.4</ele>
        <time>2022-10-07T12:40:58Z</time>
      </trkpt>
      <trkpt lat="49.76972" lon="2.2385">
        <ele>136.4</ele>
        <time>2022-10-07T12:40:59Z</time>
      </trkpt>
      <trkpt lat="49.7697" lon="2.23849">
        <ele>136.5</ele>
        <time>2022-10-07T12:41:00Z</time>
      </trkpt>
      <trkpt lat="49.76969" lon="2.23848">
        <ele>136.5</ele>
        <time>2022-10-07T12:41:01Z</time>
      </trkpt>
      <trkpt lat="49.76968" lon="2.23848">
        <ele>136.5</ele>
        <time>2022-10-07T12:41:02Z</time>
      </trkpt>
      <trkpt lat="49.76965" lon="2.23847">
        <ele>136.5</ele>
        <time>2022-10-07T12:41:03Z</time>
      </trkpt>
      <trkpt lat="49.76964" lon="2.23847">
        <ele>136.5</ele>
        <time>2022-10-07T12:41:05Z</time>
      </trkpt>
      <trkpt lat="49.76963" lon="2.23846">
        <ele>136.5</ele>
        <time>2022-10-07T12:41:06Z</time>
      </trkpt>
      <trkpt lat="49.76962" lon="2.23846">
        <ele>136.5</ele>
        <time>2022-10-07T12:41:07Z</time>
      </trkpt>
      <trkpt lat="49.76961" lon="2.23845">
        <ele>136.5</ele>
        <time>2022-10-07T12:41:08Z</time>
      </trkpt>
      <trkpt lat="49.7696" lon="2.23845">
        <ele>136.5</ele>
        <time>2022-10-07T12:41:09Z</time>
      </trkpt>
      <trkpt lat="49.76958" lon="2.23844">
        <ele>136.5</ele>
        <time>2022-10-07T12:41:11Z</time>
      </trkpt>
      <trkpt lat="49.76957" lon="2.23843">
        <ele>136.5</ele>
        <time>2022-10-07T12:41:12Z</time>
      </trkpt>
      <trkpt lat="49.76956" lon="2.23843">
        <ele>136.5</ele>
        <time>2022-10-07T12:41:13Z</time>
      </trkpt>
      <trkpt lat="49.76955" lon="2.23842">
        <ele>136.5</ele>
        <time>2022-10-07T12:41:14Z</time>
      </trkpt>
      <trkpt lat="49.76954" lon="2.23842">
        <ele>136.5</ele>
        <time>2022-10-07T12:41:15Z</time>
      </trkpt>
      <trkpt lat="49.76953" lon="2.23842">
        <ele>136.5</ele>
        <time>2022-10-07T12:41:16Z</time>
      </trkpt>
      <trkpt lat="49.76951" lon="2.23841">
        <ele>136.5</ele>
        <time>2022-10-07T12:41:17Z</time>
      </trkpt>
      <trkpt lat="49.7695" lon="2.23841">
        <ele>136.5</ele>
        <time>2022-10-07T12:41:18Z</time>
      </trkpt>
      <trkpt lat="49.76948" lon="2.23841">
        <ele>136.5</ele>
        <time>2022-10-07T12:41:19Z</time>
      </trkpt>
      <trkpt lat="49.76947" lon="2.2384">
        <ele>136.5</ele>
        <time>2022-10-07T12:41:20Z</time>
      </trkpt>
      <trkpt lat="49.76946" lon="2.2384">
        <ele>136.5</ele>
        <time>2022-10-07T12:41:21Z</time>
      </trkpt>
      <trkpt lat="49.76945" lon="2.2384">
        <ele>136.5</ele>
        <time>2022-10-07T12:41:23Z</time>
      </trkpt>
      <trkpt lat="49.76943" lon="2.2384">
        <ele>136.5</ele>
        <time>2022-10-07T12:41:24Z</time>
      </trkpt>
      <trkpt lat="49.76942" lon="2.2384">
        <ele>136.5</ele>
        <time>2022-10-07T12:41:25Z</time>
      </trkpt>
      <trkpt lat="49.76941" lon="2.23839">
        <ele>136.5</ele>
        <time>2022-10-07T12:41:26Z</time>
      </trkpt>
      <trkpt lat="49.7694" lon="2.23839">
        <ele>136.5</ele>
        <time>2022-10-07T12:41:27Z</time>
      </trkpt>
      <trkpt lat="49.76938" lon="2.23839">
        <ele>136.5</ele>
        <time>2022-10-07T12:41:28Z</time>
      </trkpt>
      <trkpt lat="49.76937" lon="2.23839">
        <ele>136.5</ele>
        <time>2022-10-07T12:41:29Z</time>
      </trkpt>
      <trkpt lat="49.76935" lon="2.23838">
        <ele>136.5</ele>
        <time>2022-10-07T12:41:31Z</time>
      </trkpt>
      <trkpt lat="49.76934" lon="2.23838">
        <ele>136.5</ele>
        <time>2022-10-07T12:41:32Z</time>
      </trkpt>
      <trkpt lat="49.76932" lon="2.23837">
        <ele>136.5</ele>
        <time>2022-10-07T12:41:33Z</time>
      </trkpt>
      <trkpt lat="49.76931" lon="2.23837">
        <ele>136.5</ele>
        <time>2022-10-07T12:41:34Z</time>
      </trkpt>
      <trkpt lat="49.76931" lon="2.23837">
        <ele>136.5</ele>
        <time>2022-10-07T12:41:35Z</time>
      </trkpt>
      <trkpt lat="49.76929" lon="2.23837">
        <ele>136.5</ele>
        <time>2022-10-07T12:41:36Z</time>
      </trkpt>
      <trkpt lat="49.76928" lon="2.23836">
        <ele>136.5</ele>
        <time>2022-10-07T12:41:38Z</time>
      </trkpt>
      <trkpt lat="49.76926" lon="2.23835">
        <ele>136.5</ele>
        <time>2022-10-07T12:41:39Z</time>
      </trkpt>
      <trkpt lat="49.76925" lon="2.23835">
        <ele>136.5</ele>
        <time>2022-10-07T12:41:40Z</time>
      </trkpt>
      <trkpt lat="49.76924" lon="2.23834">
        <ele>136.5</ele>
        <time>2022-10-07T12:41:41Z</time>
      </trkpt>
      <trkpt lat="49.76922" lon="2.23834">
        <ele>136.5</ele>
        <time>2022-10-07T12:41:42Z</time>
      </trkpt>
      <trkpt lat="49.76921" lon="2.23833">
        <ele>136.6</ele>
        <time>2022-10-07T12:41:43Z</time>
      </trkpt>
      <trkpt lat="49.7692" lon="2.23833">
        <ele>136.6</ele>
        <time>2022-10-07T12:41:44Z</time>
      </trkpt>
      <trkpt lat="49.76919" lon="2.23832">
        <ele>136.6</ele>
        <time>2022-10-07T12:41:45Z</time>
      </trkpt>
      <trkpt lat="49.76917" lon="2.23831">
        <ele>136.6</ele>
        <time>2022-10-07T12:41:46Z</time>
      </trkpt>
      <trkpt lat="49.76915" lon="2.2383">
        <ele>136.6</ele>
        <time>2022-10-07T12:41:48Z</time>
      </trkpt>
      <trkpt lat="49.76914" lon="2.2383">
        <ele>136.6</ele>
        <time>2022-10-07T12:41:49Z</time>
      </trkpt>
      <trkpt lat="49.76913" lon="2.23829">
        <ele>136.6</ele>
        <time>2022-10-07T12:41:50Z</time>
      </trkpt>
      <trkpt lat="49.76912" lon="2.23829">
        <ele>136.6</ele>
        <time>2022-10-07T12:41:52Z</time>
      </trkpt>
      <trkpt lat="49.7691" lon="2.23828">
        <ele>136.6</ele>
        <time>2022-10-07T12:41:53Z</time>
      </trkpt>
      <trkpt lat="49.76909" lon="2.23827">
        <ele>136.6</ele>
        <time>2022-10-07T12:41:54Z</time>
      </trkpt>
      <trkpt lat="49.76908" lon="2.23827">
        <ele>136.7</ele>
        <time>2022-10-07T12:41:55Z</time>
      </trkpt>
      <trkpt lat="49.76907" lon="2.23827">
        <ele>136.7</ele>
        <time>2022-10-07T12:41:56Z</time>
      </trkpt>
      <trkpt lat="49.76906" lon="2.23826">
        <ele>136.7</ele>
        <time>2022-10-07T12:41:57Z</time>
      </trkpt>
      <trkpt lat="49.76904" lon="2.23826">
        <ele>136.7</ele>
        <time>2022-10-07T12:41:58Z</time>
      </trkpt>
      <trkpt lat="49.76903" lon="2.23826">
        <ele>136.7</ele>
        <time>2022-10-07T12:41:59Z</time>
      </trkpt>
      <trkpt lat="49.76901" lon="2.23825">
        <ele>136.7</ele>
        <time>2022-10-07T12:42:00Z</time>
      </trkpt>
      <trkpt lat="49.769" lon="2.23825">
        <ele>136.7</ele>
        <time>2022-10-07T12:42:02Z</time>
      </trkpt>
      <trkpt lat="49.76899" lon="2.23825">
        <ele>136.7</ele>
        <time>2022-10-07T12:42:03Z</time>
      </trkpt>
      <trkpt lat="49.76897" lon="2.23825">
        <ele>136.7</ele>
        <time>2022-10-07T12:42:04Z</time>
      </trkpt>
      <trkpt lat="49.76896" lon="2.23824">
        <ele>136.7</ele>
        <time>2022-10-07T12:42:05Z</time>
      </trkpt>
      <trkpt lat="49.76895" lon="2.23824">
        <ele>136.7</ele>
        <time>2022-10-07T12:42:07Z</time>
      </trkpt>
      <trkpt lat="49.76894" lon="2.23824">
        <ele>136.7</ele>
        <time>2022-10-07T12:42:08Z</time>
      </trkpt>
      <trkpt lat="49.76892" lon="2.23824">
        <ele>136.8</ele>
        <time>2022-10-07T12:42:09Z</time>
      </trkpt>
      <trkpt lat="49.76891" lon="2.23824">
        <ele>136.8</ele>
        <time>2022-10-07T12:42:10Z</time>
      </trkpt>
      <trkpt lat="49.7689" lon="2.23824">
        <ele>136.8</ele>
        <time>2022-10-07T12:42:11Z</time>
      </trkpt>
      <trkpt lat="49.76889" lon="2.23824">
        <ele>136.8</ele>
        <time>2022-10-07T12:42:12Z</time>
      </trkpt>
      <trkpt lat="49.76887" lon="2.23823">
        <ele>136.8</ele>
        <time>2022-10-07T12:42:14Z</time>
      </trkpt>
      <trkpt lat="49.76886" lon="2.23823">
        <ele>136.8</ele>
        <time>2022-10-07T12:42:15Z</time>
      </trkpt>
      <trkpt lat="49.76885" lon="2.23822">
        <ele>136.8</ele>
        <time>2022-10-07T12:42:16Z</time>
      </trkpt>
      <trkpt lat="49.76884" lon="2.23821">
        <ele>136.8</ele>
        <time>2022-10-07T12:42:17Z</time>
      </trkpt>
      <trkpt lat="49.76883" lon="2.2382">
        <ele>136.8</ele>
        <time>2022-10-07T12:42:18Z</time>
      </trkpt>
      <trkpt lat="49.76882" lon="2.2382">
        <ele>136.8</ele>
        <time>2022-10-07T12:42:19Z</time>
      </trkpt>
      <trkpt lat="49.76881" lon="2.23819">
        <ele>136.8</ele>
        <time>2022-10-07T12:42:20Z</time>
      </trkpt>
      <trkpt lat="49.7688" lon="2.23818">
        <ele>136.8</ele>
        <time>2022-10-07T12:42:21Z</time>
      </trkpt>
      <trkpt lat="49.76878" lon="2.23817">
        <ele>136.9</ele>
        <time>2022-10-07T12:42:23Z</time>
      </trkpt>
      <trkpt lat="49.76877" lon="2.23817">
        <ele>136.9</ele>
        <time>2022-10-07T12:42:24Z</time>
      </trkpt>
      <trkpt lat="49.76876" lon="2.23816">
        <ele>136.9</ele>
        <time>2022-10-07T12:42:25Z</time>
      </trkpt>
      <trkpt lat="49.76876" lon="2.23816">
        <ele>136.9</ele>
        <time>2022-10-07T12:42:26Z</time>
      </trkpt>
      <trkpt lat="49.76875" lon="2.23814">
        <ele>136.9</ele>
        <time>2022-10-07T12:42:27Z</time>
      </trkpt>
      <trkpt lat="49.76874" lon="2.23813">
        <ele>136.9</ele>
        <time>2022-10-07T12:42:29Z</time>
      </trkpt>
      <trkpt lat="49.76874" lon="2.23813">
        <ele>136.9</ele>
        <time>2022-10-07T12:42:30Z</time>
      </trkpt>
      <trkpt lat="49.76874" lon="2.23813">
        <ele>136.9</ele>
        <time>2022-10-07T12:42:31Z</time>
      </trkpt>
      <trkpt lat="49.76874" lon="2.23813">
        <ele>136.9</ele>
        <time>2022-10-07T12:42:32Z</time>
      </trkpt>
      <trkpt lat="49.76874" lon="2.23813">
        <ele>136.9</ele>
        <time>2022-10-07T12:42:33Z</time>
      </trkpt>
      <trkpt lat="49.76874" lon="2.23813">
        <ele>136.9</ele>
        <time>2022-10-07T12:42:34Z</time>
      </trkpt>
      <trkpt lat="49.76874" lon="2.23813">
        <ele>136.9</ele>
        <time>2022-10-07T12:42:35Z</time>
      </trkpt>
      <trkpt lat="49.76874" lon="2.23813">
        <ele>136.9</ele>
        <time>2022-10-07T12:42:36Z</time>
      </trkpt>
      <trkpt lat="49.76874" lon="2.23813">
        <ele>136.9</ele>
        <time>2022-10-07T12:42:37Z</time>
      </trkpt>
      <trkpt lat="49.76874" lon="2.23813">
        <ele>136.9</ele>
        <time>2022-10-07T12:42:38Z</time>
      </trkpt>
      <trkpt lat="49.76874" lon="2.23813">
        <ele>136.9</ele>
        <time>2022-10-07T12:42:39Z</time>
      </trkpt>
      <trkpt lat="49.76874" lon="2.23813">
        <ele>136.9</ele>
        <time>2022-10-07T12:42:40Z</time>
      </trkpt>
      <trkpt lat="49.76874" lon="2.23813">
        <ele>136.9</ele>
        <time>2022-10-07T12:42:41Z</time>
      </trkpt>
      <trkpt lat="49.76874" lon="2.23813">
        <ele>136.9</ele>
        <time>2022-10-07T12:42:42Z</time>
      </trkpt>
      <trkpt lat="49.76874" lon="2.23813">
        <ele>136.9</ele>
        <time>2022-10-07T12:42:43Z</time>
      </trkpt>
      <trkpt lat="49.76874" lon="2.23813">
        <ele>136.9</ele>
        <time>2022-10-07T12:42:44Z</time>
      </trkpt>
      <trkpt lat="49.76874" lon="2.23813">
        <ele>136.9</ele>
        <time>2022-10-07T12:42:45Z</time>
      </trkpt>
      <trkpt lat="49.76874" lon="2.23813">
        <ele>136.9</ele>
        <time>2022-10-07T12:42:46Z</time>
      </trkpt>
      <trkpt lat="49.76874" lon="2.23813">
        <ele>136.9</ele>
        <time>2022-10-07T12:42:47Z</time>
      </trkpt>
      <trkpt lat="49.76874" lon="2.23813">
        <ele>136.9</ele>
        <time>2022-10-07T12:42:48Z</time>
      </trkpt>
      <trkpt lat="49.76874" lon="2.23813">
        <ele>136.9</ele>
        <time>2022-10-07T12:42:49Z</time>
      </trkpt>
      <trkpt lat="49.76874" lon="2.23813">
        <ele>136.9</ele>
        <time>2022-10-07T12:42:50Z</time>
      </trkpt>
      <trkpt lat="49.76874" lon="2.23813">
        <ele>136.9</ele>
        <time>2022-10-07T12:42:51Z</time>
      </trkpt>
      <trkpt lat="49.76874" lon="2.23813">
        <ele>136.9</ele>
        <time>2022-10-07T12:42:52Z</time>
      </trkpt>
      <trkpt lat="49.76874" lon="2.23813">
        <ele>136.9</ele>
        <time>2022-10-07T12:42:53Z</time>
      </trkpt>
      <trkpt lat="49.76874" lon="2.23813">
        <ele>136.9</ele>
        <time>2022-10-07T12:42:54Z</time>
      </trkpt>
      <trkpt lat="49.76874" lon="2.23813">
        <ele>136.9</ele>
        <time>2022-10-07T12:42:55Z</time>
      </trkpt>
      <trkpt lat="49.76874" lon="2.23813">
        <ele>136.9</ele>
        <time>2022-10-07T12:42:56Z</time>
      </trkpt>
      <trkpt lat="49.76874" lon="2.23813">
        <ele>136.9</ele>
        <time>2022-10-07T12:42:57Z</time>
      </trkpt>
      <trkpt lat="49.76874" lon="2.23813">
        <ele>136.9</ele>
        <time>2022-10-07T12:42:58Z</time>
      </trkpt>
      <trkpt lat="49.76874" lon="2.23813">
        <ele>136.9</ele>
        <time>2022-10-07T12:42:59Z</time>
      </trkpt>
      <trkpt lat="49.76874" lon="2.23813">
        <ele>136.9</ele>
        <time>2022-10-07T12:43:00Z</time>
      </trkpt>
      <trkpt lat="49.76874" lon="2.23813">
        <ele>136.9</ele>
        <time>2022-10-07T12:43:01Z</time>
      </trkpt>
      <trkpt lat="49.76875" lon="2.23813">
        <ele>136.9</ele>
        <time>2022-10-07T12:43:02Z</time>
      </trkpt>
      <trkpt lat="49.76875" lon="2.23813">
        <ele>136.9</ele>
        <time>2022-10-07T12:43:03Z</time>
      </trkpt>
      <trkpt lat="49.76875" lon="2.23813">
        <ele>136.9</ele>
        <time>2022-10-07T12:43:04Z</time>
      </trkpt>
      <trkpt lat="49.76875" lon="2.23813">
        <ele>136.9</ele>
        <time>2022-10-07T12:43:05Z</time>
      </trkpt>
      <trkpt lat="49.76875" lon="2.23813">
        <ele>136.9</ele>
        <time>2022-10-07T12:43:06Z</time>
      </trkpt>
      <trkpt lat="49.76875" lon="2.23813">
        <ele>136.9</ele>
        <time>2022-10-07T12:43:07Z</time>
      </trkpt>
      <trkpt lat="49.76875" lon="2.23813">
        <ele>136.9</ele>
        <time>2022-10-07T12:43:08Z</time>
      </trkpt>
      <trkpt lat="49.76875" lon="2.23813">
        <ele>136.9</ele>
        <time>2022-10-07T12:43:09Z</time>
      </trkpt>
      <trkpt lat="49.76875" lon="2.23813">
        <ele>136.9</ele>
        <time>2022-10-07T12:43:10Z</time>
      </trkpt>
      <trkpt lat="49.76875" lon="2.23813">
        <ele>136.9</ele>
        <time>2022-10-07T12:43:11Z</time>
      </trkpt>
      <trkpt lat="49.76875" lon="2.23813">
        <ele>136.9</ele>
        <time>2022-10-07T12:43:12Z</time>
      </trkpt>
      <trkpt lat="49.76875" lon="2.23813">
        <ele>136.9</ele>
        <time>2022-10-07T12:43:13Z</time>
      </trkpt>
      <trkpt lat="49.76875" lon="2.23813">
        <ele>136.9</ele>
        <time>2022-10-07T12:43:14Z</time>
      </trkpt>
      <trkpt lat="49.76875" lon="2.23813">
        <ele>136.9</ele>
        <time>2022-10-07T12:43:15Z</time>
      </trkpt>
      <trkpt lat="49.76875" lon="2.23813">
        <ele>136.9</ele>
        <time>2022-10-07T12:43:16Z</time>
      </trkpt>
      <trkpt lat="49.76875" lon="2.23813">
        <ele>136.9</ele>
        <time>2022-10-07T12:43:17Z</time>
      </trkpt>
      <trkpt lat="49.76875" lon="2.23813">
        <ele>136.9</ele>
        <time>2022-10-07T12:43:18Z</time>
      </trkpt>
      <trkpt lat="49.76875" lon="2.23813">
        <ele>136.9</ele>
        <time>2022-10-07T12:43:19Z</time>
      </trkpt>
      <trkpt lat="49.76875" lon="2.23813">
        <ele>136.9</ele>
        <time>2022-10-07T12:43:20Z</time>
      </trkpt>
      <trkpt lat="49.76875" lon="2.23813">
        <ele>136.9</ele>
        <time>2022-10-07T12:43:21Z</time>
      </trkpt>
      <trkpt lat="49.76875" lon="2.23813">
        <ele>136.9</ele>
        <time>2022-10-07T12:43:22Z</time>
      </trkpt>
      <trkpt lat="49.76875" lon="2.23813">
        <ele>136.9</ele>
        <time>2022-10-07T12:43:23Z</time>
      </trkpt>
      <trkpt lat="49.76875" lon="2.23813">
        <ele>136.9</ele>
        <time>2022-10-07T12:43:24Z</time>
      </trkpt>
      <trkpt lat="49.76875" lon="2.23813">
        <ele>136.9</ele>
        <time>2022-10-07T12:43:25Z</time>
      </trkpt>
      <trkpt lat="49.76875" lon="2.23813">
        <ele>136.9</ele>
        <time>2022-10-07T12:43:26Z</time>
      </trkpt>
      <trkpt lat="49.76875" lon="2.23813">
        <ele>136.9</ele>
        <time>2022-10-07T12:43:27Z</time>
      </trkpt>
      <trkpt lat="49.76875" lon="2.23813">
        <ele>136.9</ele>
        <time>2022-10-07T12:43:28Z</time>
      </trkpt>
      <trkpt lat="49.76875" lon="2.23813">
        <ele>136.9</ele>
        <time>2022-10-07T12:43:29Z</time>
      </trkpt>
      <trkpt lat="49.76875" lon="2.23813">
        <ele>136.9</ele>
        <time>2022-10-07T12:43:30Z</time>
      </trkpt>
      <trkpt lat="49.76875" lon="2.23813">
        <ele>136.9</ele>
        <time>2022-10-07T12:43:31Z</time>
      </trkpt>
      <trkpt lat="49.76875" lon="2.23813">
        <ele>136.9</ele>
        <time>2022-10-07T12:43:32Z</time>
      </trkpt>
      <trkpt lat="49.76875" lon="2.23813">
        <ele>136.9</ele>
        <time>2022-10-07T12:43:33Z</time>
      </trkpt>
      <trkpt lat="49.76876" lon="2.23813">
        <ele>136.9</ele>
        <time>2022-10-07T12:43:34Z</time>
      </trkpt>
      <trkpt lat="49.76876" lon="2.23813">
        <ele>136.9</ele>
        <time>2022-10-07T12:43:35Z</time>
      </trkpt>
      <trkpt lat="49.76876" lon="2.23813">
        <ele>136.9</ele>
        <time>2022-10-07T12:43:36Z</time>
      </trkpt>
      <trkpt lat="49.76876" lon="2.23813">
        <ele>136.9</ele>
        <time>2022-10-07T12:43:37Z</time>
      </trkpt>
      <trkpt lat="49.76876" lon="2.23813">
        <ele>136.9</ele>
        <time>2022-10-07T12:43:38Z</time>
      </trkpt>
      <trkpt lat="49.76876" lon="2.23813">
        <ele>136.9</ele>
        <time>2022-10-07T12:43:39Z</time>
      </trkpt>
      <trkpt lat="49.76876" lon="2.23813">
        <ele>136.9</ele>
        <time>2022-10-07T12:43:40Z</time>
      </trkpt>
      <trkpt lat="49.76876" lon="2.23813">
        <ele>136.9</ele>
        <time>2022-10-07T12:43:41Z</time>
      </trkpt>
      <trkpt lat="49.76876" lon="2.23813">
        <ele>136.9</ele>
        <time>2022-10-07T12:43:42Z</time>
      </trkpt>
      <trkpt lat="49.76876" lon="2.23813">
        <ele>136.9</ele>
        <time>2022-10-07T12:43:43Z</time>
      </trkpt>
      <trkpt lat="49.76876" lon="2.23813">
        <ele>136.9</ele>
        <time>2022-10-07T12:43:44Z</time>
      </trkpt>
      <trkpt lat="49.76876" lon="2.23813">
        <ele>136.9</ele>
        <time>2022-10-07T12:43:45Z</time>
      </trkpt>
      <trkpt lat="49.76876" lon="2.23813">
        <ele>136.9</ele>
        <time>2022-10-07T12:43:46Z</time>
      </trkpt>
      <trkpt lat="49.76876" lon="2.23813">
        <ele>136.9</ele>
        <time>2022-10-07T12:43:47Z</time>
      </trkpt>
      <trkpt lat="49.76876" lon="2.23813">
        <ele>136.9</ele>
        <time>2022-10-07T12:43:48Z</time>
      </trkpt>
      <trkpt lat="49.76876" lon="2.23813">
        <ele>136.9</ele>
        <time>2022-10-07T12:43:49Z</time>
      </trkpt>
      <trkpt lat="49.76876" lon="2.23813">
        <ele>136.9</ele>
        <time>2022-10-07T12:43:50Z</time>
      </trkpt>
      <trkpt lat="49.76876" lon="2.23813">
        <ele>136.9</ele>
        <time>2022-10-07T12:43:51Z</time>
      </trkpt>
      <trkpt lat="49.76876" lon="2.23813">
        <ele>136.9</ele>
        <time>2022-10-07T12:43:52Z</time>
      </trkpt>
      <trkpt lat="49.76876" lon="2.23813">
        <ele>136.9</ele>
        <time>2022-10-07T12:43:53Z</time>
      </trkpt>
      <trkpt lat="49.76876" lon="2.23813">
        <ele>136.9</ele>
        <time>2022-10-07T12:43:54Z</time>
      </trkpt>
      <trkpt lat="49.76876" lon="2.23813">
        <ele>136.9</ele>
        <time>2022-10-07T12:43:55Z</time>
      </trkpt>
      <trkpt lat="49.76876" lon="2.23813">
        <ele>136.9</ele>
        <time>2022-10-07T12:43:56Z</time>
      </trkpt>
      <trkpt lat="49.76876" lon="2.23813">
        <ele>136.9</ele>
        <time>2022-10-07T12:43:57Z</time>
      </trkpt>
      <trkpt lat="49.76876" lon="2.23813">
        <ele>136.9</ele>
        <time>2022-10-07T12:43:58Z</time>
      </trkpt>
      <trkpt lat="49.76876" lon="2.23813">
        <ele>136.9</ele>
        <time>2022-10-07T12:43:59Z</time>
      </trkpt>
      <trkpt lat="49.76876" lon="2.23813">
        <ele>136.9</ele>
        <time>2022-10-07T12:44:00Z</time>
      </trkpt>
      <trkpt lat="49.76876" lon="2.23813">
        <ele>136.9</ele>
        <time>2022-10-07T12:44:01Z</time>
      </trkpt>
      <trkpt lat="49.76876" lon="2.23813">
        <ele>136.9</ele>
        <time>2022-10-07T12:44:02Z</time>
      </trkpt>
      <trkpt lat="49.76876" lon="2.23813">
        <ele>136.9</ele>
        <time>2022-10-07T12:44:03Z</time>
      </trkpt>
      <trkpt lat="49.76876" lon="2.23813">
        <ele>136.9</ele>
        <time>2022-10-07T12:44:04Z</time>
      </trkpt>
      <trkpt lat="49.76877" lon="2.23813">
        <ele>136.9</ele>
        <time>2022-10-07T12:44:05Z</time>
      </trkpt>
      <trkpt lat="49.76877" lon="2.23813">
        <ele>136.9</ele>
        <time>2022-10-07T12:44:06Z</time>
      </trkpt>
      <trkpt lat="49.76877" lon="2.23813">
        <ele>136.9</ele>
        <time>2022-10-07T12:44:07Z</time>
      </trkpt>
      <trkpt lat="49.76877" lon="2.23813">
        <ele>136.9</ele>
        <time>2022-10-07T12:44:08Z</time>
      </trkpt>
      <trkpt lat="49.76877" lon="2.23813">
        <ele>136.9</ele>
        <time>2022-10-07T12:44:09Z</time>
      </trkpt>
      <trkpt lat="49.76877" lon="2.23813">
        <ele>136.9</ele>
        <time>2022-10-07T12:44:10Z</time>
      </trkpt>
      <trkpt lat="49.76877" lon="2.23813">
        <ele>136.9</ele>
        <time>2022-10-07T12:44:11Z</time>
      </trkpt>
      <trkpt lat="49.76877" lon="2.23813">
        <ele>136.9</ele>
        <time>2022-10-07T12:44:12Z</time>
      </trkpt>
      <trkpt lat="49.76877" lon="2.23813">
        <ele>136.9</ele>
        <time>2022-10-07T12:44:13Z</time>
      </trkpt>
      <trkpt lat="49.76877" lon="2.23813">
        <ele>136.9</ele>
        <time>2022-10-07T12:44:14Z</time>
      </trkpt>
      <trkpt lat="49.76877" lon="2.23813">
        <ele>136.9</ele>
        <time>2022-10-07T12:44:15Z</time>
      </trkpt>
      <trkpt lat="49.76877" lon="2.23813">
        <ele>136.9</ele>
        <time>2022-10-07T12:44:16Z</time>
      </trkpt>
      <trkpt lat="49.76877" lon="2.23813">
        <ele>136.9</ele>
        <time>2022-10-07T12:44:17Z</time>
      </trkpt>
      <trkpt lat="49.76877" lon="2.23813">
        <ele>136.9</ele>
        <time>2022-10-07T12:44:18Z</time>
      </trkpt>
      <trkpt lat="49.76877" lon="2.23813">
        <ele>136.9</ele>
        <time>2022-10-07T12:44:19Z</time>
      </trkpt>
      <trkpt lat="49.76877" lon="2.23813">
        <ele>136.9</ele>
        <time>2022-10-07T12:44:20Z</time>
      </trkpt>
      <trkpt lat="49.76877" lon="2.23813">
        <ele>136.9</ele>
        <time>2022-10-07T12:44:21Z</time>
      </trkpt>
      <trkpt lat="49.76877" lon="2.23813">
        <ele>136.9</ele>
        <time>2022-10-07T12:44:22Z</time>
      </trkpt>
      <trkpt lat="49.76877" lon="2.23813">
        <ele>136.9</ele>
        <time>2022-10-07T12:44:23Z</time>
      </trkpt>
      <trkpt lat="49.76877" lon="2.23813">
        <ele>136.9</ele>
        <time>2022-10-07T12:44:24Z</time>
      </trkpt>
      <trkpt lat="49.76877" lon="2.23813">
        <ele>136.9</ele>
        <time>2022-10-07T12:44:25Z</time>
      </trkpt>
      <trkpt lat="49.76877" lon="2.23813">
        <ele>136.9</ele>
        <time>2022-10-07T12:44:26Z</time>
      </trkpt>
      <trkpt lat="49.76877" lon="2.23813">
        <ele>136.9</ele>
        <time>2022-10-07T12:44:27Z</time>
      </trkpt>
      <trkpt lat="49.76877" lon="2.23813">
        <ele>136.9</ele>
        <time>2022-10-07T12:44:28Z</time>
      </trkpt>
      <trkpt lat="49.76877" lon="2.23813">
        <ele>136.9</ele>
        <time>2022-10-07T12:44:29Z</time>
      </trkpt>
      <trkpt lat="49.76877" lon="2.23813">
        <ele>136.9</ele>
        <time>2022-10-07T12:44:30Z</time>
      </trkpt>
      <trkpt lat="49.76877" lon="2.23813">
        <ele>136.9</ele>
        <time>2022-10-07T12:44:31Z</time>
      </trkpt>
      <trkpt lat="49.76877" lon="2.23813">
        <ele>136.9</ele>
        <time>2022-10-07T12:44:32Z</time>
      </trkpt>
      <trkpt lat="49.76877" lon="2.23813">
        <ele>136.9</ele>
        <time>2022-10-07T12:44:33Z</time>
      </trkpt>
      <trkpt lat="49.76877" lon="2.23813">
        <ele>136.9</ele>
        <time>2022-10-07T12:44:34Z</time>
      </trkpt>
      <trkpt lat="49.76877" lon="2.23813">
        <ele>136.9</ele>
        <time>2022-10-07T12:44:35Z</time>
      </trkpt>
      <trkpt lat="49.76877" lon="2.23813">
        <ele>136.9</ele>
        <time>2022-10-07T12:44:36Z</time>
      </trkpt>
      <trkpt lat="49.76878" lon="2.23813">
        <ele>137</ele>
        <time>2022-10-07T12:44:37Z</time>
      </trkpt>
      <trkpt lat="49.76878" lon="2.23813">
        <ele>137</ele>
        <time>2022-10-07T12:44:38Z</time>
      </trkpt>
      <trkpt lat="49.76878" lon="2.23813">
        <ele>137</ele>
        <time>2022-10-07T12:44:39Z</time>
      </trkpt>
      <trkpt lat="49.76878" lon="2.23813">
        <ele>137</ele>
        <time>2022-10-07T12:44:40Z</time>
      </trkpt>
      <trkpt lat="49.76878" lon="2.23813">
        <ele>137</ele>
        <time>2022-10-07T12:44:41Z</time>
      </trkpt>
      <trkpt lat="49.76878" lon="2.23813">
        <ele>137</ele>
        <time>2022-10-07T12:44:42Z</time>
      </trkpt>
      <trkpt lat="49.76878" lon="2.23813">
        <ele>137</ele>
        <time>2022-10-07T12:44:43Z</time>
      </trkpt>
      <trkpt lat="49.76878" lon="2.23813">
        <ele>137</ele>
        <time>2022-10-07T12:44:44Z</time>
      </trkpt>
      <trkpt lat="49.76878" lon="2.23813">
        <ele>137</ele>
        <time>2022-10-07T12:44:45Z</time>
      </trkpt>
      <trkpt lat="49.76878" lon="2.23813">
        <ele>137</ele>
        <time>2022-10-07T12:44:46Z</time>
      </trkpt>
      <trkpt lat="49.76878" lon="2.23813">
        <ele>137</ele>
        <time>2022-10-07T12:44:47Z</time>
      </trkpt>
      <trkpt lat="49.76878" lon="2.23813">
        <ele>137</ele>
        <time>2022-10-07T12:44:48Z</time>
      </trkpt>
      <trkpt lat="49.76878" lon="2.23813">
        <ele>137</ele>
        <time>2022-10-07T12:44:49Z</time>
      </trkpt>
      <trkpt lat="49.76878" lon="2.23813">
        <ele>137</ele>
        <time>2022-10-07T12:44:50Z</time>
      </trkpt>
      <trkpt lat="49.7688" lon="2.23812">
        <ele>137</ele>
        <time>2022-10-07T12:44:51Z</time>
      </trkpt>
      <trkpt lat="49.76881" lon="2.23812">
        <ele>137</ele>
        <time>2022-10-07T12:44:52Z</time>
      </trkpt>
      <trkpt lat="49.76882" lon="2.23812">
        <ele>137</ele>
        <time>2022-10-07T12:44:53Z</time>
      </trkpt>
      <trkpt lat="49.76882" lon="2.23812">
        <ele>137</ele>
        <time>2022-10-07T12:44:54Z</time>
      </trkpt>
      <trkpt lat="49.76883" lon="2.23812">
        <ele>137</ele>
        <time>2022-10-07T12:44:55Z</time>
      </trkpt>
      <trkpt lat="49.76882" lon="2.23812">
        <ele>137</ele>
        <time>2022-10-07T12:44:56Z</time>
      </trkpt>
      <trkpt lat="49.76882" lon="2.23812">
        <ele>137</ele>
        <time>2022-10-07T12:44:57Z</time>
      </trkpt>
      <trkpt lat="49.76882" lon="2.23812">
        <ele>137</ele>
        <time>2022-10-07T12:44:58Z</time>
      </trkpt>
      <trkpt lat="49.76882" lon="2.23812">
        <ele>137</ele>
        <time>2022-10-07T12:44:59Z</time>
      </trkpt>
      <trkpt lat="49.76882" lon="2.23812">
        <ele>137</ele>
        <time>2022-10-07T12:45:00Z</time>
      </trkpt>
      <trkpt lat="49.76882" lon="2.23812">
        <ele>137</ele>
        <time>2022-10-07T12:45:01Z</time>
      </trkpt>
      <trkpt lat="49.76882" lon="2.23812">
        <ele>137</ele>
        <time>2022-10-07T12:45:02Z</time>
      </trkpt>
      <trkpt lat="49.76882" lon="2.23812">
        <ele>137</ele>
        <time>2022-10-07T12:45:03Z</time>
      </trkpt>
      <trkpt lat="49.76882" lon="2.23812">
        <ele>137</ele>
        <time>2022-10-07T12:45:04Z</time>
      </trkpt>
      <trkpt lat="49.76882" lon="2.23812">
        <ele>137</ele>
        <time>2022-10-07T12:45:05Z</time>
      </trkpt>
      <trkpt lat="49.76882" lon="2.23812">
        <ele>137</ele>
        <time>2022-10-07T12:45:06Z</time>
      </trkpt>
      <trkpt lat="49.76882" lon="2.23812">
        <ele>137</ele>
        <time>2022-10-07T12:45:07Z</time>
      </trkpt>
      <trkpt lat="49.76882" lon="2.23812">
        <ele>137</ele>
        <time>2022-10-07T12:45:08Z</time>
      </trkpt>
      <trkpt lat="49.76882" lon="2.23812">
        <ele>137</ele>
        <time>2022-10-07T12:45:09Z</time>
      </trkpt>
      <trkpt lat="49.76882" lon="2.23812">
        <ele>137</ele>
        <time>2022-10-07T12:45:10Z</time>
      </trkpt>
      <trkpt lat="49.76882" lon="2.23812">
        <ele>137</ele>
        <time>2022-10-07T12:45:11Z</time>
      </trkpt>
      <trkpt lat="49.76882" lon="2.23812">
        <ele>137</ele>
        <time>2022-10-07T12:45:12Z</time>
      </trkpt>
      <trkpt lat="49.76882" lon="2.23812">
        <ele>137</ele>
        <time>2022-10-07T12:45:13Z</time>
      </trkpt>
      <trkpt lat="49.76882" lon="2.23812">
        <ele>137</ele>
        <time>2022-10-07T12:45:14Z</time>
      </trkpt>
      <trkpt lat="49.76882" lon="2.23812">
        <ele>137</ele>
        <time>2022-10-07T12:45:15Z</time>
      </trkpt>
      <trkpt lat="49.76882" lon="2.23812">
        <ele>137</ele>
        <time>2022-10-07T12:45:16Z</time>
      </trkpt>
      <trkpt lat="49.76882" lon="2.23812">
        <ele>137</ele>
        <time>2022-10-07T12:45:17Z</time>
      </trkpt>
      <trkpt lat="49.76882" lon="2.23812">
        <ele>137</ele>
        <time>2022-10-07T12:45:18Z</time>
      </trkpt>
      <trkpt lat="49.76882" lon="2.23812">
        <ele>137</ele>
        <time>2022-10-07T12:45:19Z</time>
      </trkpt>
      <trkpt lat="49.76882" lon="2.23812">
        <ele>137</ele>
        <time>2022-10-07T12:45:20Z</time>
      </trkpt>
      <trkpt lat="49.76882" lon="2.23812">
        <ele>137</ele>
        <time>2022-10-07T12:45:21Z</time>
      </trkpt>
      <trkpt lat="49.76882" lon="2.23812">
        <ele>137</ele>
        <time>2022-10-07T12:45:22Z</time>
      </trkpt>
      <trkpt lat="49.76882" lon="2.23812">
        <ele>137</ele>
        <time>2022-10-07T12:45:23Z</time>
      </trkpt>
      <trkpt lat="49.76882" lon="2.23812">
        <ele>137</ele>
        <time>2022-10-07T12:45:24Z</time>
      </trkpt>
      <trkpt lat="49.76882" lon="2.23812">
        <ele>137</ele>
        <time>2022-10-07T12:45:25Z</time>
      </trkpt>
      <trkpt lat="49.76882" lon="2.23812">
        <ele>137</ele>
        <time>2022-10-07T12:45:26Z</time>
      </trkpt>
      <trkpt lat="49.76882" lon="2.23812">
        <ele>137</ele>
        <time>2022-10-07T12:45:27Z</time>
      </trkpt>
      <trkpt lat="49.76882" lon="2.23812">
        <ele>137</ele>
        <time>2022-10-07T12:45:28Z</time>
      </trkpt>
      <trkpt lat="49.76882" lon="2.23812">
        <ele>137</ele>
        <time>2022-10-07T12:45:29Z</time>
      </trkpt>
      <trkpt lat="49.76882" lon="2.23812">
        <ele>137</ele>
        <time>2022-10-07T12:45:30Z</time>
      </trkpt>
      <trkpt lat="49.76882" lon="2.23812">
        <ele>137</ele>
        <time>2022-10-07T12:45:31Z</time>
      </trkpt>
      <trkpt lat="49.76882" lon="2.23812">
        <ele>137</ele>
        <time>2022-10-07T12:45:32Z</time>
      </trkpt>
      <trkpt lat="49.76882" lon="2.23812">
        <ele>137</ele>
        <time>2022-10-07T12:45:33Z</time>
      </trkpt>
      <trkpt lat="49.76882" lon="2.23812">
        <ele>137</ele>
        <time>2022-10-07T12:45:34Z</time>
      </trkpt>
      <trkpt lat="49.76882" lon="2.23812">
        <ele>137</ele>
        <time>2022-10-07T12:45:35Z</time>
      </trkpt>
      <trkpt lat="49.76882" lon="2.23812">
        <ele>137</ele>
        <time>2022-10-07T12:45:36Z</time>
      </trkpt>
      <trkpt lat="49.76881" lon="2.23812">
        <ele>137</ele>
        <time>2022-10-07T12:45:37Z</time>
      </trkpt>
      <trkpt lat="49.7688" lon="2.23812">
        <ele>137</ele>
        <time>2022-10-07T12:45:38Z</time>
      </trkpt>
      <trkpt lat="49.7688" lon="2.23813">
        <ele>137</ele>
        <time>2022-10-07T12:45:39Z</time>
      </trkpt>
      <trkpt lat="49.76881" lon="2.23813">
        <ele>137</ele>
        <time>2022-10-07T12:45:40Z</time>
      </trkpt>
      <trkpt lat="49.76881" lon="2.23814">
        <ele>137</ele>
        <time>2022-10-07T12:45:41Z</time>
      </trkpt>
      <trkpt lat="49.76881" lon="2.23814">
        <ele>137</ele>
        <time>2022-10-07T12:45:42Z</time>
      </trkpt>
      <trkpt lat="49.76881" lon="2.23814">
        <ele>137</ele>
        <time>2022-10-07T12:45:43Z</time>
      </trkpt>
      <trkpt lat="49.76881" lon="2.23814">
        <ele>137</ele>
        <time>2022-10-07T12:45:44Z</time>
      </trkpt>
      <trkpt lat="49.76881" lon="2.23814">
        <ele>137</ele>
        <time>2022-10-07T12:45:45Z</time>
      </trkpt>
      <trkpt lat="49.76881" lon="2.23814">
        <ele>137</ele>
        <time>2022-10-07T12:45:46Z</time>
      </trkpt>
      <trkpt lat="49.76881" lon="2.23814">
        <ele>137</ele>
        <time>2022-10-07T12:45:47Z</time>
      </trkpt>
      <trkpt lat="49.76881" lon="2.23814">
        <ele>137</ele>
        <time>2022-10-07T12:45:48Z</time>
      </trkpt>
      <trkpt lat="49.76881" lon="2.23814">
        <ele>137</ele>
        <time>2022-10-07T12:45:49Z</time>
      </trkpt>
      <trkpt lat="49.76881" lon="2.23814">
        <ele>137</ele>
        <time>2022-10-07T12:45:50Z</time>
      </trkpt>
      <trkpt lat="49.76881" lon="2.23814">
        <ele>137</ele>
        <time>2022-10-07T12:45:51Z</time>
      </trkpt>
      <trkpt lat="49.76881" lon="2.23814">
        <ele>137</ele>
        <time>2022-10-07T12:45:52Z</time>
      </trkpt>
      <trkpt lat="49.76881" lon="2.23814">
        <ele>137</ele>
        <time>2022-10-07T12:45:53Z</time>
      </trkpt>
      <trkpt lat="49.76881" lon="2.23814">
        <ele>137</ele>
        <time>2022-10-07T12:45:54Z</time>
      </trkpt>
      <trkpt lat="49.76881" lon="2.23814">
        <ele>137</ele>
        <time>2022-10-07T12:45:55Z</time>
      </trkpt>
      <trkpt lat="49.76881" lon="2.23814">
        <ele>137</ele>
        <time>2022-10-07T12:45:56Z</time>
      </trkpt>
      <trkpt lat="49.76881" lon="2.23814">
        <ele>137</ele>
        <time>2022-10-07T12:45:57Z</time>
      </trkpt>
      <trkpt lat="49.76881" lon="2.23814">
        <ele>137</ele>
        <time>2022-10-07T12:45:58Z</time>
      </trkpt>
      <trkpt lat="49.76881" lon="2.23814">
        <ele>137</ele>
        <time>2022-10-07T12:45:59Z</time>
      </trkpt>
      <trkpt lat="49.76881" lon="2.23814">
        <ele>137</ele>
        <time>2022-10-07T12:46:00Z</time>
      </trkpt>
      <trkpt lat="49.76881" lon="2.23814">
        <ele>137</ele>
        <time>2022-10-07T12:46:01Z</time>
      </trkpt>
      <trkpt lat="49.76881" lon="2.23814">
        <ele>137</ele>
        <time>2022-10-07T12:46:02Z</time>
      </trkpt>
      <trkpt lat="49.76881" lon="2.23814">
        <ele>137</ele>
        <time>2022-10-07T12:46:03Z</time>
      </trkpt>
      <trkpt lat="49.76881" lon="2.23814">
        <ele>137</ele>
        <time>2022-10-07T12:46:04Z</time>
      </trkpt>
      <trkpt lat="49.76881" lon="2.23814">
        <ele>137</ele>
        <time>2022-10-07T12:46:05Z</time>
      </trkpt>
      <trkpt lat="49.76881" lon="2.23814">
        <ele>137</ele>
        <time>2022-10-07T12:46:06Z</time>
      </trkpt>
      <trkpt lat="49.76881" lon="2.23814">
        <ele>137</ele>
        <time>2022-10-07T12:46:07Z</time>
      </trkpt>
      <trkpt lat="49.76881" lon="2.23814">
        <ele>137</ele>
        <time>2022-10-07T12:46:08Z</time>
      </trkpt>
      <trkpt lat="49.76881" lon="2.23814">
        <ele>137</ele>
        <time>2022-10-07T12:46:09Z</time>
      </trkpt>
      <trkpt lat="49.76881" lon="2.23814">
        <ele>137</ele>
        <time>2022-10-07T12:46:10Z</time>
      </trkpt>
      <trkpt lat="49.76881" lon="2.23814">
        <ele>137</ele>
        <time>2022-10-07T12:46:11Z</time>
      </trkpt>
      <trkpt lat="49.76881" lon="2.23814">
        <ele>137</ele>
        <time>2022-10-07T12:46:12Z</time>
      </trkpt>
      <trkpt lat="49.76881" lon="2.23814">
        <ele>137</ele>
        <time>2022-10-07T12:46:13Z</time>
      </trkpt>
      <trkpt lat="49.76881" lon="2.23814">
        <ele>137</ele>
        <time>2022-10-07T12:46:14Z</time>
      </trkpt>
      <trkpt lat="49.76881" lon="2.23814">
        <ele>137</ele>
        <time>2022-10-07T12:46:15Z</time>
      </trkpt>
      <trkpt lat="49.76881" lon="2.23814">
        <ele>137</ele>
        <time>2022-10-07T12:46:16Z</time>
      </trkpt>
      <trkpt lat="49.76881" lon="2.23814">
        <ele>137</ele>
        <time>2022-10-07T12:46:17Z</time>
      </trkpt>
      <trkpt lat="49.76881" lon="2.23814">
        <ele>137</ele>
        <time>2022-10-07T12:46:18Z</time>
      </trkpt>
      <trkpt lat="49.76881" lon="2.23814">
        <ele>137</ele>
        <time>2022-10-07T12:46:19Z</time>
      </trkpt>
      <trkpt lat="49.76881" lon="2.23814">
        <ele>137</ele>
        <time>2022-10-07T12:46:20Z</time>
      </trkpt>
      <trkpt lat="49.76881" lon="2.23814">
        <ele>137</ele>
        <time>2022-10-07T12:46:21Z</time>
      </trkpt>
      <trkpt lat="49.76881" lon="2.23814">
        <ele>137</ele>
        <time>2022-10-07T12:46:22Z</time>
      </trkpt>
      <trkpt lat="49.76881" lon="2.23814">
        <ele>137</ele>
        <time>2022-10-07T12:46:23Z</time>
      </trkpt>
      <trkpt lat="49.76881" lon="2.23814">
        <ele>137</ele>
        <time>2022-10-07T12:46:24Z</time>
      </trkpt>
      <trkpt lat="49.76881" lon="2.23814">
        <ele>137</ele>
        <time>2022-10-07T12:46:25Z</time>
      </trkpt>
      <trkpt lat="49.76881" lon="2.23814">
        <ele>137</ele>
        <time>2022-10-07T12:46:26Z</time>
      </trkpt>
      <trkpt lat="49.76881" lon="2.23814">
        <ele>137</ele>
        <time>2022-10-07T12:46:27Z</time>
      </trkpt>
      <trkpt lat="49.76881" lon="2.23814">
        <ele>137</ele>
        <time>2022-10-07T12:46:28Z</time>
      </trkpt>
      <trkpt lat="49.76881" lon="2.23814">
        <ele>137</ele>
        <time>2022-10-07T12:46:29Z</time>
      </trkpt>
      <trkpt lat="49.76881" lon="2.23814">
        <ele>137</ele>
        <time>2022-10-07T12:46:30Z</time>
      </trkpt>
      <trkpt lat="49.76881" lon="2.23814">
        <ele>137</ele>
        <time>2022-10-07T12:46:31Z</time>
      </trkpt>
      <trkpt lat="49.76881" lon="2.23814">
        <ele>137</ele>
        <time>2022-10-07T12:46:32Z</time>
      </trkpt>
      <trkpt lat="49.76881" lon="2.23814">
        <ele>137</ele>
        <time>2022-10-07T12:46:33Z</time>
      </trkpt>
      <trkpt lat="49.76881" lon="2.23814">
        <ele>137</ele>
        <time>2022-10-07T12:46:34Z</time>
      </trkpt>
      <trkpt lat="49.76881" lon="2.23814">
        <ele>137</ele>
        <time>2022-10-07T12:46:35Z</time>
      </trkpt>
      <trkpt lat="49.76881" lon="2.23814">
        <ele>137</ele>
        <time>2022-10-07T12:46:36Z</time>
      </trkpt>
      <trkpt lat="49.76881" lon="2.23814">
        <ele>137</ele>
        <time>2022-10-07T12:46:37Z</time>
      </trkpt>
      <trkpt lat="49.76881" lon="2.23814">
        <ele>137</ele>
        <time>2022-10-07T12:46:38Z</time>
      </trkpt>
      <trkpt lat="49.76881" lon="2.23814">
        <ele>137</ele>
        <time>2022-10-07T12:46:39Z</time>
      </trkpt>
      <trkpt lat="49.76881" lon="2.23814">
        <ele>137</ele>
        <time>2022-10-07T12:46:40Z</time>
      </trkpt>
      <trkpt lat="49.76881" lon="2.23814">
        <ele>137</ele>
        <time>2022-10-07T12:46:41Z</time>
      </trkpt>
      <trkpt lat="49.76881" lon="2.23814">
        <ele>137</ele>
        <time>2022-10-07T12:46:42Z</time>
      </trkpt>
      <trkpt lat="49.76881" lon="2.23814">
        <ele>137</ele>
        <time>2022-10-07T12:46:43Z</time>
      </trkpt>
      <trkpt lat="49.76881" lon="2.23814">
        <ele>137</ele>
        <time>2022-10-07T12:46:44Z</time>
      </trkpt>
      <trkpt lat="49.76881" lon="2.23814">
        <ele>137</ele>
        <time>2022-10-07T12:46:45Z</time>
      </trkpt>
      <trkpt lat="49.76881" lon="2.23814">
        <ele>137</ele>
        <time>2022-10-07T12:46:46Z</time>
      </trkpt>
      <trkpt lat="49.76881" lon="2.23814">
        <ele>137</ele>
        <time>2022-10-07T12:46:47Z</time>
      </trkpt>
      <trkpt lat="49.76881" lon="2.23814">
        <ele>137</ele>
        <time>2022-10-07T12:46:48Z</time>
      </trkpt>
      <trkpt lat="49.76881" lon="2.23814">
        <ele>137.1</ele>
        <time>2022-10-07T12:46:49Z</time>
      </trkpt>
      <trkpt lat="49.76881" lon="2.23814">
        <ele>137.1</ele>
        <time>2022-10-07T12:46:50Z</time>
      </trkpt>
      <trkpt lat="49.76881" lon="2.23814">
        <ele>137.1</ele>
        <time>2022-10-07T12:46:51Z</time>
      </trkpt>
      <trkpt lat="49.76881" lon="2.23814">
        <ele>137.1</ele>
        <time>2022-10-07T12:46:52Z</time>
      </trkpt>
      <trkpt lat="49.76881" lon="2.23814">
        <ele>137.1</ele>
        <time>2022-10-07T12:46:53Z</time>
      </trkpt>
      <trkpt lat="49.76881" lon="2.23814">
        <ele>137.1</ele>
        <time>2022-10-07T12:46:54Z</time>
      </trkpt>
      <trkpt lat="49.76881" lon="2.23814">
        <ele>137.1</ele>
        <time>2022-10-07T12:46:55Z</time>
      </trkpt>
      <trkpt lat="49.76881" lon="2.23814">
        <ele>137.1</ele>
        <time>2022-10-07T12:46:56Z</time>
      </trkpt>
      <trkpt lat="49.76881" lon="2.23814">
        <ele>137.1</ele>
        <time>2022-10-07T12:46:57Z</time>
      </trkpt>
      <trkpt lat="49.76881" lon="2.23814">
        <ele>137.1</ele>
        <time>2022-10-07T12:46:58Z</time>
      </trkpt>
      <trkpt lat="49.76881" lon="2.23814">
        <ele>137.1</ele>
        <time>2022-10-07T12:46:59Z</time>
      </trkpt>
      <trkpt lat="49.76881" lon="2.23814">
        <ele>137.1</ele>
        <time>2022-10-07T12:47:00Z</time>
      </trkpt>
      <trkpt lat="49.76881" lon="2.23814">
        <ele>137.1</ele>
        <time>2022-10-07T12:47:01Z</time>
      </trkpt>
      <trkpt lat="49.76881" lon="2.23814">
        <ele>137.1</ele>
        <time>2022-10-07T12:47:02Z</time>
      </trkpt>
      <trkpt lat="49.76881" lon="2.23814">
        <ele>137.1</ele>
        <time>2022-10-07T12:47:03Z</time>
      </trkpt>
      <trkpt lat="49.76881" lon="2.23814">
        <ele>137.1</ele>
        <time>2022-10-07T12:47:04Z</time>
      </trkpt>
      <trkpt lat="49.76881" lon="2.23814">
        <ele>137.1</ele>
        <time>2022-10-07T12:47:05Z</time>
      </trkpt>
      <trkpt lat="49.76881" lon="2.23814">
        <ele>137.1</ele>
        <time>2022-10-07T12:47:06Z</time>
      </trkpt>
      <trkpt lat="49.76881" lon="2.23814">
        <ele>137.1</ele>
        <time>2022-10-07T12:47:07Z</time>
      </trkpt>
      <trkpt lat="49.76881" lon="2.23814">
        <ele>137.1</ele>
        <time>2022-10-07T12:47:08Z</time>
      </trkpt>
      <trkpt lat="49.76881" lon="2.23814">
        <ele>137.1</ele>
        <time>2022-10-07T12:47:09Z</time>
      </trkpt>
      <trkpt lat="49.76881" lon="2.23814">
        <ele>137.1</ele>
        <time>2022-10-07T12:47:10Z</time>
      </trkpt>
      <trkpt lat="49.76881" lon="2.23814">
        <ele>137.1</ele>
        <time>2022-10-07T12:47:11Z</time>
      </trkpt>
      <trkpt lat="49.76881" lon="2.23814">
        <ele>137.1</ele>
        <time>2022-10-07T12:47:12Z</time>
      </trkpt>
      <trkpt lat="49.76881" lon="2.23814">
        <ele>137.1</ele>
        <time>2022-10-07T12:47:13Z</time>
      </trkpt>
      <trkpt lat="49.76881" lon="2.23814">
        <ele>137.1</ele>
        <time>2022-10-07T12:47:14Z</time>
      </trkpt>
      <trkpt lat="49.76881" lon="2.23814">
        <ele>137.1</ele>
        <time>2022-10-07T12:47:15Z</time>
      </trkpt>
      <trkpt lat="49.76881" lon="2.23814">
        <ele>137.1</ele>
        <time>2022-10-07T12:47:16Z</time>
      </trkpt>
      <trkpt lat="49.76881" lon="2.23814">
        <ele>137.1</ele>
        <time>2022-10-07T12:47:17Z</time>
      </trkpt>
      <trkpt lat="49.76881" lon="2.23814">
        <ele>137.1</ele>
        <time>2022-10-07T12:47:18Z</time>
      </trkpt>
      <trkpt lat="49.76881" lon="2.23814">
        <ele>137.1</ele>
        <time>2022-10-07T12:47:19Z</time>
      </trkpt>
      <trkpt lat="49.76881" lon="2.23814">
        <ele>137.1</ele>
        <time>2022-10-07T12:47:20Z</time>
      </trkpt>
      <trkpt lat="49.76881" lon="2.23814">
        <ele>137.1</ele>
        <time>2022-10-07T12:47:21Z</time>
      </trkpt>
      <trkpt lat="49.76881" lon="2.23814">
        <ele>137.1</ele>
        <time>2022-10-07T12:47:22Z</time>
      </trkpt>
      <trkpt lat="49.76881" lon="2.23814">
        <ele>137.1</ele>
        <time>2022-10-07T12:47:23Z</time>
      </trkpt>
      <trkpt lat="49.76881" lon="2.23814">
        <ele>137.1</ele>
        <time>2022-10-07T12:47:24Z</time>
      </trkpt>
      <trkpt lat="49.76881" lon="2.23814">
        <ele>137.1</ele>
        <time>2022-10-07T12:47:25Z</time>
      </trkpt>
      <trkpt lat="49.76881" lon="2.23814">
        <ele>137.1</ele>
        <time>2022-10-07T12:47:26Z</time>
      </trkpt>
      <trkpt lat="49.76881" lon="2.23814">
        <ele>137.1</ele>
        <time>2022-10-07T12:47:27Z</time>
      </trkpt>
      <trkpt lat="49.76881" lon="2.23814">
        <ele>137.1</ele>
        <time>2022-10-07T12:47:28Z</time>
      </trkpt>
      <trkpt lat="49.76881" lon="2.23814">
        <ele>137.1</ele>
        <time>2022-10-07T12:47:29Z</time>
      </trkpt>
      <trkpt lat="49.76881" lon="2.23814">
        <ele>137.1</ele>
        <time>2022-10-07T12:47:30Z</time>
      </trkpt>
      <trkpt lat="49.76881" lon="2.23814">
        <ele>137.1</ele>
        <time>2022-10-07T12:47:31Z</time>
      </trkpt>
      <trkpt lat="49.76881" lon="2.23814">
        <ele>137.1</ele>
        <time>2022-10-07T12:47:32Z</time>
      </trkpt>
      <trkpt lat="49.76881" lon="2.23814">
        <ele>137.1</ele>
        <time>2022-10-07T12:47:33Z</time>
      </trkpt>
      <trkpt lat="49.76881" lon="2.23814">
        <ele>137.1</ele>
        <time>2022-10-07T12:47:34Z</time>
      </trkpt>
      <trkpt lat="49.76881" lon="2.23814">
        <ele>137.1</ele>
        <time>2022-10-07T12:47:35Z</time>
      </trkpt>
      <trkpt lat="49.76881" lon="2.23814">
        <ele>137.1</ele>
        <time>2022-10-07T12:47:36Z</time>
      </trkpt>
      <trkpt lat="49.76881" lon="2.23814">
        <ele>137.1</ele>
        <time>2022-10-07T12:47:37Z</time>
      </trkpt>
      <trkpt lat="49.76881" lon="2.23814">
        <ele>137.1</ele>
        <time>2022-10-07T12:47:38Z</time>
      </trkpt>
      <trkpt lat="49.76881" lon="2.23814">
        <ele>137.1</ele>
        <time>2022-10-07T12:47:39Z</time>
      </trkpt>
      <trkpt lat="49.76881" lon="2.23814">
        <ele>137.2</ele>
        <time>2022-10-07T12:47:40Z</time>
      </trkpt>
      <trkpt lat="49.76881" lon="2.23814">
        <ele>137.2</ele>
        <time>2022-10-07T12:47:41Z</time>
      </trkpt>
      <trkpt lat="49.76881" lon="2.23814">
        <ele>137.2</ele>
        <time>2022-10-07T12:47:42Z</time>
      </trkpt>
      <trkpt lat="49.76881" lon="2.23814">
        <ele>137.2</ele>
        <time>2022-10-07T12:47:43Z</time>
      </trkpt>
      <trkpt lat="49.76881" lon="2.23814">
        <ele>137.2</ele>
        <time>2022-10-07T12:47:44Z</time>
      </trkpt>
      <trkpt lat="49.76881" lon="2.23814">
        <ele>137.2</ele>
        <time>2022-10-07T12:47:45Z</time>
      </trkpt>
      <trkpt lat="49.76881" lon="2.23814">
        <ele>137.2</ele>
        <time>2022-10-07T12:47:46Z</time>
      </trkpt>
      <trkpt lat="49.76881" lon="2.23814">
        <ele>137.2</ele>
        <time>2022-10-07T12:47:47Z</time>
      </trkpt>
      <trkpt lat="49.76881" lon="2.23814">
        <ele>137.2</ele>
        <time>2022-10-07T12:47:48Z</time>
      </trkpt>
      <trkpt lat="49.76881" lon="2.23814">
        <ele>137.2</ele>
        <time>2022-10-07T12:47:49Z</time>
      </trkpt>
      <trkpt lat="49.76881" lon="2.23814">
        <ele>137.2</ele>
        <time>2022-10-07T12:47:50Z</time>
      </trkpt>
      <trkpt lat="49.76881" lon="2.23814">
        <ele>137.2</ele>
        <time>2022-10-07T12:47:51Z</time>
      </trkpt>
      <trkpt lat="49.76881" lon="2.23814">
        <ele>137.2</ele>
        <time>2022-10-07T12:47:52Z</time>
      </trkpt>
      <trkpt lat="49.76881" lon="2.23814">
        <ele>137.2</ele>
        <time>2022-10-07T12:47:53Z</time>
      </trkpt>
      <trkpt lat="49.76881" lon="2.23814">
        <ele>137.2</ele>
        <time>2022-10-07T12:47:54Z</time>
      </trkpt>
      <trkpt lat="49.76881" lon="2.23814">
        <ele>137.2</ele>
        <time>2022-10-07T12:47:55Z</time>
      </trkpt>
      <trkpt lat="49.76881" lon="2.23814">
        <ele>137.2</ele>
        <time>2022-10-07T12:47:56Z</time>
      </trkpt>
      <trkpt lat="49.76881" lon="2.23814">
        <ele>137.2</ele>
        <time>2022-10-07T12:47:57Z</time>
      </trkpt>
      <trkpt lat="49.76881" lon="2.23814">
        <ele>137.2</ele>
        <time>2022-10-07T12:47:58Z</time>
      </trkpt>
      <trkpt lat="49.76881" lon="2.23814">
        <ele>137.2</ele>
        <time>2022-10-07T12:47:59Z</time>
      </trkpt>
      <trkpt lat="49.76881" lon="2.23814">
        <ele>137.2</ele>
        <time>2022-10-07T12:48:00Z</time>
      </trkpt>
      <trkpt lat="49.76881" lon="2.23814">
        <ele>137.2</ele>
        <time>2022-10-07T12:48:01Z</time>
      </trkpt>
      <trkpt lat="49.76881" lon="2.23814">
        <ele>137.2</ele>
        <time>2022-10-07T12:48:02Z</time>
      </trkpt>
      <trkpt lat="49.76881" lon="2.23814">
        <ele>137.2</ele>
        <time>2022-10-07T12:48:03Z</time>
      </trkpt>
      <trkpt lat="49.76881" lon="2.23814">
        <ele>137.2</ele>
        <time>2022-10-07T12:48:04Z</time>
      </trkpt>
      <trkpt lat="49.76881" lon="2.23814">
        <ele>137.2</ele>
        <time>2022-10-07T12:48:05Z</time>
      </trkpt>
      <trkpt lat="49.76881" lon="2.23814">
        <ele>137.2</ele>
        <time>2022-10-07T12:48:06Z</time>
      </trkpt>
      <trkpt lat="49.76881" lon="2.23814">
        <ele>137.2</ele>
        <time>2022-10-07T12:48:07Z</time>
      </trkpt>
      <trkpt lat="49.76881" lon="2.23813">
        <ele>137.2</ele>
        <time>2022-10-07T12:48:08Z</time>
      </trkpt>
      <trkpt lat="49.76879" lon="2.23811">
        <ele>137.2</ele>
        <time>2022-10-07T12:48:09Z</time>
      </trkpt>
      <trkpt lat="49.76877" lon="2.2381">
        <ele>137.2</ele>
        <time>2022-10-07T12:48:11Z</time>
      </trkpt>
      <trkpt lat="49.76876" lon="2.23809">
        <ele>137.3</ele>
        <time>2022-10-07T12:48:12Z</time>
      </trkpt>
      <trkpt lat="49.76875" lon="2.23808">
        <ele>137.3</ele>
        <time>2022-10-07T12:48:13Z</time>
      </trkpt>
      <trkpt lat="49.76874" lon="2.23807">
        <ele>137.3</ele>
        <time>2022-10-07T12:48:14Z</time>
      </trkpt>
      <trkpt lat="49.76873" lon="2.23806">
        <ele>137.3</ele>
        <time>2022-10-07T12:48:15Z</time>
      </trkpt>
      <trkpt lat="49.76872" lon="2.23805">
        <ele>137.3</ele>
        <time>2022-10-07T12:48:16Z</time>
      </trkpt>
      <trkpt lat="49.76872" lon="2.23803">
        <ele>137.3</ele>
        <time>2022-10-07T12:48:17Z</time>
      </trkpt>
      <trkpt lat="49.76871" lon="2.23802">
        <ele>137.3</ele>
        <time>2022-10-07T12:48:18Z</time>
      </trkpt>
      <trkpt lat="49.7687" lon="2.23801">
        <ele>137.3</ele>
        <time>2022-10-07T12:48:20Z</time>
      </trkpt>
      <trkpt lat="49.7687" lon="2.238">
        <ele>137.3</ele>
        <time>2022-10-07T12:48:21Z</time>
      </trkpt>
      <trkpt lat="49.76869" lon="2.23799">
        <ele>137.3</ele>
        <time>2022-10-07T12:48:22Z</time>
      </trkpt>
      <trkpt lat="49.76868" lon="2.23799">
        <ele>137.4</ele>
        <time>2022-10-07T12:48:23Z</time>
      </trkpt>
      <trkpt lat="49.76866" lon="2.23799">
        <ele>137.4</ele>
        <time>2022-10-07T12:48:24Z</time>
      </trkpt>
      <trkpt lat="49.76864" lon="2.23798">
        <ele>137.4</ele>
        <time>2022-10-07T12:48:25Z</time>
      </trkpt>
      <trkpt lat="49.76864" lon="2.23797">
        <ele>137.4</ele>
        <time>2022-10-07T12:48:26Z</time>
      </trkpt>
      <trkpt lat="49.76863" lon="2.23797">
        <ele>137.4</ele>
        <time>2022-10-07T12:48:27Z</time>
      </trkpt>
      <trkpt lat="49.76861" lon="2.23796">
        <ele>137.4</ele>
        <time>2022-10-07T12:48:29Z</time>
      </trkpt>
      <trkpt lat="49.7686" lon="2.23797">
        <ele>137.4</ele>
        <time>2022-10-07T12:48:30Z</time>
      </trkpt>
      <trkpt lat="49.76858" lon="2.23796">
        <ele>137.5</ele>
        <time>2022-10-07T12:48:31Z</time>
      </trkpt>
      <trkpt lat="49.76856" lon="2.23796">
        <ele>137.5</ele>
        <time>2022-10-07T12:48:33Z</time>
      </trkpt>
      <trkpt lat="49.76855" lon="2.23797">
        <ele>137.5</ele>
        <time>2022-10-07T12:48:34Z</time>
      </trkpt>
      <trkpt lat="49.76853" lon="2.23798">
        <ele>137.5</ele>
        <time>2022-10-07T12:48:35Z</time>
      </trkpt>
      <trkpt lat="49.76852" lon="2.23799">
        <ele>137.5</ele>
        <time>2022-10-07T12:48:36Z</time>
      </trkpt>
      <trkpt lat="49.76851" lon="2.238">
        <ele>137.5</ele>
        <time>2022-10-07T12:48:37Z</time>
      </trkpt>
      <trkpt lat="49.7685" lon="2.238">
        <ele>137.5</ele>
        <time>2022-10-07T12:48:38Z</time>
      </trkpt>
      <trkpt lat="49.76849" lon="2.238">
        <ele>137.5</ele>
        <time>2022-10-07T12:48:39Z</time>
      </trkpt>
      <trkpt lat="49.76847" lon="2.23801">
        <ele>137.6</ele>
        <time>2022-10-07T12:48:41Z</time>
      </trkpt>
      <trkpt lat="49.76846" lon="2.23801">
        <ele>137.6</ele>
        <time>2022-10-07T12:48:42Z</time>
      </trkpt>
      <trkpt lat="49.76845" lon="2.23801">
        <ele>137.6</ele>
        <time>2022-10-07T12:48:43Z</time>
      </trkpt>
      <trkpt lat="49.76844" lon="2.23802">
        <ele>137.6</ele>
        <time>2022-10-07T12:48:44Z</time>
      </trkpt>
      <trkpt lat="49.76843" lon="2.23802">
        <ele>137.6</ele>
        <time>2022-10-07T12:48:45Z</time>
      </trkpt>
      <trkpt lat="49.76841" lon="2.23801">
        <ele>137.6</ele>
        <time>2022-10-07T12:48:46Z</time>
      </trkpt>
      <trkpt lat="49.7684" lon="2.23801">
        <ele>137.6</ele>
        <time>2022-10-07T12:48:47Z</time>
      </trkpt>
      <trkpt lat="49.76838" lon="2.238">
        <ele>137.6</ele>
        <time>2022-10-07T12:48:48Z</time>
      </trkpt>
      <trkpt lat="49.76837" lon="2.238">
        <ele>137.6</ele>
        <time>2022-10-07T12:48:50Z</time>
      </trkpt>
      <trkpt lat="49.76836" lon="2.238">
        <ele>137.7</ele>
        <time>2022-10-07T12:48:51Z</time>
      </trkpt>
      <trkpt lat="49.76835" lon="2.238">
        <ele>137.7</ele>
        <time>2022-10-07T12:48:52Z</time>
      </trkpt>
      <trkpt lat="49.76833" lon="2.238">
        <ele>137.7</ele>
        <time>2022-10-07T12:48:53Z</time>
      </trkpt>
      <trkpt lat="49.76831" lon="2.23799">
        <ele>137.7</ele>
        <time>2022-10-07T12:48:54Z</time>
      </trkpt>
      <trkpt lat="49.76831" lon="2.23798">
        <ele>137.7</ele>
        <time>2022-10-07T12:48:55Z</time>
      </trkpt>
      <trkpt lat="49.7683" lon="2.23798">
        <ele>137.7</ele>
        <time>2022-10-07T12:48:56Z</time>
      </trkpt>
      <trkpt lat="49.76828" lon="2.23797">
        <ele>137.7</ele>
        <time>2022-10-07T12:48:57Z</time>
      </trkpt>
      <trkpt lat="49.76827" lon="2.23796">
        <ele>137.7</ele>
        <time>2022-10-07T12:48:58Z</time>
      </trkpt>
      <trkpt lat="49.76826" lon="2.23795">
        <ele>137.7</ele>
        <time>2022-10-07T12:48:59Z</time>
      </trkpt>
      <trkpt lat="49.76824" lon="2.23794">
        <ele>137.8</ele>
        <time>2022-10-07T12:49:01Z</time>
      </trkpt>
      <trkpt lat="49.76823" lon="2.23793">
        <ele>137.8</ele>
        <time>2022-10-07T12:49:02Z</time>
      </trkpt>
      <trkpt lat="49.76822" lon="2.23793">
        <ele>137.8</ele>
        <time>2022-10-07T12:49:03Z</time>
      </trkpt>
      <trkpt lat="49.7682" lon="2.23791">
        <ele>137.8</ele>
        <time>2022-10-07T12:49:05Z</time>
      </trkpt>
      <trkpt lat="49.76819" lon="2.23791">
        <ele>137.8</ele>
        <time>2022-10-07T12:49:06Z</time>
      </trkpt>
      <trkpt lat="49.76818" lon="2.2379">
        <ele>137.8</ele>
        <time>2022-10-07T12:49:07Z</time>
      </trkpt>
      <trkpt lat="49.76816" lon="2.23789">
        <ele>137.8</ele>
        <time>2022-10-07T12:49:08Z</time>
      </trkpt>
      <trkpt lat="49.76814" lon="2.23788">
        <ele>137.9</ele>
        <time>2022-10-07T12:49:09Z</time>
      </trkpt>
      <trkpt lat="49.76813" lon="2.23788">
        <ele>137.9</ele>
        <time>2022-10-07T12:49:10Z</time>
      </trkpt>
      <trkpt lat="49.76811" lon="2.23787">
        <ele>137.9</ele>
        <time>2022-10-07T12:49:11Z</time>
      </trkpt>
      <trkpt lat="49.7681" lon="2.23786">
        <ele>137.9</ele>
        <time>2022-10-07T12:49:12Z</time>
      </trkpt>
      <trkpt lat="49.76809" lon="2.23786">
        <ele>137.9</ele>
        <time>2022-10-07T12:49:13Z</time>
      </trkpt>
      <trkpt lat="49.76807" lon="2.23785">
        <ele>137.9</ele>
        <time>2022-10-07T12:49:14Z</time>
      </trkpt>
      <trkpt lat="49.76806" lon="2.23785">
        <ele>138</ele>
        <time>2022-10-07T12:49:15Z</time>
      </trkpt>
      <trkpt lat="49.76804" lon="2.23785">
        <ele>138</ele>
        <time>2022-10-07T12:49:17Z</time>
      </trkpt>
      <trkpt lat="49.76803" lon="2.23784">
        <ele>138</ele>
        <time>2022-10-07T12:49:18Z</time>
      </trkpt>
      <trkpt lat="49.76801" lon="2.23784">
        <ele>138</ele>
        <time>2022-10-07T12:49:19Z</time>
      </trkpt>
      <trkpt lat="49.768" lon="2.23783">
        <ele>138</ele>
        <time>2022-10-07T12:49:20Z</time>
      </trkpt>
      <trkpt lat="49.76799" lon="2.23783">
        <ele>138</ele>
        <time>2022-10-07T12:49:21Z</time>
      </trkpt>
      <trkpt lat="49.76798" lon="2.23782">
        <ele>138</ele>
        <time>2022-10-07T12:49:22Z</time>
      </trkpt>
      <trkpt lat="49.76797" lon="2.23782">
        <ele>138</ele>
        <time>2022-10-07T12:49:23Z</time>
      </trkpt>
      <trkpt lat="49.76794" lon="2.23781">
        <ele>138.1</ele>
        <time>2022-10-07T12:49:24Z</time>
      </trkpt>
      <trkpt lat="49.76794" lon="2.23781">
        <ele>138.1</ele>
        <time>2022-10-07T12:49:25Z</time>
      </trkpt>
      <trkpt lat="49.76793" lon="2.2378">
        <ele>138.1</ele>
        <time>2022-10-07T12:49:26Z</time>
      </trkpt>
      <trkpt lat="49.76791" lon="2.2378">
        <ele>138.1</ele>
        <time>2022-10-07T12:49:27Z</time>
      </trkpt>
      <trkpt lat="49.7679" lon="2.23779">
        <ele>138.1</ele>
        <time>2022-10-07T12:49:29Z</time>
      </trkpt>
      <trkpt lat="49.76789" lon="2.23779">
        <ele>138.1</ele>
        <time>2022-10-07T12:49:30Z</time>
      </trkpt>
      <trkpt lat="49.76787" lon="2.23778">
        <ele>138.1</ele>
        <time>2022-10-07T12:49:31Z</time>
      </trkpt>
      <trkpt lat="49.76785" lon="2.23778">
        <ele>138.1</ele>
        <time>2022-10-07T12:49:32Z</time>
      </trkpt>
      <trkpt lat="49.76784" lon="2.23778">
        <ele>138.1</ele>
        <time>2022-10-07T12:49:33Z</time>
      </trkpt>
      <trkpt lat="49.76783" lon="2.23777">
        <ele>138.1</ele>
        <time>2022-10-07T12:49:34Z</time>
      </trkpt>
      <trkpt lat="49.76782" lon="2.23777">
        <ele>138.1</ele>
        <time>2022-10-07T12:49:35Z</time>
      </trkpt>
      <trkpt lat="49.76781" lon="2.23777">
        <ele>138.1</ele>
        <time>2022-10-07T12:49:36Z</time>
      </trkpt>
      <trkpt lat="49.76779" lon="2.23776">
        <ele>138.1</ele>
        <time>2022-10-07T12:49:37Z</time>
      </trkpt>
      <trkpt lat="49.76778" lon="2.23775">
        <ele>138.1</ele>
        <time>2022-10-07T12:49:38Z</time>
      </trkpt>
      <trkpt lat="49.76777" lon="2.23774">
        <ele>138.1</ele>
        <time>2022-10-07T12:49:39Z</time>
      </trkpt>
      <trkpt lat="49.76775" lon="2.23773">
        <ele>138.1</ele>
        <time>2022-10-07T12:49:40Z</time>
      </trkpt>
      <trkpt lat="49.76774" lon="2.23773">
        <ele>138.1</ele>
        <time>2022-10-07T12:49:42Z</time>
      </trkpt>
      <trkpt lat="49.76773" lon="2.23773">
        <ele>138.1</ele>
        <time>2022-10-07T12:49:43Z</time>
      </trkpt>
      <trkpt lat="49.76771" lon="2.23773">
        <ele>138.1</ele>
        <time>2022-10-07T12:49:44Z</time>
      </trkpt>
      <trkpt lat="49.76769" lon="2.23773">
        <ele>138.1</ele>
        <time>2022-10-07T12:49:45Z</time>
      </trkpt>
      <trkpt lat="49.76769" lon="2.23772">
        <ele>138.1</ele>
        <time>2022-10-07T12:49:46Z</time>
      </trkpt>
      <trkpt lat="49.76767" lon="2.23772">
        <ele>138.2</ele>
        <time>2022-10-07T12:49:47Z</time>
      </trkpt>
      <trkpt lat="49.76766" lon="2.23771">
        <ele>138.2</ele>
        <time>2022-10-07T12:49:49Z</time>
      </trkpt>
      <trkpt lat="49.76764" lon="2.2377">
        <ele>138.2</ele>
        <time>2022-10-07T12:49:50Z</time>
      </trkpt>
      <trkpt lat="49.76763" lon="2.2377">
        <ele>138.2</ele>
        <time>2022-10-07T12:49:51Z</time>
      </trkpt>
      <trkpt lat="49.76761" lon="2.2377">
        <ele>138.2</ele>
        <time>2022-10-07T12:49:52Z</time>
      </trkpt>
      <trkpt lat="49.7676" lon="2.23769">
        <ele>138.2</ele>
        <time>2022-10-07T12:49:53Z</time>
      </trkpt>
      <trkpt lat="49.76759" lon="2.23769">
        <ele>138.2</ele>
        <time>2022-10-07T12:49:55Z</time>
      </trkpt>
      <trkpt lat="49.76758" lon="2.23768">
        <ele>138.2</ele>
        <time>2022-10-07T12:49:56Z</time>
      </trkpt>
      <trkpt lat="49.76757" lon="2.23767">
        <ele>138.2</ele>
        <time>2022-10-07T12:49:57Z</time>
      </trkpt>
      <trkpt lat="49.76756" lon="2.23767">
        <ele>138.2</ele>
        <time>2022-10-07T12:49:58Z</time>
      </trkpt>
      <trkpt lat="49.76755" lon="2.23766">
        <ele>138.2</ele>
        <time>2022-10-07T12:49:59Z</time>
      </trkpt>
      <trkpt lat="49.76754" lon="2.23766">
        <ele>138.2</ele>
        <time>2022-10-07T12:50:00Z</time>
      </trkpt>
      <trkpt lat="49.76753" lon="2.23766">
        <ele>138.3</ele>
        <time>2022-10-07T12:50:01Z</time>
      </trkpt>
      <trkpt lat="49.76752" lon="2.23765">
        <ele>138.3</ele>
        <time>2022-10-07T12:50:02Z</time>
      </trkpt>
      <trkpt lat="49.7675" lon="2.23765">
        <ele>138.3</ele>
        <time>2022-10-07T12:50:04Z</time>
      </trkpt>
      <trkpt lat="49.76748" lon="2.23764">
        <ele>138.3</ele>
        <time>2022-10-07T12:50:05Z</time>
      </trkpt>
      <trkpt lat="49.76747" lon="2.23763">
        <ele>138.3</ele>
        <time>2022-10-07T12:50:06Z</time>
      </trkpt>
      <trkpt lat="49.76745" lon="2.23762">
        <ele>138.3</ele>
        <time>2022-10-07T12:50:07Z</time>
      </trkpt>
      <trkpt lat="49.76744" lon="2.23762">
        <ele>138.4</ele>
        <time>2022-10-07T12:50:08Z</time>
      </trkpt>
      <trkpt lat="49.76744" lon="2.23761">
        <ele>138.4</ele>
        <time>2022-10-07T12:50:09Z</time>
      </trkpt>
      <trkpt lat="49.76742" lon="2.2376">
        <ele>138.4</ele>
        <time>2022-10-07T12:50:11Z</time>
      </trkpt>
      <trkpt lat="49.76741" lon="2.2376">
        <ele>138.4</ele>
        <time>2022-10-07T12:50:12Z</time>
      </trkpt>
      <trkpt lat="49.7674" lon="2.23759">
        <ele>138.4</ele>
        <time>2022-10-07T12:50:13Z</time>
      </trkpt>
      <trkpt lat="49.76739" lon="2.23759">
        <ele>138.4</ele>
        <time>2022-10-07T12:50:14Z</time>
      </trkpt>
      <trkpt lat="49.76738" lon="2.23759">
        <ele>138.4</ele>
        <time>2022-10-07T12:50:15Z</time>
      </trkpt>
      <trkpt lat="49.76737" lon="2.23758">
        <ele>138.5</ele>
        <time>2022-10-07T12:50:16Z</time>
      </trkpt>
      <trkpt lat="49.76736" lon="2.23758">
        <ele>138.5</ele>
        <time>2022-10-07T12:50:17Z</time>
      </trkpt>
      <trkpt lat="49.76734" lon="2.23757">
        <ele>138.5</ele>
        <time>2022-10-07T12:50:18Z</time>
      </trkpt>
      <trkpt lat="49.76733" lon="2.23757">
        <ele>138.5</ele>
        <time>2022-10-07T12:50:19Z</time>
      </trkpt>
      <trkpt lat="49.76732" lon="2.23757">
        <ele>138.5</ele>
        <time>2022-10-07T12:50:20Z</time>
      </trkpt>
      <trkpt lat="49.76731" lon="2.23757">
        <ele>138.5</ele>
        <time>2022-10-07T12:50:22Z</time>
      </trkpt>
      <trkpt lat="49.7673" lon="2.23756">
        <ele>138.6</ele>
        <time>2022-10-07T12:50:23Z</time>
      </trkpt>
      <trkpt lat="49.76729" lon="2.23756">
        <ele>138.6</ele>
        <time>2022-10-07T12:50:24Z</time>
      </trkpt>
      <trkpt lat="49.76728" lon="2.23756">
        <ele>138.6</ele>
        <time>2022-10-07T12:50:25Z</time>
      </trkpt>
      <trkpt lat="49.76727" lon="2.23756">
        <ele>138.6</ele>
        <time>2022-10-07T12:50:26Z</time>
      </trkpt>
      <trkpt lat="49.76726" lon="2.23756">
        <ele>138.6</ele>
        <time>2022-10-07T12:50:27Z</time>
      </trkpt>
      <trkpt lat="49.76725" lon="2.23756">
        <ele>138.6</ele>
        <time>2022-10-07T12:50:28Z</time>
      </trkpt>
      <trkpt lat="49.76724" lon="2.23755">
        <ele>138.7</ele>
        <time>2022-10-07T12:50:29Z</time>
      </trkpt>
      <trkpt lat="49.76723" lon="2.23755">
        <ele>138.7</ele>
        <time>2022-10-07T12:50:30Z</time>
      </trkpt>
      <trkpt lat="49.76721" lon="2.23754">
        <ele>138.7</ele>
        <time>2022-10-07T12:50:32Z</time>
      </trkpt>
      <trkpt lat="49.7672" lon="2.23753">
        <ele>138.7</ele>
        <time>2022-10-07T12:50:33Z</time>
      </trkpt>
      <trkpt lat="49.76719" lon="2.23753">
        <ele>138.7</ele>
        <time>2022-10-07T12:50:34Z</time>
      </trkpt>
      <trkpt lat="49.76719" lon="2.23752">
        <ele>138.7</ele>
        <time>2022-10-07T12:50:35Z</time>
      </trkpt>
      <trkpt lat="49.76718" lon="2.23752">
        <ele>138.7</ele>
        <time>2022-10-07T12:50:36Z</time>
      </trkpt>
      <trkpt lat="49.76717" lon="2.23751">
        <ele>138.8</ele>
        <time>2022-10-07T12:50:37Z</time>
      </trkpt>
      <trkpt lat="49.76716" lon="2.2375">
        <ele>138.8</ele>
        <time>2022-10-07T12:50:38Z</time>
      </trkpt>
      <trkpt lat="49.76714" lon="2.23749">
        <ele>138.8</ele>
        <time>2022-10-07T12:50:39Z</time>
      </trkpt>
      <trkpt lat="49.76713" lon="2.23749">
        <ele>138.8</ele>
        <time>2022-10-07T12:50:40Z</time>
      </trkpt>
      <trkpt lat="49.76712" lon="2.23748">
        <ele>138.8</ele>
        <time>2022-10-07T12:50:41Z</time>
      </trkpt>
      <trkpt lat="49.76711" lon="2.23747">
        <ele>138.9</ele>
        <time>2022-10-07T12:50:42Z</time>
      </trkpt>
      <trkpt lat="49.7671" lon="2.23747">
        <ele>138.9</ele>
        <time>2022-10-07T12:50:44Z</time>
      </trkpt>
      <trkpt lat="49.76708" lon="2.23746">
        <ele>138.9</ele>
        <time>2022-10-07T12:50:45Z</time>
      </trkpt>
      <trkpt lat="49.76707" lon="2.23745">
        <ele>138.9</ele>
        <time>2022-10-07T12:50:46Z</time>
      </trkpt>
      <trkpt lat="49.76705" lon="2.23744">
        <ele>139</ele>
        <time>2022-10-07T12:50:47Z</time>
      </trkpt>
      <trkpt lat="49.76704" lon="2.23744">
        <ele>139</ele>
        <time>2022-10-07T12:50:48Z</time>
      </trkpt>
      <trkpt lat="49.76703" lon="2.23743">
        <ele>139</ele>
        <time>2022-10-07T12:50:49Z</time>
      </trkpt>
      <trkpt lat="49.76702" lon="2.23742">
        <ele>139</ele>
        <time>2022-10-07T12:50:50Z</time>
      </trkpt>
      <trkpt lat="49.767" lon="2.23742">
        <ele>139</ele>
        <time>2022-10-07T12:50:51Z</time>
      </trkpt>
      <trkpt lat="49.767" lon="2.23741">
        <ele>139</ele>
        <time>2022-10-07T12:50:52Z</time>
      </trkpt>
      <trkpt lat="49.76698" lon="2.23741">
        <ele>139.1</ele>
        <time>2022-10-07T12:50:54Z</time>
      </trkpt>
      <trkpt lat="49.76697" lon="2.2374">
        <ele>139.1</ele>
        <time>2022-10-07T12:50:55Z</time>
      </trkpt>
      <trkpt lat="49.76696" lon="2.2374">
        <ele>139.1</ele>
        <time>2022-10-07T12:50:56Z</time>
      </trkpt>
      <trkpt lat="49.76695" lon="2.23739">
        <ele>139.1</ele>
        <time>2022-10-07T12:50:57Z</time>
      </trkpt>
      <trkpt lat="49.76694" lon="2.23739">
        <ele>139.1</ele>
        <time>2022-10-07T12:50:58Z</time>
      </trkpt>
      <trkpt lat="49.76692" lon="2.23738">
        <ele>139.1</ele>
        <time>2022-10-07T12:50:59Z</time>
      </trkpt>
      <trkpt lat="49.76691" lon="2.23737">
        <ele>139.2</ele>
        <time>2022-10-07T12:51:00Z</time>
      </trkpt>
      <trkpt lat="49.76691" lon="2.23737">
        <ele>139.2</ele>
        <time>2022-10-07T12:51:01Z</time>
      </trkpt>
      <trkpt lat="49.76689" lon="2.23736">
        <ele>139.2</ele>
        <time>2022-10-07T12:51:02Z</time>
      </trkpt>
      <trkpt lat="49.76688" lon="2.23736">
        <ele>139.2</ele>
        <time>2022-10-07T12:51:03Z</time>
      </trkpt>
      <trkpt lat="49.76685" lon="2.23735">
        <ele>139.2</ele>
        <time>2022-10-07T12:51:04Z</time>
      </trkpt>
      <trkpt lat="49.76684" lon="2.23735">
        <ele>139.3</ele>
        <time>2022-10-07T12:51:06Z</time>
      </trkpt>
      <trkpt lat="49.76683" lon="2.23735">
        <ele>139.3</ele>
        <time>2022-10-07T12:51:07Z</time>
      </trkpt>
      <trkpt lat="49.76682" lon="2.23735">
        <ele>139.3</ele>
        <time>2022-10-07T12:51:08Z</time>
      </trkpt>
      <trkpt lat="49.76681" lon="2.23734">
        <ele>139.3</ele>
        <time>2022-10-07T12:51:09Z</time>
      </trkpt>
      <trkpt lat="49.76679" lon="2.23734">
        <ele>139.3</ele>
        <time>2022-10-07T12:51:10Z</time>
      </trkpt>
      <trkpt lat="49.76678" lon="2.23734">
        <ele>139.3</ele>
        <time>2022-10-07T12:51:11Z</time>
      </trkpt>
      <trkpt lat="49.76678" lon="2.23733">
        <ele>139.3</ele>
        <time>2022-10-07T12:51:12Z</time>
      </trkpt>
      <trkpt lat="49.76676" lon="2.23733">
        <ele>139.4</ele>
        <time>2022-10-07T12:51:13Z</time>
      </trkpt>
      <trkpt lat="49.76675" lon="2.23732">
        <ele>139.4</ele>
        <time>2022-10-07T12:51:14Z</time>
      </trkpt>
      <trkpt lat="49.76673" lon="2.23732">
        <ele>139.4</ele>
        <time>2022-10-07T12:51:15Z</time>
      </trkpt>
      <trkpt lat="49.76672" lon="2.23731">
        <ele>139.4</ele>
        <time>2022-10-07T12:51:17Z</time>
      </trkpt>
      <trkpt lat="49.76671" lon="2.23731">
        <ele>139.4</ele>
        <time>2022-10-07T12:51:18Z</time>
      </trkpt>
      <trkpt lat="49.76669" lon="2.23731">
        <ele>139.5</ele>
        <time>2022-10-07T12:51:19Z</time>
      </trkpt>
      <trkpt lat="49.76669" lon="2.23731">
        <ele>139.5</ele>
        <time>2022-10-07T12:51:20Z</time>
      </trkpt>
      <trkpt lat="49.76668" lon="2.2373">
        <ele>139.5</ele>
        <time>2022-10-07T12:51:21Z</time>
      </trkpt>
      <trkpt lat="49.76666" lon="2.2373">
        <ele>139.5</ele>
        <time>2022-10-07T12:51:22Z</time>
      </trkpt>
      <trkpt lat="49.76665" lon="2.23729">
        <ele>139.5</ele>
        <time>2022-10-07T12:51:23Z</time>
      </trkpt>
      <trkpt lat="49.76664" lon="2.23729">
        <ele>139.5</ele>
        <time>2022-10-07T12:51:24Z</time>
      </trkpt>
      <trkpt lat="49.76662" lon="2.23728">
        <ele>139.6</ele>
        <time>2022-10-07T12:51:26Z</time>
      </trkpt>
      <trkpt lat="49.76661" lon="2.23728">
        <ele>139.6</ele>
        <time>2022-10-07T12:51:27Z</time>
      </trkpt>
      <trkpt lat="49.7666" lon="2.23728">
        <ele>139.6</ele>
        <time>2022-10-07T12:51:28Z</time>
      </trkpt>
      <trkpt lat="49.7666" lon="2.23727">
        <ele>139.6</ele>
        <time>2022-10-07T12:51:29Z</time>
      </trkpt>
      <trkpt lat="49.76659" lon="2.23726">
        <ele>139.6</ele>
        <time>2022-10-07T12:51:30Z</time>
      </trkpt>
      <trkpt lat="49.76658" lon="2.23724">
        <ele>139.6</ele>
        <time>2022-10-07T12:51:31Z</time>
      </trkpt>
      <trkpt lat="49.76658" lon="2.23721">
        <ele>139.6</ele>
        <time>2022-10-07T12:51:32Z</time>
      </trkpt>
      <trkpt lat="49.76658" lon="2.23719">
        <ele>139.6</ele>
        <time>2022-10-07T12:51:33Z</time>
      </trkpt>
      <trkpt lat="49.76657" lon="2.23718">
        <ele>139.6</ele>
        <time>2022-10-07T12:51:34Z</time>
      </trkpt>
      <trkpt lat="49.76657" lon="2.23715">
        <ele>139.5</ele>
        <time>2022-10-07T12:51:35Z</time>
      </trkpt>
      <trkpt lat="49.76658" lon="2.23713">
        <ele>139.5</ele>
        <time>2022-10-07T12:51:36Z</time>
      </trkpt>
      <trkpt lat="49.76658" lon="2.2371">
        <ele>139.5</ele>
        <time>2022-10-07T12:51:38Z</time>
      </trkpt>
      <trkpt lat="49.76658" lon="2.23708">
        <ele>139.5</ele>
        <time>2022-10-07T12:51:39Z</time>
      </trkpt>
      <trkpt lat="49.76658" lon="2.23705">
        <ele>139.5</ele>
        <time>2022-10-07T12:51:40Z</time>
      </trkpt>
      <trkpt lat="49.76659" lon="2.23704">
        <ele>139.5</ele>
        <time>2022-10-07T12:51:41Z</time>
      </trkpt>
      <trkpt lat="49.7666" lon="2.23701">
        <ele>139.5</ele>
        <time>2022-10-07T12:51:42Z</time>
      </trkpt>
      <trkpt lat="49.7666" lon="2.237">
        <ele>139.5</ele>
        <time>2022-10-07T12:51:43Z</time>
      </trkpt>
      <trkpt lat="49.7666" lon="2.23698">
        <ele>139.5</ele>
        <time>2022-10-07T12:51:44Z</time>
      </trkpt>
      <trkpt lat="49.76661" lon="2.23695">
        <ele>139.5</ele>
        <time>2022-10-07T12:51:45Z</time>
      </trkpt>
      <trkpt lat="49.76661" lon="2.23694">
        <ele>139.5</ele>
        <time>2022-10-07T12:51:46Z</time>
      </trkpt>
      <trkpt lat="49.76661" lon="2.23693">
        <ele>139.5</ele>
        <time>2022-10-07T12:51:47Z</time>
      </trkpt>
      <trkpt lat="49.76662" lon="2.23691">
        <ele>139.5</ele>
        <time>2022-10-07T12:51:48Z</time>
      </trkpt>
      <trkpt lat="49.76662" lon="2.23688">
        <ele>139.5</ele>
        <time>2022-10-07T12:51:50Z</time>
      </trkpt>
      <trkpt lat="49.76662" lon="2.23686">
        <ele>139.5</ele>
        <time>2022-10-07T12:51:51Z</time>
      </trkpt>
      <trkpt lat="49.76663" lon="2.23685">
        <ele>139.5</ele>
        <time>2022-10-07T12:51:52Z</time>
      </trkpt>
      <trkpt lat="49.76663" lon="2.23683">
        <ele>139.5</ele>
        <time>2022-10-07T12:51:53Z</time>
      </trkpt>
      <trkpt lat="49.76663" lon="2.2368">
        <ele>139.5</ele>
        <time>2022-10-07T12:51:54Z</time>
      </trkpt>
      <trkpt lat="49.76663" lon="2.23679">
        <ele>139.5</ele>
        <time>2022-10-07T12:51:55Z</time>
      </trkpt>
      <trkpt lat="49.76663" lon="2.23678">
        <ele>139.5</ele>
        <time>2022-10-07T12:51:56Z</time>
      </trkpt>
      <trkpt lat="49.76663" lon="2.23675">
        <ele>139.5</ele>
        <time>2022-10-07T12:51:57Z</time>
      </trkpt>
      <trkpt lat="49.76663" lon="2.23674">
        <ele>139.5</ele>
        <time>2022-10-07T12:51:58Z</time>
      </trkpt>
      <trkpt lat="49.76664" lon="2.23672">
        <ele>139.5</ele>
        <time>2022-10-07T12:52:00Z</time>
      </trkpt>
      <trkpt lat="49.76664" lon="2.23668">
        <ele>139.5</ele>
        <time>2022-10-07T12:52:01Z</time>
      </trkpt>
      <trkpt lat="49.76664" lon="2.23667">
        <ele>139.5</ele>
        <time>2022-10-07T12:52:02Z</time>
      </trkpt>
      <trkpt lat="49.76664" lon="2.23666">
        <ele>139.5</ele>
        <time>2022-10-07T12:52:03Z</time>
      </trkpt>
      <trkpt lat="49.76664" lon="2.23665">
        <ele>139.5</ele>
        <time>2022-10-07T12:52:04Z</time>
      </trkpt>
      <trkpt lat="49.76664" lon="2.23663">
        <ele>139.5</ele>
        <time>2022-10-07T12:52:05Z</time>
      </trkpt>
      <trkpt lat="49.76664" lon="2.23661">
        <ele>139.5</ele>
        <time>2022-10-07T12:52:06Z</time>
      </trkpt>
      <trkpt lat="49.76665" lon="2.23657">
        <ele>139.6</ele>
        <time>2022-10-07T12:52:07Z</time>
      </trkpt>
      <trkpt lat="49.76665" lon="2.23656">
        <ele>139.6</ele>
        <time>2022-10-07T12:52:08Z</time>
      </trkpt>
      <trkpt lat="49.76665" lon="2.23655">
        <ele>139.6</ele>
        <time>2022-10-07T12:52:09Z</time>
      </trkpt>
      <trkpt lat="49.76665" lon="2.23653">
        <ele>139.6</ele>
        <time>2022-10-07T12:52:10Z</time>
      </trkpt>
      <trkpt lat="49.76665" lon="2.23651">
        <ele>139.6</ele>
        <time>2022-10-07T12:52:11Z</time>
      </trkpt>
      <trkpt lat="49.76665" lon="2.23649">
        <ele>139.6</ele>
        <time>2022-10-07T12:52:13Z</time>
      </trkpt>
      <trkpt lat="49.76664" lon="2.23647">
        <ele>139.6</ele>
        <time>2022-10-07T12:52:14Z</time>
      </trkpt>
      <trkpt lat="49.76664" lon="2.23646">
        <ele>139.6</ele>
        <time>2022-10-07T12:52:15Z</time>
      </trkpt>
      <trkpt lat="49.76664" lon="2.23644">
        <ele>139.6</ele>
        <time>2022-10-07T12:52:16Z</time>
      </trkpt>
      <trkpt lat="49.76663" lon="2.23643">
        <ele>139.6</ele>
        <time>2022-10-07T12:52:17Z</time>
      </trkpt>
      <trkpt lat="49.76663" lon="2.23641">
        <ele>139.6</ele>
        <time>2022-10-07T12:52:18Z</time>
      </trkpt>
      <trkpt lat="49.76663" lon="2.2364">
        <ele>139.6</ele>
        <time>2022-10-07T12:52:19Z</time>
      </trkpt>
      <trkpt lat="49.76663" lon="2.23636">
        <ele>139.6</ele>
        <time>2022-10-07T12:52:20Z</time>
      </trkpt>
      <trkpt lat="49.76663" lon="2.23635">
        <ele>139.6</ele>
        <time>2022-10-07T12:52:21Z</time>
      </trkpt>
      <trkpt lat="49.76663" lon="2.23634">
        <ele>139.6</ele>
        <time>2022-10-07T12:52:22Z</time>
      </trkpt>
      <trkpt lat="49.76663" lon="2.23632">
        <ele>139.6</ele>
        <time>2022-10-07T12:52:23Z</time>
      </trkpt>
      <trkpt lat="49.76662" lon="2.23629">
        <ele>139.6</ele>
        <time>2022-10-07T12:52:24Z</time>
      </trkpt>
      <trkpt lat="49.76662" lon="2.23627">
        <ele>139.6</ele>
        <time>2022-10-07T12:52:26Z</time>
      </trkpt>
      <trkpt lat="49.76662" lon="2.23626">
        <ele>139.6</ele>
        <time>2022-10-07T12:52:27Z</time>
      </trkpt>
      <trkpt lat="49.76661" lon="2.23624">
        <ele>139.6</ele>
        <time>2022-10-07T12:52:28Z</time>
      </trkpt>
      <trkpt lat="49.76661" lon="2.23623">
        <ele>139.6</ele>
        <time>2022-10-07T12:52:29Z</time>
      </trkpt>
      <trkpt lat="49.76661" lon="2.23621">
        <ele>139.6</ele>
        <time>2022-10-07T12:52:30Z</time>
      </trkpt>
      <trkpt lat="49.76661" lon="2.2362">
        <ele>139.6</ele>
        <time>2022-10-07T12:52:31Z</time>
      </trkpt>
      <trkpt lat="49.76661" lon="2.23618">
        <ele>139.7</ele>
        <time>2022-10-07T12:52:32Z</time>
      </trkpt>
      <trkpt lat="49.7666" lon="2.23616">
        <ele>139.7</ele>
        <time>2022-10-07T12:52:33Z</time>
      </trkpt>
      <trkpt lat="49.7666" lon="2.23614">
        <ele>139.7</ele>
        <time>2022-10-07T12:52:35Z</time>
      </trkpt>
      <trkpt lat="49.7666" lon="2.2361">
        <ele>139.7</ele>
        <time>2022-10-07T12:52:36Z</time>
      </trkpt>
      <trkpt lat="49.7666" lon="2.23609">
        <ele>139.7</ele>
        <time>2022-10-07T12:52:37Z</time>
      </trkpt>
      <trkpt lat="49.7666" lon="2.23607">
        <ele>139.7</ele>
        <time>2022-10-07T12:52:38Z</time>
      </trkpt>
      <trkpt lat="49.7666" lon="2.23605">
        <ele>139.7</ele>
        <time>2022-10-07T12:52:39Z</time>
      </trkpt>
      <trkpt lat="49.7666" lon="2.23603">
        <ele>139.7</ele>
        <time>2022-10-07T12:52:41Z</time>
      </trkpt>
      <trkpt lat="49.7666" lon="2.23601">
        <ele>139.7</ele>
        <time>2022-10-07T12:52:42Z</time>
      </trkpt>
      <trkpt lat="49.7666" lon="2.23599">
        <ele>139.7</ele>
        <time>2022-10-07T12:52:43Z</time>
      </trkpt>
      <trkpt lat="49.7666" lon="2.23597">
        <ele>139.7</ele>
        <time>2022-10-07T12:52:44Z</time>
      </trkpt>
      <trkpt lat="49.76661" lon="2.23594">
        <ele>139.7</ele>
        <time>2022-10-07T12:52:45Z</time>
      </trkpt>
      <trkpt lat="49.76661" lon="2.23593">
        <ele>139.7</ele>
        <time>2022-10-07T12:52:46Z</time>
      </trkpt>
      <trkpt lat="49.76661" lon="2.23592">
        <ele>139.7</ele>
        <time>2022-10-07T12:52:47Z</time>
      </trkpt>
      <trkpt lat="49.76661" lon="2.23588">
        <ele>139.8</ele>
        <time>2022-10-07T12:52:48Z</time>
      </trkpt>
      <trkpt lat="49.76661" lon="2.23587">
        <ele>139.8</ele>
        <time>2022-10-07T12:52:49Z</time>
      </trkpt>
      <trkpt lat="49.76661" lon="2.23586">
        <ele>139.8</ele>
        <time>2022-10-07T12:52:50Z</time>
      </trkpt>
      <trkpt lat="49.7666" lon="2.23583">
        <ele>139.8</ele>
        <time>2022-10-07T12:52:51Z</time>
      </trkpt>
      <trkpt lat="49.7666" lon="2.23581">
        <ele>139.8</ele>
        <time>2022-10-07T12:52:52Z</time>
      </trkpt>
      <trkpt lat="49.7666" lon="2.23579">
        <ele>139.8</ele>
        <time>2022-10-07T12:52:54Z</time>
      </trkpt>
      <trkpt lat="49.76659" lon="2.23577">
        <ele>139.8</ele>
        <time>2022-10-07T12:52:55Z</time>
      </trkpt>
      <trkpt lat="49.76659" lon="2.23575">
        <ele>139.9</ele>
        <time>2022-10-07T12:52:56Z</time>
      </trkpt>
      <trkpt lat="49.76659" lon="2.23572">
        <ele>139.9</ele>
        <time>2022-10-07T12:52:57Z</time>
      </trkpt>
      <trkpt lat="49.76659" lon="2.2357">
        <ele>139.9</ele>
        <time>2022-10-07T12:52:58Z</time>
      </trkpt>
      <trkpt lat="49.76659" lon="2.23568">
        <ele>139.9</ele>
        <time>2022-10-07T12:52:59Z</time>
      </trkpt>
      <trkpt lat="49.76659" lon="2.23566">
        <ele>139.9</ele>
        <time>2022-10-07T12:53:01Z</time>
      </trkpt>
      <trkpt lat="49.76658" lon="2.23564">
        <ele>140</ele>
        <time>2022-10-07T12:53:02Z</time>
      </trkpt>
      <trkpt lat="49.76658" lon="2.23563">
        <ele>140</ele>
        <time>2022-10-07T12:53:03Z</time>
      </trkpt>
      <trkpt lat="49.76658" lon="2.2356">
        <ele>140</ele>
        <time>2022-10-07T12:53:04Z</time>
      </trkpt>
      <trkpt lat="49.76658" lon="2.23558">
        <ele>140</ele>
        <time>2022-10-07T12:53:05Z</time>
      </trkpt>
      <trkpt lat="49.76658" lon="2.23556">
        <ele>140.1</ele>
        <time>2022-10-07T12:53:06Z</time>
      </trkpt>
      <trkpt lat="49.76658" lon="2.23554">
        <ele>140.1</ele>
        <time>2022-10-07T12:53:07Z</time>
      </trkpt>
      <trkpt lat="49.76657" lon="2.23551">
        <ele>140.1</ele>
        <time>2022-10-07T12:53:09Z</time>
      </trkpt>
      <trkpt lat="49.76657" lon="2.23549">
        <ele>140.2</ele>
        <time>2022-10-07T12:53:10Z</time>
      </trkpt>
      <trkpt lat="49.76657" lon="2.23547">
        <ele>140.2</ele>
        <time>2022-10-07T12:53:11Z</time>
      </trkpt>
      <trkpt lat="49.76657" lon="2.23544">
        <ele>140.2</ele>
        <time>2022-10-07T12:53:12Z</time>
      </trkpt>
      <trkpt lat="49.76657" lon="2.23541">
        <ele>140.3</ele>
        <time>2022-10-07T12:53:13Z</time>
      </trkpt>
      <trkpt lat="49.76657" lon="2.2354">
        <ele>140.3</ele>
        <time>2022-10-07T12:53:14Z</time>
      </trkpt>
      <trkpt lat="49.76657" lon="2.23539">
        <ele>140.3</ele>
        <time>2022-10-07T12:53:15Z</time>
      </trkpt>
      <trkpt lat="49.76657" lon="2.23537">
        <ele>140.3</ele>
        <time>2022-10-07T12:53:16Z</time>
      </trkpt>
      <trkpt lat="49.76656" lon="2.23535">
        <ele>140.3</ele>
        <time>2022-10-07T12:53:17Z</time>
      </trkpt>
      <trkpt lat="49.76656" lon="2.23534">
        <ele>140.4</ele>
        <time>2022-10-07T12:53:19Z</time>
      </trkpt>
      <trkpt lat="49.76656" lon="2.23531">
        <ele>140.4</ele>
        <time>2022-10-07T12:53:20Z</time>
      </trkpt>
      <trkpt lat="49.76656" lon="2.2353">
        <ele>140.4</ele>
        <time>2022-10-07T12:53:21Z</time>
      </trkpt>
      <trkpt lat="49.76657" lon="2.23528">
        <ele>140.4</ele>
        <time>2022-10-07T12:53:22Z</time>
      </trkpt>
      <trkpt lat="49.76656" lon="2.23526">
        <ele>140.5</ele>
        <time>2022-10-07T12:53:23Z</time>
      </trkpt>
      <trkpt lat="49.76656" lon="2.23524">
        <ele>140.5</ele>
        <time>2022-10-07T12:53:24Z</time>
      </trkpt>
      <trkpt lat="49.76656" lon="2.23522">
        <ele>140.5</ele>
        <time>2022-10-07T12:53:25Z</time>
      </trkpt>
      <trkpt lat="49.76656" lon="2.2352">
        <ele>140.6</ele>
        <time>2022-10-07T12:53:26Z</time>
      </trkpt>
      <trkpt lat="49.76656" lon="2.23518">
        <ele>140.6</ele>
        <time>2022-10-07T12:53:27Z</time>
      </trkpt>
      <trkpt lat="49.76656" lon="2.23516">
        <ele>140.6</ele>
        <time>2022-10-07T12:53:28Z</time>
      </trkpt>
      <trkpt lat="49.76656" lon="2.23514">
        <ele>140.7</ele>
        <time>2022-10-07T12:53:29Z</time>
      </trkpt>
      <trkpt lat="49.76656" lon="2.23513">
        <ele>140.7</ele>
        <time>2022-10-07T12:53:30Z</time>
      </trkpt>
      <trkpt lat="49.76656" lon="2.23511">
        <ele>140.7</ele>
        <time>2022-10-07T12:53:31Z</time>
      </trkpt>
      <trkpt lat="49.76656" lon="2.23509">
        <ele>140.8</ele>
        <time>2022-10-07T12:53:33Z</time>
      </trkpt>
      <trkpt lat="49.76656" lon="2.23505">
        <ele>140.8</ele>
        <time>2022-10-07T12:53:34Z</time>
      </trkpt>
      <trkpt lat="49.76656" lon="2.23504">
        <ele>140.9</ele>
        <time>2022-10-07T12:53:35Z</time>
      </trkpt>
      <trkpt lat="49.76655" lon="2.23503">
        <ele>140.9</ele>
        <time>2022-10-07T12:53:36Z</time>
      </trkpt>
      <trkpt lat="49.76655" lon="2.23499">
        <ele>141</ele>
        <time>2022-10-07T12:53:37Z</time>
      </trkpt>
      <trkpt lat="49.76655" lon="2.23498">
        <ele>141</ele>
        <time>2022-10-07T12:53:38Z</time>
      </trkpt>
      <trkpt lat="49.76655" lon="2.23496">
        <ele>141</ele>
        <time>2022-10-07T12:53:39Z</time>
      </trkpt>
      <trkpt lat="49.76655" lon="2.23494">
        <ele>141</ele>
        <time>2022-10-07T12:53:41Z</time>
      </trkpt>
      <trkpt lat="49.76655" lon="2.23493">
        <ele>141.1</ele>
        <time>2022-10-07T12:53:42Z</time>
      </trkpt>
      <trkpt lat="49.76655" lon="2.23491">
        <ele>141.1</ele>
        <time>2022-10-07T12:53:43Z</time>
      </trkpt>
      <trkpt lat="49.76654" lon="2.23489">
        <ele>141.2</ele>
        <time>2022-10-07T12:53:44Z</time>
      </trkpt>
      <trkpt lat="49.76654" lon="2.23488">
        <ele>141.2</ele>
        <time>2022-10-07T12:53:45Z</time>
      </trkpt>
      <trkpt lat="49.76654" lon="2.23486">
        <ele>141.2</ele>
        <time>2022-10-07T12:53:46Z</time>
      </trkpt>
      <trkpt lat="49.76653" lon="2.23483">
        <ele>141.3</ele>
        <time>2022-10-07T12:53:47Z</time>
      </trkpt>
      <trkpt lat="49.76653" lon="2.23481">
        <ele>141.3</ele>
        <time>2022-10-07T12:53:49Z</time>
      </trkpt>
      <trkpt lat="49.76653" lon="2.23479">
        <ele>141.4</ele>
        <time>2022-10-07T12:53:50Z</time>
      </trkpt>
      <trkpt lat="49.76653" lon="2.23477">
        <ele>141.4</ele>
        <time>2022-10-07T12:53:51Z</time>
      </trkpt>
      <trkpt lat="49.76653" lon="2.23475">
        <ele>141.5</ele>
        <time>2022-10-07T12:53:52Z</time>
      </trkpt>
      <trkpt lat="49.76653" lon="2.23473">
        <ele>141.5</ele>
        <time>2022-10-07T12:53:53Z</time>
      </trkpt>
      <trkpt lat="49.76652" lon="2.23471">
        <ele>141.6</ele>
        <time>2022-10-07T12:53:54Z</time>
      </trkpt>
      <trkpt lat="49.76652" lon="2.23468">
        <ele>141.7</ele>
        <time>2022-10-07T12:53:56Z</time>
      </trkpt>
      <trkpt lat="49.76651" lon="2.23467">
        <ele>141.7</ele>
        <time>2022-10-07T12:53:57Z</time>
      </trkpt>
      <trkpt lat="49.76651" lon="2.23465">
        <ele>141.8</ele>
        <time>2022-10-07T12:53:58Z</time>
      </trkpt>
      <trkpt lat="49.76651" lon="2.23463">
        <ele>141.8</ele>
        <time>2022-10-07T12:53:59Z</time>
      </trkpt>
      <trkpt lat="49.7665" lon="2.23461">
        <ele>141.8</ele>
        <time>2022-10-07T12:54:00Z</time>
      </trkpt>
      <trkpt lat="49.7665" lon="2.2346">
        <ele>141.9</ele>
        <time>2022-10-07T12:54:01Z</time>
      </trkpt>
      <trkpt lat="49.7665" lon="2.23458">
        <ele>141.9</ele>
        <time>2022-10-07T12:54:02Z</time>
      </trkpt>
      <trkpt lat="49.7665" lon="2.23456">
        <ele>142</ele>
        <time>2022-10-07T12:54:03Z</time>
      </trkpt>
      <trkpt lat="49.7665" lon="2.23455">
        <ele>142</ele>
        <time>2022-10-07T12:54:04Z</time>
      </trkpt>
      <trkpt lat="49.7665" lon="2.23453">
        <ele>142.1</ele>
        <time>2022-10-07T12:54:05Z</time>
      </trkpt>
      <trkpt lat="49.7665" lon="2.23451">
        <ele>142.1</ele>
        <time>2022-10-07T12:54:06Z</time>
      </trkpt>
      <trkpt lat="49.7665" lon="2.2345">
        <ele>142.2</ele>
        <time>2022-10-07T12:54:07Z</time>
      </trkpt>
      <trkpt lat="49.7665" lon="2.23448">
        <ele>142.2</ele>
        <time>2022-10-07T12:54:08Z</time>
      </trkpt>
      <trkpt lat="49.7665" lon="2.23444">
        <ele>142.3</ele>
        <time>2022-10-07T12:54:10Z</time>
      </trkpt>
      <trkpt lat="49.7665" lon="2.23442">
        <ele>142.3</ele>
        <time>2022-10-07T12:54:11Z</time>
      </trkpt>
      <trkpt lat="49.7665" lon="2.23441">
        <ele>142.4</ele>
        <time>2022-10-07T12:54:12Z</time>
      </trkpt>
      <trkpt lat="49.7665" lon="2.2344">
        <ele>142.4</ele>
        <time>2022-10-07T12:54:13Z</time>
      </trkpt>
      <trkpt lat="49.7665" lon="2.23439">
        <ele>142.4</ele>
        <time>2022-10-07T12:54:14Z</time>
      </trkpt>
      <trkpt lat="49.7665" lon="2.23437">
        <ele>142.5</ele>
        <time>2022-10-07T12:54:15Z</time>
      </trkpt>
      <trkpt lat="49.7665" lon="2.23436">
        <ele>142.5</ele>
        <time>2022-10-07T12:54:16Z</time>
      </trkpt>
      <trkpt lat="49.7665" lon="2.23434">
        <ele>142.6</ele>
        <time>2022-10-07T12:54:17Z</time>
      </trkpt>
      <trkpt lat="49.7665" lon="2.23432">
        <ele>142.6</ele>
        <time>2022-10-07T12:54:18Z</time>
      </trkpt>
      <trkpt lat="49.7665" lon="2.2343">
        <ele>142.7</ele>
        <time>2022-10-07T12:54:19Z</time>
      </trkpt>
      <trkpt lat="49.7665" lon="2.23427">
        <ele>142.8</ele>
        <time>2022-10-07T12:54:20Z</time>
      </trkpt>
      <trkpt lat="49.7665" lon="2.23426">
        <ele>142.8</ele>
        <time>2022-10-07T12:54:22Z</time>
      </trkpt>
      <trkpt lat="49.7665" lon="2.23424">
        <ele>142.8</ele>
        <time>2022-10-07T12:54:23Z</time>
      </trkpt>
      <trkpt lat="49.7665" lon="2.23423">
        <ele>142.9</ele>
        <time>2022-10-07T12:54:24Z</time>
      </trkpt>
      <trkpt lat="49.7665" lon="2.23421">
        <ele>142.9</ele>
        <time>2022-10-07T12:54:25Z</time>
      </trkpt>
      <trkpt lat="49.7665" lon="2.2342">
        <ele>143</ele>
        <time>2022-10-07T12:54:26Z</time>
      </trkpt>
      <trkpt lat="49.76651" lon="2.23418">
        <ele>143</ele>
        <time>2022-10-07T12:54:27Z</time>
      </trkpt>
      <trkpt lat="49.7665" lon="2.23416">
        <ele>143</ele>
        <time>2022-10-07T12:54:28Z</time>
      </trkpt>
      <trkpt lat="49.7665" lon="2.23414">
        <ele>143.1</ele>
        <time>2022-10-07T12:54:29Z</time>
      </trkpt>
      <trkpt lat="49.7665" lon="2.23412">
        <ele>143.2</ele>
        <time>2022-10-07T12:54:31Z</time>
      </trkpt>
      <trkpt lat="49.7665" lon="2.2341">
        <ele>143.2</ele>
        <time>2022-10-07T12:54:32Z</time>
      </trkpt>
      <trkpt lat="49.7665" lon="2.23408">
        <ele>143.3</ele>
        <time>2022-10-07T12:54:33Z</time>
      </trkpt>
      <trkpt lat="49.7665" lon="2.23406">
        <ele>143.3</ele>
        <time>2022-10-07T12:54:34Z</time>
      </trkpt>
      <trkpt lat="49.7665" lon="2.23403">
        <ele>143.4</ele>
        <time>2022-10-07T12:54:35Z</time>
      </trkpt>
      <trkpt lat="49.7665" lon="2.23401">
        <ele>143.5</ele>
        <time>2022-10-07T12:54:36Z</time>
      </trkpt>
      <trkpt lat="49.76649" lon="2.23398">
        <ele>143.5</ele>
        <time>2022-10-07T12:54:38Z</time>
      </trkpt>
      <trkpt lat="49.7665" lon="2.23397">
        <ele>143.6</ele>
        <time>2022-10-07T12:54:39Z</time>
      </trkpt>
      <trkpt lat="49.7665" lon="2.23396">
        <ele>143.6</ele>
        <time>2022-10-07T12:54:40Z</time>
      </trkpt>
      <trkpt lat="49.7665" lon="2.23394">
        <ele>143.7</ele>
        <time>2022-10-07T12:54:41Z</time>
      </trkpt>
      <trkpt lat="49.7665" lon="2.23391">
        <ele>143.7</ele>
        <time>2022-10-07T12:54:42Z</time>
      </trkpt>
      <trkpt lat="49.7665" lon="2.23388">
        <ele>143.8</ele>
        <time>2022-10-07T12:54:43Z</time>
      </trkpt>
      <trkpt lat="49.7665" lon="2.23387">
        <ele>143.8</ele>
        <time>2022-10-07T12:54:44Z</time>
      </trkpt>
      <trkpt lat="49.7665" lon="2.23386">
        <ele>143.8</ele>
        <time>2022-10-07T12:54:45Z</time>
      </trkpt>
      <trkpt lat="49.7665" lon="2.23383">
        <ele>143.9</ele>
        <time>2022-10-07T12:54:47Z</time>
      </trkpt>
      <trkpt lat="49.7665" lon="2.23382">
        <ele>143.9</ele>
        <time>2022-10-07T12:54:48Z</time>
      </trkpt>
      <trkpt lat="49.7665" lon="2.2338">
        <ele>144</ele>
        <time>2022-10-07T12:54:49Z</time>
      </trkpt>
      <trkpt lat="49.7665" lon="2.23379">
        <ele>144</ele>
        <time>2022-10-07T12:54:50Z</time>
      </trkpt>
      <trkpt lat="49.7665" lon="2.23377">
        <ele>144</ele>
        <time>2022-10-07T12:54:51Z</time>
      </trkpt>
      <trkpt lat="49.76651" lon="2.23376">
        <ele>144.1</ele>
        <time>2022-10-07T12:54:52Z</time>
      </trkpt>
      <trkpt lat="49.76651" lon="2.23373">
        <ele>144.1</ele>
        <time>2022-10-07T12:54:53Z</time>
      </trkpt>
      <trkpt lat="49.76651" lon="2.23372">
        <ele>144.2</ele>
        <time>2022-10-07T12:54:54Z</time>
      </trkpt>
      <trkpt lat="49.76651" lon="2.2337">
        <ele>144.2</ele>
        <time>2022-10-07T12:54:55Z</time>
      </trkpt>
      <trkpt lat="49.76651" lon="2.23369">
        <ele>144.2</ele>
        <time>2022-10-07T12:54:56Z</time>
      </trkpt>
      <trkpt lat="49.76651" lon="2.23367">
        <ele>144.3</ele>
        <time>2022-10-07T12:54:58Z</time>
      </trkpt>
      <trkpt lat="49.76651" lon="2.23365">
        <ele>144.3</ele>
        <time>2022-10-07T12:54:59Z</time>
      </trkpt>
      <trkpt lat="49.76652" lon="2.23363">
        <ele>144.4</ele>
        <time>2022-10-07T12:55:00Z</time>
      </trkpt>
      <trkpt lat="49.76652" lon="2.23362">
        <ele>144.4</ele>
        <time>2022-10-07T12:55:01Z</time>
      </trkpt>
      <trkpt lat="49.76652" lon="2.2336">
        <ele>144.4</ele>
        <time>2022-10-07T12:55:02Z</time>
      </trkpt>
      <trkpt lat="49.76652" lon="2.23358">
        <ele>144.5</ele>
        <time>2022-10-07T12:55:03Z</time>
      </trkpt>
      <trkpt lat="49.76652" lon="2.23356">
        <ele>144.5</ele>
        <time>2022-10-07T12:55:04Z</time>
      </trkpt>
      <trkpt lat="49.76652" lon="2.23353">
        <ele>144.6</ele>
        <time>2022-10-07T12:55:06Z</time>
      </trkpt>
      <trkpt lat="49.76652" lon="2.2335">
        <ele>144.6</ele>
        <time>2022-10-07T12:55:07Z</time>
      </trkpt>
      <trkpt lat="49.76653" lon="2.23348">
        <ele>144.7</ele>
        <time>2022-10-07T12:55:08Z</time>
      </trkpt>
      <trkpt lat="49.76653" lon="2.23347">
        <ele>144.7</ele>
        <time>2022-10-07T12:55:09Z</time>
      </trkpt>
      <trkpt lat="49.76653" lon="2.23345">
        <ele>144.7</ele>
        <time>2022-10-07T12:55:10Z</time>
      </trkpt>
      <trkpt lat="49.76653" lon="2.23343">
        <ele>144.8</ele>
        <time>2022-10-07T12:55:11Z</time>
      </trkpt>
      <trkpt lat="49.76653" lon="2.23342">
        <ele>144.8</ele>
        <time>2022-10-07T12:55:12Z</time>
      </trkpt>
      <trkpt lat="49.76653" lon="2.2334">
        <ele>144.9</ele>
        <time>2022-10-07T12:55:14Z</time>
      </trkpt>
      <trkpt lat="49.76653" lon="2.23338">
        <ele>144.9</ele>
        <time>2022-10-07T12:55:15Z</time>
      </trkpt>
      <trkpt lat="49.76653" lon="2.23337">
        <ele>144.9</ele>
        <time>2022-10-07T12:55:16Z</time>
      </trkpt>
      <trkpt lat="49.76653" lon="2.23335">
        <ele>145</ele>
        <time>2022-10-07T12:55:17Z</time>
      </trkpt>
      <trkpt lat="49.76653" lon="2.23333">
        <ele>145</ele>
        <time>2022-10-07T12:55:18Z</time>
      </trkpt>
      <trkpt lat="49.76653" lon="2.23331">
        <ele>145</ele>
        <time>2022-10-07T12:55:19Z</time>
      </trkpt>
      <trkpt lat="49.76653" lon="2.2333">
        <ele>145.1</ele>
        <time>2022-10-07T12:55:20Z</time>
      </trkpt>
      <trkpt lat="49.76653" lon="2.23328">
        <ele>145.1</ele>
        <time>2022-10-07T12:55:21Z</time>
      </trkpt>
      <trkpt lat="49.76654" lon="2.23326">
        <ele>145.1</ele>
        <time>2022-10-07T12:55:23Z</time>
      </trkpt>
      <trkpt lat="49.76654" lon="2.23323">
        <ele>145.2</ele>
        <time>2022-10-07T12:55:24Z</time>
      </trkpt>
      <trkpt lat="49.76654" lon="2.23321">
        <ele>145.2</ele>
        <time>2022-10-07T12:55:25Z</time>
      </trkpt>
      <trkpt lat="49.76654" lon="2.23319">
        <ele>145.3</ele>
        <time>2022-10-07T12:55:26Z</time>
      </trkpt>
      <trkpt lat="49.76654" lon="2.23316">
        <ele>145.3</ele>
        <time>2022-10-07T12:55:28Z</time>
      </trkpt>
      <trkpt lat="49.76654" lon="2.23315">
        <ele>145.4</ele>
        <time>2022-10-07T12:55:29Z</time>
      </trkpt>
      <trkpt lat="49.76655" lon="2.23314">
        <ele>145.4</ele>
        <time>2022-10-07T12:55:30Z</time>
      </trkpt>
      <trkpt lat="49.76655" lon="2.23312">
        <ele>145.4</ele>
        <time>2022-10-07T12:55:31Z</time>
      </trkpt>
      <trkpt lat="49.76655" lon="2.2331">
        <ele>145.4</ele>
        <time>2022-10-07T12:55:32Z</time>
      </trkpt>
      <trkpt lat="49.76655" lon="2.23308">
        <ele>145.5</ele>
        <time>2022-10-07T12:55:33Z</time>
      </trkpt>
      <trkpt lat="49.76655" lon="2.23305">
        <ele>145.5</ele>
        <time>2022-10-07T12:55:34Z</time>
      </trkpt>
      <trkpt lat="49.76655" lon="2.23304">
        <ele>145.5</ele>
        <time>2022-10-07T12:55:35Z</time>
      </trkpt>
      <trkpt lat="49.76655" lon="2.23302">
        <ele>145.6</ele>
        <time>2022-10-07T12:55:36Z</time>
      </trkpt>
      <trkpt lat="49.76655" lon="2.233">
        <ele>145.6</ele>
        <time>2022-10-07T12:55:38Z</time>
      </trkpt>
      <trkpt lat="49.76655" lon="2.23299">
        <ele>145.6</ele>
        <time>2022-10-07T12:55:39Z</time>
      </trkpt>
      <trkpt lat="49.76655" lon="2.23297">
        <ele>145.7</ele>
        <time>2022-10-07T12:55:40Z</time>
      </trkpt>
      <trkpt lat="49.76655" lon="2.23295">
        <ele>145.7</ele>
        <time>2022-10-07T12:55:41Z</time>
      </trkpt>
      <trkpt lat="49.76655" lon="2.23294">
        <ele>145.7</ele>
        <time>2022-10-07T12:55:42Z</time>
      </trkpt>
      <trkpt lat="49.76656" lon="2.23292">
        <ele>145.7</ele>
        <time>2022-10-07T12:55:43Z</time>
      </trkpt>
      <trkpt lat="49.76656" lon="2.23289">
        <ele>145.7</ele>
        <time>2022-10-07T12:55:44Z</time>
      </trkpt>
      <trkpt lat="49.76656" lon="2.23288">
        <ele>145.8</ele>
        <time>2022-10-07T12:55:45Z</time>
      </trkpt>
      <trkpt lat="49.76656" lon="2.23287">
        <ele>145.8</ele>
        <time>2022-10-07T12:55:46Z</time>
      </trkpt>
      <trkpt lat="49.76656" lon="2.23285">
        <ele>145.8</ele>
        <time>2022-10-07T12:55:47Z</time>
      </trkpt>
      <trkpt lat="49.76656" lon="2.23283">
        <ele>145.8</ele>
        <time>2022-10-07T12:55:48Z</time>
      </trkpt>
      <trkpt lat="49.76656" lon="2.23281">
        <ele>145.8</ele>
        <time>2022-10-07T12:55:50Z</time>
      </trkpt>
      <trkpt lat="49.76656" lon="2.23279">
        <ele>145.8</ele>
        <time>2022-10-07T12:55:51Z</time>
      </trkpt>
      <trkpt lat="49.76657" lon="2.23278">
        <ele>145.9</ele>
        <time>2022-10-07T12:55:52Z</time>
      </trkpt>
      <trkpt lat="49.76657" lon="2.23276">
        <ele>145.9</ele>
        <time>2022-10-07T12:55:53Z</time>
      </trkpt>
      <trkpt lat="49.76657" lon="2.23273">
        <ele>145.9</ele>
        <time>2022-10-07T12:55:54Z</time>
      </trkpt>
      <trkpt lat="49.76657" lon="2.23271">
        <ele>145.9</ele>
        <time>2022-10-07T12:55:56Z</time>
      </trkpt>
      <trkpt lat="49.76657" lon="2.2327">
        <ele>145.9</ele>
        <time>2022-10-07T12:55:57Z</time>
      </trkpt>
      <trkpt lat="49.76658" lon="2.23268">
        <ele>145.9</ele>
        <time>2022-10-07T12:55:58Z</time>
      </trkpt>
      <trkpt lat="49.76658" lon="2.23266">
        <ele>145.9</ele>
        <time>2022-10-07T12:55:59Z</time>
      </trkpt>
      <trkpt lat="49.76658" lon="2.23263">
        <ele>146</ele>
        <time>2022-10-07T12:56:00Z</time>
      </trkpt>
      <trkpt lat="49.76658" lon="2.23261">
        <ele>146</ele>
        <time>2022-10-07T12:56:01Z</time>
      </trkpt>
      <trkpt lat="49.76658" lon="2.23258">
        <ele>146</ele>
        <time>2022-10-07T12:56:03Z</time>
      </trkpt>
      <trkpt lat="49.76659" lon="2.23256">
        <ele>146</ele>
        <time>2022-10-07T12:56:04Z</time>
      </trkpt>
      <trkpt lat="49.76659" lon="2.23253">
        <ele>146</ele>
        <time>2022-10-07T12:56:05Z</time>
      </trkpt>
      <trkpt lat="49.76659" lon="2.23252">
        <ele>146</ele>
        <time>2022-10-07T12:56:06Z</time>
      </trkpt>
      <trkpt lat="49.76659" lon="2.2325">
        <ele>146</ele>
        <time>2022-10-07T12:56:07Z</time>
      </trkpt>
      <trkpt lat="49.76659" lon="2.23247">
        <ele>146</ele>
        <time>2022-10-07T12:56:08Z</time>
      </trkpt>
      <trkpt lat="49.76659" lon="2.23245">
        <ele>146</ele>
        <time>2022-10-07T12:56:09Z</time>
      </trkpt>
      <trkpt lat="49.76659" lon="2.23243">
        <ele>146</ele>
        <time>2022-10-07T12:56:10Z</time>
      </trkpt>
      <trkpt lat="49.7666" lon="2.23241">
        <ele>146</ele>
        <time>2022-10-07T12:56:12Z</time>
      </trkpt>
      <trkpt lat="49.7666" lon="2.23239">
        <ele>146</ele>
        <time>2022-10-07T12:56:13Z</time>
      </trkpt>
      <trkpt lat="49.7666" lon="2.23237">
        <ele>145.9</ele>
        <time>2022-10-07T12:56:14Z</time>
      </trkpt>
      <trkpt lat="49.7666" lon="2.23234">
        <ele>145.9</ele>
        <time>2022-10-07T12:56:15Z</time>
      </trkpt>
      <trkpt lat="49.76661" lon="2.23232">
        <ele>145.9</ele>
        <time>2022-10-07T12:56:16Z</time>
      </trkpt>
      <trkpt lat="49.76661" lon="2.23229">
        <ele>145.9</ele>
        <time>2022-10-07T12:56:17Z</time>
      </trkpt>
      <trkpt lat="49.76661" lon="2.23227">
        <ele>145.9</ele>
        <time>2022-10-07T12:56:18Z</time>
      </trkpt>
      <trkpt lat="49.76661" lon="2.23225">
        <ele>145.9</ele>
        <time>2022-10-07T12:56:19Z</time>
      </trkpt>
      <trkpt lat="49.76662" lon="2.23223">
        <ele>145.9</ele>
        <time>2022-10-07T12:56:21Z</time>
      </trkpt>
      <trkpt lat="49.76662" lon="2.2322">
        <ele>145.9</ele>
        <time>2022-10-07T12:56:22Z</time>
      </trkpt>
      <trkpt lat="49.76662" lon="2.23218">
        <ele>145.9</ele>
        <time>2022-10-07T12:56:23Z</time>
      </trkpt>
      <trkpt lat="49.76662" lon="2.23215">
        <ele>145.9</ele>
        <time>2022-10-07T12:56:24Z</time>
      </trkpt>
      <trkpt lat="49.76663" lon="2.23213">
        <ele>145.9</ele>
        <time>2022-10-07T12:56:25Z</time>
      </trkpt>
      <trkpt lat="49.76663" lon="2.23212">
        <ele>145.8</ele>
        <time>2022-10-07T12:56:26Z</time>
      </trkpt>
      <trkpt lat="49.76663" lon="2.23209">
        <ele>145.8</ele>
        <time>2022-10-07T12:56:28Z</time>
      </trkpt>
      <trkpt lat="49.76663" lon="2.23207">
        <ele>145.8</ele>
        <time>2022-10-07T12:56:29Z</time>
      </trkpt>
      <trkpt lat="49.76664" lon="2.23206">
        <ele>145.8</ele>
        <time>2022-10-07T12:56:30Z</time>
      </trkpt>
      <trkpt lat="49.76664" lon="2.23205">
        <ele>145.8</ele>
        <time>2022-10-07T12:56:31Z</time>
      </trkpt>
      <trkpt lat="49.76664" lon="2.23203">
        <ele>145.8</ele>
        <time>2022-10-07T12:56:32Z</time>
      </trkpt>
      <trkpt lat="49.76664" lon="2.23201">
        <ele>145.8</ele>
        <time>2022-10-07T12:56:33Z</time>
      </trkpt>
      <trkpt lat="49.76664" lon="2.23199">
        <ele>145.8</ele>
        <time>2022-10-07T12:56:35Z</time>
      </trkpt>
      <trkpt lat="49.76664" lon="2.23198">
        <ele>145.7</ele>
        <time>2022-10-07T12:56:36Z</time>
      </trkpt>
      <trkpt lat="49.76664" lon="2.23196">
        <ele>145.7</ele>
        <time>2022-10-07T12:56:37Z</time>
      </trkpt>
      <trkpt lat="49.76664" lon="2.23194">
        <ele>145.7</ele>
        <time>2022-10-07T12:56:38Z</time>
      </trkpt>
      <trkpt lat="49.76664" lon="2.23192">
        <ele>145.7</ele>
        <time>2022-10-07T12:56:39Z</time>
      </trkpt>
      <trkpt lat="49.76664" lon="2.2319">
        <ele>145.7</ele>
        <time>2022-10-07T12:56:40Z</time>
      </trkpt>
      <trkpt lat="49.76665" lon="2.23187">
        <ele>145.6</ele>
        <time>2022-10-07T12:56:41Z</time>
      </trkpt>
      <trkpt lat="49.76665" lon="2.23186">
        <ele>145.6</ele>
        <time>2022-10-07T12:56:42Z</time>
      </trkpt>
      <trkpt lat="49.76665" lon="2.23183">
        <ele>145.5</ele>
        <time>2022-10-07T12:56:44Z</time>
      </trkpt>
      <trkpt lat="49.76665" lon="2.23182">
        <ele>145.5</ele>
        <time>2022-10-07T12:56:45Z</time>
      </trkpt>
      <trkpt lat="49.76665" lon="2.23179">
        <ele>145.5</ele>
        <time>2022-10-07T12:56:46Z</time>
      </trkpt>
      <trkpt lat="49.76665" lon="2.23178">
        <ele>145.4</ele>
        <time>2022-10-07T12:56:47Z</time>
      </trkpt>
      <trkpt lat="49.76665" lon="2.23175">
        <ele>145.4</ele>
        <time>2022-10-07T12:56:48Z</time>
      </trkpt>
      <trkpt lat="49.76666" lon="2.23173">
        <ele>145.3</ele>
        <time>2022-10-07T12:56:49Z</time>
      </trkpt>
      <trkpt lat="49.76666" lon="2.23172">
        <ele>145.3</ele>
        <time>2022-10-07T12:56:51Z</time>
      </trkpt>
      <trkpt lat="49.76666" lon="2.2317">
        <ele>145.3</ele>
        <time>2022-10-07T12:56:52Z</time>
      </trkpt>
      <trkpt lat="49.76666" lon="2.23169">
        <ele>145.2</ele>
        <time>2022-10-07T12:56:53Z</time>
      </trkpt>
      <trkpt lat="49.76666" lon="2.23167">
        <ele>145.2</ele>
        <time>2022-10-07T12:56:54Z</time>
      </trkpt>
      <trkpt lat="49.76666" lon="2.23165">
        <ele>145.2</ele>
        <time>2022-10-07T12:56:55Z</time>
      </trkpt>
      <trkpt lat="49.76667" lon="2.23163">
        <ele>145.1</ele>
        <time>2022-10-07T12:56:56Z</time>
      </trkpt>
      <trkpt lat="49.76667" lon="2.23162">
        <ele>145.1</ele>
        <time>2022-10-07T12:56:57Z</time>
      </trkpt>
      <trkpt lat="49.76667" lon="2.23158">
        <ele>145</ele>
        <time>2022-10-07T12:56:58Z</time>
      </trkpt>
      <trkpt lat="49.76668" lon="2.23157">
        <ele>145</ele>
        <time>2022-10-07T12:56:59Z</time>
      </trkpt>
      <trkpt lat="49.76668" lon="2.23156">
        <ele>145</ele>
        <time>2022-10-07T12:57:00Z</time>
      </trkpt>
      <trkpt lat="49.76668" lon="2.23154">
        <ele>144.9</ele>
        <time>2022-10-07T12:57:01Z</time>
      </trkpt>
      <trkpt lat="49.76668" lon="2.23152">
        <ele>144.9</ele>
        <time>2022-10-07T12:57:02Z</time>
      </trkpt>
      <trkpt lat="49.76668" lon="2.2315">
        <ele>144.8</ele>
        <time>2022-10-07T12:57:03Z</time>
      </trkpt>
      <trkpt lat="49.76669" lon="2.23149">
        <ele>144.8</ele>
        <time>2022-10-07T12:57:04Z</time>
      </trkpt>
      <trkpt lat="49.76669" lon="2.23148">
        <ele>144.8</ele>
        <time>2022-10-07T12:57:05Z</time>
      </trkpt>
      <trkpt lat="49.7667" lon="2.23146">
        <ele>144.7</ele>
        <time>2022-10-07T12:57:06Z</time>
      </trkpt>
      <trkpt lat="49.7667" lon="2.23143">
        <ele>144.7</ele>
        <time>2022-10-07T12:57:08Z</time>
      </trkpt>
      <trkpt lat="49.76671" lon="2.23141">
        <ele>144.6</ele>
        <time>2022-10-07T12:57:09Z</time>
      </trkpt>
      <trkpt lat="49.76671" lon="2.2314">
        <ele>144.6</ele>
        <time>2022-10-07T12:57:10Z</time>
      </trkpt>
      <trkpt lat="49.76671" lon="2.23137">
        <ele>144.5</ele>
        <time>2022-10-07T12:57:11Z</time>
      </trkpt>
      <trkpt lat="49.76671" lon="2.23136">
        <ele>144.5</ele>
        <time>2022-10-07T12:57:12Z</time>
      </trkpt>
      <trkpt lat="49.76671" lon="2.23135">
        <ele>144.4</ele>
        <time>2022-10-07T12:57:13Z</time>
      </trkpt>
      <trkpt lat="49.76672" lon="2.23131">
        <ele>144.4</ele>
        <time>2022-10-07T12:57:14Z</time>
      </trkpt>
      <trkpt lat="49.76672" lon="2.2313">
        <ele>144.3</ele>
        <time>2022-10-07T12:57:15Z</time>
      </trkpt>
      <trkpt lat="49.76672" lon="2.23129">
        <ele>144.3</ele>
        <time>2022-10-07T12:57:16Z</time>
      </trkpt>
      <trkpt lat="49.76672" lon="2.23127">
        <ele>144.2</ele>
        <time>2022-10-07T12:57:17Z</time>
      </trkpt>
      <trkpt lat="49.76673" lon="2.23125">
        <ele>144.2</ele>
        <time>2022-10-07T12:57:19Z</time>
      </trkpt>
      <trkpt lat="49.76673" lon="2.23124">
        <ele>144.1</ele>
        <time>2022-10-07T12:57:20Z</time>
      </trkpt>
      <trkpt lat="49.76674" lon="2.23121">
        <ele>144.1</ele>
        <time>2022-10-07T12:57:21Z</time>
      </trkpt>
      <trkpt lat="49.76674" lon="2.2312">
        <ele>144</ele>
        <time>2022-10-07T12:57:22Z</time>
      </trkpt>
      <trkpt lat="49.76674" lon="2.23118">
        <ele>144</ele>
        <time>2022-10-07T12:57:23Z</time>
      </trkpt>
      <trkpt lat="49.76674" lon="2.23116">
        <ele>143.9</ele>
        <time>2022-10-07T12:57:24Z</time>
      </trkpt>
      <trkpt lat="49.76675" lon="2.23114">
        <ele>143.9</ele>
        <time>2022-10-07T12:57:25Z</time>
      </trkpt>
      <trkpt lat="49.76675" lon="2.23112">
        <ele>143.8</ele>
        <time>2022-10-07T12:57:26Z</time>
      </trkpt>
      <trkpt lat="49.76675" lon="2.2311">
        <ele>143.7</ele>
        <time>2022-10-07T12:57:27Z</time>
      </trkpt>
      <trkpt lat="49.76675" lon="2.23108">
        <ele>143.7</ele>
        <time>2022-10-07T12:57:28Z</time>
      </trkpt>
      <trkpt lat="49.76675" lon="2.23106">
        <ele>143.6</ele>
        <time>2022-10-07T12:57:29Z</time>
      </trkpt>
      <trkpt lat="49.76675" lon="2.23104">
        <ele>143.5</ele>
        <time>2022-10-07T12:57:31Z</time>
      </trkpt>
      <trkpt lat="49.76675" lon="2.23102">
        <ele>143.5</ele>
        <time>2022-10-07T12:57:32Z</time>
      </trkpt>
      <trkpt lat="49.76676" lon="2.23101">
        <ele>143.4</ele>
        <time>2022-10-07T12:57:33Z</time>
      </trkpt>
      <trkpt lat="49.76676" lon="2.23099">
        <ele>143.4</ele>
        <time>2022-10-07T12:57:34Z</time>
      </trkpt>
      <trkpt lat="49.76676" lon="2.23097">
        <ele>143.3</ele>
        <time>2022-10-07T12:57:35Z</time>
      </trkpt>
      <trkpt lat="49.76676" lon="2.23096">
        <ele>143.3</ele>
        <time>2022-10-07T12:57:36Z</time>
      </trkpt>
      <trkpt lat="49.76676" lon="2.23094">
        <ele>143.2</ele>
        <time>2022-10-07T12:57:37Z</time>
      </trkpt>
      <trkpt lat="49.76676" lon="2.23092">
        <ele>143.1</ele>
        <time>2022-10-07T12:57:38Z</time>
      </trkpt>
      <trkpt lat="49.76676" lon="2.23089">
        <ele>143.1</ele>
        <time>2022-10-07T12:57:39Z</time>
      </trkpt>
      <trkpt lat="49.76676" lon="2.23087">
        <ele>143</ele>
        <time>2022-10-07T12:57:40Z</time>
      </trkpt>
      <trkpt lat="49.76675" lon="2.23085">
        <ele>142.9</ele>
        <time>2022-10-07T12:57:41Z</time>
      </trkpt>
      <trkpt lat="49.76675" lon="2.23082">
        <ele>142.8</ele>
        <time>2022-10-07T12:57:42Z</time>
      </trkpt>
      <trkpt lat="49.76675" lon="2.2308">
        <ele>142.8</ele>
        <time>2022-10-07T12:57:43Z</time>
      </trkpt>
      <trkpt lat="49.76675" lon="2.23077">
        <ele>142.6</ele>
        <time>2022-10-07T12:57:44Z</time>
      </trkpt>
      <trkpt lat="49.76675" lon="2.23075">
        <ele>142.6</ele>
        <time>2022-10-07T12:57:46Z</time>
      </trkpt>
      <trkpt lat="49.76675" lon="2.23073">
        <ele>142.5</ele>
        <time>2022-10-07T12:57:47Z</time>
      </trkpt>
      <trkpt lat="49.76675" lon="2.23072">
        <ele>142.5</ele>
        <time>2022-10-07T12:57:48Z</time>
      </trkpt>
      <trkpt lat="49.76676" lon="2.2307">
        <ele>142.4</ele>
        <time>2022-10-07T12:57:49Z</time>
      </trkpt>
      <trkpt lat="49.76675" lon="2.23066">
        <ele>142.4</ele>
        <time>2022-10-07T12:57:50Z</time>
      </trkpt>
      <trkpt lat="49.76675" lon="2.23065">
        <ele>142.3</ele>
        <time>2022-10-07T12:57:51Z</time>
      </trkpt>
      <trkpt lat="49.76675" lon="2.23064">
        <ele>142.3</ele>
        <time>2022-10-07T12:57:52Z</time>
      </trkpt>
      <trkpt lat="49.76675" lon="2.23062">
        <ele>142.2</ele>
        <time>2022-10-07T12:57:53Z</time>
      </trkpt>
      <trkpt lat="49.76675" lon="2.2306">
        <ele>142.2</ele>
        <time>2022-10-07T12:57:54Z</time>
      </trkpt>
      <trkpt lat="49.76675" lon="2.23057">
        <ele>142.1</ele>
        <time>2022-10-07T12:57:55Z</time>
      </trkpt>
      <trkpt lat="49.76675" lon="2.23055">
        <ele>142</ele>
        <time>2022-10-07T12:57:56Z</time>
      </trkpt>
      <trkpt lat="49.76675" lon="2.23052">
        <ele>142</ele>
        <time>2022-10-07T12:57:57Z</time>
      </trkpt>
      <trkpt lat="49.76675" lon="2.23051">
        <ele>141.9</ele>
        <time>2022-10-07T12:57:58Z</time>
      </trkpt>
      <trkpt lat="49.76676" lon="2.2305">
        <ele>141.9</ele>
        <time>2022-10-07T12:57:59Z</time>
      </trkpt>
      <trkpt lat="49.76675" lon="2.23048">
        <ele>141.8</ele>
        <time>2022-10-07T12:58:01Z</time>
      </trkpt>
      <trkpt lat="49.76675" lon="2.23045">
        <ele>141.8</ele>
        <time>2022-10-07T12:58:02Z</time>
      </trkpt>
      <trkpt lat="49.76675" lon="2.23044">
        <ele>141.7</ele>
        <time>2022-10-07T12:58:03Z</time>
      </trkpt>
      <trkpt lat="49.76675" lon="2.23042">
        <ele>141.7</ele>
        <time>2022-10-07T12:58:04Z</time>
      </trkpt>
      <trkpt lat="49.76675" lon="2.23041">
        <ele>141.7</ele>
        <time>2022-10-07T12:58:05Z</time>
      </trkpt>
      <trkpt lat="49.76675" lon="2.2304">
        <ele>141.6</ele>
        <time>2022-10-07T12:58:06Z</time>
      </trkpt>
      <trkpt lat="49.76675" lon="2.23039">
        <ele>141.6</ele>
        <time>2022-10-07T12:58:07Z</time>
      </trkpt>
      <trkpt lat="49.76676" lon="2.23036">
        <ele>141.5</ele>
        <time>2022-10-07T12:58:08Z</time>
      </trkpt>
      <trkpt lat="49.76676" lon="2.23035">
        <ele>141.5</ele>
        <time>2022-10-07T12:58:10Z</time>
      </trkpt>
      <trkpt lat="49.76676" lon="2.23033">
        <ele>141.5</ele>
        <time>2022-10-07T12:58:11Z</time>
      </trkpt>
      <trkpt lat="49.76676" lon="2.23031">
        <ele>141.4</ele>
        <time>2022-10-07T12:58:12Z</time>
      </trkpt>
      <trkpt lat="49.76676" lon="2.2303">
        <ele>141.4</ele>
        <time>2022-10-07T12:58:13Z</time>
      </trkpt>
      <trkpt lat="49.76676" lon="2.23028">
        <ele>141.3</ele>
        <time>2022-10-07T12:58:14Z</time>
      </trkpt>
      <trkpt lat="49.76676" lon="2.23026">
        <ele>141.3</ele>
        <time>2022-10-07T12:58:15Z</time>
      </trkpt>
      <trkpt lat="49.76676" lon="2.23022">
        <ele>141.2</ele>
        <time>2022-10-07T12:58:16Z</time>
      </trkpt>
      <trkpt lat="49.76676" lon="2.2302">
        <ele>141.1</ele>
        <time>2022-10-07T12:58:18Z</time>
      </trkpt>
      <trkpt lat="49.76676" lon="2.23019">
        <ele>141.1</ele>
        <time>2022-10-07T12:58:19Z</time>
      </trkpt>
      <trkpt lat="49.76676" lon="2.23017">
        <ele>141.1</ele>
        <time>2022-10-07T12:58:20Z</time>
      </trkpt>
      <trkpt lat="49.76676" lon="2.23016">
        <ele>141</ele>
        <time>2022-10-07T12:58:21Z</time>
      </trkpt>
      <trkpt lat="49.76675" lon="2.23012">
        <ele>141</ele>
        <time>2022-10-07T12:58:22Z</time>
      </trkpt>
      <trkpt lat="49.76676" lon="2.2301">
        <ele>140.9</ele>
        <time>2022-10-07T12:58:23Z</time>
      </trkpt>
      <trkpt lat="49.76676" lon="2.23009">
        <ele>140.9</ele>
        <time>2022-10-07T12:58:25Z</time>
      </trkpt>
      <trkpt lat="49.76676" lon="2.23007">
        <ele>140.9</ele>
        <time>2022-10-07T12:58:26Z</time>
      </trkpt>
      <trkpt lat="49.76676" lon="2.23006">
        <ele>140.9</ele>
        <time>2022-10-07T12:58:27Z</time>
      </trkpt>
      <trkpt lat="49.76676" lon="2.23004">
        <ele>140.8</ele>
        <time>2022-10-07T12:58:28Z</time>
      </trkpt>
      <trkpt lat="49.76676" lon="2.23002">
        <ele>140.8</ele>
        <time>2022-10-07T12:58:29Z</time>
      </trkpt>
      <trkpt lat="49.76676" lon="2.23001">
        <ele>140.8</ele>
        <time>2022-10-07T12:58:30Z</time>
      </trkpt>
      <trkpt lat="49.76676" lon="2.22999">
        <ele>140.8</ele>
        <time>2022-10-07T12:58:31Z</time>
      </trkpt>
      <trkpt lat="49.76677" lon="2.22996">
        <ele>140.7</ele>
        <time>2022-10-07T12:58:32Z</time>
      </trkpt>
      <trkpt lat="49.76677" lon="2.22994">
        <ele>140.7</ele>
        <time>2022-10-07T12:58:33Z</time>
      </trkpt>
      <trkpt lat="49.76677" lon="2.22993">
        <ele>140.7</ele>
        <time>2022-10-07T12:58:34Z</time>
      </trkpt>
      <trkpt lat="49.76677" lon="2.2299">
        <ele>140.6</ele>
        <time>2022-10-07T12:58:35Z</time>
      </trkpt>
      <trkpt lat="49.76677" lon="2.22989">
        <ele>140.6</ele>
        <time>2022-10-07T12:58:36Z</time>
      </trkpt>
      <trkpt lat="49.76677" lon="2.22987">
        <ele>140.6</ele>
        <time>2022-10-07T12:58:37Z</time>
      </trkpt>
      <trkpt lat="49.76677" lon="2.22984">
        <ele>140.6</ele>
        <time>2022-10-07T12:58:38Z</time>
      </trkpt>
      <trkpt lat="49.76677" lon="2.22982">
        <ele>140.5</ele>
        <time>2022-10-07T12:58:40Z</time>
      </trkpt>
      <trkpt lat="49.76677" lon="2.22981">
        <ele>140.5</ele>
        <time>2022-10-07T12:58:41Z</time>
      </trkpt>
      <trkpt lat="49.76678" lon="2.22978">
        <ele>140.5</ele>
        <time>2022-10-07T12:58:42Z</time>
      </trkpt>
      <trkpt lat="49.76678" lon="2.22977">
        <ele>140.5</ele>
        <time>2022-10-07T12:58:43Z</time>
      </trkpt>
      <trkpt lat="49.76678" lon="2.22975">
        <ele>140.5</ele>
        <time>2022-10-07T12:58:44Z</time>
      </trkpt>
      <trkpt lat="49.76679" lon="2.22972">
        <ele>140.4</ele>
        <time>2022-10-07T12:58:45Z</time>
      </trkpt>
      <trkpt lat="49.76679" lon="2.2297">
        <ele>140.4</ele>
        <time>2022-10-07T12:58:46Z</time>
      </trkpt>
      <trkpt lat="49.76679" lon="2.22969">
        <ele>140.4</ele>
        <time>2022-10-07T12:58:47Z</time>
      </trkpt>
      <trkpt lat="49.76679" lon="2.22966">
        <ele>140.4</ele>
        <time>2022-10-07T12:58:48Z</time>
      </trkpt>
      <trkpt lat="49.76679" lon="2.22964">
        <ele>140.4</ele>
        <time>2022-10-07T12:58:49Z</time>
      </trkpt>
      <trkpt lat="49.76679" lon="2.22961">
        <ele>140.3</ele>
        <time>2022-10-07T12:58:50Z</time>
      </trkpt>
      <trkpt lat="49.76679" lon="2.2296">
        <ele>140.3</ele>
        <time>2022-10-07T12:58:51Z</time>
      </trkpt>
      <trkpt lat="49.76679" lon="2.22959">
        <ele>140.3</ele>
        <time>2022-10-07T12:58:52Z</time>
      </trkpt>
      <trkpt lat="49.76679" lon="2.22955">
        <ele>140.3</ele>
        <time>2022-10-07T12:58:54Z</time>
      </trkpt>
      <trkpt lat="49.76679" lon="2.22954">
        <ele>140.3</ele>
        <time>2022-10-07T12:58:55Z</time>
      </trkpt>
      <trkpt lat="49.76679" lon="2.22953">
        <ele>140.3</ele>
        <time>2022-10-07T12:58:56Z</time>
      </trkpt>
      <trkpt lat="49.76678" lon="2.22949">
        <ele>140.2</ele>
        <time>2022-10-07T12:58:57Z</time>
      </trkpt>
      <trkpt lat="49.76678" lon="2.22948">
        <ele>140.2</ele>
        <time>2022-10-07T12:58:58Z</time>
      </trkpt>
      <trkpt lat="49.76678" lon="2.22946">
        <ele>140.2</ele>
        <time>2022-10-07T12:58:59Z</time>
      </trkpt>
      <trkpt lat="49.76678" lon="2.22943">
        <ele>140.2</ele>
        <time>2022-10-07T12:59:00Z</time>
      </trkpt>
      <trkpt lat="49.76678" lon="2.22942">
        <ele>140.2</ele>
        <time>2022-10-07T12:59:02Z</time>
      </trkpt>
      <trkpt lat="49.76678" lon="2.2294">
        <ele>140.2</ele>
        <time>2022-10-07T12:59:03Z</time>
      </trkpt>
      <trkpt lat="49.76678" lon="2.22939">
        <ele>140.2</ele>
        <time>2022-10-07T12:59:04Z</time>
      </trkpt>
      <trkpt lat="49.76677" lon="2.22937">
        <ele>140.2</ele>
        <time>2022-10-07T12:59:05Z</time>
      </trkpt>
      <trkpt lat="49.76677" lon="2.22935">
        <ele>140.2</ele>
        <time>2022-10-07T12:59:06Z</time>
      </trkpt>
      <trkpt lat="49.76677" lon="2.22934">
        <ele>140.2</ele>
        <time>2022-10-07T12:59:07Z</time>
      </trkpt>
      <trkpt lat="49.76677" lon="2.22932">
        <ele>140.2</ele>
        <time>2022-10-07T12:59:08Z</time>
      </trkpt>
      <trkpt lat="49.76677" lon="2.2293">
        <ele>140.2</ele>
        <time>2022-10-07T12:59:09Z</time>
      </trkpt>
      <trkpt lat="49.76678" lon="2.22928">
        <ele>140.2</ele>
        <time>2022-10-07T12:59:10Z</time>
      </trkpt>
      <trkpt lat="49.76678" lon="2.22926">
        <ele>140.2</ele>
        <time>2022-10-07T12:59:11Z</time>
      </trkpt>
      <trkpt lat="49.76679" lon="2.22925">
        <ele>140.2</ele>
        <time>2022-10-07T12:59:13Z</time>
      </trkpt>
      <trkpt lat="49.76679" lon="2.22924">
        <ele>140.2</ele>
        <time>2022-10-07T12:59:14Z</time>
      </trkpt>
      <trkpt lat="49.7668" lon="2.22923">
        <ele>140.2</ele>
        <time>2022-10-07T12:59:15Z</time>
      </trkpt>
      <trkpt lat="49.76681" lon="2.22924">
        <ele>140.2</ele>
        <time>2022-10-07T12:59:16Z</time>
      </trkpt>
      <trkpt lat="49.76682" lon="2.22924">
        <ele>140.2</ele>
        <time>2022-10-07T12:59:18Z</time>
      </trkpt>
      <trkpt lat="49.76684" lon="2.22926">
        <ele>140.2</ele>
        <time>2022-10-07T12:59:19Z</time>
      </trkpt>
      <trkpt lat="49.76685" lon="2.22927">
        <ele>140.2</ele>
        <time>2022-10-07T12:59:20Z</time>
      </trkpt>
      <trkpt lat="49.76686" lon="2.22927">
        <ele>140.1</ele>
        <time>2022-10-07T12:59:22Z</time>
      </trkpt>
      <trkpt lat="49.76686" lon="2.22927">
        <ele>140.1</ele>
        <time>2022-10-07T12:59:23Z</time>
      </trkpt>
      <trkpt lat="49.76687" lon="2.22927">
        <ele>140.1</ele>
        <time>2022-10-07T12:59:24Z</time>
      </trkpt>
      <trkpt lat="49.76687" lon="2.22927">
        <ele>140.1</ele>
        <time>2022-10-07T12:59:25Z</time>
      </trkpt>
      <trkpt lat="49.76687" lon="2.22927">
        <ele>140.1</ele>
        <time>2022-10-07T12:59:26Z</time>
      </trkpt>
      <trkpt lat="49.76687" lon="2.22927">
        <ele>140.2</ele>
        <time>2022-10-07T12:59:27Z</time>
      </trkpt>
      <trkpt lat="49.76687" lon="2.22927">
        <ele>140.2</ele>
        <time>2022-10-07T12:59:28Z</time>
      </trkpt>
      <trkpt lat="49.76687" lon="2.22927">
        <ele>140.2</ele>
        <time>2022-10-07T12:59:29Z</time>
      </trkpt>
      <trkpt lat="49.76687" lon="2.22927">
        <ele>140.2</ele>
        <time>2022-10-07T12:59:30Z</time>
      </trkpt>
      <trkpt lat="49.76687" lon="2.22927">
        <ele>140.2</ele>
        <time>2022-10-07T12:59:31Z</time>
      </trkpt>
      <trkpt lat="49.76687" lon="2.22927">
        <ele>140.2</ele>
        <time>2022-10-07T12:59:32Z</time>
      </trkpt>
      <trkpt lat="49.76687" lon="2.22927">
        <ele>140.2</ele>
        <time>2022-10-07T12:59:33Z</time>
      </trkpt>
      <trkpt lat="49.76687" lon="2.22927">
        <ele>140.2</ele>
        <time>2022-10-07T12:59:34Z</time>
      </trkpt>
      <trkpt lat="49.76687" lon="2.22927">
        <ele>140.2</ele>
        <time>2022-10-07T12:59:35Z</time>
      </trkpt>
      <trkpt lat="49.76687" lon="2.22927">
        <ele>140.2</ele>
        <time>2022-10-07T12:59:36Z</time>
      </trkpt>
      <trkpt lat="49.76687" lon="2.22927">
        <ele>140.2</ele>
        <time>2022-10-07T12:59:37Z</time>
      </trkpt>
      <trkpt lat="49.76687" lon="2.22927">
        <ele>140.2</ele>
        <time>2022-10-07T12:59:38Z</time>
      </trkpt>
      <trkpt lat="49.76687" lon="2.22927">
        <ele>140.2</ele>
        <time>2022-10-07T12:59:39Z</time>
      </trkpt>
      <trkpt lat="49.76687" lon="2.22927">
        <ele>140.2</ele>
        <time>2022-10-07T12:59:40Z</time>
      </trkpt>
      <trkpt lat="49.76686" lon="2.22927">
        <ele>140.2</ele>
        <time>2022-10-07T12:59:41Z</time>
      </trkpt>
      <trkpt lat="49.76686" lon="2.22927">
        <ele>140.2</ele>
        <time>2022-10-07T12:59:42Z</time>
      </trkpt>
      <trkpt lat="49.76686" lon="2.22927">
        <ele>140.2</ele>
        <time>2022-10-07T12:59:43Z</time>
      </trkpt>
      <trkpt lat="49.76686" lon="2.22927">
        <ele>140.2</ele>
        <time>2022-10-07T12:59:44Z</time>
      </trkpt>
      <trkpt lat="49.76686" lon="2.22927">
        <ele>140.2</ele>
        <time>2022-10-07T12:59:45Z</time>
      </trkpt>
      <trkpt lat="49.76686" lon="2.22927">
        <ele>140.2</ele>
        <time>2022-10-07T12:59:46Z</time>
      </trkpt>
      <trkpt lat="49.76686" lon="2.22927">
        <ele>140.2</ele>
        <time>2022-10-07T12:59:47Z</time>
      </trkpt>
      <trkpt lat="49.76686" lon="2.22927">
        <ele>140.2</ele>
        <time>2022-10-07T12:59:48Z</time>
      </trkpt>
      <trkpt lat="49.76686" lon="2.22927">
        <ele>140.2</ele>
        <time>2022-10-07T12:59:49Z</time>
      </trkpt>
      <trkpt lat="49.76686" lon="2.22927">
        <ele>140.2</ele>
        <time>2022-10-07T12:59:50Z</time>
      </trkpt>
      <trkpt lat="49.76686" lon="2.22927">
        <ele>140.2</ele>
        <time>2022-10-07T12:59:51Z</time>
      </trkpt>
      <trkpt lat="49.76686" lon="2.22927">
        <ele>140.2</ele>
        <time>2022-10-07T12:59:52Z</time>
      </trkpt>
      <trkpt lat="49.76686" lon="2.22927">
        <ele>140.2</ele>
        <time>2022-10-07T12:59:53Z</time>
      </trkpt>
      <trkpt lat="49.76686" lon="2.22927">
        <ele>140.2</ele>
        <time>2022-10-07T12:59:54Z</time>
      </trkpt>
      <trkpt lat="49.76686" lon="2.22927">
        <ele>140.2</ele>
        <time>2022-10-07T12:59:55Z</time>
      </trkpt>
      <trkpt lat="49.76686" lon="2.22927">
        <ele>140.2</ele>
        <time>2022-10-07T12:59:56Z</time>
      </trkpt>
      <trkpt lat="49.76686" lon="2.22927">
        <ele>140.2</ele>
        <time>2022-10-07T12:59:57Z</time>
      </trkpt>
      <trkpt lat="49.76686" lon="2.22927">
        <ele>140.3</ele>
        <time>2022-10-07T12:59:58Z</time>
      </trkpt>
      <trkpt lat="49.76686" lon="2.22927">
        <ele>140.3</ele>
        <time>2022-10-07T12:59:59Z</time>
      </trkpt>
      <trkpt lat="49.76686" lon="2.22927">
        <ele>140.3</ele>
        <time>2022-10-07T13:00:00Z</time>
      </trkpt>
      <trkpt lat="49.76686" lon="2.22927">
        <ele>140.3</ele>
        <time>2022-10-07T13:00:01Z</time>
      </trkpt>
      <trkpt lat="49.76686" lon="2.22927">
        <ele>140.3</ele>
        <time>2022-10-07T13:00:02Z</time>
      </trkpt>
      <trkpt lat="49.76686" lon="2.22927">
        <ele>140.3</ele>
        <time>2022-10-07T13:00:03Z</time>
      </trkpt>
      <trkpt lat="49.76686" lon="2.22927">
        <ele>140.3</ele>
        <time>2022-10-07T13:00:04Z</time>
      </trkpt>
      <trkpt lat="49.76686" lon="2.22927">
        <ele>140.3</ele>
        <time>2022-10-07T13:00:05Z</time>
      </trkpt>
      <trkpt lat="49.76686" lon="2.22927">
        <ele>140.3</ele>
        <time>2022-10-07T13:00:06Z</time>
      </trkpt>
      <trkpt lat="49.76686" lon="2.22927">
        <ele>140.3</ele>
        <time>2022-10-07T13:00:07Z</time>
      </trkpt>
      <trkpt lat="49.76686" lon="2.22927">
        <ele>140.3</ele>
        <time>2022-10-07T13:00:08Z</time>
      </trkpt>
      <trkpt lat="49.76686" lon="2.22927">
        <ele>140.3</ele>
        <time>2022-10-07T13:00:09Z</time>
      </trkpt>
      <trkpt lat="49.76686" lon="2.22927">
        <ele>140.3</ele>
        <time>2022-10-07T13:00:10Z</time>
      </trkpt>
      <trkpt lat="49.76686" lon="2.22927">
        <ele>140.3</ele>
        <time>2022-10-07T13:00:11Z</time>
      </trkpt>
      <trkpt lat="49.76686" lon="2.22927">
        <ele>140.3</ele>
        <time>2022-10-07T13:00:12Z</time>
      </trkpt>
      <trkpt lat="49.76686" lon="2.22927">
        <ele>140.3</ele>
        <time>2022-10-07T13:00:13Z</time>
      </trkpt>
      <trkpt lat="49.76686" lon="2.22927">
        <ele>140.3</ele>
        <time>2022-10-07T13:00:14Z</time>
      </trkpt>
      <trkpt lat="49.76686" lon="2.22927">
        <ele>140.3</ele>
        <time>2022-10-07T13:00:15Z</time>
      </trkpt>
      <trkpt lat="49.76686" lon="2.22927">
        <ele>140.3</ele>
        <time>2022-10-07T13:00:16Z</time>
      </trkpt>
      <trkpt lat="49.76686" lon="2.22927">
        <ele>140.3</ele>
        <time>2022-10-07T13:00:17Z</time>
      </trkpt>
      <trkpt lat="49.76686" lon="2.22927">
        <ele>140.3</ele>
        <time>2022-10-07T13:00:18Z</time>
      </trkpt>
      <trkpt lat="49.76686" lon="2.22927">
        <ele>140.3</ele>
        <time>2022-10-07T13:00:19Z</time>
      </trkpt>
      <trkpt lat="49.76686" lon="2.22927">
        <ele>140.3</ele>
        <time>2022-10-07T13:00:20Z</time>
      </trkpt>
      <trkpt lat="49.76686" lon="2.22927">
        <ele>140.3</ele>
        <time>2022-10-07T13:00:21Z</time>
      </trkpt>
      <trkpt lat="49.76686" lon="2.22927">
        <ele>140.3</ele>
        <time>2022-10-07T13:00:22Z</time>
      </trkpt>
      <trkpt lat="49.76686" lon="2.22927">
        <ele>140.3</ele>
        <time>2022-10-07T13:00:23Z</time>
      </trkpt>
      <trkpt lat="49.76686" lon="2.22927">
        <ele>140.3</ele>
        <time>2022-10-07T13:00:24Z</time>
      </trkpt>
      <trkpt lat="49.76686" lon="2.22927">
        <ele>140.3</ele>
        <time>2022-10-07T13:00:25Z</time>
      </trkpt>
      <trkpt lat="49.76686" lon="2.22927">
        <ele>140.3</ele>
        <time>2022-10-07T13:00:26Z</time>
      </trkpt>
      <trkpt lat="49.76686" lon="2.22927">
        <ele>140.3</ele>
        <time>2022-10-07T13:00:27Z</time>
      </trkpt>
      <trkpt lat="49.76686" lon="2.22927">
        <ele>140.3</ele>
        <time>2022-10-07T13:00:28Z</time>
      </trkpt>
      <trkpt lat="49.76686" lon="2.22927">
        <ele>140.3</ele>
        <time>2022-10-07T13:00:29Z</time>
      </trkpt>
      <trkpt lat="49.76686" lon="2.22927">
        <ele>140.4</ele>
        <time>2022-10-07T13:00:30Z</time>
      </trkpt>
      <trkpt lat="49.76686" lon="2.22927">
        <ele>140.4</ele>
        <time>2022-10-07T13:00:31Z</time>
      </trkpt>
      <trkpt lat="49.76686" lon="2.22927">
        <ele>140.4</ele>
        <time>2022-10-07T13:00:32Z</time>
      </trkpt>
      <trkpt lat="49.76686" lon="2.22927">
        <ele>140.4</ele>
        <time>2022-10-07T13:00:33Z</time>
      </trkpt>
      <trkpt lat="49.76686" lon="2.22927">
        <ele>140.4</ele>
        <time>2022-10-07T13:00:34Z</time>
      </trkpt>
      <trkpt lat="49.76686" lon="2.22927">
        <ele>140.4</ele>
        <time>2022-10-07T13:00:35Z</time>
      </trkpt>
      <trkpt lat="49.76686" lon="2.22927">
        <ele>140.4</ele>
        <time>2022-10-07T13:00:36Z</time>
      </trkpt>
      <trkpt lat="49.76684" lon="2.22929">
        <ele>140.4</ele>
        <time>2022-10-07T13:00:37Z</time>
      </trkpt>
      <trkpt lat="49.76682" lon="2.2293">
        <ele>140.5</ele>
        <time>2022-10-07T13:00:38Z</time>
      </trkpt>
      <trkpt lat="49.76682" lon="2.22931">
        <ele>140.5</ele>
        <time>2022-10-07T13:00:39Z</time>
      </trkpt>
      <trkpt lat="49.76682" lon="2.22933">
        <ele>140.5</ele>
        <time>2022-10-07T13:00:40Z</time>
      </trkpt>
      <trkpt lat="49.76682" lon="2.22934">
        <ele>140.5</ele>
        <time>2022-10-07T13:00:41Z</time>
      </trkpt>
      <trkpt lat="49.76682" lon="2.22935">
        <ele>140.5</ele>
        <time>2022-10-07T13:00:42Z</time>
      </trkpt>
      <trkpt lat="49.76683" lon="2.22937">
        <ele>140.5</ele>
        <time>2022-10-07T13:00:43Z</time>
      </trkpt>
      <trkpt lat="49.76683" lon="2.22939">
        <ele>140.5</ele>
        <time>2022-10-07T13:00:44Z</time>
      </trkpt>
      <trkpt lat="49.76683" lon="2.2294">
        <ele>140.5</ele>
        <time>2022-10-07T13:00:45Z</time>
      </trkpt>
      <trkpt lat="49.76683" lon="2.22942">
        <ele>140.5</ele>
        <time>2022-10-07T13:00:46Z</time>
      </trkpt>
      <trkpt lat="49.76683" lon="2.22944">
        <ele>140.5</ele>
        <time>2022-10-07T13:00:47Z</time>
      </trkpt>
      <trkpt lat="49.76683" lon="2.22947">
        <ele>140.5</ele>
        <time>2022-10-07T13:00:48Z</time>
      </trkpt>
      <trkpt lat="49.76683" lon="2.22949">
        <ele>140.5</ele>
        <time>2022-10-07T13:00:49Z</time>
      </trkpt>
      <trkpt lat="49.76683" lon="2.22951">
        <ele>140.5</ele>
        <time>2022-10-07T13:00:50Z</time>
      </trkpt>
      <trkpt lat="49.76684" lon="2.22954">
        <ele>140.5</ele>
        <time>2022-10-07T13:00:51Z</time>
      </trkpt>
      <trkpt lat="49.76684" lon="2.22956">
        <ele>140.5</ele>
        <time>2022-10-07T13:00:52Z</time>
      </trkpt>
      <trkpt lat="49.76685" lon="2.22958">
        <ele>140.4</ele>
        <time>2022-10-07T13:00:53Z</time>
      </trkpt>
      <trkpt lat="49.76685" lon="2.22959">
        <ele>140.4</ele>
        <time>2022-10-07T13:00:54Z</time>
      </trkpt>
      <trkpt lat="49.76686" lon="2.22962">
        <ele>140.4</ele>
        <time>2022-10-07T13:00:56Z</time>
      </trkpt>
      <trkpt lat="49.76686" lon="2.22964">
        <ele>140.4</ele>
        <time>2022-10-07T13:00:57Z</time>
      </trkpt>
      <trkpt lat="49.76687" lon="2.22966">
        <ele>140.4</ele>
        <time>2022-10-07T13:00:58Z</time>
      </trkpt>
      <trkpt lat="49.76687" lon="2.22969">
        <ele>140.4</ele>
        <time>2022-10-07T13:00:59Z</time>
      </trkpt>
      <trkpt lat="49.76687" lon="2.2297">
        <ele>140.4</ele>
        <time>2022-10-07T13:01:00Z</time>
      </trkpt>
      <trkpt lat="49.76688" lon="2.22972">
        <ele>140.4</ele>
        <time>2022-10-07T13:01:01Z</time>
      </trkpt>
      <trkpt lat="49.76689" lon="2.22974">
        <ele>140.4</ele>
        <time>2022-10-07T13:01:02Z</time>
      </trkpt>
      <trkpt lat="49.76689" lon="2.22977">
        <ele>140.3</ele>
        <time>2022-10-07T13:01:03Z</time>
      </trkpt>
      <trkpt lat="49.76689" lon="2.22978">
        <ele>140.3</ele>
        <time>2022-10-07T13:01:04Z</time>
      </trkpt>
      <trkpt lat="49.76689" lon="2.22981">
        <ele>140.3</ele>
        <time>2022-10-07T13:01:05Z</time>
      </trkpt>
      <trkpt lat="49.7669" lon="2.22983">
        <ele>140.3</ele>
        <time>2022-10-07T13:01:07Z</time>
      </trkpt>
      <trkpt lat="49.76689" lon="2.22985">
        <ele>140.3</ele>
        <time>2022-10-07T13:01:08Z</time>
      </trkpt>
      <trkpt lat="49.76689" lon="2.22986">
        <ele>140.3</ele>
        <time>2022-10-07T13:01:09Z</time>
      </trkpt>
      <trkpt lat="49.7669" lon="2.22988">
        <ele>140.3</ele>
        <time>2022-10-07T13:01:10Z</time>
      </trkpt>
      <trkpt lat="49.7669" lon="2.2299">
        <ele>140.3</ele>
        <time>2022-10-07T13:01:11Z</time>
      </trkpt>
      <trkpt lat="49.7669" lon="2.22993">
        <ele>140.3</ele>
        <time>2022-10-07T13:01:12Z</time>
      </trkpt>
      <trkpt lat="49.7669" lon="2.22994">
        <ele>140.3</ele>
        <time>2022-10-07T13:01:13Z</time>
      </trkpt>
      <trkpt lat="49.7669" lon="2.22996">
        <ele>140.3</ele>
        <time>2022-10-07T13:01:14Z</time>
      </trkpt>
      <trkpt lat="49.76691" lon="2.22998">
        <ele>140.3</ele>
        <time>2022-10-07T13:01:15Z</time>
      </trkpt>
      <trkpt lat="49.76691" lon="2.23">
        <ele>140.3</ele>
        <time>2022-10-07T13:01:16Z</time>
      </trkpt>
      <trkpt lat="49.76691" lon="2.23002">
        <ele>140.4</ele>
        <time>2022-10-07T13:01:18Z</time>
      </trkpt>
      <trkpt lat="49.76692" lon="2.23004">
        <ele>140.4</ele>
        <time>2022-10-07T13:01:19Z</time>
      </trkpt>
      <trkpt lat="49.76692" lon="2.23005">
        <ele>140.4</ele>
        <time>2022-10-07T13:01:20Z</time>
      </trkpt>
      <trkpt lat="49.76692" lon="2.23006">
        <ele>140.4</ele>
        <time>2022-10-07T13:01:21Z</time>
      </trkpt>
      <trkpt lat="49.76692" lon="2.23009">
        <ele>140.4</ele>
        <time>2022-10-07T13:01:23Z</time>
      </trkpt>
      <trkpt lat="49.76692" lon="2.23011">
        <ele>140.4</ele>
        <time>2022-10-07T13:01:24Z</time>
      </trkpt>
      <trkpt lat="49.76693" lon="2.23013">
        <ele>140.4</ele>
        <time>2022-10-07T13:01:25Z</time>
      </trkpt>
      <trkpt lat="49.76693" lon="2.23015">
        <ele>140.4</ele>
        <time>2022-10-07T13:01:26Z</time>
      </trkpt>
      <trkpt lat="49.76693" lon="2.23018">
        <ele>140.4</ele>
        <time>2022-10-07T13:01:27Z</time>
      </trkpt>
      <trkpt lat="49.76693" lon="2.23019">
        <ele>140.4</ele>
        <time>2022-10-07T13:01:28Z</time>
      </trkpt>
      <trkpt lat="49.76693" lon="2.2302">
        <ele>140.4</ele>
        <time>2022-10-07T13:01:29Z</time>
      </trkpt>
      <trkpt lat="49.76693" lon="2.23022">
        <ele>140.4</ele>
        <time>2022-10-07T13:01:30Z</time>
      </trkpt>
      <trkpt lat="49.76693" lon="2.23024">
        <ele>140.4</ele>
        <time>2022-10-07T13:01:31Z</time>
      </trkpt>
      <trkpt lat="49.76694" lon="2.23026">
        <ele>140.4</ele>
        <time>2022-10-07T13:01:32Z</time>
      </trkpt>
      <trkpt lat="49.76694" lon="2.23029">
        <ele>140.4</ele>
        <time>2022-10-07T13:01:34Z</time>
      </trkpt>
      <trkpt lat="49.76694" lon="2.2303">
        <ele>140.4</ele>
        <time>2022-10-07T13:01:35Z</time>
      </trkpt>
      <trkpt lat="49.76694" lon="2.23032">
        <ele>140.4</ele>
        <time>2022-10-07T13:01:36Z</time>
      </trkpt>
      <trkpt lat="49.76694" lon="2.23035">
        <ele>140.4</ele>
        <time>2022-10-07T13:01:37Z</time>
      </trkpt>
      <trkpt lat="49.76694" lon="2.23036">
        <ele>140.4</ele>
        <time>2022-10-07T13:01:38Z</time>
      </trkpt>
      <trkpt lat="49.76694" lon="2.23038">
        <ele>140.4</ele>
        <time>2022-10-07T13:01:39Z</time>
      </trkpt>
      <trkpt lat="49.76694" lon="2.23041">
        <ele>140.3</ele>
        <time>2022-10-07T13:01:40Z</time>
      </trkpt>
      <trkpt lat="49.76694" lon="2.23043">
        <ele>140.3</ele>
        <time>2022-10-07T13:01:41Z</time>
      </trkpt>
      <trkpt lat="49.76694" lon="2.23044">
        <ele>140.3</ele>
        <time>2022-10-07T13:01:42Z</time>
      </trkpt>
      <trkpt lat="49.76694" lon="2.23045">
        <ele>140.3</ele>
        <time>2022-10-07T13:01:44Z</time>
      </trkpt>
      <trkpt lat="49.76694" lon="2.23047">
        <ele>140.3</ele>
        <time>2022-10-07T13:01:45Z</time>
      </trkpt>
      <trkpt lat="49.76694" lon="2.23049">
        <ele>140.3</ele>
        <time>2022-10-07T13:01:46Z</time>
      </trkpt>
      <trkpt lat="49.76694" lon="2.2305">
        <ele>140.3</ele>
        <time>2022-10-07T13:01:47Z</time>
      </trkpt>
      <trkpt lat="49.76694" lon="2.23053">
        <ele>140.3</ele>
        <time>2022-10-07T13:01:48Z</time>
      </trkpt>
      <trkpt lat="49.76694" lon="2.23055">
        <ele>140.3</ele>
        <time>2022-10-07T13:01:49Z</time>
      </trkpt>
      <trkpt lat="49.76694" lon="2.23057">
        <ele>140.3</ele>
        <time>2022-10-07T13:01:50Z</time>
      </trkpt>
      <trkpt lat="49.76694" lon="2.23059">
        <ele>140.3</ele>
        <time>2022-10-07T13:01:51Z</time>
      </trkpt>
      <trkpt lat="49.76694" lon="2.23062">
        <ele>140.3</ele>
        <time>2022-10-07T13:01:52Z</time>
      </trkpt>
      <trkpt lat="49.76694" lon="2.23063">
        <ele>140.3</ele>
        <time>2022-10-07T13:01:54Z</time>
      </trkpt>
      <trkpt lat="49.76694" lon="2.23064">
        <ele>140.3</ele>
        <time>2022-10-07T13:01:55Z</time>
      </trkpt>
      <trkpt lat="49.76694" lon="2.23068">
        <ele>140.3</ele>
        <time>2022-10-07T13:01:56Z</time>
      </trkpt>
      <trkpt lat="49.76694" lon="2.23069">
        <ele>140.3</ele>
        <time>2022-10-07T13:01:57Z</time>
      </trkpt>
      <trkpt lat="49.76694" lon="2.2307">
        <ele>140.3</ele>
        <time>2022-10-07T13:01:58Z</time>
      </trkpt>
      <trkpt lat="49.76694" lon="2.23072">
        <ele>140.3</ele>
        <time>2022-10-07T13:01:59Z</time>
      </trkpt>
      <trkpt lat="49.76693" lon="2.23074">
        <ele>140.3</ele>
        <time>2022-10-07T13:02:00Z</time>
      </trkpt>
      <trkpt lat="49.76693" lon="2.23076">
        <ele>140.3</ele>
        <time>2022-10-07T13:02:01Z</time>
      </trkpt>
      <trkpt lat="49.76693" lon="2.23079">
        <ele>140.3</ele>
        <time>2022-10-07T13:02:03Z</time>
      </trkpt>
      <trkpt lat="49.76693" lon="2.2308">
        <ele>140.3</ele>
        <time>2022-10-07T13:02:04Z</time>
      </trkpt>
      <trkpt lat="49.76693" lon="2.23081">
        <ele>140.3</ele>
        <time>2022-10-07T13:02:05Z</time>
      </trkpt>
      <trkpt lat="49.76693" lon="2.23083">
        <ele>140.3</ele>
        <time>2022-10-07T13:02:06Z</time>
      </trkpt>
      <trkpt lat="49.76692" lon="2.23086">
        <ele>140.2</ele>
        <time>2022-10-07T13:02:07Z</time>
      </trkpt>
      <trkpt lat="49.76692" lon="2.23088">
        <ele>140.2</ele>
        <time>2022-10-07T13:02:09Z</time>
      </trkpt>
      <trkpt lat="49.76692" lon="2.23089">
        <ele>140.2</ele>
        <time>2022-10-07T13:02:10Z</time>
      </trkpt>
      <trkpt lat="49.76692" lon="2.23091">
        <ele>140.2</ele>
        <time>2022-10-07T13:02:11Z</time>
      </trkpt>
      <trkpt lat="49.76692" lon="2.23092">
        <ele>140.2</ele>
        <time>2022-10-07T13:02:12Z</time>
      </trkpt>
      <trkpt lat="49.76692" lon="2.23094">
        <ele>140.1</ele>
        <time>2022-10-07T13:02:13Z</time>
      </trkpt>
      <trkpt lat="49.76692" lon="2.23096">
        <ele>140.1</ele>
        <time>2022-10-07T13:02:14Z</time>
      </trkpt>
      <trkpt lat="49.76692" lon="2.23099">
        <ele>140.1</ele>
        <time>2022-10-07T13:02:15Z</time>
      </trkpt>
      <trkpt lat="49.76692" lon="2.23101">
        <ele>140.1</ele>
        <time>2022-10-07T13:02:16Z</time>
      </trkpt>
      <trkpt lat="49.76692" lon="2.23103">
        <ele>140</ele>
        <time>2022-10-07T13:02:17Z</time>
      </trkpt>
      <trkpt lat="49.76692" lon="2.23104">
        <ele>140</ele>
        <time>2022-10-07T13:02:18Z</time>
      </trkpt>
      <trkpt lat="49.76692" lon="2.23106">
        <ele>140</ele>
        <time>2022-10-07T13:02:20Z</time>
      </trkpt>
      <trkpt lat="49.76692" lon="2.23107">
        <ele>140</ele>
        <time>2022-10-07T13:02:21Z</time>
      </trkpt>
      <trkpt lat="49.76692" lon="2.23109">
        <ele>140</ele>
        <time>2022-10-07T13:02:22Z</time>
      </trkpt>
      <trkpt lat="49.76692" lon="2.23111">
        <ele>139.9</ele>
        <time>2022-10-07T13:02:23Z</time>
      </trkpt>
      <trkpt lat="49.76692" lon="2.23112">
        <ele>139.9</ele>
        <time>2022-10-07T13:02:24Z</time>
      </trkpt>
      <trkpt lat="49.76692" lon="2.23116">
        <ele>139.9</ele>
        <time>2022-10-07T13:02:25Z</time>
      </trkpt>
      <trkpt lat="49.76692" lon="2.23117">
        <ele>139.9</ele>
        <time>2022-10-07T13:02:26Z</time>
      </trkpt>
      <trkpt lat="49.76692" lon="2.23119">
        <ele>139.8</ele>
        <time>2022-10-07T13:02:27Z</time>
      </trkpt>
      <trkpt lat="49.76692" lon="2.2312">
        <ele>139.8</ele>
        <time>2022-10-07T13:02:28Z</time>
      </trkpt>
      <trkpt lat="49.76692" lon="2.23122">
        <ele>139.8</ele>
        <time>2022-10-07T13:02:30Z</time>
      </trkpt>
      <trkpt lat="49.76692" lon="2.23124">
        <ele>139.8</ele>
        <time>2022-10-07T13:02:31Z</time>
      </trkpt>
      <trkpt lat="49.76692" lon="2.23126">
        <ele>139.7</ele>
        <time>2022-10-07T13:02:32Z</time>
      </trkpt>
      <trkpt lat="49.76692" lon="2.23128">
        <ele>139.7</ele>
        <time>2022-10-07T13:02:33Z</time>
      </trkpt>
      <trkpt lat="49.76691" lon="2.23129">
        <ele>139.7</ele>
        <time>2022-10-07T13:02:34Z</time>
      </trkpt>
      <trkpt lat="49.76691" lon="2.2313">
        <ele>139.7</ele>
        <time>2022-10-07T13:02:35Z</time>
      </trkpt>
      <trkpt lat="49.76691" lon="2.23132">
        <ele>139.7</ele>
        <time>2022-10-07T13:02:36Z</time>
      </trkpt>
      <trkpt lat="49.76691" lon="2.23134">
        <ele>139.6</ele>
        <time>2022-10-07T13:02:37Z</time>
      </trkpt>
      <trkpt lat="49.76691" lon="2.23137">
        <ele>139.6</ele>
        <time>2022-10-07T13:02:38Z</time>
      </trkpt>
      <trkpt lat="49.7669" lon="2.23138">
        <ele>139.6</ele>
        <time>2022-10-07T13:02:39Z</time>
      </trkpt>
      <trkpt lat="49.7669" lon="2.23142">
        <ele>139.5</ele>
        <time>2022-10-07T13:02:40Z</time>
      </trkpt>
      <trkpt lat="49.7669" lon="2.23143">
        <ele>139.5</ele>
        <time>2022-10-07T13:02:42Z</time>
      </trkpt>
      <trkpt lat="49.7669" lon="2.23145">
        <ele>139.5</ele>
        <time>2022-10-07T13:02:43Z</time>
      </trkpt>
      <trkpt lat="49.7669" lon="2.23146">
        <ele>139.5</ele>
        <time>2022-10-07T13:02:44Z</time>
      </trkpt>
      <trkpt lat="49.7669" lon="2.23148">
        <ele>139.5</ele>
        <time>2022-10-07T13:02:45Z</time>
      </trkpt>
      <trkpt lat="49.7669" lon="2.23149">
        <ele>139.5</ele>
        <time>2022-10-07T13:02:46Z</time>
      </trkpt>
      <trkpt lat="49.7669" lon="2.23153">
        <ele>139.5</ele>
        <time>2022-10-07T13:02:47Z</time>
      </trkpt>
      <trkpt lat="49.7669" lon="2.23155">
        <ele>139.4</ele>
        <time>2022-10-07T13:02:49Z</time>
      </trkpt>
      <trkpt lat="49.7669" lon="2.23156">
        <ele>139.4</ele>
        <time>2022-10-07T13:02:50Z</time>
      </trkpt>
      <trkpt lat="49.7669" lon="2.23158">
        <ele>139.4</ele>
        <time>2022-10-07T13:02:51Z</time>
      </trkpt>
      <trkpt lat="49.7669" lon="2.2316">
        <ele>139.4</ele>
        <time>2022-10-07T13:02:52Z</time>
      </trkpt>
      <trkpt lat="49.76689" lon="2.23163">
        <ele>139.4</ele>
        <time>2022-10-07T13:02:53Z</time>
      </trkpt>
      <trkpt lat="49.76689" lon="2.23164">
        <ele>139.4</ele>
        <time>2022-10-07T13:02:54Z</time>
      </trkpt>
      <trkpt lat="49.76689" lon="2.23166">
        <ele>139.4</ele>
        <time>2022-10-07T13:02:55Z</time>
      </trkpt>
      <trkpt lat="49.76689" lon="2.23168">
        <ele>139.3</ele>
        <time>2022-10-07T13:02:56Z</time>
      </trkpt>
      <trkpt lat="49.76689" lon="2.23171">
        <ele>139.3</ele>
        <time>2022-10-07T13:02:58Z</time>
      </trkpt>
      <trkpt lat="49.76689" lon="2.23172">
        <ele>139.3</ele>
        <time>2022-10-07T13:02:59Z</time>
      </trkpt>
      <trkpt lat="49.76689" lon="2.23174">
        <ele>139.3</ele>
        <time>2022-10-07T13:03:00Z</time>
      </trkpt>
      <trkpt lat="49.76689" lon="2.23176">
        <ele>139.3</ele>
        <time>2022-10-07T13:03:01Z</time>
      </trkpt>
      <trkpt lat="49.76689" lon="2.23178">
        <ele>139.2</ele>
        <time>2022-10-07T13:03:02Z</time>
      </trkpt>
      <trkpt lat="49.7669" lon="2.2318">
        <ele>139.2</ele>
        <time>2022-10-07T13:03:03Z</time>
      </trkpt>
      <trkpt lat="49.76691" lon="2.23183">
        <ele>139.2</ele>
        <time>2022-10-07T13:03:04Z</time>
      </trkpt>
      <trkpt lat="49.76691" lon="2.23185">
        <ele>139.2</ele>
        <time>2022-10-07T13:03:05Z</time>
      </trkpt>
      <trkpt lat="49.76692" lon="2.23186">
        <ele>139.2</ele>
        <time>2022-10-07T13:03:07Z</time>
      </trkpt>
      <trkpt lat="49.76692" lon="2.23187">
        <ele>139.1</ele>
        <time>2022-10-07T13:03:08Z</time>
      </trkpt>
      <trkpt lat="49.76693" lon="2.23189">
        <ele>139.1</ele>
        <time>2022-10-07T13:03:09Z</time>
      </trkpt>
      <trkpt lat="49.76693" lon="2.2319">
        <ele>139.1</ele>
        <time>2022-10-07T13:03:10Z</time>
      </trkpt>
      <trkpt lat="49.76695" lon="2.23192">
        <ele>139.1</ele>
        <time>2022-10-07T13:03:11Z</time>
      </trkpt>
      <trkpt lat="49.76696" lon="2.23193">
        <ele>139.1</ele>
        <time>2022-10-07T13:03:13Z</time>
      </trkpt>
      <trkpt lat="49.76696" lon="2.23194">
        <ele>139</ele>
        <time>2022-10-07T13:03:14Z</time>
      </trkpt>
      <trkpt lat="49.76698" lon="2.23195">
        <ele>139</ele>
        <time>2022-10-07T13:03:15Z</time>
      </trkpt>
      <trkpt lat="49.76699" lon="2.23196">
        <ele>139</ele>
        <time>2022-10-07T13:03:16Z</time>
      </trkpt>
      <trkpt lat="49.767" lon="2.23196">
        <ele>139</ele>
        <time>2022-10-07T13:03:17Z</time>
      </trkpt>
      <trkpt lat="49.76702" lon="2.23196">
        <ele>138.9</ele>
        <time>2022-10-07T13:03:18Z</time>
      </trkpt>
      <trkpt lat="49.76703" lon="2.23197">
        <ele>138.9</ele>
        <time>2022-10-07T13:03:19Z</time>
      </trkpt>
      <trkpt lat="49.76704" lon="2.23197">
        <ele>138.8</ele>
        <time>2022-10-07T13:03:20Z</time>
      </trkpt>
      <trkpt lat="49.76706" lon="2.23197">
        <ele>138.8</ele>
        <time>2022-10-07T13:03:21Z</time>
      </trkpt>
      <trkpt lat="49.76708" lon="2.23197">
        <ele>138.7</ele>
        <time>2022-10-07T13:03:23Z</time>
      </trkpt>
      <trkpt lat="49.7671" lon="2.23196">
        <ele>138.7</ele>
        <time>2022-10-07T13:03:24Z</time>
      </trkpt>
      <trkpt lat="49.76711" lon="2.23196">
        <ele>138.7</ele>
        <time>2022-10-07T13:03:26Z</time>
      </trkpt>
      <trkpt lat="49.76712" lon="2.23196">
        <ele>138.6</ele>
        <time>2022-10-07T13:03:27Z</time>
      </trkpt>
      <trkpt lat="49.76714" lon="2.23196">
        <ele>138.6</ele>
        <time>2022-10-07T13:03:28Z</time>
      </trkpt>
      <trkpt lat="49.76715" lon="2.23196">
        <ele>138.5</ele>
        <time>2022-10-07T13:03:29Z</time>
      </trkpt>
      <trkpt lat="49.76717" lon="2.23196">
        <ele>138.5</ele>
        <time>2022-10-07T13:03:31Z</time>
      </trkpt>
      <trkpt lat="49.76718" lon="2.23196">
        <ele>138.4</ele>
        <time>2022-10-07T13:03:32Z</time>
      </trkpt>
      <trkpt lat="49.7672" lon="2.23197">
        <ele>138.4</ele>
        <time>2022-10-07T13:03:33Z</time>
      </trkpt>
      <trkpt lat="49.76721" lon="2.23197">
        <ele>138.3</ele>
        <time>2022-10-07T13:03:34Z</time>
      </trkpt>
      <trkpt lat="49.76722" lon="2.23198">
        <ele>138.3</ele>
        <time>2022-10-07T13:03:35Z</time>
      </trkpt>
      <trkpt lat="49.76724" lon="2.23199">
        <ele>138.3</ele>
        <time>2022-10-07T13:03:36Z</time>
      </trkpt>
      <trkpt lat="49.76725" lon="2.23199">
        <ele>138.2</ele>
        <time>2022-10-07T13:03:37Z</time>
      </trkpt>
      <trkpt lat="49.76726" lon="2.23199">
        <ele>138.2</ele>
        <time>2022-10-07T13:03:38Z</time>
      </trkpt>
      <trkpt lat="49.76728" lon="2.232">
        <ele>138.1</ele>
        <time>2022-10-07T13:03:39Z</time>
      </trkpt>
      <trkpt lat="49.76728" lon="2.232">
        <ele>138.1</ele>
        <time>2022-10-07T13:03:40Z</time>
      </trkpt>
      <trkpt lat="49.76729" lon="2.23201">
        <ele>138.1</ele>
        <time>2022-10-07T13:03:41Z</time>
      </trkpt>
      <trkpt lat="49.7673" lon="2.23201">
        <ele>138.1</ele>
        <time>2022-10-07T13:03:42Z</time>
      </trkpt>
      <trkpt lat="49.76732" lon="2.23201">
        <ele>138</ele>
        <time>2022-10-07T13:03:44Z</time>
      </trkpt>
      <trkpt lat="49.76734" lon="2.23201">
        <ele>138</ele>
        <time>2022-10-07T13:03:45Z</time>
      </trkpt>
      <trkpt lat="49.76735" lon="2.23201">
        <ele>137.9</ele>
        <time>2022-10-07T13:03:47Z</time>
      </trkpt>
      <trkpt lat="49.76737" lon="2.23201">
        <ele>137.9</ele>
        <time>2022-10-07T13:03:48Z</time>
      </trkpt>
      <trkpt lat="49.76738" lon="2.23202">
        <ele>137.8</ele>
        <time>2022-10-07T13:03:49Z</time>
      </trkpt>
      <trkpt lat="49.7674" lon="2.23202">
        <ele>137.8</ele>
        <time>2022-10-07T13:03:50Z</time>
      </trkpt>
      <trkpt lat="49.76741" lon="2.23203">
        <ele>137.8</ele>
        <time>2022-10-07T13:03:52Z</time>
      </trkpt>
      <trkpt lat="49.76742" lon="2.23203">
        <ele>137.7</ele>
        <time>2022-10-07T13:03:53Z</time>
      </trkpt>
      <trkpt lat="49.76744" lon="2.23203">
        <ele>137.7</ele>
        <time>2022-10-07T13:03:54Z</time>
      </trkpt>
      <trkpt lat="49.76745" lon="2.23204">
        <ele>137.7</ele>
        <time>2022-10-07T13:03:55Z</time>
      </trkpt>
      <trkpt lat="49.76746" lon="2.23204">
        <ele>137.6</ele>
        <time>2022-10-07T13:03:56Z</time>
      </trkpt>
      <trkpt lat="49.76748" lon="2.23205">
        <ele>137.6</ele>
        <time>2022-10-07T13:03:57Z</time>
      </trkpt>
      <trkpt lat="49.76749" lon="2.23205">
        <ele>137.6</ele>
        <time>2022-10-07T13:03:58Z</time>
      </trkpt>
      <trkpt lat="49.7675" lon="2.23205">
        <ele>137.5</ele>
        <time>2022-10-07T13:03:59Z</time>
      </trkpt>
      <trkpt lat="49.76751" lon="2.23205">
        <ele>137.5</ele>
        <time>2022-10-07T13:04:00Z</time>
      </trkpt>
      <trkpt lat="49.76754" lon="2.23206">
        <ele>137.5</ele>
        <time>2022-10-07T13:04:02Z</time>
      </trkpt>
      <trkpt lat="49.76754" lon="2.23206">
        <ele>137.4</ele>
        <time>2022-10-07T13:04:03Z</time>
      </trkpt>
      <trkpt lat="49.76755" lon="2.23207">
        <ele>137.4</ele>
        <time>2022-10-07T13:04:04Z</time>
      </trkpt>
      <trkpt lat="49.76756" lon="2.23207">
        <ele>137.4</ele>
        <time>2022-10-07T13:04:05Z</time>
      </trkpt>
      <trkpt lat="49.76757" lon="2.23207">
        <ele>137.4</ele>
        <time>2022-10-07T13:04:06Z</time>
      </trkpt>
      <trkpt lat="49.76758" lon="2.23207">
        <ele>137.4</ele>
        <time>2022-10-07T13:04:07Z</time>
      </trkpt>
      <trkpt lat="49.76759" lon="2.23207">
        <ele>137.3</ele>
        <time>2022-10-07T13:04:08Z</time>
      </trkpt>
      <trkpt lat="49.76761" lon="2.23208">
        <ele>137.3</ele>
        <time>2022-10-07T13:04:09Z</time>
      </trkpt>
      <trkpt lat="49.76762" lon="2.23208">
        <ele>137.3</ele>
        <time>2022-10-07T13:04:10Z</time>
      </trkpt>
      <trkpt lat="49.76764" lon="2.23208">
        <ele>137.3</ele>
        <time>2022-10-07T13:04:12Z</time>
      </trkpt>
      <trkpt lat="49.76766" lon="2.23208">
        <ele>137.2</ele>
        <time>2022-10-07T13:04:13Z</time>
      </trkpt>
      <trkpt lat="49.76768" lon="2.23208">
        <ele>137.2</ele>
        <time>2022-10-07T13:04:14Z</time>
      </trkpt>
      <trkpt lat="49.76769" lon="2.23208">
        <ele>137.2</ele>
        <time>2022-10-07T13:04:15Z</time>
      </trkpt>
      <trkpt lat="49.7677" lon="2.23209">
        <ele>137.2</ele>
        <time>2022-10-07T13:04:16Z</time>
      </trkpt>
      <trkpt lat="49.76771" lon="2.23209">
        <ele>137.2</ele>
        <time>2022-10-07T13:04:17Z</time>
      </trkpt>
      <trkpt lat="49.76772" lon="2.23209">
        <ele>137.2</ele>
        <time>2022-10-07T13:04:18Z</time>
      </trkpt>
      <trkpt lat="49.76774" lon="2.23209">
        <ele>137.1</ele>
        <time>2022-10-07T13:04:19Z</time>
      </trkpt>
      <trkpt lat="49.76776" lon="2.2321">
        <ele>137.1</ele>
        <time>2022-10-07T13:04:20Z</time>
      </trkpt>
      <trkpt lat="49.76777" lon="2.2321">
        <ele>137.1</ele>
        <time>2022-10-07T13:04:22Z</time>
      </trkpt>
      <trkpt lat="49.76778" lon="2.23211">
        <ele>137.1</ele>
        <time>2022-10-07T13:04:23Z</time>
      </trkpt>
      <trkpt lat="49.7678" lon="2.23211">
        <ele>137.1</ele>
        <time>2022-10-07T13:04:24Z</time>
      </trkpt>
      <trkpt lat="49.7678" lon="2.23211">
        <ele>137.1</ele>
        <time>2022-10-07T13:04:25Z</time>
      </trkpt>
      <trkpt lat="49.76781" lon="2.23211">
        <ele>137.1</ele>
        <time>2022-10-07T13:04:26Z</time>
      </trkpt>
      <trkpt lat="49.76783" lon="2.23212">
        <ele>137.1</ele>
        <time>2022-10-07T13:04:28Z</time>
      </trkpt>
      <trkpt lat="49.76784" lon="2.23212">
        <ele>137.1</ele>
        <time>2022-10-07T13:04:29Z</time>
      </trkpt>
      <trkpt lat="49.76785" lon="2.23213">
        <ele>137.1</ele>
        <time>2022-10-07T13:04:30Z</time>
      </trkpt>
      <trkpt lat="49.76786" lon="2.23213">
        <ele>137.1</ele>
        <time>2022-10-07T13:04:31Z</time>
      </trkpt>
      <trkpt lat="49.76788" lon="2.23214">
        <ele>137.1</ele>
        <time>2022-10-07T13:04:32Z</time>
      </trkpt>
      <trkpt lat="49.76789" lon="2.23214">
        <ele>137.1</ele>
        <time>2022-10-07T13:04:33Z</time>
      </trkpt>
      <trkpt lat="49.76791" lon="2.23214">
        <ele>137.1</ele>
        <time>2022-10-07T13:04:34Z</time>
      </trkpt>
      <trkpt lat="49.76792" lon="2.23215">
        <ele>137</ele>
        <time>2022-10-07T13:04:36Z</time>
      </trkpt>
      <trkpt lat="49.76794" lon="2.23215">
        <ele>137</ele>
        <time>2022-10-07T13:04:37Z</time>
      </trkpt>
      <trkpt lat="49.76795" lon="2.23216">
        <ele>137</ele>
        <time>2022-10-07T13:04:38Z</time>
      </trkpt>
      <trkpt lat="49.76797" lon="2.23217">
        <ele>136.9</ele>
        <time>2022-10-07T13:04:39Z</time>
      </trkpt>
      <trkpt lat="49.76798" lon="2.23217">
        <ele>136.9</ele>
        <time>2022-10-07T13:04:40Z</time>
      </trkpt>
      <trkpt lat="49.76799" lon="2.23217">
        <ele>136.9</ele>
        <time>2022-10-07T13:04:41Z</time>
      </trkpt>
      <trkpt lat="49.768" lon="2.23217">
        <ele>136.9</ele>
        <time>2022-10-07T13:04:42Z</time>
      </trkpt>
      <trkpt lat="49.76801" lon="2.23217">
        <ele>136.8</ele>
        <time>2022-10-07T13:04:43Z</time>
      </trkpt>
      <trkpt lat="49.76803" lon="2.23218">
        <ele>136.8</ele>
        <time>2022-10-07T13:04:44Z</time>
      </trkpt>
      <trkpt lat="49.76805" lon="2.23218">
        <ele>136.8</ele>
        <time>2022-10-07T13:04:45Z</time>
      </trkpt>
      <trkpt lat="49.76806" lon="2.23218">
        <ele>136.7</ele>
        <time>2022-10-07T13:04:46Z</time>
      </trkpt>
      <trkpt lat="49.76807" lon="2.23218">
        <ele>136.7</ele>
        <time>2022-10-07T13:04:47Z</time>
      </trkpt>
      <trkpt lat="49.76808" lon="2.23218">
        <ele>136.7</ele>
        <time>2022-10-07T13:04:48Z</time>
      </trkpt>
      <trkpt lat="49.7681" lon="2.23218">
        <ele>136.7</ele>
        <time>2022-10-07T13:04:50Z</time>
      </trkpt>
      <trkpt lat="49.76811" lon="2.23218">
        <ele>136.7</ele>
        <time>2022-10-07T13:04:51Z</time>
      </trkpt>
      <trkpt lat="49.76813" lon="2.23218">
        <ele>136.6</ele>
        <time>2022-10-07T13:04:52Z</time>
      </trkpt>
      <trkpt lat="49.76814" lon="2.23219">
        <ele>136.6</ele>
        <time>2022-10-07T13:04:53Z</time>
      </trkpt>
      <trkpt lat="49.76816" lon="2.2322">
        <ele>136.6</ele>
        <time>2022-10-07T13:04:55Z</time>
      </trkpt>
      <trkpt lat="49.76817" lon="2.2322">
        <ele>136.6</ele>
        <time>2022-10-07T13:04:56Z</time>
      </trkpt>
      <trkpt lat="49.76818" lon="2.23221">
        <ele>136.6</ele>
        <time>2022-10-07T13:04:57Z</time>
      </trkpt>
      <trkpt lat="49.76819" lon="2.23221">
        <ele>136.6</ele>
        <time>2022-10-07T13:04:58Z</time>
      </trkpt>
      <trkpt lat="49.76821" lon="2.23222">
        <ele>136.6</ele>
        <time>2022-10-07T13:04:59Z</time>
      </trkpt>
      <trkpt lat="49.76822" lon="2.23222">
        <ele>136.6</ele>
        <time>2022-10-07T13:05:00Z</time>
      </trkpt>
      <trkpt lat="49.76823" lon="2.23222">
        <ele>136.7</ele>
        <time>2022-10-07T13:05:01Z</time>
      </trkpt>
      <trkpt lat="49.76824" lon="2.23223">
        <ele>136.7</ele>
        <time>2022-10-07T13:05:02Z</time>
      </trkpt>
      <trkpt lat="49.76825" lon="2.23223">
        <ele>136.7</ele>
        <time>2022-10-07T13:05:03Z</time>
      </trkpt>
      <trkpt lat="49.76828" lon="2.23224">
        <ele>136.7</ele>
        <time>2022-10-07T13:05:04Z</time>
      </trkpt>
      <trkpt lat="49.76829" lon="2.23224">
        <ele>136.7</ele>
        <time>2022-10-07T13:05:05Z</time>
      </trkpt>
      <trkpt lat="49.7683" lon="2.23224">
        <ele>136.7</ele>
        <time>2022-10-07T13:05:07Z</time>
      </trkpt>
      <trkpt lat="49.76832" lon="2.23225">
        <ele>136.8</ele>
        <time>2022-10-07T13:05:09Z</time>
      </trkpt>
      <trkpt lat="49.76833" lon="2.23225">
        <ele>136.8</ele>
        <time>2022-10-07T13:05:10Z</time>
      </trkpt>
      <trkpt lat="49.76835" lon="2.23226">
        <ele>136.8</ele>
        <time>2022-10-07T13:05:11Z</time>
      </trkpt>
      <trkpt lat="49.76836" lon="2.23226">
        <ele>136.8</ele>
        <time>2022-10-07T13:05:12Z</time>
      </trkpt>
      <trkpt lat="49.76837" lon="2.23226">
        <ele>136.8</ele>
        <time>2022-10-07T13:05:14Z</time>
      </trkpt>
      <trkpt lat="49.76838" lon="2.23226">
        <ele>136.8</ele>
        <time>2022-10-07T13:05:15Z</time>
      </trkpt>
      <trkpt lat="49.76839" lon="2.23226">
        <ele>136.8</ele>
        <time>2022-10-07T13:05:16Z</time>
      </trkpt>
      <trkpt lat="49.7684" lon="2.23227">
        <ele>136.8</ele>
        <time>2022-10-07T13:05:17Z</time>
      </trkpt>
      <trkpt lat="49.76842" lon="2.23227">
        <ele>136.8</ele>
        <time>2022-10-07T13:05:18Z</time>
      </trkpt>
      <trkpt lat="49.76843" lon="2.23227">
        <ele>136.8</ele>
        <time>2022-10-07T13:05:19Z</time>
      </trkpt>
      <trkpt lat="49.76844" lon="2.23227">
        <ele>136.8</ele>
        <time>2022-10-07T13:05:20Z</time>
      </trkpt>
      <trkpt lat="49.76845" lon="2.23227">
        <ele>136.8</ele>
        <time>2022-10-07T13:05:21Z</time>
      </trkpt>
      <trkpt lat="49.76846" lon="2.23228">
        <ele>136.8</ele>
        <time>2022-10-07T13:05:22Z</time>
      </trkpt>
      <trkpt lat="49.76847" lon="2.23228">
        <ele>136.8</ele>
        <time>2022-10-07T13:05:23Z</time>
      </trkpt>
      <trkpt lat="49.76849" lon="2.23228">
        <ele>136.8</ele>
        <time>2022-10-07T13:05:24Z</time>
      </trkpt>
      <trkpt lat="49.7685" lon="2.23228">
        <ele>136.7</ele>
        <time>2022-10-07T13:05:25Z</time>
      </trkpt>
      <trkpt lat="49.76851" lon="2.23229">
        <ele>136.7</ele>
        <time>2022-10-07T13:05:27Z</time>
      </trkpt>
      <trkpt lat="49.76853" lon="2.23229">
        <ele>136.7</ele>
        <time>2022-10-07T13:05:28Z</time>
      </trkpt>
      <trkpt lat="49.76854" lon="2.23229">
        <ele>136.7</ele>
        <time>2022-10-07T13:05:29Z</time>
      </trkpt>
      <trkpt lat="49.76855" lon="2.23229">
        <ele>136.7</ele>
        <time>2022-10-07T13:05:30Z</time>
      </trkpt>
      <trkpt lat="49.76856" lon="2.2323">
        <ele>136.6</ele>
        <time>2022-10-07T13:05:31Z</time>
      </trkpt>
      <trkpt lat="49.76857" lon="2.2323">
        <ele>136.6</ele>
        <time>2022-10-07T13:05:32Z</time>
      </trkpt>
      <trkpt lat="49.76859" lon="2.23231">
        <ele>136.6</ele>
        <time>2022-10-07T13:05:34Z</time>
      </trkpt>
      <trkpt lat="49.76861" lon="2.23231">
        <ele>136.6</ele>
        <time>2022-10-07T13:05:35Z</time>
      </trkpt>
      <trkpt lat="49.76862" lon="2.23231">
        <ele>136.6</ele>
        <time>2022-10-07T13:05:36Z</time>
      </trkpt>
      <trkpt lat="49.76862" lon="2.23231">
        <ele>136.6</ele>
        <time>2022-10-07T13:05:37Z</time>
      </trkpt>
      <trkpt lat="49.76864" lon="2.23232">
        <ele>136.5</ele>
        <time>2022-10-07T13:05:38Z</time>
      </trkpt>
      <trkpt lat="49.76866" lon="2.23233">
        <ele>136.5</ele>
        <time>2022-10-07T13:05:39Z</time>
      </trkpt>
      <trkpt lat="49.76866" lon="2.23233">
        <ele>136.5</ele>
        <time>2022-10-07T13:05:40Z</time>
      </trkpt>
      <trkpt lat="49.76868" lon="2.23234">
        <ele>136.5</ele>
        <time>2022-10-07T13:05:41Z</time>
      </trkpt>
      <trkpt lat="49.76869" lon="2.23234">
        <ele>136.5</ele>
        <time>2022-10-07T13:05:42Z</time>
      </trkpt>
      <trkpt lat="49.7687" lon="2.23234">
        <ele>136.5</ele>
        <time>2022-10-07T13:05:43Z</time>
      </trkpt>
      <trkpt lat="49.76872" lon="2.23235">
        <ele>136.5</ele>
        <time>2022-10-07T13:05:44Z</time>
      </trkpt>
      <trkpt lat="49.76872" lon="2.23235">
        <ele>136.5</ele>
        <time>2022-10-07T13:05:46Z</time>
      </trkpt>
      <trkpt lat="49.76873" lon="2.23235">
        <ele>136.5</ele>
        <time>2022-10-07T13:05:47Z</time>
      </trkpt>
      <trkpt lat="49.76875" lon="2.23235">
        <ele>136.5</ele>
        <time>2022-10-07T13:05:48Z</time>
      </trkpt>
      <trkpt lat="49.76877" lon="2.23236">
        <ele>136.5</ele>
        <time>2022-10-07T13:05:49Z</time>
      </trkpt>
      <trkpt lat="49.76878" lon="2.23237">
        <ele>136.5</ele>
        <time>2022-10-07T13:05:50Z</time>
      </trkpt>
      <trkpt lat="49.76879" lon="2.23237">
        <ele>136.5</ele>
        <time>2022-10-07T13:05:51Z</time>
      </trkpt>
      <trkpt lat="49.76881" lon="2.23237">
        <ele>136.4</ele>
        <time>2022-10-07T13:05:53Z</time>
      </trkpt>
      <trkpt lat="49.76882" lon="2.23238">
        <ele>136.4</ele>
        <time>2022-10-07T13:05:54Z</time>
      </trkpt>
      <trkpt lat="49.76883" lon="2.23238">
        <ele>136.4</ele>
        <time>2022-10-07T13:05:55Z</time>
      </trkpt>
      <trkpt lat="49.76884" lon="2.23238">
        <ele>136.4</ele>
        <time>2022-10-07T13:05:56Z</time>
      </trkpt>
      <trkpt lat="49.76885" lon="2.23239">
        <ele>136.4</ele>
        <time>2022-10-07T13:05:57Z</time>
      </trkpt>
      <trkpt lat="49.76886" lon="2.23239">
        <ele>136.4</ele>
        <time>2022-10-07T13:05:58Z</time>
      </trkpt>
      <trkpt lat="49.76888" lon="2.23239">
        <ele>136.4</ele>
        <time>2022-10-07T13:05:59Z</time>
      </trkpt>
      <trkpt lat="49.76889" lon="2.2324">
        <ele>136.4</ele>
        <time>2022-10-07T13:06:00Z</time>
      </trkpt>
      <trkpt lat="49.76891" lon="2.23241">
        <ele>136.4</ele>
        <time>2022-10-07T13:06:01Z</time>
      </trkpt>
      <trkpt lat="49.76892" lon="2.23241">
        <ele>136.4</ele>
        <time>2022-10-07T13:06:02Z</time>
      </trkpt>
      <trkpt lat="49.76893" lon="2.23242">
        <ele>136.4</ele>
        <time>2022-10-07T13:06:03Z</time>
      </trkpt>
      <trkpt lat="49.76895" lon="2.23242">
        <ele>136.4</ele>
        <time>2022-10-07T13:06:04Z</time>
      </trkpt>
      <trkpt lat="49.76896" lon="2.23242">
        <ele>136.4</ele>
        <time>2022-10-07T13:06:05Z</time>
      </trkpt>
      <trkpt lat="49.76897" lon="2.23242">
        <ele>136.4</ele>
        <time>2022-10-07T13:06:06Z</time>
      </trkpt>
      <trkpt lat="49.76898" lon="2.23243">
        <ele>136.4</ele>
        <time>2022-10-07T13:06:08Z</time>
      </trkpt>
      <trkpt lat="49.76899" lon="2.23243">
        <ele>136.4</ele>
        <time>2022-10-07T13:06:09Z</time>
      </trkpt>
      <trkpt lat="49.76901" lon="2.23243">
        <ele>136.4</ele>
        <time>2022-10-07T13:06:10Z</time>
      </trkpt>
      <trkpt lat="49.76902" lon="2.23243">
        <ele>136.4</ele>
        <time>2022-10-07T13:06:11Z</time>
      </trkpt>
      <trkpt lat="49.76903" lon="2.23243">
        <ele>136.4</ele>
        <time>2022-10-07T13:06:12Z</time>
      </trkpt>
      <trkpt lat="49.76904" lon="2.23243">
        <ele>136.4</ele>
        <time>2022-10-07T13:06:13Z</time>
      </trkpt>
      <trkpt lat="49.76906" lon="2.23243">
        <ele>136.4</ele>
        <time>2022-10-07T13:06:14Z</time>
      </trkpt>
      <trkpt lat="49.76907" lon="2.23243">
        <ele>136.4</ele>
        <time>2022-10-07T13:06:15Z</time>
      </trkpt>
      <trkpt lat="49.76909" lon="2.23244">
        <ele>136.4</ele>
        <time>2022-10-07T13:06:16Z</time>
      </trkpt>
      <trkpt lat="49.76911" lon="2.23244">
        <ele>136.4</ele>
        <time>2022-10-07T13:06:17Z</time>
      </trkpt>
      <trkpt lat="49.76912" lon="2.23244">
        <ele>136.4</ele>
        <time>2022-10-07T13:06:18Z</time>
      </trkpt>
      <trkpt lat="49.76913" lon="2.23244">
        <ele>136.4</ele>
        <time>2022-10-07T13:06:19Z</time>
      </trkpt>
      <trkpt lat="49.76914" lon="2.23244">
        <ele>136.4</ele>
        <time>2022-10-07T13:06:20Z</time>
      </trkpt>
      <trkpt lat="49.76915" lon="2.23245">
        <ele>136.4</ele>
        <time>2022-10-07T13:06:22Z</time>
      </trkpt>
      <trkpt lat="49.76916" lon="2.23245">
        <ele>136.4</ele>
        <time>2022-10-07T13:06:23Z</time>
      </trkpt>
      <trkpt lat="49.76917" lon="2.23245">
        <ele>136.4</ele>
        <time>2022-10-07T13:06:24Z</time>
      </trkpt>
      <trkpt lat="49.76919" lon="2.23246">
        <ele>136.4</ele>
        <time>2022-10-07T13:06:25Z</time>
      </trkpt>
      <trkpt lat="49.7692" lon="2.23246">
        <ele>136.4</ele>
        <time>2022-10-07T13:06:26Z</time>
      </trkpt>
      <trkpt lat="49.76921" lon="2.23246">
        <ele>136.4</ele>
        <time>2022-10-07T13:06:27Z</time>
      </trkpt>
      <trkpt lat="49.76922" lon="2.23247">
        <ele>136.4</ele>
        <time>2022-10-07T13:06:28Z</time>
      </trkpt>
      <trkpt lat="49.76923" lon="2.23247">
        <ele>136.4</ele>
        <time>2022-10-07T13:06:29Z</time>
      </trkpt>
      <trkpt lat="49.76925" lon="2.23247">
        <ele>136.4</ele>
        <time>2022-10-07T13:06:30Z</time>
      </trkpt>
      <trkpt lat="49.76926" lon="2.23248">
        <ele>136.4</ele>
        <time>2022-10-07T13:06:32Z</time>
      </trkpt>
      <trkpt lat="49.76927" lon="2.23249">
        <ele>136.4</ele>
        <time>2022-10-07T13:06:33Z</time>
      </trkpt>
      <trkpt lat="49.76927" lon="2.23249">
        <ele>136.5</ele>
        <time>2022-10-07T13:06:34Z</time>
      </trkpt>
      <trkpt lat="49.76929" lon="2.23249">
        <ele>136.5</ele>
        <time>2022-10-07T13:06:35Z</time>
      </trkpt>
      <trkpt lat="49.7693" lon="2.2325">
        <ele>136.5</ele>
        <time>2022-10-07T13:06:36Z</time>
      </trkpt>
      <trkpt lat="49.76931" lon="2.2325">
        <ele>136.5</ele>
        <time>2022-10-07T13:06:37Z</time>
      </trkpt>
      <trkpt lat="49.76932" lon="2.2325">
        <ele>136.5</ele>
        <time>2022-10-07T13:06:38Z</time>
      </trkpt>
      <trkpt lat="49.76934" lon="2.23251">
        <ele>136.5</ele>
        <time>2022-10-07T13:06:40Z</time>
      </trkpt>
      <trkpt lat="49.76935" lon="2.23251">
        <ele>136.5</ele>
        <time>2022-10-07T13:06:41Z</time>
      </trkpt>
      <trkpt lat="49.76937" lon="2.23251">
        <ele>136.6</ele>
        <time>2022-10-07T13:06:42Z</time>
      </trkpt>
      <trkpt lat="49.76938" lon="2.23252">
        <ele>136.6</ele>
        <time>2022-10-07T13:06:43Z</time>
      </trkpt>
      <trkpt lat="49.7694" lon="2.23253">
        <ele>136.6</ele>
        <time>2022-10-07T13:06:44Z</time>
      </trkpt>
      <trkpt lat="49.76941" lon="2.23253">
        <ele>136.6</ele>
        <time>2022-10-07T13:06:46Z</time>
      </trkpt>
      <trkpt lat="49.76942" lon="2.23253">
        <ele>136.6</ele>
        <time>2022-10-07T13:06:47Z</time>
      </trkpt>
      <trkpt lat="49.76943" lon="2.23253">
        <ele>136.6</ele>
        <time>2022-10-07T13:06:48Z</time>
      </trkpt>
      <trkpt lat="49.76944" lon="2.23254">
        <ele>136.7</ele>
        <time>2022-10-07T13:06:49Z</time>
      </trkpt>
      <trkpt lat="49.76945" lon="2.23255">
        <ele>136.7</ele>
        <time>2022-10-07T13:06:50Z</time>
      </trkpt>
      <trkpt lat="49.76947" lon="2.23255">
        <ele>136.7</ele>
        <time>2022-10-07T13:06:51Z</time>
      </trkpt>
      <trkpt lat="49.76948" lon="2.23256">
        <ele>136.7</ele>
        <time>2022-10-07T13:06:52Z</time>
      </trkpt>
      <trkpt lat="49.76949" lon="2.23256">
        <ele>136.7</ele>
        <time>2022-10-07T13:06:53Z</time>
      </trkpt>
      <trkpt lat="49.76951" lon="2.23257">
        <ele>136.8</ele>
        <time>2022-10-07T13:06:55Z</time>
      </trkpt>
      <trkpt lat="49.76952" lon="2.23257">
        <ele>136.8</ele>
        <time>2022-10-07T13:06:56Z</time>
      </trkpt>
      <trkpt lat="49.76953" lon="2.23257">
        <ele>136.8</ele>
        <time>2022-10-07T13:06:57Z</time>
      </trkpt>
      <trkpt lat="49.76954" lon="2.23257">
        <ele>136.8</ele>
        <time>2022-10-07T13:06:58Z</time>
      </trkpt>
      <trkpt lat="49.76955" lon="2.23258">
        <ele>136.8</ele>
        <time>2022-10-07T13:06:59Z</time>
      </trkpt>
      <trkpt lat="49.76957" lon="2.23258">
        <ele>136.8</ele>
        <time>2022-10-07T13:07:00Z</time>
      </trkpt>
      <trkpt lat="49.76958" lon="2.23258">
        <ele>136.8</ele>
        <time>2022-10-07T13:07:01Z</time>
      </trkpt>
      <trkpt lat="49.76959" lon="2.23259">
        <ele>136.8</ele>
        <time>2022-10-07T13:07:02Z</time>
      </trkpt>
      <trkpt lat="49.7696" lon="2.23259">
        <ele>136.8</ele>
        <time>2022-10-07T13:07:03Z</time>
      </trkpt>
      <trkpt lat="49.76962" lon="2.23259">
        <ele>136.8</ele>
        <time>2022-10-07T13:07:05Z</time>
      </trkpt>
      <trkpt lat="49.76963" lon="2.2326">
        <ele>136.8</ele>
        <time>2022-10-07T13:07:06Z</time>
      </trkpt>
      <trkpt lat="49.76964" lon="2.2326">
        <ele>136.8</ele>
        <time>2022-10-07T13:07:07Z</time>
      </trkpt>
      <trkpt lat="49.76966" lon="2.2326">
        <ele>136.8</ele>
        <time>2022-10-07T13:07:08Z</time>
      </trkpt>
      <trkpt lat="49.76966" lon="2.2326">
        <ele>136.8</ele>
        <time>2022-10-07T13:07:09Z</time>
      </trkpt>
      <trkpt lat="49.76968" lon="2.23261">
        <ele>136.7</ele>
        <time>2022-10-07T13:07:10Z</time>
      </trkpt>
      <trkpt lat="49.76969" lon="2.23261">
        <ele>136.7</ele>
        <time>2022-10-07T13:07:11Z</time>
      </trkpt>
      <trkpt lat="49.7697" lon="2.23261">
        <ele>136.7</ele>
        <time>2022-10-07T13:07:12Z</time>
      </trkpt>
      <trkpt lat="49.76971" lon="2.23262">
        <ele>136.7</ele>
        <time>2022-10-07T13:07:13Z</time>
      </trkpt>
      <trkpt lat="49.76972" lon="2.23262">
        <ele>136.7</ele>
        <time>2022-10-07T13:07:14Z</time>
      </trkpt>
      <trkpt lat="49.76975" lon="2.23263">
        <ele>136.7</ele>
        <time>2022-10-07T13:07:15Z</time>
      </trkpt>
      <trkpt lat="49.76975" lon="2.23263">
        <ele>136.7</ele>
        <time>2022-10-07T13:07:17Z</time>
      </trkpt>
      <trkpt lat="49.76976" lon="2.23263">
        <ele>136.7</ele>
        <time>2022-10-07T13:07:18Z</time>
      </trkpt>
      <trkpt lat="49.76977" lon="2.23263">
        <ele>136.7</ele>
        <time>2022-10-07T13:07:19Z</time>
      </trkpt>
      <trkpt lat="49.76979" lon="2.23264">
        <ele>136.7</ele>
        <time>2022-10-07T13:07:20Z</time>
      </trkpt>
      <trkpt lat="49.76981" lon="2.23264">
        <ele>136.7</ele>
        <time>2022-10-07T13:07:21Z</time>
      </trkpt>
      <trkpt lat="49.76982" lon="2.23265">
        <ele>136.7</ele>
        <time>2022-10-07T13:07:22Z</time>
      </trkpt>
      <trkpt lat="49.76983" lon="2.23265">
        <ele>136.7</ele>
        <time>2022-10-07T13:07:24Z</time>
      </trkpt>
      <trkpt lat="49.76985" lon="2.23265">
        <ele>136.7</ele>
        <time>2022-10-07T13:07:25Z</time>
      </trkpt>
      <trkpt lat="49.76987" lon="2.23266">
        <ele>136.8</ele>
        <time>2022-10-07T13:07:26Z</time>
      </trkpt>
      <trkpt lat="49.76988" lon="2.23266">
        <ele>136.8</ele>
        <time>2022-10-07T13:07:27Z</time>
      </trkpt>
      <trkpt lat="49.76989" lon="2.23266">
        <ele>136.8</ele>
        <time>2022-10-07T13:07:28Z</time>
      </trkpt>
      <trkpt lat="49.7699" lon="2.23266">
        <ele>136.8</ele>
        <time>2022-10-07T13:07:29Z</time>
      </trkpt>
      <trkpt lat="49.76991" lon="2.23267">
        <ele>136.8</ele>
        <time>2022-10-07T13:07:31Z</time>
      </trkpt>
      <trkpt lat="49.76992" lon="2.23267">
        <ele>136.9</ele>
        <time>2022-10-07T13:07:32Z</time>
      </trkpt>
      <trkpt lat="49.76994" lon="2.23267">
        <ele>136.9</ele>
        <time>2022-10-07T13:07:33Z</time>
      </trkpt>
      <trkpt lat="49.76996" lon="2.23267">
        <ele>136.9</ele>
        <time>2022-10-07T13:07:34Z</time>
      </trkpt>
      <trkpt lat="49.76997" lon="2.23267">
        <ele>136.9</ele>
        <time>2022-10-07T13:07:35Z</time>
      </trkpt>
      <trkpt lat="49.76999" lon="2.23268">
        <ele>137</ele>
        <time>2022-10-07T13:07:36Z</time>
      </trkpt>
      <trkpt lat="49.76999" lon="2.23268">
        <ele>137</ele>
        <time>2022-10-07T13:07:37Z</time>
      </trkpt>
      <trkpt lat="49.77" lon="2.23268">
        <ele>137</ele>
        <time>2022-10-07T13:07:38Z</time>
      </trkpt>
      <trkpt lat="49.77001" lon="2.23269">
        <ele>137</ele>
        <time>2022-10-07T13:07:40Z</time>
      </trkpt>
      <trkpt lat="49.77002" lon="2.23269">
        <ele>137.1</ele>
        <time>2022-10-07T13:07:41Z</time>
      </trkpt>
      <trkpt lat="49.77003" lon="2.2327">
        <ele>137.1</ele>
        <time>2022-10-07T13:07:42Z</time>
      </trkpt>
      <trkpt lat="49.77005" lon="2.2327">
        <ele>137.1</ele>
        <time>2022-10-07T13:07:43Z</time>
      </trkpt>
      <trkpt lat="49.77006" lon="2.2327">
        <ele>137.1</ele>
        <time>2022-10-07T13:07:44Z</time>
      </trkpt>
      <trkpt lat="49.77007" lon="2.23271">
        <ele>137.1</ele>
        <time>2022-10-07T13:07:45Z</time>
      </trkpt>
      <trkpt lat="49.77008" lon="2.23271">
        <ele>137.2</ele>
        <time>2022-10-07T13:07:46Z</time>
      </trkpt>
      <trkpt lat="49.77009" lon="2.23271">
        <ele>137.2</ele>
        <time>2022-10-07T13:07:47Z</time>
      </trkpt>
      <trkpt lat="49.77011" lon="2.23272">
        <ele>137.2</ele>
        <time>2022-10-07T13:07:48Z</time>
      </trkpt>
      <trkpt lat="49.77013" lon="2.23273">
        <ele>137.2</ele>
        <time>2022-10-07T13:07:50Z</time>
      </trkpt>
      <trkpt lat="49.77014" lon="2.23273">
        <ele>137.2</ele>
        <time>2022-10-07T13:07:51Z</time>
      </trkpt>
      <trkpt lat="49.77015" lon="2.23273">
        <ele>137.2</ele>
        <time>2022-10-07T13:07:52Z</time>
      </trkpt>
      <trkpt lat="49.77016" lon="2.23273">
        <ele>137.2</ele>
        <time>2022-10-07T13:07:53Z</time>
      </trkpt>
      <trkpt lat="49.77018" lon="2.23274">
        <ele>137.2</ele>
        <time>2022-10-07T13:07:54Z</time>
      </trkpt>
      <trkpt lat="49.77019" lon="2.23274">
        <ele>137.2</ele>
        <time>2022-10-07T13:07:55Z</time>
      </trkpt>
      <trkpt lat="49.77021" lon="2.23274">
        <ele>137.2</ele>
        <time>2022-10-07T13:07:56Z</time>
      </trkpt>
      <trkpt lat="49.77023" lon="2.23275">
        <ele>137.2</ele>
        <time>2022-10-07T13:07:57Z</time>
      </trkpt>
      <trkpt lat="49.77024" lon="2.23275">
        <ele>137.2</ele>
        <time>2022-10-07T13:07:58Z</time>
      </trkpt>
      <trkpt lat="49.77024" lon="2.23275">
        <ele>137.2</ele>
        <time>2022-10-07T13:07:59Z</time>
      </trkpt>
      <trkpt lat="49.77026" lon="2.23275">
        <ele>137.2</ele>
        <time>2022-10-07T13:08:00Z</time>
      </trkpt>
      <trkpt lat="49.77027" lon="2.23275">
        <ele>137.2</ele>
        <time>2022-10-07T13:08:01Z</time>
      </trkpt>
      <trkpt lat="49.77028" lon="2.23275">
        <ele>137.2</ele>
        <time>2022-10-07T13:08:03Z</time>
      </trkpt>
      <trkpt lat="49.7703" lon="2.23276">
        <ele>137.2</ele>
        <time>2022-10-07T13:08:04Z</time>
      </trkpt>
      <trkpt lat="49.77031" lon="2.23276">
        <ele>137.2</ele>
        <time>2022-10-07T13:08:05Z</time>
      </trkpt>
      <trkpt lat="49.77032" lon="2.23276">
        <ele>137.2</ele>
        <time>2022-10-07T13:08:06Z</time>
      </trkpt>
      <trkpt lat="49.77034" lon="2.23277">
        <ele>137.2</ele>
        <time>2022-10-07T13:08:07Z</time>
      </trkpt>
      <trkpt lat="49.77035" lon="2.23277">
        <ele>137.2</ele>
        <time>2022-10-07T13:08:08Z</time>
      </trkpt>
      <trkpt lat="49.77036" lon="2.23277">
        <ele>137.2</ele>
        <time>2022-10-07T13:08:09Z</time>
      </trkpt>
      <trkpt lat="49.77037" lon="2.23278">
        <ele>137.2</ele>
        <time>2022-10-07T13:08:10Z</time>
      </trkpt>
      <trkpt lat="49.77039" lon="2.23278">
        <ele>137.2</ele>
        <time>2022-10-07T13:08:11Z</time>
      </trkpt>
      <trkpt lat="49.77041" lon="2.23279">
        <ele>137.2</ele>
        <time>2022-10-07T13:08:13Z</time>
      </trkpt>
      <trkpt lat="49.77042" lon="2.23279">
        <ele>137.3</ele>
        <time>2022-10-07T13:08:14Z</time>
      </trkpt>
      <trkpt lat="49.77042" lon="2.2328">
        <ele>137.3</ele>
        <time>2022-10-07T13:08:15Z</time>
      </trkpt>
      <trkpt lat="49.77044" lon="2.2328">
        <ele>137.3</ele>
        <time>2022-10-07T13:08:16Z</time>
      </trkpt>
      <trkpt lat="49.77045" lon="2.23281">
        <ele>137.3</ele>
        <time>2022-10-07T13:08:17Z</time>
      </trkpt>
      <trkpt lat="49.77047" lon="2.23281">
        <ele>137.3</ele>
        <time>2022-10-07T13:08:18Z</time>
      </trkpt>
      <trkpt lat="49.77048" lon="2.23282">
        <ele>137.4</ele>
        <time>2022-10-07T13:08:20Z</time>
      </trkpt>
      <trkpt lat="49.7705" lon="2.23282">
        <ele>137.4</ele>
        <time>2022-10-07T13:08:21Z</time>
      </trkpt>
      <trkpt lat="49.77051" lon="2.23283">
        <ele>137.4</ele>
        <time>2022-10-07T13:08:22Z</time>
      </trkpt>
      <trkpt lat="49.77053" lon="2.23283">
        <ele>137.4</ele>
        <time>2022-10-07T13:08:23Z</time>
      </trkpt>
      <trkpt lat="49.77054" lon="2.23283">
        <ele>137.5</ele>
        <time>2022-10-07T13:08:24Z</time>
      </trkpt>
      <trkpt lat="49.77055" lon="2.23284">
        <ele>137.5</ele>
        <time>2022-10-07T13:08:25Z</time>
      </trkpt>
      <trkpt lat="49.77057" lon="2.23284">
        <ele>137.5</ele>
        <time>2022-10-07T13:08:27Z</time>
      </trkpt>
      <trkpt lat="49.77058" lon="2.23285">
        <ele>137.5</ele>
        <time>2022-10-07T13:08:28Z</time>
      </trkpt>
      <trkpt lat="49.77059" lon="2.23286">
        <ele>137.5</ele>
        <time>2022-10-07T13:08:29Z</time>
      </trkpt>
      <trkpt lat="49.77061" lon="2.23286">
        <ele>137.6</ele>
        <time>2022-10-07T13:08:30Z</time>
      </trkpt>
      <trkpt lat="49.77062" lon="2.23287">
        <ele>137.6</ele>
        <time>2022-10-07T13:08:31Z</time>
      </trkpt>
      <trkpt lat="49.77063" lon="2.23287">
        <ele>137.6</ele>
        <time>2022-10-07T13:08:33Z</time>
      </trkpt>
      <trkpt lat="49.77065" lon="2.23287">
        <ele>137.6</ele>
        <time>2022-10-07T13:08:34Z</time>
      </trkpt>
      <trkpt lat="49.77066" lon="2.23288">
        <ele>137.6</ele>
        <time>2022-10-07T13:08:35Z</time>
      </trkpt>
      <trkpt lat="49.77068" lon="2.23288">
        <ele>137.6</ele>
        <time>2022-10-07T13:08:36Z</time>
      </trkpt>
      <trkpt lat="49.77069" lon="2.23288">
        <ele>137.6</ele>
        <time>2022-10-07T13:08:37Z</time>
      </trkpt>
      <trkpt lat="49.7707" lon="2.23289">
        <ele>137.6</ele>
        <time>2022-10-07T13:08:38Z</time>
      </trkpt>
      <trkpt lat="49.77072" lon="2.23289">
        <ele>137.6</ele>
        <time>2022-10-07T13:08:39Z</time>
      </trkpt>
      <trkpt lat="49.77074" lon="2.2329">
        <ele>137.6</ele>
        <time>2022-10-07T13:08:41Z</time>
      </trkpt>
      <trkpt lat="49.77074" lon="2.2329">
        <ele>137.6</ele>
        <time>2022-10-07T13:08:42Z</time>
      </trkpt>
      <trkpt lat="49.77075" lon="2.2329">
        <ele>137.6</ele>
        <time>2022-10-07T13:08:43Z</time>
      </trkpt>
      <trkpt lat="49.77077" lon="2.23291">
        <ele>137.6</ele>
        <time>2022-10-07T13:08:44Z</time>
      </trkpt>
      <trkpt lat="49.77078" lon="2.23291">
        <ele>137.6</ele>
        <time>2022-10-07T13:08:45Z</time>
      </trkpt>
      <trkpt lat="49.7708" lon="2.23292">
        <ele>137.6</ele>
        <time>2022-10-07T13:08:46Z</time>
      </trkpt>
      <trkpt lat="49.77082" lon="2.23292">
        <ele>137.6</ele>
        <time>2022-10-07T13:08:47Z</time>
      </trkpt>
      <trkpt lat="49.77082" lon="2.23293">
        <ele>137.6</ele>
        <time>2022-10-07T13:08:48Z</time>
      </trkpt>
      <trkpt lat="49.77083" lon="2.23293">
        <ele>137.6</ele>
        <time>2022-10-07T13:08:49Z</time>
      </trkpt>
      <trkpt lat="49.77085" lon="2.23294">
        <ele>137.5</ele>
        <time>2022-10-07T13:08:50Z</time>
      </trkpt>
      <trkpt lat="49.77086" lon="2.23295">
        <ele>137.5</ele>
        <time>2022-10-07T13:08:52Z</time>
      </trkpt>
      <trkpt lat="49.77087" lon="2.23295">
        <ele>137.5</ele>
        <time>2022-10-07T13:08:53Z</time>
      </trkpt>
      <trkpt lat="49.77088" lon="2.23296">
        <ele>137.5</ele>
        <time>2022-10-07T13:08:54Z</time>
      </trkpt>
      <trkpt lat="49.77088" lon="2.23296">
        <ele>137.5</ele>
        <time>2022-10-07T13:08:55Z</time>
      </trkpt>
      <trkpt lat="49.77089" lon="2.23296">
        <ele>137.5</ele>
        <time>2022-10-07T13:08:56Z</time>
      </trkpt>
      <trkpt lat="49.7709" lon="2.23296">
        <ele>137.5</ele>
        <time>2022-10-07T13:08:58Z</time>
      </trkpt>
      <trkpt lat="49.77091" lon="2.23296">
        <ele>137.5</ele>
        <time>2022-10-07T13:08:59Z</time>
      </trkpt>
      <trkpt lat="49.77092" lon="2.23296">
        <ele>137.5</ele>
        <time>2022-10-07T13:09:00Z</time>
      </trkpt>
      <trkpt lat="49.77094" lon="2.23295">
        <ele>137.4</ele>
        <time>2022-10-07T13:09:01Z</time>
      </trkpt>
      <trkpt lat="49.77095" lon="2.23295">
        <ele>137.4</ele>
        <time>2022-10-07T13:09:02Z</time>
      </trkpt>
      <trkpt lat="49.77096" lon="2.23295">
        <ele>137.4</ele>
        <time>2022-10-07T13:09:03Z</time>
      </trkpt>
      <trkpt lat="49.77097" lon="2.23297">
        <ele>137.4</ele>
        <time>2022-10-07T13:09:04Z</time>
      </trkpt>
      <trkpt lat="49.77098" lon="2.23298">
        <ele>137.4</ele>
        <time>2022-10-07T13:09:05Z</time>
      </trkpt>
      <trkpt lat="49.77099" lon="2.23299">
        <ele>137.4</ele>
        <time>2022-10-07T13:09:06Z</time>
      </trkpt>
      <trkpt lat="49.771" lon="2.233">
        <ele>137.3</ele>
        <time>2022-10-07T13:09:07Z</time>
      </trkpt>
      <trkpt lat="49.77101" lon="2.23301">
        <ele>137.3</ele>
        <time>2022-10-07T13:09:08Z</time>
      </trkpt>
      <trkpt lat="49.77102" lon="2.23301">
        <ele>137.3</ele>
        <time>2022-10-07T13:09:09Z</time>
      </trkpt>
      <trkpt lat="49.77104" lon="2.23302">
        <ele>137.3</ele>
        <time>2022-10-07T13:09:11Z</time>
      </trkpt>
      <trkpt lat="49.77105" lon="2.23302">
        <ele>137.3</ele>
        <time>2022-10-07T13:09:12Z</time>
      </trkpt>
      <trkpt lat="49.77107" lon="2.23303">
        <ele>137.2</ele>
        <time>2022-10-07T13:09:14Z</time>
      </trkpt>
      <trkpt lat="49.77108" lon="2.23304">
        <ele>137.2</ele>
        <time>2022-10-07T13:09:15Z</time>
      </trkpt>
      <trkpt lat="49.77109" lon="2.23304">
        <ele>137.2</ele>
        <time>2022-10-07T13:09:16Z</time>
      </trkpt>
      <trkpt lat="49.7711" lon="2.23304">
        <ele>137.2</ele>
        <time>2022-10-07T13:09:17Z</time>
      </trkpt>
      <trkpt lat="49.77111" lon="2.23304">
        <ele>137.2</ele>
        <time>2022-10-07T13:09:18Z</time>
      </trkpt>
      <trkpt lat="49.77112" lon="2.23305">
        <ele>137.2</ele>
        <time>2022-10-07T13:09:19Z</time>
      </trkpt>
      <trkpt lat="49.77113" lon="2.23305">
        <ele>137.1</ele>
        <time>2022-10-07T13:09:20Z</time>
      </trkpt>
      <trkpt lat="49.77115" lon="2.23306">
        <ele>137.1</ele>
        <time>2022-10-07T13:09:21Z</time>
      </trkpt>
      <trkpt lat="49.77116" lon="2.23306">
        <ele>137.1</ele>
        <time>2022-10-07T13:09:22Z</time>
      </trkpt>
      <trkpt lat="49.77117" lon="2.23306">
        <ele>137.1</ele>
        <time>2022-10-07T13:09:23Z</time>
      </trkpt>
      <trkpt lat="49.77118" lon="2.23307">
        <ele>137</ele>
        <time>2022-10-07T13:09:24Z</time>
      </trkpt>
      <trkpt lat="49.77119" lon="2.23307">
        <ele>137</ele>
        <time>2022-10-07T13:09:25Z</time>
      </trkpt>
      <trkpt lat="49.77121" lon="2.23308">
        <ele>137</ele>
        <time>2022-10-07T13:09:26Z</time>
      </trkpt>
      <trkpt lat="49.77121" lon="2.23308">
        <ele>137</ele>
        <time>2022-10-07T13:09:27Z</time>
      </trkpt>
      <trkpt lat="49.77123" lon="2.23308">
        <ele>137</ele>
        <time>2022-10-07T13:09:28Z</time>
      </trkpt>
      <trkpt lat="49.77124" lon="2.23309">
        <ele>136.9</ele>
        <time>2022-10-07T13:09:29Z</time>
      </trkpt>
      <trkpt lat="49.77125" lon="2.23309">
        <ele>136.9</ele>
        <time>2022-10-07T13:09:31Z</time>
      </trkpt>
      <trkpt lat="49.77127" lon="2.2331">
        <ele>136.9</ele>
        <time>2022-10-07T13:09:32Z</time>
      </trkpt>
      <trkpt lat="49.77128" lon="2.23311">
        <ele>136.9</ele>
        <time>2022-10-07T13:09:33Z</time>
      </trkpt>
      <trkpt lat="49.77128" lon="2.23311">
        <ele>136.9</ele>
        <time>2022-10-07T13:09:34Z</time>
      </trkpt>
      <trkpt lat="49.7713" lon="2.23311">
        <ele>136.8</ele>
        <time>2022-10-07T13:09:35Z</time>
      </trkpt>
      <trkpt lat="49.77132" lon="2.23312">
        <ele>136.8</ele>
        <time>2022-10-07T13:09:36Z</time>
      </trkpt>
      <trkpt lat="49.77132" lon="2.23312">
        <ele>136.8</ele>
        <time>2022-10-07T13:09:37Z</time>
      </trkpt>
      <trkpt lat="49.77134" lon="2.23313">
        <ele>136.8</ele>
        <time>2022-10-07T13:09:38Z</time>
      </trkpt>
      <trkpt lat="49.77135" lon="2.23313">
        <ele>136.7</ele>
        <time>2022-10-07T13:09:39Z</time>
      </trkpt>
      <trkpt lat="49.77136" lon="2.23314">
        <ele>136.7</ele>
        <time>2022-10-07T13:09:40Z</time>
      </trkpt>
      <trkpt lat="49.77138" lon="2.23314">
        <ele>136.7</ele>
        <time>2022-10-07T13:09:42Z</time>
      </trkpt>
      <trkpt lat="49.77139" lon="2.23314">
        <ele>136.7</ele>
        <time>2022-10-07T13:09:43Z</time>
      </trkpt>
      <trkpt lat="49.7714" lon="2.23315">
        <ele>136.6</ele>
        <time>2022-10-07T13:09:44Z</time>
      </trkpt>
      <trkpt lat="49.77141" lon="2.23315">
        <ele>136.6</ele>
        <time>2022-10-07T13:09:45Z</time>
      </trkpt>
      <trkpt lat="49.77143" lon="2.23316">
        <ele>136.6</ele>
        <time>2022-10-07T13:09:46Z</time>
      </trkpt>
      <trkpt lat="49.77144" lon="2.23316">
        <ele>136.5</ele>
        <time>2022-10-07T13:09:47Z</time>
      </trkpt>
      <trkpt lat="49.77147" lon="2.23317">
        <ele>136.4</ele>
        <time>2022-10-07T13:09:48Z</time>
      </trkpt>
      <trkpt lat="49.77148" lon="2.23318">
        <ele>136.4</ele>
        <time>2022-10-07T13:09:50Z</time>
      </trkpt>
      <trkpt lat="49.77149" lon="2.23318">
        <ele>136.4</ele>
        <time>2022-10-07T13:09:51Z</time>
      </trkpt>
      <trkpt lat="49.7715" lon="2.23318">
        <ele>136.3</ele>
        <time>2022-10-07T13:09:52Z</time>
      </trkpt>
      <trkpt lat="49.77152" lon="2.23319">
        <ele>136.3</ele>
        <time>2022-10-07T13:09:53Z</time>
      </trkpt>
      <trkpt lat="49.77154" lon="2.2332">
        <ele>136.2</ele>
        <time>2022-10-07T13:09:55Z</time>
      </trkpt>
      <trkpt lat="49.77154" lon="2.2332">
        <ele>136.2</ele>
        <time>2022-10-07T13:09:56Z</time>
      </trkpt>
      <trkpt lat="49.77155" lon="2.2332">
        <ele>136.2</ele>
        <time>2022-10-07T13:09:57Z</time>
      </trkpt>
      <trkpt lat="49.77156" lon="2.23321">
        <ele>136.2</ele>
        <time>2022-10-07T13:09:58Z</time>
      </trkpt>
      <trkpt lat="49.77157" lon="2.23322">
        <ele>136.1</ele>
        <time>2022-10-07T13:09:59Z</time>
      </trkpt>
      <trkpt lat="49.77158" lon="2.23323">
        <ele>136.1</ele>
        <time>2022-10-07T13:10:01Z</time>
      </trkpt>
      <trkpt lat="49.77159" lon="2.23323">
        <ele>136</ele>
        <time>2022-10-07T13:10:02Z</time>
      </trkpt>
      <trkpt lat="49.7716" lon="2.23323">
        <ele>136</ele>
        <time>2022-10-07T13:10:03Z</time>
      </trkpt>
      <trkpt lat="49.77162" lon="2.23323">
        <ele>136</ele>
        <time>2022-10-07T13:10:04Z</time>
      </trkpt>
      <trkpt lat="49.77164" lon="2.23322">
        <ele>135.9</ele>
        <time>2022-10-07T13:10:06Z</time>
      </trkpt>
      <trkpt lat="49.77164" lon="2.23322">
        <ele>135.9</ele>
        <time>2022-10-07T13:10:07Z</time>
      </trkpt>
      <trkpt lat="49.77165" lon="2.2332">
        <ele>135.9</ele>
        <time>2022-10-07T13:10:08Z</time>
      </trkpt>
      <trkpt lat="49.77165" lon="2.2332">
        <ele>135.8</ele>
        <time>2022-10-07T13:10:09Z</time>
      </trkpt>
      <trkpt lat="49.77166" lon="2.23319">
        <ele>135.8</ele>
        <time>2022-10-07T13:10:10Z</time>
      </trkpt>
      <trkpt lat="49.77166" lon="2.23319">
        <ele>135.8</ele>
        <time>2022-10-07T13:10:11Z</time>
      </trkpt>
      <trkpt lat="49.77166" lon="2.23319">
        <ele>135.8</ele>
        <time>2022-10-07T13:10:12Z</time>
      </trkpt>
      <trkpt lat="49.77166" lon="2.23318">
        <ele>135.8</ele>
        <time>2022-10-07T13:10:13Z</time>
      </trkpt>
      <trkpt lat="49.77166" lon="2.23319">
        <ele>135.8</ele>
        <time>2022-10-07T13:10:14Z</time>
      </trkpt>
      <trkpt lat="49.77166" lon="2.23319">
        <ele>135.8</ele>
        <time>2022-10-07T13:10:15Z</time>
      </trkpt>
      <trkpt lat="49.77166" lon="2.23319">
        <ele>135.8</ele>
        <time>2022-10-07T13:10:16Z</time>
      </trkpt>
      <trkpt lat="49.77165" lon="2.23319">
        <ele>135.8</ele>
        <time>2022-10-07T13:10:17Z</time>
      </trkpt>
      <trkpt lat="49.77165" lon="2.2332">
        <ele>135.7</ele>
        <time>2022-10-07T13:10:18Z</time>
      </trkpt>
      <trkpt lat="49.77165" lon="2.23321">
        <ele>135.7</ele>
        <time>2022-10-07T13:10:20Z</time>
      </trkpt>
      <trkpt lat="49.77165" lon="2.23322">
        <ele>135.7</ele>
        <time>2022-10-07T13:10:21Z</time>
      </trkpt>
      <trkpt lat="49.77166" lon="2.23322">
        <ele>135.7</ele>
        <time>2022-10-07T13:10:22Z</time>
      </trkpt>
      <trkpt lat="49.77167" lon="2.23323">
        <ele>135.6</ele>
        <time>2022-10-07T13:10:24Z</time>
      </trkpt>
      <trkpt lat="49.77168" lon="2.23324">
        <ele>135.6</ele>
        <time>2022-10-07T13:10:25Z</time>
      </trkpt>
      <trkpt lat="49.7717" lon="2.23324">
        <ele>135.5</ele>
        <time>2022-10-07T13:10:26Z</time>
      </trkpt>
      <trkpt lat="49.77171" lon="2.23325">
        <ele>135.5</ele>
        <time>2022-10-07T13:10:27Z</time>
      </trkpt>
      <trkpt lat="49.77173" lon="2.23325">
        <ele>135.4</ele>
        <time>2022-10-07T13:10:28Z</time>
      </trkpt>
      <trkpt lat="49.77174" lon="2.23326">
        <ele>135.4</ele>
        <time>2022-10-07T13:10:29Z</time>
      </trkpt>
      <trkpt lat="49.77175" lon="2.23327">
        <ele>135.3</ele>
        <time>2022-10-07T13:10:30Z</time>
      </trkpt>
      <trkpt lat="49.77178" lon="2.23328">
        <ele>135.2</ele>
        <time>2022-10-07T13:10:31Z</time>
      </trkpt>
      <trkpt lat="49.77179" lon="2.23328">
        <ele>135.2</ele>
        <time>2022-10-07T13:10:33Z</time>
      </trkpt>
      <trkpt lat="49.7718" lon="2.23329">
        <ele>135.2</ele>
        <time>2022-10-07T13:10:34Z</time>
      </trkpt>
      <trkpt lat="49.77181" lon="2.23329">
        <ele>135.1</ele>
        <time>2022-10-07T13:10:35Z</time>
      </trkpt>
      <trkpt lat="49.77182" lon="2.2333">
        <ele>135.1</ele>
        <time>2022-10-07T13:10:36Z</time>
      </trkpt>
      <trkpt lat="49.77183" lon="2.2333">
        <ele>135</ele>
        <time>2022-10-07T13:10:37Z</time>
      </trkpt>
      <trkpt lat="49.77184" lon="2.23331">
        <ele>135</ele>
        <time>2022-10-07T13:10:38Z</time>
      </trkpt>
      <trkpt lat="49.77185" lon="2.23331">
        <ele>134.9</ele>
        <time>2022-10-07T13:10:39Z</time>
      </trkpt>
      <trkpt lat="49.77187" lon="2.23332">
        <ele>134.9</ele>
        <time>2022-10-07T13:10:40Z</time>
      </trkpt>
      <trkpt lat="49.77188" lon="2.23333">
        <ele>134.8</ele>
        <time>2022-10-07T13:10:41Z</time>
      </trkpt>
      <trkpt lat="49.77191" lon="2.23334">
        <ele>134.7</ele>
        <time>2022-10-07T13:10:43Z</time>
      </trkpt>
      <trkpt lat="49.77192" lon="2.23335">
        <ele>134.6</ele>
        <time>2022-10-07T13:10:44Z</time>
      </trkpt>
      <trkpt lat="49.77195" lon="2.23335">
        <ele>134.5</ele>
        <time>2022-10-07T13:10:45Z</time>
      </trkpt>
      <trkpt lat="49.77197" lon="2.23337">
        <ele>134.4</ele>
        <time>2022-10-07T13:10:46Z</time>
      </trkpt>
      <trkpt lat="49.77198" lon="2.23337">
        <ele>134.4</ele>
        <time>2022-10-07T13:10:47Z</time>
      </trkpt>
      <trkpt lat="49.77199" lon="2.23338">
        <ele>134.4</ele>
        <time>2022-10-07T13:10:48Z</time>
      </trkpt>
      <trkpt lat="49.77202" lon="2.23339">
        <ele>134.3</ele>
        <time>2022-10-07T13:10:50Z</time>
      </trkpt>
      <trkpt lat="49.77202" lon="2.2334">
        <ele>134.2</ele>
        <time>2022-10-07T13:10:51Z</time>
      </trkpt>
      <trkpt lat="49.77204" lon="2.2334">
        <ele>134.2</ele>
        <time>2022-10-07T13:10:52Z</time>
      </trkpt>
      <trkpt lat="49.77205" lon="2.23341">
        <ele>134.1</ele>
        <time>2022-10-07T13:10:53Z</time>
      </trkpt>
      <trkpt lat="49.77207" lon="2.23341">
        <ele>134.1</ele>
        <time>2022-10-07T13:10:54Z</time>
      </trkpt>
      <trkpt lat="49.77208" lon="2.23342">
        <ele>134</ele>
        <time>2022-10-07T13:10:55Z</time>
      </trkpt>
      <trkpt lat="49.7721" lon="2.23343">
        <ele>133.9</ele>
        <time>2022-10-07T13:10:56Z</time>
      </trkpt>
      <trkpt lat="49.77212" lon="2.23343">
        <ele>133.9</ele>
        <time>2022-10-07T13:10:57Z</time>
      </trkpt>
      <trkpt lat="49.77213" lon="2.23344">
        <ele>133.8</ele>
        <time>2022-10-07T13:10:58Z</time>
      </trkpt>
      <trkpt lat="49.77214" lon="2.23345">
        <ele>133.8</ele>
        <time>2022-10-07T13:10:59Z</time>
      </trkpt>
      <trkpt lat="49.77216" lon="2.23346">
        <ele>133.7</ele>
        <time>2022-10-07T13:11:00Z</time>
      </trkpt>
      <trkpt lat="49.77217" lon="2.23346">
        <ele>133.7</ele>
        <time>2022-10-07T13:11:01Z</time>
      </trkpt>
      <trkpt lat="49.77218" lon="2.23347">
        <ele>133.6</ele>
        <time>2022-10-07T13:11:03Z</time>
      </trkpt>
      <trkpt lat="49.7722" lon="2.23347">
        <ele>133.5</ele>
        <time>2022-10-07T13:11:04Z</time>
      </trkpt>
      <trkpt lat="49.77221" lon="2.23348">
        <ele>133.5</ele>
        <time>2022-10-07T13:11:05Z</time>
      </trkpt>
      <trkpt lat="49.77221" lon="2.23348">
        <ele>133.5</ele>
        <time>2022-10-07T13:11:06Z</time>
      </trkpt>
      <trkpt lat="49.77223" lon="2.23349">
        <ele>133.4</ele>
        <time>2022-10-07T13:11:08Z</time>
      </trkpt>
      <trkpt lat="49.77224" lon="2.23349">
        <ele>133.3</ele>
        <time>2022-10-07T13:11:09Z</time>
      </trkpt>
      <trkpt lat="49.77225" lon="2.2335">
        <ele>133.2</ele>
        <time>2022-10-07T13:11:10Z</time>
      </trkpt>
      <trkpt lat="49.77227" lon="2.23351">
        <ele>133.2</ele>
        <time>2022-10-07T13:11:11Z</time>
      </trkpt>
      <trkpt lat="49.77228" lon="2.23351">
        <ele>133.1</ele>
        <time>2022-10-07T13:11:12Z</time>
      </trkpt>
      <trkpt lat="49.77229" lon="2.23351">
        <ele>133</ele>
        <time>2022-10-07T13:11:13Z</time>
      </trkpt>
      <trkpt lat="49.7723" lon="2.23351">
        <ele>133</ele>
        <time>2022-10-07T13:11:14Z</time>
      </trkpt>
      <trkpt lat="49.77231" lon="2.23352">
        <ele>132.9</ele>
        <time>2022-10-07T13:11:15Z</time>
      </trkpt>
      <trkpt lat="49.77232" lon="2.23352">
        <ele>132.8</ele>
        <time>2022-10-07T13:11:16Z</time>
      </trkpt>
      <trkpt lat="49.77233" lon="2.23352">
        <ele>132.8</ele>
        <time>2022-10-07T13:11:17Z</time>
      </trkpt>
      <trkpt lat="49.77234" lon="2.23353">
        <ele>132.7</ele>
        <time>2022-10-07T13:11:18Z</time>
      </trkpt>
      <trkpt lat="49.77235" lon="2.23353">
        <ele>132.6</ele>
        <time>2022-10-07T13:11:20Z</time>
      </trkpt>
      <trkpt lat="49.77236" lon="2.23354">
        <ele>132.5</ele>
        <time>2022-10-07T13:11:21Z</time>
      </trkpt>
      <trkpt lat="49.77237" lon="2.23354">
        <ele>132.5</ele>
        <time>2022-10-07T13:11:22Z</time>
      </trkpt>
      <trkpt lat="49.77239" lon="2.23355">
        <ele>132.4</ele>
        <time>2022-10-07T13:11:23Z</time>
      </trkpt>
      <trkpt lat="49.7724" lon="2.23355">
        <ele>132.3</ele>
        <time>2022-10-07T13:11:24Z</time>
      </trkpt>
      <trkpt lat="49.77242" lon="2.23356">
        <ele>132.2</ele>
        <time>2022-10-07T13:11:25Z</time>
      </trkpt>
      <trkpt lat="49.77242" lon="2.23356">
        <ele>132.1</ele>
        <time>2022-10-07T13:11:26Z</time>
      </trkpt>
      <trkpt lat="49.77244" lon="2.23356">
        <ele>132</ele>
        <time>2022-10-07T13:11:28Z</time>
      </trkpt>
      <trkpt lat="49.77245" lon="2.23357">
        <ele>132</ele>
        <time>2022-10-07T13:11:29Z</time>
      </trkpt>
      <trkpt lat="49.77246" lon="2.23358">
        <ele>131.9</ele>
        <time>2022-10-07T13:11:30Z</time>
      </trkpt>
      <trkpt lat="49.77247" lon="2.23358">
        <ele>131.8</ele>
        <time>2022-10-07T13:11:31Z</time>
      </trkpt>
      <trkpt lat="49.77248" lon="2.23358">
        <ele>131.7</ele>
        <time>2022-10-07T13:11:32Z</time>
      </trkpt>
      <trkpt lat="49.77249" lon="2.23358">
        <ele>131.7</ele>
        <time>2022-10-07T13:11:33Z</time>
      </trkpt>
      <trkpt lat="49.7725" lon="2.23359">
        <ele>131.6</ele>
        <time>2022-10-07T13:11:34Z</time>
      </trkpt>
      <trkpt lat="49.77251" lon="2.2336">
        <ele>131.5</ele>
        <time>2022-10-07T13:11:35Z</time>
      </trkpt>
      <trkpt lat="49.77252" lon="2.2336">
        <ele>131.3</ele>
        <time>2022-10-07T13:11:36Z</time>
      </trkpt>
      <trkpt lat="49.77253" lon="2.23361">
        <ele>131.2</ele>
        <time>2022-10-07T13:11:37Z</time>
      </trkpt>
      <trkpt lat="49.77254" lon="2.23361">
        <ele>131.1</ele>
        <time>2022-10-07T13:11:38Z</time>
      </trkpt>
      <trkpt lat="49.77256" lon="2.23362">
        <ele>131.1</ele>
        <time>2022-10-07T13:11:39Z</time>
      </trkpt>
      <trkpt lat="49.77258" lon="2.23362">
        <ele>130.8</ele>
        <time>2022-10-07T13:11:40Z</time>
      </trkpt>
      <trkpt lat="49.77259" lon="2.23363">
        <ele>130.8</ele>
        <time>2022-10-07T13:11:42Z</time>
      </trkpt>
      <trkpt lat="49.77259" lon="2.23363">
        <ele>130.7</ele>
        <time>2022-10-07T13:11:43Z</time>
      </trkpt>
      <trkpt lat="49.77261" lon="2.23364">
        <ele>130.6</ele>
        <time>2022-10-07T13:11:44Z</time>
      </trkpt>
      <trkpt lat="49.77262" lon="2.23364">
        <ele>130.5</ele>
        <time>2022-10-07T13:11:45Z</time>
      </trkpt>
      <trkpt lat="49.77263" lon="2.23364">
        <ele>130.4</ele>
        <time>2022-10-07T13:11:46Z</time>
      </trkpt>
      <trkpt lat="49.77264" lon="2.23365">
        <ele>130.3</ele>
        <time>2022-10-07T13:11:47Z</time>
      </trkpt>
      <trkpt lat="49.77265" lon="2.23365">
        <ele>130.3</ele>
        <time>2022-10-07T13:11:48Z</time>
      </trkpt>
      <trkpt lat="49.77266" lon="2.23366">
        <ele>130.2</ele>
        <time>2022-10-07T13:11:49Z</time>
      </trkpt>
      <trkpt lat="49.77268" lon="2.23366">
        <ele>130</ele>
        <time>2022-10-07T13:11:51Z</time>
      </trkpt>
      <trkpt lat="49.77269" lon="2.23367">
        <ele>129.9</ele>
        <time>2022-10-07T13:11:52Z</time>
      </trkpt>
      <trkpt lat="49.7727" lon="2.23367">
        <ele>129.9</ele>
        <time>2022-10-07T13:11:53Z</time>
      </trkpt>
      <trkpt lat="49.77271" lon="2.23368">
        <ele>129.8</ele>
        <time>2022-10-07T13:11:54Z</time>
      </trkpt>
      <trkpt lat="49.77273" lon="2.23368">
        <ele>129.7</ele>
        <time>2022-10-07T13:11:55Z</time>
      </trkpt>
      <trkpt lat="49.77274" lon="2.23369">
        <ele>129.5</ele>
        <time>2022-10-07T13:11:56Z</time>
      </trkpt>
      <trkpt lat="49.77275" lon="2.23369">
        <ele>129.5</ele>
        <time>2022-10-07T13:11:57Z</time>
      </trkpt>
      <trkpt lat="49.77277" lon="2.23369">
        <ele>129.3</ele>
        <time>2022-10-07T13:11:59Z</time>
      </trkpt>
      <trkpt lat="49.77278" lon="2.2337">
        <ele>129.2</ele>
        <time>2022-10-07T13:12:00Z</time>
      </trkpt>
      <trkpt lat="49.77281" lon="2.23371">
        <ele>129</ele>
        <time>2022-10-07T13:12:01Z</time>
      </trkpt>
      <trkpt lat="49.77281" lon="2.23371">
        <ele>129</ele>
        <time>2022-10-07T13:12:02Z</time>
      </trkpt>
      <trkpt lat="49.77282" lon="2.23372">
        <ele>128.9</ele>
        <time>2022-10-07T13:12:03Z</time>
      </trkpt>
      <trkpt lat="49.77283" lon="2.23372">
        <ele>128.8</ele>
        <time>2022-10-07T13:12:04Z</time>
      </trkpt>
      <trkpt lat="49.77284" lon="2.23373">
        <ele>128.7</ele>
        <time>2022-10-07T13:12:05Z</time>
      </trkpt>
      <trkpt lat="49.77286" lon="2.23373">
        <ele>128.6</ele>
        <time>2022-10-07T13:12:07Z</time>
      </trkpt>
      <trkpt lat="49.77288" lon="2.23374">
        <ele>128.4</ele>
        <time>2022-10-07T13:12:08Z</time>
      </trkpt>
      <trkpt lat="49.77289" lon="2.23374">
        <ele>128.3</ele>
        <time>2022-10-07T13:12:09Z</time>
      </trkpt>
      <trkpt lat="49.7729" lon="2.23375">
        <ele>128.2</ele>
        <time>2022-10-07T13:12:10Z</time>
      </trkpt>
      <trkpt lat="49.77292" lon="2.23375">
        <ele>128</ele>
        <time>2022-10-07T13:12:11Z</time>
      </trkpt>
      <trkpt lat="49.77293" lon="2.23376">
        <ele>128</ele>
        <time>2022-10-07T13:12:12Z</time>
      </trkpt>
      <trkpt lat="49.77294" lon="2.23376">
        <ele>127.9</ele>
        <time>2022-10-07T13:12:13Z</time>
      </trkpt>
      <trkpt lat="49.77295" lon="2.23376">
        <ele>127.8</ele>
        <time>2022-10-07T13:12:14Z</time>
      </trkpt>
      <trkpt lat="49.77296" lon="2.23377">
        <ele>127.7</ele>
        <time>2022-10-07T13:12:15Z</time>
      </trkpt>
      <trkpt lat="49.77299" lon="2.23378">
        <ele>127.5</ele>
        <time>2022-10-07T13:12:17Z</time>
      </trkpt>
      <trkpt lat="49.77299" lon="2.23378">
        <ele>127.4</ele>
        <time>2022-10-07T13:12:18Z</time>
      </trkpt>
      <trkpt lat="49.773" lon="2.23378">
        <ele>127.3</ele>
        <time>2022-10-07T13:12:19Z</time>
      </trkpt>
      <trkpt lat="49.77301" lon="2.23379">
        <ele>127.3</ele>
        <time>2022-10-07T13:12:20Z</time>
      </trkpt>
      <trkpt lat="49.77303" lon="2.23379">
        <ele>127.1</ele>
        <time>2022-10-07T13:12:21Z</time>
      </trkpt>
      <trkpt lat="49.77303" lon="2.23379">
        <ele>127.1</ele>
        <time>2022-10-07T13:12:22Z</time>
      </trkpt>
      <trkpt lat="49.77304" lon="2.2338">
        <ele>127</ele>
        <time>2022-10-07T13:12:23Z</time>
      </trkpt>
      <trkpt lat="49.77306" lon="2.2338">
        <ele>126.8</ele>
        <time>2022-10-07T13:12:24Z</time>
      </trkpt>
      <trkpt lat="49.77307" lon="2.2338">
        <ele>126.7</ele>
        <time>2022-10-07T13:12:25Z</time>
      </trkpt>
      <trkpt lat="49.77309" lon="2.23381">
        <ele>126.6</ele>
        <time>2022-10-07T13:12:26Z</time>
      </trkpt>
      <trkpt lat="49.7731" lon="2.23381">
        <ele>126.5</ele>
        <time>2022-10-07T13:12:27Z</time>
      </trkpt>
      <trkpt lat="49.77311" lon="2.23381">
        <ele>126.4</ele>
        <time>2022-10-07T13:12:28Z</time>
      </trkpt>
      <trkpt lat="49.77312" lon="2.23381">
        <ele>126.3</ele>
        <time>2022-10-07T13:12:30Z</time>
      </trkpt>
      <trkpt lat="49.77314" lon="2.23382">
        <ele>126.1</ele>
        <time>2022-10-07T13:12:31Z</time>
      </trkpt>
      <trkpt lat="49.77315" lon="2.23382">
        <ele>126</ele>
        <time>2022-10-07T13:12:32Z</time>
      </trkpt>
      <trkpt lat="49.77316" lon="2.23382">
        <ele>126</ele>
        <time>2022-10-07T13:12:33Z</time>
      </trkpt>
      <trkpt lat="49.77317" lon="2.23382">
        <ele>125.9</ele>
        <time>2022-10-07T13:12:34Z</time>
      </trkpt>
      <trkpt lat="49.77318" lon="2.23382">
        <ele>125.8</ele>
        <time>2022-10-07T13:12:35Z</time>
      </trkpt>
      <trkpt lat="49.77319" lon="2.23383">
        <ele>125.6</ele>
        <time>2022-10-07T13:12:36Z</time>
      </trkpt>
      <trkpt lat="49.7732" lon="2.23383">
        <ele>125.6</ele>
        <time>2022-10-07T13:12:37Z</time>
      </trkpt>
      <trkpt lat="49.77321" lon="2.23383">
        <ele>125.4</ele>
        <time>2022-10-07T13:12:38Z</time>
      </trkpt>
      <trkpt lat="49.77323" lon="2.23383">
        <ele>125.3</ele>
        <time>2022-10-07T13:12:39Z</time>
      </trkpt>
      <trkpt lat="49.77324" lon="2.23384">
        <ele>125.2</ele>
        <time>2022-10-07T13:12:40Z</time>
      </trkpt>
      <trkpt lat="49.77325" lon="2.23384">
        <ele>125.1</ele>
        <time>2022-10-07T13:12:41Z</time>
      </trkpt>
      <trkpt lat="49.77326" lon="2.23384">
        <ele>125</ele>
        <time>2022-10-07T13:12:43Z</time>
      </trkpt>
      <trkpt lat="49.77327" lon="2.23384">
        <ele>124.9</ele>
        <time>2022-10-07T13:12:44Z</time>
      </trkpt>
      <trkpt lat="49.77328" lon="2.23384">
        <ele>124.8</ele>
        <time>2022-10-07T13:12:45Z</time>
      </trkpt>
      <trkpt lat="49.77329" lon="2.23385">
        <ele>124.6</ele>
        <time>2022-10-07T13:12:46Z</time>
      </trkpt>
      <trkpt lat="49.7733" lon="2.23385">
        <ele>124.5</ele>
        <time>2022-10-07T13:12:47Z</time>
      </trkpt>
      <trkpt lat="49.77331" lon="2.23384">
        <ele>124.4</ele>
        <time>2022-10-07T13:12:48Z</time>
      </trkpt>
      <trkpt lat="49.77332" lon="2.23384">
        <ele>124.2</ele>
        <time>2022-10-07T13:12:50Z</time>
      </trkpt>
      <trkpt lat="49.77333" lon="2.23384">
        <ele>124.1</ele>
        <time>2022-10-07T13:12:51Z</time>
      </trkpt>
      <trkpt lat="49.77335" lon="2.23384">
        <ele>124</ele>
        <time>2022-10-07T13:12:52Z</time>
      </trkpt>
      <trkpt lat="49.77336" lon="2.23384">
        <ele>123.8</ele>
        <time>2022-10-07T13:12:53Z</time>
      </trkpt>
      <trkpt lat="49.77338" lon="2.23384">
        <ele>123.6</ele>
        <time>2022-10-07T13:12:54Z</time>
      </trkpt>
      <trkpt lat="49.77339" lon="2.23384">
        <ele>123.5</ele>
        <time>2022-10-07T13:12:55Z</time>
      </trkpt>
      <trkpt lat="49.77339" lon="2.23384">
        <ele>123.4</ele>
        <time>2022-10-07T13:12:56Z</time>
      </trkpt>
      <trkpt lat="49.77341" lon="2.23385">
        <ele>123.2</ele>
        <time>2022-10-07T13:12:57Z</time>
      </trkpt>
      <trkpt lat="49.77342" lon="2.23385">
        <ele>123.1</ele>
        <time>2022-10-07T13:12:59Z</time>
      </trkpt>
      <trkpt lat="49.77343" lon="2.23385">
        <ele>123</ele>
        <time>2022-10-07T13:13:00Z</time>
      </trkpt>
      <trkpt lat="49.77344" lon="2.23386">
        <ele>122.9</ele>
        <time>2022-10-07T13:13:01Z</time>
      </trkpt>
      <trkpt lat="49.77346" lon="2.23386">
        <ele>122.7</ele>
        <time>2022-10-07T13:13:02Z</time>
      </trkpt>
      <trkpt lat="49.77346" lon="2.23386">
        <ele>122.7</ele>
        <time>2022-10-07T13:13:03Z</time>
      </trkpt>
      <trkpt lat="49.77347" lon="2.23386">
        <ele>122.5</ele>
        <time>2022-10-07T13:13:04Z</time>
      </trkpt>
      <trkpt lat="49.77348" lon="2.23386">
        <ele>122.4</ele>
        <time>2022-10-07T13:13:05Z</time>
      </trkpt>
      <trkpt lat="49.7735" lon="2.23386">
        <ele>122.3</ele>
        <time>2022-10-07T13:13:06Z</time>
      </trkpt>
      <trkpt lat="49.77351" lon="2.23387">
        <ele>122.2</ele>
        <time>2022-10-07T13:13:07Z</time>
      </trkpt>
      <trkpt lat="49.77353" lon="2.23387">
        <ele>122</ele>
        <time>2022-10-07T13:13:08Z</time>
      </trkpt>
      <trkpt lat="49.77354" lon="2.23388">
        <ele>121.9</ele>
        <time>2022-10-07T13:13:09Z</time>
      </trkpt>
      <trkpt lat="49.77355" lon="2.23388">
        <ele>121.8</ele>
        <time>2022-10-07T13:13:10Z</time>
      </trkpt>
      <trkpt lat="49.77357" lon="2.23389">
        <ele>121.6</ele>
        <time>2022-10-07T13:13:11Z</time>
      </trkpt>
      <trkpt lat="49.77357" lon="2.2339">
        <ele>121.5</ele>
        <time>2022-10-07T13:13:13Z</time>
      </trkpt>
      <trkpt lat="49.77358" lon="2.2339">
        <ele>121.4</ele>
        <time>2022-10-07T13:13:14Z</time>
      </trkpt>
      <trkpt lat="49.77359" lon="2.23391">
        <ele>121.3</ele>
        <time>2022-10-07T13:13:15Z</time>
      </trkpt>
      <trkpt lat="49.7736" lon="2.23391">
        <ele>121.2</ele>
        <time>2022-10-07T13:13:16Z</time>
      </trkpt>
      <trkpt lat="49.77361" lon="2.23392">
        <ele>121.1</ele>
        <time>2022-10-07T13:13:17Z</time>
      </trkpt>
      <trkpt lat="49.77363" lon="2.23392">
        <ele>120.9</ele>
        <time>2022-10-07T13:13:18Z</time>
      </trkpt>
      <trkpt lat="49.77364" lon="2.23392">
        <ele>120.8</ele>
        <time>2022-10-07T13:13:19Z</time>
      </trkpt>
      <trkpt lat="49.77365" lon="2.23392">
        <ele>120.7</ele>
        <time>2022-10-07T13:13:20Z</time>
      </trkpt>
      <trkpt lat="49.77367" lon="2.23392">
        <ele>120.5</ele>
        <time>2022-10-07T13:13:22Z</time>
      </trkpt>
      <trkpt lat="49.77368" lon="2.23393">
        <ele>120.4</ele>
        <time>2022-10-07T13:13:23Z</time>
      </trkpt>
      <trkpt lat="49.7737" lon="2.23393">
        <ele>120.2</ele>
        <time>2022-10-07T13:13:24Z</time>
      </trkpt>
      <trkpt lat="49.77371" lon="2.23393">
        <ele>120.2</ele>
        <time>2022-10-07T13:13:25Z</time>
      </trkpt>
      <trkpt lat="49.77372" lon="2.23393">
        <ele>120.1</ele>
        <time>2022-10-07T13:13:26Z</time>
      </trkpt>
      <trkpt lat="49.77375" lon="2.23394">
        <ele>119.8</ele>
        <time>2022-10-07T13:13:27Z</time>
      </trkpt>
      <trkpt lat="49.77376" lon="2.23395">
        <ele>119.7</ele>
        <time>2022-10-07T13:13:29Z</time>
      </trkpt>
      <trkpt lat="49.77377" lon="2.23395">
        <ele>119.6</ele>
        <time>2022-10-07T13:13:30Z</time>
      </trkpt>
      <trkpt lat="49.77378" lon="2.23395">
        <ele>119.6</ele>
        <time>2022-10-07T13:13:31Z</time>
      </trkpt>
      <trkpt lat="49.77379" lon="2.23396">
        <ele>119.5</ele>
        <time>2022-10-07T13:13:32Z</time>
      </trkpt>
      <trkpt lat="49.7738" lon="2.23396">
        <ele>119.4</ele>
        <time>2022-10-07T13:13:33Z</time>
      </trkpt>
      <trkpt lat="49.77381" lon="2.23396">
        <ele>119.4</ele>
        <time>2022-10-07T13:13:34Z</time>
      </trkpt>
      <trkpt lat="49.77382" lon="2.23396">
        <ele>119.3</ele>
        <time>2022-10-07T13:13:35Z</time>
      </trkpt>
      <trkpt lat="49.77384" lon="2.23397">
        <ele>119.2</ele>
        <time>2022-10-07T13:13:36Z</time>
      </trkpt>
      <trkpt lat="49.77386" lon="2.23398">
        <ele>119.1</ele>
        <time>2022-10-07T13:13:38Z</time>
      </trkpt>
      <trkpt lat="49.77387" lon="2.23399">
        <ele>119</ele>
        <time>2022-10-07T13:13:39Z</time>
      </trkpt>
      <trkpt lat="49.77388" lon="2.23399">
        <ele>119</ele>
        <time>2022-10-07T13:13:40Z</time>
      </trkpt>
      <trkpt lat="49.77389" lon="2.234">
        <ele>118.9</ele>
        <time>2022-10-07T13:13:41Z</time>
      </trkpt>
      <trkpt lat="49.7739" lon="2.234">
        <ele>118.8</ele>
        <time>2022-10-07T13:13:42Z</time>
      </trkpt>
      <trkpt lat="49.77391" lon="2.23401">
        <ele>118.8</ele>
        <time>2022-10-07T13:13:43Z</time>
      </trkpt>
      <trkpt lat="49.77392" lon="2.23402">
        <ele>118.7</ele>
        <time>2022-10-07T13:13:44Z</time>
      </trkpt>
      <trkpt lat="49.77394" lon="2.23403">
        <ele>118.6</ele>
        <time>2022-10-07T13:13:45Z</time>
      </trkpt>
      <trkpt lat="49.77395" lon="2.23404">
        <ele>118.6</ele>
        <time>2022-10-07T13:13:47Z</time>
      </trkpt>
      <trkpt lat="49.77396" lon="2.23404">
        <ele>118.6</ele>
        <time>2022-10-07T13:13:48Z</time>
      </trkpt>
      <trkpt lat="49.77397" lon="2.23405">
        <ele>118.5</ele>
        <time>2022-10-07T13:13:49Z</time>
      </trkpt>
      <trkpt lat="49.77398" lon="2.23405">
        <ele>118.5</ele>
        <time>2022-10-07T13:13:50Z</time>
      </trkpt>
      <trkpt lat="49.77399" lon="2.23406">
        <ele>118.5</ele>
        <time>2022-10-07T13:13:51Z</time>
      </trkpt>
      <trkpt lat="49.77401" lon="2.23407">
        <ele>118.4</ele>
        <time>2022-10-07T13:13:53Z</time>
      </trkpt>
      <trkpt lat="49.77402" lon="2.23407">
        <ele>118.4</ele>
        <time>2022-10-07T13:13:54Z</time>
      </trkpt>
      <trkpt lat="49.77402" lon="2.23407">
        <ele>118.3</ele>
        <time>2022-10-07T13:13:55Z</time>
      </trkpt>
      <trkpt lat="49.77405" lon="2.23408">
        <ele>118.3</ele>
        <time>2022-10-07T13:13:57Z</time>
      </trkpt>
      <trkpt lat="49.77406" lon="2.23408">
        <ele>118.3</ele>
        <time>2022-10-07T13:13:58Z</time>
      </trkpt>
      <trkpt lat="49.77407" lon="2.23409">
        <ele>118.2</ele>
        <time>2022-10-07T13:13:59Z</time>
      </trkpt>
      <trkpt lat="49.77409" lon="2.23409">
        <ele>118.2</ele>
        <time>2022-10-07T13:14:00Z</time>
      </trkpt>
      <trkpt lat="49.7741" lon="2.2341">
        <ele>118.2</ele>
        <time>2022-10-07T13:14:01Z</time>
      </trkpt>
      <trkpt lat="49.77411" lon="2.2341">
        <ele>118.2</ele>
        <time>2022-10-07T13:14:02Z</time>
      </trkpt>
      <trkpt lat="49.77412" lon="2.23411">
        <ele>118.2</ele>
        <time>2022-10-07T13:14:03Z</time>
      </trkpt>
      <trkpt lat="49.77413" lon="2.23411">
        <ele>118.2</ele>
        <time>2022-10-07T13:14:04Z</time>
      </trkpt>
      <trkpt lat="49.77414" lon="2.23412">
        <ele>118.2</ele>
        <time>2022-10-07T13:14:05Z</time>
      </trkpt>
      <trkpt lat="49.77416" lon="2.23412">
        <ele>118.2</ele>
        <time>2022-10-07T13:14:07Z</time>
      </trkpt>
      <trkpt lat="49.77417" lon="2.23412">
        <ele>118.2</ele>
        <time>2022-10-07T13:14:08Z</time>
      </trkpt>
      <trkpt lat="49.77418" lon="2.23413">
        <ele>118.2</ele>
        <time>2022-10-07T13:14:09Z</time>
      </trkpt>
      <trkpt lat="49.77419" lon="2.23413">
        <ele>118.2</ele>
        <time>2022-10-07T13:14:10Z</time>
      </trkpt>
      <trkpt lat="49.77419" lon="2.23413">
        <ele>118.2</ele>
        <time>2022-10-07T13:14:11Z</time>
      </trkpt>
      <trkpt lat="49.77421" lon="2.23414">
        <ele>118.2</ele>
        <time>2022-10-07T13:14:12Z</time>
      </trkpt>
      <trkpt lat="49.77422" lon="2.23414">
        <ele>118.2</ele>
        <time>2022-10-07T13:14:13Z</time>
      </trkpt>
      <trkpt lat="49.77423" lon="2.23415">
        <ele>118.2</ele>
        <time>2022-10-07T13:14:14Z</time>
      </trkpt>
      <trkpt lat="49.77425" lon="2.23415">
        <ele>118.2</ele>
        <time>2022-10-07T13:14:16Z</time>
      </trkpt>
      <trkpt lat="49.77426" lon="2.23415">
        <ele>118.2</ele>
        <time>2022-10-07T13:14:17Z</time>
      </trkpt>
      <trkpt lat="49.77427" lon="2.23414">
        <ele>118.2</ele>
        <time>2022-10-07T13:14:18Z</time>
      </trkpt>
      <trkpt lat="49.77428" lon="2.23414">
        <ele>118.2</ele>
        <time>2022-10-07T13:14:19Z</time>
      </trkpt>
      <trkpt lat="49.77429" lon="2.23413">
        <ele>118.3</ele>
        <time>2022-10-07T13:14:20Z</time>
      </trkpt>
      <trkpt lat="49.77431" lon="2.23412">
        <ele>118.3</ele>
        <time>2022-10-07T13:14:21Z</time>
      </trkpt>
      <trkpt lat="49.77433" lon="2.23412">
        <ele>118.3</ele>
        <time>2022-10-07T13:14:22Z</time>
      </trkpt>
      <trkpt lat="49.77434" lon="2.23411">
        <ele>118.3</ele>
        <time>2022-10-07T13:14:23Z</time>
      </trkpt>
      <trkpt lat="49.77435" lon="2.23411">
        <ele>118.3</ele>
        <time>2022-10-07T13:14:24Z</time>
      </trkpt>
      <trkpt lat="49.77436" lon="2.2341">
        <ele>118.4</ele>
        <time>2022-10-07T13:14:25Z</time>
      </trkpt>
      <trkpt lat="49.77439" lon="2.23408">
        <ele>118.4</ele>
        <time>2022-10-07T13:14:26Z</time>
      </trkpt>
      <trkpt lat="49.7744" lon="2.23407">
        <ele>118.4</ele>
        <time>2022-10-07T13:14:28Z</time>
      </trkpt>
      <trkpt lat="49.77441" lon="2.23406">
        <ele>118.4</ele>
        <time>2022-10-07T13:14:29Z</time>
      </trkpt>
      <trkpt lat="49.77442" lon="2.23406">
        <ele>118.4</ele>
        <time>2022-10-07T13:14:30Z</time>
      </trkpt>
      <trkpt lat="49.77443" lon="2.23405">
        <ele>118.4</ele>
        <time>2022-10-07T13:14:31Z</time>
      </trkpt>
      <trkpt lat="49.77444" lon="2.23403">
        <ele>118.4</ele>
        <time>2022-10-07T13:14:32Z</time>
      </trkpt>
      <trkpt lat="49.77445" lon="2.23402">
        <ele>118.4</ele>
        <time>2022-10-07T13:14:33Z</time>
      </trkpt>
      <trkpt lat="49.77446" lon="2.23402">
        <ele>118.4</ele>
        <time>2022-10-07T13:14:34Z</time>
      </trkpt>
      <trkpt lat="49.77447" lon="2.234">
        <ele>118.4</ele>
        <time>2022-10-07T13:14:35Z</time>
      </trkpt>
      <trkpt lat="49.77448" lon="2.23399">
        <ele>118.4</ele>
        <time>2022-10-07T13:14:36Z</time>
      </trkpt>
      <trkpt lat="49.77449" lon="2.23398">
        <ele>118.4</ele>
        <time>2022-10-07T13:14:38Z</time>
      </trkpt>
      <trkpt lat="49.77451" lon="2.23396">
        <ele>118.4</ele>
        <time>2022-10-07T13:14:39Z</time>
      </trkpt>
      <trkpt lat="49.77452" lon="2.23394">
        <ele>118.4</ele>
        <time>2022-10-07T13:14:40Z</time>
      </trkpt>
      <trkpt lat="49.77453" lon="2.23393">
        <ele>118.4</ele>
        <time>2022-10-07T13:14:41Z</time>
      </trkpt>
      <trkpt lat="49.77454" lon="2.23392">
        <ele>118.4</ele>
        <time>2022-10-07T13:14:42Z</time>
      </trkpt>
      <trkpt lat="49.77454" lon="2.23391">
        <ele>118.4</ele>
        <time>2022-10-07T13:14:43Z</time>
      </trkpt>
      <trkpt lat="49.77455" lon="2.23389">
        <ele>118.4</ele>
        <time>2022-10-07T13:14:45Z</time>
      </trkpt>
      <trkpt lat="49.77456" lon="2.23388">
        <ele>118.3</ele>
        <time>2022-10-07T13:14:46Z</time>
      </trkpt>
      <trkpt lat="49.77458" lon="2.23386">
        <ele>118.3</ele>
        <time>2022-10-07T13:14:47Z</time>
      </trkpt>
      <trkpt lat="49.77458" lon="2.23385">
        <ele>118.3</ele>
        <time>2022-10-07T13:14:48Z</time>
      </trkpt>
      <trkpt lat="49.77459" lon="2.23385">
        <ele>118.3</ele>
        <time>2022-10-07T13:14:49Z</time>
      </trkpt>
      <trkpt lat="49.7746" lon="2.23384">
        <ele>118.3</ele>
        <time>2022-10-07T13:14:50Z</time>
      </trkpt>
      <trkpt lat="49.77462" lon="2.23383">
        <ele>118.2</ele>
        <time>2022-10-07T13:14:51Z</time>
      </trkpt>
      <trkpt lat="49.77463" lon="2.23381">
        <ele>118.2</ele>
        <time>2022-10-07T13:14:52Z</time>
      </trkpt>
      <trkpt lat="49.77464" lon="2.23381">
        <ele>118.2</ele>
        <time>2022-10-07T13:14:53Z</time>
      </trkpt>
      <trkpt lat="49.77464" lon="2.2338">
        <ele>118.2</ele>
        <time>2022-10-07T13:14:54Z</time>
      </trkpt>
      <trkpt lat="49.77465" lon="2.23379">
        <ele>118.1</ele>
        <time>2022-10-07T13:14:56Z</time>
      </trkpt>
      <trkpt lat="49.77466" lon="2.23378">
        <ele>118.1</ele>
        <time>2022-10-07T13:14:57Z</time>
      </trkpt>
      <trkpt lat="49.77467" lon="2.23377">
        <ele>118.1</ele>
        <time>2022-10-07T13:14:58Z</time>
      </trkpt>
      <trkpt lat="49.77468" lon="2.23376">
        <ele>118</ele>
        <time>2022-10-07T13:14:59Z</time>
      </trkpt>
      <trkpt lat="49.7747" lon="2.23375">
        <ele>118</ele>
        <time>2022-10-07T13:15:00Z</time>
      </trkpt>
      <trkpt lat="49.77471" lon="2.23375">
        <ele>118</ele>
        <time>2022-10-07T13:15:01Z</time>
      </trkpt>
      <trkpt lat="49.77472" lon="2.23375">
        <ele>117.9</ele>
        <time>2022-10-07T13:15:02Z</time>
      </trkpt>
      <trkpt lat="49.77472" lon="2.23374">
        <ele>117.9</ele>
        <time>2022-10-07T13:15:03Z</time>
      </trkpt>
      <trkpt lat="49.77473" lon="2.23374">
        <ele>117.9</ele>
        <time>2022-10-07T13:15:05Z</time>
      </trkpt>
      <trkpt lat="49.77474" lon="2.23374">
        <ele>117.8</ele>
        <time>2022-10-07T13:15:06Z</time>
      </trkpt>
      <trkpt lat="49.77475" lon="2.23374">
        <ele>117.8</ele>
        <time>2022-10-07T13:15:07Z</time>
      </trkpt>
      <trkpt lat="49.77477" lon="2.23375">
        <ele>117.8</ele>
        <time>2022-10-07T13:15:08Z</time>
      </trkpt>
      <trkpt lat="49.77478" lon="2.23375">
        <ele>117.7</ele>
        <time>2022-10-07T13:15:10Z</time>
      </trkpt>
      <trkpt lat="49.7748" lon="2.23375">
        <ele>117.6</ele>
        <time>2022-10-07T13:15:11Z</time>
      </trkpt>
      <trkpt lat="49.77481" lon="2.23375">
        <ele>117.6</ele>
        <time>2022-10-07T13:15:12Z</time>
      </trkpt>
      <trkpt lat="49.77482" lon="2.23375">
        <ele>117.6</ele>
        <time>2022-10-07T13:15:13Z</time>
      </trkpt>
      <trkpt lat="49.77483" lon="2.23375">
        <ele>117.5</ele>
        <time>2022-10-07T13:15:14Z</time>
      </trkpt>
      <trkpt lat="49.77484" lon="2.23375">
        <ele>117.5</ele>
        <time>2022-10-07T13:15:15Z</time>
      </trkpt>
      <trkpt lat="49.77486" lon="2.23375">
        <ele>117.4</ele>
        <time>2022-10-07T13:15:17Z</time>
      </trkpt>
      <trkpt lat="49.77487" lon="2.23375">
        <ele>117.4</ele>
        <time>2022-10-07T13:15:18Z</time>
      </trkpt>
      <trkpt lat="49.77488" lon="2.23376">
        <ele>117.3</ele>
        <time>2022-10-07T13:15:19Z</time>
      </trkpt>
      <trkpt lat="49.7749" lon="2.23376">
        <ele>117.3</ele>
        <time>2022-10-07T13:15:20Z</time>
      </trkpt>
      <trkpt lat="49.77491" lon="2.23376">
        <ele>117.2</ele>
        <time>2022-10-07T13:15:21Z</time>
      </trkpt>
      <trkpt lat="49.77492" lon="2.23376">
        <ele>117.2</ele>
        <time>2022-10-07T13:15:22Z</time>
      </trkpt>
      <trkpt lat="49.77494" lon="2.23377">
        <ele>117.1</ele>
        <time>2022-10-07T13:15:23Z</time>
      </trkpt>
      <trkpt lat="49.77495" lon="2.23377">
        <ele>117.1</ele>
        <time>2022-10-07T13:15:24Z</time>
      </trkpt>
      <trkpt lat="49.77496" lon="2.23378">
        <ele>117</ele>
        <time>2022-10-07T13:15:26Z</time>
      </trkpt>
      <trkpt lat="49.77497" lon="2.23378">
        <ele>117</ele>
        <time>2022-10-07T13:15:27Z</time>
      </trkpt>
      <trkpt lat="49.77499" lon="2.23379">
        <ele>116.9</ele>
        <time>2022-10-07T13:15:28Z</time>
      </trkpt>
      <trkpt lat="49.775" lon="2.2338">
        <ele>116.9</ele>
        <time>2022-10-07T13:15:29Z</time>
      </trkpt>
      <trkpt lat="49.77501" lon="2.2338">
        <ele>116.9</ele>
        <time>2022-10-07T13:15:30Z</time>
      </trkpt>
      <trkpt lat="49.77503" lon="2.23381">
        <ele>116.8</ele>
        <time>2022-10-07T13:15:32Z</time>
      </trkpt>
      <trkpt lat="49.77504" lon="2.23381">
        <ele>116.8</ele>
        <time>2022-10-07T13:15:33Z</time>
      </trkpt>
      <trkpt lat="49.77506" lon="2.23381">
        <ele>116.7</ele>
        <time>2022-10-07T13:15:34Z</time>
      </trkpt>
      <trkpt lat="49.77508" lon="2.23381">
        <ele>116.6</ele>
        <time>2022-10-07T13:15:35Z</time>
      </trkpt>
      <trkpt lat="49.77509" lon="2.23381">
        <ele>116.6</ele>
        <time>2022-10-07T13:15:36Z</time>
      </trkpt>
      <trkpt lat="49.7751" lon="2.23382">
        <ele>116.6</ele>
        <time>2022-10-07T13:15:37Z</time>
      </trkpt>
      <trkpt lat="49.77511" lon="2.23382">
        <ele>116.6</ele>
        <time>2022-10-07T13:15:39Z</time>
      </trkpt>
      <trkpt lat="49.77512" lon="2.23382">
        <ele>116.5</ele>
        <time>2022-10-07T13:15:40Z</time>
      </trkpt>
      <trkpt lat="49.77513" lon="2.23382">
        <ele>116.5</ele>
        <time>2022-10-07T13:15:41Z</time>
      </trkpt>
      <trkpt lat="49.77515" lon="2.23382">
        <ele>116.5</ele>
        <time>2022-10-07T13:15:42Z</time>
      </trkpt>
      <trkpt lat="49.77516" lon="2.23382">
        <ele>116.4</ele>
        <time>2022-10-07T13:15:43Z</time>
      </trkpt>
      <trkpt lat="49.77517" lon="2.23382">
        <ele>116.4</ele>
        <time>2022-10-07T13:15:44Z</time>
      </trkpt>
      <trkpt lat="49.77518" lon="2.23383">
        <ele>116.4</ele>
        <time>2022-10-07T13:15:45Z</time>
      </trkpt>
      <trkpt lat="49.77519" lon="2.23383">
        <ele>116.4</ele>
        <time>2022-10-07T13:15:47Z</time>
      </trkpt>
      <trkpt lat="49.7752" lon="2.23383">
        <ele>116.3</ele>
        <time>2022-10-07T13:15:48Z</time>
      </trkpt>
      <trkpt lat="49.77522" lon="2.23384">
        <ele>116.3</ele>
        <time>2022-10-07T13:15:49Z</time>
      </trkpt>
      <trkpt lat="49.77523" lon="2.23384">
        <ele>116.3</ele>
        <time>2022-10-07T13:15:50Z</time>
      </trkpt>
      <trkpt lat="49.77524" lon="2.23384">
        <ele>116.3</ele>
        <time>2022-10-07T13:15:51Z</time>
      </trkpt>
      <trkpt lat="49.77525" lon="2.23384">
        <ele>116.3</ele>
        <time>2022-10-07T13:15:52Z</time>
      </trkpt>
      <trkpt lat="49.77527" lon="2.23384">
        <ele>116.2</ele>
        <time>2022-10-07T13:15:53Z</time>
      </trkpt>
      <trkpt lat="49.77528" lon="2.23384">
        <ele>116.2</ele>
        <time>2022-10-07T13:15:54Z</time>
      </trkpt>
      <trkpt lat="49.77529" lon="2.23385">
        <ele>116.2</ele>
        <time>2022-10-07T13:15:55Z</time>
      </trkpt>
      <trkpt lat="49.7753" lon="2.23385">
        <ele>116.1</ele>
        <time>2022-10-07T13:15:57Z</time>
      </trkpt>
      <trkpt lat="49.77532" lon="2.23386">
        <ele>116.1</ele>
        <time>2022-10-07T13:15:58Z</time>
      </trkpt>
      <trkpt lat="49.77533" lon="2.23387">
        <ele>116.1</ele>
        <time>2022-10-07T13:15:59Z</time>
      </trkpt>
      <trkpt lat="49.77534" lon="2.23388">
        <ele>116</ele>
        <time>2022-10-07T13:16:00Z</time>
      </trkpt>
      <trkpt lat="49.77535" lon="2.23388">
        <ele>116</ele>
        <time>2022-10-07T13:16:01Z</time>
      </trkpt>
      <trkpt lat="49.77536" lon="2.23389">
        <ele>116</ele>
        <time>2022-10-07T13:16:02Z</time>
      </trkpt>
      <trkpt lat="49.77538" lon="2.23389">
        <ele>115.9</ele>
        <time>2022-10-07T13:16:03Z</time>
      </trkpt>
      <trkpt lat="49.77539" lon="2.2339">
        <ele>115.9</ele>
        <time>2022-10-07T13:16:04Z</time>
      </trkpt>
      <trkpt lat="49.7754" lon="2.2339">
        <ele>115.8</ele>
        <time>2022-10-07T13:16:05Z</time>
      </trkpt>
      <trkpt lat="49.77542" lon="2.23391">
        <ele>115.8</ele>
        <time>2022-10-07T13:16:06Z</time>
      </trkpt>
      <trkpt lat="49.77543" lon="2.23391">
        <ele>115.7</ele>
        <time>2022-10-07T13:16:07Z</time>
      </trkpt>
      <trkpt lat="49.77545" lon="2.23391">
        <ele>115.6</ele>
        <time>2022-10-07T13:16:09Z</time>
      </trkpt>
      <trkpt lat="49.77546" lon="2.23391">
        <ele>115.6</ele>
        <time>2022-10-07T13:16:10Z</time>
      </trkpt>
      <trkpt lat="49.77547" lon="2.23392">
        <ele>115.5</ele>
        <time>2022-10-07T13:16:11Z</time>
      </trkpt>
      <trkpt lat="49.77549" lon="2.23392">
        <ele>115.5</ele>
        <time>2022-10-07T13:16:12Z</time>
      </trkpt>
      <trkpt lat="49.7755" lon="2.23392">
        <ele>115.4</ele>
        <time>2022-10-07T13:16:13Z</time>
      </trkpt>
      <trkpt lat="49.77551" lon="2.23393">
        <ele>115.4</ele>
        <time>2022-10-07T13:16:15Z</time>
      </trkpt>
      <trkpt lat="49.77553" lon="2.23393">
        <ele>115.3</ele>
        <time>2022-10-07T13:16:16Z</time>
      </trkpt>
      <trkpt lat="49.77553" lon="2.23393">
        <ele>115.3</ele>
        <time>2022-10-07T13:16:17Z</time>
      </trkpt>
      <trkpt lat="49.77555" lon="2.23394">
        <ele>115.2</ele>
        <time>2022-10-07T13:16:18Z</time>
      </trkpt>
      <trkpt lat="49.77556" lon="2.23394">
        <ele>115.2</ele>
        <time>2022-10-07T13:16:19Z</time>
      </trkpt>
      <trkpt lat="49.77557" lon="2.23394">
        <ele>115.2</ele>
        <time>2022-10-07T13:16:20Z</time>
      </trkpt>
      <trkpt lat="49.77558" lon="2.23394">
        <ele>115.1</ele>
        <time>2022-10-07T13:16:22Z</time>
      </trkpt>
      <trkpt lat="49.77559" lon="2.23394">
        <ele>115.1</ele>
        <time>2022-10-07T13:16:23Z</time>
      </trkpt>
      <trkpt lat="49.7756" lon="2.23395">
        <ele>115.1</ele>
        <time>2022-10-07T13:16:24Z</time>
      </trkpt>
      <trkpt lat="49.77561" lon="2.23395">
        <ele>115</ele>
        <time>2022-10-07T13:16:25Z</time>
      </trkpt>
      <trkpt lat="49.77563" lon="2.23395">
        <ele>115</ele>
        <time>2022-10-07T13:16:26Z</time>
      </trkpt>
      <trkpt lat="49.77564" lon="2.23395">
        <ele>115</ele>
        <time>2022-10-07T13:16:27Z</time>
      </trkpt>
      <trkpt lat="49.77565" lon="2.23395">
        <ele>115</ele>
        <time>2022-10-07T13:16:28Z</time>
      </trkpt>
      <trkpt lat="49.77566" lon="2.23395">
        <ele>114.9</ele>
        <time>2022-10-07T13:16:29Z</time>
      </trkpt>
      <trkpt lat="49.77567" lon="2.23395">
        <ele>114.9</ele>
        <time>2022-10-07T13:16:30Z</time>
      </trkpt>
      <trkpt lat="49.77568" lon="2.23395">
        <ele>114.9</ele>
        <time>2022-10-07T13:16:31Z</time>
      </trkpt>
      <trkpt lat="49.7757" lon="2.23395">
        <ele>114.9</ele>
        <time>2022-10-07T13:16:32Z</time>
      </trkpt>
      <trkpt lat="49.77572" lon="2.23395">
        <ele>114.8</ele>
        <time>2022-10-07T13:16:34Z</time>
      </trkpt>
      <trkpt lat="49.77574" lon="2.23396">
        <ele>114.8</ele>
        <time>2022-10-07T13:16:35Z</time>
      </trkpt>
      <trkpt lat="49.77574" lon="2.23397">
        <ele>114.8</ele>
        <time>2022-10-07T13:16:36Z</time>
      </trkpt>
      <trkpt lat="49.77575" lon="2.23398">
        <ele>114.8</ele>
        <time>2022-10-07T13:16:37Z</time>
      </trkpt>
      <trkpt lat="49.77577" lon="2.23399">
        <ele>114.7</ele>
        <time>2022-10-07T13:16:38Z</time>
      </trkpt>
      <trkpt lat="49.77578" lon="2.23399">
        <ele>114.7</ele>
        <time>2022-10-07T13:16:40Z</time>
      </trkpt>
      <trkpt lat="49.77579" lon="2.234">
        <ele>114.7</ele>
        <time>2022-10-07T13:16:41Z</time>
      </trkpt>
      <trkpt lat="49.7758" lon="2.23401">
        <ele>114.7</ele>
        <time>2022-10-07T13:16:42Z</time>
      </trkpt>
      <trkpt lat="49.77581" lon="2.23402">
        <ele>114.7</ele>
        <time>2022-10-07T13:16:44Z</time>
      </trkpt>
      <trkpt lat="49.77582" lon="2.23404">
        <ele>114.7</ele>
        <time>2022-10-07T13:16:45Z</time>
      </trkpt>
      <trkpt lat="49.77583" lon="2.23405">
        <ele>114.7</ele>
        <time>2022-10-07T13:16:46Z</time>
      </trkpt>
      <trkpt lat="49.77584" lon="2.23406">
        <ele>114.7</ele>
        <time>2022-10-07T13:16:47Z</time>
      </trkpt>
      <trkpt lat="49.77584" lon="2.23407">
        <ele>114.7</ele>
        <time>2022-10-07T13:16:48Z</time>
      </trkpt>
      <trkpt lat="49.77585" lon="2.23408">
        <ele>114.7</ele>
        <time>2022-10-07T13:16:50Z</time>
      </trkpt>
      <trkpt lat="49.77586" lon="2.23409">
        <ele>114.7</ele>
        <time>2022-10-07T13:16:51Z</time>
      </trkpt>
      <trkpt lat="49.77586" lon="2.23411">
        <ele>114.7</ele>
        <time>2022-10-07T13:16:52Z</time>
      </trkpt>
      <trkpt lat="49.77586" lon="2.23412">
        <ele>114.7</ele>
        <time>2022-10-07T13:16:53Z</time>
      </trkpt>
      <trkpt lat="49.77586" lon="2.23412">
        <ele>114.7</ele>
        <time>2022-10-07T13:16:54Z</time>
      </trkpt>
      <trkpt lat="49.77586" lon="2.23412">
        <ele>114.7</ele>
        <time>2022-10-07T13:16:55Z</time>
      </trkpt>
      <trkpt lat="49.77586" lon="2.23413">
        <ele>114.7</ele>
        <time>2022-10-07T13:16:56Z</time>
      </trkpt>
      <trkpt lat="49.77585" lon="2.23413">
        <ele>114.7</ele>
        <time>2022-10-07T13:16:57Z</time>
      </trkpt>
      <trkpt lat="49.77585" lon="2.23412">
        <ele>114.7</ele>
        <time>2022-10-07T13:16:58Z</time>
      </trkpt>
      <trkpt lat="49.77585" lon="2.23412">
        <ele>114.7</ele>
        <time>2022-10-07T13:16:59Z</time>
      </trkpt>
      <trkpt lat="49.77585" lon="2.23412">
        <ele>114.7</ele>
        <time>2022-10-07T13:17:00Z</time>
      </trkpt>
      <trkpt lat="49.77584" lon="2.23412">
        <ele>114.7</ele>
        <time>2022-10-07T13:17:01Z</time>
      </trkpt>
      <trkpt lat="49.77584" lon="2.23412">
        <ele>114.7</ele>
        <time>2022-10-07T13:17:02Z</time>
      </trkpt>
      <trkpt lat="49.77584" lon="2.23412">
        <ele>114.7</ele>
        <time>2022-10-07T13:17:03Z</time>
      </trkpt>
      <trkpt lat="49.77584" lon="2.23411">
        <ele>114.7</ele>
        <time>2022-10-07T13:17:04Z</time>
      </trkpt>
      <trkpt lat="49.77584" lon="2.23411">
        <ele>114.7</ele>
        <time>2022-10-07T13:17:05Z</time>
      </trkpt>
      <trkpt lat="49.77584" lon="2.23411">
        <ele>114.7</ele>
        <time>2022-10-07T13:17:06Z</time>
      </trkpt>
      <trkpt lat="49.77583" lon="2.23411">
        <ele>114.7</ele>
        <time>2022-10-07T13:17:07Z</time>
      </trkpt>
      <trkpt lat="49.77583" lon="2.2341">
        <ele>114.7</ele>
        <time>2022-10-07T13:17:08Z</time>
      </trkpt>
      <trkpt lat="49.77583" lon="2.23409">
        <ele>114.7</ele>
        <time>2022-10-07T13:17:09Z</time>
      </trkpt>
      <trkpt lat="49.77583" lon="2.23409">
        <ele>114.7</ele>
        <time>2022-10-07T13:17:10Z</time>
      </trkpt>
      <trkpt lat="49.77583" lon="2.23409">
        <ele>114.7</ele>
        <time>2022-10-07T13:17:11Z</time>
      </trkpt>
      <trkpt lat="49.77583" lon="2.23409">
        <ele>114.7</ele>
        <time>2022-10-07T13:17:12Z</time>
      </trkpt>
      <trkpt lat="49.77583" lon="2.23409">
        <ele>114.7</ele>
        <time>2022-10-07T13:17:13Z</time>
      </trkpt>
      <trkpt lat="49.77582" lon="2.23409">
        <ele>114.7</ele>
        <time>2022-10-07T13:17:14Z</time>
      </trkpt>
      <trkpt lat="49.77582" lon="2.23409">
        <ele>114.7</ele>
        <time>2022-10-07T13:17:15Z</time>
      </trkpt>
      <trkpt lat="49.77582" lon="2.23409">
        <ele>114.7</ele>
        <time>2022-10-07T13:17:16Z</time>
      </trkpt>
      <trkpt lat="49.77582" lon="2.23408">
        <ele>114.7</ele>
        <time>2022-10-07T13:17:17Z</time>
      </trkpt>
      <trkpt lat="49.77582" lon="2.23408">
        <ele>114.7</ele>
        <time>2022-10-07T13:17:18Z</time>
      </trkpt>
      <trkpt lat="49.77582" lon="2.23408">
        <ele>114.7</ele>
        <time>2022-10-07T13:17:19Z</time>
      </trkpt>
      <trkpt lat="49.77582" lon="2.23408">
        <ele>114.7</ele>
        <time>2022-10-07T13:17:20Z</time>
      </trkpt>
      <trkpt lat="49.77582" lon="2.23408">
        <ele>114.7</ele>
        <time>2022-10-07T13:17:21Z</time>
      </trkpt>
      <trkpt lat="49.77582" lon="2.23408">
        <ele>114.7</ele>
        <time>2022-10-07T13:17:22Z</time>
      </trkpt>
      <trkpt lat="49.77582" lon="2.23408">
        <ele>114.7</ele>
        <time>2022-10-07T13:17:23Z</time>
      </trkpt>
      <trkpt lat="49.77582" lon="2.23408">
        <ele>114.7</ele>
        <time>2022-10-07T13:17:24Z</time>
      </trkpt>
      <trkpt lat="49.77582" lon="2.23408">
        <ele>114.7</ele>
        <time>2022-10-07T13:17:25Z</time>
      </trkpt>
      <trkpt lat="49.77582" lon="2.23408">
        <ele>114.7</ele>
        <time>2022-10-07T13:17:26Z</time>
      </trkpt>
      <trkpt lat="49.77582" lon="2.23407">
        <ele>114.7</ele>
        <time>2022-10-07T13:17:27Z</time>
      </trkpt>
      <trkpt lat="49.77582" lon="2.23407">
        <ele>114.7</ele>
        <time>2022-10-07T13:17:28Z</time>
      </trkpt>
      <trkpt lat="49.77582" lon="2.23407">
        <ele>114.7</ele>
        <time>2022-10-07T13:17:29Z</time>
      </trkpt>
      <trkpt lat="49.77582" lon="2.23407">
        <ele>114.7</ele>
        <time>2022-10-07T13:17:30Z</time>
      </trkpt>
      <trkpt lat="49.77582" lon="2.23407">
        <ele>114.7</ele>
        <time>2022-10-07T13:17:31Z</time>
      </trkpt>
      <trkpt lat="49.77581" lon="2.23407">
        <ele>114.7</ele>
        <time>2022-10-07T13:17:32Z</time>
      </trkpt>
      <trkpt lat="49.77581" lon="2.23407">
        <ele>114.7</ele>
        <time>2022-10-07T13:17:33Z</time>
      </trkpt>
      <trkpt lat="49.77581" lon="2.23407">
        <ele>114.7</ele>
        <time>2022-10-07T13:17:34Z</time>
      </trkpt>
      <trkpt lat="49.77581" lon="2.23407">
        <ele>114.7</ele>
        <time>2022-10-07T13:17:35Z</time>
      </trkpt>
      <trkpt lat="49.77581" lon="2.23407">
        <ele>114.7</ele>
        <time>2022-10-07T13:17:36Z</time>
      </trkpt>
      <trkpt lat="49.77581" lon="2.23406">
        <ele>114.7</ele>
        <time>2022-10-07T13:17:37Z</time>
      </trkpt>
      <trkpt lat="49.77581" lon="2.23406">
        <ele>114.7</ele>
        <time>2022-10-07T13:17:38Z</time>
      </trkpt>
      <trkpt lat="49.77581" lon="2.23406">
        <ele>114.7</ele>
        <time>2022-10-07T13:17:39Z</time>
      </trkpt>
      <trkpt lat="49.77581" lon="2.23406">
        <ele>114.7</ele>
        <time>2022-10-07T13:17:40Z</time>
      </trkpt>
      <trkpt lat="49.77581" lon="2.23406">
        <ele>114.7</ele>
        <time>2022-10-07T13:17:41Z</time>
      </trkpt>
      <trkpt lat="49.77581" lon="2.23406">
        <ele>114.7</ele>
        <time>2022-10-07T13:17:42Z</time>
      </trkpt>
      <trkpt lat="49.77581" lon="2.23406">
        <ele>114.7</ele>
        <time>2022-10-07T13:17:43Z</time>
      </trkpt>
      <trkpt lat="49.77581" lon="2.23406">
        <ele>114.7</ele>
        <time>2022-10-07T13:17:44Z</time>
      </trkpt>
      <trkpt lat="49.77581" lon="2.23406">
        <ele>114.7</ele>
        <time>2022-10-07T13:17:45Z</time>
      </trkpt>
      <trkpt lat="49.77581" lon="2.23406">
        <ele>114.7</ele>
        <time>2022-10-07T13:17:46Z</time>
      </trkpt>
      <trkpt lat="49.77581" lon="2.23405">
        <ele>114.7</ele>
        <time>2022-10-07T13:17:47Z</time>
      </trkpt>
      <trkpt lat="49.77581" lon="2.23405">
        <ele>114.7</ele>
        <time>2022-10-07T13:17:48Z</time>
      </trkpt>
      <trkpt lat="49.77581" lon="2.23405">
        <ele>114.7</ele>
        <time>2022-10-07T13:17:49Z</time>
      </trkpt>
      <trkpt lat="49.77581" lon="2.23405">
        <ele>114.7</ele>
        <time>2022-10-07T13:17:50Z</time>
      </trkpt>
      <trkpt lat="49.7758" lon="2.23405">
        <ele>114.7</ele>
        <time>2022-10-07T13:17:51Z</time>
      </trkpt>
      <trkpt lat="49.7758" lon="2.23405">
        <ele>114.7</ele>
        <time>2022-10-07T13:17:52Z</time>
      </trkpt>
      <trkpt lat="49.7758" lon="2.23405">
        <ele>114.7</ele>
        <time>2022-10-07T13:17:53Z</time>
      </trkpt>
      <trkpt lat="49.7758" lon="2.23405">
        <ele>114.7</ele>
        <time>2022-10-07T13:17:54Z</time>
      </trkpt>
      <trkpt lat="49.7758" lon="2.23405">
        <ele>114.7</ele>
        <time>2022-10-07T13:17:55Z</time>
      </trkpt>
      <trkpt lat="49.7758" lon="2.23405">
        <ele>114.7</ele>
        <time>2022-10-07T13:17:56Z</time>
      </trkpt>
      <trkpt lat="49.7758" lon="2.23404">
        <ele>114.7</ele>
        <time>2022-10-07T13:17:57Z</time>
      </trkpt>
      <trkpt lat="49.7758" lon="2.23404">
        <ele>114.7</ele>
        <time>2022-10-07T13:17:58Z</time>
      </trkpt>
      <trkpt lat="49.7758" lon="2.23404">
        <ele>114.7</ele>
        <time>2022-10-07T13:17:59Z</time>
      </trkpt>
      <trkpt lat="49.77579" lon="2.23402">
        <ele>114.7</ele>
        <time>2022-10-07T13:18:00Z</time>
      </trkpt>
      <trkpt lat="49.77578" lon="2.23401">
        <ele>114.7</ele>
        <time>2022-10-07T13:18:01Z</time>
      </trkpt>
      <trkpt lat="49.77577" lon="2.234">
        <ele>114.7</ele>
        <time>2022-10-07T13:18:02Z</time>
      </trkpt>
      <trkpt lat="49.77577" lon="2.234">
        <ele>114.7</ele>
        <time>2022-10-07T13:18:03Z</time>
      </trkpt>
      <trkpt lat="49.77577" lon="2.234">
        <ele>114.7</ele>
        <time>2022-10-07T13:18:04Z</time>
      </trkpt>
      <trkpt lat="49.77577" lon="2.234">
        <ele>114.8</ele>
        <time>2022-10-07T13:18:05Z</time>
      </trkpt>
      <trkpt lat="49.77577" lon="2.234">
        <ele>114.8</ele>
        <time>2022-10-07T13:18:06Z</time>
      </trkpt>
      <trkpt lat="49.77577" lon="2.234">
        <ele>114.8</ele>
        <time>2022-10-07T13:18:07Z</time>
      </trkpt>
      <trkpt lat="49.77577" lon="2.234">
        <ele>114.8</ele>
        <time>2022-10-07T13:18:08Z</time>
      </trkpt>
      <trkpt lat="49.77577" lon="2.234">
        <ele>114.8</ele>
        <time>2022-10-07T13:18:09Z</time>
      </trkpt>
      <trkpt lat="49.77577" lon="2.234">
        <ele>114.8</ele>
        <time>2022-10-07T13:18:10Z</time>
      </trkpt>
      <trkpt lat="49.77577" lon="2.234">
        <ele>114.8</ele>
        <time>2022-10-07T13:18:11Z</time>
      </trkpt>
      <trkpt lat="49.77577" lon="2.234">
        <ele>114.8</ele>
        <time>2022-10-07T13:18:12Z</time>
      </trkpt>
      <trkpt lat="49.77577" lon="2.234">
        <ele>114.8</ele>
        <time>2022-10-07T13:18:13Z</time>
      </trkpt>
      <trkpt lat="49.77577" lon="2.234">
        <ele>114.8</ele>
        <time>2022-10-07T13:18:14Z</time>
      </trkpt>
      <trkpt lat="49.77577" lon="2.234">
        <ele>114.8</ele>
        <time>2022-10-07T13:18:15Z</time>
      </trkpt>
      <trkpt lat="49.77577" lon="2.234">
        <ele>114.8</ele>
        <time>2022-10-07T13:18:16Z</time>
      </trkpt>
      <trkpt lat="49.77577" lon="2.234">
        <ele>114.8</ele>
        <time>2022-10-07T13:18:17Z</time>
      </trkpt>
      <trkpt lat="49.77577" lon="2.234">
        <ele>114.8</ele>
        <time>2022-10-07T13:18:18Z</time>
      </trkpt>
      <trkpt lat="49.77577" lon="2.234">
        <ele>114.8</ele>
        <time>2022-10-07T13:18:19Z</time>
      </trkpt>
      <trkpt lat="49.77577" lon="2.234">
        <ele>114.8</ele>
        <time>2022-10-07T13:18:20Z</time>
      </trkpt>
      <trkpt lat="49.77577" lon="2.234">
        <ele>114.8</ele>
        <time>2022-10-07T13:18:21Z</time>
      </trkpt>
      <trkpt lat="49.77577" lon="2.234">
        <ele>114.8</ele>
        <time>2022-10-07T13:18:22Z</time>
      </trkpt>
      <trkpt lat="49.77577" lon="2.234">
        <ele>114.8</ele>
        <time>2022-10-07T13:18:23Z</time>
      </trkpt>
      <trkpt lat="49.77577" lon="2.234">
        <ele>114.8</ele>
        <time>2022-10-07T13:18:24Z</time>
      </trkpt>
      <trkpt lat="49.77577" lon="2.234">
        <ele>114.8</ele>
        <time>2022-10-07T13:18:25Z</time>
      </trkpt>
      <trkpt lat="49.77577" lon="2.234">
        <ele>114.8</ele>
        <time>2022-10-07T13:18:26Z</time>
      </trkpt>
      <trkpt lat="49.77577" lon="2.234">
        <ele>114.8</ele>
        <time>2022-10-07T13:18:27Z</time>
      </trkpt>
      <trkpt lat="49.77577" lon="2.234">
        <ele>114.8</ele>
        <time>2022-10-07T13:18:28Z</time>
      </trkpt>
      <trkpt lat="49.77577" lon="2.234">
        <ele>114.8</ele>
        <time>2022-10-07T13:18:29Z</time>
      </trkpt>
      <trkpt lat="49.77577" lon="2.234">
        <ele>114.8</ele>
        <time>2022-10-07T13:18:30Z</time>
      </trkpt>
      <trkpt lat="49.77577" lon="2.234">
        <ele>114.8</ele>
        <time>2022-10-07T13:18:31Z</time>
      </trkpt>
      <trkpt lat="49.77577" lon="2.234">
        <ele>114.8</ele>
        <time>2022-10-07T13:18:32Z</time>
      </trkpt>
      <trkpt lat="49.77577" lon="2.234">
        <ele>114.8</ele>
        <time>2022-10-07T13:18:33Z</time>
      </trkpt>
      <trkpt lat="49.77577" lon="2.234">
        <ele>114.8</ele>
        <time>2022-10-07T13:18:34Z</time>
      </trkpt>
      <trkpt lat="49.77577" lon="2.234">
        <ele>114.8</ele>
        <time>2022-10-07T13:18:35Z</time>
      </trkpt>
      <trkpt lat="49.77577" lon="2.234">
        <ele>114.8</ele>
        <time>2022-10-07T13:18:36Z</time>
      </trkpt>
      <trkpt lat="49.77577" lon="2.234">
        <ele>114.8</ele>
        <time>2022-10-07T13:18:37Z</time>
      </trkpt>
      <trkpt lat="49.77577" lon="2.234">
        <ele>114.8</ele>
        <time>2022-10-07T13:18:38Z</time>
      </trkpt>
      <trkpt lat="49.77577" lon="2.234">
        <ele>114.8</ele>
        <time>2022-10-07T13:18:39Z</time>
      </trkpt>
      <trkpt lat="49.77577" lon="2.234">
        <ele>114.8</ele>
        <time>2022-10-07T13:18:40Z</time>
      </trkpt>
      <trkpt lat="49.77577" lon="2.234">
        <ele>114.8</ele>
        <time>2022-10-07T13:18:41Z</time>
      </trkpt>
      <trkpt lat="49.77577" lon="2.234">
        <ele>114.8</ele>
        <time>2022-10-07T13:18:42Z</time>
      </trkpt>
      <trkpt lat="49.77577" lon="2.234">
        <ele>114.8</ele>
        <time>2022-10-07T13:18:43Z</time>
      </trkpt>
      <trkpt lat="49.77577" lon="2.234">
        <ele>114.8</ele>
        <time>2022-10-07T13:18:44Z</time>
      </trkpt>
      <trkpt lat="49.77577" lon="2.234">
        <ele>114.8</ele>
        <time>2022-10-07T13:18:45Z</time>
      </trkpt>
      <trkpt lat="49.77577" lon="2.234">
        <ele>114.8</ele>
        <time>2022-10-07T13:18:46Z</time>
      </trkpt>
      <trkpt lat="49.77577" lon="2.234">
        <ele>114.8</ele>
        <time>2022-10-07T13:18:47Z</time>
      </trkpt>
      <trkpt lat="49.77577" lon="2.234">
        <ele>114.8</ele>
        <time>2022-10-07T13:18:48Z</time>
      </trkpt>
      <trkpt lat="49.77577" lon="2.234">
        <ele>114.8</ele>
        <time>2022-10-07T13:18:49Z</time>
      </trkpt>
      <trkpt lat="49.77577" lon="2.234">
        <ele>114.8</ele>
        <time>2022-10-07T13:18:50Z</time>
      </trkpt>
      <trkpt lat="49.77577" lon="2.234">
        <ele>114.8</ele>
        <time>2022-10-07T13:18:51Z</time>
      </trkpt>
      <trkpt lat="49.77577" lon="2.234">
        <ele>114.8</ele>
        <time>2022-10-07T13:18:52Z</time>
      </trkpt>
      <trkpt lat="49.77577" lon="2.234">
        <ele>114.8</ele>
        <time>2022-10-07T13:18:53Z</time>
      </trkpt>
      <trkpt lat="49.77577" lon="2.234">
        <ele>114.8</ele>
        <time>2022-10-07T13:18:54Z</time>
      </trkpt>
      <trkpt lat="49.77577" lon="2.234">
        <ele>114.8</ele>
        <time>2022-10-07T13:18:55Z</time>
      </trkpt>
      <trkpt lat="49.77577" lon="2.234">
        <ele>114.8</ele>
        <time>2022-10-07T13:18:56Z</time>
      </trkpt>
      <trkpt lat="49.77577" lon="2.234">
        <ele>114.8</ele>
        <time>2022-10-07T13:18:57Z</time>
      </trkpt>
      <trkpt lat="49.77576" lon="2.234">
        <ele>114.8</ele>
        <time>2022-10-07T13:18:58Z</time>
      </trkpt>
      <trkpt lat="49.77576" lon="2.234">
        <ele>114.8</ele>
        <time>2022-10-07T13:18:59Z</time>
      </trkpt>
      <trkpt lat="49.77576" lon="2.234">
        <ele>114.8</ele>
        <time>2022-10-07T13:19:00Z</time>
      </trkpt>
      <trkpt lat="49.77576" lon="2.234">
        <ele>114.8</ele>
        <time>2022-10-07T13:19:01Z</time>
      </trkpt>
      <trkpt lat="49.77576" lon="2.234">
        <ele>114.8</ele>
        <time>2022-10-07T13:19:02Z</time>
      </trkpt>
      <trkpt lat="49.77576" lon="2.234">
        <ele>114.8</ele>
        <time>2022-10-07T13:19:03Z</time>
      </trkpt>
      <trkpt lat="49.77576" lon="2.23399">
        <ele>114.8</ele>
        <time>2022-10-07T13:19:04Z</time>
      </trkpt>
      <trkpt lat="49.77576" lon="2.23399">
        <ele>114.8</ele>
        <time>2022-10-07T13:19:05Z</time>
      </trkpt>
      <trkpt lat="49.77576" lon="2.23399">
        <ele>114.8</ele>
        <time>2022-10-07T13:19:06Z</time>
      </trkpt>
      <trkpt lat="49.77576" lon="2.23399">
        <ele>114.8</ele>
        <time>2022-10-07T13:19:07Z</time>
      </trkpt>
      <trkpt lat="49.77576" lon="2.23399">
        <ele>114.8</ele>
        <time>2022-10-07T13:19:08Z</time>
      </trkpt>
      <trkpt lat="49.77576" lon="2.23399">
        <ele>114.8</ele>
        <time>2022-10-07T13:19:09Z</time>
      </trkpt>
      <trkpt lat="49.77575" lon="2.23399">
        <ele>114.8</ele>
        <time>2022-10-07T13:19:10Z</time>
      </trkpt>
      <trkpt lat="49.77575" lon="2.23399">
        <ele>114.8</ele>
        <time>2022-10-07T13:19:11Z</time>
      </trkpt>
      <trkpt lat="49.77575" lon="2.23399">
        <ele>114.8</ele>
        <time>2022-10-07T13:19:12Z</time>
      </trkpt>
      <trkpt lat="49.77575" lon="2.23399">
        <ele>114.8</ele>
        <time>2022-10-07T13:19:13Z</time>
      </trkpt>
      <trkpt lat="49.77575" lon="2.23399">
        <ele>114.8</ele>
        <time>2022-10-07T13:19:14Z</time>
      </trkpt>
      <trkpt lat="49.77575" lon="2.23399">
        <ele>114.8</ele>
        <time>2022-10-07T13:19:15Z</time>
      </trkpt>
      <trkpt lat="49.77575" lon="2.23399">
        <ele>114.8</ele>
        <time>2022-10-07T13:19:16Z</time>
      </trkpt>
      <trkpt lat="49.77575" lon="2.23399">
        <ele>114.8</ele>
        <time>2022-10-07T13:19:17Z</time>
      </trkpt>
      <trkpt lat="49.77575" lon="2.23399">
        <ele>114.8</ele>
        <time>2022-10-07T13:19:18Z</time>
      </trkpt>
      <trkpt lat="49.77575" lon="2.23399">
        <ele>114.8</ele>
        <time>2022-10-07T13:19:19Z</time>
      </trkpt>
      <trkpt lat="49.77575" lon="2.234">
        <ele>114.8</ele>
        <time>2022-10-07T13:19:20Z</time>
      </trkpt>
      <trkpt lat="49.77575" lon="2.234">
        <ele>114.8</ele>
        <time>2022-10-07T13:19:21Z</time>
      </trkpt>
      <trkpt lat="49.77575" lon="2.234">
        <ele>114.8</ele>
        <time>2022-10-07T13:19:23Z</time>
      </trkpt>
      <trkpt lat="49.77575" lon="2.234">
        <ele>114.8</ele>
        <time>2022-10-07T13:19:24Z</time>
      </trkpt>
      <trkpt lat="49.77575" lon="2.234">
        <ele>114.8</ele>
        <time>2022-10-07T13:19:25Z</time>
      </trkpt>
      <trkpt lat="49.77575" lon="2.234">
        <ele>114.8</ele>
        <time>2022-10-07T13:19:26Z</time>
      </trkpt>
      <trkpt lat="49.77575" lon="2.234">
        <ele>114.8</ele>
        <time>2022-10-07T13:19:27Z</time>
      </trkpt>
      <trkpt lat="49.77575" lon="2.23399">
        <ele>114.8</ele>
        <time>2022-10-07T13:19:28Z</time>
      </trkpt>
      <trkpt lat="49.77575" lon="2.23399">
        <ele>114.8</ele>
        <time>2022-10-07T13:19:29Z</time>
      </trkpt>
      <trkpt lat="49.77575" lon="2.23399">
        <ele>114.8</ele>
        <time>2022-10-07T13:19:30Z</time>
      </trkpt>
      <trkpt lat="49.77575" lon="2.23399">
        <ele>114.8</ele>
        <time>2022-10-07T13:19:31Z</time>
      </trkpt>
      <trkpt lat="49.77575" lon="2.23399">
        <ele>114.8</ele>
        <time>2022-10-07T13:19:32Z</time>
      </trkpt>
      <trkpt lat="49.77575" lon="2.23399">
        <ele>114.8</ele>
        <time>2022-10-07T13:19:33Z</time>
      </trkpt>
      <trkpt lat="49.77575" lon="2.23399">
        <ele>114.8</ele>
        <time>2022-10-07T13:19:34Z</time>
      </trkpt>
      <trkpt lat="49.77575" lon="2.234">
        <ele>114.8</ele>
        <time>2022-10-07T13:19:36Z</time>
      </trkpt>
      <trkpt lat="49.77576" lon="2.234">
        <ele>114.8</ele>
        <time>2022-10-07T13:19:37Z</time>
      </trkpt>
      <trkpt lat="49.77576" lon="2.234">
        <ele>114.8</ele>
        <time>2022-10-07T13:19:38Z</time>
      </trkpt>
      <trkpt lat="49.77576" lon="2.234">
        <ele>114.8</ele>
        <time>2022-10-07T13:19:39Z</time>
      </trkpt>
      <trkpt lat="49.77576" lon="2.234">
        <ele>114.8</ele>
        <time>2022-10-07T13:19:40Z</time>
      </trkpt>
      <trkpt lat="49.77576" lon="2.234">
        <ele>114.8</ele>
        <time>2022-10-07T13:19:41Z</time>
      </trkpt>
      <trkpt lat="49.77576" lon="2.234">
        <ele>114.8</ele>
        <time>2022-10-07T13:19:42Z</time>
      </trkpt>
      <trkpt lat="49.77576" lon="2.234">
        <ele>114.8</ele>
        <time>2022-10-07T13:19:43Z</time>
      </trkpt>
      <trkpt lat="49.77576" lon="2.234">
        <ele>114.8</ele>
        <time>2022-10-07T13:19:44Z</time>
      </trkpt>
      <trkpt lat="49.77576" lon="2.234">
        <ele>114.8</ele>
        <time>2022-10-07T13:19:45Z</time>
      </trkpt>
      <trkpt lat="49.77576" lon="2.234">
        <ele>114.8</ele>
        <time>2022-10-07T13:19:46Z</time>
      </trkpt>
      <trkpt lat="49.77576" lon="2.234">
        <ele>114.8</ele>
        <time>2022-10-07T13:19:47Z</time>
      </trkpt>
      <trkpt lat="49.77576" lon="2.234">
        <ele>114.8</ele>
        <time>2022-10-07T13:19:48Z</time>
      </trkpt>
      <trkpt lat="49.77576" lon="2.234">
        <ele>114.8</ele>
        <time>2022-10-07T13:19:49Z</time>
      </trkpt>
      <trkpt lat="49.77576" lon="2.234">
        <ele>114.8</ele>
        <time>2022-10-07T13:19:50Z</time>
      </trkpt>
      <trkpt lat="49.77576" lon="2.234">
        <ele>114.8</ele>
        <time>2022-10-07T13:19:51Z</time>
      </trkpt>
      <trkpt lat="49.77576" lon="2.234">
        <ele>114.8</ele>
        <time>2022-10-07T13:19:52Z</time>
      </trkpt>
      <trkpt lat="49.77576" lon="2.234">
        <ele>114.8</ele>
        <time>2022-10-07T13:19:53Z</time>
      </trkpt>
      <trkpt lat="49.77576" lon="2.234">
        <ele>114.8</ele>
        <time>2022-10-07T13:19:54Z</time>
      </trkpt>
      <trkpt lat="49.77576" lon="2.234">
        <ele>114.8</ele>
        <time>2022-10-07T13:19:55Z</time>
      </trkpt>
      <trkpt lat="49.77576" lon="2.234">
        <ele>114.8</ele>
        <time>2022-10-07T13:19:56Z</time>
      </trkpt>
      <trkpt lat="49.77576" lon="2.234">
        <ele>114.8</ele>
        <time>2022-10-07T13:19:57Z</time>
      </trkpt>
      <trkpt lat="49.77576" lon="2.234">
        <ele>114.8</ele>
        <time>2022-10-07T13:19:58Z</time>
      </trkpt>
      <trkpt lat="49.77576" lon="2.234">
        <ele>114.8</ele>
        <time>2022-10-07T13:19:59Z</time>
      </trkpt>
      <trkpt lat="49.77576" lon="2.234">
        <ele>114.8</ele>
        <time>2022-10-07T13:20:00Z</time>
      </trkpt>
      <trkpt lat="49.77576" lon="2.234">
        <ele>114.8</ele>
        <time>2022-10-07T13:20:01Z</time>
      </trkpt>
      <trkpt lat="49.77576" lon="2.234">
        <ele>114.8</ele>
        <time>2022-10-07T13:20:02Z</time>
      </trkpt>
      <trkpt lat="49.77576" lon="2.234">
        <ele>114.8</ele>
        <time>2022-10-07T13:20:03Z</time>
      </trkpt>
      <trkpt lat="49.77576" lon="2.234">
        <ele>114.8</ele>
        <time>2022-10-07T13:20:04Z</time>
      </trkpt>
      <trkpt lat="49.77576" lon="2.234">
        <ele>114.8</ele>
        <time>2022-10-07T13:20:05Z</time>
      </trkpt>
      <trkpt lat="49.77576" lon="2.234">
        <ele>114.8</ele>
        <time>2022-10-07T13:20:06Z</time>
      </trkpt>
      <trkpt lat="49.77576" lon="2.234">
        <ele>114.8</ele>
        <time>2022-10-07T13:20:07Z</time>
      </trkpt>
      <trkpt lat="49.77576" lon="2.234">
        <ele>114.8</ele>
        <time>2022-10-07T13:20:08Z</time>
      </trkpt>
      <trkpt lat="49.77576" lon="2.234">
        <ele>114.8</ele>
        <time>2022-10-07T13:20:09Z</time>
      </trkpt>
      <trkpt lat="49.77576" lon="2.234">
        <ele>114.8</ele>
        <time>2022-10-07T13:20:10Z</time>
      </trkpt>
      <trkpt lat="49.77576" lon="2.234">
        <ele>114.8</ele>
        <time>2022-10-07T13:20:11Z</time>
      </trkpt>
      <trkpt lat="49.77576" lon="2.234">
        <ele>114.8</ele>
        <time>2022-10-07T13:20:12Z</time>
      </trkpt>
      <trkpt lat="49.77576" lon="2.234">
        <ele>114.8</ele>
        <time>2022-10-07T13:20:13Z</time>
      </trkpt>
      <trkpt lat="49.77576" lon="2.234">
        <ele>114.8</ele>
        <time>2022-10-07T13:20:14Z</time>
      </trkpt>
      <trkpt lat="49.77576" lon="2.234">
        <ele>114.8</ele>
        <time>2022-10-07T13:20:15Z</time>
      </trkpt>
      <trkpt lat="49.77576" lon="2.234">
        <ele>114.8</ele>
        <time>2022-10-07T13:20:16Z</time>
      </trkpt>
      <trkpt lat="49.77576" lon="2.234">
        <ele>114.8</ele>
        <time>2022-10-07T13:20:17Z</time>
      </trkpt>
      <trkpt lat="49.77576" lon="2.234">
        <ele>114.8</ele>
        <time>2022-10-07T13:20:18Z</time>
      </trkpt>
      <trkpt lat="49.77576" lon="2.234">
        <ele>114.8</ele>
        <time>2022-10-07T13:20:19Z</time>
      </trkpt>
      <trkpt lat="49.77576" lon="2.234">
        <ele>114.8</ele>
        <time>2022-10-07T13:20:20Z</time>
      </trkpt>
      <trkpt lat="49.77576" lon="2.234">
        <ele>114.8</ele>
        <time>2022-10-07T13:20:21Z</time>
      </trkpt>
      <trkpt lat="49.77576" lon="2.234">
        <ele>114.8</ele>
        <time>2022-10-07T13:20:22Z</time>
      </trkpt>
      <trkpt lat="49.77576" lon="2.234">
        <ele>114.8</ele>
        <time>2022-10-07T13:20:23Z</time>
      </trkpt>
      <trkpt lat="49.77576" lon="2.234">
        <ele>114.8</ele>
        <time>2022-10-07T13:20:24Z</time>
      </trkpt>
      <trkpt lat="49.77576" lon="2.234">
        <ele>114.8</ele>
        <time>2022-10-07T13:20:25Z</time>
      </trkpt>
      <trkpt lat="49.77576" lon="2.234">
        <ele>114.8</ele>
        <time>2022-10-07T13:20:26Z</time>
      </trkpt>
      <trkpt lat="49.77576" lon="2.234">
        <ele>114.8</ele>
        <time>2022-10-07T13:20:27Z</time>
      </trkpt>
      <trkpt lat="49.77576" lon="2.234">
        <ele>114.8</ele>
        <time>2022-10-07T13:20:28Z</time>
      </trkpt>
      <trkpt lat="49.77576" lon="2.234">
        <ele>114.8</ele>
        <time>2022-10-07T13:20:29Z</time>
      </trkpt>
      <trkpt lat="49.77576" lon="2.23399">
        <ele>114.8</ele>
        <time>2022-10-07T13:20:30Z</time>
      </trkpt>
      <trkpt lat="49.77576" lon="2.23399">
        <ele>114.8</ele>
        <time>2022-10-07T13:20:31Z</time>
      </trkpt>
      <trkpt lat="49.77576" lon="2.234">
        <ele>114.8</ele>
        <time>2022-10-07T13:20:32Z</time>
      </trkpt>
      <trkpt lat="49.77576" lon="2.234">
        <ele>114.8</ele>
        <time>2022-10-07T13:20:33Z</time>
      </trkpt>
      <trkpt lat="49.77576" lon="2.234">
        <ele>114.8</ele>
        <time>2022-10-07T13:20:34Z</time>
      </trkpt>
      <trkpt lat="49.77576" lon="2.234">
        <ele>114.8</ele>
        <time>2022-10-07T13:20:35Z</time>
      </trkpt>
      <trkpt lat="49.77576" lon="2.234">
        <ele>114.8</ele>
        <time>2022-10-07T13:20:36Z</time>
      </trkpt>
      <trkpt lat="49.77576" lon="2.234">
        <ele>114.8</ele>
        <time>2022-10-07T13:20:37Z</time>
      </trkpt>
      <trkpt lat="49.77576" lon="2.234">
        <ele>114.8</ele>
        <time>2022-10-07T13:20:38Z</time>
      </trkpt>
      <trkpt lat="49.77576" lon="2.234">
        <ele>114.8</ele>
        <time>2022-10-07T13:20:39Z</time>
      </trkpt>
      <trkpt lat="49.77576" lon="2.234">
        <ele>114.8</ele>
        <time>2022-10-07T13:20:40Z</time>
      </trkpt>
      <trkpt lat="49.77576" lon="2.234">
        <ele>114.8</ele>
        <time>2022-10-07T13:20:41Z</time>
      </trkpt>
      <trkpt lat="49.77576" lon="2.234">
        <ele>114.8</ele>
        <time>2022-10-07T13:20:42Z</time>
      </trkpt>
      <trkpt lat="49.77576" lon="2.234">
        <ele>114.8</ele>
        <time>2022-10-07T13:20:43Z</time>
      </trkpt>
      <trkpt lat="49.77576" lon="2.234">
        <ele>114.8</ele>
        <time>2022-10-07T13:20:44Z</time>
      </trkpt>
      <trkpt lat="49.77576" lon="2.234">
        <ele>114.8</ele>
        <time>2022-10-07T13:20:45Z</time>
      </trkpt>
      <trkpt lat="49.77576" lon="2.234">
        <ele>114.8</ele>
        <time>2022-10-07T13:20:46Z</time>
      </trkpt>
      <trkpt lat="49.77575" lon="2.234">
        <ele>114.8</ele>
        <time>2022-10-07T13:20:47Z</time>
      </trkpt>
      <trkpt lat="49.77576" lon="2.234">
        <ele>114.8</ele>
        <time>2022-10-07T13:20:48Z</time>
      </trkpt>
      <trkpt lat="49.77578" lon="2.23401">
        <ele>114.8</ele>
        <time>2022-10-07T13:20:49Z</time>
      </trkpt>
      <trkpt lat="49.77578" lon="2.23401">
        <ele>114.8</ele>
        <time>2022-10-07T13:20:50Z</time>
      </trkpt>
      <trkpt lat="49.77579" lon="2.23402">
        <ele>114.8</ele>
        <time>2022-10-07T13:20:51Z</time>
      </trkpt>
      <trkpt lat="49.7758" lon="2.23403">
        <ele>114.8</ele>
        <time>2022-10-07T13:20:52Z</time>
      </trkpt>
      <trkpt lat="49.77581" lon="2.23403">
        <ele>114.8</ele>
        <time>2022-10-07T13:20:54Z</time>
      </trkpt>
      <trkpt lat="49.77583" lon="2.23403">
        <ele>114.8</ele>
        <time>2022-10-07T13:20:55Z</time>
      </trkpt>
      <trkpt lat="49.77584" lon="2.23403">
        <ele>114.8</ele>
        <time>2022-10-07T13:20:56Z</time>
      </trkpt>
      <trkpt lat="49.77585" lon="2.23402">
        <ele>114.7</ele>
        <time>2022-10-07T13:20:57Z</time>
      </trkpt>
      <trkpt lat="49.77587" lon="2.23402">
        <ele>114.7</ele>
        <time>2022-10-07T13:20:58Z</time>
      </trkpt>
      <trkpt lat="49.77589" lon="2.23402">
        <ele>114.7</ele>
        <time>2022-10-07T13:20:59Z</time>
      </trkpt>
      <trkpt lat="49.7759" lon="2.23403">
        <ele>114.7</ele>
        <time>2022-10-07T13:21:00Z</time>
      </trkpt>
      <trkpt lat="49.77592" lon="2.23403">
        <ele>114.6</ele>
        <time>2022-10-07T13:21:01Z</time>
      </trkpt>
      <trkpt lat="49.77593" lon="2.23404">
        <ele>114.6</ele>
        <time>2022-10-07T13:21:02Z</time>
      </trkpt>
      <trkpt lat="49.77594" lon="2.23404">
        <ele>114.6</ele>
        <time>2022-10-07T13:21:03Z</time>
      </trkpt>
      <trkpt lat="49.77596" lon="2.23404">
        <ele>114.5</ele>
        <time>2022-10-07T13:21:05Z</time>
      </trkpt>
      <trkpt lat="49.77598" lon="2.23404">
        <ele>114.5</ele>
        <time>2022-10-07T13:21:06Z</time>
      </trkpt>
      <trkpt lat="49.776" lon="2.23404">
        <ele>114.5</ele>
        <time>2022-10-07T13:21:07Z</time>
      </trkpt>
      <trkpt lat="49.77601" lon="2.23404">
        <ele>114.4</ele>
        <time>2022-10-07T13:21:08Z</time>
      </trkpt>
      <trkpt lat="49.77603" lon="2.23404">
        <ele>114.4</ele>
        <time>2022-10-07T13:21:09Z</time>
      </trkpt>
      <trkpt lat="49.77606" lon="2.23404">
        <ele>114.3</ele>
        <time>2022-10-07T13:21:10Z</time>
      </trkpt>
      <trkpt lat="49.77607" lon="2.23404">
        <ele>114.3</ele>
        <time>2022-10-07T13:21:12Z</time>
      </trkpt>
      <trkpt lat="49.77608" lon="2.23404">
        <ele>114.3</ele>
        <time>2022-10-07T13:21:13Z</time>
      </trkpt>
      <trkpt lat="49.77609" lon="2.23404">
        <ele>114.3</ele>
        <time>2022-10-07T13:21:14Z</time>
      </trkpt>
      <trkpt lat="49.7761" lon="2.23404">
        <ele>114.3</ele>
        <time>2022-10-07T13:21:15Z</time>
      </trkpt>
      <trkpt lat="49.77613" lon="2.23404">
        <ele>114.2</ele>
        <time>2022-10-07T13:21:16Z</time>
      </trkpt>
      <trkpt lat="49.77614" lon="2.23404">
        <ele>114.2</ele>
        <time>2022-10-07T13:21:17Z</time>
      </trkpt>
      <trkpt lat="49.77616" lon="2.23404">
        <ele>114.1</ele>
        <time>2022-10-07T13:21:18Z</time>
      </trkpt>
      <trkpt lat="49.77619" lon="2.23403">
        <ele>114.1</ele>
        <time>2022-10-07T13:21:20Z</time>
      </trkpt>
      <trkpt lat="49.7762" lon="2.23403">
        <ele>114.1</ele>
        <time>2022-10-07T13:21:21Z</time>
      </trkpt>
      <trkpt lat="49.77621" lon="2.23403">
        <ele>114.1</ele>
        <time>2022-10-07T13:21:22Z</time>
      </trkpt>
      <trkpt lat="49.77623" lon="2.23403">
        <ele>114</ele>
        <time>2022-10-07T13:21:23Z</time>
      </trkpt>
      <trkpt lat="49.77624" lon="2.23403">
        <ele>114</ele>
        <time>2022-10-07T13:21:24Z</time>
      </trkpt>
      <trkpt lat="49.77625" lon="2.23403">
        <ele>114</ele>
        <time>2022-10-07T13:21:25Z</time>
      </trkpt>
      <trkpt lat="49.77627" lon="2.23403">
        <ele>114</ele>
        <time>2022-10-07T13:21:26Z</time>
      </trkpt>
      <trkpt lat="49.77629" lon="2.23403">
        <ele>114</ele>
        <time>2022-10-07T13:21:27Z</time>
      </trkpt>
      <trkpt lat="49.77631" lon="2.23403">
        <ele>113.9</ele>
        <time>2022-10-07T13:21:28Z</time>
      </trkpt>
      <trkpt lat="49.77632" lon="2.23403">
        <ele>113.9</ele>
        <time>2022-10-07T13:21:30Z</time>
      </trkpt>
      <trkpt lat="49.77634" lon="2.23403">
        <ele>113.9</ele>
        <time>2022-10-07T13:21:31Z</time>
      </trkpt>
      <trkpt lat="49.77635" lon="2.23403">
        <ele>113.9</ele>
        <time>2022-10-07T13:21:32Z</time>
      </trkpt>
      <trkpt lat="49.77637" lon="2.23403">
        <ele>113.8</ele>
        <time>2022-10-07T13:21:33Z</time>
      </trkpt>
      <trkpt lat="49.77638" lon="2.23403">
        <ele>113.8</ele>
        <time>2022-10-07T13:21:34Z</time>
      </trkpt>
      <trkpt lat="49.7764" lon="2.23403">
        <ele>113.8</ele>
        <time>2022-10-07T13:21:36Z</time>
      </trkpt>
      <trkpt lat="49.77641" lon="2.23403">
        <ele>113.7</ele>
        <time>2022-10-07T13:21:37Z</time>
      </trkpt>
      <trkpt lat="49.77642" lon="2.23403">
        <ele>113.7</ele>
        <time>2022-10-07T13:21:38Z</time>
      </trkpt>
      <trkpt lat="49.77644" lon="2.23403">
        <ele>113.7</ele>
        <time>2022-10-07T13:21:39Z</time>
      </trkpt>
      <trkpt lat="49.77645" lon="2.23403">
        <ele>113.6</ele>
        <time>2022-10-07T13:21:40Z</time>
      </trkpt>
      <trkpt lat="49.77645" lon="2.23403">
        <ele>113.6</ele>
        <time>2022-10-07T13:21:41Z</time>
      </trkpt>
      <trkpt lat="49.77647" lon="2.23403">
        <ele>113.6</ele>
        <time>2022-10-07T13:21:43Z</time>
      </trkpt>
      <trkpt lat="49.77649" lon="2.23402">
        <ele>113.5</ele>
        <time>2022-10-07T13:21:44Z</time>
      </trkpt>
      <trkpt lat="49.7765" lon="2.23401">
        <ele>113.5</ele>
        <time>2022-10-07T13:21:45Z</time>
      </trkpt>
      <trkpt lat="49.77651" lon="2.23401">
        <ele>113.4</ele>
        <time>2022-10-07T13:21:47Z</time>
      </trkpt>
      <trkpt lat="49.77653" lon="2.23401">
        <ele>113.3</ele>
        <time>2022-10-07T13:21:48Z</time>
      </trkpt>
      <trkpt lat="49.77654" lon="2.23401">
        <ele>113.3</ele>
        <time>2022-10-07T13:21:49Z</time>
      </trkpt>
      <trkpt lat="49.77655" lon="2.23401">
        <ele>113.2</ele>
        <time>2022-10-07T13:21:50Z</time>
      </trkpt>
      <trkpt lat="49.77656" lon="2.23401">
        <ele>113.2</ele>
        <time>2022-10-07T13:21:51Z</time>
      </trkpt>
      <trkpt lat="49.77657" lon="2.23401">
        <ele>113.2</ele>
        <time>2022-10-07T13:21:52Z</time>
      </trkpt>
      <trkpt lat="49.77658" lon="2.23401">
        <ele>113.1</ele>
        <time>2022-10-07T13:21:53Z</time>
      </trkpt>
      <trkpt lat="49.7766" lon="2.23401">
        <ele>113</ele>
        <time>2022-10-07T13:21:54Z</time>
      </trkpt>
      <trkpt lat="49.77662" lon="2.23401">
        <ele>113</ele>
        <time>2022-10-07T13:21:56Z</time>
      </trkpt>
      <trkpt lat="49.77663" lon="2.23401">
        <ele>112.9</ele>
        <time>2022-10-07T13:21:57Z</time>
      </trkpt>
      <trkpt lat="49.77664" lon="2.23401">
        <ele>112.9</ele>
        <time>2022-10-07T13:21:58Z</time>
      </trkpt>
      <trkpt lat="49.77665" lon="2.23401">
        <ele>112.8</ele>
        <time>2022-10-07T13:21:59Z</time>
      </trkpt>
      <trkpt lat="49.77667" lon="2.23402">
        <ele>112.8</ele>
        <time>2022-10-07T13:22:00Z</time>
      </trkpt>
      <trkpt lat="49.77668" lon="2.23402">
        <ele>112.7</ele>
        <time>2022-10-07T13:22:01Z</time>
      </trkpt>
      <trkpt lat="49.77669" lon="2.23402">
        <ele>112.7</ele>
        <time>2022-10-07T13:22:03Z</time>
      </trkpt>
      <trkpt lat="49.7767" lon="2.23402">
        <ele>112.6</ele>
        <time>2022-10-07T13:22:04Z</time>
      </trkpt>
      <trkpt lat="49.77671" lon="2.23402">
        <ele>112.6</ele>
        <time>2022-10-07T13:22:05Z</time>
      </trkpt>
      <trkpt lat="49.77672" lon="2.23402">
        <ele>112.6</ele>
        <time>2022-10-07T13:22:06Z</time>
      </trkpt>
      <trkpt lat="49.77673" lon="2.23402">
        <ele>112.5</ele>
        <time>2022-10-07T13:22:07Z</time>
      </trkpt>
      <trkpt lat="49.77675" lon="2.23403">
        <ele>112.4</ele>
        <time>2022-10-07T13:22:08Z</time>
      </trkpt>
      <trkpt lat="49.77676" lon="2.23403">
        <ele>112.4</ele>
        <time>2022-10-07T13:22:09Z</time>
      </trkpt>
      <trkpt lat="49.77676" lon="2.23403">
        <ele>112.4</ele>
        <time>2022-10-07T13:22:10Z</time>
      </trkpt>
      <trkpt lat="49.77679" lon="2.23404">
        <ele>112.3</ele>
        <time>2022-10-07T13:22:11Z</time>
      </trkpt>
      <trkpt lat="49.7768" lon="2.23404">
        <ele>112.2</ele>
        <time>2022-10-07T13:22:12Z</time>
      </trkpt>
      <trkpt lat="49.77681" lon="2.23404">
        <ele>112.2</ele>
        <time>2022-10-07T13:22:13Z</time>
      </trkpt>
      <trkpt lat="49.77681" lon="2.23404">
        <ele>112.2</ele>
        <time>2022-10-07T13:22:15Z</time>
      </trkpt>
      <trkpt lat="49.77682" lon="2.23404">
        <ele>112.1</ele>
        <time>2022-10-07T13:22:16Z</time>
      </trkpt>
      <trkpt lat="49.77683" lon="2.23405">
        <ele>112.1</ele>
        <time>2022-10-07T13:22:17Z</time>
      </trkpt>
      <trkpt lat="49.77684" lon="2.23405">
        <ele>112.1</ele>
        <time>2022-10-07T13:22:18Z</time>
      </trkpt>
      <trkpt lat="49.77686" lon="2.23405">
        <ele>112</ele>
        <time>2022-10-07T13:22:19Z</time>
      </trkpt>
      <trkpt lat="49.77687" lon="2.23405">
        <ele>112</ele>
        <time>2022-10-07T13:22:20Z</time>
      </trkpt>
      <trkpt lat="49.77689" lon="2.23405">
        <ele>111.9</ele>
        <time>2022-10-07T13:22:21Z</time>
      </trkpt>
      <trkpt lat="49.7769" lon="2.23406">
        <ele>111.8</ele>
        <time>2022-10-07T13:22:22Z</time>
      </trkpt>
      <trkpt lat="49.77691" lon="2.23406">
        <ele>111.8</ele>
        <time>2022-10-07T13:22:23Z</time>
      </trkpt>
      <trkpt lat="49.77692" lon="2.23406">
        <ele>111.8</ele>
        <time>2022-10-07T13:22:24Z</time>
      </trkpt>
      <trkpt lat="49.77693" lon="2.23406">
        <ele>111.7</ele>
        <time>2022-10-07T13:22:26Z</time>
      </trkpt>
      <trkpt lat="49.77694" lon="2.23406">
        <ele>111.7</ele>
        <time>2022-10-07T13:22:27Z</time>
      </trkpt>
      <trkpt lat="49.77695" lon="2.23406">
        <ele>111.6</ele>
        <time>2022-10-07T13:22:28Z</time>
      </trkpt>
      <trkpt lat="49.77696" lon="2.23406">
        <ele>111.6</ele>
        <time>2022-10-07T13:22:29Z</time>
      </trkpt>
      <trkpt lat="49.77697" lon="2.23406">
        <ele>111.6</ele>
        <time>2022-10-07T13:22:30Z</time>
      </trkpt>
      <trkpt lat="49.77699" lon="2.23407">
        <ele>111.5</ele>
        <time>2022-10-07T13:22:31Z</time>
      </trkpt>
      <trkpt lat="49.777" lon="2.23407">
        <ele>111.5</ele>
        <time>2022-10-07T13:22:32Z</time>
      </trkpt>
      <trkpt lat="49.77701" lon="2.23407">
        <ele>111.5</ele>
        <time>2022-10-07T13:22:33Z</time>
      </trkpt>
      <trkpt lat="49.77704" lon="2.23408">
        <ele>111.4</ele>
        <time>2022-10-07T13:22:34Z</time>
      </trkpt>
      <trkpt lat="49.77705" lon="2.23408">
        <ele>111.4</ele>
        <time>2022-10-07T13:22:36Z</time>
      </trkpt>
      <trkpt lat="49.77706" lon="2.23408">
        <ele>111.3</ele>
        <time>2022-10-07T13:22:37Z</time>
      </trkpt>
      <trkpt lat="49.77707" lon="2.23409">
        <ele>111.3</ele>
        <time>2022-10-07T13:22:38Z</time>
      </trkpt>
      <trkpt lat="49.77708" lon="2.23409">
        <ele>111.3</ele>
        <time>2022-10-07T13:22:39Z</time>
      </trkpt>
      <trkpt lat="49.7771" lon="2.23409">
        <ele>111.3</ele>
        <time>2022-10-07T13:22:40Z</time>
      </trkpt>
      <trkpt lat="49.77711" lon="2.23409">
        <ele>111.2</ele>
        <time>2022-10-07T13:22:41Z</time>
      </trkpt>
      <trkpt lat="49.77712" lon="2.23409">
        <ele>111.2</ele>
        <time>2022-10-07T13:22:42Z</time>
      </trkpt>
      <trkpt lat="49.77713" lon="2.23409">
        <ele>111.2</ele>
        <time>2022-10-07T13:22:43Z</time>
      </trkpt>
      <trkpt lat="49.77714" lon="2.23409">
        <ele>111.2</ele>
        <time>2022-10-07T13:22:44Z</time>
      </trkpt>
      <trkpt lat="49.77715" lon="2.23409">
        <ele>111.2</ele>
        <time>2022-10-07T13:22:45Z</time>
      </trkpt>
      <trkpt lat="49.77717" lon="2.23409">
        <ele>111.2</ele>
        <time>2022-10-07T13:22:47Z</time>
      </trkpt>
      <trkpt lat="49.77718" lon="2.23409">
        <ele>111.1</ele>
        <time>2022-10-07T13:22:48Z</time>
      </trkpt>
      <trkpt lat="49.7772" lon="2.23409">
        <ele>111.1</ele>
        <time>2022-10-07T13:22:49Z</time>
      </trkpt>
      <trkpt lat="49.77721" lon="2.23409">
        <ele>111.1</ele>
        <time>2022-10-07T13:22:50Z</time>
      </trkpt>
      <trkpt lat="49.77722" lon="2.23409">
        <ele>111.1</ele>
        <time>2022-10-07T13:22:51Z</time>
      </trkpt>
      <trkpt lat="49.77723" lon="2.2341">
        <ele>111</ele>
        <time>2022-10-07T13:22:52Z</time>
      </trkpt>
      <trkpt lat="49.77725" lon="2.2341">
        <ele>111</ele>
        <time>2022-10-07T13:22:53Z</time>
      </trkpt>
      <trkpt lat="49.77727" lon="2.2341">
        <ele>111</ele>
        <time>2022-10-07T13:22:54Z</time>
      </trkpt>
      <trkpt lat="49.77728" lon="2.23411">
        <ele>111</ele>
        <time>2022-10-07T13:22:55Z</time>
      </trkpt>
      <trkpt lat="49.77729" lon="2.23411">
        <ele>111</ele>
        <time>2022-10-07T13:22:56Z</time>
      </trkpt>
      <trkpt lat="49.7773" lon="2.23411">
        <ele>110.9</ele>
        <time>2022-10-07T13:22:57Z</time>
      </trkpt>
      <trkpt lat="49.77732" lon="2.23411">
        <ele>110.9</ele>
        <time>2022-10-07T13:22:59Z</time>
      </trkpt>
      <trkpt lat="49.77734" lon="2.23411">
        <ele>110.9</ele>
        <time>2022-10-07T13:23:00Z</time>
      </trkpt>
      <trkpt lat="49.77735" lon="2.23411">
        <ele>110.9</ele>
        <time>2022-10-07T13:23:01Z</time>
      </trkpt>
      <trkpt lat="49.77736" lon="2.23411">
        <ele>110.9</ele>
        <time>2022-10-07T13:23:02Z</time>
      </trkpt>
      <trkpt lat="49.77739" lon="2.23412">
        <ele>110.8</ele>
        <time>2022-10-07T13:23:03Z</time>
      </trkpt>
      <trkpt lat="49.7774" lon="2.23412">
        <ele>110.8</ele>
        <time>2022-10-07T13:23:04Z</time>
      </trkpt>
      <trkpt lat="49.77741" lon="2.23413">
        <ele>110.8</ele>
        <time>2022-10-07T13:23:05Z</time>
      </trkpt>
      <trkpt lat="49.77742" lon="2.23413">
        <ele>110.8</ele>
        <time>2022-10-07T13:23:06Z</time>
      </trkpt>
      <trkpt lat="49.77743" lon="2.23414">
        <ele>110.8</ele>
        <time>2022-10-07T13:23:07Z</time>
      </trkpt>
      <trkpt lat="49.77746" lon="2.23415">
        <ele>110.8</ele>
        <time>2022-10-07T13:23:09Z</time>
      </trkpt>
      <trkpt lat="49.77746" lon="2.23415">
        <ele>110.7</ele>
        <time>2022-10-07T13:23:10Z</time>
      </trkpt>
      <trkpt lat="49.77747" lon="2.23415">
        <ele>110.7</ele>
        <time>2022-10-07T13:23:11Z</time>
      </trkpt>
      <trkpt lat="49.77749" lon="2.23415">
        <ele>110.7</ele>
        <time>2022-10-07T13:23:12Z</time>
      </trkpt>
      <trkpt lat="49.7775" lon="2.23416">
        <ele>110.7</ele>
        <time>2022-10-07T13:23:13Z</time>
      </trkpt>
      <trkpt lat="49.77752" lon="2.23416">
        <ele>110.7</ele>
        <time>2022-10-07T13:23:14Z</time>
      </trkpt>
      <trkpt lat="49.77753" lon="2.23416">
        <ele>110.7</ele>
        <time>2022-10-07T13:23:15Z</time>
      </trkpt>
      <trkpt lat="49.77754" lon="2.23416">
        <ele>110.7</ele>
        <time>2022-10-07T13:23:16Z</time>
      </trkpt>
      <trkpt lat="49.77755" lon="2.23416">
        <ele>110.7</ele>
        <time>2022-10-07T13:23:17Z</time>
      </trkpt>
      <trkpt lat="49.77756" lon="2.23416">
        <ele>110.7</ele>
        <time>2022-10-07T13:23:18Z</time>
      </trkpt>
      <trkpt lat="49.77758" lon="2.23416">
        <ele>110.7</ele>
        <time>2022-10-07T13:23:20Z</time>
      </trkpt>
      <trkpt lat="49.7776" lon="2.23416">
        <ele>110.7</ele>
        <time>2022-10-07T13:23:21Z</time>
      </trkpt>
      <trkpt lat="49.77761" lon="2.23416">
        <ele>110.7</ele>
        <time>2022-10-07T13:23:22Z</time>
      </trkpt>
      <trkpt lat="49.77763" lon="2.23416">
        <ele>110.7</ele>
        <time>2022-10-07T13:23:24Z</time>
      </trkpt>
      <trkpt lat="49.77764" lon="2.23416">
        <ele>110.7</ele>
        <time>2022-10-07T13:23:25Z</time>
      </trkpt>
      <trkpt lat="49.77765" lon="2.23416">
        <ele>110.7</ele>
        <time>2022-10-07T13:23:26Z</time>
      </trkpt>
      <trkpt lat="49.77766" lon="2.23416">
        <ele>110.7</ele>
        <time>2022-10-07T13:23:27Z</time>
      </trkpt>
      <trkpt lat="49.77768" lon="2.23416">
        <ele>110.7</ele>
        <time>2022-10-07T13:23:29Z</time>
      </trkpt>
      <trkpt lat="49.77769" lon="2.23416">
        <ele>110.7</ele>
        <time>2022-10-07T13:23:30Z</time>
      </trkpt>
      <trkpt lat="49.7777" lon="2.23416">
        <ele>110.7</ele>
        <time>2022-10-07T13:23:31Z</time>
      </trkpt>
      <trkpt lat="49.77772" lon="2.23415">
        <ele>110.7</ele>
        <time>2022-10-07T13:23:32Z</time>
      </trkpt>
      <trkpt lat="49.77773" lon="2.23416">
        <ele>110.7</ele>
        <time>2022-10-07T13:23:33Z</time>
      </trkpt>
      <trkpt lat="49.77775" lon="2.23416">
        <ele>110.7</ele>
        <time>2022-10-07T13:23:34Z</time>
      </trkpt>
      <trkpt lat="49.77775" lon="2.23416">
        <ele>110.7</ele>
        <time>2022-10-07T13:23:35Z</time>
      </trkpt>
      <trkpt lat="49.77776" lon="2.23417">
        <ele>110.7</ele>
        <time>2022-10-07T13:23:36Z</time>
      </trkpt>
      <trkpt lat="49.77778" lon="2.23417">
        <ele>110.7</ele>
        <time>2022-10-07T13:23:38Z</time>
      </trkpt>
      <trkpt lat="49.77779" lon="2.23418">
        <ele>110.7</ele>
        <time>2022-10-07T13:23:39Z</time>
      </trkpt>
      <trkpt lat="49.7778" lon="2.23418">
        <ele>110.7</ele>
        <time>2022-10-07T13:23:40Z</time>
      </trkpt>
      <trkpt lat="49.77781" lon="2.23419">
        <ele>110.7</ele>
        <time>2022-10-07T13:23:41Z</time>
      </trkpt>
      <trkpt lat="49.77782" lon="2.23419">
        <ele>110.7</ele>
        <time>2022-10-07T13:23:42Z</time>
      </trkpt>
      <trkpt lat="49.77783" lon="2.23419">
        <ele>110.7</ele>
        <time>2022-10-07T13:23:43Z</time>
      </trkpt>
      <trkpt lat="49.77784" lon="2.2342">
        <ele>110.6</ele>
        <time>2022-10-07T13:23:44Z</time>
      </trkpt>
      <trkpt lat="49.77786" lon="2.2342">
        <ele>110.6</ele>
        <time>2022-10-07T13:23:45Z</time>
      </trkpt>
      <trkpt lat="49.77787" lon="2.2342">
        <ele>110.6</ele>
        <time>2022-10-07T13:23:47Z</time>
      </trkpt>
      <trkpt lat="49.77788" lon="2.23421">
        <ele>110.6</ele>
        <time>2022-10-07T13:23:48Z</time>
      </trkpt>
      <trkpt lat="49.7779" lon="2.23421">
        <ele>110.6</ele>
        <time>2022-10-07T13:23:49Z</time>
      </trkpt>
      <trkpt lat="49.77791" lon="2.23421">
        <ele>110.6</ele>
        <time>2022-10-07T13:23:50Z</time>
      </trkpt>
      <trkpt lat="49.77793" lon="2.23421">
        <ele>110.5</ele>
        <time>2022-10-07T13:23:52Z</time>
      </trkpt>
      <trkpt lat="49.77794" lon="2.23421">
        <ele>110.5</ele>
        <time>2022-10-07T13:23:53Z</time>
      </trkpt>
      <trkpt lat="49.77795" lon="2.23421">
        <ele>110.5</ele>
        <time>2022-10-07T13:23:54Z</time>
      </trkpt>
      <trkpt lat="49.77796" lon="2.23421">
        <ele>110.5</ele>
        <time>2022-10-07T13:23:55Z</time>
      </trkpt>
      <trkpt lat="49.77797" lon="2.23421">
        <ele>110.5</ele>
        <time>2022-10-07T13:23:56Z</time>
      </trkpt>
      <trkpt lat="49.77797" lon="2.23421">
        <ele>110.4</ele>
        <time>2022-10-07T13:23:57Z</time>
      </trkpt>
      <trkpt lat="49.77799" lon="2.23421">
        <ele>110.4</ele>
        <time>2022-10-07T13:23:58Z</time>
      </trkpt>
      <trkpt lat="49.77801" lon="2.23421">
        <ele>110.4</ele>
        <time>2022-10-07T13:23:59Z</time>
      </trkpt>
      <trkpt lat="49.77802" lon="2.2342">
        <ele>110.4</ele>
        <time>2022-10-07T13:24:00Z</time>
      </trkpt>
      <trkpt lat="49.77803" lon="2.2342">
        <ele>110.3</ele>
        <time>2022-10-07T13:24:01Z</time>
      </trkpt>
      <trkpt lat="49.77804" lon="2.2342">
        <ele>110.3</ele>
        <time>2022-10-07T13:24:02Z</time>
      </trkpt>
      <trkpt lat="49.77805" lon="2.2342">
        <ele>110.3</ele>
        <time>2022-10-07T13:24:03Z</time>
      </trkpt>
      <trkpt lat="49.77807" lon="2.2342">
        <ele>110.3</ele>
        <time>2022-10-07T13:24:04Z</time>
      </trkpt>
      <trkpt lat="49.77808" lon="2.2342">
        <ele>110.2</ele>
        <time>2022-10-07T13:24:06Z</time>
      </trkpt>
      <trkpt lat="49.7781" lon="2.2342">
        <ele>110.2</ele>
        <time>2022-10-07T13:24:07Z</time>
      </trkpt>
      <trkpt lat="49.77811" lon="2.2342">
        <ele>110.2</ele>
        <time>2022-10-07T13:24:08Z</time>
      </trkpt>
      <trkpt lat="49.77811" lon="2.2342">
        <ele>110.2</ele>
        <time>2022-10-07T13:24:09Z</time>
      </trkpt>
      <trkpt lat="49.77812" lon="2.2342">
        <ele>110.2</ele>
        <time>2022-10-07T13:24:10Z</time>
      </trkpt>
      <trkpt lat="49.77813" lon="2.23421">
        <ele>110.1</ele>
        <time>2022-10-07T13:24:11Z</time>
      </trkpt>
      <trkpt lat="49.77814" lon="2.23421">
        <ele>110.1</ele>
        <time>2022-10-07T13:24:12Z</time>
      </trkpt>
      <trkpt lat="49.77816" lon="2.23421">
        <ele>110.1</ele>
        <time>2022-10-07T13:24:13Z</time>
      </trkpt>
      <trkpt lat="49.77817" lon="2.23421">
        <ele>110.1</ele>
        <time>2022-10-07T13:24:14Z</time>
      </trkpt>
      <trkpt lat="49.77818" lon="2.23421">
        <ele>110.1</ele>
        <time>2022-10-07T13:24:15Z</time>
      </trkpt>
      <trkpt lat="49.77819" lon="2.23421">
        <ele>110</ele>
        <time>2022-10-07T13:24:16Z</time>
      </trkpt>
      <trkpt lat="49.7782" lon="2.23422">
        <ele>110</ele>
        <time>2022-10-07T13:24:17Z</time>
      </trkpt>
      <trkpt lat="49.77821" lon="2.23422">
        <ele>110</ele>
        <time>2022-10-07T13:24:18Z</time>
      </trkpt>
      <trkpt lat="49.77822" lon="2.23422">
        <ele>110</ele>
        <time>2022-10-07T13:24:19Z</time>
      </trkpt>
      <trkpt lat="49.77823" lon="2.23423">
        <ele>110</ele>
        <time>2022-10-07T13:24:20Z</time>
      </trkpt>
      <trkpt lat="49.77826" lon="2.23423">
        <ele>109.9</ele>
        <time>2022-10-07T13:24:21Z</time>
      </trkpt>
      <trkpt lat="49.77826" lon="2.23424">
        <ele>109.9</ele>
        <time>2022-10-07T13:24:23Z</time>
      </trkpt>
      <trkpt lat="49.77827" lon="2.23424">
        <ele>109.9</ele>
        <time>2022-10-07T13:24:24Z</time>
      </trkpt>
      <trkpt lat="49.77829" lon="2.23424">
        <ele>109.9</ele>
        <time>2022-10-07T13:24:25Z</time>
      </trkpt>
      <trkpt lat="49.7783" lon="2.23425">
        <ele>109.8</ele>
        <time>2022-10-07T13:24:26Z</time>
      </trkpt>
      <trkpt lat="49.77831" lon="2.23425">
        <ele>109.8</ele>
        <time>2022-10-07T13:24:27Z</time>
      </trkpt>
      <trkpt lat="49.77832" lon="2.23425">
        <ele>109.8</ele>
        <time>2022-10-07T13:24:28Z</time>
      </trkpt>
      <trkpt lat="49.77833" lon="2.23425">
        <ele>109.8</ele>
        <time>2022-10-07T13:24:29Z</time>
      </trkpt>
      <trkpt lat="49.77835" lon="2.23426">
        <ele>109.7</ele>
        <time>2022-10-07T13:24:30Z</time>
      </trkpt>
      <trkpt lat="49.77836" lon="2.23426">
        <ele>109.7</ele>
        <time>2022-10-07T13:24:31Z</time>
      </trkpt>
      <trkpt lat="49.77837" lon="2.23426">
        <ele>109.7</ele>
        <time>2022-10-07T13:24:32Z</time>
      </trkpt>
      <trkpt lat="49.77839" lon="2.23426">
        <ele>109.6</ele>
        <time>2022-10-07T13:24:33Z</time>
      </trkpt>
      <trkpt lat="49.77841" lon="2.23426">
        <ele>109.6</ele>
        <time>2022-10-07T13:24:34Z</time>
      </trkpt>
      <trkpt lat="49.77842" lon="2.23426">
        <ele>109.6</ele>
        <time>2022-10-07T13:24:35Z</time>
      </trkpt>
      <trkpt lat="49.77843" lon="2.23426">
        <ele>109.6</ele>
        <time>2022-10-07T13:24:36Z</time>
      </trkpt>
      <trkpt lat="49.77844" lon="2.23426">
        <ele>109.5</ele>
        <time>2022-10-07T13:24:37Z</time>
      </trkpt>
      <trkpt lat="49.77846" lon="2.23427">
        <ele>109.5</ele>
        <time>2022-10-07T13:24:39Z</time>
      </trkpt>
      <trkpt lat="49.77848" lon="2.23427">
        <ele>109.5</ele>
        <time>2022-10-07T13:24:40Z</time>
      </trkpt>
      <trkpt lat="49.77849" lon="2.23427">
        <ele>109.5</ele>
        <time>2022-10-07T13:24:41Z</time>
      </trkpt>
      <trkpt lat="49.7785" lon="2.23427">
        <ele>109.5</ele>
        <time>2022-10-07T13:24:42Z</time>
      </trkpt>
      <trkpt lat="49.77851" lon="2.23427">
        <ele>109.4</ele>
        <time>2022-10-07T13:24:43Z</time>
      </trkpt>
      <trkpt lat="49.77852" lon="2.23427">
        <ele>109.4</ele>
        <time>2022-10-07T13:24:44Z</time>
      </trkpt>
      <trkpt lat="49.77854" lon="2.23427">
        <ele>109.4</ele>
        <time>2022-10-07T13:24:45Z</time>
      </trkpt>
      <trkpt lat="49.77855" lon="2.23427">
        <ele>109.4</ele>
        <time>2022-10-07T13:24:47Z</time>
      </trkpt>
      <trkpt lat="49.77857" lon="2.23427">
        <ele>109.3</ele>
        <time>2022-10-07T13:24:48Z</time>
      </trkpt>
      <trkpt lat="49.77858" lon="2.23427">
        <ele>109.3</ele>
        <time>2022-10-07T13:24:49Z</time>
      </trkpt>
      <trkpt lat="49.7786" lon="2.23428">
        <ele>109.3</ele>
        <time>2022-10-07T13:24:50Z</time>
      </trkpt>
      <trkpt lat="49.77861" lon="2.23428">
        <ele>109.3</ele>
        <time>2022-10-07T13:24:51Z</time>
      </trkpt>
      <trkpt lat="49.77863" lon="2.23429">
        <ele>109.2</ele>
        <time>2022-10-07T13:24:53Z</time>
      </trkpt>
      <trkpt lat="49.77864" lon="2.23429">
        <ele>109.2</ele>
        <time>2022-10-07T13:24:54Z</time>
      </trkpt>
      <trkpt lat="49.77865" lon="2.23429">
        <ele>109.2</ele>
        <time>2022-10-07T13:24:55Z</time>
      </trkpt>
      <trkpt lat="49.77866" lon="2.2343">
        <ele>109.2</ele>
        <time>2022-10-07T13:24:56Z</time>
      </trkpt>
      <trkpt lat="49.77867" lon="2.2343">
        <ele>109.2</ele>
        <time>2022-10-07T13:24:57Z</time>
      </trkpt>
      <trkpt lat="49.77868" lon="2.2343">
        <ele>109.1</ele>
        <time>2022-10-07T13:24:58Z</time>
      </trkpt>
      <trkpt lat="49.7787" lon="2.2343">
        <ele>109.1</ele>
        <time>2022-10-07T13:24:59Z</time>
      </trkpt>
      <trkpt lat="49.77871" lon="2.2343">
        <ele>109.1</ele>
        <time>2022-10-07T13:25:00Z</time>
      </trkpt>
      <trkpt lat="49.77872" lon="2.2343">
        <ele>109.1</ele>
        <time>2022-10-07T13:25:01Z</time>
      </trkpt>
      <trkpt lat="49.77873" lon="2.2343">
        <ele>109</ele>
        <time>2022-10-07T13:25:02Z</time>
      </trkpt>
      <trkpt lat="49.77875" lon="2.2343">
        <ele>109</ele>
        <time>2022-10-07T13:25:03Z</time>
      </trkpt>
      <trkpt lat="49.77877" lon="2.23429">
        <ele>109</ele>
        <time>2022-10-07T13:25:04Z</time>
      </trkpt>
      <trkpt lat="49.77877" lon="2.23429">
        <ele>109</ele>
        <time>2022-10-07T13:25:05Z</time>
      </trkpt>
      <trkpt lat="49.77878" lon="2.23428">
        <ele>109</ele>
        <time>2022-10-07T13:25:06Z</time>
      </trkpt>
      <trkpt lat="49.77879" lon="2.23428">
        <ele>109</ele>
        <time>2022-10-07T13:25:07Z</time>
      </trkpt>
      <trkpt lat="49.7788" lon="2.23428">
        <ele>109</ele>
        <time>2022-10-07T13:25:08Z</time>
      </trkpt>
      <trkpt lat="49.77882" lon="2.23428">
        <ele>108.9</ele>
        <time>2022-10-07T13:25:10Z</time>
      </trkpt>
      <trkpt lat="49.77883" lon="2.23428">
        <ele>108.9</ele>
        <time>2022-10-07T13:25:11Z</time>
      </trkpt>
      <trkpt lat="49.77884" lon="2.23428">
        <ele>108.9</ele>
        <time>2022-10-07T13:25:12Z</time>
      </trkpt>
      <trkpt lat="49.77885" lon="2.23428">
        <ele>108.9</ele>
        <time>2022-10-07T13:25:13Z</time>
      </trkpt>
      <trkpt lat="49.77886" lon="2.23429">
        <ele>108.9</ele>
        <time>2022-10-07T13:25:14Z</time>
      </trkpt>
      <trkpt lat="49.77887" lon="2.23429">
        <ele>108.9</ele>
        <time>2022-10-07T13:25:15Z</time>
      </trkpt>
      <trkpt lat="49.77888" lon="2.23429">
        <ele>108.9</ele>
        <time>2022-10-07T13:25:16Z</time>
      </trkpt>
      <trkpt lat="49.77889" lon="2.2343">
        <ele>108.8</ele>
        <time>2022-10-07T13:25:17Z</time>
      </trkpt>
      <trkpt lat="49.7789" lon="2.2343">
        <ele>108.8</ele>
        <time>2022-10-07T13:25:18Z</time>
      </trkpt>
      <trkpt lat="49.77893" lon="2.2343">
        <ele>108.8</ele>
        <time>2022-10-07T13:25:19Z</time>
      </trkpt>
      <trkpt lat="49.77894" lon="2.23431">
        <ele>108.8</ele>
        <time>2022-10-07T13:25:20Z</time>
      </trkpt>
      <trkpt lat="49.77895" lon="2.23432">
        <ele>108.8</ele>
        <time>2022-10-07T13:25:22Z</time>
      </trkpt>
      <trkpt lat="49.77896" lon="2.23432">
        <ele>108.8</ele>
        <time>2022-10-07T13:25:23Z</time>
      </trkpt>
      <trkpt lat="49.77898" lon="2.23432">
        <ele>108.7</ele>
        <time>2022-10-07T13:25:24Z</time>
      </trkpt>
      <trkpt lat="49.779" lon="2.23432">
        <ele>108.7</ele>
        <time>2022-10-07T13:25:25Z</time>
      </trkpt>
      <trkpt lat="49.77901" lon="2.23433">
        <ele>108.7</ele>
        <time>2022-10-07T13:25:26Z</time>
      </trkpt>
      <trkpt lat="49.77903" lon="2.23433">
        <ele>108.7</ele>
        <time>2022-10-07T13:25:27Z</time>
      </trkpt>
      <trkpt lat="49.77904" lon="2.23432">
        <ele>108.7</ele>
        <time>2022-10-07T13:25:28Z</time>
      </trkpt>
      <trkpt lat="49.77906" lon="2.23432">
        <ele>108.7</ele>
        <time>2022-10-07T13:25:29Z</time>
      </trkpt>
      <trkpt lat="49.77906" lon="2.23432">
        <ele>108.7</ele>
        <time>2022-10-07T13:25:30Z</time>
      </trkpt>
      <trkpt lat="49.77907" lon="2.23432">
        <ele>108.7</ele>
        <time>2022-10-07T13:25:32Z</time>
      </trkpt>
      <trkpt lat="49.77909" lon="2.23432">
        <ele>108.6</ele>
        <time>2022-10-07T13:25:33Z</time>
      </trkpt>
      <trkpt lat="49.7791" lon="2.23432">
        <ele>108.6</ele>
        <time>2022-10-07T13:25:34Z</time>
      </trkpt>
      <trkpt lat="49.77912" lon="2.23433">
        <ele>108.6</ele>
        <time>2022-10-07T13:25:35Z</time>
      </trkpt>
      <trkpt lat="49.77913" lon="2.23433">
        <ele>108.6</ele>
        <time>2022-10-07T13:25:36Z</time>
      </trkpt>
      <trkpt lat="49.77914" lon="2.23434">
        <ele>108.6</ele>
        <time>2022-10-07T13:25:38Z</time>
      </trkpt>
      <trkpt lat="49.77915" lon="2.23434">
        <ele>108.6</ele>
        <time>2022-10-07T13:25:39Z</time>
      </trkpt>
      <trkpt lat="49.77916" lon="2.23434">
        <ele>108.6</ele>
        <time>2022-10-07T13:25:40Z</time>
      </trkpt>
      <trkpt lat="49.77917" lon="2.23435">
        <ele>108.6</ele>
        <time>2022-10-07T13:25:41Z</time>
      </trkpt>
      <trkpt lat="49.77918" lon="2.23435">
        <ele>108.6</ele>
        <time>2022-10-07T13:25:42Z</time>
      </trkpt>
      <trkpt lat="49.77919" lon="2.23435">
        <ele>108.6</ele>
        <time>2022-10-07T13:25:43Z</time>
      </trkpt>
      <trkpt lat="49.7792" lon="2.23435">
        <ele>108.6</ele>
        <time>2022-10-07T13:25:44Z</time>
      </trkpt>
      <trkpt lat="49.77921" lon="2.23434">
        <ele>108.6</ele>
        <time>2022-10-07T13:25:45Z</time>
      </trkpt>
      <trkpt lat="49.77922" lon="2.23434">
        <ele>108.6</ele>
        <time>2022-10-07T13:25:46Z</time>
      </trkpt>
      <trkpt lat="49.77923" lon="2.23434">
        <ele>108.6</ele>
        <time>2022-10-07T13:25:48Z</time>
      </trkpt>
      <trkpt lat="49.77925" lon="2.23433">
        <ele>108.6</ele>
        <time>2022-10-07T13:25:49Z</time>
      </trkpt>
      <trkpt lat="49.77926" lon="2.23433">
        <ele>108.6</ele>
        <time>2022-10-07T13:25:50Z</time>
      </trkpt>
      <trkpt lat="49.77927" lon="2.23434">
        <ele>108.6</ele>
        <time>2022-10-07T13:25:51Z</time>
      </trkpt>
      <trkpt lat="49.77927" lon="2.23434">
        <ele>108.6</ele>
        <time>2022-10-07T13:25:52Z</time>
      </trkpt>
      <trkpt lat="49.77928" lon="2.23434">
        <ele>108.6</ele>
        <time>2022-10-07T13:25:53Z</time>
      </trkpt>
      <trkpt lat="49.77929" lon="2.23434">
        <ele>108.6</ele>
        <time>2022-10-07T13:25:54Z</time>
      </trkpt>
      <trkpt lat="49.77931" lon="2.23435">
        <ele>108.6</ele>
        <time>2022-10-07T13:25:56Z</time>
      </trkpt>
      <trkpt lat="49.77932" lon="2.23435">
        <ele>108.6</ele>
        <time>2022-10-07T13:25:57Z</time>
      </trkpt>
      <trkpt lat="49.77933" lon="2.23435">
        <ele>108.6</ele>
        <time>2022-10-07T13:25:58Z</time>
      </trkpt>
      <trkpt lat="49.77933" lon="2.23435">
        <ele>108.6</ele>
        <time>2022-10-07T13:25:59Z</time>
      </trkpt>
      <trkpt lat="49.77934" lon="2.23435">
        <ele>108.6</ele>
        <time>2022-10-07T13:26:00Z</time>
      </trkpt>
      <trkpt lat="49.77935" lon="2.23436">
        <ele>108.6</ele>
        <time>2022-10-07T13:26:01Z</time>
      </trkpt>
      <trkpt lat="49.77936" lon="2.23436">
        <ele>108.6</ele>
        <time>2022-10-07T13:26:02Z</time>
      </trkpt>
      <trkpt lat="49.77937" lon="2.23437">
        <ele>108.6</ele>
        <time>2022-10-07T13:26:03Z</time>
      </trkpt>
      <trkpt lat="49.77938" lon="2.23437">
        <ele>108.5</ele>
        <time>2022-10-07T13:26:05Z</time>
      </trkpt>
      <trkpt lat="49.77939" lon="2.23437">
        <ele>108.5</ele>
        <time>2022-10-07T13:26:06Z</time>
      </trkpt>
      <trkpt lat="49.7794" lon="2.23437">
        <ele>108.5</ele>
        <time>2022-10-07T13:26:07Z</time>
      </trkpt>
      <trkpt lat="49.77941" lon="2.23437">
        <ele>108.5</ele>
        <time>2022-10-07T13:26:08Z</time>
      </trkpt>
      <trkpt lat="49.77944" lon="2.23437">
        <ele>108.5</ele>
        <time>2022-10-07T13:26:09Z</time>
      </trkpt>
      <trkpt lat="49.77945" lon="2.23437">
        <ele>108.5</ele>
        <time>2022-10-07T13:26:10Z</time>
      </trkpt>
      <trkpt lat="49.77945" lon="2.23437">
        <ele>108.5</ele>
        <time>2022-10-07T13:26:12Z</time>
      </trkpt>
      <trkpt lat="49.77946" lon="2.23437">
        <ele>108.5</ele>
        <time>2022-10-07T13:26:13Z</time>
      </trkpt>
      <trkpt lat="49.77947" lon="2.23437">
        <ele>108.5</ele>
        <time>2022-10-07T13:26:14Z</time>
      </trkpt>
      <trkpt lat="49.77947" lon="2.23437">
        <ele>108.5</ele>
        <time>2022-10-07T13:26:15Z</time>
      </trkpt>
      <trkpt lat="49.77948" lon="2.23437">
        <ele>108.5</ele>
        <time>2022-10-07T13:26:16Z</time>
      </trkpt>
      <trkpt lat="49.7795" lon="2.23438">
        <ele>108.5</ele>
        <time>2022-10-07T13:26:17Z</time>
      </trkpt>
      <trkpt lat="49.77951" lon="2.23438">
        <ele>108.5</ele>
        <time>2022-10-07T13:26:18Z</time>
      </trkpt>
      <trkpt lat="49.77952" lon="2.23439">
        <ele>108.5</ele>
        <time>2022-10-07T13:26:19Z</time>
      </trkpt>
      <trkpt lat="49.77953" lon="2.23439">
        <ele>108.4</ele>
        <time>2022-10-07T13:26:20Z</time>
      </trkpt>
      <trkpt lat="49.77954" lon="2.2344">
        <ele>108.4</ele>
        <time>2022-10-07T13:26:21Z</time>
      </trkpt>
      <trkpt lat="49.77955" lon="2.23441">
        <ele>108.4</ele>
        <time>2022-10-07T13:26:23Z</time>
      </trkpt>
      <trkpt lat="49.77956" lon="2.23442">
        <ele>108.4</ele>
        <time>2022-10-07T13:26:24Z</time>
      </trkpt>
      <trkpt lat="49.77958" lon="2.23443">
        <ele>108.4</ele>
        <time>2022-10-07T13:26:25Z</time>
      </trkpt>
      <trkpt lat="49.77959" lon="2.23443">
        <ele>108.4</ele>
        <time>2022-10-07T13:26:26Z</time>
      </trkpt>
      <trkpt lat="49.7796" lon="2.23443">
        <ele>108.4</ele>
        <time>2022-10-07T13:26:27Z</time>
      </trkpt>
      <trkpt lat="49.77961" lon="2.23443">
        <ele>108.4</ele>
        <time>2022-10-07T13:26:29Z</time>
      </trkpt>
      <trkpt lat="49.77963" lon="2.23443">
        <ele>108.5</ele>
        <time>2022-10-07T13:26:30Z</time>
      </trkpt>
      <trkpt lat="49.77964" lon="2.23443">
        <ele>108.5</ele>
        <time>2022-10-07T13:26:31Z</time>
      </trkpt>
      <trkpt lat="49.77966" lon="2.23443">
        <ele>108.5</ele>
        <time>2022-10-07T13:26:32Z</time>
      </trkpt>
      <trkpt lat="49.77967" lon="2.23444">
        <ele>108.5</ele>
        <time>2022-10-07T13:26:33Z</time>
      </trkpt>
      <trkpt lat="49.77969" lon="2.23444">
        <ele>108.5</ele>
        <time>2022-10-07T13:26:34Z</time>
      </trkpt>
      <trkpt lat="49.77971" lon="2.23445">
        <ele>108.6</ele>
        <time>2022-10-07T13:26:36Z</time>
      </trkpt>
      <trkpt lat="49.77972" lon="2.23445">
        <ele>108.6</ele>
        <time>2022-10-07T13:26:37Z</time>
      </trkpt>
      <trkpt lat="49.77974" lon="2.23446">
        <ele>108.6</ele>
        <time>2022-10-07T13:26:38Z</time>
      </trkpt>
      <trkpt lat="49.77975" lon="2.23446">
        <ele>108.6</ele>
        <time>2022-10-07T13:26:39Z</time>
      </trkpt>
      <trkpt lat="49.77977" lon="2.23447">
        <ele>108.7</ele>
        <time>2022-10-07T13:26:40Z</time>
      </trkpt>
      <trkpt lat="49.77978" lon="2.23447">
        <ele>108.7</ele>
        <time>2022-10-07T13:26:41Z</time>
      </trkpt>
      <trkpt lat="49.7798" lon="2.23448">
        <ele>108.8</ele>
        <time>2022-10-07T13:26:42Z</time>
      </trkpt>
      <trkpt lat="49.77983" lon="2.23449">
        <ele>108.8</ele>
        <time>2022-10-07T13:26:43Z</time>
      </trkpt>
      <trkpt lat="49.77983" lon="2.23449">
        <ele>108.8</ele>
        <time>2022-10-07T13:26:44Z</time>
      </trkpt>
      <trkpt lat="49.77986" lon="2.2345">
        <ele>108.8</ele>
        <time>2022-10-07T13:26:45Z</time>
      </trkpt>
      <trkpt lat="49.77987" lon="2.23451">
        <ele>108.9</ele>
        <time>2022-10-07T13:26:46Z</time>
      </trkpt>
      <trkpt lat="49.77988" lon="2.23451">
        <ele>108.9</ele>
        <time>2022-10-07T13:26:48Z</time>
      </trkpt>
      <trkpt lat="49.7799" lon="2.23452">
        <ele>108.9</ele>
        <time>2022-10-07T13:26:49Z</time>
      </trkpt>
      <trkpt lat="49.77992" lon="2.23452">
        <ele>108.9</ele>
        <time>2022-10-07T13:26:50Z</time>
      </trkpt>
      <trkpt lat="49.77993" lon="2.23452">
        <ele>108.9</ele>
        <time>2022-10-07T13:26:51Z</time>
      </trkpt>
      <trkpt lat="49.77994" lon="2.23452">
        <ele>108.9</ele>
        <time>2022-10-07T13:26:52Z</time>
      </trkpt>
      <trkpt lat="49.77996" lon="2.23453">
        <ele>108.9</ele>
        <time>2022-10-07T13:26:53Z</time>
      </trkpt>
      <trkpt lat="49.77997" lon="2.23453">
        <ele>108.9</ele>
        <time>2022-10-07T13:26:54Z</time>
      </trkpt>
      <trkpt lat="49.78" lon="2.23455">
        <ele>108.9</ele>
        <time>2022-10-07T13:26:56Z</time>
      </trkpt>
      <trkpt lat="49.78001" lon="2.23455">
        <ele>108.9</ele>
        <time>2022-10-07T13:26:57Z</time>
      </trkpt>
      <trkpt lat="49.78002" lon="2.23455">
        <ele>108.9</ele>
        <time>2022-10-07T13:26:58Z</time>
      </trkpt>
      <trkpt lat="49.78005" lon="2.23455">
        <ele>108.9</ele>
        <time>2022-10-07T13:27:00Z</time>
      </trkpt>
      <trkpt lat="49.78007" lon="2.23455">
        <ele>108.9</ele>
        <time>2022-10-07T13:27:01Z</time>
      </trkpt>
      <trkpt lat="49.78008" lon="2.23455">
        <ele>108.9</ele>
        <time>2022-10-07T13:27:02Z</time>
      </trkpt>
      <trkpt lat="49.78009" lon="2.23455">
        <ele>108.9</ele>
        <time>2022-10-07T13:27:03Z</time>
      </trkpt>
      <trkpt lat="49.78011" lon="2.23457">
        <ele>108.9</ele>
        <time>2022-10-07T13:27:04Z</time>
      </trkpt>
      <trkpt lat="49.78011" lon="2.23458">
        <ele>108.9</ele>
        <time>2022-10-07T13:27:05Z</time>
      </trkpt>
      <trkpt lat="49.78012" lon="2.23459">
        <ele>108.9</ele>
        <time>2022-10-07T13:27:06Z</time>
      </trkpt>
      <trkpt lat="49.78013" lon="2.23459">
        <ele>108.8</ele>
        <time>2022-10-07T13:27:07Z</time>
      </trkpt>
      <trkpt lat="49.78015" lon="2.23459">
        <ele>108.8</ele>
        <time>2022-10-07T13:27:08Z</time>
      </trkpt>
      <trkpt lat="49.78017" lon="2.2346">
        <ele>108.8</ele>
        <time>2022-10-07T13:27:10Z</time>
      </trkpt>
      <trkpt lat="49.78018" lon="2.2346">
        <ele>108.8</ele>
        <time>2022-10-07T13:27:11Z</time>
      </trkpt>
      <trkpt lat="49.78018" lon="2.23461">
        <ele>108.8</ele>
        <time>2022-10-07T13:27:12Z</time>
      </trkpt>
      <trkpt lat="49.78019" lon="2.23462">
        <ele>108.8</ele>
        <time>2022-10-07T13:27:13Z</time>
      </trkpt>
      <trkpt lat="49.78022" lon="2.23462">
        <ele>108.7</ele>
        <time>2022-10-07T13:27:15Z</time>
      </trkpt>
      <trkpt lat="49.78023" lon="2.23462">
        <ele>108.7</ele>
        <time>2022-10-07T13:27:16Z</time>
      </trkpt>
      <trkpt lat="49.78024" lon="2.23462">
        <ele>108.7</ele>
        <time>2022-10-07T13:27:17Z</time>
      </trkpt>
      <trkpt lat="49.78026" lon="2.23463">
        <ele>108.7</ele>
        <time>2022-10-07T13:27:19Z</time>
      </trkpt>
      <trkpt lat="49.78027" lon="2.23463">
        <ele>108.6</ele>
        <time>2022-10-07T13:27:20Z</time>
      </trkpt>
      <trkpt lat="49.78027" lon="2.23463">
        <ele>108.6</ele>
        <time>2022-10-07T13:27:21Z</time>
      </trkpt>
      <trkpt lat="49.78027" lon="2.23464">
        <ele>108.6</ele>
        <time>2022-10-07T13:27:22Z</time>
      </trkpt>
      <trkpt lat="49.78027" lon="2.23465">
        <ele>108.6</ele>
        <time>2022-10-07T13:27:23Z</time>
      </trkpt>
      <trkpt lat="49.78027" lon="2.23465">
        <ele>108.6</ele>
        <time>2022-10-07T13:27:24Z</time>
      </trkpt>
      <trkpt lat="49.78027" lon="2.23465">
        <ele>108.6</ele>
        <time>2022-10-07T13:27:25Z</time>
      </trkpt>
      <trkpt lat="49.78027" lon="2.23466">
        <ele>108.6</ele>
        <time>2022-10-07T13:27:26Z</time>
      </trkpt>
      <trkpt lat="49.78027" lon="2.23466">
        <ele>108.6</ele>
        <time>2022-10-07T13:27:27Z</time>
      </trkpt>
      <trkpt lat="49.78027" lon="2.23466">
        <ele>108.6</ele>
        <time>2022-10-07T13:27:28Z</time>
      </trkpt>
      <trkpt lat="49.78026" lon="2.23466">
        <ele>108.6</ele>
        <time>2022-10-07T13:27:29Z</time>
      </trkpt>
      <trkpt lat="49.78026" lon="2.23466">
        <ele>108.5</ele>
        <time>2022-10-07T13:27:30Z</time>
      </trkpt>
      <trkpt lat="49.78026" lon="2.23466">
        <ele>108.5</ele>
        <time>2022-10-07T13:27:32Z</time>
      </trkpt>
      <trkpt lat="49.78025" lon="2.23466">
        <ele>108.5</ele>
        <time>2022-10-07T13:27:33Z</time>
      </trkpt>
      <trkpt lat="49.78025" lon="2.23467">
        <ele>108.5</ele>
        <time>2022-10-07T13:27:34Z</time>
      </trkpt>
      <trkpt lat="49.78024" lon="2.23467">
        <ele>108.5</ele>
        <time>2022-10-07T13:27:35Z</time>
      </trkpt>
      <trkpt lat="49.78023" lon="2.23467">
        <ele>108.5</ele>
        <time>2022-10-07T13:27:36Z</time>
      </trkpt>
      <trkpt lat="49.78022" lon="2.23467">
        <ele>108.5</ele>
        <time>2022-10-07T13:27:37Z</time>
      </trkpt>
      <trkpt lat="49.78022" lon="2.23467">
        <ele>108.4</ele>
        <time>2022-10-07T13:27:38Z</time>
      </trkpt>
      <trkpt lat="49.78022" lon="2.23467">
        <ele>108.4</ele>
        <time>2022-10-07T13:27:39Z</time>
      </trkpt>
      <trkpt lat="49.78022" lon="2.23466">
        <ele>108.4</ele>
        <time>2022-10-07T13:27:40Z</time>
      </trkpt>
      <trkpt lat="49.78022" lon="2.23466">
        <ele>108.4</ele>
        <time>2022-10-07T13:27:41Z</time>
      </trkpt>
      <trkpt lat="49.78022" lon="2.23465">
        <ele>108.4</ele>
        <time>2022-10-07T13:27:42Z</time>
      </trkpt>
      <trkpt lat="49.78021" lon="2.23465">
        <ele>108.4</ele>
        <time>2022-10-07T13:27:43Z</time>
      </trkpt>
      <trkpt lat="49.78021" lon="2.23465">
        <ele>108.4</ele>
        <time>2022-10-07T13:27:44Z</time>
      </trkpt>
      <trkpt lat="49.78021" lon="2.23464">
        <ele>108.4</ele>
        <time>2022-10-07T13:27:45Z</time>
      </trkpt>
      <trkpt lat="49.78021" lon="2.23464">
        <ele>108.4</ele>
        <time>2022-10-07T13:27:46Z</time>
      </trkpt>
      <trkpt lat="49.78021" lon="2.23464">
        <ele>108.4</ele>
        <time>2022-10-07T13:27:47Z</time>
      </trkpt>
      <trkpt lat="49.78021" lon="2.23464">
        <ele>108.4</ele>
        <time>2022-10-07T13:27:48Z</time>
      </trkpt>
      <trkpt lat="49.78021" lon="2.23463">
        <ele>108.4</ele>
        <time>2022-10-07T13:27:50Z</time>
      </trkpt>
      <trkpt lat="49.78021" lon="2.23463">
        <ele>108.4</ele>
        <time>2022-10-07T13:27:51Z</time>
      </trkpt>
      <trkpt lat="49.78021" lon="2.23463">
        <ele>108.4</ele>
        <time>2022-10-07T13:27:52Z</time>
      </trkpt>
      <trkpt lat="49.78021" lon="2.23462">
        <ele>108.4</ele>
        <time>2022-10-07T13:27:53Z</time>
      </trkpt>
      <trkpt lat="49.78021" lon="2.23462">
        <ele>108.3</ele>
        <time>2022-10-07T13:27:54Z</time>
      </trkpt>
      <trkpt lat="49.78021" lon="2.23461">
        <ele>108.3</ele>
        <time>2022-10-07T13:27:55Z</time>
      </trkpt>
      <trkpt lat="49.78021" lon="2.23461">
        <ele>108.3</ele>
        <time>2022-10-07T13:27:56Z</time>
      </trkpt>
      <trkpt lat="49.78021" lon="2.23461">
        <ele>108.3</ele>
        <time>2022-10-07T13:27:57Z</time>
      </trkpt>
      <trkpt lat="49.78021" lon="2.23461">
        <ele>108.3</ele>
        <time>2022-10-07T13:27:58Z</time>
      </trkpt>
      <trkpt lat="49.78021" lon="2.23461">
        <ele>108.3</ele>
        <time>2022-10-07T13:27:59Z</time>
      </trkpt>
      <trkpt lat="49.78021" lon="2.23461">
        <ele>108.3</ele>
        <time>2022-10-07T13:28:00Z</time>
      </trkpt>
      <trkpt lat="49.78021" lon="2.23461">
        <ele>108.3</ele>
        <time>2022-10-07T13:28:01Z</time>
      </trkpt>
      <trkpt lat="49.78021" lon="2.23461">
        <ele>108.3</ele>
        <time>2022-10-07T13:28:02Z</time>
      </trkpt>
      <trkpt lat="49.78021" lon="2.23461">
        <ele>108.3</ele>
        <time>2022-10-07T13:28:03Z</time>
      </trkpt>
      <trkpt lat="49.78021" lon="2.23461">
        <ele>108.3</ele>
        <time>2022-10-07T13:28:04Z</time>
      </trkpt>
      <trkpt lat="49.78021" lon="2.23461">
        <ele>108.3</ele>
        <time>2022-10-07T13:28:05Z</time>
      </trkpt>
      <trkpt lat="49.78021" lon="2.23461">
        <ele>108.3</ele>
        <time>2022-10-07T13:28:06Z</time>
      </trkpt>
      <trkpt lat="49.78021" lon="2.23461">
        <ele>108.3</ele>
        <time>2022-10-07T13:28:07Z</time>
      </trkpt>
      <trkpt lat="49.78021" lon="2.23461">
        <ele>108.3</ele>
        <time>2022-10-07T13:28:08Z</time>
      </trkpt>
      <trkpt lat="49.78021" lon="2.23461">
        <ele>108.3</ele>
        <time>2022-10-07T13:28:09Z</time>
      </trkpt>
      <trkpt lat="49.78021" lon="2.23461">
        <ele>108.3</ele>
        <time>2022-10-07T13:28:10Z</time>
      </trkpt>
      <trkpt lat="49.78021" lon="2.23461">
        <ele>108.3</ele>
        <time>2022-10-07T13:28:11Z</time>
      </trkpt>
      <trkpt lat="49.78021" lon="2.23461">
        <ele>108.3</ele>
        <time>2022-10-07T13:28:12Z</time>
      </trkpt>
      <trkpt lat="49.78021" lon="2.23461">
        <ele>108.3</ele>
        <time>2022-10-07T13:28:13Z</time>
      </trkpt>
      <trkpt lat="49.78021" lon="2.23461">
        <ele>108.3</ele>
        <time>2022-10-07T13:28:14Z</time>
      </trkpt>
      <trkpt lat="49.78021" lon="2.23461">
        <ele>108.3</ele>
        <time>2022-10-07T13:28:15Z</time>
      </trkpt>
      <trkpt lat="49.78021" lon="2.23461">
        <ele>108.3</ele>
        <time>2022-10-07T13:28:16Z</time>
      </trkpt>
      <trkpt lat="49.78021" lon="2.23461">
        <ele>108.3</ele>
        <time>2022-10-07T13:28:17Z</time>
      </trkpt>
      <trkpt lat="49.78021" lon="2.23461">
        <ele>108.3</ele>
        <time>2022-10-07T13:28:18Z</time>
      </trkpt>
      <trkpt lat="49.78021" lon="2.23461">
        <ele>108.3</ele>
        <time>2022-10-07T13:28:19Z</time>
      </trkpt>
      <trkpt lat="49.78021" lon="2.23461">
        <ele>108.3</ele>
        <time>2022-10-07T13:28:20Z</time>
      </trkpt>
      <trkpt lat="49.78022" lon="2.23461">
        <ele>108.3</ele>
        <time>2022-10-07T13:28:21Z</time>
      </trkpt>
      <trkpt lat="49.78023" lon="2.23461">
        <ele>108.3</ele>
        <time>2022-10-07T13:28:22Z</time>
      </trkpt>
      <trkpt lat="49.78023" lon="2.23461">
        <ele>108.3</ele>
        <time>2022-10-07T13:28:23Z</time>
      </trkpt>
      <trkpt lat="49.78023" lon="2.23461">
        <ele>108.3</ele>
        <time>2022-10-07T13:28:24Z</time>
      </trkpt>
      <trkpt lat="49.78023" lon="2.23461">
        <ele>108.3</ele>
        <time>2022-10-07T13:28:25Z</time>
      </trkpt>
      <trkpt lat="49.78023" lon="2.23461">
        <ele>108.3</ele>
        <time>2022-10-07T13:28:26Z</time>
      </trkpt>
      <trkpt lat="49.78023" lon="2.23461">
        <ele>108.3</ele>
        <time>2022-10-07T13:28:27Z</time>
      </trkpt>
      <trkpt lat="49.78023" lon="2.23461">
        <ele>108.3</ele>
        <time>2022-10-07T13:28:28Z</time>
      </trkpt>
      <trkpt lat="49.78023" lon="2.23461">
        <ele>108.3</ele>
        <time>2022-10-07T13:28:29Z</time>
      </trkpt>
      <trkpt lat="49.78023" lon="2.23461">
        <ele>108.3</ele>
        <time>2022-10-07T13:28:30Z</time>
      </trkpt>
      <trkpt lat="49.78023" lon="2.2346">
        <ele>108.3</ele>
        <time>2022-10-07T13:28:32Z</time>
      </trkpt>
      <trkpt lat="49.78023" lon="2.2346">
        <ele>108.3</ele>
        <time>2022-10-07T13:28:33Z</time>
      </trkpt>
      <trkpt lat="49.78023" lon="2.2346">
        <ele>108.3</ele>
        <time>2022-10-07T13:28:34Z</time>
      </trkpt>
      <trkpt lat="49.78023" lon="2.2346">
        <ele>108.3</ele>
        <time>2022-10-07T13:28:35Z</time>
      </trkpt>
      <trkpt lat="49.78023" lon="2.2346">
        <ele>108.3</ele>
        <time>2022-10-07T13:28:36Z</time>
      </trkpt>
      <trkpt lat="49.78024" lon="2.2346">
        <ele>108.2</ele>
        <time>2022-10-07T13:28:37Z</time>
      </trkpt>
      <trkpt lat="49.78024" lon="2.23459">
        <ele>108.2</ele>
        <time>2022-10-07T13:28:39Z</time>
      </trkpt>
      <trkpt lat="49.78025" lon="2.23459">
        <ele>108.2</ele>
        <time>2022-10-07T13:28:40Z</time>
      </trkpt>
      <trkpt lat="49.78025" lon="2.23458">
        <ele>108.2</ele>
        <time>2022-10-07T13:28:41Z</time>
      </trkpt>
      <trkpt lat="49.78026" lon="2.23457">
        <ele>108.2</ele>
        <time>2022-10-07T13:28:42Z</time>
      </trkpt>
      <trkpt lat="49.78027" lon="2.23457">
        <ele>108.2</ele>
        <time>2022-10-07T13:28:43Z</time>
      </trkpt>
      <trkpt lat="49.78027" lon="2.23457">
        <ele>108.1</ele>
        <time>2022-10-07T13:28:44Z</time>
      </trkpt>
      <trkpt lat="49.78028" lon="2.23457">
        <ele>108.1</ele>
        <time>2022-10-07T13:28:45Z</time>
      </trkpt>
      <trkpt lat="49.78029" lon="2.23458">
        <ele>108.1</ele>
        <time>2022-10-07T13:28:46Z</time>
      </trkpt>
      <trkpt lat="49.78032" lon="2.23459">
        <ele>108</ele>
        <time>2022-10-07T13:28:48Z</time>
      </trkpt>
      <trkpt lat="49.78033" lon="2.23459">
        <ele>108</ele>
        <time>2022-10-07T13:28:49Z</time>
      </trkpt>
      <trkpt lat="49.78034" lon="2.2346">
        <ele>108</ele>
        <time>2022-10-07T13:28:50Z</time>
      </trkpt>
      <trkpt lat="49.78035" lon="2.23461">
        <ele>107.9</ele>
        <time>2022-10-07T13:28:51Z</time>
      </trkpt>
      <trkpt lat="49.78036" lon="2.23461">
        <ele>107.9</ele>
        <time>2022-10-07T13:28:52Z</time>
      </trkpt>
      <trkpt lat="49.78037" lon="2.23462">
        <ele>107.9</ele>
        <time>2022-10-07T13:28:53Z</time>
      </trkpt>
      <trkpt lat="49.78038" lon="2.23462">
        <ele>107.8</ele>
        <time>2022-10-07T13:28:54Z</time>
      </trkpt>
      <trkpt lat="49.7804" lon="2.23462">
        <ele>107.8</ele>
        <time>2022-10-07T13:28:56Z</time>
      </trkpt>
      <trkpt lat="49.78042" lon="2.23462">
        <ele>107.7</ele>
        <time>2022-10-07T13:28:57Z</time>
      </trkpt>
      <trkpt lat="49.78043" lon="2.23462">
        <ele>107.7</ele>
        <time>2022-10-07T13:28:58Z</time>
      </trkpt>
      <trkpt lat="49.78044" lon="2.23461">
        <ele>107.7</ele>
        <time>2022-10-07T13:28:59Z</time>
      </trkpt>
      <trkpt lat="49.78046" lon="2.23461">
        <ele>107.6</ele>
        <time>2022-10-07T13:29:00Z</time>
      </trkpt>
      <trkpt lat="49.78046" lon="2.23461">
        <ele>107.6</ele>
        <time>2022-10-07T13:29:01Z</time>
      </trkpt>
      <trkpt lat="49.78048" lon="2.2346">
        <ele>107.6</ele>
        <time>2022-10-07T13:29:02Z</time>
      </trkpt>
      <trkpt lat="49.78049" lon="2.2346">
        <ele>107.5</ele>
        <time>2022-10-07T13:29:03Z</time>
      </trkpt>
      <trkpt lat="49.78051" lon="2.23461">
        <ele>107.5</ele>
        <time>2022-10-07T13:29:04Z</time>
      </trkpt>
      <trkpt lat="49.78052" lon="2.23461">
        <ele>107.4</ele>
        <time>2022-10-07T13:29:05Z</time>
      </trkpt>
      <trkpt lat="49.78054" lon="2.23462">
        <ele>107.4</ele>
        <time>2022-10-07T13:29:07Z</time>
      </trkpt>
      <trkpt lat="49.78055" lon="2.23462">
        <ele>107.4</ele>
        <time>2022-10-07T13:29:08Z</time>
      </trkpt>
      <trkpt lat="49.78056" lon="2.23463">
        <ele>107.3</ele>
        <time>2022-10-07T13:29:09Z</time>
      </trkpt>
      <trkpt lat="49.78057" lon="2.23463">
        <ele>107.3</ele>
        <time>2022-10-07T13:29:10Z</time>
      </trkpt>
      <trkpt lat="49.78058" lon="2.23463">
        <ele>107.3</ele>
        <time>2022-10-07T13:29:11Z</time>
      </trkpt>
      <trkpt lat="49.7806" lon="2.23463">
        <ele>107.2</ele>
        <time>2022-10-07T13:29:12Z</time>
      </trkpt>
      <trkpt lat="49.78062" lon="2.23463">
        <ele>107.2</ele>
        <time>2022-10-07T13:29:14Z</time>
      </trkpt>
      <trkpt lat="49.78064" lon="2.23464">
        <ele>107.2</ele>
        <time>2022-10-07T13:29:15Z</time>
      </trkpt>
      <trkpt lat="49.78065" lon="2.23464">
        <ele>107.1</ele>
        <time>2022-10-07T13:29:16Z</time>
      </trkpt>
      <trkpt lat="49.78066" lon="2.23465">
        <ele>107.1</ele>
        <time>2022-10-07T13:29:17Z</time>
      </trkpt>
      <trkpt lat="49.78067" lon="2.23466">
        <ele>107.1</ele>
        <time>2022-10-07T13:29:18Z</time>
      </trkpt>
      <trkpt lat="49.7807" lon="2.23466">
        <ele>107</ele>
        <time>2022-10-07T13:29:20Z</time>
      </trkpt>
      <trkpt lat="49.7807" lon="2.23467">
        <ele>107</ele>
        <time>2022-10-07T13:29:21Z</time>
      </trkpt>
      <trkpt lat="49.78072" lon="2.23467">
        <ele>107</ele>
        <time>2022-10-07T13:29:22Z</time>
      </trkpt>
      <trkpt lat="49.78073" lon="2.23468">
        <ele>106.9</ele>
        <time>2022-10-07T13:29:23Z</time>
      </trkpt>
      <trkpt lat="49.78074" lon="2.23469">
        <ele>106.9</ele>
        <time>2022-10-07T13:29:24Z</time>
      </trkpt>
      <trkpt lat="49.78075" lon="2.23469">
        <ele>106.9</ele>
        <time>2022-10-07T13:29:25Z</time>
      </trkpt>
      <trkpt lat="49.78076" lon="2.23469">
        <ele>106.8</ele>
        <time>2022-10-07T13:29:26Z</time>
      </trkpt>
      <trkpt lat="49.78077" lon="2.2347">
        <ele>106.8</ele>
        <time>2022-10-07T13:29:28Z</time>
      </trkpt>
      <trkpt lat="49.78078" lon="2.2347">
        <ele>106.8</ele>
        <time>2022-10-07T13:29:29Z</time>
      </trkpt>
      <trkpt lat="49.78079" lon="2.23471">
        <ele>106.8</ele>
        <time>2022-10-07T13:29:30Z</time>
      </trkpt>
      <trkpt lat="49.78079" lon="2.2347">
        <ele>106.7</ele>
        <time>2022-10-07T13:29:31Z</time>
      </trkpt>
      <trkpt lat="49.7808" lon="2.2347">
        <ele>106.7</ele>
        <time>2022-10-07T13:29:32Z</time>
      </trkpt>
      <trkpt lat="49.78082" lon="2.2347">
        <ele>106.7</ele>
        <time>2022-10-07T13:29:34Z</time>
      </trkpt>
      <trkpt lat="49.78083" lon="2.23469">
        <ele>106.6</ele>
        <time>2022-10-07T13:29:35Z</time>
      </trkpt>
      <trkpt lat="49.78084" lon="2.23469">
        <ele>106.6</ele>
        <time>2022-10-07T13:29:36Z</time>
      </trkpt>
      <trkpt lat="49.78085" lon="2.23469">
        <ele>106.6</ele>
        <time>2022-10-07T13:29:37Z</time>
      </trkpt>
      <trkpt lat="49.78086" lon="2.23469">
        <ele>106.5</ele>
        <time>2022-10-07T13:29:38Z</time>
      </trkpt>
      <trkpt lat="49.78089" lon="2.23469">
        <ele>106.4</ele>
        <time>2022-10-07T13:29:40Z</time>
      </trkpt>
      <trkpt lat="49.7809" lon="2.23469">
        <ele>106.4</ele>
        <time>2022-10-07T13:29:41Z</time>
      </trkpt>
      <trkpt lat="49.78091" lon="2.23469">
        <ele>106.3</ele>
        <time>2022-10-07T13:29:42Z</time>
      </trkpt>
      <trkpt lat="49.78094" lon="2.23469">
        <ele>106.2</ele>
        <time>2022-10-07T13:29:44Z</time>
      </trkpt>
      <trkpt lat="49.78095" lon="2.2347">
        <ele>106.2</ele>
        <time>2022-10-07T13:29:45Z</time>
      </trkpt>
      <trkpt lat="49.78096" lon="2.2347">
        <ele>106.1</ele>
        <time>2022-10-07T13:29:46Z</time>
      </trkpt>
      <trkpt lat="49.78098" lon="2.2347">
        <ele>106</ele>
        <time>2022-10-07T13:29:47Z</time>
      </trkpt>
      <trkpt lat="49.781" lon="2.2347">
        <ele>105.9</ele>
        <time>2022-10-07T13:29:48Z</time>
      </trkpt>
      <trkpt lat="49.78101" lon="2.23471">
        <ele>105.9</ele>
        <time>2022-10-07T13:29:49Z</time>
      </trkpt>
      <trkpt lat="49.78102" lon="2.23471">
        <ele>105.9</ele>
        <time>2022-10-07T13:29:50Z</time>
      </trkpt>
      <trkpt lat="49.78104" lon="2.23471">
        <ele>105.7</ele>
        <time>2022-10-07T13:29:51Z</time>
      </trkpt>
      <trkpt lat="49.78106" lon="2.23471">
        <ele>105.7</ele>
        <time>2022-10-07T13:29:52Z</time>
      </trkpt>
      <trkpt lat="49.78107" lon="2.23471">
        <ele>105.6</ele>
        <time>2022-10-07T13:29:53Z</time>
      </trkpt>
      <trkpt lat="49.78109" lon="2.23472">
        <ele>105.5</ele>
        <time>2022-10-07T13:29:55Z</time>
      </trkpt>
      <trkpt lat="49.78111" lon="2.23472">
        <ele>105.5</ele>
        <time>2022-10-07T13:29:56Z</time>
      </trkpt>
      <trkpt lat="49.78113" lon="2.23472">
        <ele>105.4</ele>
        <time>2022-10-07T13:29:57Z</time>
      </trkpt>
      <trkpt lat="49.78115" lon="2.23473">
        <ele>105.3</ele>
        <time>2022-10-07T13:29:58Z</time>
      </trkpt>
      <trkpt lat="49.78116" lon="2.23473">
        <ele>105.3</ele>
        <time>2022-10-07T13:29:59Z</time>
      </trkpt>
      <trkpt lat="49.78118" lon="2.23474">
        <ele>105.2</ele>
        <time>2022-10-07T13:30:00Z</time>
      </trkpt>
      <trkpt lat="49.78119" lon="2.23474">
        <ele>105.2</ele>
        <time>2022-10-07T13:30:01Z</time>
      </trkpt>
      <trkpt lat="49.7812" lon="2.23474">
        <ele>105.2</ele>
        <time>2022-10-07T13:30:02Z</time>
      </trkpt>
      <trkpt lat="49.78121" lon="2.23475">
        <ele>105.1</ele>
        <time>2022-10-07T13:30:04Z</time>
      </trkpt>
      <trkpt lat="49.78122" lon="2.23475">
        <ele>105.1</ele>
        <time>2022-10-07T13:30:05Z</time>
      </trkpt>
      <trkpt lat="49.78123" lon="2.23475">
        <ele>105.1</ele>
        <time>2022-10-07T13:30:06Z</time>
      </trkpt>
      <trkpt lat="49.78124" lon="2.23475">
        <ele>105.1</ele>
        <time>2022-10-07T13:30:07Z</time>
      </trkpt>
      <trkpt lat="49.78125" lon="2.23476">
        <ele>105</ele>
        <time>2022-10-07T13:30:08Z</time>
      </trkpt>
      <trkpt lat="49.78126" lon="2.23476">
        <ele>105</ele>
        <time>2022-10-07T13:30:09Z</time>
      </trkpt>
      <trkpt lat="49.78127" lon="2.23476">
        <ele>105</ele>
        <time>2022-10-07T13:30:10Z</time>
      </trkpt>
      <trkpt lat="49.78128" lon="2.23476">
        <ele>105</ele>
        <time>2022-10-07T13:30:11Z</time>
      </trkpt>
      <trkpt lat="49.78128" lon="2.23476">
        <ele>105</ele>
        <time>2022-10-07T13:30:12Z</time>
      </trkpt>
      <trkpt lat="49.78129" lon="2.23476">
        <ele>104.9</ele>
        <time>2022-10-07T13:30:13Z</time>
      </trkpt>
      <trkpt lat="49.7813" lon="2.23476">
        <ele>104.9</ele>
        <time>2022-10-07T13:30:14Z</time>
      </trkpt>
      <trkpt lat="49.78131" lon="2.23476">
        <ele>104.9</ele>
        <time>2022-10-07T13:30:15Z</time>
      </trkpt>
      <trkpt lat="49.78131" lon="2.23476">
        <ele>104.9</ele>
        <time>2022-10-07T13:30:16Z</time>
      </trkpt>
      <trkpt lat="49.78132" lon="2.23476">
        <ele>104.9</ele>
        <time>2022-10-07T13:30:17Z</time>
      </trkpt>
      <trkpt lat="49.78134" lon="2.23476">
        <ele>104.8</ele>
        <time>2022-10-07T13:30:18Z</time>
      </trkpt>
      <trkpt lat="49.78135" lon="2.23476">
        <ele>104.8</ele>
        <time>2022-10-07T13:30:20Z</time>
      </trkpt>
      <trkpt lat="49.78136" lon="2.23476">
        <ele>104.8</ele>
        <time>2022-10-07T13:30:21Z</time>
      </trkpt>
      <trkpt lat="49.78136" lon="2.23476">
        <ele>104.8</ele>
        <time>2022-10-07T13:30:22Z</time>
      </trkpt>
      <trkpt lat="49.78137" lon="2.23476">
        <ele>104.7</ele>
        <time>2022-10-07T13:30:24Z</time>
      </trkpt>
      <trkpt lat="49.78138" lon="2.23475">
        <ele>104.7</ele>
        <time>2022-10-07T13:30:25Z</time>
      </trkpt>
      <trkpt lat="49.78139" lon="2.23475">
        <ele>104.7</ele>
        <time>2022-10-07T13:30:26Z</time>
      </trkpt>
      <trkpt lat="49.78139" lon="2.23475">
        <ele>104.7</ele>
        <time>2022-10-07T13:30:27Z</time>
      </trkpt>
      <trkpt lat="49.78141" lon="2.23475">
        <ele>104.7</ele>
        <time>2022-10-07T13:30:28Z</time>
      </trkpt>
      <trkpt lat="49.78142" lon="2.23475">
        <ele>104.6</ele>
        <time>2022-10-07T13:30:29Z</time>
      </trkpt>
      <trkpt lat="49.78143" lon="2.23475">
        <ele>104.6</ele>
        <time>2022-10-07T13:30:30Z</time>
      </trkpt>
      <trkpt lat="49.78145" lon="2.23475">
        <ele>104.6</ele>
        <time>2022-10-07T13:30:31Z</time>
      </trkpt>
      <trkpt lat="49.78146" lon="2.23475">
        <ele>104.6</ele>
        <time>2022-10-07T13:30:32Z</time>
      </trkpt>
      <trkpt lat="49.78147" lon="2.23475">
        <ele>104.5</ele>
        <time>2022-10-07T13:30:33Z</time>
      </trkpt>
      <trkpt lat="49.78149" lon="2.23476">
        <ele>104.5</ele>
        <time>2022-10-07T13:30:34Z</time>
      </trkpt>
      <trkpt lat="49.78152" lon="2.23476">
        <ele>104.4</ele>
        <time>2022-10-07T13:30:36Z</time>
      </trkpt>
      <trkpt lat="49.78155" lon="2.23477">
        <ele>104.4</ele>
        <time>2022-10-07T13:30:37Z</time>
      </trkpt>
      <trkpt lat="49.78156" lon="2.23477">
        <ele>104.4</ele>
        <time>2022-10-07T13:30:38Z</time>
      </trkpt>
      <trkpt lat="49.78159" lon="2.23478">
        <ele>104.3</ele>
        <time>2022-10-07T13:30:39Z</time>
      </trkpt>
      <trkpt lat="49.78161" lon="2.23478">
        <ele>104.3</ele>
        <time>2022-10-07T13:30:40Z</time>
      </trkpt>
      <trkpt lat="49.78162" lon="2.23478">
        <ele>104.3</ele>
        <time>2022-10-07T13:30:41Z</time>
      </trkpt>
      <trkpt lat="49.78164" lon="2.23478">
        <ele>104.3</ele>
        <time>2022-10-07T13:30:42Z</time>
      </trkpt>
      <trkpt lat="49.78167" lon="2.23478">
        <ele>104.2</ele>
        <time>2022-10-07T13:30:44Z</time>
      </trkpt>
      <trkpt lat="49.78168" lon="2.23478">
        <ele>104.2</ele>
        <time>2022-10-07T13:30:45Z</time>
      </trkpt>
      <trkpt lat="49.7817" lon="2.23478">
        <ele>104.2</ele>
        <time>2022-10-07T13:30:46Z</time>
      </trkpt>
      <trkpt lat="49.78171" lon="2.23479">
        <ele>104.2</ele>
        <time>2022-10-07T13:30:47Z</time>
      </trkpt>
      <trkpt lat="49.78172" lon="2.23479">
        <ele>104.2</ele>
        <time>2022-10-07T13:30:48Z</time>
      </trkpt>
      <trkpt lat="49.78173" lon="2.23479">
        <ele>104.2</ele>
        <time>2022-10-07T13:30:49Z</time>
      </trkpt>
      <trkpt lat="49.78174" lon="2.23479">
        <ele>104.2</ele>
        <time>2022-10-07T13:30:50Z</time>
      </trkpt>
      <trkpt lat="49.78175" lon="2.2348">
        <ele>104.2</ele>
        <time>2022-10-07T13:30:51Z</time>
      </trkpt>
      <trkpt lat="49.78175" lon="2.2348">
        <ele>104.2</ele>
        <time>2022-10-07T13:30:52Z</time>
      </trkpt>
      <trkpt lat="49.78176" lon="2.23481">
        <ele>104.2</ele>
        <time>2022-10-07T13:30:53Z</time>
      </trkpt>
      <trkpt lat="49.78177" lon="2.23481">
        <ele>104.2</ele>
        <time>2022-10-07T13:30:54Z</time>
      </trkpt>
      <trkpt lat="49.78179" lon="2.23482">
        <ele>104.1</ele>
        <time>2022-10-07T13:30:55Z</time>
      </trkpt>
      <trkpt lat="49.7818" lon="2.23482">
        <ele>104.1</ele>
        <time>2022-10-07T13:30:56Z</time>
      </trkpt>
      <trkpt lat="49.78181" lon="2.23483">
        <ele>104.1</ele>
        <time>2022-10-07T13:30:58Z</time>
      </trkpt>
      <trkpt lat="49.78182" lon="2.23483">
        <ele>104.1</ele>
        <time>2022-10-07T13:30:59Z</time>
      </trkpt>
      <trkpt lat="49.78182" lon="2.23484">
        <ele>104.1</ele>
        <time>2022-10-07T13:31:00Z</time>
      </trkpt>
      <trkpt lat="49.78183" lon="2.23484">
        <ele>104.1</ele>
        <time>2022-10-07T13:31:01Z</time>
      </trkpt>
      <trkpt lat="49.78184" lon="2.23485">
        <ele>104.1</ele>
        <time>2022-10-07T13:31:02Z</time>
      </trkpt>
      <trkpt lat="49.78185" lon="2.23485">
        <ele>104.1</ele>
        <time>2022-10-07T13:31:03Z</time>
      </trkpt>
      <trkpt lat="49.78186" lon="2.23486">
        <ele>104.1</ele>
        <time>2022-10-07T13:31:04Z</time>
      </trkpt>
      <trkpt lat="49.78187" lon="2.23486">
        <ele>104.1</ele>
        <time>2022-10-07T13:31:06Z</time>
      </trkpt>
      <trkpt lat="49.78188" lon="2.23486">
        <ele>104.1</ele>
        <time>2022-10-07T13:31:07Z</time>
      </trkpt>
      <trkpt lat="49.78188" lon="2.23486">
        <ele>104.1</ele>
        <time>2022-10-07T13:31:08Z</time>
      </trkpt>
      <trkpt lat="49.78189" lon="2.23485">
        <ele>104.1</ele>
        <time>2022-10-07T13:31:09Z</time>
      </trkpt>
      <trkpt lat="49.7819" lon="2.23485">
        <ele>104.1</ele>
        <time>2022-10-07T13:31:10Z</time>
      </trkpt>
      <trkpt lat="49.7819" lon="2.23484">
        <ele>104.1</ele>
        <time>2022-10-07T13:31:11Z</time>
      </trkpt>
      <trkpt lat="49.78191" lon="2.23484">
        <ele>104.1</ele>
        <time>2022-10-07T13:31:12Z</time>
      </trkpt>
      <trkpt lat="49.78191" lon="2.23484">
        <ele>104.1</ele>
        <time>2022-10-07T13:31:13Z</time>
      </trkpt>
      <trkpt lat="49.78192" lon="2.23484">
        <ele>104.1</ele>
        <time>2022-10-07T13:31:14Z</time>
      </trkpt>
      <trkpt lat="49.78192" lon="2.23484">
        <ele>104.1</ele>
        <time>2022-10-07T13:31:15Z</time>
      </trkpt>
      <trkpt lat="49.78193" lon="2.23483">
        <ele>104.1</ele>
        <time>2022-10-07T13:31:16Z</time>
      </trkpt>
      <trkpt lat="49.78193" lon="2.23483">
        <ele>104.1</ele>
        <time>2022-10-07T13:31:17Z</time>
      </trkpt>
      <trkpt lat="49.78194" lon="2.23483">
        <ele>104.1</ele>
        <time>2022-10-07T13:31:19Z</time>
      </trkpt>
      <trkpt lat="49.78194" lon="2.23483">
        <ele>104.1</ele>
        <time>2022-10-07T13:31:20Z</time>
      </trkpt>
      <trkpt lat="49.78194" lon="2.23484">
        <ele>104.1</ele>
        <time>2022-10-07T13:31:21Z</time>
      </trkpt>
      <trkpt lat="49.78194" lon="2.23484">
        <ele>104.1</ele>
        <time>2022-10-07T13:31:22Z</time>
      </trkpt>
      <trkpt lat="49.78194" lon="2.23483">
        <ele>104.1</ele>
        <time>2022-10-07T13:31:24Z</time>
      </trkpt>
      <trkpt lat="49.78195" lon="2.23483">
        <ele>104.1</ele>
        <time>2022-10-07T13:31:25Z</time>
      </trkpt>
      <trkpt lat="49.78196" lon="2.23482">
        <ele>104.1</ele>
        <time>2022-10-07T13:31:26Z</time>
      </trkpt>
      <trkpt lat="49.78196" lon="2.23482">
        <ele>104.1</ele>
        <time>2022-10-07T13:31:27Z</time>
      </trkpt>
      <trkpt lat="49.78196" lon="2.23481">
        <ele>104.1</ele>
        <time>2022-10-07T13:31:28Z</time>
      </trkpt>
      <trkpt lat="49.78197" lon="2.23481">
        <ele>104.1</ele>
        <time>2022-10-07T13:31:29Z</time>
      </trkpt>
      <trkpt lat="49.78198" lon="2.23481">
        <ele>104.1</ele>
        <time>2022-10-07T13:31:30Z</time>
      </trkpt>
      <trkpt lat="49.78199" lon="2.23481">
        <ele>104.1</ele>
        <time>2022-10-07T13:31:31Z</time>
      </trkpt>
      <trkpt lat="49.78201" lon="2.23481">
        <ele>104.1</ele>
        <time>2022-10-07T13:31:33Z</time>
      </trkpt>
      <trkpt lat="49.78202" lon="2.23482">
        <ele>104.1</ele>
        <time>2022-10-07T13:31:34Z</time>
      </trkpt>
      <trkpt lat="49.78204" lon="2.23483">
        <ele>104.1</ele>
        <time>2022-10-07T13:31:35Z</time>
      </trkpt>
      <trkpt lat="49.78205" lon="2.23483">
        <ele>104.1</ele>
        <time>2022-10-07T13:31:36Z</time>
      </trkpt>
      <trkpt lat="49.78207" lon="2.23484">
        <ele>104.1</ele>
        <time>2022-10-07T13:31:37Z</time>
      </trkpt>
      <trkpt lat="49.7821" lon="2.23485">
        <ele>104.1</ele>
        <time>2022-10-07T13:31:38Z</time>
      </trkpt>
      <trkpt lat="49.78211" lon="2.23485">
        <ele>104.1</ele>
        <time>2022-10-07T13:31:39Z</time>
      </trkpt>
      <trkpt lat="49.78215" lon="2.23487">
        <ele>104.1</ele>
        <time>2022-10-07T13:31:41Z</time>
      </trkpt>
      <trkpt lat="49.78216" lon="2.23487">
        <ele>104</ele>
        <time>2022-10-07T13:31:42Z</time>
      </trkpt>
      <trkpt lat="49.78218" lon="2.23488">
        <ele>104</ele>
        <time>2022-10-07T13:31:43Z</time>
      </trkpt>
      <trkpt lat="49.78221" lon="2.23489">
        <ele>104</ele>
        <time>2022-10-07T13:31:44Z</time>
      </trkpt>
      <trkpt lat="49.78222" lon="2.2349">
        <ele>104</ele>
        <time>2022-10-07T13:31:45Z</time>
      </trkpt>
      <trkpt lat="49.78225" lon="2.23491">
        <ele>103.9</ele>
        <time>2022-10-07T13:31:47Z</time>
      </trkpt>
      <trkpt lat="49.78227" lon="2.23492">
        <ele>103.9</ele>
        <time>2022-10-07T13:31:48Z</time>
      </trkpt>
      <trkpt lat="49.7823" lon="2.23493">
        <ele>103.9</ele>
        <time>2022-10-07T13:31:49Z</time>
      </trkpt>
      <trkpt lat="49.78231" lon="2.23493">
        <ele>103.9</ele>
        <time>2022-10-07T13:31:50Z</time>
      </trkpt>
      <trkpt lat="49.78233" lon="2.23494">
        <ele>103.9</ele>
        <time>2022-10-07T13:31:51Z</time>
      </trkpt>
      <trkpt lat="49.78234" lon="2.23494">
        <ele>103.9</ele>
        <time>2022-10-07T13:31:52Z</time>
      </trkpt>
      <trkpt lat="49.78237" lon="2.23496">
        <ele>103.9</ele>
        <time>2022-10-07T13:31:54Z</time>
      </trkpt>
      <trkpt lat="49.78238" lon="2.23496">
        <ele>103.9</ele>
        <time>2022-10-07T13:31:55Z</time>
      </trkpt>
      <trkpt lat="49.7824" lon="2.23497">
        <ele>103.9</ele>
        <time>2022-10-07T13:31:56Z</time>
      </trkpt>
      <trkpt lat="49.78242" lon="2.23497">
        <ele>103.9</ele>
        <time>2022-10-07T13:31:57Z</time>
      </trkpt>
      <trkpt lat="49.78243" lon="2.23498">
        <ele>103.9</ele>
        <time>2022-10-07T13:31:58Z</time>
      </trkpt>
      <trkpt lat="49.78244" lon="2.23498">
        <ele>103.9</ele>
        <time>2022-10-07T13:31:59Z</time>
      </trkpt>
      <trkpt lat="49.78246" lon="2.23499">
        <ele>103.9</ele>
        <time>2022-10-07T13:32:00Z</time>
      </trkpt>
      <trkpt lat="49.78247" lon="2.235">
        <ele>103.9</ele>
        <time>2022-10-07T13:32:01Z</time>
      </trkpt>
      <trkpt lat="49.7825" lon="2.23501">
        <ele>103.9</ele>
        <time>2022-10-07T13:32:02Z</time>
      </trkpt>
      <trkpt lat="49.78251" lon="2.23501">
        <ele>103.9</ele>
        <time>2022-10-07T13:32:03Z</time>
      </trkpt>
      <trkpt lat="49.78252" lon="2.23502">
        <ele>103.9</ele>
        <time>2022-10-07T13:32:05Z</time>
      </trkpt>
      <trkpt lat="49.78253" lon="2.23503">
        <ele>103.9</ele>
        <time>2022-10-07T13:32:06Z</time>
      </trkpt>
      <trkpt lat="49.78254" lon="2.23504">
        <ele>103.9</ele>
        <time>2022-10-07T13:32:07Z</time>
      </trkpt>
      <trkpt lat="49.78255" lon="2.23504">
        <ele>103.9</ele>
        <time>2022-10-07T13:32:08Z</time>
      </trkpt>
      <trkpt lat="49.78256" lon="2.23505">
        <ele>103.9</ele>
        <time>2022-10-07T13:32:09Z</time>
      </trkpt>
      <trkpt lat="49.78257" lon="2.23505">
        <ele>103.9</ele>
        <time>2022-10-07T13:32:10Z</time>
      </trkpt>
      <trkpt lat="49.78259" lon="2.23506">
        <ele>103.9</ele>
        <time>2022-10-07T13:32:11Z</time>
      </trkpt>
      <trkpt lat="49.7826" lon="2.23507">
        <ele>103.9</ele>
        <time>2022-10-07T13:32:13Z</time>
      </trkpt>
      <trkpt lat="49.78261" lon="2.23507">
        <ele>103.9</ele>
        <time>2022-10-07T13:32:14Z</time>
      </trkpt>
      <trkpt lat="49.78262" lon="2.23508">
        <ele>103.9</ele>
        <time>2022-10-07T13:32:15Z</time>
      </trkpt>
      <trkpt lat="49.78263" lon="2.23508">
        <ele>103.9</ele>
        <time>2022-10-07T13:32:16Z</time>
      </trkpt>
      <trkpt lat="49.78263" lon="2.23508">
        <ele>103.9</ele>
        <time>2022-10-07T13:32:17Z</time>
      </trkpt>
      <trkpt lat="49.78266" lon="2.23509">
        <ele>103.9</ele>
        <time>2022-10-07T13:32:18Z</time>
      </trkpt>
      <trkpt lat="49.78266" lon="2.23509">
        <ele>103.9</ele>
        <time>2022-10-07T13:32:19Z</time>
      </trkpt>
      <trkpt lat="49.78267" lon="2.2351">
        <ele>103.9</ele>
        <time>2022-10-07T13:32:21Z</time>
      </trkpt>
      <trkpt lat="49.78268" lon="2.2351">
        <ele>103.9</ele>
        <time>2022-10-07T13:32:22Z</time>
      </trkpt>
      <trkpt lat="49.78269" lon="2.23511">
        <ele>103.9</ele>
        <time>2022-10-07T13:32:23Z</time>
      </trkpt>
      <trkpt lat="49.7827" lon="2.23511">
        <ele>103.9</ele>
        <time>2022-10-07T13:32:24Z</time>
      </trkpt>
      <trkpt lat="49.78271" lon="2.23511">
        <ele>103.9</ele>
        <time>2022-10-07T13:32:25Z</time>
      </trkpt>
      <trkpt lat="49.78272" lon="2.23512">
        <ele>103.9</ele>
        <time>2022-10-07T13:32:26Z</time>
      </trkpt>
      <trkpt lat="49.78273" lon="2.23512">
        <ele>103.9</ele>
        <time>2022-10-07T13:32:28Z</time>
      </trkpt>
      <trkpt lat="49.78275" lon="2.23513">
        <ele>103.9</ele>
        <time>2022-10-07T13:32:29Z</time>
      </trkpt>
      <trkpt lat="49.78276" lon="2.23514">
        <ele>103.9</ele>
        <time>2022-10-07T13:32:30Z</time>
      </trkpt>
      <trkpt lat="49.78278" lon="2.23515">
        <ele>103.9</ele>
        <time>2022-10-07T13:32:31Z</time>
      </trkpt>
      <trkpt lat="49.78281" lon="2.23516">
        <ele>103.9</ele>
        <time>2022-10-07T13:32:32Z</time>
      </trkpt>
      <trkpt lat="49.78282" lon="2.23516">
        <ele>103.9</ele>
        <time>2022-10-07T13:32:33Z</time>
      </trkpt>
      <trkpt lat="49.78283" lon="2.23517">
        <ele>103.9</ele>
        <time>2022-10-07T13:32:34Z</time>
      </trkpt>
      <trkpt lat="49.78285" lon="2.23518">
        <ele>103.9</ele>
        <time>2022-10-07T13:32:35Z</time>
      </trkpt>
      <trkpt lat="49.78287" lon="2.23519">
        <ele>104</ele>
        <time>2022-10-07T13:32:36Z</time>
      </trkpt>
      <trkpt lat="49.78289" lon="2.2352">
        <ele>104</ele>
        <time>2022-10-07T13:32:38Z</time>
      </trkpt>
      <trkpt lat="49.78291" lon="2.23521">
        <ele>104</ele>
        <time>2022-10-07T13:32:39Z</time>
      </trkpt>
      <trkpt lat="49.78292" lon="2.23522">
        <ele>104</ele>
        <time>2022-10-07T13:32:40Z</time>
      </trkpt>
      <trkpt lat="49.78294" lon="2.23523">
        <ele>104</ele>
        <time>2022-10-07T13:32:41Z</time>
      </trkpt>
      <trkpt lat="49.78295" lon="2.23524">
        <ele>104</ele>
        <time>2022-10-07T13:32:42Z</time>
      </trkpt>
      <trkpt lat="49.78298" lon="2.23526">
        <ele>104</ele>
        <time>2022-10-07T13:32:43Z</time>
      </trkpt>
      <trkpt lat="49.78298" lon="2.23526">
        <ele>104</ele>
        <time>2022-10-07T13:32:44Z</time>
      </trkpt>
      <trkpt lat="49.783" lon="2.23527">
        <ele>104.1</ele>
        <time>2022-10-07T13:32:45Z</time>
      </trkpt>
      <trkpt lat="49.78301" lon="2.23529">
        <ele>104.1</ele>
        <time>2022-10-07T13:32:46Z</time>
      </trkpt>
      <trkpt lat="49.78303" lon="2.2353">
        <ele>104.1</ele>
        <time>2022-10-07T13:32:47Z</time>
      </trkpt>
      <trkpt lat="49.78304" lon="2.23531">
        <ele>104.1</ele>
        <time>2022-10-07T13:32:48Z</time>
      </trkpt>
      <trkpt lat="49.78305" lon="2.23532">
        <ele>104.1</ele>
        <time>2022-10-07T13:32:49Z</time>
      </trkpt>
      <trkpt lat="49.78307" lon="2.23533">
        <ele>104.2</ele>
        <time>2022-10-07T13:32:50Z</time>
      </trkpt>
      <trkpt lat="49.78308" lon="2.23534">
        <ele>104.2</ele>
        <time>2022-10-07T13:32:51Z</time>
      </trkpt>
      <trkpt lat="49.78309" lon="2.23536">
        <ele>104.2</ele>
        <time>2022-10-07T13:32:52Z</time>
      </trkpt>
      <trkpt lat="49.7831" lon="2.23537">
        <ele>104.2</ele>
        <time>2022-10-07T13:32:54Z</time>
      </trkpt>
      <trkpt lat="49.78312" lon="2.23538">
        <ele>104.2</ele>
        <time>2022-10-07T13:32:55Z</time>
      </trkpt>
      <trkpt lat="49.78313" lon="2.23539">
        <ele>104.3</ele>
        <time>2022-10-07T13:32:56Z</time>
      </trkpt>
      <trkpt lat="49.78315" lon="2.23539">
        <ele>104.3</ele>
        <time>2022-10-07T13:32:57Z</time>
      </trkpt>
      <trkpt lat="49.78316" lon="2.23541">
        <ele>104.3</ele>
        <time>2022-10-07T13:32:58Z</time>
      </trkpt>
      <trkpt lat="49.78318" lon="2.23542">
        <ele>104.3</ele>
        <time>2022-10-07T13:32:59Z</time>
      </trkpt>
      <trkpt lat="49.78319" lon="2.23542">
        <ele>104.3</ele>
        <time>2022-10-07T13:33:00Z</time>
      </trkpt>
      <trkpt lat="49.78321" lon="2.23544">
        <ele>104.4</ele>
        <time>2022-10-07T13:33:01Z</time>
      </trkpt>
      <trkpt lat="49.78324" lon="2.23546">
        <ele>104.4</ele>
        <time>2022-10-07T13:33:02Z</time>
      </trkpt>
      <trkpt lat="49.78325" lon="2.23546">
        <ele>104.4</ele>
        <time>2022-10-07T13:33:03Z</time>
      </trkpt>
      <trkpt lat="49.78326" lon="2.23547">
        <ele>104.4</ele>
        <time>2022-10-07T13:33:04Z</time>
      </trkpt>
      <trkpt lat="49.78327" lon="2.23548">
        <ele>104.4</ele>
        <time>2022-10-07T13:33:05Z</time>
      </trkpt>
      <trkpt lat="49.78329" lon="2.23549">
        <ele>104.5</ele>
        <time>2022-10-07T13:33:06Z</time>
      </trkpt>
      <trkpt lat="49.78332" lon="2.23551">
        <ele>104.5</ele>
        <time>2022-10-07T13:33:08Z</time>
      </trkpt>
      <trkpt lat="49.78334" lon="2.23552">
        <ele>104.5</ele>
        <time>2022-10-07T13:33:09Z</time>
      </trkpt>
      <trkpt lat="49.78335" lon="2.23553">
        <ele>104.6</ele>
        <time>2022-10-07T13:33:10Z</time>
      </trkpt>
      <trkpt lat="49.78335" lon="2.23554">
        <ele>104.6</ele>
        <time>2022-10-07T13:33:11Z</time>
      </trkpt>
      <trkpt lat="49.78336" lon="2.23554">
        <ele>104.6</ele>
        <time>2022-10-07T13:33:12Z</time>
      </trkpt>
      <trkpt lat="49.78338" lon="2.23556">
        <ele>104.7</ele>
        <time>2022-10-07T13:33:13Z</time>
      </trkpt>
      <trkpt lat="49.7834" lon="2.23557">
        <ele>104.7</ele>
        <time>2022-10-07T13:33:14Z</time>
      </trkpt>
      <trkpt lat="49.78341" lon="2.23558">
        <ele>104.8</ele>
        <time>2022-10-07T13:33:16Z</time>
      </trkpt>
      <trkpt lat="49.78342" lon="2.23559">
        <ele>104.8</ele>
        <time>2022-10-07T13:33:17Z</time>
      </trkpt>
      <trkpt lat="49.78344" lon="2.23561">
        <ele>104.9</ele>
        <time>2022-10-07T13:33:18Z</time>
      </trkpt>
      <trkpt lat="49.78345" lon="2.23561">
        <ele>104.9</ele>
        <time>2022-10-07T13:33:19Z</time>
      </trkpt>
      <trkpt lat="49.78346" lon="2.23563">
        <ele>105</ele>
        <time>2022-10-07T13:33:20Z</time>
      </trkpt>
      <trkpt lat="49.78348" lon="2.23564">
        <ele>105</ele>
        <time>2022-10-07T13:33:22Z</time>
      </trkpt>
      <trkpt lat="49.78349" lon="2.23566">
        <ele>105.1</ele>
        <time>2022-10-07T13:33:23Z</time>
      </trkpt>
      <trkpt lat="49.7835" lon="2.23567">
        <ele>105.1</ele>
        <time>2022-10-07T13:33:24Z</time>
      </trkpt>
      <trkpt lat="49.78351" lon="2.23567">
        <ele>105.1</ele>
        <time>2022-10-07T13:33:25Z</time>
      </trkpt>
      <trkpt lat="49.78352" lon="2.23568">
        <ele>105.2</ele>
        <time>2022-10-07T13:33:26Z</time>
      </trkpt>
      <trkpt lat="49.78353" lon="2.23569">
        <ele>105.2</ele>
        <time>2022-10-07T13:33:27Z</time>
      </trkpt>
      <trkpt lat="49.78354" lon="2.2357">
        <ele>105.3</ele>
        <time>2022-10-07T13:33:28Z</time>
      </trkpt>
      <trkpt lat="49.78355" lon="2.23571">
        <ele>105.3</ele>
        <time>2022-10-07T13:33:29Z</time>
      </trkpt>
      <trkpt lat="49.78356" lon="2.23572">
        <ele>105.3</ele>
        <time>2022-10-07T13:33:30Z</time>
      </trkpt>
      <trkpt lat="49.78357" lon="2.23573">
        <ele>105.4</ele>
        <time>2022-10-07T13:33:31Z</time>
      </trkpt>
      <trkpt lat="49.78358" lon="2.23575">
        <ele>105.4</ele>
        <time>2022-10-07T13:33:32Z</time>
      </trkpt>
      <trkpt lat="49.78359" lon="2.23576">
        <ele>105.5</ele>
        <time>2022-10-07T13:33:33Z</time>
      </trkpt>
      <trkpt lat="49.7836" lon="2.23577">
        <ele>105.5</ele>
        <time>2022-10-07T13:33:35Z</time>
      </trkpt>
      <trkpt lat="49.78361" lon="2.23578">
        <ele>105.6</ele>
        <time>2022-10-07T13:33:36Z</time>
      </trkpt>
      <trkpt lat="49.78361" lon="2.23578">
        <ele>105.6</ele>
        <time>2022-10-07T13:33:37Z</time>
      </trkpt>
      <trkpt lat="49.78362" lon="2.23579">
        <ele>105.6</ele>
        <time>2022-10-07T13:33:38Z</time>
      </trkpt>
      <trkpt lat="49.78363" lon="2.2358">
        <ele>105.7</ele>
        <time>2022-10-07T13:33:39Z</time>
      </trkpt>
      <trkpt lat="49.78365" lon="2.23581">
        <ele>105.8</ele>
        <time>2022-10-07T13:33:40Z</time>
      </trkpt>
      <trkpt lat="49.78366" lon="2.23582">
        <ele>105.8</ele>
        <time>2022-10-07T13:33:42Z</time>
      </trkpt>
      <trkpt lat="49.78367" lon="2.23582">
        <ele>105.8</ele>
        <time>2022-10-07T13:33:43Z</time>
      </trkpt>
      <trkpt lat="49.78368" lon="2.23583">
        <ele>105.9</ele>
        <time>2022-10-07T13:33:44Z</time>
      </trkpt>
      <trkpt lat="49.78368" lon="2.23584">
        <ele>105.9</ele>
        <time>2022-10-07T13:33:46Z</time>
      </trkpt>
      <trkpt lat="49.78369" lon="2.23584">
        <ele>105.9</ele>
        <time>2022-10-07T13:33:47Z</time>
      </trkpt>
      <trkpt lat="49.7837" lon="2.23585">
        <ele>106</ele>
        <time>2022-10-07T13:33:48Z</time>
      </trkpt>
      <trkpt lat="49.7837" lon="2.23584">
        <ele>106</ele>
        <time>2022-10-07T13:33:49Z</time>
      </trkpt>
      <trkpt lat="49.78371" lon="2.23584">
        <ele>106.1</ele>
        <time>2022-10-07T13:33:50Z</time>
      </trkpt>
      <trkpt lat="49.78372" lon="2.23585">
        <ele>106.1</ele>
        <time>2022-10-07T13:33:51Z</time>
      </trkpt>
      <trkpt lat="49.78373" lon="2.23586">
        <ele>106.2</ele>
        <time>2022-10-07T13:33:52Z</time>
      </trkpt>
      <trkpt lat="49.78374" lon="2.23587">
        <ele>106.2</ele>
        <time>2022-10-07T13:33:54Z</time>
      </trkpt>
      <trkpt lat="49.78375" lon="2.23588">
        <ele>106.3</ele>
        <time>2022-10-07T13:33:55Z</time>
      </trkpt>
      <trkpt lat="49.78375" lon="2.23588">
        <ele>106.3</ele>
        <time>2022-10-07T13:33:56Z</time>
      </trkpt>
      <trkpt lat="49.78376" lon="2.23589">
        <ele>106.3</ele>
        <time>2022-10-07T13:33:57Z</time>
      </trkpt>
      <trkpt lat="49.78377" lon="2.2359">
        <ele>106.4</ele>
        <time>2022-10-07T13:33:58Z</time>
      </trkpt>
      <trkpt lat="49.78378" lon="2.23591">
        <ele>106.5</ele>
        <time>2022-10-07T13:33:59Z</time>
      </trkpt>
      <trkpt lat="49.78378" lon="2.23592">
        <ele>106.5</ele>
        <time>2022-10-07T13:34:01Z</time>
      </trkpt>
      <trkpt lat="49.78379" lon="2.23593">
        <ele>106.6</ele>
        <time>2022-10-07T13:34:02Z</time>
      </trkpt>
      <trkpt lat="49.7838" lon="2.23594">
        <ele>106.6</ele>
        <time>2022-10-07T13:34:03Z</time>
      </trkpt>
      <trkpt lat="49.78381" lon="2.23595">
        <ele>106.7</ele>
        <time>2022-10-07T13:34:04Z</time>
      </trkpt>
      <trkpt lat="49.78381" lon="2.23595">
        <ele>106.7</ele>
        <time>2022-10-07T13:34:05Z</time>
      </trkpt>
      <trkpt lat="49.78382" lon="2.23596">
        <ele>106.7</ele>
        <time>2022-10-07T13:34:07Z</time>
      </trkpt>
      <trkpt lat="49.78382" lon="2.23596">
        <ele>106.8</ele>
        <time>2022-10-07T13:34:08Z</time>
      </trkpt>
      <trkpt lat="49.78383" lon="2.23597">
        <ele>106.8</ele>
        <time>2022-10-07T13:34:10Z</time>
      </trkpt>
      <trkpt lat="49.78384" lon="2.23598">
        <ele>106.9</ele>
        <time>2022-10-07T13:34:11Z</time>
      </trkpt>
      <trkpt lat="49.78385" lon="2.23599">
        <ele>107</ele>
        <time>2022-10-07T13:34:12Z</time>
      </trkpt>
      <trkpt lat="49.78387" lon="2.23601">
        <ele>107.1</ele>
        <time>2022-10-07T13:34:13Z</time>
      </trkpt>
      <trkpt lat="49.78388" lon="2.23601">
        <ele>107.1</ele>
        <time>2022-10-07T13:34:14Z</time>
      </trkpt>
      <trkpt lat="49.78388" lon="2.23602">
        <ele>107.2</ele>
        <time>2022-10-07T13:34:15Z</time>
      </trkpt>
      <trkpt lat="49.7839" lon="2.23603">
        <ele>107.3</ele>
        <time>2022-10-07T13:34:17Z</time>
      </trkpt>
      <trkpt lat="49.78391" lon="2.23604">
        <ele>107.3</ele>
        <time>2022-10-07T13:34:18Z</time>
      </trkpt>
      <trkpt lat="49.78392" lon="2.23605">
        <ele>107.4</ele>
        <time>2022-10-07T13:34:19Z</time>
      </trkpt>
      <trkpt lat="49.78393" lon="2.23605">
        <ele>107.4</ele>
        <time>2022-10-07T13:34:20Z</time>
      </trkpt>
      <trkpt lat="49.78394" lon="2.23606">
        <ele>107.5</ele>
        <time>2022-10-07T13:34:21Z</time>
      </trkpt>
      <trkpt lat="49.78395" lon="2.23607">
        <ele>107.6</ele>
        <time>2022-10-07T13:34:22Z</time>
      </trkpt>
      <trkpt lat="49.78396" lon="2.23608">
        <ele>107.7</ele>
        <time>2022-10-07T13:34:24Z</time>
      </trkpt>
      <trkpt lat="49.78397" lon="2.23609">
        <ele>107.7</ele>
        <time>2022-10-07T13:34:25Z</time>
      </trkpt>
      <trkpt lat="49.784" lon="2.23609">
        <ele>107.8</ele>
        <time>2022-10-07T13:34:26Z</time>
      </trkpt>
      <trkpt lat="49.78401" lon="2.2361">
        <ele>107.9</ele>
        <time>2022-10-07T13:34:27Z</time>
      </trkpt>
      <trkpt lat="49.78402" lon="2.2361">
        <ele>107.9</ele>
        <time>2022-10-07T13:34:28Z</time>
      </trkpt>
      <trkpt lat="49.78402" lon="2.23611">
        <ele>108</ele>
        <time>2022-10-07T13:34:29Z</time>
      </trkpt>
      <trkpt lat="49.78403" lon="2.23612">
        <ele>108</ele>
        <time>2022-10-07T13:34:31Z</time>
      </trkpt>
      <trkpt lat="49.78404" lon="2.23613">
        <ele>108.1</ele>
        <time>2022-10-07T13:34:32Z</time>
      </trkpt>
      <trkpt lat="49.78405" lon="2.23613">
        <ele>108.1</ele>
        <time>2022-10-07T13:34:33Z</time>
      </trkpt>
      <trkpt lat="49.78406" lon="2.23614">
        <ele>108.1</ele>
        <time>2022-10-07T13:34:34Z</time>
      </trkpt>
      <trkpt lat="49.78406" lon="2.23615">
        <ele>108.2</ele>
        <time>2022-10-07T13:34:35Z</time>
      </trkpt>
      <trkpt lat="49.78407" lon="2.23616">
        <ele>108.2</ele>
        <time>2022-10-07T13:34:36Z</time>
      </trkpt>
      <trkpt lat="49.78408" lon="2.23616">
        <ele>108.3</ele>
        <time>2022-10-07T13:34:38Z</time>
      </trkpt>
      <trkpt lat="49.78408" lon="2.23617">
        <ele>108.3</ele>
        <time>2022-10-07T13:34:39Z</time>
      </trkpt>
      <trkpt lat="49.78409" lon="2.23618">
        <ele>108.3</ele>
        <time>2022-10-07T13:34:40Z</time>
      </trkpt>
      <trkpt lat="49.7841" lon="2.23621">
        <ele>108.4</ele>
        <time>2022-10-07T13:34:41Z</time>
      </trkpt>
      <trkpt lat="49.78411" lon="2.23622">
        <ele>108.5</ele>
        <time>2022-10-07T13:34:42Z</time>
      </trkpt>
      <trkpt lat="49.78412" lon="2.23623">
        <ele>108.5</ele>
        <time>2022-10-07T13:34:43Z</time>
      </trkpt>
      <trkpt lat="49.78413" lon="2.23624">
        <ele>108.6</ele>
        <time>2022-10-07T13:34:45Z</time>
      </trkpt>
      <trkpt lat="49.78414" lon="2.23625">
        <ele>108.6</ele>
        <time>2022-10-07T13:34:46Z</time>
      </trkpt>
      <trkpt lat="49.78415" lon="2.23626">
        <ele>108.7</ele>
        <time>2022-10-07T13:34:47Z</time>
      </trkpt>
      <trkpt lat="49.78418" lon="2.23628">
        <ele>108.8</ele>
        <time>2022-10-07T13:34:48Z</time>
      </trkpt>
      <trkpt lat="49.78418" lon="2.23629">
        <ele>108.9</ele>
        <time>2022-10-07T13:34:49Z</time>
      </trkpt>
      <trkpt lat="49.78419" lon="2.2363">
        <ele>108.9</ele>
        <time>2022-10-07T13:34:50Z</time>
      </trkpt>
      <trkpt lat="49.78421" lon="2.23632">
        <ele>109</ele>
        <time>2022-10-07T13:34:52Z</time>
      </trkpt>
      <trkpt lat="49.78421" lon="2.23633">
        <ele>109.1</ele>
        <time>2022-10-07T13:34:53Z</time>
      </trkpt>
      <trkpt lat="49.78422" lon="2.23635">
        <ele>109.1</ele>
        <time>2022-10-07T13:34:54Z</time>
      </trkpt>
      <trkpt lat="49.78421" lon="2.23637">
        <ele>109.2</ele>
        <time>2022-10-07T13:34:55Z</time>
      </trkpt>
      <trkpt lat="49.78421" lon="2.23639">
        <ele>109.3</ele>
        <time>2022-10-07T13:34:56Z</time>
      </trkpt>
      <trkpt lat="49.78419" lon="2.23642">
        <ele>109.4</ele>
        <time>2022-10-07T13:34:58Z</time>
      </trkpt>
      <trkpt lat="49.78419" lon="2.23643">
        <ele>109.5</ele>
        <time>2022-10-07T13:34:59Z</time>
      </trkpt>
      <trkpt lat="49.78418" lon="2.23644">
        <ele>109.5</ele>
        <time>2022-10-07T13:35:00Z</time>
      </trkpt>
      <trkpt lat="49.78417" lon="2.23645">
        <ele>109.6</ele>
        <time>2022-10-07T13:35:01Z</time>
      </trkpt>
      <trkpt lat="49.78416" lon="2.23646">
        <ele>109.6</ele>
        <time>2022-10-07T13:35:02Z</time>
      </trkpt>
      <trkpt lat="49.78416" lon="2.23647">
        <ele>109.7</ele>
        <time>2022-10-07T13:35:03Z</time>
      </trkpt>
      <trkpt lat="49.78416" lon="2.23647">
        <ele>109.7</ele>
        <time>2022-10-07T13:35:04Z</time>
      </trkpt>
      <trkpt lat="49.78416" lon="2.23647">
        <ele>109.7</ele>
        <time>2022-10-07T13:35:05Z</time>
      </trkpt>
      <trkpt lat="49.78416" lon="2.23647">
        <ele>109.7</ele>
        <time>2022-10-07T13:35:06Z</time>
      </trkpt>
      <trkpt lat="49.78416" lon="2.23647">
        <ele>109.7</ele>
        <time>2022-10-07T13:35:07Z</time>
      </trkpt>
      <trkpt lat="49.78416" lon="2.23646">
        <ele>109.7</ele>
        <time>2022-10-07T13:35:08Z</time>
      </trkpt>
      <trkpt lat="49.78416" lon="2.23646">
        <ele>109.7</ele>
        <time>2022-10-07T13:35:09Z</time>
      </trkpt>
      <trkpt lat="49.78415" lon="2.23646">
        <ele>109.7</ele>
        <time>2022-10-07T13:35:10Z</time>
      </trkpt>
      <trkpt lat="49.78415" lon="2.23645">
        <ele>109.8</ele>
        <time>2022-10-07T13:35:11Z</time>
      </trkpt>
      <trkpt lat="49.78415" lon="2.23645">
        <ele>109.8</ele>
        <time>2022-10-07T13:35:12Z</time>
      </trkpt>
      <trkpt lat="49.78415" lon="2.23645">
        <ele>109.8</ele>
        <time>2022-10-07T13:35:13Z</time>
      </trkpt>
      <trkpt lat="49.78415" lon="2.23645">
        <ele>109.8</ele>
        <time>2022-10-07T13:35:14Z</time>
      </trkpt>
      <trkpt lat="49.78415" lon="2.23644">
        <ele>109.8</ele>
        <time>2022-10-07T13:35:15Z</time>
      </trkpt>
      <trkpt lat="49.78415" lon="2.23644">
        <ele>109.8</ele>
        <time>2022-10-07T13:35:16Z</time>
      </trkpt>
      <trkpt lat="49.78415" lon="2.23643">
        <ele>109.8</ele>
        <time>2022-10-07T13:35:17Z</time>
      </trkpt>
      <trkpt lat="49.78415" lon="2.23643">
        <ele>109.9</ele>
        <time>2022-10-07T13:35:18Z</time>
      </trkpt>
      <trkpt lat="49.78416" lon="2.23641">
        <ele>110</ele>
        <time>2022-10-07T13:35:19Z</time>
      </trkpt>
      <trkpt lat="49.78417" lon="2.23639">
        <ele>110</ele>
        <time>2022-10-07T13:35:20Z</time>
      </trkpt>
      <trkpt lat="49.78417" lon="2.23637">
        <ele>110.1</ele>
        <time>2022-10-07T13:35:21Z</time>
      </trkpt>
      <trkpt lat="49.78418" lon="2.23636">
        <ele>110.2</ele>
        <time>2022-10-07T13:35:22Z</time>
      </trkpt>
      <trkpt lat="49.78418" lon="2.23635">
        <ele>110.2</ele>
        <time>2022-10-07T13:35:23Z</time>
      </trkpt>
      <trkpt lat="49.78418" lon="2.23634">
        <ele>110.2</ele>
        <time>2022-10-07T13:35:24Z</time>
      </trkpt>
      <trkpt lat="49.78418" lon="2.23634">
        <ele>110.2</ele>
        <time>2022-10-07T13:35:25Z</time>
      </trkpt>
      <trkpt lat="49.78418" lon="2.23634">
        <ele>110.2</ele>
        <time>2022-10-07T13:35:26Z</time>
      </trkpt>
      <trkpt lat="49.78418" lon="2.23634">
        <ele>110.3</ele>
        <time>2022-10-07T13:35:27Z</time>
      </trkpt>
      <trkpt lat="49.78418" lon="2.23634">
        <ele>110.3</ele>
        <time>2022-10-07T13:35:28Z</time>
      </trkpt>
      <trkpt lat="49.78418" lon="2.23633">
        <ele>110.3</ele>
        <time>2022-10-07T13:35:29Z</time>
      </trkpt>
      <trkpt lat="49.78418" lon="2.23633">
        <ele>110.3</ele>
        <time>2022-10-07T13:35:30Z</time>
      </trkpt>
      <trkpt lat="49.78418" lon="2.23633">
        <ele>110.3</ele>
        <time>2022-10-07T13:35:31Z</time>
      </trkpt>
      <trkpt lat="49.78418" lon="2.23633">
        <ele>110.3</ele>
        <time>2022-10-07T13:35:32Z</time>
      </trkpt>
      <trkpt lat="49.78419" lon="2.23633">
        <ele>110.3</ele>
        <time>2022-10-07T13:35:33Z</time>
      </trkpt>
      <trkpt lat="49.78419" lon="2.23633">
        <ele>110.3</ele>
        <time>2022-10-07T13:35:34Z</time>
      </trkpt>
      <trkpt lat="49.78418" lon="2.23634">
        <ele>110.4</ele>
        <time>2022-10-07T13:35:35Z</time>
      </trkpt>
      <trkpt lat="49.78418" lon="2.23634">
        <ele>110.4</ele>
        <time>2022-10-07T13:35:36Z</time>
      </trkpt>
      <trkpt lat="49.78418" lon="2.23633">
        <ele>110.4</ele>
        <time>2022-10-07T13:35:37Z</time>
      </trkpt>
      <trkpt lat="49.78418" lon="2.23634">
        <ele>110.4</ele>
        <time>2022-10-07T13:35:39Z</time>
      </trkpt>
      <trkpt lat="49.78418" lon="2.23634">
        <ele>110.5</ele>
        <time>2022-10-07T13:35:40Z</time>
      </trkpt>
      <trkpt lat="49.78418" lon="2.23633">
        <ele>110.5</ele>
        <time>2022-10-07T13:35:41Z</time>
      </trkpt>
      <trkpt lat="49.78418" lon="2.23633">
        <ele>110.5</ele>
        <time>2022-10-07T13:35:42Z</time>
      </trkpt>
      <trkpt lat="49.78418" lon="2.23633">
        <ele>110.5</ele>
        <time>2022-10-07T13:35:43Z</time>
      </trkpt>
      <trkpt lat="49.78418" lon="2.23633">
        <ele>110.5</ele>
        <time>2022-10-07T13:35:44Z</time>
      </trkpt>
      <trkpt lat="49.78418" lon="2.23633">
        <ele>110.5</ele>
        <time>2022-10-07T13:35:45Z</time>
      </trkpt>
      <trkpt lat="49.78418" lon="2.23633">
        <ele>110.5</ele>
        <time>2022-10-07T13:35:46Z</time>
      </trkpt>
      <trkpt lat="49.78418" lon="2.23633">
        <ele>110.5</ele>
        <time>2022-10-07T13:35:47Z</time>
      </trkpt>
      <trkpt lat="49.78418" lon="2.23633">
        <ele>110.5</ele>
        <time>2022-10-07T13:35:48Z</time>
      </trkpt>
      <trkpt lat="49.78418" lon="2.23633">
        <ele>110.5</ele>
        <time>2022-10-07T13:35:49Z</time>
      </trkpt>
      <trkpt lat="49.78418" lon="2.23632">
        <ele>110.5</ele>
        <time>2022-10-07T13:35:50Z</time>
      </trkpt>
      <trkpt lat="49.78418" lon="2.23632">
        <ele>110.6</ele>
        <time>2022-10-07T13:35:51Z</time>
      </trkpt>
      <trkpt lat="49.78418" lon="2.23632">
        <ele>110.6</ele>
        <time>2022-10-07T13:35:52Z</time>
      </trkpt>
      <trkpt lat="49.78418" lon="2.23632">
        <ele>110.6</ele>
        <time>2022-10-07T13:35:53Z</time>
      </trkpt>
      <trkpt lat="49.78418" lon="2.23632">
        <ele>110.6</ele>
        <time>2022-10-07T13:35:54Z</time>
      </trkpt>
      <trkpt lat="49.78418" lon="2.23632">
        <ele>110.6</ele>
        <time>2022-10-07T13:35:56Z</time>
      </trkpt>
      <trkpt lat="49.78418" lon="2.23632">
        <ele>110.6</ele>
        <time>2022-10-07T13:35:57Z</time>
      </trkpt>
      <trkpt lat="49.78418" lon="2.23632">
        <ele>110.6</ele>
        <time>2022-10-07T13:35:59Z</time>
      </trkpt>
      <trkpt lat="49.78418" lon="2.23632">
        <ele>110.6</ele>
        <time>2022-10-07T13:36:00Z</time>
      </trkpt>
      <trkpt lat="49.78418" lon="2.23632">
        <ele>110.6</ele>
        <time>2022-10-07T13:36:01Z</time>
      </trkpt>
      <trkpt lat="49.78418" lon="2.23632">
        <ele>110.6</ele>
        <time>2022-10-07T13:36:02Z</time>
      </trkpt>
      <trkpt lat="49.78418" lon="2.23632">
        <ele>110.6</ele>
        <time>2022-10-07T13:36:03Z</time>
      </trkpt>
      <trkpt lat="49.78418" lon="2.23632">
        <ele>110.6</ele>
        <time>2022-10-07T13:36:04Z</time>
      </trkpt>
      <trkpt lat="49.78418" lon="2.23632">
        <ele>110.6</ele>
        <time>2022-10-07T13:36:05Z</time>
      </trkpt>
      <trkpt lat="49.78418" lon="2.23632">
        <ele>110.6</ele>
        <time>2022-10-07T13:36:06Z</time>
      </trkpt>
      <trkpt lat="49.78418" lon="2.23632">
        <ele>110.7</ele>
        <time>2022-10-07T13:36:07Z</time>
      </trkpt>
      <trkpt lat="49.78418" lon="2.23632">
        <ele>110.7</ele>
        <time>2022-10-07T13:36:08Z</time>
      </trkpt>
      <trkpt lat="49.78418" lon="2.23632">
        <ele>110.7</ele>
        <time>2022-10-07T13:36:09Z</time>
      </trkpt>
      <trkpt lat="49.78418" lon="2.23632">
        <ele>110.7</ele>
        <time>2022-10-07T13:36:10Z</time>
      </trkpt>
      <trkpt lat="49.78418" lon="2.23632">
        <ele>110.7</ele>
        <time>2022-10-07T13:36:11Z</time>
      </trkpt>
      <trkpt lat="49.78419" lon="2.23632">
        <ele>110.7</ele>
        <time>2022-10-07T13:36:12Z</time>
      </trkpt>
      <trkpt lat="49.78419" lon="2.23632">
        <ele>110.7</ele>
        <time>2022-10-07T13:36:13Z</time>
      </trkpt>
      <trkpt lat="49.78419" lon="2.23632">
        <ele>110.7</ele>
        <time>2022-10-07T13:36:14Z</time>
      </trkpt>
      <trkpt lat="49.78419" lon="2.23632">
        <ele>110.7</ele>
        <time>2022-10-07T13:36:15Z</time>
      </trkpt>
      <trkpt lat="49.78419" lon="2.23632">
        <ele>110.7</ele>
        <time>2022-10-07T13:36:16Z</time>
      </trkpt>
      <trkpt lat="49.78419" lon="2.23632">
        <ele>110.7</ele>
        <time>2022-10-07T13:36:17Z</time>
      </trkpt>
      <trkpt lat="49.78419" lon="2.23632">
        <ele>110.7</ele>
        <time>2022-10-07T13:36:18Z</time>
      </trkpt>
      <trkpt lat="49.78419" lon="2.23632">
        <ele>110.7</ele>
        <time>2022-10-07T13:36:19Z</time>
      </trkpt>
      <trkpt lat="49.78419" lon="2.23632">
        <ele>110.7</ele>
        <time>2022-10-07T13:36:20Z</time>
      </trkpt>
      <trkpt lat="49.78419" lon="2.23633">
        <ele>110.7</ele>
        <time>2022-10-07T13:36:21Z</time>
      </trkpt>
      <trkpt lat="49.78419" lon="2.23632">
        <ele>110.7</ele>
        <time>2022-10-07T13:36:22Z</time>
      </trkpt>
      <trkpt lat="49.78419" lon="2.23632">
        <ele>110.7</ele>
        <time>2022-10-07T13:36:23Z</time>
      </trkpt>
      <trkpt lat="49.78419" lon="2.23632">
        <ele>110.7</ele>
        <time>2022-10-07T13:36:24Z</time>
      </trkpt>
      <trkpt lat="49.7842" lon="2.23632">
        <ele>110.8</ele>
        <time>2022-10-07T13:36:25Z</time>
      </trkpt>
      <trkpt lat="49.7842" lon="2.23632">
        <ele>110.8</ele>
        <time>2022-10-07T13:36:26Z</time>
      </trkpt>
      <trkpt lat="49.7842" lon="2.23632">
        <ele>110.8</ele>
        <time>2022-10-07T13:36:27Z</time>
      </trkpt>
      <trkpt lat="49.78421" lon="2.23632">
        <ele>110.8</ele>
        <time>2022-10-07T13:36:29Z</time>
      </trkpt>
      <trkpt lat="49.78421" lon="2.23633">
        <ele>110.8</ele>
        <time>2022-10-07T13:36:30Z</time>
      </trkpt>
      <trkpt lat="49.78421" lon="2.23633">
        <ele>110.9</ele>
        <time>2022-10-07T13:36:31Z</time>
      </trkpt>
      <trkpt lat="49.78421" lon="2.23635">
        <ele>110.9</ele>
        <time>2022-10-07T13:36:33Z</time>
      </trkpt>
      <trkpt lat="49.78421" lon="2.23635">
        <ele>110.9</ele>
        <time>2022-10-07T13:36:35Z</time>
      </trkpt>
      <trkpt lat="49.78421" lon="2.23635">
        <ele>110.9</ele>
        <time>2022-10-07T13:36:36Z</time>
      </trkpt>
      <trkpt lat="49.78421" lon="2.23635">
        <ele>110.9</ele>
        <time>2022-10-07T13:36:37Z</time>
      </trkpt>
      <trkpt lat="49.78421" lon="2.23635">
        <ele>111</ele>
        <time>2022-10-07T13:36:38Z</time>
      </trkpt>
      <trkpt lat="49.78421" lon="2.23634">
        <ele>111</ele>
        <time>2022-10-07T13:36:39Z</time>
      </trkpt>
      <trkpt lat="49.78421" lon="2.23633">
        <ele>111</ele>
        <time>2022-10-07T13:36:41Z</time>
      </trkpt>
      <trkpt lat="49.78421" lon="2.23633">
        <ele>111</ele>
        <time>2022-10-07T13:36:42Z</time>
      </trkpt>
      <trkpt lat="49.78421" lon="2.23632">
        <ele>111</ele>
        <time>2022-10-07T13:36:43Z</time>
      </trkpt>
      <trkpt lat="49.78421" lon="2.23632">
        <ele>111.1</ele>
        <time>2022-10-07T13:36:44Z</time>
      </trkpt>
      <trkpt lat="49.78421" lon="2.23632">
        <ele>111.1</ele>
        <time>2022-10-07T13:36:45Z</time>
      </trkpt>
      <trkpt lat="49.78421" lon="2.23631">
        <ele>111.1</ele>
        <time>2022-10-07T13:36:46Z</time>
      </trkpt>
      <trkpt lat="49.78421" lon="2.23631">
        <ele>111.1</ele>
        <time>2022-10-07T13:36:47Z</time>
      </trkpt>
      <trkpt lat="49.78422" lon="2.23631">
        <ele>111.1</ele>
        <time>2022-10-07T13:36:48Z</time>
      </trkpt>
      <trkpt lat="49.78422" lon="2.23633">
        <ele>111.2</ele>
        <time>2022-10-07T13:36:50Z</time>
      </trkpt>
      <trkpt lat="49.78421" lon="2.23634">
        <ele>111.2</ele>
        <time>2022-10-07T13:36:52Z</time>
      </trkpt>
      <trkpt lat="49.78421" lon="2.23634">
        <ele>111.2</ele>
        <time>2022-10-07T13:36:53Z</time>
      </trkpt>
      <trkpt lat="49.78422" lon="2.23634">
        <ele>111.2</ele>
        <time>2022-10-07T13:36:54Z</time>
      </trkpt>
      <trkpt lat="49.78422" lon="2.23635">
        <ele>111.3</ele>
        <time>2022-10-07T13:36:55Z</time>
      </trkpt>
      <trkpt lat="49.78422" lon="2.23635">
        <ele>111.3</ele>
        <time>2022-10-07T13:36:56Z</time>
      </trkpt>
      <trkpt lat="49.78422" lon="2.23635">
        <ele>111.3</ele>
        <time>2022-10-07T13:36:58Z</time>
      </trkpt>
      <trkpt lat="49.78423" lon="2.23635">
        <ele>111.3</ele>
        <time>2022-10-07T13:36:59Z</time>
      </trkpt>
      <trkpt lat="49.78423" lon="2.23637">
        <ele>111.4</ele>
        <time>2022-10-07T13:37:01Z</time>
      </trkpt>
      <trkpt lat="49.78424" lon="2.23636">
        <ele>111.4</ele>
        <time>2022-10-07T13:37:02Z</time>
      </trkpt>
      <trkpt lat="49.78424" lon="2.23635">
        <ele>111.4</ele>
        <time>2022-10-07T13:37:03Z</time>
      </trkpt>
      <trkpt lat="49.78424" lon="2.23634">
        <ele>111.4</ele>
        <time>2022-10-07T13:37:04Z</time>
      </trkpt>
      <trkpt lat="49.78424" lon="2.23633">
        <ele>111.5</ele>
        <time>2022-10-07T13:37:06Z</time>
      </trkpt>
      <trkpt lat="49.78425" lon="2.23632">
        <ele>111.5</ele>
        <time>2022-10-07T13:37:07Z</time>
      </trkpt>
      <trkpt lat="49.78425" lon="2.23631">
        <ele>111.5</ele>
        <time>2022-10-07T13:37:08Z</time>
      </trkpt>
      <trkpt lat="49.78426" lon="2.23631">
        <ele>111.6</ele>
        <time>2022-10-07T13:37:09Z</time>
      </trkpt>
      <trkpt lat="49.78426" lon="2.23631">
        <ele>111.6</ele>
        <time>2022-10-07T13:37:10Z</time>
      </trkpt>
      <trkpt lat="49.78427" lon="2.2363">
        <ele>111.6</ele>
        <time>2022-10-07T13:37:12Z</time>
      </trkpt>
      <trkpt lat="49.78427" lon="2.23629">
        <ele>111.7</ele>
        <time>2022-10-07T13:37:13Z</time>
      </trkpt>
      <trkpt lat="49.78427" lon="2.23629">
        <ele>111.7</ele>
        <time>2022-10-07T13:37:14Z</time>
      </trkpt>
      <trkpt lat="49.78428" lon="2.23631">
        <ele>111.8</ele>
        <time>2022-10-07T13:37:15Z</time>
      </trkpt>
      <trkpt lat="49.78428" lon="2.23632">
        <ele>111.8</ele>
        <time>2022-10-07T13:37:16Z</time>
      </trkpt>
      <trkpt lat="49.78429" lon="2.23634">
        <ele>111.9</ele>
        <time>2022-10-07T13:37:17Z</time>
      </trkpt>
      <trkpt lat="49.7843" lon="2.23638">
        <ele>112</ele>
        <time>2022-10-07T13:37:19Z</time>
      </trkpt>
      <trkpt lat="49.7843" lon="2.23639">
        <ele>112.1</ele>
        <time>2022-10-07T13:37:20Z</time>
      </trkpt>
      <trkpt lat="49.78431" lon="2.23641">
        <ele>112.1</ele>
        <time>2022-10-07T13:37:21Z</time>
      </trkpt>
      <trkpt lat="49.78431" lon="2.23642">
        <ele>112.2</ele>
        <time>2022-10-07T13:37:22Z</time>
      </trkpt>
      <trkpt lat="49.78432" lon="2.23643">
        <ele>112.2</ele>
        <time>2022-10-07T13:37:23Z</time>
      </trkpt>
      <trkpt lat="49.78433" lon="2.23644">
        <ele>112.3</ele>
        <time>2022-10-07T13:37:24Z</time>
      </trkpt>
      <trkpt lat="49.78434" lon="2.23644">
        <ele>112.3</ele>
        <time>2022-10-07T13:37:25Z</time>
      </trkpt>
      <trkpt lat="49.78435" lon="2.23645">
        <ele>112.4</ele>
        <time>2022-10-07T13:37:26Z</time>
      </trkpt>
      <trkpt lat="49.78436" lon="2.23646">
        <ele>112.4</ele>
        <time>2022-10-07T13:37:28Z</time>
      </trkpt>
      <trkpt lat="49.78437" lon="2.23647">
        <ele>112.5</ele>
        <time>2022-10-07T13:37:29Z</time>
      </trkpt>
      <trkpt lat="49.78437" lon="2.23647">
        <ele>112.5</ele>
        <time>2022-10-07T13:37:30Z</time>
      </trkpt>
      <trkpt lat="49.78438" lon="2.23649">
        <ele>112.6</ele>
        <time>2022-10-07T13:37:31Z</time>
      </trkpt>
      <trkpt lat="49.78439" lon="2.2365">
        <ele>112.6</ele>
        <time>2022-10-07T13:37:32Z</time>
      </trkpt>
      <trkpt lat="49.7844" lon="2.23651">
        <ele>112.7</ele>
        <time>2022-10-07T13:37:33Z</time>
      </trkpt>
      <trkpt lat="49.7844" lon="2.23651">
        <ele>112.7</ele>
        <time>2022-10-07T13:37:34Z</time>
      </trkpt>
      <trkpt lat="49.78441" lon="2.23653">
        <ele>112.8</ele>
        <time>2022-10-07T13:37:35Z</time>
      </trkpt>
      <trkpt lat="49.78442" lon="2.23654">
        <ele>112.8</ele>
        <time>2022-10-07T13:37:36Z</time>
      </trkpt>
      <trkpt lat="49.78444" lon="2.23654">
        <ele>112.9</ele>
        <time>2022-10-07T13:37:38Z</time>
      </trkpt>
      <trkpt lat="49.78445" lon="2.23655">
        <ele>113</ele>
        <time>2022-10-07T13:37:39Z</time>
      </trkpt>
      <trkpt lat="49.78446" lon="2.23655">
        <ele>113</ele>
        <time>2022-10-07T13:37:40Z</time>
      </trkpt>
      <trkpt lat="49.78449" lon="2.23657">
        <ele>113.1</ele>
        <time>2022-10-07T13:37:41Z</time>
      </trkpt>
      <trkpt lat="49.7845" lon="2.23658">
        <ele>113.2</ele>
        <time>2022-10-07T13:37:43Z</time>
      </trkpt>
      <trkpt lat="49.78452" lon="2.23658">
        <ele>113.3</ele>
        <time>2022-10-07T13:37:44Z</time>
      </trkpt>
      <trkpt lat="49.78453" lon="2.23659">
        <ele>113.3</ele>
        <time>2022-10-07T13:37:45Z</time>
      </trkpt>
      <trkpt lat="49.78455" lon="2.23661">
        <ele>113.4</ele>
        <time>2022-10-07T13:37:46Z</time>
      </trkpt>
      <trkpt lat="49.78456" lon="2.23662">
        <ele>113.5</ele>
        <time>2022-10-07T13:37:47Z</time>
      </trkpt>
      <trkpt lat="49.78457" lon="2.23663">
        <ele>113.5</ele>
        <time>2022-10-07T13:37:48Z</time>
      </trkpt>
      <trkpt lat="49.78458" lon="2.23664">
        <ele>113.5</ele>
        <time>2022-10-07T13:37:49Z</time>
      </trkpt>
      <trkpt lat="49.7846" lon="2.23665">
        <ele>113.6</ele>
        <time>2022-10-07T13:37:50Z</time>
      </trkpt>
      <trkpt lat="49.7846" lon="2.23665">
        <ele>113.6</ele>
        <time>2022-10-07T13:37:52Z</time>
      </trkpt>
      <trkpt lat="49.78461" lon="2.23666">
        <ele>113.7</ele>
        <time>2022-10-07T13:37:53Z</time>
      </trkpt>
      <trkpt lat="49.78461" lon="2.23668">
        <ele>113.7</ele>
        <time>2022-10-07T13:37:55Z</time>
      </trkpt>
      <trkpt lat="49.7846" lon="2.23668">
        <ele>113.7</ele>
        <time>2022-10-07T13:37:56Z</time>
      </trkpt>
      <trkpt lat="49.7846" lon="2.23669">
        <ele>113.7</ele>
        <time>2022-10-07T13:37:57Z</time>
      </trkpt>
      <trkpt lat="49.78459" lon="2.23669">
        <ele>113.7</ele>
        <time>2022-10-07T13:37:58Z</time>
      </trkpt>
      <trkpt lat="49.78459" lon="2.23669">
        <ele>113.8</ele>
        <time>2022-10-07T13:37:59Z</time>
      </trkpt>
      <trkpt lat="49.78459" lon="2.23668">
        <ele>113.8</ele>
        <time>2022-10-07T13:38:00Z</time>
      </trkpt>
      <trkpt lat="49.78459" lon="2.23668">
        <ele>113.8</ele>
        <time>2022-10-07T13:38:01Z</time>
      </trkpt>
      <trkpt lat="49.78458" lon="2.23667">
        <ele>113.8</ele>
        <time>2022-10-07T13:38:02Z</time>
      </trkpt>
      <trkpt lat="49.78458" lon="2.23666">
        <ele>113.8</ele>
        <time>2022-10-07T13:38:03Z</time>
      </trkpt>
      <trkpt lat="49.78458" lon="2.23666">
        <ele>113.8</ele>
        <time>2022-10-07T13:38:04Z</time>
      </trkpt>
      <trkpt lat="49.78458" lon="2.23666">
        <ele>113.8</ele>
        <time>2022-10-07T13:38:05Z</time>
      </trkpt>
      <trkpt lat="49.78458" lon="2.23666">
        <ele>113.8</ele>
        <time>2022-10-07T13:38:06Z</time>
      </trkpt>
      <trkpt lat="49.78459" lon="2.23665">
        <ele>113.8</ele>
        <time>2022-10-07T13:38:07Z</time>
      </trkpt>
      <trkpt lat="49.78459" lon="2.23665">
        <ele>113.8</ele>
        <time>2022-10-07T13:38:08Z</time>
      </trkpt>
      <trkpt lat="49.78459" lon="2.23665">
        <ele>113.9</ele>
        <time>2022-10-07T13:38:10Z</time>
      </trkpt>
      <trkpt lat="49.7846" lon="2.23665">
        <ele>113.9</ele>
        <time>2022-10-07T13:38:11Z</time>
      </trkpt>
      <trkpt lat="49.7846" lon="2.23665">
        <ele>113.9</ele>
        <time>2022-10-07T13:38:12Z</time>
      </trkpt>
      <trkpt lat="49.7846" lon="2.23665">
        <ele>113.9</ele>
        <time>2022-10-07T13:38:13Z</time>
      </trkpt>
      <trkpt lat="49.7846" lon="2.23665">
        <ele>113.9</ele>
        <time>2022-10-07T13:38:14Z</time>
      </trkpt>
      <trkpt lat="49.7846" lon="2.23665">
        <ele>113.9</ele>
        <time>2022-10-07T13:38:16Z</time>
      </trkpt>
      <trkpt lat="49.7846" lon="2.23664">
        <ele>113.9</ele>
        <time>2022-10-07T13:38:17Z</time>
      </trkpt>
      <trkpt lat="49.78461" lon="2.23664">
        <ele>113.9</ele>
        <time>2022-10-07T13:38:19Z</time>
      </trkpt>
      <trkpt lat="49.78461" lon="2.23664">
        <ele>113.9</ele>
        <time>2022-10-07T13:38:20Z</time>
      </trkpt>
      <trkpt lat="49.78462" lon="2.23663">
        <ele>114</ele>
        <time>2022-10-07T13:38:21Z</time>
      </trkpt>
      <trkpt lat="49.78463" lon="2.23664">
        <ele>114</ele>
        <time>2022-10-07T13:38:22Z</time>
      </trkpt>
      <trkpt lat="49.78463" lon="2.23664">
        <ele>114</ele>
        <time>2022-10-07T13:38:23Z</time>
      </trkpt>
      <trkpt lat="49.78463" lon="2.23664">
        <ele>114</ele>
        <time>2022-10-07T13:38:25Z</time>
      </trkpt>
      <trkpt lat="49.78464" lon="2.23664">
        <ele>114</ele>
        <time>2022-10-07T13:38:26Z</time>
      </trkpt>
      <trkpt lat="49.78464" lon="2.23665">
        <ele>114.1</ele>
        <time>2022-10-07T13:38:27Z</time>
      </trkpt>
      <trkpt lat="49.78464" lon="2.23665">
        <ele>114.1</ele>
        <time>2022-10-07T13:38:28Z</time>
      </trkpt>
      <trkpt lat="49.78465" lon="2.23665">
        <ele>114.1</ele>
        <time>2022-10-07T13:38:29Z</time>
      </trkpt>
      <trkpt lat="49.78466" lon="2.23664">
        <ele>114.1</ele>
        <time>2022-10-07T13:38:30Z</time>
      </trkpt>
      <trkpt lat="49.78466" lon="2.23664">
        <ele>114.1</ele>
        <time>2022-10-07T13:38:31Z</time>
      </trkpt>
      <trkpt lat="49.78465" lon="2.23664">
        <ele>114.1</ele>
        <time>2022-10-07T13:38:33Z</time>
      </trkpt>
      <trkpt lat="49.78465" lon="2.23663">
        <ele>114.2</ele>
        <time>2022-10-07T13:38:34Z</time>
      </trkpt>
      <trkpt lat="49.78465" lon="2.23663">
        <ele>114.2</ele>
        <time>2022-10-07T13:38:35Z</time>
      </trkpt>
      <trkpt lat="49.78464" lon="2.23661">
        <ele>114.2</ele>
        <time>2022-10-07T13:38:36Z</time>
      </trkpt>
      <trkpt lat="49.78462" lon="2.2366">
        <ele>114.3</ele>
        <time>2022-10-07T13:38:37Z</time>
      </trkpt>
      <trkpt lat="49.78459" lon="2.23658">
        <ele>114.5</ele>
        <time>2022-10-07T13:38:38Z</time>
      </trkpt>
      <trkpt lat="49.78459" lon="2.23657">
        <ele>114.5</ele>
        <time>2022-10-07T13:38:39Z</time>
      </trkpt>
      <trkpt lat="49.78458" lon="2.23656">
        <ele>114.5</ele>
        <time>2022-10-07T13:38:40Z</time>
      </trkpt>
      <trkpt lat="49.78458" lon="2.23655">
        <ele>114.6</ele>
        <time>2022-10-07T13:38:41Z</time>
      </trkpt>
      <trkpt lat="49.78458" lon="2.23657">
        <ele>114.6</ele>
        <time>2022-10-07T13:38:43Z</time>
      </trkpt>
      <trkpt lat="49.78458" lon="2.23657">
        <ele>114.6</ele>
        <time>2022-10-07T13:38:44Z</time>
      </trkpt>
      <trkpt lat="49.78458" lon="2.23657">
        <ele>114.7</ele>
        <time>2022-10-07T13:38:45Z</time>
      </trkpt>
      <trkpt lat="49.78459" lon="2.23657">
        <ele>114.7</ele>
        <time>2022-10-07T13:38:46Z</time>
      </trkpt>
      <trkpt lat="49.78459" lon="2.23656">
        <ele>114.7</ele>
        <time>2022-10-07T13:38:47Z</time>
      </trkpt>
      <trkpt lat="49.7846" lon="2.23656">
        <ele>114.7</ele>
        <time>2022-10-07T13:38:48Z</time>
      </trkpt>
      <trkpt lat="49.7846" lon="2.23657">
        <ele>114.8</ele>
        <time>2022-10-07T13:38:49Z</time>
      </trkpt>
      <trkpt lat="49.7846" lon="2.23656">
        <ele>114.8</ele>
        <time>2022-10-07T13:38:51Z</time>
      </trkpt>
      <trkpt lat="49.78461" lon="2.23656">
        <ele>114.9</ele>
        <time>2022-10-07T13:38:52Z</time>
      </trkpt>
      <trkpt lat="49.78462" lon="2.23656">
        <ele>114.9</ele>
        <time>2022-10-07T13:38:53Z</time>
      </trkpt>
      <trkpt lat="49.78465" lon="2.23659">
        <ele>115.1</ele>
        <time>2022-10-07T13:38:54Z</time>
      </trkpt>
      <trkpt lat="49.78467" lon="2.23661">
        <ele>115.2</ele>
        <time>2022-10-07T13:38:55Z</time>
      </trkpt>
      <trkpt lat="49.78469" lon="2.23662">
        <ele>115.4</ele>
        <time>2022-10-07T13:38:56Z</time>
      </trkpt>
      <trkpt lat="49.78471" lon="2.23664">
        <ele>115.5</ele>
        <time>2022-10-07T13:38:57Z</time>
      </trkpt>
      <trkpt lat="49.78473" lon="2.23666">
        <ele>115.6</ele>
        <time>2022-10-07T13:38:58Z</time>
      </trkpt>
      <trkpt lat="49.78475" lon="2.23667">
        <ele>115.8</ele>
        <time>2022-10-07T13:39:00Z</time>
      </trkpt>
      <trkpt lat="49.78478" lon="2.23669">
        <ele>115.9</ele>
        <time>2022-10-07T13:39:01Z</time>
      </trkpt>
      <trkpt lat="49.7848" lon="2.23671">
        <ele>116</ele>
        <time>2022-10-07T13:39:02Z</time>
      </trkpt>
      <trkpt lat="49.78482" lon="2.23672">
        <ele>116.1</ele>
        <time>2022-10-07T13:39:03Z</time>
      </trkpt>
      <trkpt lat="49.78484" lon="2.23674">
        <ele>116.2</ele>
        <time>2022-10-07T13:39:04Z</time>
      </trkpt>
      <trkpt lat="49.78486" lon="2.23676">
        <ele>116.4</ele>
        <time>2022-10-07T13:39:05Z</time>
      </trkpt>
      <trkpt lat="49.78488" lon="2.23677">
        <ele>116.5</ele>
        <time>2022-10-07T13:39:07Z</time>
      </trkpt>
      <trkpt lat="49.78494" lon="2.23681">
        <ele>116.8</ele>
        <time>2022-10-07T13:39:08Z</time>
      </trkpt>
      <trkpt lat="49.78499" lon="2.23684">
        <ele>117.1</ele>
        <time>2022-10-07T13:39:09Z</time>
      </trkpt>
      <trkpt lat="49.78502" lon="2.23685">
        <ele>117.2</ele>
        <time>2022-10-07T13:39:10Z</time>
      </trkpt>
      <trkpt lat="49.78505" lon="2.23687">
        <ele>117.3</ele>
        <time>2022-10-07T13:39:11Z</time>
      </trkpt>
      <trkpt lat="49.78508" lon="2.2369">
        <ele>117.5</ele>
        <time>2022-10-07T13:39:12Z</time>
      </trkpt>
      <trkpt lat="49.78509" lon="2.23691">
        <ele>117.5</ele>
        <time>2022-10-07T13:39:13Z</time>
      </trkpt>
      <trkpt lat="49.78511" lon="2.23692">
        <ele>117.6</ele>
        <time>2022-10-07T13:39:15Z</time>
      </trkpt>
      <trkpt lat="49.78512" lon="2.23692">
        <ele>117.7</ele>
        <time>2022-10-07T13:39:16Z</time>
      </trkpt>
      <trkpt lat="49.78513" lon="2.23693">
        <ele>117.7</ele>
        <time>2022-10-07T13:39:17Z</time>
      </trkpt>
      <trkpt lat="49.78514" lon="2.23693">
        <ele>117.7</ele>
        <time>2022-10-07T13:39:18Z</time>
      </trkpt>
      <trkpt lat="49.78514" lon="2.23692">
        <ele>117.8</ele>
        <time>2022-10-07T13:39:19Z</time>
      </trkpt>
      <trkpt lat="49.78515" lon="2.23692">
        <ele>117.8</ele>
        <time>2022-10-07T13:39:21Z</time>
      </trkpt>
      <trkpt lat="49.78515" lon="2.23692">
        <ele>117.8</ele>
        <time>2022-10-07T13:39:22Z</time>
      </trkpt>
      <trkpt lat="49.78516" lon="2.23692">
        <ele>117.9</ele>
        <time>2022-10-07T13:39:23Z</time>
      </trkpt>
      <trkpt lat="49.78517" lon="2.23692">
        <ele>117.9</ele>
        <time>2022-10-07T13:39:24Z</time>
      </trkpt>
      <trkpt lat="49.78518" lon="2.23693">
        <ele>117.9</ele>
        <time>2022-10-07T13:39:25Z</time>
      </trkpt>
      <trkpt lat="49.78519" lon="2.23693">
        <ele>118</ele>
        <time>2022-10-07T13:39:26Z</time>
      </trkpt>
      <trkpt lat="49.78519" lon="2.23693">
        <ele>118</ele>
        <time>2022-10-07T13:39:27Z</time>
      </trkpt>
      <trkpt lat="49.7852" lon="2.23693">
        <ele>118</ele>
        <time>2022-10-07T13:39:28Z</time>
      </trkpt>
      <trkpt lat="49.7852" lon="2.23693">
        <ele>118</ele>
        <time>2022-10-07T13:39:30Z</time>
      </trkpt>
      <trkpt lat="49.7852" lon="2.23694">
        <ele>118</ele>
        <time>2022-10-07T13:39:31Z</time>
      </trkpt>
      <trkpt lat="49.7852" lon="2.23694">
        <ele>118.1</ele>
        <time>2022-10-07T13:39:32Z</time>
      </trkpt>
      <trkpt lat="49.7852" lon="2.23695">
        <ele>118.1</ele>
        <time>2022-10-07T13:39:33Z</time>
      </trkpt>
      <trkpt lat="49.78521" lon="2.23696">
        <ele>118.1</ele>
        <time>2022-10-07T13:39:34Z</time>
      </trkpt>
      <trkpt lat="49.78522" lon="2.23696">
        <ele>118.2</ele>
        <time>2022-10-07T13:39:35Z</time>
      </trkpt>
      <trkpt lat="49.78522" lon="2.23695">
        <ele>118.2</ele>
        <time>2022-10-07T13:39:36Z</time>
      </trkpt>
      <trkpt lat="49.78523" lon="2.23695">
        <ele>118.2</ele>
        <time>2022-10-07T13:39:37Z</time>
      </trkpt>
      <trkpt lat="49.78524" lon="2.23696">
        <ele>118.3</ele>
        <time>2022-10-07T13:39:38Z</time>
      </trkpt>
      <trkpt lat="49.78525" lon="2.23697">
        <ele>118.4</ele>
        <time>2022-10-07T13:39:40Z</time>
      </trkpt>
      <trkpt lat="49.78526" lon="2.23698">
        <ele>118.4</ele>
        <time>2022-10-07T13:39:41Z</time>
      </trkpt>
      <trkpt lat="49.78527" lon="2.23699">
        <ele>118.4</ele>
        <time>2022-10-07T13:39:42Z</time>
      </trkpt>
      <trkpt lat="49.7853" lon="2.23701">
        <ele>118.6</ele>
        <time>2022-10-07T13:39:43Z</time>
      </trkpt>
      <trkpt lat="49.78532" lon="2.23701">
        <ele>118.7</ele>
        <time>2022-10-07T13:39:44Z</time>
      </trkpt>
      <trkpt lat="49.78534" lon="2.23703">
        <ele>118.8</ele>
        <time>2022-10-07T13:39:45Z</time>
      </trkpt>
      <trkpt lat="49.78538" lon="2.23704">
        <ele>119</ele>
        <time>2022-10-07T13:39:47Z</time>
      </trkpt>
      <trkpt lat="49.7854" lon="2.23705">
        <ele>119.1</ele>
        <time>2022-10-07T13:39:48Z</time>
      </trkpt>
      <trkpt lat="49.78544" lon="2.23707">
        <ele>119.3</ele>
        <time>2022-10-07T13:39:49Z</time>
      </trkpt>
      <trkpt lat="49.78547" lon="2.23709">
        <ele>119.5</ele>
        <time>2022-10-07T13:39:50Z</time>
      </trkpt>
      <trkpt lat="49.7855" lon="2.2371">
        <ele>119.6</ele>
        <time>2022-10-07T13:39:51Z</time>
      </trkpt>
      <trkpt lat="49.78553" lon="2.23712">
        <ele>119.8</ele>
        <time>2022-10-07T13:39:52Z</time>
      </trkpt>
      <trkpt lat="49.78554" lon="2.23712">
        <ele>119.8</ele>
        <time>2022-10-07T13:39:53Z</time>
      </trkpt>
      <trkpt lat="49.78557" lon="2.23713">
        <ele>120</ele>
        <time>2022-10-07T13:39:54Z</time>
      </trkpt>
      <trkpt lat="49.78558" lon="2.23714">
        <ele>120.1</ele>
        <time>2022-10-07T13:39:55Z</time>
      </trkpt>
      <trkpt lat="49.78563" lon="2.23717">
        <ele>120.3</ele>
        <time>2022-10-07T13:39:57Z</time>
      </trkpt>
      <trkpt lat="49.78564" lon="2.23718">
        <ele>120.4</ele>
        <time>2022-10-07T13:39:58Z</time>
      </trkpt>
      <trkpt lat="49.78566" lon="2.23719">
        <ele>120.5</ele>
        <time>2022-10-07T13:39:59Z</time>
      </trkpt>
      <trkpt lat="49.78568" lon="2.2372">
        <ele>120.7</ele>
        <time>2022-10-07T13:40:00Z</time>
      </trkpt>
      <trkpt lat="49.78569" lon="2.23721">
        <ele>120.7</ele>
        <time>2022-10-07T13:40:01Z</time>
      </trkpt>
      <trkpt lat="49.78572" lon="2.23723">
        <ele>121</ele>
        <time>2022-10-07T13:40:03Z</time>
      </trkpt>
      <trkpt lat="49.78573" lon="2.23724">
        <ele>121</ele>
        <time>2022-10-07T13:40:04Z</time>
      </trkpt>
      <trkpt lat="49.78575" lon="2.23724">
        <ele>121.1</ele>
        <time>2022-10-07T13:40:05Z</time>
      </trkpt>
      <trkpt lat="49.78576" lon="2.23725">
        <ele>121.2</ele>
        <time>2022-10-07T13:40:06Z</time>
      </trkpt>
      <trkpt lat="49.78578" lon="2.23726">
        <ele>121.4</ele>
        <time>2022-10-07T13:40:07Z</time>
      </trkpt>
      <trkpt lat="49.7858" lon="2.23727">
        <ele>121.5</ele>
        <time>2022-10-07T13:40:09Z</time>
      </trkpt>
      <trkpt lat="49.78581" lon="2.23728">
        <ele>121.6</ele>
        <time>2022-10-07T13:40:10Z</time>
      </trkpt>
      <trkpt lat="49.78583" lon="2.23729">
        <ele>121.7</ele>
        <time>2022-10-07T13:40:11Z</time>
      </trkpt>
      <trkpt lat="49.78585" lon="2.2373">
        <ele>121.8</ele>
        <time>2022-10-07T13:40:12Z</time>
      </trkpt>
      <trkpt lat="49.78586" lon="2.23731">
        <ele>121.9</ele>
        <time>2022-10-07T13:40:13Z</time>
      </trkpt>
      <trkpt lat="49.78587" lon="2.23731">
        <ele>122</ele>
        <time>2022-10-07T13:40:14Z</time>
      </trkpt>
      <trkpt lat="49.78587" lon="2.23731">
        <ele>122</ele>
        <time>2022-10-07T13:40:15Z</time>
      </trkpt>
      <trkpt lat="49.78587" lon="2.23732">
        <ele>122</ele>
        <time>2022-10-07T13:40:17Z</time>
      </trkpt>
      <trkpt lat="49.78588" lon="2.23732">
        <ele>122.1</ele>
        <time>2022-10-07T13:40:18Z</time>
      </trkpt>
      <trkpt lat="49.78588" lon="2.23733">
        <ele>122.1</ele>
        <time>2022-10-07T13:40:19Z</time>
      </trkpt>
      <trkpt lat="49.78589" lon="2.23733">
        <ele>122.1</ele>
        <time>2022-10-07T13:40:20Z</time>
      </trkpt>
      <trkpt lat="49.7859" lon="2.23734">
        <ele>122.2</ele>
        <time>2022-10-07T13:40:21Z</time>
      </trkpt>
      <trkpt lat="49.78591" lon="2.23735">
        <ele>122.3</ele>
        <time>2022-10-07T13:40:22Z</time>
      </trkpt>
      <trkpt lat="49.78592" lon="2.23735">
        <ele>122.3</ele>
        <time>2022-10-07T13:40:24Z</time>
      </trkpt>
      <trkpt lat="49.78593" lon="2.23736">
        <ele>122.4</ele>
        <time>2022-10-07T13:40:25Z</time>
      </trkpt>
      <trkpt lat="49.78594" lon="2.23736">
        <ele>122.5</ele>
        <time>2022-10-07T13:40:26Z</time>
      </trkpt>
      <trkpt lat="49.78596" lon="2.23735">
        <ele>122.6</ele>
        <time>2022-10-07T13:40:27Z</time>
      </trkpt>
      <trkpt lat="49.78597" lon="2.23735">
        <ele>122.7</ele>
        <time>2022-10-07T13:40:28Z</time>
      </trkpt>
      <trkpt lat="49.78599" lon="2.23735">
        <ele>122.8</ele>
        <time>2022-10-07T13:40:29Z</time>
      </trkpt>
      <trkpt lat="49.786" lon="2.23735">
        <ele>122.9</ele>
        <time>2022-10-07T13:40:31Z</time>
      </trkpt>
      <trkpt lat="49.78601" lon="2.23735">
        <ele>123</ele>
        <time>2022-10-07T13:40:32Z</time>
      </trkpt>
      <trkpt lat="49.78602" lon="2.23735">
        <ele>123</ele>
        <time>2022-10-07T13:40:33Z</time>
      </trkpt>
      <trkpt lat="49.78603" lon="2.23735">
        <ele>123.1</ele>
        <time>2022-10-07T13:40:34Z</time>
      </trkpt>
      <trkpt lat="49.78605" lon="2.23735">
        <ele>123.2</ele>
        <time>2022-10-07T13:40:35Z</time>
      </trkpt>
      <trkpt lat="49.78606" lon="2.23736">
        <ele>123.3</ele>
        <time>2022-10-07T13:40:36Z</time>
      </trkpt>
      <trkpt lat="49.78607" lon="2.23736">
        <ele>123.4</ele>
        <time>2022-10-07T13:40:38Z</time>
      </trkpt>
      <trkpt lat="49.78608" lon="2.23737">
        <ele>123.4</ele>
        <time>2022-10-07T13:40:39Z</time>
      </trkpt>
      <trkpt lat="49.78609" lon="2.23737">
        <ele>123.5</ele>
        <time>2022-10-07T13:40:40Z</time>
      </trkpt>
      <trkpt lat="49.78609" lon="2.23737">
        <ele>123.5</ele>
        <time>2022-10-07T13:40:41Z</time>
      </trkpt>
      <trkpt lat="49.7861" lon="2.23737">
        <ele>123.5</ele>
        <time>2022-10-07T13:40:43Z</time>
      </trkpt>
      <trkpt lat="49.7861" lon="2.23738">
        <ele>123.6</ele>
        <time>2022-10-07T13:40:44Z</time>
      </trkpt>
      <trkpt lat="49.7861" lon="2.23738">
        <ele>123.6</ele>
        <time>2022-10-07T13:40:45Z</time>
      </trkpt>
      <trkpt lat="49.7861" lon="2.23738">
        <ele>123.6</ele>
        <time>2022-10-07T13:40:46Z</time>
      </trkpt>
      <trkpt lat="49.78611" lon="2.23738">
        <ele>123.6</ele>
        <time>2022-10-07T13:40:48Z</time>
      </trkpt>
      <trkpt lat="49.78611" lon="2.23738">
        <ele>123.7</ele>
        <time>2022-10-07T13:40:49Z</time>
      </trkpt>
      <trkpt lat="49.78612" lon="2.23739">
        <ele>123.7</ele>
        <time>2022-10-07T13:40:50Z</time>
      </trkpt>
      <trkpt lat="49.78611" lon="2.23739">
        <ele>123.8</ele>
        <time>2022-10-07T13:40:51Z</time>
      </trkpt>
      <trkpt lat="49.78611" lon="2.23739">
        <ele>123.8</ele>
        <time>2022-10-07T13:40:52Z</time>
      </trkpt>
      <trkpt lat="49.78612" lon="2.23739">
        <ele>123.9</ele>
        <time>2022-10-07T13:40:54Z</time>
      </trkpt>
      <trkpt lat="49.78613" lon="2.2374">
        <ele>124</ele>
        <time>2022-10-07T13:40:55Z</time>
      </trkpt>
      <trkpt lat="49.78615" lon="2.23741">
        <ele>124.1</ele>
        <time>2022-10-07T13:40:56Z</time>
      </trkpt>
      <trkpt lat="49.78616" lon="2.23742">
        <ele>124.2</ele>
        <time>2022-10-07T13:40:57Z</time>
      </trkpt>
      <trkpt lat="49.78618" lon="2.23744">
        <ele>124.4</ele>
        <time>2022-10-07T13:40:59Z</time>
      </trkpt>
      <trkpt lat="49.78619" lon="2.23744">
        <ele>124.4</ele>
        <time>2022-10-07T13:41:00Z</time>
      </trkpt>
      <trkpt lat="49.7862" lon="2.23745">
        <ele>124.5</ele>
        <time>2022-10-07T13:41:01Z</time>
      </trkpt>
      <trkpt lat="49.78621" lon="2.23746">
        <ele>124.6</ele>
        <time>2022-10-07T13:41:02Z</time>
      </trkpt>
      <trkpt lat="49.78623" lon="2.23747">
        <ele>124.8</ele>
        <time>2022-10-07T13:41:04Z</time>
      </trkpt>
      <trkpt lat="49.78624" lon="2.23748">
        <ele>124.8</ele>
        <time>2022-10-07T13:41:05Z</time>
      </trkpt>
      <trkpt lat="49.78624" lon="2.23748">
        <ele>124.9</ele>
        <time>2022-10-07T13:41:06Z</time>
      </trkpt>
      <trkpt lat="49.78625" lon="2.23749">
        <ele>125</ele>
        <time>2022-10-07T13:41:08Z</time>
      </trkpt>
      <trkpt lat="49.78626" lon="2.23749">
        <ele>125</ele>
        <time>2022-10-07T13:41:09Z</time>
      </trkpt>
      <trkpt lat="49.78626" lon="2.23749">
        <ele>125</ele>
        <time>2022-10-07T13:41:10Z</time>
      </trkpt>
      <trkpt lat="49.78626" lon="2.23749">
        <ele>125</ele>
        <time>2022-10-07T13:41:11Z</time>
      </trkpt>
      <trkpt lat="49.78626" lon="2.23749">
        <ele>125.1</ele>
        <time>2022-10-07T13:41:12Z</time>
      </trkpt>
      <trkpt lat="49.78627" lon="2.23749">
        <ele>125.1</ele>
        <time>2022-10-07T13:41:13Z</time>
      </trkpt>
      <trkpt lat="49.78628" lon="2.2375">
        <ele>125.2</ele>
        <time>2022-10-07T13:41:14Z</time>
      </trkpt>
      <trkpt lat="49.78628" lon="2.2375">
        <ele>125.2</ele>
        <time>2022-10-07T13:41:15Z</time>
      </trkpt>
      <trkpt lat="49.78629" lon="2.23751">
        <ele>125.3</ele>
        <time>2022-10-07T13:41:16Z</time>
      </trkpt>
      <trkpt lat="49.7863" lon="2.23751">
        <ele>125.4</ele>
        <time>2022-10-07T13:41:17Z</time>
      </trkpt>
      <trkpt lat="49.78632" lon="2.23754">
        <ele>125.6</ele>
        <time>2022-10-07T13:41:19Z</time>
      </trkpt>
      <trkpt lat="49.78633" lon="2.23755">
        <ele>125.7</ele>
        <time>2022-10-07T13:41:20Z</time>
      </trkpt>
      <trkpt lat="49.78634" lon="2.23756">
        <ele>125.8</ele>
        <time>2022-10-07T13:41:21Z</time>
      </trkpt>
      <trkpt lat="49.78636" lon="2.23758">
        <ele>125.9</ele>
        <time>2022-10-07T13:41:22Z</time>
      </trkpt>
      <trkpt lat="49.78638" lon="2.2376">
        <ele>126.1</ele>
        <time>2022-10-07T13:41:24Z</time>
      </trkpt>
      <trkpt lat="49.78639" lon="2.23761">
        <ele>126.2</ele>
        <time>2022-10-07T13:41:25Z</time>
      </trkpt>
      <trkpt lat="49.78641" lon="2.23763">
        <ele>126.3</ele>
        <time>2022-10-07T13:41:26Z</time>
      </trkpt>
      <trkpt lat="49.78643" lon="2.23765">
        <ele>126.5</ele>
        <time>2022-10-07T13:41:27Z</time>
      </trkpt>
      <trkpt lat="49.78646" lon="2.23768">
        <ele>126.8</ele>
        <time>2022-10-07T13:41:29Z</time>
      </trkpt>
      <trkpt lat="49.78648" lon="2.2377">
        <ele>126.9</ele>
        <time>2022-10-07T13:41:30Z</time>
      </trkpt>
      <trkpt lat="49.78649" lon="2.2377">
        <ele>126.9</ele>
        <time>2022-10-07T13:41:31Z</time>
      </trkpt>
      <trkpt lat="49.78649" lon="2.23771">
        <ele>127</ele>
        <time>2022-10-07T13:41:32Z</time>
      </trkpt>
      <trkpt lat="49.7865" lon="2.23772">
        <ele>127.1</ele>
        <time>2022-10-07T13:41:34Z</time>
      </trkpt>
      <trkpt lat="49.78651" lon="2.23773">
        <ele>127.1</ele>
        <time>2022-10-07T13:41:35Z</time>
      </trkpt>
      <trkpt lat="49.78652" lon="2.23774">
        <ele>127.2</ele>
        <time>2022-10-07T13:41:36Z</time>
      </trkpt>
      <trkpt lat="49.78652" lon="2.23775">
        <ele>127.3</ele>
        <time>2022-10-07T13:41:38Z</time>
      </trkpt>
      <trkpt lat="49.78653" lon="2.23776">
        <ele>127.3</ele>
        <time>2022-10-07T13:41:39Z</time>
      </trkpt>
      <trkpt lat="49.78654" lon="2.23777">
        <ele>127.4</ele>
        <time>2022-10-07T13:41:40Z</time>
      </trkpt>
      <trkpt lat="49.78654" lon="2.23777">
        <ele>127.4</ele>
        <time>2022-10-07T13:41:41Z</time>
      </trkpt>
      <trkpt lat="49.78654" lon="2.23778">
        <ele>127.5</ele>
        <time>2022-10-07T13:41:42Z</time>
      </trkpt>
      <trkpt lat="49.78655" lon="2.23779">
        <ele>127.5</ele>
        <time>2022-10-07T13:41:43Z</time>
      </trkpt>
      <trkpt lat="49.78657" lon="2.23781">
        <ele>127.6</ele>
        <time>2022-10-07T13:41:45Z</time>
      </trkpt>
      <trkpt lat="49.78657" lon="2.23781">
        <ele>127.7</ele>
        <time>2022-10-07T13:41:46Z</time>
      </trkpt>
      <trkpt lat="49.78658" lon="2.23782">
        <ele>127.7</ele>
        <time>2022-10-07T13:41:47Z</time>
      </trkpt>
      <trkpt lat="49.78659" lon="2.23783">
        <ele>127.8</ele>
        <time>2022-10-07T13:41:48Z</time>
      </trkpt>
      <trkpt lat="49.7866" lon="2.23784">
        <ele>127.9</ele>
        <time>2022-10-07T13:41:50Z</time>
      </trkpt>
      <trkpt lat="49.7866" lon="2.23785">
        <ele>127.9</ele>
        <time>2022-10-07T13:41:51Z</time>
      </trkpt>
      <trkpt lat="49.78661" lon="2.23786">
        <ele>128</ele>
        <time>2022-10-07T13:41:52Z</time>
      </trkpt>
      <trkpt lat="49.78662" lon="2.23788">
        <ele>128.1</ele>
        <time>2022-10-07T13:41:53Z</time>
      </trkpt>
      <trkpt lat="49.78663" lon="2.2379">
        <ele>128.2</ele>
        <time>2022-10-07T13:41:54Z</time>
      </trkpt>
      <trkpt lat="49.78664" lon="2.23791">
        <ele>128.2</ele>
        <time>2022-10-07T13:41:55Z</time>
      </trkpt>
      <trkpt lat="49.78664" lon="2.23792">
        <ele>128.3</ele>
        <time>2022-10-07T13:41:56Z</time>
      </trkpt>
      <trkpt lat="49.78665" lon="2.23793">
        <ele>128.3</ele>
        <time>2022-10-07T13:41:58Z</time>
      </trkpt>
      <trkpt lat="49.78666" lon="2.23794">
        <ele>128.4</ele>
        <time>2022-10-07T13:41:59Z</time>
      </trkpt>
      <trkpt lat="49.78667" lon="2.23796">
        <ele>128.5</ele>
        <time>2022-10-07T13:42:00Z</time>
      </trkpt>
      <trkpt lat="49.78667" lon="2.23797">
        <ele>128.5</ele>
        <time>2022-10-07T13:42:01Z</time>
      </trkpt>
      <trkpt lat="49.78667" lon="2.23797">
        <ele>128.6</ele>
        <time>2022-10-07T13:42:02Z</time>
      </trkpt>
      <trkpt lat="49.78668" lon="2.23798">
        <ele>128.6</ele>
        <time>2022-10-07T13:42:03Z</time>
      </trkpt>
      <trkpt lat="49.78668" lon="2.23799">
        <ele>128.6</ele>
        <time>2022-10-07T13:42:04Z</time>
      </trkpt>
      <trkpt lat="49.78668" lon="2.23799">
        <ele>128.6</ele>
        <time>2022-10-07T13:42:05Z</time>
      </trkpt>
      <trkpt lat="49.78668" lon="2.23799">
        <ele>128.7</ele>
        <time>2022-10-07T13:42:06Z</time>
      </trkpt>
      <trkpt lat="49.78668" lon="2.23799">
        <ele>128.7</ele>
        <time>2022-10-07T13:42:07Z</time>
      </trkpt>
      <trkpt lat="49.78668" lon="2.23799">
        <ele>128.7</ele>
        <time>2022-10-07T13:42:08Z</time>
      </trkpt>
      <trkpt lat="49.78668" lon="2.23799">
        <ele>128.7</ele>
        <time>2022-10-07T13:42:09Z</time>
      </trkpt>
      <trkpt lat="49.78668" lon="2.238">
        <ele>128.7</ele>
        <time>2022-10-07T13:42:10Z</time>
      </trkpt>
      <trkpt lat="49.78667" lon="2.238">
        <ele>128.7</ele>
        <time>2022-10-07T13:42:11Z</time>
      </trkpt>
      <trkpt lat="49.78667" lon="2.238">
        <ele>128.7</ele>
        <time>2022-10-07T13:42:12Z</time>
      </trkpt>
      <trkpt lat="49.78667" lon="2.238">
        <ele>128.7</ele>
        <time>2022-10-07T13:42:13Z</time>
      </trkpt>
      <trkpt lat="49.78667" lon="2.238">
        <ele>128.7</ele>
        <time>2022-10-07T13:42:14Z</time>
      </trkpt>
      <trkpt lat="49.78667" lon="2.238">
        <ele>128.7</ele>
        <time>2022-10-07T13:42:15Z</time>
      </trkpt>
      <trkpt lat="49.78667" lon="2.238">
        <ele>128.7</ele>
        <time>2022-10-07T13:42:16Z</time>
      </trkpt>
      <trkpt lat="49.78667" lon="2.238">
        <ele>128.7</ele>
        <time>2022-10-07T13:42:17Z</time>
      </trkpt>
      <trkpt lat="49.78668" lon="2.23801">
        <ele>128.7</ele>
        <time>2022-10-07T13:42:18Z</time>
      </trkpt>
      <trkpt lat="49.78668" lon="2.23802">
        <ele>128.8</ele>
        <time>2022-10-07T13:42:19Z</time>
      </trkpt>
      <trkpt lat="49.78668" lon="2.23803">
        <ele>128.8</ele>
        <time>2022-10-07T13:42:20Z</time>
      </trkpt>
      <trkpt lat="49.78669" lon="2.23803">
        <ele>128.8</ele>
        <time>2022-10-07T13:42:21Z</time>
      </trkpt>
      <trkpt lat="49.78669" lon="2.23804">
        <ele>128.8</ele>
        <time>2022-10-07T13:42:22Z</time>
      </trkpt>
      <trkpt lat="49.78669" lon="2.23804">
        <ele>128.8</ele>
        <time>2022-10-07T13:42:23Z</time>
      </trkpt>
      <trkpt lat="49.78669" lon="2.23804">
        <ele>128.8</ele>
        <time>2022-10-07T13:42:24Z</time>
      </trkpt>
      <trkpt lat="49.78669" lon="2.23804">
        <ele>128.9</ele>
        <time>2022-10-07T13:42:25Z</time>
      </trkpt>
      <trkpt lat="49.78669" lon="2.23804">
        <ele>128.9</ele>
        <time>2022-10-07T13:42:26Z</time>
      </trkpt>
      <trkpt lat="49.78669" lon="2.23804">
        <ele>128.9</ele>
        <time>2022-10-07T13:42:27Z</time>
      </trkpt>
      <trkpt lat="49.78669" lon="2.23804">
        <ele>128.9</ele>
        <time>2022-10-07T13:42:28Z</time>
      </trkpt>
      <trkpt lat="49.78669" lon="2.23804">
        <ele>128.9</ele>
        <time>2022-10-07T13:42:29Z</time>
      </trkpt>
      <trkpt lat="49.78669" lon="2.23804">
        <ele>128.9</ele>
        <time>2022-10-07T13:42:30Z</time>
      </trkpt>
      <trkpt lat="49.78669" lon="2.23804">
        <ele>128.9</ele>
        <time>2022-10-07T13:42:31Z</time>
      </trkpt>
      <trkpt lat="49.78669" lon="2.23804">
        <ele>128.9</ele>
        <time>2022-10-07T13:42:32Z</time>
      </trkpt>
      <trkpt lat="49.78669" lon="2.23804">
        <ele>128.9</ele>
        <time>2022-10-07T13:42:33Z</time>
      </trkpt>
      <trkpt lat="49.7867" lon="2.23804">
        <ele>128.9</ele>
        <time>2022-10-07T13:42:34Z</time>
      </trkpt>
      <trkpt lat="49.7867" lon="2.23804">
        <ele>128.9</ele>
        <time>2022-10-07T13:42:35Z</time>
      </trkpt>
      <trkpt lat="49.7867" lon="2.23804">
        <ele>128.9</ele>
        <time>2022-10-07T13:42:36Z</time>
      </trkpt>
      <trkpt lat="49.7867" lon="2.23804">
        <ele>128.9</ele>
        <time>2022-10-07T13:42:37Z</time>
      </trkpt>
      <trkpt lat="49.7867" lon="2.23804">
        <ele>128.9</ele>
        <time>2022-10-07T13:42:38Z</time>
      </trkpt>
      <trkpt lat="49.7867" lon="2.23804">
        <ele>128.9</ele>
        <time>2022-10-07T13:42:39Z</time>
      </trkpt>
      <trkpt lat="49.7867" lon="2.23804">
        <ele>128.9</ele>
        <time>2022-10-07T13:42:40Z</time>
      </trkpt>
      <trkpt lat="49.7867" lon="2.23804">
        <ele>128.9</ele>
        <time>2022-10-07T13:42:41Z</time>
      </trkpt>
      <trkpt lat="49.7867" lon="2.23804">
        <ele>128.9</ele>
        <time>2022-10-07T13:42:42Z</time>
      </trkpt>
      <trkpt lat="49.7867" lon="2.23804">
        <ele>128.9</ele>
        <time>2022-10-07T13:42:43Z</time>
      </trkpt>
      <trkpt lat="49.7867" lon="2.23804">
        <ele>128.9</ele>
        <time>2022-10-07T13:42:44Z</time>
      </trkpt>
      <trkpt lat="49.7867" lon="2.23804">
        <ele>128.9</ele>
        <time>2022-10-07T13:42:45Z</time>
      </trkpt>
      <trkpt lat="49.7867" lon="2.23805">
        <ele>128.9</ele>
        <time>2022-10-07T13:42:46Z</time>
      </trkpt>
      <trkpt lat="49.7867" lon="2.23805">
        <ele>128.9</ele>
        <time>2022-10-07T13:42:47Z</time>
      </trkpt>
      <trkpt lat="49.7867" lon="2.23805">
        <ele>128.9</ele>
        <time>2022-10-07T13:42:48Z</time>
      </trkpt>
      <trkpt lat="49.7867" lon="2.23805">
        <ele>128.9</ele>
        <time>2022-10-07T13:42:49Z</time>
      </trkpt>
      <trkpt lat="49.7867" lon="2.23805">
        <ele>128.9</ele>
        <time>2022-10-07T13:42:50Z</time>
      </trkpt>
      <trkpt lat="49.7867" lon="2.23805">
        <ele>128.9</ele>
        <time>2022-10-07T13:42:51Z</time>
      </trkpt>
      <trkpt lat="49.7867" lon="2.23805">
        <ele>128.9</ele>
        <time>2022-10-07T13:42:52Z</time>
      </trkpt>
      <trkpt lat="49.7867" lon="2.23805">
        <ele>128.9</ele>
        <time>2022-10-07T13:42:53Z</time>
      </trkpt>
      <trkpt lat="49.7867" lon="2.23805">
        <ele>128.9</ele>
        <time>2022-10-07T13:42:54Z</time>
      </trkpt>
      <trkpt lat="49.7867" lon="2.23805">
        <ele>128.9</ele>
        <time>2022-10-07T13:42:55Z</time>
      </trkpt>
      <trkpt lat="49.7867" lon="2.23805">
        <ele>128.9</ele>
        <time>2022-10-07T13:42:56Z</time>
      </trkpt>
      <trkpt lat="49.78671" lon="2.23805">
        <ele>128.9</ele>
        <time>2022-10-07T13:42:57Z</time>
      </trkpt>
      <trkpt lat="49.78671" lon="2.23805">
        <ele>128.9</ele>
        <time>2022-10-07T13:42:58Z</time>
      </trkpt>
      <trkpt lat="49.78671" lon="2.23805">
        <ele>128.9</ele>
        <time>2022-10-07T13:42:59Z</time>
      </trkpt>
      <trkpt lat="49.78671" lon="2.23805">
        <ele>128.9</ele>
        <time>2022-10-07T13:43:00Z</time>
      </trkpt>
      <trkpt lat="49.78671" lon="2.23805">
        <ele>129</ele>
        <time>2022-10-07T13:43:01Z</time>
      </trkpt>
      <trkpt lat="49.78671" lon="2.23805">
        <ele>129</ele>
        <time>2022-10-07T13:43:02Z</time>
      </trkpt>
      <trkpt lat="49.78671" lon="2.23805">
        <ele>129</ele>
        <time>2022-10-07T13:43:03Z</time>
      </trkpt>
      <trkpt lat="49.78671" lon="2.23805">
        <ele>129</ele>
        <time>2022-10-07T13:43:04Z</time>
      </trkpt>
      <trkpt lat="49.78671" lon="2.23805">
        <ele>129</ele>
        <time>2022-10-07T13:43:05Z</time>
      </trkpt>
      <trkpt lat="49.78671" lon="2.23805">
        <ele>129</ele>
        <time>2022-10-07T13:43:06Z</time>
      </trkpt>
      <trkpt lat="49.78671" lon="2.23805">
        <ele>129</ele>
        <time>2022-10-07T13:43:07Z</time>
      </trkpt>
      <trkpt lat="49.78671" lon="2.23805">
        <ele>129</ele>
        <time>2022-10-07T13:43:08Z</time>
      </trkpt>
      <trkpt lat="49.78671" lon="2.23805">
        <ele>129</ele>
        <time>2022-10-07T13:43:09Z</time>
      </trkpt>
      <trkpt lat="49.78671" lon="2.23805">
        <ele>129</ele>
        <time>2022-10-07T13:43:10Z</time>
      </trkpt>
      <trkpt lat="49.78671" lon="2.23805">
        <ele>129</ele>
        <time>2022-10-07T13:43:11Z</time>
      </trkpt>
      <trkpt lat="49.78671" lon="2.23805">
        <ele>129</ele>
        <time>2022-10-07T13:43:12Z</time>
      </trkpt>
      <trkpt lat="49.78671" lon="2.23805">
        <ele>129</ele>
        <time>2022-10-07T13:43:13Z</time>
      </trkpt>
      <trkpt lat="49.78671" lon="2.23805">
        <ele>129</ele>
        <time>2022-10-07T13:43:14Z</time>
      </trkpt>
      <trkpt lat="49.78671" lon="2.23805">
        <ele>129</ele>
        <time>2022-10-07T13:43:15Z</time>
      </trkpt>
      <trkpt lat="49.78671" lon="2.23805">
        <ele>129</ele>
        <time>2022-10-07T13:43:16Z</time>
      </trkpt>
      <trkpt lat="49.78671" lon="2.23806">
        <ele>129</ele>
        <time>2022-10-07T13:43:17Z</time>
      </trkpt>
      <trkpt lat="49.78671" lon="2.23806">
        <ele>129</ele>
        <time>2022-10-07T13:43:18Z</time>
      </trkpt>
      <trkpt lat="49.78671" lon="2.23806">
        <ele>129</ele>
        <time>2022-10-07T13:43:19Z</time>
      </trkpt>
      <trkpt lat="49.78672" lon="2.23806">
        <ele>129</ele>
        <time>2022-10-07T13:43:20Z</time>
      </trkpt>
      <trkpt lat="49.78672" lon="2.23806">
        <ele>129</ele>
        <time>2022-10-07T13:43:21Z</time>
      </trkpt>
      <trkpt lat="49.78672" lon="2.23806">
        <ele>129</ele>
        <time>2022-10-07T13:43:22Z</time>
      </trkpt>
      <trkpt lat="49.78672" lon="2.23806">
        <ele>129</ele>
        <time>2022-10-07T13:43:23Z</time>
      </trkpt>
      <trkpt lat="49.78672" lon="2.23806">
        <ele>129</ele>
        <time>2022-10-07T13:43:24Z</time>
      </trkpt>
      <trkpt lat="49.78672" lon="2.23806">
        <ele>129</ele>
        <time>2022-10-07T13:43:25Z</time>
      </trkpt>
      <trkpt lat="49.78672" lon="2.23806">
        <ele>129</ele>
        <time>2022-10-07T13:43:26Z</time>
      </trkpt>
      <trkpt lat="49.78672" lon="2.23806">
        <ele>129</ele>
        <time>2022-10-07T13:43:27Z</time>
      </trkpt>
      <trkpt lat="49.78672" lon="2.23806">
        <ele>129</ele>
        <time>2022-10-07T13:43:28Z</time>
      </trkpt>
      <trkpt lat="49.78672" lon="2.23806">
        <ele>129</ele>
        <time>2022-10-07T13:43:29Z</time>
      </trkpt>
      <trkpt lat="49.78672" lon="2.23806">
        <ele>129</ele>
        <time>2022-10-07T13:43:30Z</time>
      </trkpt>
      <trkpt lat="49.78672" lon="2.23806">
        <ele>129</ele>
        <time>2022-10-07T13:43:31Z</time>
      </trkpt>
      <trkpt lat="49.78672" lon="2.23806">
        <ele>129</ele>
        <time>2022-10-07T13:43:32Z</time>
      </trkpt>
      <trkpt lat="49.78672" lon="2.23806">
        <ele>129</ele>
        <time>2022-10-07T13:43:33Z</time>
      </trkpt>
      <trkpt lat="49.78672" lon="2.23806">
        <ele>129</ele>
        <time>2022-10-07T13:43:34Z</time>
      </trkpt>
      <trkpt lat="49.78672" lon="2.23806">
        <ele>129</ele>
        <time>2022-10-07T13:43:35Z</time>
      </trkpt>
      <trkpt lat="49.78672" lon="2.23806">
        <ele>129</ele>
        <time>2022-10-07T13:43:36Z</time>
      </trkpt>
      <trkpt lat="49.78672" lon="2.23806">
        <ele>129</ele>
        <time>2022-10-07T13:43:37Z</time>
      </trkpt>
      <trkpt lat="49.78672" lon="2.23806">
        <ele>129.1</ele>
        <time>2022-10-07T13:43:38Z</time>
      </trkpt>
      <trkpt lat="49.78672" lon="2.23806">
        <ele>129.1</ele>
        <time>2022-10-07T13:43:39Z</time>
      </trkpt>
      <trkpt lat="49.78672" lon="2.23806">
        <ele>129.1</ele>
        <time>2022-10-07T13:43:40Z</time>
      </trkpt>
      <trkpt lat="49.78672" lon="2.23806">
        <ele>129.1</ele>
        <time>2022-10-07T13:43:41Z</time>
      </trkpt>
      <trkpt lat="49.78672" lon="2.23806">
        <ele>129.1</ele>
        <time>2022-10-07T13:43:42Z</time>
      </trkpt>
      <trkpt lat="49.78673" lon="2.23806">
        <ele>129.1</ele>
        <time>2022-10-07T13:43:43Z</time>
      </trkpt>
      <trkpt lat="49.78673" lon="2.23806">
        <ele>129.1</ele>
        <time>2022-10-07T13:43:44Z</time>
      </trkpt>
      <trkpt lat="49.78673" lon="2.23806">
        <ele>129.1</ele>
        <time>2022-10-07T13:43:45Z</time>
      </trkpt>
      <trkpt lat="49.78673" lon="2.23806">
        <ele>129.1</ele>
        <time>2022-10-07T13:43:46Z</time>
      </trkpt>
      <trkpt lat="49.78673" lon="2.23807">
        <ele>129.1</ele>
        <time>2022-10-07T13:43:47Z</time>
      </trkpt>
      <trkpt lat="49.78673" lon="2.23807">
        <ele>129.1</ele>
        <time>2022-10-07T13:43:48Z</time>
      </trkpt>
      <trkpt lat="49.78673" lon="2.23807">
        <ele>129.1</ele>
        <time>2022-10-07T13:43:49Z</time>
      </trkpt>
      <trkpt lat="49.78673" lon="2.23807">
        <ele>129.1</ele>
        <time>2022-10-07T13:43:50Z</time>
      </trkpt>
      <trkpt lat="49.78673" lon="2.23807">
        <ele>129.1</ele>
        <time>2022-10-07T13:43:51Z</time>
      </trkpt>
      <trkpt lat="49.78673" lon="2.23807">
        <ele>129.1</ele>
        <time>2022-10-07T13:43:52Z</time>
      </trkpt>
      <trkpt lat="49.78673" lon="2.23807">
        <ele>129.1</ele>
        <time>2022-10-07T13:43:53Z</time>
      </trkpt>
      <trkpt lat="49.78676" lon="2.23809">
        <ele>129.2</ele>
        <time>2022-10-07T13:43:54Z</time>
      </trkpt>
      <trkpt lat="49.78677" lon="2.2381">
        <ele>129.2</ele>
        <time>2022-10-07T13:43:55Z</time>
      </trkpt>
      <trkpt lat="49.78677" lon="2.2381">
        <ele>129.3</ele>
        <time>2022-10-07T13:43:56Z</time>
      </trkpt>
      <trkpt lat="49.78677" lon="2.2381">
        <ele>129.3</ele>
        <time>2022-10-07T13:43:57Z</time>
      </trkpt>
      <trkpt lat="49.78678" lon="2.2381">
        <ele>129.3</ele>
        <time>2022-10-07T13:43:58Z</time>
      </trkpt>
      <trkpt lat="49.78678" lon="2.2381">
        <ele>129.3</ele>
        <time>2022-10-07T13:43:59Z</time>
      </trkpt>
      <trkpt lat="49.78678" lon="2.2381">
        <ele>129.3</ele>
        <time>2022-10-07T13:44:00Z</time>
      </trkpt>
      <trkpt lat="49.78678" lon="2.2381">
        <ele>129.3</ele>
        <time>2022-10-07T13:44:01Z</time>
      </trkpt>
      <trkpt lat="49.78678" lon="2.2381">
        <ele>129.3</ele>
        <time>2022-10-07T13:44:02Z</time>
      </trkpt>
      <trkpt lat="49.78678" lon="2.23811">
        <ele>129.3</ele>
        <time>2022-10-07T13:44:03Z</time>
      </trkpt>
      <trkpt lat="49.78678" lon="2.23811">
        <ele>129.3</ele>
        <time>2022-10-07T13:44:04Z</time>
      </trkpt>
      <trkpt lat="49.78678" lon="2.23811">
        <ele>129.3</ele>
        <time>2022-10-07T13:44:05Z</time>
      </trkpt>
      <trkpt lat="49.78678" lon="2.23811">
        <ele>129.3</ele>
        <time>2022-10-07T13:44:06Z</time>
      </trkpt>
      <trkpt lat="49.78678" lon="2.23812">
        <ele>129.3</ele>
        <time>2022-10-07T13:44:07Z</time>
      </trkpt>
      <trkpt lat="49.78678" lon="2.23812">
        <ele>129.3</ele>
        <time>2022-10-07T13:44:08Z</time>
      </trkpt>
      <trkpt lat="49.78678" lon="2.23812">
        <ele>129.3</ele>
        <time>2022-10-07T13:44:09Z</time>
      </trkpt>
      <trkpt lat="49.78678" lon="2.23812">
        <ele>129.3</ele>
        <time>2022-10-07T13:44:10Z</time>
      </trkpt>
      <trkpt lat="49.78677" lon="2.23812">
        <ele>129.3</ele>
        <time>2022-10-07T13:44:11Z</time>
      </trkpt>
      <trkpt lat="49.78677" lon="2.23812">
        <ele>129.3</ele>
        <time>2022-10-07T13:44:12Z</time>
      </trkpt>
      <trkpt lat="49.78677" lon="2.23812">
        <ele>129.3</ele>
        <time>2022-10-07T13:44:13Z</time>
      </trkpt>
      <trkpt lat="49.78677" lon="2.23812">
        <ele>129.3</ele>
        <time>2022-10-07T13:44:14Z</time>
      </trkpt>
      <trkpt lat="49.78678" lon="2.23812">
        <ele>129.3</ele>
        <time>2022-10-07T13:44:15Z</time>
      </trkpt>
      <trkpt lat="49.78678" lon="2.23812">
        <ele>129.3</ele>
        <time>2022-10-07T13:44:16Z</time>
      </trkpt>
      <trkpt lat="49.78678" lon="2.23812">
        <ele>129.3</ele>
        <time>2022-10-07T13:44:17Z</time>
      </trkpt>
      <trkpt lat="49.78678" lon="2.23812">
        <ele>129.3</ele>
        <time>2022-10-07T13:44:18Z</time>
      </trkpt>
      <trkpt lat="49.78678" lon="2.23812">
        <ele>129.3</ele>
        <time>2022-10-07T13:44:19Z</time>
      </trkpt>
      <trkpt lat="49.78678" lon="2.23812">
        <ele>129.3</ele>
        <time>2022-10-07T13:44:21Z</time>
      </trkpt>
      <trkpt lat="49.78677" lon="2.23812">
        <ele>129.3</ele>
        <time>2022-10-07T13:44:22Z</time>
      </trkpt>
      <trkpt lat="49.78677" lon="2.23812">
        <ele>129.3</ele>
        <time>2022-10-07T13:44:23Z</time>
      </trkpt>
      <trkpt lat="49.78677" lon="2.23812">
        <ele>129.3</ele>
        <time>2022-10-07T13:44:24Z</time>
      </trkpt>
      <trkpt lat="49.78677" lon="2.23812">
        <ele>129.3</ele>
        <time>2022-10-07T13:44:25Z</time>
      </trkpt>
      <trkpt lat="49.78677" lon="2.23812">
        <ele>129.3</ele>
        <time>2022-10-07T13:44:26Z</time>
      </trkpt>
      <trkpt lat="49.78677" lon="2.23812">
        <ele>129.3</ele>
        <time>2022-10-07T13:44:27Z</time>
      </trkpt>
      <trkpt lat="49.78677" lon="2.23812">
        <ele>129.3</ele>
        <time>2022-10-07T13:44:28Z</time>
      </trkpt>
      <trkpt lat="49.78677" lon="2.23812">
        <ele>129.3</ele>
        <time>2022-10-07T13:44:29Z</time>
      </trkpt>
      <trkpt lat="49.78677" lon="2.23812">
        <ele>129.3</ele>
        <time>2022-10-07T13:44:30Z</time>
      </trkpt>
      <trkpt lat="49.78677" lon="2.23812">
        <ele>129.4</ele>
        <time>2022-10-07T13:44:31Z</time>
      </trkpt>
      <trkpt lat="49.78677" lon="2.23812">
        <ele>129.4</ele>
        <time>2022-10-07T13:44:32Z</time>
      </trkpt>
      <trkpt lat="49.78677" lon="2.23812">
        <ele>129.4</ele>
        <time>2022-10-07T13:44:33Z</time>
      </trkpt>
      <trkpt lat="49.78677" lon="2.23812">
        <ele>129.4</ele>
        <time>2022-10-07T13:44:34Z</time>
      </trkpt>
      <trkpt lat="49.78677" lon="2.23812">
        <ele>129.4</ele>
        <time>2022-10-07T13:44:35Z</time>
      </trkpt>
      <trkpt lat="49.78677" lon="2.23812">
        <ele>129.4</ele>
        <time>2022-10-07T13:44:36Z</time>
      </trkpt>
      <trkpt lat="49.78677" lon="2.23812">
        <ele>129.4</ele>
        <time>2022-10-07T13:44:37Z</time>
      </trkpt>
      <trkpt lat="49.78677" lon="2.23812">
        <ele>129.4</ele>
        <time>2022-10-07T13:44:38Z</time>
      </trkpt>
      <trkpt lat="49.78677" lon="2.23812">
        <ele>129.4</ele>
        <time>2022-10-07T13:44:39Z</time>
      </trkpt>
      <trkpt lat="49.78677" lon="2.23812">
        <ele>129.4</ele>
        <time>2022-10-07T13:44:40Z</time>
      </trkpt>
      <trkpt lat="49.78677" lon="2.23811">
        <ele>129.4</ele>
        <time>2022-10-07T13:44:42Z</time>
      </trkpt>
      <trkpt lat="49.78677" lon="2.23811">
        <ele>129.4</ele>
        <time>2022-10-07T13:44:43Z</time>
      </trkpt>
      <trkpt lat="49.78677" lon="2.2381">
        <ele>129.4</ele>
        <time>2022-10-07T13:44:45Z</time>
      </trkpt>
      <trkpt lat="49.78678" lon="2.2381">
        <ele>129.4</ele>
        <time>2022-10-07T13:44:46Z</time>
      </trkpt>
      <trkpt lat="49.78678" lon="2.2381">
        <ele>129.4</ele>
        <time>2022-10-07T13:44:47Z</time>
      </trkpt>
      <trkpt lat="49.78678" lon="2.23811">
        <ele>129.4</ele>
        <time>2022-10-07T13:44:49Z</time>
      </trkpt>
      <trkpt lat="49.78678" lon="2.23811">
        <ele>129.4</ele>
        <time>2022-10-07T13:44:50Z</time>
      </trkpt>
      <trkpt lat="49.78678" lon="2.23811">
        <ele>129.4</ele>
        <time>2022-10-07T13:44:51Z</time>
      </trkpt>
      <trkpt lat="49.78678" lon="2.23812">
        <ele>129.4</ele>
        <time>2022-10-07T13:44:52Z</time>
      </trkpt>
      <trkpt lat="49.78678" lon="2.23812">
        <ele>129.4</ele>
        <time>2022-10-07T13:44:53Z</time>
      </trkpt>
      <trkpt lat="49.78678" lon="2.23813">
        <ele>129.4</ele>
        <time>2022-10-07T13:44:54Z</time>
      </trkpt>
      <trkpt lat="49.78677" lon="2.23813">
        <ele>129.5</ele>
        <time>2022-10-07T13:44:56Z</time>
      </trkpt>
      <trkpt lat="49.78677" lon="2.23813">
        <ele>129.5</ele>
        <time>2022-10-07T13:44:57Z</time>
      </trkpt>
      <trkpt lat="49.78677" lon="2.23813">
        <ele>129.5</ele>
        <time>2022-10-07T13:44:58Z</time>
      </trkpt>
      <trkpt lat="49.78677" lon="2.23813">
        <ele>129.5</ele>
        <time>2022-10-07T13:44:59Z</time>
      </trkpt>
      <trkpt lat="49.78677" lon="2.23813">
        <ele>129.5</ele>
        <time>2022-10-07T13:45:00Z</time>
      </trkpt>
      <trkpt lat="49.78677" lon="2.23813">
        <ele>129.5</ele>
        <time>2022-10-07T13:45:01Z</time>
      </trkpt>
      <trkpt lat="49.78677" lon="2.23813">
        <ele>129.5</ele>
        <time>2022-10-07T13:45:02Z</time>
      </trkpt>
      <trkpt lat="49.78677" lon="2.23813">
        <ele>129.5</ele>
        <time>2022-10-07T13:45:03Z</time>
      </trkpt>
      <trkpt lat="49.78677" lon="2.23813">
        <ele>129.5</ele>
        <time>2022-10-07T13:45:04Z</time>
      </trkpt>
      <trkpt lat="49.78677" lon="2.23813">
        <ele>129.5</ele>
        <time>2022-10-07T13:45:05Z</time>
      </trkpt>
      <trkpt lat="49.78677" lon="2.23813">
        <ele>129.5</ele>
        <time>2022-10-07T13:45:06Z</time>
      </trkpt>
      <trkpt lat="49.78677" lon="2.23813">
        <ele>129.5</ele>
        <time>2022-10-07T13:45:07Z</time>
      </trkpt>
      <trkpt lat="49.78677" lon="2.23814">
        <ele>129.5</ele>
        <time>2022-10-07T13:45:08Z</time>
      </trkpt>
      <trkpt lat="49.78677" lon="2.23815">
        <ele>129.5</ele>
        <time>2022-10-07T13:45:10Z</time>
      </trkpt>
      <trkpt lat="49.78678" lon="2.23816">
        <ele>129.5</ele>
        <time>2022-10-07T13:45:11Z</time>
      </trkpt>
      <trkpt lat="49.78679" lon="2.23818">
        <ele>129.5</ele>
        <time>2022-10-07T13:45:12Z</time>
      </trkpt>
      <trkpt lat="49.78681" lon="2.23818">
        <ele>129.6</ele>
        <time>2022-10-07T13:45:13Z</time>
      </trkpt>
      <trkpt lat="49.78682" lon="2.23819">
        <ele>129.6</ele>
        <time>2022-10-07T13:45:14Z</time>
      </trkpt>
      <trkpt lat="49.78684" lon="2.2382">
        <ele>129.6</ele>
        <time>2022-10-07T13:45:16Z</time>
      </trkpt>
      <trkpt lat="49.78686" lon="2.23821">
        <ele>129.6</ele>
        <time>2022-10-07T13:45:17Z</time>
      </trkpt>
      <trkpt lat="49.78687" lon="2.23821">
        <ele>129.6</ele>
        <time>2022-10-07T13:45:18Z</time>
      </trkpt>
      <trkpt lat="49.78689" lon="2.23822">
        <ele>129.6</ele>
        <time>2022-10-07T13:45:19Z</time>
      </trkpt>
      <trkpt lat="49.78691" lon="2.23823">
        <ele>129.6</ele>
        <time>2022-10-07T13:45:20Z</time>
      </trkpt>
      <trkpt lat="49.78692" lon="2.23823">
        <ele>129.7</ele>
        <time>2022-10-07T13:45:22Z</time>
      </trkpt>
      <trkpt lat="49.78693" lon="2.23824">
        <ele>129.7</ele>
        <time>2022-10-07T13:45:23Z</time>
      </trkpt>
      <trkpt lat="49.78694" lon="2.23825">
        <ele>129.7</ele>
        <time>2022-10-07T13:45:24Z</time>
      </trkpt>
      <trkpt lat="49.78695" lon="2.23825">
        <ele>129.7</ele>
        <time>2022-10-07T13:45:25Z</time>
      </trkpt>
      <trkpt lat="49.78697" lon="2.23826">
        <ele>129.7</ele>
        <time>2022-10-07T13:45:26Z</time>
      </trkpt>
      <trkpt lat="49.78698" lon="2.23826">
        <ele>129.7</ele>
        <time>2022-10-07T13:45:28Z</time>
      </trkpt>
      <trkpt lat="49.78699" lon="2.23826">
        <ele>129.7</ele>
        <time>2022-10-07T13:45:29Z</time>
      </trkpt>
      <trkpt lat="49.787" lon="2.23826">
        <ele>129.7</ele>
        <time>2022-10-07T13:45:30Z</time>
      </trkpt>
      <trkpt lat="49.78702" lon="2.23827">
        <ele>129.7</ele>
        <time>2022-10-07T13:45:31Z</time>
      </trkpt>
      <trkpt lat="49.78703" lon="2.23827">
        <ele>129.7</ele>
        <time>2022-10-07T13:45:32Z</time>
      </trkpt>
      <trkpt lat="49.78705" lon="2.23827">
        <ele>129.7</ele>
        <time>2022-10-07T13:45:33Z</time>
      </trkpt>
      <trkpt lat="49.78706" lon="2.23827">
        <ele>129.6</ele>
        <time>2022-10-07T13:45:35Z</time>
      </trkpt>
      <trkpt lat="49.78708" lon="2.23827">
        <ele>129.6</ele>
        <time>2022-10-07T13:45:36Z</time>
      </trkpt>
      <trkpt lat="49.78709" lon="2.23827">
        <ele>129.6</ele>
        <time>2022-10-07T13:45:37Z</time>
      </trkpt>
      <trkpt lat="49.7871" lon="2.23828">
        <ele>129.6</ele>
        <time>2022-10-07T13:45:38Z</time>
      </trkpt>
      <trkpt lat="49.78713" lon="2.23828">
        <ele>129.6</ele>
        <time>2022-10-07T13:45:39Z</time>
      </trkpt>
      <trkpt lat="49.78713" lon="2.23828">
        <ele>129.6</ele>
        <time>2022-10-07T13:45:41Z</time>
      </trkpt>
      <trkpt lat="49.78714" lon="2.23828">
        <ele>129.6</ele>
        <time>2022-10-07T13:45:42Z</time>
      </trkpt>
      <trkpt lat="49.78716" lon="2.23828">
        <ele>129.6</ele>
        <time>2022-10-07T13:45:43Z</time>
      </trkpt>
      <trkpt lat="49.78717" lon="2.23828">
        <ele>129.6</ele>
        <time>2022-10-07T13:45:44Z</time>
      </trkpt>
      <trkpt lat="49.78718" lon="2.23829">
        <ele>129.6</ele>
        <time>2022-10-07T13:45:45Z</time>
      </trkpt>
      <trkpt lat="49.78719" lon="2.23829">
        <ele>129.5</ele>
        <time>2022-10-07T13:45:46Z</time>
      </trkpt>
      <trkpt lat="49.7872" lon="2.23829">
        <ele>129.5</ele>
        <time>2022-10-07T13:45:47Z</time>
      </trkpt>
      <trkpt lat="49.78721" lon="2.2383">
        <ele>129.5</ele>
        <time>2022-10-07T13:45:48Z</time>
      </trkpt>
      <trkpt lat="49.78723" lon="2.2383">
        <ele>129.5</ele>
        <time>2022-10-07T13:45:50Z</time>
      </trkpt>
      <trkpt lat="49.78724" lon="2.2383">
        <ele>129.5</ele>
        <time>2022-10-07T13:45:51Z</time>
      </trkpt>
      <trkpt lat="49.78725" lon="2.2383">
        <ele>129.5</ele>
        <time>2022-10-07T13:45:52Z</time>
      </trkpt>
      <trkpt lat="49.78726" lon="2.23831">
        <ele>129.5</ele>
        <time>2022-10-07T13:45:54Z</time>
      </trkpt>
      <trkpt lat="49.78727" lon="2.23831">
        <ele>129.5</ele>
        <time>2022-10-07T13:45:55Z</time>
      </trkpt>
      <trkpt lat="49.78727" lon="2.23831">
        <ele>129.5</ele>
        <time>2022-10-07T13:45:56Z</time>
      </trkpt>
      <trkpt lat="49.78728" lon="2.23831">
        <ele>129.5</ele>
        <time>2022-10-07T13:45:57Z</time>
      </trkpt>
      <trkpt lat="49.7873" lon="2.23831">
        <ele>129.5</ele>
        <time>2022-10-07T13:45:58Z</time>
      </trkpt>
      <trkpt lat="49.78731" lon="2.23831">
        <ele>129.5</ele>
        <time>2022-10-07T13:45:59Z</time>
      </trkpt>
      <trkpt lat="49.78733" lon="2.23831">
        <ele>129.4</ele>
        <time>2022-10-07T13:46:00Z</time>
      </trkpt>
      <trkpt lat="49.78734" lon="2.2383">
        <ele>129.4</ele>
        <time>2022-10-07T13:46:01Z</time>
      </trkpt>
      <trkpt lat="49.78734" lon="2.2383">
        <ele>129.4</ele>
        <time>2022-10-07T13:46:02Z</time>
      </trkpt>
      <trkpt lat="49.78735" lon="2.23829">
        <ele>129.4</ele>
        <time>2022-10-07T13:46:04Z</time>
      </trkpt>
      <trkpt lat="49.78736" lon="2.23829">
        <ele>129.4</ele>
        <time>2022-10-07T13:46:05Z</time>
      </trkpt>
      <trkpt lat="49.78737" lon="2.23829">
        <ele>129.4</ele>
        <time>2022-10-07T13:46:06Z</time>
      </trkpt>
      <trkpt lat="49.78738" lon="2.23828">
        <ele>129.4</ele>
        <time>2022-10-07T13:46:07Z</time>
      </trkpt>
      <trkpt lat="49.7874" lon="2.23827">
        <ele>129.4</ele>
        <time>2022-10-07T13:46:08Z</time>
      </trkpt>
      <trkpt lat="49.78742" lon="2.23827">
        <ele>129.4</ele>
        <time>2022-10-07T13:46:09Z</time>
      </trkpt>
      <trkpt lat="49.78743" lon="2.23827">
        <ele>129.4</ele>
        <time>2022-10-07T13:46:10Z</time>
      </trkpt>
      <trkpt lat="49.78743" lon="2.23826">
        <ele>129.4</ele>
        <time>2022-10-07T13:46:11Z</time>
      </trkpt>
      <trkpt lat="49.78746" lon="2.23825">
        <ele>129.3</ele>
        <time>2022-10-07T13:46:12Z</time>
      </trkpt>
      <trkpt lat="49.78747" lon="2.23825">
        <ele>129.3</ele>
        <time>2022-10-07T13:46:14Z</time>
      </trkpt>
      <trkpt lat="49.78748" lon="2.23825">
        <ele>129.3</ele>
        <time>2022-10-07T13:46:15Z</time>
      </trkpt>
      <trkpt lat="49.78749" lon="2.23824">
        <ele>129.3</ele>
        <time>2022-10-07T13:46:16Z</time>
      </trkpt>
      <trkpt lat="49.7875" lon="2.23824">
        <ele>129.3</ele>
        <time>2022-10-07T13:46:17Z</time>
      </trkpt>
      <trkpt lat="49.78752" lon="2.23823">
        <ele>129.3</ele>
        <time>2022-10-07T13:46:18Z</time>
      </trkpt>
      <trkpt lat="49.78753" lon="2.23823">
        <ele>129.3</ele>
        <time>2022-10-07T13:46:19Z</time>
      </trkpt>
      <trkpt lat="49.78755" lon="2.23823">
        <ele>129.3</ele>
        <time>2022-10-07T13:46:20Z</time>
      </trkpt>
      <trkpt lat="49.78756" lon="2.23823">
        <ele>129.3</ele>
        <time>2022-10-07T13:46:21Z</time>
      </trkpt>
      <trkpt lat="49.78757" lon="2.23822">
        <ele>129.2</ele>
        <time>2022-10-07T13:46:22Z</time>
      </trkpt>
      <trkpt lat="49.78758" lon="2.23823">
        <ele>129.2</ele>
        <time>2022-10-07T13:46:24Z</time>
      </trkpt>
      <trkpt lat="49.78759" lon="2.23823">
        <ele>129.2</ele>
        <time>2022-10-07T13:46:25Z</time>
      </trkpt>
      <trkpt lat="49.7876" lon="2.23823">
        <ele>129.2</ele>
        <time>2022-10-07T13:46:26Z</time>
      </trkpt>
      <trkpt lat="49.78762" lon="2.23823">
        <ele>129.2</ele>
        <time>2022-10-07T13:46:27Z</time>
      </trkpt>
      <trkpt lat="49.78763" lon="2.23824">
        <ele>129.2</ele>
        <time>2022-10-07T13:46:28Z</time>
      </trkpt>
      <trkpt lat="49.78765" lon="2.23824">
        <ele>129.1</ele>
        <time>2022-10-07T13:46:30Z</time>
      </trkpt>
      <trkpt lat="49.78766" lon="2.23824">
        <ele>129.1</ele>
        <time>2022-10-07T13:46:31Z</time>
      </trkpt>
      <trkpt lat="49.78766" lon="2.23824">
        <ele>129.1</ele>
        <time>2022-10-07T13:46:32Z</time>
      </trkpt>
      <trkpt lat="49.78767" lon="2.23823">
        <ele>129.1</ele>
        <time>2022-10-07T13:46:33Z</time>
      </trkpt>
      <trkpt lat="49.78767" lon="2.23823">
        <ele>129.1</ele>
        <time>2022-10-07T13:46:34Z</time>
      </trkpt>
      <trkpt lat="49.78767" lon="2.23823">
        <ele>129.1</ele>
        <time>2022-10-07T13:46:35Z</time>
      </trkpt>
      <trkpt lat="49.78767" lon="2.23823">
        <ele>129.1</ele>
        <time>2022-10-07T13:46:36Z</time>
      </trkpt>
      <trkpt lat="49.78767" lon="2.23823">
        <ele>129.1</ele>
        <time>2022-10-07T13:46:37Z</time>
      </trkpt>
      <trkpt lat="49.78767" lon="2.23823">
        <ele>129.1</ele>
        <time>2022-10-07T13:46:38Z</time>
      </trkpt>
      <trkpt lat="49.78767" lon="2.23823">
        <ele>129.1</ele>
        <time>2022-10-07T13:46:39Z</time>
      </trkpt>
      <trkpt lat="49.78767" lon="2.23822">
        <ele>129.1</ele>
        <time>2022-10-07T13:46:40Z</time>
      </trkpt>
      <trkpt lat="49.78767" lon="2.23822">
        <ele>129</ele>
        <time>2022-10-07T13:46:41Z</time>
      </trkpt>
      <trkpt lat="49.78767" lon="2.23821">
        <ele>129</ele>
        <time>2022-10-07T13:46:42Z</time>
      </trkpt>
      <trkpt lat="49.78767" lon="2.23821">
        <ele>129</ele>
        <time>2022-10-07T13:46:43Z</time>
      </trkpt>
      <trkpt lat="49.78767" lon="2.23821">
        <ele>129</ele>
        <time>2022-10-07T13:46:44Z</time>
      </trkpt>
      <trkpt lat="49.78767" lon="2.23821">
        <ele>129</ele>
        <time>2022-10-07T13:46:45Z</time>
      </trkpt>
      <trkpt lat="49.78767" lon="2.2382">
        <ele>129</ele>
        <time>2022-10-07T13:46:46Z</time>
      </trkpt>
      <trkpt lat="49.78766" lon="2.2382">
        <ele>129</ele>
        <time>2022-10-07T13:46:47Z</time>
      </trkpt>
      <trkpt lat="49.78766" lon="2.2382">
        <ele>129</ele>
        <time>2022-10-07T13:46:48Z</time>
      </trkpt>
      <trkpt lat="49.78766" lon="2.2382">
        <ele>129</ele>
        <time>2022-10-07T13:46:49Z</time>
      </trkpt>
      <trkpt lat="49.78766" lon="2.2382">
        <ele>129</ele>
        <time>2022-10-07T13:46:50Z</time>
      </trkpt>
      <trkpt lat="49.78766" lon="2.2382">
        <ele>129</ele>
        <time>2022-10-07T13:46:51Z</time>
      </trkpt>
      <trkpt lat="49.78765" lon="2.2382">
        <ele>129</ele>
        <time>2022-10-07T13:46:52Z</time>
      </trkpt>
      <trkpt lat="49.78765" lon="2.2382">
        <ele>129</ele>
        <time>2022-10-07T13:46:53Z</time>
      </trkpt>
      <trkpt lat="49.78764" lon="2.2382">
        <ele>129</ele>
        <time>2022-10-07T13:46:54Z</time>
      </trkpt>
      <trkpt lat="49.78764" lon="2.23821">
        <ele>129</ele>
        <time>2022-10-07T13:46:55Z</time>
      </trkpt>
      <trkpt lat="49.78763" lon="2.23821">
        <ele>129</ele>
        <time>2022-10-07T13:46:57Z</time>
      </trkpt>
      <trkpt lat="49.78763" lon="2.23821">
        <ele>128.9</ele>
        <time>2022-10-07T13:46:58Z</time>
      </trkpt>
      <trkpt lat="49.78763" lon="2.23822">
        <ele>128.9</ele>
        <time>2022-10-07T13:46:59Z</time>
      </trkpt>
      <trkpt lat="49.78763" lon="2.23822">
        <ele>128.9</ele>
        <time>2022-10-07T13:47:00Z</time>
      </trkpt>
      <trkpt lat="49.78763" lon="2.23823">
        <ele>128.9</ele>
        <time>2022-10-07T13:47:01Z</time>
      </trkpt>
      <trkpt lat="49.78763" lon="2.23824">
        <ele>128.9</ele>
        <time>2022-10-07T13:47:02Z</time>
      </trkpt>
      <trkpt lat="49.78763" lon="2.23824">
        <ele>128.9</ele>
        <time>2022-10-07T13:47:03Z</time>
      </trkpt>
      <trkpt lat="49.78763" lon="2.23824">
        <ele>128.9</ele>
        <time>2022-10-07T13:47:04Z</time>
      </trkpt>
      <trkpt lat="49.78763" lon="2.23824">
        <ele>128.9</ele>
        <time>2022-10-07T13:47:05Z</time>
      </trkpt>
      <trkpt lat="49.78762" lon="2.23824">
        <ele>128.9</ele>
        <time>2022-10-07T13:47:07Z</time>
      </trkpt>
      <trkpt lat="49.78762" lon="2.23825">
        <ele>128.9</ele>
        <time>2022-10-07T13:47:08Z</time>
      </trkpt>
      <trkpt lat="49.78763" lon="2.23826">
        <ele>128.9</ele>
        <time>2022-10-07T13:47:09Z</time>
      </trkpt>
      <trkpt lat="49.78763" lon="2.23826">
        <ele>128.8</ele>
        <time>2022-10-07T13:47:10Z</time>
      </trkpt>
      <trkpt lat="49.78764" lon="2.23827">
        <ele>128.8</ele>
        <time>2022-10-07T13:47:11Z</time>
      </trkpt>
      <trkpt lat="49.78765" lon="2.23827">
        <ele>128.8</ele>
        <time>2022-10-07T13:47:13Z</time>
      </trkpt>
      <trkpt lat="49.78765" lon="2.23828">
        <ele>128.8</ele>
        <time>2022-10-07T13:47:14Z</time>
      </trkpt>
      <trkpt lat="49.78766" lon="2.23829">
        <ele>128.8</ele>
        <time>2022-10-07T13:47:15Z</time>
      </trkpt>
      <trkpt lat="49.78769" lon="2.23831">
        <ele>128.7</ele>
        <time>2022-10-07T13:47:16Z</time>
      </trkpt>
      <trkpt lat="49.78769" lon="2.23832">
        <ele>128.7</ele>
        <time>2022-10-07T13:47:17Z</time>
      </trkpt>
      <trkpt lat="49.78771" lon="2.23834">
        <ele>128.6</ele>
        <time>2022-10-07T13:47:18Z</time>
      </trkpt>
      <trkpt lat="49.78772" lon="2.23835">
        <ele>128.6</ele>
        <time>2022-10-07T13:47:19Z</time>
      </trkpt>
      <trkpt lat="49.78773" lon="2.23835">
        <ele>128.6</ele>
        <time>2022-10-07T13:47:20Z</time>
      </trkpt>
      <trkpt lat="49.78775" lon="2.23833">
        <ele>128.5</ele>
        <time>2022-10-07T13:47:22Z</time>
      </trkpt>
      <trkpt lat="49.78777" lon="2.23832">
        <ele>128.5</ele>
        <time>2022-10-07T13:47:24Z</time>
      </trkpt>
      <trkpt lat="49.78777" lon="2.23832">
        <ele>128.5</ele>
        <time>2022-10-07T13:47:25Z</time>
      </trkpt>
      <trkpt lat="49.78777" lon="2.23832">
        <ele>128.5</ele>
        <time>2022-10-07T13:47:26Z</time>
      </trkpt>
      <trkpt lat="49.78777" lon="2.23832">
        <ele>128.5</ele>
        <time>2022-10-07T13:47:27Z</time>
      </trkpt>
      <trkpt lat="49.78777" lon="2.23832">
        <ele>128.5</ele>
        <time>2022-10-07T13:47:28Z</time>
      </trkpt>
      <trkpt lat="49.78777" lon="2.23832">
        <ele>128.5</ele>
        <time>2022-10-07T13:47:29Z</time>
      </trkpt>
      <trkpt lat="49.78777" lon="2.23832">
        <ele>128.5</ele>
        <time>2022-10-07T13:47:30Z</time>
      </trkpt>
      <trkpt lat="49.78777" lon="2.23832">
        <ele>128.5</ele>
        <time>2022-10-07T13:47:31Z</time>
      </trkpt>
      <trkpt lat="49.78777" lon="2.23832">
        <ele>128.5</ele>
        <time>2022-10-07T13:47:32Z</time>
      </trkpt>
      <trkpt lat="49.78777" lon="2.23832">
        <ele>128.5</ele>
        <time>2022-10-07T13:47:33Z</time>
      </trkpt>
      <trkpt lat="49.78777" lon="2.23832">
        <ele>128.5</ele>
        <time>2022-10-07T13:47:35Z</time>
      </trkpt>
      <trkpt lat="49.78777" lon="2.23832">
        <ele>128.5</ele>
        <time>2022-10-07T13:47:36Z</time>
      </trkpt>
      <trkpt lat="49.78777" lon="2.23832">
        <ele>128.5</ele>
        <time>2022-10-07T13:47:37Z</time>
      </trkpt>
      <trkpt lat="49.78777" lon="2.23832">
        <ele>128.5</ele>
        <time>2022-10-07T13:47:38Z</time>
      </trkpt>
      <trkpt lat="49.78778" lon="2.23832">
        <ele>128.5</ele>
        <time>2022-10-07T13:47:40Z</time>
      </trkpt>
      <trkpt lat="49.78778" lon="2.23832">
        <ele>128.5</ele>
        <time>2022-10-07T13:47:41Z</time>
      </trkpt>
      <trkpt lat="49.78778" lon="2.23832">
        <ele>128.5</ele>
        <time>2022-10-07T13:47:42Z</time>
      </trkpt>
      <trkpt lat="49.78778" lon="2.23832">
        <ele>128.5</ele>
        <time>2022-10-07T13:47:43Z</time>
      </trkpt>
      <trkpt lat="49.78778" lon="2.23832">
        <ele>128.5</ele>
        <time>2022-10-07T13:47:44Z</time>
      </trkpt>
      <trkpt lat="49.78778" lon="2.23832">
        <ele>128.5</ele>
        <time>2022-10-07T13:47:45Z</time>
      </trkpt>
      <trkpt lat="49.78778" lon="2.23832">
        <ele>128.5</ele>
        <time>2022-10-07T13:47:47Z</time>
      </trkpt>
      <trkpt lat="49.78778" lon="2.23832">
        <ele>128.4</ele>
        <time>2022-10-07T13:47:48Z</time>
      </trkpt>
      <trkpt lat="49.78778" lon="2.23832">
        <ele>128.4</ele>
        <time>2022-10-07T13:47:49Z</time>
      </trkpt>
      <trkpt lat="49.78778" lon="2.23832">
        <ele>128.4</ele>
        <time>2022-10-07T13:47:50Z</time>
      </trkpt>
      <trkpt lat="49.78778" lon="2.23832">
        <ele>128.4</ele>
        <time>2022-10-07T13:47:51Z</time>
      </trkpt>
      <trkpt lat="49.78778" lon="2.23832">
        <ele>128.4</ele>
        <time>2022-10-07T13:47:52Z</time>
      </trkpt>
      <trkpt lat="49.78778" lon="2.23832">
        <ele>128.4</ele>
        <time>2022-10-07T13:47:53Z</time>
      </trkpt>
      <trkpt lat="49.78778" lon="2.23832">
        <ele>128.4</ele>
        <time>2022-10-07T13:47:54Z</time>
      </trkpt>
      <trkpt lat="49.78778" lon="2.23832">
        <ele>128.4</ele>
        <time>2022-10-07T13:47:55Z</time>
      </trkpt>
      <trkpt lat="49.78778" lon="2.23832">
        <ele>128.4</ele>
        <time>2022-10-07T13:47:56Z</time>
      </trkpt>
      <trkpt lat="49.78778" lon="2.23832">
        <ele>128.4</ele>
        <time>2022-10-07T13:47:57Z</time>
      </trkpt>
      <trkpt lat="49.78779" lon="2.23832">
        <ele>128.4</ele>
        <time>2022-10-07T13:47:58Z</time>
      </trkpt>
      <trkpt lat="49.78779" lon="2.23832">
        <ele>128.4</ele>
        <time>2022-10-07T13:47:59Z</time>
      </trkpt>
      <trkpt lat="49.78779" lon="2.23832">
        <ele>128.4</ele>
        <time>2022-10-07T13:48:00Z</time>
      </trkpt>
      <trkpt lat="49.78779" lon="2.23832">
        <ele>128.4</ele>
        <time>2022-10-07T13:48:02Z</time>
      </trkpt>
      <trkpt lat="49.78779" lon="2.23832">
        <ele>128.4</ele>
        <time>2022-10-07T13:48:03Z</time>
      </trkpt>
      <trkpt lat="49.78779" lon="2.23832">
        <ele>128.4</ele>
        <time>2022-10-07T13:48:04Z</time>
      </trkpt>
      <trkpt lat="49.78779" lon="2.23832">
        <ele>128.4</ele>
        <time>2022-10-07T13:48:05Z</time>
      </trkpt>
      <trkpt lat="49.78779" lon="2.23833">
        <ele>128.4</ele>
        <time>2022-10-07T13:48:06Z</time>
      </trkpt>
      <trkpt lat="49.78779" lon="2.23833">
        <ele>128.4</ele>
        <time>2022-10-07T13:48:07Z</time>
      </trkpt>
      <trkpt lat="49.78781" lon="2.23832">
        <ele>128.4</ele>
        <time>2022-10-07T13:48:08Z</time>
      </trkpt>
      <trkpt lat="49.78781" lon="2.23833">
        <ele>128.4</ele>
        <time>2022-10-07T13:48:09Z</time>
      </trkpt>
      <trkpt lat="49.78781" lon="2.23836">
        <ele>128.3</ele>
        <time>2022-10-07T13:48:10Z</time>
      </trkpt>
      <trkpt lat="49.78781" lon="2.23838">
        <ele>128.3</ele>
        <time>2022-10-07T13:48:12Z</time>
      </trkpt>
      <trkpt lat="49.78781" lon="2.2384">
        <ele>128.3</ele>
        <time>2022-10-07T13:48:13Z</time>
      </trkpt>
      <trkpt lat="49.78782" lon="2.23842">
        <ele>128.3</ele>
        <time>2022-10-07T13:48:14Z</time>
      </trkpt>
      <trkpt lat="49.78784" lon="2.23842">
        <ele>128.2</ele>
        <time>2022-10-07T13:48:15Z</time>
      </trkpt>
      <trkpt lat="49.78787" lon="2.23842">
        <ele>128.2</ele>
        <time>2022-10-07T13:48:16Z</time>
      </trkpt>
      <trkpt lat="49.78788" lon="2.23842">
        <ele>128.2</ele>
        <time>2022-10-07T13:48:17Z</time>
      </trkpt>
      <trkpt lat="49.7879" lon="2.23842">
        <ele>128.1</ele>
        <time>2022-10-07T13:48:18Z</time>
      </trkpt>
      <trkpt lat="49.78791" lon="2.23842">
        <ele>128.1</ele>
        <time>2022-10-07T13:48:19Z</time>
      </trkpt>
      <trkpt lat="49.78795" lon="2.23842">
        <ele>128</ele>
        <time>2022-10-07T13:48:20Z</time>
      </trkpt>
      <trkpt lat="49.78796" lon="2.23842">
        <ele>128</ele>
        <time>2022-10-07T13:48:21Z</time>
      </trkpt>
      <trkpt lat="49.78799" lon="2.23841">
        <ele>128</ele>
        <time>2022-10-07T13:48:22Z</time>
      </trkpt>
      <trkpt lat="49.78801" lon="2.23841">
        <ele>127.9</ele>
        <time>2022-10-07T13:48:24Z</time>
      </trkpt>
      <trkpt lat="49.78804" lon="2.2384">
        <ele>127.8</ele>
        <time>2022-10-07T13:48:25Z</time>
      </trkpt>
      <trkpt lat="49.78805" lon="2.2384">
        <ele>127.8</ele>
        <time>2022-10-07T13:48:26Z</time>
      </trkpt>
      <trkpt lat="49.78808" lon="2.23839">
        <ele>127.7</ele>
        <time>2022-10-07T13:48:27Z</time>
      </trkpt>
      <trkpt lat="49.78809" lon="2.23838">
        <ele>127.7</ele>
        <time>2022-10-07T13:48:28Z</time>
      </trkpt>
      <trkpt lat="49.78812" lon="2.23839">
        <ele>127.6</ele>
        <time>2022-10-07T13:48:29Z</time>
      </trkpt>
      <trkpt lat="49.78813" lon="2.23839">
        <ele>127.6</ele>
        <time>2022-10-07T13:48:30Z</time>
      </trkpt>
      <trkpt lat="49.78816" lon="2.23839">
        <ele>127.6</ele>
        <time>2022-10-07T13:48:31Z</time>
      </trkpt>
      <trkpt lat="49.78817" lon="2.23839">
        <ele>127.5</ele>
        <time>2022-10-07T13:48:32Z</time>
      </trkpt>
      <trkpt lat="49.78818" lon="2.23839">
        <ele>127.5</ele>
        <time>2022-10-07T13:48:33Z</time>
      </trkpt>
      <trkpt lat="49.78819" lon="2.23839">
        <ele>127.5</ele>
        <time>2022-10-07T13:48:34Z</time>
      </trkpt>
      <trkpt lat="49.78821" lon="2.23839">
        <ele>127.5</ele>
        <time>2022-10-07T13:48:35Z</time>
      </trkpt>
      <trkpt lat="49.78821" lon="2.23837">
        <ele>127.4</ele>
        <time>2022-10-07T13:48:36Z</time>
      </trkpt>
      <trkpt lat="49.78822" lon="2.23837">
        <ele>127.4</ele>
        <time>2022-10-07T13:48:37Z</time>
      </trkpt>
      <trkpt lat="49.78824" lon="2.23836">
        <ele>127.4</ele>
        <time>2022-10-07T13:48:39Z</time>
      </trkpt>
      <trkpt lat="49.78825" lon="2.23837">
        <ele>127.3</ele>
        <time>2022-10-07T13:48:40Z</time>
      </trkpt>
      <trkpt lat="49.78827" lon="2.23837">
        <ele>127.3</ele>
        <time>2022-10-07T13:48:41Z</time>
      </trkpt>
      <trkpt lat="49.78828" lon="2.23836">
        <ele>127.3</ele>
        <time>2022-10-07T13:48:42Z</time>
      </trkpt>
      <trkpt lat="49.78829" lon="2.23836">
        <ele>127.2</ele>
        <time>2022-10-07T13:48:43Z</time>
      </trkpt>
      <trkpt lat="49.7883" lon="2.23836">
        <ele>127.2</ele>
        <time>2022-10-07T13:48:45Z</time>
      </trkpt>
      <trkpt lat="49.78832" lon="2.23836">
        <ele>127.2</ele>
        <time>2022-10-07T13:48:46Z</time>
      </trkpt>
      <trkpt lat="49.78833" lon="2.23837">
        <ele>127.1</ele>
        <time>2022-10-07T13:48:47Z</time>
      </trkpt>
      <trkpt lat="49.78834" lon="2.23837">
        <ele>127.1</ele>
        <time>2022-10-07T13:48:48Z</time>
      </trkpt>
      <trkpt lat="49.78836" lon="2.23838">
        <ele>127.1</ele>
        <time>2022-10-07T13:48:49Z</time>
      </trkpt>
      <trkpt lat="49.78838" lon="2.23838">
        <ele>127</ele>
        <time>2022-10-07T13:48:50Z</time>
      </trkpt>
      <trkpt lat="49.7884" lon="2.23839">
        <ele>127</ele>
        <time>2022-10-07T13:48:51Z</time>
      </trkpt>
      <trkpt lat="49.78842" lon="2.23839">
        <ele>126.9</ele>
        <time>2022-10-07T13:48:52Z</time>
      </trkpt>
      <trkpt lat="49.78843" lon="2.23839">
        <ele>126.9</ele>
        <time>2022-10-07T13:48:53Z</time>
      </trkpt>
      <trkpt lat="49.78845" lon="2.23838">
        <ele>126.8</ele>
        <time>2022-10-07T13:48:55Z</time>
      </trkpt>
      <trkpt lat="49.78847" lon="2.23838">
        <ele>126.8</ele>
        <time>2022-10-07T13:48:56Z</time>
      </trkpt>
      <trkpt lat="49.78848" lon="2.23838">
        <ele>126.8</ele>
        <time>2022-10-07T13:48:57Z</time>
      </trkpt>
      <trkpt lat="49.78849" lon="2.23838">
        <ele>126.7</ele>
        <time>2022-10-07T13:48:58Z</time>
      </trkpt>
      <trkpt lat="49.78851" lon="2.23838">
        <ele>126.7</ele>
        <time>2022-10-07T13:48:59Z</time>
      </trkpt>
      <trkpt lat="49.78851" lon="2.23838">
        <ele>126.7</ele>
        <time>2022-10-07T13:49:00Z</time>
      </trkpt>
      <trkpt lat="49.78852" lon="2.23837">
        <ele>126.7</ele>
        <time>2022-10-07T13:49:01Z</time>
      </trkpt>
      <trkpt lat="49.78853" lon="2.23837">
        <ele>126.6</ele>
        <time>2022-10-07T13:49:02Z</time>
      </trkpt>
      <trkpt lat="49.78854" lon="2.23837">
        <ele>126.6</ele>
        <time>2022-10-07T13:49:03Z</time>
      </trkpt>
      <trkpt lat="49.78856" lon="2.23838">
        <ele>126.6</ele>
        <time>2022-10-07T13:49:05Z</time>
      </trkpt>
      <trkpt lat="49.78857" lon="2.23838">
        <ele>126.5</ele>
        <time>2022-10-07T13:49:06Z</time>
      </trkpt>
      <trkpt lat="49.7886" lon="2.23838">
        <ele>126.5</ele>
        <time>2022-10-07T13:49:07Z</time>
      </trkpt>
      <trkpt lat="49.7886" lon="2.23838">
        <ele>126.4</ele>
        <time>2022-10-07T13:49:08Z</time>
      </trkpt>
      <trkpt lat="49.78861" lon="2.23838">
        <ele>126.4</ele>
        <time>2022-10-07T13:49:09Z</time>
      </trkpt>
      <trkpt lat="49.78863" lon="2.23838">
        <ele>126.3</ele>
        <time>2022-10-07T13:49:10Z</time>
      </trkpt>
      <trkpt lat="49.78864" lon="2.23839">
        <ele>126.3</ele>
        <time>2022-10-07T13:49:12Z</time>
      </trkpt>
      <trkpt lat="49.78865" lon="2.23839">
        <ele>126.3</ele>
        <time>2022-10-07T13:49:13Z</time>
      </trkpt>
      <trkpt lat="49.78867" lon="2.23839">
        <ele>126.2</ele>
        <time>2022-10-07T13:49:14Z</time>
      </trkpt>
      <trkpt lat="49.78868" lon="2.23839">
        <ele>126.2</ele>
        <time>2022-10-07T13:49:15Z</time>
      </trkpt>
      <trkpt lat="49.78869" lon="2.2384">
        <ele>126.2</ele>
        <time>2022-10-07T13:49:16Z</time>
      </trkpt>
      <trkpt lat="49.7887" lon="2.2384">
        <ele>126.2</ele>
        <time>2022-10-07T13:49:17Z</time>
      </trkpt>
      <trkpt lat="49.78871" lon="2.2384">
        <ele>126.1</ele>
        <time>2022-10-07T13:49:18Z</time>
      </trkpt>
      <trkpt lat="49.78872" lon="2.2384">
        <ele>126.1</ele>
        <time>2022-10-07T13:49:19Z</time>
      </trkpt>
      <trkpt lat="49.78873" lon="2.2384">
        <ele>126.1</ele>
        <time>2022-10-07T13:49:21Z</time>
      </trkpt>
      <trkpt lat="49.78874" lon="2.23839">
        <ele>126</ele>
        <time>2022-10-07T13:49:22Z</time>
      </trkpt>
      <trkpt lat="49.78873" lon="2.23837">
        <ele>126</ele>
        <time>2022-10-07T13:49:23Z</time>
      </trkpt>
      <trkpt lat="49.78874" lon="2.23837">
        <ele>126</ele>
        <time>2022-10-07T13:49:24Z</time>
      </trkpt>
      <trkpt lat="49.78875" lon="2.23837">
        <ele>126</ele>
        <time>2022-10-07T13:49:25Z</time>
      </trkpt>
      <trkpt lat="49.78876" lon="2.23837">
        <ele>125.9</ele>
        <time>2022-10-07T13:49:26Z</time>
      </trkpt>
      <trkpt lat="49.78877" lon="2.23837">
        <ele>125.9</ele>
        <time>2022-10-07T13:49:27Z</time>
      </trkpt>
      <trkpt lat="49.78878" lon="2.23837">
        <ele>125.9</ele>
        <time>2022-10-07T13:49:28Z</time>
      </trkpt>
      <trkpt lat="49.78879" lon="2.23836">
        <ele>125.8</ele>
        <time>2022-10-07T13:49:29Z</time>
      </trkpt>
      <trkpt lat="49.7888" lon="2.23836">
        <ele>125.8</ele>
        <time>2022-10-07T13:49:30Z</time>
      </trkpt>
      <trkpt lat="49.78882" lon="2.23835">
        <ele>125.8</ele>
        <time>2022-10-07T13:49:31Z</time>
      </trkpt>
      <trkpt lat="49.78883" lon="2.23835">
        <ele>125.8</ele>
        <time>2022-10-07T13:49:32Z</time>
      </trkpt>
      <trkpt lat="49.78884" lon="2.23835">
        <ele>125.7</ele>
        <time>2022-10-07T13:49:34Z</time>
      </trkpt>
      <trkpt lat="49.78885" lon="2.23835">
        <ele>125.7</ele>
        <time>2022-10-07T13:49:35Z</time>
      </trkpt>
      <trkpt lat="49.78886" lon="2.23835">
        <ele>125.7</ele>
        <time>2022-10-07T13:49:36Z</time>
      </trkpt>
      <trkpt lat="49.78888" lon="2.23835">
        <ele>125.7</ele>
        <time>2022-10-07T13:49:37Z</time>
      </trkpt>
      <trkpt lat="49.78889" lon="2.23835">
        <ele>125.6</ele>
        <time>2022-10-07T13:49:38Z</time>
      </trkpt>
      <trkpt lat="49.7889" lon="2.23835">
        <ele>125.6</ele>
        <time>2022-10-07T13:49:39Z</time>
      </trkpt>
      <trkpt lat="49.78892" lon="2.23835">
        <ele>125.6</ele>
        <time>2022-10-07T13:49:40Z</time>
      </trkpt>
      <trkpt lat="49.78893" lon="2.23835">
        <ele>125.5</ele>
        <time>2022-10-07T13:49:41Z</time>
      </trkpt>
      <trkpt lat="49.78895" lon="2.23835">
        <ele>125.5</ele>
        <time>2022-10-07T13:49:43Z</time>
      </trkpt>
      <trkpt lat="49.78897" lon="2.23835">
        <ele>125.5</ele>
        <time>2022-10-07T13:49:44Z</time>
      </trkpt>
      <trkpt lat="49.78898" lon="2.23835">
        <ele>125.5</ele>
        <time>2022-10-07T13:49:45Z</time>
      </trkpt>
      <trkpt lat="49.78899" lon="2.23835">
        <ele>125.4</ele>
        <time>2022-10-07T13:49:46Z</time>
      </trkpt>
      <trkpt lat="49.78902" lon="2.23835">
        <ele>125.4</ele>
        <time>2022-10-07T13:49:47Z</time>
      </trkpt>
      <trkpt lat="49.78902" lon="2.23835">
        <ele>125.4</ele>
        <time>2022-10-07T13:49:48Z</time>
      </trkpt>
      <trkpt lat="49.78903" lon="2.23835">
        <ele>125.3</ele>
        <time>2022-10-07T13:49:49Z</time>
      </trkpt>
      <trkpt lat="49.78905" lon="2.23835">
        <ele>125.3</ele>
        <time>2022-10-07T13:49:50Z</time>
      </trkpt>
      <trkpt lat="49.78906" lon="2.23835">
        <ele>125.3</ele>
        <time>2022-10-07T13:49:51Z</time>
      </trkpt>
      <trkpt lat="49.78909" lon="2.23835">
        <ele>125.2</ele>
        <time>2022-10-07T13:49:52Z</time>
      </trkpt>
      <trkpt lat="49.7891" lon="2.23835">
        <ele>125.2</ele>
        <time>2022-10-07T13:49:54Z</time>
      </trkpt>
      <trkpt lat="49.78911" lon="2.23835">
        <ele>125.1</ele>
        <time>2022-10-07T13:49:55Z</time>
      </trkpt>
      <trkpt lat="49.78912" lon="2.23835">
        <ele>125.1</ele>
        <time>2022-10-07T13:49:56Z</time>
      </trkpt>
      <trkpt lat="49.78913" lon="2.23835">
        <ele>125.1</ele>
        <time>2022-10-07T13:49:57Z</time>
      </trkpt>
      <trkpt lat="49.78915" lon="2.23835">
        <ele>125</ele>
        <time>2022-10-07T13:49:58Z</time>
      </trkpt>
      <trkpt lat="49.78917" lon="2.23834">
        <ele>125</ele>
        <time>2022-10-07T13:50:00Z</time>
      </trkpt>
      <trkpt lat="49.78918" lon="2.23833">
        <ele>124.9</ele>
        <time>2022-10-07T13:50:01Z</time>
      </trkpt>
      <trkpt lat="49.78918" lon="2.23833">
        <ele>124.9</ele>
        <time>2022-10-07T13:50:02Z</time>
      </trkpt>
      <trkpt lat="49.78918" lon="2.23833">
        <ele>124.9</ele>
        <time>2022-10-07T13:50:03Z</time>
      </trkpt>
      <trkpt lat="49.78918" lon="2.23832">
        <ele>124.9</ele>
        <time>2022-10-07T13:50:04Z</time>
      </trkpt>
      <trkpt lat="49.78918" lon="2.23831">
        <ele>124.9</ele>
        <time>2022-10-07T13:50:05Z</time>
      </trkpt>
      <trkpt lat="49.78918" lon="2.23831">
        <ele>124.9</ele>
        <time>2022-10-07T13:50:07Z</time>
      </trkpt>
      <trkpt lat="49.78919" lon="2.23831">
        <ele>124.9</ele>
        <time>2022-10-07T13:50:08Z</time>
      </trkpt>
      <trkpt lat="49.78919" lon="2.23831">
        <ele>124.9</ele>
        <time>2022-10-07T13:50:09Z</time>
      </trkpt>
      <trkpt lat="49.7892" lon="2.23831">
        <ele>124.8</ele>
        <time>2022-10-07T13:50:10Z</time>
      </trkpt>
      <trkpt lat="49.78921" lon="2.23831">
        <ele>124.8</ele>
        <time>2022-10-07T13:50:11Z</time>
      </trkpt>
      <trkpt lat="49.78922" lon="2.23832">
        <ele>124.8</ele>
        <time>2022-10-07T13:50:12Z</time>
      </trkpt>
      <trkpt lat="49.78922" lon="2.23832">
        <ele>124.8</ele>
        <time>2022-10-07T13:50:13Z</time>
      </trkpt>
      <trkpt lat="49.78923" lon="2.23832">
        <ele>124.7</ele>
        <time>2022-10-07T13:50:14Z</time>
      </trkpt>
      <trkpt lat="49.78924" lon="2.23832">
        <ele>124.7</ele>
        <time>2022-10-07T13:50:15Z</time>
      </trkpt>
      <trkpt lat="49.78925" lon="2.23833">
        <ele>124.7</ele>
        <time>2022-10-07T13:50:16Z</time>
      </trkpt>
      <trkpt lat="49.78927" lon="2.23832">
        <ele>124.6</ele>
        <time>2022-10-07T13:50:18Z</time>
      </trkpt>
      <trkpt lat="49.78927" lon="2.23832">
        <ele>124.6</ele>
        <time>2022-10-07T13:50:19Z</time>
      </trkpt>
      <trkpt lat="49.78928" lon="2.23832">
        <ele>124.6</ele>
        <time>2022-10-07T13:50:20Z</time>
      </trkpt>
      <trkpt lat="49.78929" lon="2.23832">
        <ele>124.6</ele>
        <time>2022-10-07T13:50:21Z</time>
      </trkpt>
      <trkpt lat="49.7893" lon="2.23832">
        <ele>124.6</ele>
        <time>2022-10-07T13:50:22Z</time>
      </trkpt>
      <trkpt lat="49.78931" lon="2.23832">
        <ele>124.6</ele>
        <time>2022-10-07T13:50:24Z</time>
      </trkpt>
      <trkpt lat="49.78932" lon="2.23832">
        <ele>124.5</ele>
        <time>2022-10-07T13:50:25Z</time>
      </trkpt>
      <trkpt lat="49.78931" lon="2.23832">
        <ele>124.5</ele>
        <time>2022-10-07T13:50:26Z</time>
      </trkpt>
      <trkpt lat="49.78931" lon="2.23831">
        <ele>124.5</ele>
        <time>2022-10-07T13:50:27Z</time>
      </trkpt>
      <trkpt lat="49.78931" lon="2.2383">
        <ele>124.5</ele>
        <time>2022-10-07T13:50:28Z</time>
      </trkpt>
      <trkpt lat="49.7893" lon="2.23829">
        <ele>124.5</ele>
        <time>2022-10-07T13:50:29Z</time>
      </trkpt>
      <trkpt lat="49.7893" lon="2.23829">
        <ele>124.5</ele>
        <time>2022-10-07T13:50:30Z</time>
      </trkpt>
      <trkpt lat="49.7893" lon="2.23828">
        <ele>124.5</ele>
        <time>2022-10-07T13:50:31Z</time>
      </trkpt>
      <trkpt lat="49.7893" lon="2.23828">
        <ele>124.5</ele>
        <time>2022-10-07T13:50:32Z</time>
      </trkpt>
      <trkpt lat="49.7893" lon="2.23829">
        <ele>124.5</ele>
        <time>2022-10-07T13:50:33Z</time>
      </trkpt>
      <trkpt lat="49.7893" lon="2.2383">
        <ele>124.5</ele>
        <time>2022-10-07T13:50:35Z</time>
      </trkpt>
      <trkpt lat="49.7893" lon="2.2383">
        <ele>124.5</ele>
        <time>2022-10-07T13:50:36Z</time>
      </trkpt>
      <trkpt lat="49.78931" lon="2.23831">
        <ele>124.4</ele>
        <time>2022-10-07T13:50:37Z</time>
      </trkpt>
      <trkpt lat="49.78931" lon="2.23831">
        <ele>124.4</ele>
        <time>2022-10-07T13:50:38Z</time>
      </trkpt>
      <trkpt lat="49.78931" lon="2.23832">
        <ele>124.4</ele>
        <time>2022-10-07T13:50:39Z</time>
      </trkpt>
      <trkpt lat="49.78932" lon="2.23832">
        <ele>124.4</ele>
        <time>2022-10-07T13:50:40Z</time>
      </trkpt>
      <trkpt lat="49.78933" lon="2.23833">
        <ele>124.4</ele>
        <time>2022-10-07T13:50:41Z</time>
      </trkpt>
      <trkpt lat="49.78934" lon="2.23833">
        <ele>124.4</ele>
        <time>2022-10-07T13:50:43Z</time>
      </trkpt>
      <trkpt lat="49.78935" lon="2.23833">
        <ele>124.4</ele>
        <time>2022-10-07T13:50:44Z</time>
      </trkpt>
      <trkpt lat="49.78937" lon="2.23833">
        <ele>124.4</ele>
        <time>2022-10-07T13:50:45Z</time>
      </trkpt>
      <trkpt lat="49.78938" lon="2.23834">
        <ele>124.3</ele>
        <time>2022-10-07T13:50:46Z</time>
      </trkpt>
      <trkpt lat="49.78939" lon="2.23834">
        <ele>124.3</ele>
        <time>2022-10-07T13:50:47Z</time>
      </trkpt>
      <trkpt lat="49.7894" lon="2.23834">
        <ele>124.3</ele>
        <time>2022-10-07T13:50:48Z</time>
      </trkpt>
      <trkpt lat="49.78941" lon="2.23834">
        <ele>124.3</ele>
        <time>2022-10-07T13:50:49Z</time>
      </trkpt>
      <trkpt lat="49.78942" lon="2.23833">
        <ele>124.3</ele>
        <time>2022-10-07T13:50:50Z</time>
      </trkpt>
      <trkpt lat="49.78943" lon="2.23833">
        <ele>124.3</ele>
        <time>2022-10-07T13:50:52Z</time>
      </trkpt>
      <trkpt lat="49.78945" lon="2.23832">
        <ele>124.3</ele>
        <time>2022-10-07T13:50:53Z</time>
      </trkpt>
      <trkpt lat="49.78947" lon="2.23832">
        <ele>124.2</ele>
        <time>2022-10-07T13:50:54Z</time>
      </trkpt>
      <trkpt lat="49.78948" lon="2.23831">
        <ele>124.2</ele>
        <time>2022-10-07T13:50:55Z</time>
      </trkpt>
      <trkpt lat="49.7895" lon="2.23831">
        <ele>124.2</ele>
        <time>2022-10-07T13:50:56Z</time>
      </trkpt>
      <trkpt lat="49.78951" lon="2.23831">
        <ele>124.2</ele>
        <time>2022-10-07T13:50:57Z</time>
      </trkpt>
      <trkpt lat="49.78953" lon="2.23831">
        <ele>124.1</ele>
        <time>2022-10-07T13:50:58Z</time>
      </trkpt>
      <trkpt lat="49.78954" lon="2.23831">
        <ele>124.1</ele>
        <time>2022-10-07T13:50:59Z</time>
      </trkpt>
      <trkpt lat="49.78956" lon="2.23831">
        <ele>124.1</ele>
        <time>2022-10-07T13:51:00Z</time>
      </trkpt>
      <trkpt lat="49.78957" lon="2.23831">
        <ele>124</ele>
        <time>2022-10-07T13:51:01Z</time>
      </trkpt>
      <trkpt lat="49.78959" lon="2.23831">
        <ele>124</ele>
        <time>2022-10-07T13:51:02Z</time>
      </trkpt>
      <trkpt lat="49.78961" lon="2.23831">
        <ele>123.9</ele>
        <time>2022-10-07T13:51:03Z</time>
      </trkpt>
      <trkpt lat="49.78962" lon="2.23832">
        <ele>123.9</ele>
        <time>2022-10-07T13:51:04Z</time>
      </trkpt>
      <trkpt lat="49.78964" lon="2.23832">
        <ele>123.9</ele>
        <time>2022-10-07T13:51:05Z</time>
      </trkpt>
      <trkpt lat="49.78966" lon="2.23832">
        <ele>123.8</ele>
        <time>2022-10-07T13:51:06Z</time>
      </trkpt>
      <trkpt lat="49.78968" lon="2.23832">
        <ele>123.8</ele>
        <time>2022-10-07T13:51:08Z</time>
      </trkpt>
      <trkpt lat="49.78969" lon="2.23832">
        <ele>123.7</ele>
        <time>2022-10-07T13:51:09Z</time>
      </trkpt>
      <trkpt lat="49.7897" lon="2.23832">
        <ele>123.7</ele>
        <time>2022-10-07T13:51:10Z</time>
      </trkpt>
      <trkpt lat="49.78971" lon="2.23832">
        <ele>123.7</ele>
        <time>2022-10-07T13:51:11Z</time>
      </trkpt>
      <trkpt lat="49.78973" lon="2.23833">
        <ele>123.6</ele>
        <time>2022-10-07T13:51:12Z</time>
      </trkpt>
      <trkpt lat="49.78974" lon="2.23833">
        <ele>123.6</ele>
        <time>2022-10-07T13:51:13Z</time>
      </trkpt>
      <trkpt lat="49.78975" lon="2.23833">
        <ele>123.6</ele>
        <time>2022-10-07T13:51:14Z</time>
      </trkpt>
      <trkpt lat="49.78976" lon="2.23833">
        <ele>123.6</ele>
        <time>2022-10-07T13:51:15Z</time>
      </trkpt>
      <trkpt lat="49.78978" lon="2.23833">
        <ele>123.5</ele>
        <time>2022-10-07T13:51:17Z</time>
      </trkpt>
      <trkpt lat="49.78979" lon="2.23834">
        <ele>123.5</ele>
        <time>2022-10-07T13:51:18Z</time>
      </trkpt>
      <trkpt lat="49.78981" lon="2.23834">
        <ele>123.4</ele>
        <time>2022-10-07T13:51:19Z</time>
      </trkpt>
      <trkpt lat="49.78983" lon="2.23835">
        <ele>123.4</ele>
        <time>2022-10-07T13:51:20Z</time>
      </trkpt>
      <trkpt lat="49.78984" lon="2.23835">
        <ele>123.4</ele>
        <time>2022-10-07T13:51:21Z</time>
      </trkpt>
      <trkpt lat="49.78985" lon="2.23836">
        <ele>123.4</ele>
        <time>2022-10-07T13:51:22Z</time>
      </trkpt>
      <trkpt lat="49.78986" lon="2.23836">
        <ele>123.3</ele>
        <time>2022-10-07T13:51:23Z</time>
      </trkpt>
      <trkpt lat="49.78988" lon="2.23837">
        <ele>123.3</ele>
        <time>2022-10-07T13:51:24Z</time>
      </trkpt>
      <trkpt lat="49.78989" lon="2.23837">
        <ele>123.3</ele>
        <time>2022-10-07T13:51:25Z</time>
      </trkpt>
      <trkpt lat="49.7899" lon="2.23838">
        <ele>123.3</ele>
        <time>2022-10-07T13:51:26Z</time>
      </trkpt>
      <trkpt lat="49.78992" lon="2.23838">
        <ele>123.2</ele>
        <time>2022-10-07T13:51:28Z</time>
      </trkpt>
      <trkpt lat="49.78993" lon="2.23838">
        <ele>123.2</ele>
        <time>2022-10-07T13:51:29Z</time>
      </trkpt>
      <trkpt lat="49.78994" lon="2.23838">
        <ele>123.2</ele>
        <time>2022-10-07T13:51:30Z</time>
      </trkpt>
      <trkpt lat="49.78996" lon="2.23837">
        <ele>123.2</ele>
        <time>2022-10-07T13:51:31Z</time>
      </trkpt>
      <trkpt lat="49.78997" lon="2.23836">
        <ele>123.2</ele>
        <time>2022-10-07T13:51:32Z</time>
      </trkpt>
      <trkpt lat="49.78999" lon="2.23835">
        <ele>123.2</ele>
        <time>2022-10-07T13:51:34Z</time>
      </trkpt>
      <trkpt lat="49.79" lon="2.23834">
        <ele>123.1</ele>
        <time>2022-10-07T13:51:35Z</time>
      </trkpt>
      <trkpt lat="49.79002" lon="2.23833">
        <ele>123.1</ele>
        <time>2022-10-07T13:51:36Z</time>
      </trkpt>
      <trkpt lat="49.79003" lon="2.23832">
        <ele>123.1</ele>
        <time>2022-10-07T13:51:37Z</time>
      </trkpt>
      <trkpt lat="49.79005" lon="2.2383">
        <ele>123.1</ele>
        <time>2022-10-07T13:51:38Z</time>
      </trkpt>
      <trkpt lat="49.79005" lon="2.23829">
        <ele>123.1</ele>
        <time>2022-10-07T13:51:39Z</time>
      </trkpt>
      <trkpt lat="49.79006" lon="2.23828">
        <ele>123.1</ele>
        <time>2022-10-07T13:51:40Z</time>
      </trkpt>
      <trkpt lat="49.79008" lon="2.23827">
        <ele>123</ele>
        <time>2022-10-07T13:51:41Z</time>
      </trkpt>
      <trkpt lat="49.79009" lon="2.23826">
        <ele>123</ele>
        <time>2022-10-07T13:51:43Z</time>
      </trkpt>
      <trkpt lat="49.79009" lon="2.23825">
        <ele>123</ele>
        <time>2022-10-07T13:51:44Z</time>
      </trkpt>
      <trkpt lat="49.79011" lon="2.23824">
        <ele>123</ele>
        <time>2022-10-07T13:51:45Z</time>
      </trkpt>
      <trkpt lat="49.79012" lon="2.23823">
        <ele>123</ele>
        <time>2022-10-07T13:51:46Z</time>
      </trkpt>
      <trkpt lat="49.79013" lon="2.23822">
        <ele>123</ele>
        <time>2022-10-07T13:51:47Z</time>
      </trkpt>
      <trkpt lat="49.79014" lon="2.2382">
        <ele>123</ele>
        <time>2022-10-07T13:51:48Z</time>
      </trkpt>
      <trkpt lat="49.79015" lon="2.23819">
        <ele>122.9</ele>
        <time>2022-10-07T13:51:49Z</time>
      </trkpt>
      <trkpt lat="49.79016" lon="2.23816">
        <ele>122.9</ele>
        <time>2022-10-07T13:51:50Z</time>
      </trkpt>
      <trkpt lat="49.79017" lon="2.23816">
        <ele>122.9</ele>
        <time>2022-10-07T13:51:52Z</time>
      </trkpt>
      <trkpt lat="49.79017" lon="2.23815">
        <ele>122.9</ele>
        <time>2022-10-07T13:51:53Z</time>
      </trkpt>
      <trkpt lat="49.79018" lon="2.23814">
        <ele>122.9</ele>
        <time>2022-10-07T13:51:54Z</time>
      </trkpt>
      <trkpt lat="49.79019" lon="2.23813">
        <ele>122.9</ele>
        <time>2022-10-07T13:51:55Z</time>
      </trkpt>
      <trkpt lat="49.79019" lon="2.23812">
        <ele>122.9</ele>
        <time>2022-10-07T13:51:56Z</time>
      </trkpt>
      <trkpt lat="49.7902" lon="2.23811">
        <ele>122.8</ele>
        <time>2022-10-07T13:51:57Z</time>
      </trkpt>
      <trkpt lat="49.79021" lon="2.2381">
        <ele>122.8</ele>
        <time>2022-10-07T13:51:58Z</time>
      </trkpt>
      <trkpt lat="49.79022" lon="2.23809">
        <ele>122.8</ele>
        <time>2022-10-07T13:51:59Z</time>
      </trkpt>
      <trkpt lat="49.79022" lon="2.23807">
        <ele>122.8</ele>
        <time>2022-10-07T13:52:01Z</time>
      </trkpt>
      <trkpt lat="49.79023" lon="2.23806">
        <ele>122.8</ele>
        <time>2022-10-07T13:52:02Z</time>
      </trkpt>
      <trkpt lat="49.79022" lon="2.23805">
        <ele>122.8</ele>
        <time>2022-10-07T13:52:03Z</time>
      </trkpt>
      <trkpt lat="49.79022" lon="2.23804">
        <ele>122.8</ele>
        <time>2022-10-07T13:52:04Z</time>
      </trkpt>
      <trkpt lat="49.79022" lon="2.23803">
        <ele>122.8</ele>
        <time>2022-10-07T13:52:05Z</time>
      </trkpt>
      <trkpt lat="49.79022" lon="2.23802">
        <ele>122.8</ele>
        <time>2022-10-07T13:52:06Z</time>
      </trkpt>
      <trkpt lat="49.79023" lon="2.23801">
        <ele>122.8</ele>
        <time>2022-10-07T13:52:07Z</time>
      </trkpt>
      <trkpt lat="49.79023" lon="2.23802">
        <ele>122.8</ele>
        <time>2022-10-07T13:52:08Z</time>
      </trkpt>
      <trkpt lat="49.79024" lon="2.23801">
        <ele>122.8</ele>
        <time>2022-10-07T13:52:10Z</time>
      </trkpt>
      <trkpt lat="49.79024" lon="2.23802">
        <ele>122.8</ele>
        <time>2022-10-07T13:52:11Z</time>
      </trkpt>
      <trkpt lat="49.79024" lon="2.23802">
        <ele>122.8</ele>
        <time>2022-10-07T13:52:12Z</time>
      </trkpt>
      <trkpt lat="49.79023" lon="2.23803">
        <ele>122.8</ele>
        <time>2022-10-07T13:52:13Z</time>
      </trkpt>
      <trkpt lat="49.79023" lon="2.23804">
        <ele>122.8</ele>
        <time>2022-10-07T13:52:14Z</time>
      </trkpt>
      <trkpt lat="49.79023" lon="2.23804">
        <ele>122.8</ele>
        <time>2022-10-07T13:52:16Z</time>
      </trkpt>
      <trkpt lat="49.79022" lon="2.23804">
        <ele>122.8</ele>
        <time>2022-10-07T13:52:17Z</time>
      </trkpt>
      <trkpt lat="49.79022" lon="2.23805">
        <ele>122.8</ele>
        <time>2022-10-07T13:52:18Z</time>
      </trkpt>
      <trkpt lat="49.79021" lon="2.23806">
        <ele>122.8</ele>
        <time>2022-10-07T13:52:19Z</time>
      </trkpt>
      <trkpt lat="49.7902" lon="2.23806">
        <ele>122.8</ele>
        <time>2022-10-07T13:52:20Z</time>
      </trkpt>
      <trkpt lat="49.7902" lon="2.23807">
        <ele>122.8</ele>
        <time>2022-10-07T13:52:22Z</time>
      </trkpt>
      <trkpt lat="49.7902" lon="2.23806">
        <ele>122.8</ele>
        <time>2022-10-07T13:52:23Z</time>
      </trkpt>
      <trkpt lat="49.79019" lon="2.23806">
        <ele>122.8</ele>
        <time>2022-10-07T13:52:24Z</time>
      </trkpt>
      <trkpt lat="49.79018" lon="2.23806">
        <ele>122.8</ele>
        <time>2022-10-07T13:52:25Z</time>
      </trkpt>
      <trkpt lat="49.79018" lon="2.23805">
        <ele>122.8</ele>
        <time>2022-10-07T13:52:27Z</time>
      </trkpt>
      <trkpt lat="49.79017" lon="2.23804">
        <ele>122.8</ele>
        <time>2022-10-07T13:52:28Z</time>
      </trkpt>
      <trkpt lat="49.79017" lon="2.23801">
        <ele>122.8</ele>
        <time>2022-10-07T13:52:30Z</time>
      </trkpt>
      <trkpt lat="49.79017" lon="2.238">
        <ele>122.8</ele>
        <time>2022-10-07T13:52:32Z</time>
      </trkpt>
      <trkpt lat="49.79017" lon="2.23799">
        <ele>122.8</ele>
        <time>2022-10-07T13:52:33Z</time>
      </trkpt>
      <trkpt lat="49.79018" lon="2.23799">
        <ele>122.8</ele>
        <time>2022-10-07T13:52:34Z</time>
      </trkpt>
      <trkpt lat="49.79018" lon="2.23798">
        <ele>122.8</ele>
        <time>2022-10-07T13:52:35Z</time>
      </trkpt>
      <trkpt lat="49.79018" lon="2.23798">
        <ele>122.8</ele>
        <time>2022-10-07T13:52:36Z</time>
      </trkpt>
      <trkpt lat="49.79018" lon="2.23798">
        <ele>122.8</ele>
        <time>2022-10-07T13:52:37Z</time>
      </trkpt>
      <trkpt lat="49.79017" lon="2.23798">
        <ele>122.8</ele>
        <time>2022-10-07T13:52:38Z</time>
      </trkpt>
      <trkpt lat="49.79016" lon="2.23798">
        <ele>122.8</ele>
        <time>2022-10-07T13:52:39Z</time>
      </trkpt>
      <trkpt lat="49.79015" lon="2.23799">
        <ele>122.8</ele>
        <time>2022-10-07T13:52:40Z</time>
      </trkpt>
      <trkpt lat="49.79015" lon="2.23799">
        <ele>122.8</ele>
        <time>2022-10-07T13:52:41Z</time>
      </trkpt>
      <trkpt lat="49.79014" lon="2.238">
        <ele>122.8</ele>
        <time>2022-10-07T13:52:42Z</time>
      </trkpt>
      <trkpt lat="49.79014" lon="2.238">
        <ele>122.8</ele>
        <time>2022-10-07T13:52:43Z</time>
      </trkpt>
      <trkpt lat="49.79014" lon="2.23801">
        <ele>122.8</ele>
        <time>2022-10-07T13:52:45Z</time>
      </trkpt>
      <trkpt lat="49.79014" lon="2.23801">
        <ele>122.8</ele>
        <time>2022-10-07T13:52:46Z</time>
      </trkpt>
      <trkpt lat="49.79014" lon="2.23802">
        <ele>122.8</ele>
        <time>2022-10-07T13:52:47Z</time>
      </trkpt>
      <trkpt lat="49.79014" lon="2.23802">
        <ele>122.8</ele>
        <time>2022-10-07T13:52:48Z</time>
      </trkpt>
      <trkpt lat="49.79014" lon="2.23803">
        <ele>122.8</ele>
        <time>2022-10-07T13:52:49Z</time>
      </trkpt>
      <trkpt lat="49.79015" lon="2.23804">
        <ele>122.8</ele>
        <time>2022-10-07T13:52:51Z</time>
      </trkpt>
      <trkpt lat="49.79015" lon="2.23804">
        <ele>122.8</ele>
        <time>2022-10-07T13:52:52Z</time>
      </trkpt>
      <trkpt lat="49.79015" lon="2.23804">
        <ele>122.8</ele>
        <time>2022-10-07T13:52:53Z</time>
      </trkpt>
      <trkpt lat="49.79015" lon="2.23804">
        <ele>122.8</ele>
        <time>2022-10-07T13:52:54Z</time>
      </trkpt>
      <trkpt lat="49.79016" lon="2.23804">
        <ele>122.8</ele>
        <time>2022-10-07T13:52:55Z</time>
      </trkpt>
      <trkpt lat="49.79016" lon="2.23803">
        <ele>122.8</ele>
        <time>2022-10-07T13:52:56Z</time>
      </trkpt>
      <trkpt lat="49.79016" lon="2.23803">
        <ele>122.8</ele>
        <time>2022-10-07T13:52:57Z</time>
      </trkpt>
      <trkpt lat="49.79016" lon="2.23802">
        <ele>122.8</ele>
        <time>2022-10-07T13:52:58Z</time>
      </trkpt>
      <trkpt lat="49.79016" lon="2.23802">
        <ele>122.8</ele>
        <time>2022-10-07T13:52:59Z</time>
      </trkpt>
      <trkpt lat="49.79016" lon="2.23802">
        <ele>122.8</ele>
        <time>2022-10-07T13:53:00Z</time>
      </trkpt>
      <trkpt lat="49.79016" lon="2.23802">
        <ele>122.8</ele>
        <time>2022-10-07T13:53:01Z</time>
      </trkpt>
      <trkpt lat="49.79016" lon="2.23802">
        <ele>122.8</ele>
        <time>2022-10-07T13:53:02Z</time>
      </trkpt>
      <trkpt lat="49.79016" lon="2.23802">
        <ele>122.8</ele>
        <time>2022-10-07T13:53:03Z</time>
      </trkpt>
      <trkpt lat="49.79016" lon="2.23802">
        <ele>122.8</ele>
        <time>2022-10-07T13:53:04Z</time>
      </trkpt>
      <trkpt lat="49.79016" lon="2.23801">
        <ele>122.8</ele>
        <time>2022-10-07T13:53:05Z</time>
      </trkpt>
      <trkpt lat="49.79016" lon="2.23801">
        <ele>122.9</ele>
        <time>2022-10-07T13:53:06Z</time>
      </trkpt>
      <trkpt lat="49.79017" lon="2.23801">
        <ele>122.9</ele>
        <time>2022-10-07T13:53:07Z</time>
      </trkpt>
      <trkpt lat="49.79017" lon="2.238">
        <ele>122.9</ele>
        <time>2022-10-07T13:53:08Z</time>
      </trkpt>
      <trkpt lat="49.79017" lon="2.238">
        <ele>122.9</ele>
        <time>2022-10-07T13:53:09Z</time>
      </trkpt>
      <trkpt lat="49.79017" lon="2.238">
        <ele>122.9</ele>
        <time>2022-10-07T13:53:10Z</time>
      </trkpt>
      <trkpt lat="49.79017" lon="2.238">
        <ele>122.9</ele>
        <time>2022-10-07T13:53:11Z</time>
      </trkpt>
      <trkpt lat="49.79016" lon="2.23802">
        <ele>122.9</ele>
        <time>2022-10-07T13:53:13Z</time>
      </trkpt>
      <trkpt lat="49.79016" lon="2.23802">
        <ele>122.9</ele>
        <time>2022-10-07T13:53:14Z</time>
      </trkpt>
      <trkpt lat="49.79016" lon="2.23801">
        <ele>122.9</ele>
        <time>2022-10-07T13:53:15Z</time>
      </trkpt>
      <trkpt lat="49.79016" lon="2.23801">
        <ele>122.9</ele>
        <time>2022-10-07T13:53:16Z</time>
      </trkpt>
      <trkpt lat="49.79016" lon="2.23801">
        <ele>122.9</ele>
        <time>2022-10-07T13:53:17Z</time>
      </trkpt>
      <trkpt lat="49.79016" lon="2.238">
        <ele>122.9</ele>
        <time>2022-10-07T13:53:18Z</time>
      </trkpt>
      <trkpt lat="49.79016" lon="2.238">
        <ele>122.9</ele>
        <time>2022-10-07T13:53:19Z</time>
      </trkpt>
      <trkpt lat="49.79016" lon="2.238">
        <ele>122.9</ele>
        <time>2022-10-07T13:53:20Z</time>
      </trkpt>
      <trkpt lat="49.79016" lon="2.238">
        <ele>122.9</ele>
        <time>2022-10-07T13:53:21Z</time>
      </trkpt>
      <trkpt lat="49.79016" lon="2.238">
        <ele>122.9</ele>
        <time>2022-10-07T13:53:23Z</time>
      </trkpt>
      <trkpt lat="49.79016" lon="2.238">
        <ele>122.9</ele>
        <time>2022-10-07T13:53:24Z</time>
      </trkpt>
      <trkpt lat="49.79016" lon="2.23799">
        <ele>122.9</ele>
        <time>2022-10-07T13:53:25Z</time>
      </trkpt>
      <trkpt lat="49.79016" lon="2.23798">
        <ele>122.9</ele>
        <time>2022-10-07T13:53:26Z</time>
      </trkpt>
      <trkpt lat="49.79016" lon="2.23798">
        <ele>122.9</ele>
        <time>2022-10-07T13:53:27Z</time>
      </trkpt>
      <trkpt lat="49.79016" lon="2.23798">
        <ele>122.9</ele>
        <time>2022-10-07T13:53:28Z</time>
      </trkpt>
      <trkpt lat="49.79015" lon="2.23798">
        <ele>122.9</ele>
        <time>2022-10-07T13:53:29Z</time>
      </trkpt>
      <trkpt lat="49.79015" lon="2.23799">
        <ele>122.9</ele>
        <time>2022-10-07T13:53:30Z</time>
      </trkpt>
      <trkpt lat="49.79015" lon="2.238">
        <ele>122.9</ele>
        <time>2022-10-07T13:53:31Z</time>
      </trkpt>
      <trkpt lat="49.79015" lon="2.238">
        <ele>122.9</ele>
        <time>2022-10-07T13:53:32Z</time>
      </trkpt>
      <trkpt lat="49.79015" lon="2.238">
        <ele>122.9</ele>
        <time>2022-10-07T13:53:33Z</time>
      </trkpt>
      <trkpt lat="49.79015" lon="2.238">
        <ele>122.9</ele>
        <time>2022-10-07T13:53:34Z</time>
      </trkpt>
      <trkpt lat="49.79015" lon="2.23801">
        <ele>122.9</ele>
        <time>2022-10-07T13:53:35Z</time>
      </trkpt>
      <trkpt lat="49.79015" lon="2.23801">
        <ele>122.9</ele>
        <time>2022-10-07T13:53:36Z</time>
      </trkpt>
      <trkpt lat="49.79015" lon="2.23801">
        <ele>122.9</ele>
        <time>2022-10-07T13:53:37Z</time>
      </trkpt>
      <trkpt lat="49.79015" lon="2.23801">
        <ele>122.9</ele>
        <time>2022-10-07T13:53:38Z</time>
      </trkpt>
      <trkpt lat="49.79015" lon="2.23801">
        <ele>122.9</ele>
        <time>2022-10-07T13:53:39Z</time>
      </trkpt>
      <trkpt lat="49.79015" lon="2.23801">
        <ele>122.9</ele>
        <time>2022-10-07T13:53:40Z</time>
      </trkpt>
      <trkpt lat="49.79015" lon="2.23801">
        <ele>122.9</ele>
        <time>2022-10-07T13:53:41Z</time>
      </trkpt>
      <trkpt lat="49.79015" lon="2.23801">
        <ele>122.9</ele>
        <time>2022-10-07T13:53:42Z</time>
      </trkpt>
      <trkpt lat="49.79015" lon="2.23801">
        <ele>122.9</ele>
        <time>2022-10-07T13:53:43Z</time>
      </trkpt>
      <trkpt lat="49.79015" lon="2.23801">
        <ele>122.9</ele>
        <time>2022-10-07T13:53:44Z</time>
      </trkpt>
      <trkpt lat="49.79015" lon="2.23801">
        <ele>122.9</ele>
        <time>2022-10-07T13:53:45Z</time>
      </trkpt>
      <trkpt lat="49.79015" lon="2.23801">
        <ele>122.9</ele>
        <time>2022-10-07T13:53:46Z</time>
      </trkpt>
      <trkpt lat="49.79015" lon="2.23801">
        <ele>122.9</ele>
        <time>2022-10-07T13:53:47Z</time>
      </trkpt>
      <trkpt lat="49.79015" lon="2.23801">
        <ele>122.9</ele>
        <time>2022-10-07T13:53:48Z</time>
      </trkpt>
      <trkpt lat="49.79015" lon="2.23801">
        <ele>122.9</ele>
        <time>2022-10-07T13:53:49Z</time>
      </trkpt>
      <trkpt lat="49.79015" lon="2.23801">
        <ele>122.9</ele>
        <time>2022-10-07T13:53:50Z</time>
      </trkpt>
      <trkpt lat="49.79015" lon="2.23802">
        <ele>122.9</ele>
        <time>2022-10-07T13:53:51Z</time>
      </trkpt>
      <trkpt lat="49.79015" lon="2.23802">
        <ele>122.9</ele>
        <time>2022-10-07T13:53:52Z</time>
      </trkpt>
      <trkpt lat="49.79015" lon="2.23802">
        <ele>122.9</ele>
        <time>2022-10-07T13:53:53Z</time>
      </trkpt>
      <trkpt lat="49.79016" lon="2.23802">
        <ele>122.9</ele>
        <time>2022-10-07T13:53:54Z</time>
      </trkpt>
      <trkpt lat="49.79016" lon="2.23801">
        <ele>122.9</ele>
        <time>2022-10-07T13:53:55Z</time>
      </trkpt>
      <trkpt lat="49.79016" lon="2.23801">
        <ele>122.9</ele>
        <time>2022-10-07T13:53:56Z</time>
      </trkpt>
      <trkpt lat="49.79016" lon="2.23801">
        <ele>122.9</ele>
        <time>2022-10-07T13:53:57Z</time>
      </trkpt>
      <trkpt lat="49.79016" lon="2.23801">
        <ele>122.9</ele>
        <time>2022-10-07T13:53:58Z</time>
      </trkpt>
      <trkpt lat="49.79017" lon="2.23802">
        <ele>122.9</ele>
        <time>2022-10-07T13:53:59Z</time>
      </trkpt>
      <trkpt lat="49.79017" lon="2.23801">
        <ele>122.9</ele>
        <time>2022-10-07T13:54:01Z</time>
      </trkpt>
      <trkpt lat="49.79017" lon="2.238">
        <ele>122.9</ele>
        <time>2022-10-07T13:54:02Z</time>
      </trkpt>
      <trkpt lat="49.79018" lon="2.23799">
        <ele>122.9</ele>
        <time>2022-10-07T13:54:03Z</time>
      </trkpt>
      <trkpt lat="49.79018" lon="2.23799">
        <ele>123</ele>
        <time>2022-10-07T13:54:05Z</time>
      </trkpt>
      <trkpt lat="49.79019" lon="2.23798">
        <ele>123</ele>
        <time>2022-10-07T13:54:06Z</time>
      </trkpt>
      <trkpt lat="49.79019" lon="2.23795">
        <ele>123</ele>
        <time>2022-10-07T13:54:07Z</time>
      </trkpt>
      <trkpt lat="49.7902" lon="2.23794">
        <ele>123</ele>
        <time>2022-10-07T13:54:08Z</time>
      </trkpt>
      <trkpt lat="49.7902" lon="2.23793">
        <ele>123</ele>
        <time>2022-10-07T13:54:09Z</time>
      </trkpt>
      <trkpt lat="49.7902" lon="2.23792">
        <ele>123</ele>
        <time>2022-10-07T13:54:10Z</time>
      </trkpt>
      <trkpt lat="49.7902" lon="2.23791">
        <ele>123</ele>
        <time>2022-10-07T13:54:12Z</time>
      </trkpt>
      <trkpt lat="49.79021" lon="2.2379">
        <ele>123</ele>
        <time>2022-10-07T13:54:13Z</time>
      </trkpt>
      <trkpt lat="49.79021" lon="2.23788">
        <ele>123</ele>
        <time>2022-10-07T13:54:14Z</time>
      </trkpt>
      <trkpt lat="49.79023" lon="2.23787">
        <ele>123</ele>
        <time>2022-10-07T13:54:15Z</time>
      </trkpt>
      <trkpt lat="49.79024" lon="2.23786">
        <ele>123</ele>
        <time>2022-10-07T13:54:16Z</time>
      </trkpt>
      <trkpt lat="49.79025" lon="2.23786">
        <ele>123</ele>
        <time>2022-10-07T13:54:17Z</time>
      </trkpt>
      <trkpt lat="49.79026" lon="2.23786">
        <ele>123</ele>
        <time>2022-10-07T13:54:18Z</time>
      </trkpt>
      <trkpt lat="49.79026" lon="2.23786">
        <ele>123</ele>
        <time>2022-10-07T13:54:19Z</time>
      </trkpt>
      <trkpt lat="49.79027" lon="2.23785">
        <ele>123</ele>
        <time>2022-10-07T13:54:20Z</time>
      </trkpt>
      <trkpt lat="49.79027" lon="2.23786">
        <ele>123</ele>
        <time>2022-10-07T13:54:21Z</time>
      </trkpt>
      <trkpt lat="49.79028" lon="2.23785">
        <ele>123.1</ele>
        <time>2022-10-07T13:54:22Z</time>
      </trkpt>
      <trkpt lat="49.79028" lon="2.23785">
        <ele>123.1</ele>
        <time>2022-10-07T13:54:23Z</time>
      </trkpt>
      <trkpt lat="49.79029" lon="2.23784">
        <ele>123.1</ele>
        <time>2022-10-07T13:54:24Z</time>
      </trkpt>
      <trkpt lat="49.7903" lon="2.23783">
        <ele>123.1</ele>
        <time>2022-10-07T13:54:25Z</time>
      </trkpt>
      <trkpt lat="49.7903" lon="2.23782">
        <ele>123.1</ele>
        <time>2022-10-07T13:54:26Z</time>
      </trkpt>
      <trkpt lat="49.79031" lon="2.23782">
        <ele>123.1</ele>
        <time>2022-10-07T13:54:27Z</time>
      </trkpt>
      <trkpt lat="49.79031" lon="2.23783">
        <ele>123.1</ele>
        <time>2022-10-07T13:54:28Z</time>
      </trkpt>
      <trkpt lat="49.79031" lon="2.23783">
        <ele>123.1</ele>
        <time>2022-10-07T13:54:29Z</time>
      </trkpt>
      <trkpt lat="49.79032" lon="2.23783">
        <ele>123.1</ele>
        <time>2022-10-07T13:54:30Z</time>
      </trkpt>
      <trkpt lat="49.79032" lon="2.23784">
        <ele>123.1</ele>
        <time>2022-10-07T13:54:31Z</time>
      </trkpt>
      <trkpt lat="49.79033" lon="2.23783">
        <ele>123.1</ele>
        <time>2022-10-07T13:54:32Z</time>
      </trkpt>
      <trkpt lat="49.79034" lon="2.23783">
        <ele>123.1</ele>
        <time>2022-10-07T13:54:33Z</time>
      </trkpt>
      <trkpt lat="49.79035" lon="2.23782">
        <ele>123.1</ele>
        <time>2022-10-07T13:54:34Z</time>
      </trkpt>
      <trkpt lat="49.79037" lon="2.23782">
        <ele>123.1</ele>
        <time>2022-10-07T13:54:36Z</time>
      </trkpt>
      <trkpt lat="49.79038" lon="2.23782">
        <ele>123.1</ele>
        <time>2022-10-07T13:54:37Z</time>
      </trkpt>
      <trkpt lat="49.7904" lon="2.23782">
        <ele>123.1</ele>
        <time>2022-10-07T13:54:38Z</time>
      </trkpt>
      <trkpt lat="49.79043" lon="2.23783">
        <ele>123.2</ele>
        <time>2022-10-07T13:54:39Z</time>
      </trkpt>
      <trkpt lat="49.79045" lon="2.23783">
        <ele>123.2</ele>
        <time>2022-10-07T13:54:40Z</time>
      </trkpt>
      <trkpt lat="49.79047" lon="2.23783">
        <ele>123.2</ele>
        <time>2022-10-07T13:54:41Z</time>
      </trkpt>
      <trkpt lat="49.79049" lon="2.23783">
        <ele>123.2</ele>
        <time>2022-10-07T13:54:43Z</time>
      </trkpt>
      <trkpt lat="49.79053" lon="2.23782">
        <ele>123.3</ele>
        <time>2022-10-07T13:54:44Z</time>
      </trkpt>
      <trkpt lat="49.79054" lon="2.23781">
        <ele>123.3</ele>
        <time>2022-10-07T13:54:45Z</time>
      </trkpt>
      <trkpt lat="49.79057" lon="2.23782">
        <ele>123.3</ele>
        <time>2022-10-07T13:54:46Z</time>
      </trkpt>
      <trkpt lat="49.79058" lon="2.23782">
        <ele>123.3</ele>
        <time>2022-10-07T13:54:47Z</time>
      </trkpt>
      <trkpt lat="49.7906" lon="2.23782">
        <ele>123.3</ele>
        <time>2022-10-07T13:54:48Z</time>
      </trkpt>
      <trkpt lat="49.79062" lon="2.23783">
        <ele>123.3</ele>
        <time>2022-10-07T13:54:50Z</time>
      </trkpt>
      <trkpt lat="49.79065" lon="2.23783">
        <ele>123.3</ele>
        <time>2022-10-07T13:54:51Z</time>
      </trkpt>
      <trkpt lat="49.79066" lon="2.23783">
        <ele>123.3</ele>
        <time>2022-10-07T13:54:52Z</time>
      </trkpt>
      <trkpt lat="49.79068" lon="2.23784">
        <ele>123.3</ele>
        <time>2022-10-07T13:54:53Z</time>
      </trkpt>
      <trkpt lat="49.79069" lon="2.23784">
        <ele>123.3</ele>
        <time>2022-10-07T13:54:55Z</time>
      </trkpt>
      <trkpt lat="49.7907" lon="2.23784">
        <ele>123.3</ele>
        <time>2022-10-07T13:54:56Z</time>
      </trkpt>
      <trkpt lat="49.79072" lon="2.23784">
        <ele>123.3</ele>
        <time>2022-10-07T13:54:57Z</time>
      </trkpt>
      <trkpt lat="49.79074" lon="2.23783">
        <ele>123.5</ele>
        <time>2022-10-07T13:54:59Z</time>
      </trkpt>
      <trkpt lat="49.79075" lon="2.23783">
        <ele>123.5</ele>
        <time>2022-10-07T13:55:00Z</time>
      </trkpt>
      <trkpt lat="49.79076" lon="2.23783">
        <ele>123.5</ele>
        <time>2022-10-07T13:55:01Z</time>
      </trkpt>
      <trkpt lat="49.79077" lon="2.23783">
        <ele>123.5</ele>
        <time>2022-10-07T13:55:02Z</time>
      </trkpt>
      <trkpt lat="49.79078" lon="2.23782">
        <ele>123.5</ele>
        <time>2022-10-07T13:55:03Z</time>
      </trkpt>
      <trkpt lat="49.79079" lon="2.23783">
        <ele>123.5</ele>
        <time>2022-10-07T13:55:05Z</time>
      </trkpt>
      <trkpt lat="49.79079" lon="2.23784">
        <ele>123.5</ele>
        <time>2022-10-07T13:55:06Z</time>
      </trkpt>
      <trkpt lat="49.7908" lon="2.23785">
        <ele>123.5</ele>
        <time>2022-10-07T13:55:07Z</time>
      </trkpt>
      <trkpt lat="49.7908" lon="2.23786">
        <ele>123.5</ele>
        <time>2022-10-07T13:55:08Z</time>
      </trkpt>
      <trkpt lat="49.79081" lon="2.23787">
        <ele>123.6</ele>
        <time>2022-10-07T13:55:10Z</time>
      </trkpt>
      <trkpt lat="49.79081" lon="2.23787">
        <ele>123.6</ele>
        <time>2022-10-07T13:55:11Z</time>
      </trkpt>
      <trkpt lat="49.7908" lon="2.23788">
        <ele>123.6</ele>
        <time>2022-10-07T13:55:12Z</time>
      </trkpt>
      <trkpt lat="49.7908" lon="2.23789">
        <ele>123.6</ele>
        <time>2022-10-07T13:55:13Z</time>
      </trkpt>
      <trkpt lat="49.79079" lon="2.23791">
        <ele>123.6</ele>
        <time>2022-10-07T13:55:14Z</time>
      </trkpt>
      <trkpt lat="49.79079" lon="2.23792">
        <ele>123.6</ele>
        <time>2022-10-07T13:55:16Z</time>
      </trkpt>
      <trkpt lat="49.79078" lon="2.23793">
        <ele>123.6</ele>
        <time>2022-10-07T13:55:17Z</time>
      </trkpt>
      <trkpt lat="49.79077" lon="2.23795">
        <ele>123.6</ele>
        <time>2022-10-07T13:55:18Z</time>
      </trkpt>
      <trkpt lat="49.79077" lon="2.23797">
        <ele>123.6</ele>
        <time>2022-10-07T13:55:19Z</time>
      </trkpt>
      <trkpt lat="49.79077" lon="2.23798">
        <ele>123.6</ele>
        <time>2022-10-07T13:55:20Z</time>
      </trkpt>
      <trkpt lat="49.79078" lon="2.238">
        <ele>123.6</ele>
        <time>2022-10-07T13:55:22Z</time>
      </trkpt>
      <trkpt lat="49.79078" lon="2.23802">
        <ele>123.6</ele>
        <time>2022-10-07T13:55:23Z</time>
      </trkpt>
      <trkpt lat="49.79079" lon="2.23802">
        <ele>123.6</ele>
        <time>2022-10-07T13:55:24Z</time>
      </trkpt>
      <trkpt lat="49.79079" lon="2.23802">
        <ele>123.6</ele>
        <time>2022-10-07T13:55:25Z</time>
      </trkpt>
      <trkpt lat="49.79079" lon="2.23801">
        <ele>123.6</ele>
        <time>2022-10-07T13:55:26Z</time>
      </trkpt>
      <trkpt lat="49.7908" lon="2.23801">
        <ele>123.6</ele>
        <time>2022-10-07T13:55:27Z</time>
      </trkpt>
      <trkpt lat="49.7908" lon="2.238">
        <ele>123.6</ele>
        <time>2022-10-07T13:55:28Z</time>
      </trkpt>
      <trkpt lat="49.79079" lon="2.238">
        <ele>123.6</ele>
        <time>2022-10-07T13:55:29Z</time>
      </trkpt>
      <trkpt lat="49.79079" lon="2.23801">
        <ele>123.7</ele>
        <time>2022-10-07T13:55:30Z</time>
      </trkpt>
      <trkpt lat="49.79079" lon="2.23802">
        <ele>123.7</ele>
        <time>2022-10-07T13:55:31Z</time>
      </trkpt>
      <trkpt lat="49.79079" lon="2.23802">
        <ele>123.7</ele>
        <time>2022-10-07T13:55:33Z</time>
      </trkpt>
      <trkpt lat="49.79079" lon="2.23804">
        <ele>123.7</ele>
        <time>2022-10-07T13:55:34Z</time>
      </trkpt>
      <trkpt lat="49.79079" lon="2.23805">
        <ele>123.7</ele>
        <time>2022-10-07T13:55:35Z</time>
      </trkpt>
      <trkpt lat="49.79079" lon="2.23806">
        <ele>123.7</ele>
        <time>2022-10-07T13:55:36Z</time>
      </trkpt>
      <trkpt lat="49.79078" lon="2.23808">
        <ele>123.7</ele>
        <time>2022-10-07T13:55:37Z</time>
      </trkpt>
      <trkpt lat="49.79078" lon="2.2381">
        <ele>123.7</ele>
        <time>2022-10-07T13:55:38Z</time>
      </trkpt>
      <trkpt lat="49.79078" lon="2.23813">
        <ele>123.7</ele>
        <time>2022-10-07T13:55:39Z</time>
      </trkpt>
      <trkpt lat="49.79078" lon="2.23815">
        <ele>123.7</ele>
        <time>2022-10-07T13:55:40Z</time>
      </trkpt>
      <trkpt lat="49.79077" lon="2.23817">
        <ele>123.7</ele>
        <time>2022-10-07T13:55:42Z</time>
      </trkpt>
      <trkpt lat="49.79077" lon="2.23819">
        <ele>123.7</ele>
        <time>2022-10-07T13:55:43Z</time>
      </trkpt>
      <trkpt lat="49.79077" lon="2.23821">
        <ele>123.7</ele>
        <time>2022-10-07T13:55:44Z</time>
      </trkpt>
      <trkpt lat="49.79077" lon="2.23823">
        <ele>123.7</ele>
        <time>2022-10-07T13:55:45Z</time>
      </trkpt>
      <trkpt lat="49.79077" lon="2.23825">
        <ele>123.7</ele>
        <time>2022-10-07T13:55:47Z</time>
      </trkpt>
      <trkpt lat="49.79077" lon="2.23827">
        <ele>123.7</ele>
        <time>2022-10-07T13:55:48Z</time>
      </trkpt>
      <trkpt lat="49.79078" lon="2.23828">
        <ele>123.7</ele>
        <time>2022-10-07T13:55:49Z</time>
      </trkpt>
      <trkpt lat="49.79078" lon="2.2383">
        <ele>123.8</ele>
        <time>2022-10-07T13:55:50Z</time>
      </trkpt>
      <trkpt lat="49.79078" lon="2.23832">
        <ele>123.8</ele>
        <time>2022-10-07T13:55:51Z</time>
      </trkpt>
      <trkpt lat="49.79078" lon="2.23833">
        <ele>123.8</ele>
        <time>2022-10-07T13:55:53Z</time>
      </trkpt>
      <trkpt lat="49.79078" lon="2.23835">
        <ele>123.8</ele>
        <time>2022-10-07T13:55:54Z</time>
      </trkpt>
      <trkpt lat="49.79078" lon="2.23837">
        <ele>123.8</ele>
        <time>2022-10-07T13:55:55Z</time>
      </trkpt>
      <trkpt lat="49.79079" lon="2.2384">
        <ele>123.8</ele>
        <time>2022-10-07T13:55:56Z</time>
      </trkpt>
      <trkpt lat="49.79079" lon="2.23842">
        <ele>123.8</ele>
        <time>2022-10-07T13:55:57Z</time>
      </trkpt>
      <trkpt lat="49.7908" lon="2.23844">
        <ele>123.8</ele>
        <time>2022-10-07T13:55:58Z</time>
      </trkpt>
      <trkpt lat="49.7908" lon="2.23847">
        <ele>123.8</ele>
        <time>2022-10-07T13:56:00Z</time>
      </trkpt>
      <trkpt lat="49.7908" lon="2.23849">
        <ele>123.8</ele>
        <time>2022-10-07T13:56:01Z</time>
      </trkpt>
      <trkpt lat="49.7908" lon="2.23851">
        <ele>123.8</ele>
        <time>2022-10-07T13:56:02Z</time>
      </trkpt>
      <trkpt lat="49.7908" lon="2.23853">
        <ele>123.8</ele>
        <time>2022-10-07T13:56:03Z</time>
      </trkpt>
      <trkpt lat="49.7908" lon="2.23857">
        <ele>123.8</ele>
        <time>2022-10-07T13:56:04Z</time>
      </trkpt>
      <trkpt lat="49.7908" lon="2.23858">
        <ele>123.8</ele>
        <time>2022-10-07T13:56:06Z</time>
      </trkpt>
      <trkpt lat="49.7908" lon="2.2386">
        <ele>123.8</ele>
        <time>2022-10-07T13:56:07Z</time>
      </trkpt>
      <trkpt lat="49.7908" lon="2.23861">
        <ele>123.8</ele>
        <time>2022-10-07T13:56:08Z</time>
      </trkpt>
      <trkpt lat="49.79079" lon="2.23863">
        <ele>123.9</ele>
        <time>2022-10-07T13:56:09Z</time>
      </trkpt>
      <trkpt lat="49.79079" lon="2.23865">
        <ele>123.9</ele>
        <time>2022-10-07T13:56:11Z</time>
      </trkpt>
      <trkpt lat="49.79079" lon="2.23867">
        <ele>123.9</ele>
        <time>2022-10-07T13:56:12Z</time>
      </trkpt>
      <trkpt lat="49.79079" lon="2.23868">
        <ele>123.9</ele>
        <time>2022-10-07T13:56:13Z</time>
      </trkpt>
      <trkpt lat="49.79079" lon="2.23872">
        <ele>123.9</ele>
        <time>2022-10-07T13:56:14Z</time>
      </trkpt>
      <trkpt lat="49.79079" lon="2.23873">
        <ele>123.9</ele>
        <time>2022-10-07T13:56:15Z</time>
      </trkpt>
      <trkpt lat="49.79079" lon="2.23874">
        <ele>123.9</ele>
        <time>2022-10-07T13:56:16Z</time>
      </trkpt>
      <trkpt lat="49.79079" lon="2.23878">
        <ele>123.9</ele>
        <time>2022-10-07T13:56:17Z</time>
      </trkpt>
      <trkpt lat="49.79079" lon="2.23879">
        <ele>123.9</ele>
        <time>2022-10-07T13:56:18Z</time>
      </trkpt>
      <trkpt lat="49.7908" lon="2.2388">
        <ele>123.9</ele>
        <time>2022-10-07T13:56:19Z</time>
      </trkpt>
      <trkpt lat="49.7908" lon="2.23882">
        <ele>123.9</ele>
        <time>2022-10-07T13:56:21Z</time>
      </trkpt>
      <trkpt lat="49.7908" lon="2.23884">
        <ele>123.9</ele>
        <time>2022-10-07T13:56:22Z</time>
      </trkpt>
      <trkpt lat="49.7908" lon="2.23886">
        <ele>123.9</ele>
        <time>2022-10-07T13:56:23Z</time>
      </trkpt>
      <trkpt lat="49.7908" lon="2.23889">
        <ele>123.9</ele>
        <time>2022-10-07T13:56:24Z</time>
      </trkpt>
      <trkpt lat="49.7908" lon="2.2389">
        <ele>123.9</ele>
        <time>2022-10-07T13:56:25Z</time>
      </trkpt>
      <trkpt lat="49.7908" lon="2.23891">
        <ele>123.9</ele>
        <time>2022-10-07T13:56:26Z</time>
      </trkpt>
      <trkpt lat="49.7908" lon="2.23893">
        <ele>123.9</ele>
        <time>2022-10-07T13:56:27Z</time>
      </trkpt>
      <trkpt lat="49.7908" lon="2.23895">
        <ele>123.9</ele>
        <time>2022-10-07T13:56:28Z</time>
      </trkpt>
      <trkpt lat="49.7908" lon="2.23897">
        <ele>123.9</ele>
        <time>2022-10-07T13:56:30Z</time>
      </trkpt>
      <trkpt lat="49.7908" lon="2.23899">
        <ele>123.9</ele>
        <time>2022-10-07T13:56:31Z</time>
      </trkpt>
      <trkpt lat="49.7908" lon="2.23901">
        <ele>123.8</ele>
        <time>2022-10-07T13:56:32Z</time>
      </trkpt>
      <trkpt lat="49.7908" lon="2.23902">
        <ele>123.8</ele>
        <time>2022-10-07T13:56:33Z</time>
      </trkpt>
      <trkpt lat="49.7908" lon="2.23905">
        <ele>123.8</ele>
        <time>2022-10-07T13:56:34Z</time>
      </trkpt>
      <trkpt lat="49.7908" lon="2.23907">
        <ele>123.8</ele>
        <time>2022-10-07T13:56:35Z</time>
      </trkpt>
      <trkpt lat="49.7908" lon="2.23908">
        <ele>123.8</ele>
        <time>2022-10-07T13:56:36Z</time>
      </trkpt>
      <trkpt lat="49.7908" lon="2.23909">
        <ele>123.8</ele>
        <time>2022-10-07T13:56:37Z</time>
      </trkpt>
      <trkpt lat="49.7908" lon="2.2391">
        <ele>123.8</ele>
        <time>2022-10-07T13:56:38Z</time>
      </trkpt>
      <trkpt lat="49.79079" lon="2.23912">
        <ele>123.8</ele>
        <time>2022-10-07T13:56:40Z</time>
      </trkpt>
      <trkpt lat="49.79079" lon="2.23913">
        <ele>123.8</ele>
        <time>2022-10-07T13:56:41Z</time>
      </trkpt>
      <trkpt lat="49.79079" lon="2.23916">
        <ele>123.7</ele>
        <time>2022-10-07T13:56:42Z</time>
      </trkpt>
      <trkpt lat="49.79079" lon="2.23917">
        <ele>123.7</ele>
        <time>2022-10-07T13:56:43Z</time>
      </trkpt>
      <trkpt lat="49.79078" lon="2.23919">
        <ele>123.7</ele>
        <time>2022-10-07T13:56:44Z</time>
      </trkpt>
      <trkpt lat="49.79078" lon="2.23921">
        <ele>123.7</ele>
        <time>2022-10-07T13:56:45Z</time>
      </trkpt>
      <trkpt lat="49.79078" lon="2.23923">
        <ele>123.7</ele>
        <time>2022-10-07T13:56:47Z</time>
      </trkpt>
      <trkpt lat="49.79078" lon="2.23925">
        <ele>123.6</ele>
        <time>2022-10-07T13:56:48Z</time>
      </trkpt>
      <trkpt lat="49.79078" lon="2.23927">
        <ele>123.6</ele>
        <time>2022-10-07T13:56:49Z</time>
      </trkpt>
      <trkpt lat="49.79078" lon="2.23928">
        <ele>123.6</ele>
        <time>2022-10-07T13:56:50Z</time>
      </trkpt>
      <trkpt lat="49.79078" lon="2.2393">
        <ele>123.5</ele>
        <time>2022-10-07T13:56:51Z</time>
      </trkpt>
      <trkpt lat="49.79078" lon="2.23932">
        <ele>123.5</ele>
        <time>2022-10-07T13:56:52Z</time>
      </trkpt>
      <trkpt lat="49.79077" lon="2.23935">
        <ele>123.4</ele>
        <time>2022-10-07T13:56:54Z</time>
      </trkpt>
      <trkpt lat="49.79077" lon="2.23936">
        <ele>123.4</ele>
        <time>2022-10-07T13:56:55Z</time>
      </trkpt>
      <trkpt lat="49.79077" lon="2.23939">
        <ele>123.4</ele>
        <time>2022-10-07T13:56:56Z</time>
      </trkpt>
      <trkpt lat="49.79077" lon="2.2394">
        <ele>123.3</ele>
        <time>2022-10-07T13:56:57Z</time>
      </trkpt>
      <trkpt lat="49.79077" lon="2.23942">
        <ele>123.3</ele>
        <time>2022-10-07T13:56:58Z</time>
      </trkpt>
      <trkpt lat="49.79077" lon="2.23945">
        <ele>123.2</ele>
        <time>2022-10-07T13:56:59Z</time>
      </trkpt>
      <trkpt lat="49.79077" lon="2.23948">
        <ele>123.2</ele>
        <time>2022-10-07T13:57:00Z</time>
      </trkpt>
      <trkpt lat="49.79077" lon="2.23949">
        <ele>123.1</ele>
        <time>2022-10-07T13:57:02Z</time>
      </trkpt>
      <trkpt lat="49.79077" lon="2.2395">
        <ele>123.1</ele>
        <time>2022-10-07T13:57:03Z</time>
      </trkpt>
      <trkpt lat="49.79077" lon="2.23952">
        <ele>123</ele>
        <time>2022-10-07T13:57:04Z</time>
      </trkpt>
      <trkpt lat="49.79077" lon="2.23954">
        <ele>123</ele>
        <time>2022-10-07T13:57:05Z</time>
      </trkpt>
      <trkpt lat="49.79076" lon="2.23956">
        <ele>123</ele>
        <time>2022-10-07T13:57:06Z</time>
      </trkpt>
      <trkpt lat="49.79076" lon="2.23959">
        <ele>122.9</ele>
        <time>2022-10-07T13:57:07Z</time>
      </trkpt>
      <trkpt lat="49.79076" lon="2.2396">
        <ele>122.8</ele>
        <time>2022-10-07T13:57:08Z</time>
      </trkpt>
      <trkpt lat="49.79076" lon="2.23962">
        <ele>122.8</ele>
        <time>2022-10-07T13:57:09Z</time>
      </trkpt>
      <trkpt lat="49.79077" lon="2.23965">
        <ele>122.7</ele>
        <time>2022-10-07T13:57:11Z</time>
      </trkpt>
      <trkpt lat="49.79077" lon="2.23966">
        <ele>122.7</ele>
        <time>2022-10-07T13:57:12Z</time>
      </trkpt>
      <trkpt lat="49.79078" lon="2.23968">
        <ele>122.7</ele>
        <time>2022-10-07T13:57:13Z</time>
      </trkpt>
      <trkpt lat="49.79078" lon="2.2397">
        <ele>122.6</ele>
        <time>2022-10-07T13:57:14Z</time>
      </trkpt>
      <trkpt lat="49.79078" lon="2.23972">
        <ele>122.5</ele>
        <time>2022-10-07T13:57:15Z</time>
      </trkpt>
      <trkpt lat="49.79077" lon="2.23974">
        <ele>122.5</ele>
        <time>2022-10-07T13:57:17Z</time>
      </trkpt>
      <trkpt lat="49.79077" lon="2.23977">
        <ele>122.4</ele>
        <time>2022-10-07T13:57:18Z</time>
      </trkpt>
      <trkpt lat="49.79077" lon="2.23978">
        <ele>122.3</ele>
        <time>2022-10-07T13:57:19Z</time>
      </trkpt>
      <trkpt lat="49.79076" lon="2.23979">
        <ele>122.3</ele>
        <time>2022-10-07T13:57:20Z</time>
      </trkpt>
      <trkpt lat="49.79076" lon="2.23982">
        <ele>122.2</ele>
        <time>2022-10-07T13:57:21Z</time>
      </trkpt>
      <trkpt lat="49.79075" lon="2.23984">
        <ele>122.1</ele>
        <time>2022-10-07T13:57:22Z</time>
      </trkpt>
      <trkpt lat="49.79075" lon="2.23985">
        <ele>122.1</ele>
        <time>2022-10-07T13:57:23Z</time>
      </trkpt>
      <trkpt lat="49.79075" lon="2.23988">
        <ele>122</ele>
        <time>2022-10-07T13:57:24Z</time>
      </trkpt>
      <trkpt lat="49.79074" lon="2.2399">
        <ele>121.9</ele>
        <time>2022-10-07T13:57:26Z</time>
      </trkpt>
      <trkpt lat="49.79074" lon="2.23991">
        <ele>121.9</ele>
        <time>2022-10-07T13:57:27Z</time>
      </trkpt>
      <trkpt lat="49.79074" lon="2.23993">
        <ele>121.8</ele>
        <time>2022-10-07T13:57:28Z</time>
      </trkpt>
      <trkpt lat="49.79074" lon="2.23994">
        <ele>121.8</ele>
        <time>2022-10-07T13:57:29Z</time>
      </trkpt>
      <trkpt lat="49.79074" lon="2.23996">
        <ele>121.7</ele>
        <time>2022-10-07T13:57:30Z</time>
      </trkpt>
      <trkpt lat="49.79074" lon="2.23998">
        <ele>121.6</ele>
        <time>2022-10-07T13:57:31Z</time>
      </trkpt>
      <trkpt lat="49.79074" lon="2.23999">
        <ele>121.6</ele>
        <time>2022-10-07T13:57:32Z</time>
      </trkpt>
      <trkpt lat="49.79074" lon="2.24001">
        <ele>121.5</ele>
        <time>2022-10-07T13:57:33Z</time>
      </trkpt>
      <trkpt lat="49.79075" lon="2.24002">
        <ele>121.4</ele>
        <time>2022-10-07T13:57:34Z</time>
      </trkpt>
      <trkpt lat="49.79075" lon="2.24004">
        <ele>121.4</ele>
        <time>2022-10-07T13:57:36Z</time>
      </trkpt>
      <trkpt lat="49.79075" lon="2.24006">
        <ele>121.3</ele>
        <time>2022-10-07T13:57:37Z</time>
      </trkpt>
      <trkpt lat="49.79075" lon="2.24008">
        <ele>121.2</ele>
        <time>2022-10-07T13:57:38Z</time>
      </trkpt>
      <trkpt lat="49.79076" lon="2.2401">
        <ele>121.1</ele>
        <time>2022-10-07T13:57:39Z</time>
      </trkpt>
      <trkpt lat="49.79076" lon="2.24013">
        <ele>121</ele>
        <time>2022-10-07T13:57:40Z</time>
      </trkpt>
      <trkpt lat="49.79076" lon="2.24015">
        <ele>121</ele>
        <time>2022-10-07T13:57:41Z</time>
      </trkpt>
      <trkpt lat="49.79076" lon="2.24016">
        <ele>120.9</ele>
        <time>2022-10-07T13:57:42Z</time>
      </trkpt>
      <trkpt lat="49.79077" lon="2.24019">
        <ele>120.8</ele>
        <time>2022-10-07T13:57:43Z</time>
      </trkpt>
      <trkpt lat="49.79077" lon="2.24021">
        <ele>120.7</ele>
        <time>2022-10-07T13:57:45Z</time>
      </trkpt>
      <trkpt lat="49.79077" lon="2.24023">
        <ele>120.7</ele>
        <time>2022-10-07T13:57:46Z</time>
      </trkpt>
      <trkpt lat="49.79077" lon="2.24024">
        <ele>120.6</ele>
        <time>2022-10-07T13:57:47Z</time>
      </trkpt>
      <trkpt lat="49.79077" lon="2.24026">
        <ele>120.6</ele>
        <time>2022-10-07T13:57:48Z</time>
      </trkpt>
      <trkpt lat="49.79077" lon="2.24028">
        <ele>120.5</ele>
        <time>2022-10-07T13:57:49Z</time>
      </trkpt>
      <trkpt lat="49.79076" lon="2.24031">
        <ele>120.4</ele>
        <time>2022-10-07T13:57:50Z</time>
      </trkpt>
      <trkpt lat="49.79076" lon="2.24033">
        <ele>120.3</ele>
        <time>2022-10-07T13:57:51Z</time>
      </trkpt>
      <trkpt lat="49.79076" lon="2.24035">
        <ele>120.2</ele>
        <time>2022-10-07T13:57:52Z</time>
      </trkpt>
      <trkpt lat="49.79076" lon="2.24038">
        <ele>120.1</ele>
        <time>2022-10-07T13:57:53Z</time>
      </trkpt>
      <trkpt lat="49.79076" lon="2.24039">
        <ele>120.1</ele>
        <time>2022-10-07T13:57:55Z</time>
      </trkpt>
      <trkpt lat="49.79076" lon="2.24041">
        <ele>120</ele>
        <time>2022-10-07T13:57:56Z</time>
      </trkpt>
      <trkpt lat="49.79076" lon="2.24043">
        <ele>120</ele>
        <time>2022-10-07T13:57:57Z</time>
      </trkpt>
      <trkpt lat="49.79076" lon="2.24044">
        <ele>119.9</ele>
        <time>2022-10-07T13:57:58Z</time>
      </trkpt>
      <trkpt lat="49.79076" lon="2.24046">
        <ele>119.9</ele>
        <time>2022-10-07T13:57:59Z</time>
      </trkpt>
      <trkpt lat="49.79076" lon="2.24048">
        <ele>119.8</ele>
        <time>2022-10-07T13:58:00Z</time>
      </trkpt>
      <trkpt lat="49.79076" lon="2.2405">
        <ele>119.7</ele>
        <time>2022-10-07T13:58:02Z</time>
      </trkpt>
      <trkpt lat="49.79077" lon="2.24052">
        <ele>119.7</ele>
        <time>2022-10-07T13:58:03Z</time>
      </trkpt>
      <trkpt lat="49.79077" lon="2.24053">
        <ele>119.6</ele>
        <time>2022-10-07T13:58:04Z</time>
      </trkpt>
      <trkpt lat="49.79077" lon="2.24055">
        <ele>119.6</ele>
        <time>2022-10-07T13:58:05Z</time>
      </trkpt>
      <trkpt lat="49.79077" lon="2.24057">
        <ele>119.6</ele>
        <time>2022-10-07T13:58:06Z</time>
      </trkpt>
      <trkpt lat="49.79077" lon="2.24059">
        <ele>119.5</ele>
        <time>2022-10-07T13:58:07Z</time>
      </trkpt>
      <trkpt lat="49.79077" lon="2.24061">
        <ele>119.4</ele>
        <time>2022-10-07T13:58:09Z</time>
      </trkpt>
      <trkpt lat="49.79077" lon="2.24063">
        <ele>119.4</ele>
        <time>2022-10-07T13:58:10Z</time>
      </trkpt>
      <trkpt lat="49.79077" lon="2.24065">
        <ele>119.3</ele>
        <time>2022-10-07T13:58:11Z</time>
      </trkpt>
      <trkpt lat="49.79077" lon="2.24066">
        <ele>119.3</ele>
        <time>2022-10-07T13:58:12Z</time>
      </trkpt>
      <trkpt lat="49.79077" lon="2.24068">
        <ele>119.3</ele>
        <time>2022-10-07T13:58:13Z</time>
      </trkpt>
      <trkpt lat="49.79077" lon="2.2407">
        <ele>119.2</ele>
        <time>2022-10-07T13:58:14Z</time>
      </trkpt>
      <trkpt lat="49.79077" lon="2.24071">
        <ele>119.2</ele>
        <time>2022-10-07T13:58:15Z</time>
      </trkpt>
      <trkpt lat="49.79077" lon="2.24073">
        <ele>119.1</ele>
        <time>2022-10-07T13:58:17Z</time>
      </trkpt>
      <trkpt lat="49.79077" lon="2.24075">
        <ele>119.1</ele>
        <time>2022-10-07T13:58:18Z</time>
      </trkpt>
      <trkpt lat="49.79077" lon="2.24077">
        <ele>119.1</ele>
        <time>2022-10-07T13:58:19Z</time>
      </trkpt>
      <trkpt lat="49.79077" lon="2.24079">
        <ele>119</ele>
        <time>2022-10-07T13:58:20Z</time>
      </trkpt>
      <trkpt lat="49.79077" lon="2.2408">
        <ele>119</ele>
        <time>2022-10-07T13:58:21Z</time>
      </trkpt>
      <trkpt lat="49.79076" lon="2.24082">
        <ele>119</ele>
        <time>2022-10-07T13:58:22Z</time>
      </trkpt>
      <trkpt lat="49.79076" lon="2.24084">
        <ele>118.9</ele>
        <time>2022-10-07T13:58:23Z</time>
      </trkpt>
      <trkpt lat="49.79076" lon="2.24086">
        <ele>118.9</ele>
        <time>2022-10-07T13:58:24Z</time>
      </trkpt>
      <trkpt lat="49.79076" lon="2.24088">
        <ele>118.9</ele>
        <time>2022-10-07T13:58:26Z</time>
      </trkpt>
      <trkpt lat="49.79076" lon="2.2409">
        <ele>118.8</ele>
        <time>2022-10-07T13:58:27Z</time>
      </trkpt>
      <trkpt lat="49.79076" lon="2.24092">
        <ele>118.8</ele>
        <time>2022-10-07T13:58:28Z</time>
      </trkpt>
      <trkpt lat="49.79076" lon="2.24094">
        <ele>118.8</ele>
        <time>2022-10-07T13:58:29Z</time>
      </trkpt>
      <trkpt lat="49.79076" lon="2.24096">
        <ele>118.8</ele>
        <time>2022-10-07T13:58:30Z</time>
      </trkpt>
      <trkpt lat="49.79076" lon="2.24098">
        <ele>118.7</ele>
        <time>2022-10-07T13:58:31Z</time>
      </trkpt>
      <trkpt lat="49.79075" lon="2.24101">
        <ele>118.7</ele>
        <time>2022-10-07T13:58:33Z</time>
      </trkpt>
      <trkpt lat="49.79075" lon="2.24103">
        <ele>118.7</ele>
        <time>2022-10-07T13:58:34Z</time>
      </trkpt>
      <trkpt lat="49.79075" lon="2.24105">
        <ele>118.7</ele>
        <time>2022-10-07T13:58:35Z</time>
      </trkpt>
      <trkpt lat="49.79075" lon="2.24107">
        <ele>118.7</ele>
        <time>2022-10-07T13:58:36Z</time>
      </trkpt>
      <trkpt lat="49.79075" lon="2.24109">
        <ele>118.7</ele>
        <time>2022-10-07T13:58:37Z</time>
      </trkpt>
      <trkpt lat="49.79075" lon="2.24111">
        <ele>118.6</ele>
        <time>2022-10-07T13:58:38Z</time>
      </trkpt>
      <trkpt lat="49.79075" lon="2.24112">
        <ele>118.6</ele>
        <time>2022-10-07T13:58:39Z</time>
      </trkpt>
      <trkpt lat="49.79075" lon="2.24114">
        <ele>118.6</ele>
        <time>2022-10-07T13:58:40Z</time>
      </trkpt>
      <trkpt lat="49.79075" lon="2.24116">
        <ele>118.6</ele>
        <time>2022-10-07T13:58:41Z</time>
      </trkpt>
      <trkpt lat="49.79075" lon="2.24118">
        <ele>118.6</ele>
        <time>2022-10-07T13:58:43Z</time>
      </trkpt>
      <trkpt lat="49.79075" lon="2.24121">
        <ele>118.6</ele>
        <time>2022-10-07T13:58:44Z</time>
      </trkpt>
      <trkpt lat="49.79075" lon="2.24123">
        <ele>118.6</ele>
        <time>2022-10-07T13:58:45Z</time>
      </trkpt>
      <trkpt lat="49.79075" lon="2.24124">
        <ele>118.6</ele>
        <time>2022-10-07T13:58:46Z</time>
      </trkpt>
      <trkpt lat="49.79076" lon="2.24127">
        <ele>118.6</ele>
        <time>2022-10-07T13:58:47Z</time>
      </trkpt>
      <trkpt lat="49.79076" lon="2.24129">
        <ele>118.6</ele>
        <time>2022-10-07T13:58:48Z</time>
      </trkpt>
      <trkpt lat="49.79076" lon="2.2413">
        <ele>118.6</ele>
        <time>2022-10-07T13:58:49Z</time>
      </trkpt>
      <trkpt lat="49.79076" lon="2.24133">
        <ele>118.5</ele>
        <time>2022-10-07T13:58:50Z</time>
      </trkpt>
      <trkpt lat="49.79076" lon="2.24135">
        <ele>118.5</ele>
        <time>2022-10-07T13:58:51Z</time>
      </trkpt>
      <trkpt lat="49.79076" lon="2.24136">
        <ele>118.5</ele>
        <time>2022-10-07T13:58:52Z</time>
      </trkpt>
      <trkpt lat="49.79076" lon="2.24138">
        <ele>118.5</ele>
        <time>2022-10-07T13:58:53Z</time>
      </trkpt>
      <trkpt lat="49.79077" lon="2.24139">
        <ele>118.5</ele>
        <time>2022-10-07T13:58:54Z</time>
      </trkpt>
      <trkpt lat="49.79077" lon="2.24141">
        <ele>118.5</ele>
        <time>2022-10-07T13:58:56Z</time>
      </trkpt>
      <trkpt lat="49.79077" lon="2.24143">
        <ele>118.5</ele>
        <time>2022-10-07T13:58:57Z</time>
      </trkpt>
      <trkpt lat="49.79078" lon="2.24144">
        <ele>118.5</ele>
        <time>2022-10-07T13:58:58Z</time>
      </trkpt>
      <trkpt lat="49.79078" lon="2.24145">
        <ele>118.5</ele>
        <time>2022-10-07T13:58:59Z</time>
      </trkpt>
      <trkpt lat="49.79078" lon="2.24147">
        <ele>118.5</ele>
        <time>2022-10-07T13:59:00Z</time>
      </trkpt>
      <trkpt lat="49.79078" lon="2.24149">
        <ele>118.5</ele>
        <time>2022-10-07T13:59:01Z</time>
      </trkpt>
      <trkpt lat="49.79078" lon="2.24151">
        <ele>118.5</ele>
        <time>2022-10-07T13:59:02Z</time>
      </trkpt>
      <trkpt lat="49.79079" lon="2.24153">
        <ele>118.5</ele>
        <time>2022-10-07T13:59:03Z</time>
      </trkpt>
      <trkpt lat="49.79079" lon="2.24154">
        <ele>118.5</ele>
        <time>2022-10-07T13:59:04Z</time>
      </trkpt>
      <trkpt lat="49.79079" lon="2.24155">
        <ele>118.5</ele>
        <time>2022-10-07T13:59:05Z</time>
      </trkpt>
      <trkpt lat="49.79079" lon="2.24157">
        <ele>118.5</ele>
        <time>2022-10-07T13:59:06Z</time>
      </trkpt>
      <trkpt lat="49.79079" lon="2.24158">
        <ele>118.5</ele>
        <time>2022-10-07T13:59:07Z</time>
      </trkpt>
      <trkpt lat="49.79079" lon="2.2416">
        <ele>118.5</ele>
        <time>2022-10-07T13:59:09Z</time>
      </trkpt>
      <trkpt lat="49.79079" lon="2.24163">
        <ele>118.5</ele>
        <time>2022-10-07T13:59:10Z</time>
      </trkpt>
      <trkpt lat="49.79079" lon="2.24164">
        <ele>118.5</ele>
        <time>2022-10-07T13:59:11Z</time>
      </trkpt>
      <trkpt lat="49.79079" lon="2.24166">
        <ele>118.5</ele>
        <time>2022-10-07T13:59:12Z</time>
      </trkpt>
      <trkpt lat="49.7908" lon="2.24169">
        <ele>118.4</ele>
        <time>2022-10-07T13:59:13Z</time>
      </trkpt>
      <trkpt lat="49.7908" lon="2.2417">
        <ele>118.4</ele>
        <time>2022-10-07T13:59:14Z</time>
      </trkpt>
      <trkpt lat="49.7908" lon="2.24171">
        <ele>118.4</ele>
        <time>2022-10-07T13:59:15Z</time>
      </trkpt>
      <trkpt lat="49.7908" lon="2.24174">
        <ele>118.4</ele>
        <time>2022-10-07T13:59:17Z</time>
      </trkpt>
      <trkpt lat="49.7908" lon="2.24176">
        <ele>118.4</ele>
        <time>2022-10-07T13:59:18Z</time>
      </trkpt>
      <trkpt lat="49.7908" lon="2.24179">
        <ele>118.4</ele>
        <time>2022-10-07T13:59:19Z</time>
      </trkpt>
      <trkpt lat="49.79079" lon="2.2418">
        <ele>118.4</ele>
        <time>2022-10-07T13:59:20Z</time>
      </trkpt>
      <trkpt lat="49.79079" lon="2.24182">
        <ele>118.4</ele>
        <time>2022-10-07T13:59:21Z</time>
      </trkpt>
      <trkpt lat="49.79079" lon="2.24186">
        <ele>118.4</ele>
        <time>2022-10-07T13:59:23Z</time>
      </trkpt>
      <trkpt lat="49.79078" lon="2.24187">
        <ele>118.4</ele>
        <time>2022-10-07T13:59:24Z</time>
      </trkpt>
      <trkpt lat="49.79078" lon="2.24189">
        <ele>118.4</ele>
        <time>2022-10-07T13:59:25Z</time>
      </trkpt>
      <trkpt lat="49.79078" lon="2.24192">
        <ele>118.4</ele>
        <time>2022-10-07T13:59:26Z</time>
      </trkpt>
      <trkpt lat="49.79078" lon="2.24195">
        <ele>118.4</ele>
        <time>2022-10-07T13:59:27Z</time>
      </trkpt>
      <trkpt lat="49.79078" lon="2.24196">
        <ele>118.4</ele>
        <time>2022-10-07T13:59:29Z</time>
      </trkpt>
      <trkpt lat="49.79078" lon="2.24197">
        <ele>118.4</ele>
        <time>2022-10-07T13:59:30Z</time>
      </trkpt>
      <trkpt lat="49.79078" lon="2.24199">
        <ele>118.4</ele>
        <time>2022-10-07T13:59:31Z</time>
      </trkpt>
      <trkpt lat="49.79077" lon="2.24203">
        <ele>118.4</ele>
        <time>2022-10-07T13:59:32Z</time>
      </trkpt>
      <trkpt lat="49.79077" lon="2.24206">
        <ele>118.4</ele>
        <time>2022-10-07T13:59:33Z</time>
      </trkpt>
      <trkpt lat="49.79077" lon="2.24207">
        <ele>118.4</ele>
        <time>2022-10-07T13:59:34Z</time>
      </trkpt>
      <trkpt lat="49.79077" lon="2.24209">
        <ele>118.4</ele>
        <time>2022-10-07T13:59:36Z</time>
      </trkpt>
      <trkpt lat="49.79077" lon="2.24211">
        <ele>118.4</ele>
        <time>2022-10-07T13:59:37Z</time>
      </trkpt>
      <trkpt lat="49.79077" lon="2.24212">
        <ele>118.4</ele>
        <time>2022-10-07T13:59:38Z</time>
      </trkpt>
      <trkpt lat="49.79077" lon="2.24214">
        <ele>118.4</ele>
        <time>2022-10-07T13:59:39Z</time>
      </trkpt>
      <trkpt lat="49.79077" lon="2.24216">
        <ele>118.4</ele>
        <time>2022-10-07T13:59:40Z</time>
      </trkpt>
      <trkpt lat="49.79076" lon="2.24219">
        <ele>118.4</ele>
        <time>2022-10-07T13:59:41Z</time>
      </trkpt>
      <trkpt lat="49.79076" lon="2.2422">
        <ele>118.4</ele>
        <time>2022-10-07T13:59:42Z</time>
      </trkpt>
      <trkpt lat="49.79076" lon="2.24222">
        <ele>118.4</ele>
        <time>2022-10-07T13:59:44Z</time>
      </trkpt>
      <trkpt lat="49.79076" lon="2.24224">
        <ele>118.4</ele>
        <time>2022-10-07T13:59:45Z</time>
      </trkpt>
      <trkpt lat="49.79076" lon="2.24227">
        <ele>118.4</ele>
        <time>2022-10-07T13:59:46Z</time>
      </trkpt>
      <trkpt lat="49.79076" lon="2.24229">
        <ele>118.4</ele>
        <time>2022-10-07T13:59:47Z</time>
      </trkpt>
      <trkpt lat="49.79076" lon="2.2423">
        <ele>118.4</ele>
        <time>2022-10-07T13:59:48Z</time>
      </trkpt>
      <trkpt lat="49.79076" lon="2.24232">
        <ele>118.4</ele>
        <time>2022-10-07T13:59:49Z</time>
      </trkpt>
      <trkpt lat="49.79076" lon="2.24234">
        <ele>118.4</ele>
        <time>2022-10-07T13:59:50Z</time>
      </trkpt>
      <trkpt lat="49.79076" lon="2.24235">
        <ele>118.4</ele>
        <time>2022-10-07T13:59:51Z</time>
      </trkpt>
      <trkpt lat="49.79076" lon="2.24237">
        <ele>118.4</ele>
        <time>2022-10-07T13:59:53Z</time>
      </trkpt>
      <trkpt lat="49.79076" lon="2.24238">
        <ele>118.4</ele>
        <time>2022-10-07T13:59:54Z</time>
      </trkpt>
      <trkpt lat="49.79076" lon="2.2424">
        <ele>118.4</ele>
        <time>2022-10-07T13:59:55Z</time>
      </trkpt>
      <trkpt lat="49.79075" lon="2.24242">
        <ele>118.4</ele>
        <time>2022-10-07T13:59:56Z</time>
      </trkpt>
      <trkpt lat="49.79075" lon="2.24244">
        <ele>118.4</ele>
        <time>2022-10-07T13:59:57Z</time>
      </trkpt>
      <trkpt lat="49.79075" lon="2.24246">
        <ele>118.4</ele>
        <time>2022-10-07T13:59:58Z</time>
      </trkpt>
      <trkpt lat="49.79075" lon="2.24248">
        <ele>118.4</ele>
        <time>2022-10-07T13:59:59Z</time>
      </trkpt>
      <trkpt lat="49.79075" lon="2.2425">
        <ele>118.4</ele>
        <time>2022-10-07T14:00:01Z</time>
      </trkpt>
      <trkpt lat="49.79075" lon="2.24253">
        <ele>118.3</ele>
        <time>2022-10-07T14:00:02Z</time>
      </trkpt>
      <trkpt lat="49.79075" lon="2.24255">
        <ele>118.3</ele>
        <time>2022-10-07T14:00:03Z</time>
      </trkpt>
      <trkpt lat="49.79075" lon="2.24256">
        <ele>118.3</ele>
        <time>2022-10-07T14:00:04Z</time>
      </trkpt>
      <trkpt lat="49.79075" lon="2.24258">
        <ele>118.3</ele>
        <time>2022-10-07T14:00:05Z</time>
      </trkpt>
      <trkpt lat="49.79075" lon="2.2426">
        <ele>118.3</ele>
        <time>2022-10-07T14:00:06Z</time>
      </trkpt>
      <trkpt lat="49.79075" lon="2.24262">
        <ele>118.3</ele>
        <time>2022-10-07T14:00:07Z</time>
      </trkpt>
      <trkpt lat="49.79074" lon="2.24264">
        <ele>118.3</ele>
        <time>2022-10-07T14:00:09Z</time>
      </trkpt>
      <trkpt lat="49.79074" lon="2.24266">
        <ele>118.3</ele>
        <time>2022-10-07T14:00:10Z</time>
      </trkpt>
      <trkpt lat="49.79074" lon="2.24267">
        <ele>118.3</ele>
        <time>2022-10-07T14:00:11Z</time>
      </trkpt>
      <trkpt lat="49.79074" lon="2.24269">
        <ele>118.3</ele>
        <time>2022-10-07T14:00:12Z</time>
      </trkpt>
      <trkpt lat="49.79074" lon="2.2427">
        <ele>118.3</ele>
        <time>2022-10-07T14:00:13Z</time>
      </trkpt>
      <trkpt lat="49.79074" lon="2.24272">
        <ele>118.3</ele>
        <time>2022-10-07T14:00:14Z</time>
      </trkpt>
      <trkpt lat="49.79074" lon="2.24274">
        <ele>118.3</ele>
        <time>2022-10-07T14:00:15Z</time>
      </trkpt>
      <trkpt lat="49.79074" lon="2.24276">
        <ele>118.3</ele>
        <time>2022-10-07T14:00:16Z</time>
      </trkpt>
      <trkpt lat="49.79074" lon="2.24277">
        <ele>118.3</ele>
        <time>2022-10-07T14:00:17Z</time>
      </trkpt>
      <trkpt lat="49.79074" lon="2.24278">
        <ele>118.3</ele>
        <time>2022-10-07T14:00:18Z</time>
      </trkpt>
      <trkpt lat="49.79073" lon="2.2428">
        <ele>118.3</ele>
        <time>2022-10-07T14:00:19Z</time>
      </trkpt>
      <trkpt lat="49.79073" lon="2.24283">
        <ele>118.3</ele>
        <time>2022-10-07T14:00:21Z</time>
      </trkpt>
      <trkpt lat="49.79073" lon="2.24285">
        <ele>118.3</ele>
        <time>2022-10-07T14:00:22Z</time>
      </trkpt>
      <trkpt lat="49.79073" lon="2.24286">
        <ele>118.3</ele>
        <time>2022-10-07T14:00:23Z</time>
      </trkpt>
      <trkpt lat="49.79073" lon="2.24289">
        <ele>118.3</ele>
        <time>2022-10-07T14:00:24Z</time>
      </trkpt>
      <trkpt lat="49.79073" lon="2.24291">
        <ele>118.3</ele>
        <time>2022-10-07T14:00:25Z</time>
      </trkpt>
      <trkpt lat="49.79073" lon="2.24292">
        <ele>118.3</ele>
        <time>2022-10-07T14:00:26Z</time>
      </trkpt>
      <trkpt lat="49.79073" lon="2.24294">
        <ele>118.2</ele>
        <time>2022-10-07T14:00:27Z</time>
      </trkpt>
      <trkpt lat="49.79073" lon="2.24296">
        <ele>118.2</ele>
        <time>2022-10-07T14:00:29Z</time>
      </trkpt>
      <trkpt lat="49.79073" lon="2.24298">
        <ele>118.2</ele>
        <time>2022-10-07T14:00:30Z</time>
      </trkpt>
      <trkpt lat="49.79073" lon="2.243">
        <ele>118.2</ele>
        <time>2022-10-07T14:00:31Z</time>
      </trkpt>
      <trkpt lat="49.79073" lon="2.24301">
        <ele>118.2</ele>
        <time>2022-10-07T14:00:32Z</time>
      </trkpt>
      <trkpt lat="49.79073" lon="2.24303">
        <ele>118.2</ele>
        <time>2022-10-07T14:00:33Z</time>
      </trkpt>
      <trkpt lat="49.79073" lon="2.24305">
        <ele>118.2</ele>
        <time>2022-10-07T14:00:34Z</time>
      </trkpt>
      <trkpt lat="49.79073" lon="2.24307">
        <ele>118.2</ele>
        <time>2022-10-07T14:00:35Z</time>
      </trkpt>
      <trkpt lat="49.79073" lon="2.2431">
        <ele>118.2</ele>
        <time>2022-10-07T14:00:37Z</time>
      </trkpt>
      <trkpt lat="49.79073" lon="2.24311">
        <ele>118.1</ele>
        <time>2022-10-07T14:00:38Z</time>
      </trkpt>
      <trkpt lat="49.79073" lon="2.24313">
        <ele>118.1</ele>
        <time>2022-10-07T14:00:39Z</time>
      </trkpt>
      <trkpt lat="49.79073" lon="2.24315">
        <ele>118.1</ele>
        <time>2022-10-07T14:00:40Z</time>
      </trkpt>
      <trkpt lat="49.79073" lon="2.24317">
        <ele>118.1</ele>
        <time>2022-10-07T14:00:41Z</time>
      </trkpt>
      <trkpt lat="49.79073" lon="2.24319">
        <ele>118.1</ele>
        <time>2022-10-07T14:00:42Z</time>
      </trkpt>
      <trkpt lat="49.79073" lon="2.24321">
        <ele>118</ele>
        <time>2022-10-07T14:00:43Z</time>
      </trkpt>
      <trkpt lat="49.79073" lon="2.24323">
        <ele>118</ele>
        <time>2022-10-07T14:00:44Z</time>
      </trkpt>
      <trkpt lat="49.79072" lon="2.24326">
        <ele>118</ele>
        <time>2022-10-07T14:00:45Z</time>
      </trkpt>
      <trkpt lat="49.79072" lon="2.24326">
        <ele>118</ele>
        <time>2022-10-07T14:00:46Z</time>
      </trkpt>
      <trkpt lat="49.79072" lon="2.24328">
        <ele>118</ele>
        <time>2022-10-07T14:00:48Z</time>
      </trkpt>
      <trkpt lat="49.79072" lon="2.2433">
        <ele>117.9</ele>
        <time>2022-10-07T14:00:49Z</time>
      </trkpt>
      <trkpt lat="49.79072" lon="2.24332">
        <ele>117.9</ele>
        <time>2022-10-07T14:00:50Z</time>
      </trkpt>
      <trkpt lat="49.79072" lon="2.24335">
        <ele>117.9</ele>
        <time>2022-10-07T14:00:51Z</time>
      </trkpt>
      <trkpt lat="49.79072" lon="2.24338">
        <ele>117.8</ele>
        <time>2022-10-07T14:00:52Z</time>
      </trkpt>
      <trkpt lat="49.79072" lon="2.24339">
        <ele>117.8</ele>
        <time>2022-10-07T14:00:53Z</time>
      </trkpt>
      <trkpt lat="49.79071" lon="2.2434">
        <ele>117.8</ele>
        <time>2022-10-07T14:00:54Z</time>
      </trkpt>
      <trkpt lat="49.79071" lon="2.24342">
        <ele>117.7</ele>
        <time>2022-10-07T14:00:55Z</time>
      </trkpt>
      <trkpt lat="49.79071" lon="2.24344">
        <ele>117.7</ele>
        <time>2022-10-07T14:00:56Z</time>
      </trkpt>
      <trkpt lat="49.79071" lon="2.24346">
        <ele>117.6</ele>
        <time>2022-10-07T14:00:58Z</time>
      </trkpt>
      <trkpt lat="49.79071" lon="2.2435">
        <ele>117.6</ele>
        <time>2022-10-07T14:00:59Z</time>
      </trkpt>
      <trkpt lat="49.79071" lon="2.24351">
        <ele>117.5</ele>
        <time>2022-10-07T14:01:00Z</time>
      </trkpt>
      <trkpt lat="49.79071" lon="2.24353">
        <ele>117.5</ele>
        <time>2022-10-07T14:01:01Z</time>
      </trkpt>
      <trkpt lat="49.79071" lon="2.24355">
        <ele>117.5</ele>
        <time>2022-10-07T14:01:02Z</time>
      </trkpt>
      <trkpt lat="49.7907" lon="2.24357">
        <ele>117.4</ele>
        <time>2022-10-07T14:01:03Z</time>
      </trkpt>
      <trkpt lat="49.7907" lon="2.24359">
        <ele>117.4</ele>
        <time>2022-10-07T14:01:04Z</time>
      </trkpt>
      <trkpt lat="49.7907" lon="2.24361">
        <ele>117.3</ele>
        <time>2022-10-07T14:01:05Z</time>
      </trkpt>
      <trkpt lat="49.7907" lon="2.24363">
        <ele>117.3</ele>
        <time>2022-10-07T14:01:06Z</time>
      </trkpt>
      <trkpt lat="49.7907" lon="2.24365">
        <ele>117.2</ele>
        <time>2022-10-07T14:01:07Z</time>
      </trkpt>
      <trkpt lat="49.79069" lon="2.24367">
        <ele>117.2</ele>
        <time>2022-10-07T14:01:09Z</time>
      </trkpt>
      <trkpt lat="49.79069" lon="2.24369">
        <ele>117.1</ele>
        <time>2022-10-07T14:01:10Z</time>
      </trkpt>
      <trkpt lat="49.79069" lon="2.24371">
        <ele>117.1</ele>
        <time>2022-10-07T14:01:11Z</time>
      </trkpt>
      <trkpt lat="49.79069" lon="2.24372">
        <ele>117.1</ele>
        <time>2022-10-07T14:01:12Z</time>
      </trkpt>
      <trkpt lat="49.79069" lon="2.24375">
        <ele>117</ele>
        <time>2022-10-07T14:01:13Z</time>
      </trkpt>
      <trkpt lat="49.79069" lon="2.24376">
        <ele>117</ele>
        <time>2022-10-07T14:01:14Z</time>
      </trkpt>
      <trkpt lat="49.79068" lon="2.24378">
        <ele>117</ele>
        <time>2022-10-07T14:01:15Z</time>
      </trkpt>
      <trkpt lat="49.79068" lon="2.2438">
        <ele>116.9</ele>
        <time>2022-10-07T14:01:16Z</time>
      </trkpt>
      <trkpt lat="49.79068" lon="2.24382">
        <ele>116.9</ele>
        <time>2022-10-07T14:01:17Z</time>
      </trkpt>
      <trkpt lat="49.79068" lon="2.24385">
        <ele>116.8</ele>
        <time>2022-10-07T14:01:18Z</time>
      </trkpt>
      <trkpt lat="49.79068" lon="2.24386">
        <ele>116.8</ele>
        <time>2022-10-07T14:01:19Z</time>
      </trkpt>
      <trkpt lat="49.79069" lon="2.24388">
        <ele>116.7</ele>
        <time>2022-10-07T14:01:20Z</time>
      </trkpt>
      <trkpt lat="49.79069" lon="2.24391">
        <ele>116.6</ele>
        <time>2022-10-07T14:01:22Z</time>
      </trkpt>
      <trkpt lat="49.79069" lon="2.24392">
        <ele>116.6</ele>
        <time>2022-10-07T14:01:23Z</time>
      </trkpt>
      <trkpt lat="49.79069" lon="2.24393">
        <ele>116.6</ele>
        <time>2022-10-07T14:01:24Z</time>
      </trkpt>
      <trkpt lat="49.79069" lon="2.24395">
        <ele>116.5</ele>
        <time>2022-10-07T14:01:25Z</time>
      </trkpt>
      <trkpt lat="49.79069" lon="2.24397">
        <ele>116.5</ele>
        <time>2022-10-07T14:01:26Z</time>
      </trkpt>
      <trkpt lat="49.79069" lon="2.24398">
        <ele>116.5</ele>
        <time>2022-10-07T14:01:27Z</time>
      </trkpt>
      <trkpt lat="49.79069" lon="2.24399">
        <ele>116.4</ele>
        <time>2022-10-07T14:01:28Z</time>
      </trkpt>
      <trkpt lat="49.79069" lon="2.24401">
        <ele>116.4</ele>
        <time>2022-10-07T14:01:29Z</time>
      </trkpt>
      <trkpt lat="49.79069" lon="2.24403">
        <ele>116.3</ele>
        <time>2022-10-07T14:01:31Z</time>
      </trkpt>
      <trkpt lat="49.79069" lon="2.24404">
        <ele>116.3</ele>
        <time>2022-10-07T14:01:32Z</time>
      </trkpt>
      <trkpt lat="49.79069" lon="2.24405">
        <ele>116.3</ele>
        <time>2022-10-07T14:01:33Z</time>
      </trkpt>
      <trkpt lat="49.79068" lon="2.24407">
        <ele>116.2</ele>
        <time>2022-10-07T14:01:34Z</time>
      </trkpt>
      <trkpt lat="49.79067" lon="2.24409">
        <ele>116.2</ele>
        <time>2022-10-07T14:01:36Z</time>
      </trkpt>
      <trkpt lat="49.79067" lon="2.2441">
        <ele>116.1</ele>
        <time>2022-10-07T14:01:37Z</time>
      </trkpt>
      <trkpt lat="49.79067" lon="2.2441">
        <ele>116.1</ele>
        <time>2022-10-07T14:01:38Z</time>
      </trkpt>
      <trkpt lat="49.79067" lon="2.24411">
        <ele>116.1</ele>
        <time>2022-10-07T14:01:39Z</time>
      </trkpt>
      <trkpt lat="49.79067" lon="2.24412">
        <ele>116.1</ele>
        <time>2022-10-07T14:01:40Z</time>
      </trkpt>
      <trkpt lat="49.79067" lon="2.24412">
        <ele>116.1</ele>
        <time>2022-10-07T14:01:41Z</time>
      </trkpt>
      <trkpt lat="49.79067" lon="2.24413">
        <ele>116</ele>
        <time>2022-10-07T14:01:42Z</time>
      </trkpt>
      <trkpt lat="49.79067" lon="2.24414">
        <ele>116</ele>
        <time>2022-10-07T14:01:43Z</time>
      </trkpt>
      <trkpt lat="49.79067" lon="2.24414">
        <ele>116</ele>
        <time>2022-10-07T14:01:44Z</time>
      </trkpt>
      <trkpt lat="49.79067" lon="2.24415">
        <ele>116</ele>
        <time>2022-10-07T14:01:45Z</time>
      </trkpt>
      <trkpt lat="49.79067" lon="2.24415">
        <ele>116</ele>
        <time>2022-10-07T14:01:46Z</time>
      </trkpt>
      <trkpt lat="49.79067" lon="2.24415">
        <ele>116</ele>
        <time>2022-10-07T14:01:47Z</time>
      </trkpt>
      <trkpt lat="49.79066" lon="2.24413">
        <ele>115.9</ele>
        <time>2022-10-07T14:01:48Z</time>
      </trkpt>
      <trkpt lat="49.79066" lon="2.24412">
        <ele>115.9</ele>
        <time>2022-10-07T14:01:49Z</time>
      </trkpt>
      <trkpt lat="49.79066" lon="2.24412">
        <ele>115.9</ele>
        <time>2022-10-07T14:01:50Z</time>
      </trkpt>
      <trkpt lat="49.79065" lon="2.24411">
        <ele>115.8</ele>
        <time>2022-10-07T14:01:51Z</time>
      </trkpt>
      <trkpt lat="49.79065" lon="2.2441">
        <ele>115.8</ele>
        <time>2022-10-07T14:01:52Z</time>
      </trkpt>
      <trkpt lat="49.79065" lon="2.24409">
        <ele>115.8</ele>
        <time>2022-10-07T14:01:53Z</time>
      </trkpt>
      <trkpt lat="49.79065" lon="2.24409">
        <ele>115.8</ele>
        <time>2022-10-07T14:01:54Z</time>
      </trkpt>
      <trkpt lat="49.79065" lon="2.24409">
        <ele>115.8</ele>
        <time>2022-10-07T14:01:55Z</time>
      </trkpt>
      <trkpt lat="49.79065" lon="2.24409">
        <ele>115.8</ele>
        <time>2022-10-07T14:01:56Z</time>
      </trkpt>
      <trkpt lat="49.79065" lon="2.24409">
        <ele>115.8</ele>
        <time>2022-10-07T14:01:57Z</time>
      </trkpt>
      <trkpt lat="49.79066" lon="2.24409">
        <ele>115.7</ele>
        <time>2022-10-07T14:01:58Z</time>
      </trkpt>
      <trkpt lat="49.79066" lon="2.24409">
        <ele>115.7</ele>
        <time>2022-10-07T14:01:59Z</time>
      </trkpt>
      <trkpt lat="49.79067" lon="2.2441">
        <ele>115.7</ele>
        <time>2022-10-07T14:02:01Z</time>
      </trkpt>
      <trkpt lat="49.79067" lon="2.2441">
        <ele>115.6</ele>
        <time>2022-10-07T14:02:02Z</time>
      </trkpt>
      <trkpt lat="49.79068" lon="2.24411">
        <ele>115.6</ele>
        <time>2022-10-07T14:02:03Z</time>
      </trkpt>
      <trkpt lat="49.79069" lon="2.24412">
        <ele>115.5</ele>
        <time>2022-10-07T14:02:04Z</time>
      </trkpt>
      <trkpt lat="49.7907" lon="2.24414">
        <ele>115.5</ele>
        <time>2022-10-07T14:02:05Z</time>
      </trkpt>
      <trkpt lat="49.79071" lon="2.24415">
        <ele>115.4</ele>
        <time>2022-10-07T14:02:06Z</time>
      </trkpt>
      <trkpt lat="49.79071" lon="2.24417">
        <ele>115.4</ele>
        <time>2022-10-07T14:02:07Z</time>
      </trkpt>
      <trkpt lat="49.79072" lon="2.24418">
        <ele>115.3</ele>
        <time>2022-10-07T14:02:09Z</time>
      </trkpt>
      <trkpt lat="49.79072" lon="2.24419">
        <ele>115.3</ele>
        <time>2022-10-07T14:02:10Z</time>
      </trkpt>
      <trkpt lat="49.79073" lon="2.2442">
        <ele>115.3</ele>
        <time>2022-10-07T14:02:11Z</time>
      </trkpt>
      <trkpt lat="49.79073" lon="2.24421">
        <ele>115.2</ele>
        <time>2022-10-07T14:02:12Z</time>
      </trkpt>
      <trkpt lat="49.79073" lon="2.24422">
        <ele>115.2</ele>
        <time>2022-10-07T14:02:13Z</time>
      </trkpt>
      <trkpt lat="49.79073" lon="2.24423">
        <ele>115.2</ele>
        <time>2022-10-07T14:02:14Z</time>
      </trkpt>
      <trkpt lat="49.79074" lon="2.24425">
        <ele>115.1</ele>
        <time>2022-10-07T14:02:15Z</time>
      </trkpt>
      <trkpt lat="49.79074" lon="2.24427">
        <ele>115.1</ele>
        <time>2022-10-07T14:02:16Z</time>
      </trkpt>
      <trkpt lat="49.79075" lon="2.24429">
        <ele>115</ele>
        <time>2022-10-07T14:02:17Z</time>
      </trkpt>
      <trkpt lat="49.79076" lon="2.24432">
        <ele>114.9</ele>
        <time>2022-10-07T14:02:19Z</time>
      </trkpt>
      <trkpt lat="49.79076" lon="2.24434">
        <ele>114.8</ele>
        <time>2022-10-07T14:02:20Z</time>
      </trkpt>
      <trkpt lat="49.79077" lon="2.24438">
        <ele>114.7</ele>
        <time>2022-10-07T14:02:21Z</time>
      </trkpt>
      <trkpt lat="49.79077" lon="2.2444">
        <ele>114.7</ele>
        <time>2022-10-07T14:02:22Z</time>
      </trkpt>
      <trkpt lat="49.79078" lon="2.24444">
        <ele>114.6</ele>
        <time>2022-10-07T14:02:23Z</time>
      </trkpt>
      <trkpt lat="49.79078" lon="2.24445">
        <ele>114.6</ele>
        <time>2022-10-07T14:02:24Z</time>
      </trkpt>
      <trkpt lat="49.79078" lon="2.24448">
        <ele>114.5</ele>
        <time>2022-10-07T14:02:25Z</time>
      </trkpt>
      <trkpt lat="49.79079" lon="2.2445">
        <ele>114.5</ele>
        <time>2022-10-07T14:02:26Z</time>
      </trkpt>
      <trkpt lat="49.79079" lon="2.24452">
        <ele>114.4</ele>
        <time>2022-10-07T14:02:27Z</time>
      </trkpt>
      <trkpt lat="49.7908" lon="2.24454">
        <ele>114.4</ele>
        <time>2022-10-07T14:02:29Z</time>
      </trkpt>
      <trkpt lat="49.7908" lon="2.24456">
        <ele>114.3</ele>
        <time>2022-10-07T14:02:30Z</time>
      </trkpt>
      <trkpt lat="49.7908" lon="2.24458">
        <ele>114.3</ele>
        <time>2022-10-07T14:02:31Z</time>
      </trkpt>
      <trkpt lat="49.79081" lon="2.24461">
        <ele>114.2</ele>
        <time>2022-10-07T14:02:32Z</time>
      </trkpt>
      <trkpt lat="49.79081" lon="2.24463">
        <ele>114.2</ele>
        <time>2022-10-07T14:02:33Z</time>
      </trkpt>
      <trkpt lat="49.79081" lon="2.24468">
        <ele>114.1</ele>
        <time>2022-10-07T14:02:34Z</time>
      </trkpt>
      <trkpt lat="49.79081" lon="2.2447">
        <ele>114.1</ele>
        <time>2022-10-07T14:02:35Z</time>
      </trkpt>
      <trkpt lat="49.79081" lon="2.24471">
        <ele>114.1</ele>
        <time>2022-10-07T14:02:36Z</time>
      </trkpt>
      <trkpt lat="49.79081" lon="2.24473">
        <ele>114</ele>
        <time>2022-10-07T14:02:38Z</time>
      </trkpt>
      <trkpt lat="49.79081" lon="2.24475">
        <ele>114</ele>
        <time>2022-10-07T14:02:39Z</time>
      </trkpt>
      <trkpt lat="49.79081" lon="2.24477">
        <ele>114</ele>
        <time>2022-10-07T14:02:40Z</time>
      </trkpt>
      <trkpt lat="49.79082" lon="2.2448">
        <ele>113.9</ele>
        <time>2022-10-07T14:02:41Z</time>
      </trkpt>
      <trkpt lat="49.79082" lon="2.24482">
        <ele>113.9</ele>
        <time>2022-10-07T14:02:42Z</time>
      </trkpt>
      <trkpt lat="49.79082" lon="2.24484">
        <ele>113.9</ele>
        <time>2022-10-07T14:02:43Z</time>
      </trkpt>
      <trkpt lat="49.79082" lon="2.24488">
        <ele>113.8</ele>
        <time>2022-10-07T14:02:44Z</time>
      </trkpt>
      <trkpt lat="49.79082" lon="2.2449">
        <ele>113.8</ele>
        <time>2022-10-07T14:02:45Z</time>
      </trkpt>
      <trkpt lat="49.79082" lon="2.24491">
        <ele>113.8</ele>
        <time>2022-10-07T14:02:47Z</time>
      </trkpt>
      <trkpt lat="49.79082" lon="2.24492">
        <ele>113.8</ele>
        <time>2022-10-07T14:02:48Z</time>
      </trkpt>
      <trkpt lat="49.79082" lon="2.24494">
        <ele>113.8</ele>
        <time>2022-10-07T14:02:49Z</time>
      </trkpt>
      <trkpt lat="49.79082" lon="2.24495">
        <ele>113.8</ele>
        <time>2022-10-07T14:02:50Z</time>
      </trkpt>
      <trkpt lat="49.79082" lon="2.24498">
        <ele>113.7</ele>
        <time>2022-10-07T14:02:51Z</time>
      </trkpt>
      <trkpt lat="49.79082" lon="2.245">
        <ele>113.7</ele>
        <time>2022-10-07T14:02:52Z</time>
      </trkpt>
      <trkpt lat="49.79082" lon="2.24502">
        <ele>113.7</ele>
        <time>2022-10-07T14:02:53Z</time>
      </trkpt>
      <trkpt lat="49.79082" lon="2.24504">
        <ele>113.7</ele>
        <time>2022-10-07T14:02:54Z</time>
      </trkpt>
      <trkpt lat="49.79082" lon="2.24506">
        <ele>113.7</ele>
        <time>2022-10-07T14:02:55Z</time>
      </trkpt>
      <trkpt lat="49.79081" lon="2.24508">
        <ele>113.7</ele>
        <time>2022-10-07T14:02:57Z</time>
      </trkpt>
      <trkpt lat="49.79081" lon="2.24509">
        <ele>113.7</ele>
        <time>2022-10-07T14:02:58Z</time>
      </trkpt>
      <trkpt lat="49.79081" lon="2.2451">
        <ele>113.7</ele>
        <time>2022-10-07T14:02:59Z</time>
      </trkpt>
      <trkpt lat="49.79081" lon="2.24511">
        <ele>113.7</ele>
        <time>2022-10-07T14:03:00Z</time>
      </trkpt>
      <trkpt lat="49.79081" lon="2.24513">
        <ele>113.7</ele>
        <time>2022-10-07T14:03:01Z</time>
      </trkpt>
      <trkpt lat="49.7908" lon="2.24515">
        <ele>113.7</ele>
        <time>2022-10-07T14:03:02Z</time>
      </trkpt>
      <trkpt lat="49.7908" lon="2.24517">
        <ele>113.7</ele>
        <time>2022-10-07T14:03:03Z</time>
      </trkpt>
      <trkpt lat="49.7908" lon="2.2452">
        <ele>113.7</ele>
        <time>2022-10-07T14:03:05Z</time>
      </trkpt>
      <trkpt lat="49.79079" lon="2.24525">
        <ele>113.7</ele>
        <time>2022-10-07T14:03:06Z</time>
      </trkpt>
      <trkpt lat="49.79079" lon="2.24526">
        <ele>113.7</ele>
        <time>2022-10-07T14:03:07Z</time>
      </trkpt>
      <trkpt lat="49.79078" lon="2.24529">
        <ele>113.7</ele>
        <time>2022-10-07T14:03:08Z</time>
      </trkpt>
      <trkpt lat="49.79078" lon="2.24531">
        <ele>113.8</ele>
        <time>2022-10-07T14:03:09Z</time>
      </trkpt>
      <trkpt lat="49.79077" lon="2.24533">
        <ele>113.8</ele>
        <time>2022-10-07T14:03:10Z</time>
      </trkpt>
      <trkpt lat="49.79078" lon="2.24533">
        <ele>113.8</ele>
        <time>2022-10-07T14:03:11Z</time>
      </trkpt>
      <trkpt lat="49.79078" lon="2.24534">
        <ele>113.8</ele>
        <time>2022-10-07T14:03:13Z</time>
      </trkpt>
      <trkpt lat="49.79078" lon="2.24535">
        <ele>113.8</ele>
        <time>2022-10-07T14:03:14Z</time>
      </trkpt>
      <trkpt lat="49.79078" lon="2.24537">
        <ele>113.8</ele>
        <time>2022-10-07T14:03:15Z</time>
      </trkpt>
      <trkpt lat="49.79078" lon="2.24538">
        <ele>113.8</ele>
        <time>2022-10-07T14:03:16Z</time>
      </trkpt>
      <trkpt lat="49.79078" lon="2.24539">
        <ele>113.8</ele>
        <time>2022-10-07T14:03:17Z</time>
      </trkpt>
      <trkpt lat="49.79078" lon="2.24542">
        <ele>113.8</ele>
        <time>2022-10-07T14:03:19Z</time>
      </trkpt>
      <trkpt lat="49.79078" lon="2.24543">
        <ele>113.9</ele>
        <time>2022-10-07T14:03:20Z</time>
      </trkpt>
      <trkpt lat="49.79077" lon="2.24545">
        <ele>113.9</ele>
        <time>2022-10-07T14:03:21Z</time>
      </trkpt>
      <trkpt lat="49.79077" lon="2.24546">
        <ele>113.9</ele>
        <time>2022-10-07T14:03:22Z</time>
      </trkpt>
      <trkpt lat="49.79077" lon="2.24548">
        <ele>113.9</ele>
        <time>2022-10-07T14:03:23Z</time>
      </trkpt>
      <trkpt lat="49.79076" lon="2.24551">
        <ele>113.9</ele>
        <time>2022-10-07T14:03:24Z</time>
      </trkpt>
      <trkpt lat="49.79076" lon="2.24552">
        <ele>114</ele>
        <time>2022-10-07T14:03:25Z</time>
      </trkpt>
      <trkpt lat="49.79076" lon="2.24554">
        <ele>114</ele>
        <time>2022-10-07T14:03:26Z</time>
      </trkpt>
      <trkpt lat="49.79076" lon="2.24555">
        <ele>114</ele>
        <time>2022-10-07T14:03:28Z</time>
      </trkpt>
      <trkpt lat="49.79075" lon="2.24557">
        <ele>114</ele>
        <time>2022-10-07T14:03:29Z</time>
      </trkpt>
      <trkpt lat="49.79075" lon="2.24559">
        <ele>114</ele>
        <time>2022-10-07T14:03:30Z</time>
      </trkpt>
      <trkpt lat="49.79075" lon="2.24562">
        <ele>114.1</ele>
        <time>2022-10-07T14:03:31Z</time>
      </trkpt>
      <trkpt lat="49.79074" lon="2.24564">
        <ele>114.1</ele>
        <time>2022-10-07T14:03:32Z</time>
      </trkpt>
      <trkpt lat="49.79074" lon="2.24565">
        <ele>114.1</ele>
        <time>2022-10-07T14:03:33Z</time>
      </trkpt>
      <trkpt lat="49.79073" lon="2.24567">
        <ele>114.2</ele>
        <time>2022-10-07T14:03:34Z</time>
      </trkpt>
      <trkpt lat="49.79072" lon="2.2457">
        <ele>114.2</ele>
        <time>2022-10-07T14:03:35Z</time>
      </trkpt>
      <trkpt lat="49.79072" lon="2.24572">
        <ele>114.2</ele>
        <time>2022-10-07T14:03:37Z</time>
      </trkpt>
      <trkpt lat="49.79071" lon="2.24574">
        <ele>114.3</ele>
        <time>2022-10-07T14:03:38Z</time>
      </trkpt>
      <trkpt lat="49.79071" lon="2.24576">
        <ele>114.3</ele>
        <time>2022-10-07T14:03:39Z</time>
      </trkpt>
      <trkpt lat="49.79071" lon="2.2458">
        <ele>114.3</ele>
        <time>2022-10-07T14:03:41Z</time>
      </trkpt>
      <trkpt lat="49.79071" lon="2.24581">
        <ele>114.4</ele>
        <time>2022-10-07T14:03:42Z</time>
      </trkpt>
      <trkpt lat="49.79071" lon="2.24583">
        <ele>114.4</ele>
        <time>2022-10-07T14:03:43Z</time>
      </trkpt>
      <trkpt lat="49.7907" lon="2.24586">
        <ele>114.4</ele>
        <time>2022-10-07T14:03:45Z</time>
      </trkpt>
      <trkpt lat="49.79069" lon="2.24589">
        <ele>114.5</ele>
        <time>2022-10-07T14:03:46Z</time>
      </trkpt>
      <trkpt lat="49.79069" lon="2.2459">
        <ele>114.5</ele>
        <time>2022-10-07T14:03:47Z</time>
      </trkpt>
      <trkpt lat="49.79069" lon="2.24591">
        <ele>114.5</ele>
        <time>2022-10-07T14:03:48Z</time>
      </trkpt>
      <trkpt lat="49.79068" lon="2.24595">
        <ele>114.6</ele>
        <time>2022-10-07T14:03:49Z</time>
      </trkpt>
      <trkpt lat="49.79067" lon="2.24597">
        <ele>114.6</ele>
        <time>2022-10-07T14:03:50Z</time>
      </trkpt>
      <trkpt lat="49.79067" lon="2.24597">
        <ele>114.7</ele>
        <time>2022-10-07T14:03:52Z</time>
      </trkpt>
      <trkpt lat="49.79067" lon="2.24599">
        <ele>114.7</ele>
        <time>2022-10-07T14:03:53Z</time>
      </trkpt>
      <trkpt lat="49.79066" lon="2.246">
        <ele>114.7</ele>
        <time>2022-10-07T14:03:54Z</time>
      </trkpt>
      <trkpt lat="49.79065" lon="2.24602">
        <ele>114.7</ele>
        <time>2022-10-07T14:03:55Z</time>
      </trkpt>
      <trkpt lat="49.79065" lon="2.24604">
        <ele>114.8</ele>
        <time>2022-10-07T14:03:56Z</time>
      </trkpt>
      <trkpt lat="49.79065" lon="2.24606">
        <ele>114.8</ele>
        <time>2022-10-07T14:03:57Z</time>
      </trkpt>
      <trkpt lat="49.79065" lon="2.24607">
        <ele>114.9</ele>
        <time>2022-10-07T14:03:59Z</time>
      </trkpt>
      <trkpt lat="49.79064" lon="2.24609">
        <ele>114.9</ele>
        <time>2022-10-07T14:04:00Z</time>
      </trkpt>
      <trkpt lat="49.79064" lon="2.24611">
        <ele>115</ele>
        <time>2022-10-07T14:04:01Z</time>
      </trkpt>
      <trkpt lat="49.79063" lon="2.24612">
        <ele>115</ele>
        <time>2022-10-07T14:04:02Z</time>
      </trkpt>
      <trkpt lat="49.79062" lon="2.24615">
        <ele>115.1</ele>
        <time>2022-10-07T14:04:03Z</time>
      </trkpt>
      <trkpt lat="49.79061" lon="2.24616">
        <ele>115.1</ele>
        <time>2022-10-07T14:04:04Z</time>
      </trkpt>
      <trkpt lat="49.7906" lon="2.24617">
        <ele>115.2</ele>
        <time>2022-10-07T14:04:05Z</time>
      </trkpt>
      <trkpt lat="49.7906" lon="2.24617">
        <ele>115.2</ele>
        <time>2022-10-07T14:04:07Z</time>
      </trkpt>
      <trkpt lat="49.79059" lon="2.24618">
        <ele>115.2</ele>
        <time>2022-10-07T14:04:08Z</time>
      </trkpt>
      <trkpt lat="49.79058" lon="2.24618">
        <ele>115.2</ele>
        <time>2022-10-07T14:04:09Z</time>
      </trkpt>
      <trkpt lat="49.79057" lon="2.24619">
        <ele>115.3</ele>
        <time>2022-10-07T14:04:10Z</time>
      </trkpt>
      <trkpt lat="49.79057" lon="2.2462">
        <ele>115.3</ele>
        <time>2022-10-07T14:04:11Z</time>
      </trkpt>
      <trkpt lat="49.79056" lon="2.24622">
        <ele>115.4</ele>
        <time>2022-10-07T14:04:12Z</time>
      </trkpt>
      <trkpt lat="49.79056" lon="2.24624">
        <ele>115.4</ele>
        <time>2022-10-07T14:04:13Z</time>
      </trkpt>
      <trkpt lat="49.79055" lon="2.24625">
        <ele>115.5</ele>
        <time>2022-10-07T14:04:14Z</time>
      </trkpt>
      <trkpt lat="49.79055" lon="2.24627">
        <ele>115.5</ele>
        <time>2022-10-07T14:04:16Z</time>
      </trkpt>
      <trkpt lat="49.79054" lon="2.24628">
        <ele>115.6</ele>
        <time>2022-10-07T14:04:17Z</time>
      </trkpt>
      <trkpt lat="49.79053" lon="2.24631">
        <ele>115.7</ele>
        <time>2022-10-07T14:04:18Z</time>
      </trkpt>
      <trkpt lat="49.79053" lon="2.24632">
        <ele>115.7</ele>
        <time>2022-10-07T14:04:19Z</time>
      </trkpt>
      <trkpt lat="49.79052" lon="2.24633">
        <ele>115.7</ele>
        <time>2022-10-07T14:04:21Z</time>
      </trkpt>
      <trkpt lat="49.79052" lon="2.24635">
        <ele>115.8</ele>
        <time>2022-10-07T14:04:22Z</time>
      </trkpt>
      <trkpt lat="49.79051" lon="2.24636">
        <ele>115.8</ele>
        <time>2022-10-07T14:04:23Z</time>
      </trkpt>
      <trkpt lat="49.79051" lon="2.24637">
        <ele>115.9</ele>
        <time>2022-10-07T14:04:24Z</time>
      </trkpt>
      <trkpt lat="49.79051" lon="2.24638">
        <ele>115.9</ele>
        <time>2022-10-07T14:04:25Z</time>
      </trkpt>
      <trkpt lat="49.7905" lon="2.24641">
        <ele>116</ele>
        <time>2022-10-07T14:04:26Z</time>
      </trkpt>
      <trkpt lat="49.7905" lon="2.24642">
        <ele>116</ele>
        <time>2022-10-07T14:04:28Z</time>
      </trkpt>
      <trkpt lat="49.7905" lon="2.24643">
        <ele>116</ele>
        <time>2022-10-07T14:04:29Z</time>
      </trkpt>
      <trkpt lat="49.7905" lon="2.24644">
        <ele>116.1</ele>
        <time>2022-10-07T14:04:30Z</time>
      </trkpt>
      <trkpt lat="49.79049" lon="2.24645">
        <ele>116.1</ele>
        <time>2022-10-07T14:04:31Z</time>
      </trkpt>
      <trkpt lat="49.79049" lon="2.24647">
        <ele>116.1</ele>
        <time>2022-10-07T14:04:32Z</time>
      </trkpt>
      <trkpt lat="49.79049" lon="2.24648">
        <ele>116.2</ele>
        <time>2022-10-07T14:04:33Z</time>
      </trkpt>
      <trkpt lat="49.79048" lon="2.24651">
        <ele>116.3</ele>
        <time>2022-10-07T14:04:34Z</time>
      </trkpt>
      <trkpt lat="49.79047" lon="2.24652">
        <ele>116.3</ele>
        <time>2022-10-07T14:04:36Z</time>
      </trkpt>
      <trkpt lat="49.79047" lon="2.24653">
        <ele>116.4</ele>
        <time>2022-10-07T14:04:37Z</time>
      </trkpt>
      <trkpt lat="49.79046" lon="2.24656">
        <ele>116.5</ele>
        <time>2022-10-07T14:04:38Z</time>
      </trkpt>
      <trkpt lat="49.79045" lon="2.24658">
        <ele>116.5</ele>
        <time>2022-10-07T14:04:39Z</time>
      </trkpt>
      <trkpt lat="49.79045" lon="2.24659">
        <ele>116.5</ele>
        <time>2022-10-07T14:04:40Z</time>
      </trkpt>
      <trkpt lat="49.79044" lon="2.24662">
        <ele>116.7</ele>
        <time>2022-10-07T14:04:41Z</time>
      </trkpt>
      <trkpt lat="49.79044" lon="2.24663">
        <ele>116.7</ele>
        <time>2022-10-07T14:04:42Z</time>
      </trkpt>
      <trkpt lat="49.79043" lon="2.24665">
        <ele>116.8</ele>
        <time>2022-10-07T14:04:44Z</time>
      </trkpt>
      <trkpt lat="49.79042" lon="2.24666">
        <ele>116.8</ele>
        <time>2022-10-07T14:04:45Z</time>
      </trkpt>
      <trkpt lat="49.79042" lon="2.24667">
        <ele>116.9</ele>
        <time>2022-10-07T14:04:46Z</time>
      </trkpt>
      <trkpt lat="49.79041" lon="2.24669">
        <ele>116.9</ele>
        <time>2022-10-07T14:04:47Z</time>
      </trkpt>
      <trkpt lat="49.79041" lon="2.2467">
        <ele>117</ele>
        <time>2022-10-07T14:04:48Z</time>
      </trkpt>
      <trkpt lat="49.79041" lon="2.24672">
        <ele>117</ele>
        <time>2022-10-07T14:04:49Z</time>
      </trkpt>
      <trkpt lat="49.7904" lon="2.24675">
        <ele>117.1</ele>
        <time>2022-10-07T14:04:51Z</time>
      </trkpt>
      <trkpt lat="49.7904" lon="2.24676">
        <ele>117.1</ele>
        <time>2022-10-07T14:04:52Z</time>
      </trkpt>
      <trkpt lat="49.7904" lon="2.24677">
        <ele>117.2</ele>
        <time>2022-10-07T14:04:53Z</time>
      </trkpt>
      <trkpt lat="49.79039" lon="2.24681">
        <ele>117.3</ele>
        <time>2022-10-07T14:04:54Z</time>
      </trkpt>
      <trkpt lat="49.79039" lon="2.24682">
        <ele>117.3</ele>
        <time>2022-10-07T14:04:55Z</time>
      </trkpt>
      <trkpt lat="49.79039" lon="2.24683">
        <ele>117.4</ele>
        <time>2022-10-07T14:04:56Z</time>
      </trkpt>
      <trkpt lat="49.79039" lon="2.24685">
        <ele>117.4</ele>
        <time>2022-10-07T14:04:58Z</time>
      </trkpt>
      <trkpt lat="49.79038" lon="2.24686">
        <ele>117.5</ele>
        <time>2022-10-07T14:04:59Z</time>
      </trkpt>
      <trkpt lat="49.79038" lon="2.24688">
        <ele>117.5</ele>
        <time>2022-10-07T14:05:00Z</time>
      </trkpt>
      <trkpt lat="49.79037" lon="2.24691">
        <ele>117.6</ele>
        <time>2022-10-07T14:05:01Z</time>
      </trkpt>
      <trkpt lat="49.79037" lon="2.24693">
        <ele>117.7</ele>
        <time>2022-10-07T14:05:02Z</time>
      </trkpt>
      <trkpt lat="49.79036" lon="2.24694">
        <ele>117.7</ele>
        <time>2022-10-07T14:05:03Z</time>
      </trkpt>
      <trkpt lat="49.79035" lon="2.24698">
        <ele>117.8</ele>
        <time>2022-10-07T14:05:04Z</time>
      </trkpt>
      <trkpt lat="49.79035" lon="2.247">
        <ele>117.8</ele>
        <time>2022-10-07T14:05:06Z</time>
      </trkpt>
      <trkpt lat="49.79034" lon="2.24701">
        <ele>117.9</ele>
        <time>2022-10-07T14:05:07Z</time>
      </trkpt>
      <trkpt lat="49.79034" lon="2.24702">
        <ele>117.9</ele>
        <time>2022-10-07T14:05:08Z</time>
      </trkpt>
      <trkpt lat="49.79034" lon="2.24703">
        <ele>117.9</ele>
        <time>2022-10-07T14:05:09Z</time>
      </trkpt>
      <trkpt lat="49.79033" lon="2.24705">
        <ele>118</ele>
        <time>2022-10-07T14:05:10Z</time>
      </trkpt>
      <trkpt lat="49.79032" lon="2.24708">
        <ele>118.1</ele>
        <time>2022-10-07T14:05:11Z</time>
      </trkpt>
      <trkpt lat="49.79032" lon="2.24709">
        <ele>118.2</ele>
        <time>2022-10-07T14:05:12Z</time>
      </trkpt>
      <trkpt lat="49.79031" lon="2.2471">
        <ele>118.2</ele>
        <time>2022-10-07T14:05:13Z</time>
      </trkpt>
      <trkpt lat="49.79031" lon="2.24712">
        <ele>118.3</ele>
        <time>2022-10-07T14:05:15Z</time>
      </trkpt>
      <trkpt lat="49.7903" lon="2.24714">
        <ele>118.3</ele>
        <time>2022-10-07T14:05:16Z</time>
      </trkpt>
      <trkpt lat="49.79029" lon="2.24718">
        <ele>118.4</ele>
        <time>2022-10-07T14:05:17Z</time>
      </trkpt>
      <trkpt lat="49.79029" lon="2.24719">
        <ele>118.5</ele>
        <time>2022-10-07T14:05:18Z</time>
      </trkpt>
      <trkpt lat="49.79029" lon="2.2472">
        <ele>118.6</ele>
        <time>2022-10-07T14:05:19Z</time>
      </trkpt>
      <trkpt lat="49.79029" lon="2.24722">
        <ele>118.6</ele>
        <time>2022-10-07T14:05:20Z</time>
      </trkpt>
      <trkpt lat="49.79028" lon="2.24724">
        <ele>118.6</ele>
        <time>2022-10-07T14:05:21Z</time>
      </trkpt>
      <trkpt lat="49.79028" lon="2.24725">
        <ele>118.7</ele>
        <time>2022-10-07T14:05:23Z</time>
      </trkpt>
      <trkpt lat="49.79028" lon="2.24726">
        <ele>118.7</ele>
        <time>2022-10-07T14:05:24Z</time>
      </trkpt>
      <trkpt lat="49.79027" lon="2.24728">
        <ele>118.7</ele>
        <time>2022-10-07T14:05:25Z</time>
      </trkpt>
      <trkpt lat="49.79027" lon="2.24731">
        <ele>118.8</ele>
        <time>2022-10-07T14:05:27Z</time>
      </trkpt>
      <trkpt lat="49.79027" lon="2.24732">
        <ele>118.8</ele>
        <time>2022-10-07T14:05:28Z</time>
      </trkpt>
      <trkpt lat="49.79026" lon="2.24734">
        <ele>118.9</ele>
        <time>2022-10-07T14:05:29Z</time>
      </trkpt>
      <trkpt lat="49.79026" lon="2.24736">
        <ele>118.9</ele>
        <time>2022-10-07T14:05:30Z</time>
      </trkpt>
      <trkpt lat="49.79025" lon="2.24737">
        <ele>118.9</ele>
        <time>2022-10-07T14:05:31Z</time>
      </trkpt>
      <trkpt lat="49.79024" lon="2.2474">
        <ele>119</ele>
        <time>2022-10-07T14:05:32Z</time>
      </trkpt>
      <trkpt lat="49.79024" lon="2.24741">
        <ele>119</ele>
        <time>2022-10-07T14:05:34Z</time>
      </trkpt>
      <trkpt lat="49.79023" lon="2.24742">
        <ele>119</ele>
        <time>2022-10-07T14:05:35Z</time>
      </trkpt>
      <trkpt lat="49.79021" lon="2.24745">
        <ele>119.1</ele>
        <time>2022-10-07T14:05:36Z</time>
      </trkpt>
      <trkpt lat="49.7902" lon="2.24746">
        <ele>119.2</ele>
        <time>2022-10-07T14:05:37Z</time>
      </trkpt>
      <trkpt lat="49.79019" lon="2.24747">
        <ele>119.2</ele>
        <time>2022-10-07T14:05:38Z</time>
      </trkpt>
      <trkpt lat="49.79018" lon="2.24749">
        <ele>119.2</ele>
        <time>2022-10-07T14:05:39Z</time>
      </trkpt>
      <trkpt lat="49.79017" lon="2.2475">
        <ele>119.3</ele>
        <time>2022-10-07T14:05:41Z</time>
      </trkpt>
      <trkpt lat="49.79016" lon="2.24751">
        <ele>119.3</ele>
        <time>2022-10-07T14:05:42Z</time>
      </trkpt>
      <trkpt lat="49.79015" lon="2.24752">
        <ele>119.3</ele>
        <time>2022-10-07T14:05:43Z</time>
      </trkpt>
      <trkpt lat="49.79015" lon="2.24753">
        <ele>119.4</ele>
        <time>2022-10-07T14:05:44Z</time>
      </trkpt>
      <trkpt lat="49.79014" lon="2.24753">
        <ele>119.4</ele>
        <time>2022-10-07T14:05:45Z</time>
      </trkpt>
      <trkpt lat="49.79014" lon="2.24754">
        <ele>119.4</ele>
        <time>2022-10-07T14:05:46Z</time>
      </trkpt>
      <trkpt lat="49.79012" lon="2.24755">
        <ele>119.5</ele>
        <time>2022-10-07T14:05:47Z</time>
      </trkpt>
      <trkpt lat="49.79011" lon="2.24756">
        <ele>119.5</ele>
        <time>2022-10-07T14:05:48Z</time>
      </trkpt>
      <trkpt lat="49.79009" lon="2.24758">
        <ele>119.5</ele>
        <time>2022-10-07T14:05:50Z</time>
      </trkpt>
      <trkpt lat="49.79009" lon="2.24759">
        <ele>119.6</ele>
        <time>2022-10-07T14:05:51Z</time>
      </trkpt>
      <trkpt lat="49.79008" lon="2.2476">
        <ele>119.6</ele>
        <time>2022-10-07T14:05:52Z</time>
      </trkpt>
      <trkpt lat="49.79007" lon="2.24761">
        <ele>119.6</ele>
        <time>2022-10-07T14:05:53Z</time>
      </trkpt>
      <trkpt lat="49.79007" lon="2.24763">
        <ele>119.6</ele>
        <time>2022-10-07T14:05:54Z</time>
      </trkpt>
      <trkpt lat="49.79006" lon="2.24765">
        <ele>119.7</ele>
        <time>2022-10-07T14:05:55Z</time>
      </trkpt>
      <trkpt lat="49.79005" lon="2.24768">
        <ele>119.7</ele>
        <time>2022-10-07T14:05:56Z</time>
      </trkpt>
      <trkpt lat="49.79006" lon="2.24767">
        <ele>119.7</ele>
        <time>2022-10-07T14:05:58Z</time>
      </trkpt>
      <trkpt lat="49.79006" lon="2.24768">
        <ele>119.8</ele>
        <time>2022-10-07T14:05:59Z</time>
      </trkpt>
      <trkpt lat="49.79006" lon="2.24768">
        <ele>119.8</ele>
        <time>2022-10-07T14:06:00Z</time>
      </trkpt>
      <trkpt lat="49.79005" lon="2.24769">
        <ele>119.8</ele>
        <time>2022-10-07T14:06:01Z</time>
      </trkpt>
      <trkpt lat="49.79005" lon="2.2477">
        <ele>119.8</ele>
        <time>2022-10-07T14:06:02Z</time>
      </trkpt>
      <trkpt lat="49.79004" lon="2.24772">
        <ele>119.8</ele>
        <time>2022-10-07T14:06:03Z</time>
      </trkpt>
      <trkpt lat="49.79004" lon="2.24773">
        <ele>119.8</ele>
        <time>2022-10-07T14:06:04Z</time>
      </trkpt>
      <trkpt lat="49.79003" lon="2.24775">
        <ele>119.9</ele>
        <time>2022-10-07T14:06:06Z</time>
      </trkpt>
      <trkpt lat="49.79003" lon="2.24777">
        <ele>119.9</ele>
        <time>2022-10-07T14:06:07Z</time>
      </trkpt>
      <trkpt lat="49.79002" lon="2.24778">
        <ele>119.9</ele>
        <time>2022-10-07T14:06:08Z</time>
      </trkpt>
      <trkpt lat="49.79001" lon="2.24781">
        <ele>120</ele>
        <time>2022-10-07T14:06:09Z</time>
      </trkpt>
      <trkpt lat="49.79001" lon="2.24782">
        <ele>120</ele>
        <time>2022-10-07T14:06:10Z</time>
      </trkpt>
      <trkpt lat="49.79" lon="2.24783">
        <ele>120</ele>
        <time>2022-10-07T14:06:11Z</time>
      </trkpt>
      <trkpt lat="49.79" lon="2.24784">
        <ele>120</ele>
        <time>2022-10-07T14:06:13Z</time>
      </trkpt>
      <trkpt lat="49.79" lon="2.24785">
        <ele>120</ele>
        <time>2022-10-07T14:06:14Z</time>
      </trkpt>
      <trkpt lat="49.78999" lon="2.24786">
        <ele>120</ele>
        <time>2022-10-07T14:06:15Z</time>
      </trkpt>
      <trkpt lat="49.78999" lon="2.24788">
        <ele>120</ele>
        <time>2022-10-07T14:06:16Z</time>
      </trkpt>
      <trkpt lat="49.78998" lon="2.2479">
        <ele>120.1</ele>
        <time>2022-10-07T14:06:17Z</time>
      </trkpt>
      <trkpt lat="49.78998" lon="2.24791">
        <ele>120.1</ele>
        <time>2022-10-07T14:06:18Z</time>
      </trkpt>
      <trkpt lat="49.78998" lon="2.24792">
        <ele>120.1</ele>
        <time>2022-10-07T14:06:20Z</time>
      </trkpt>
      <trkpt lat="49.78998" lon="2.24794">
        <ele>120.1</ele>
        <time>2022-10-07T14:06:21Z</time>
      </trkpt>
      <trkpt lat="49.78998" lon="2.24795">
        <ele>120.1</ele>
        <time>2022-10-07T14:06:22Z</time>
      </trkpt>
      <trkpt lat="49.78997" lon="2.24796">
        <ele>120.1</ele>
        <time>2022-10-07T14:06:23Z</time>
      </trkpt>
      <trkpt lat="49.78997" lon="2.24798">
        <ele>120.1</ele>
        <time>2022-10-07T14:06:25Z</time>
      </trkpt>
      <trkpt lat="49.78997" lon="2.24799">
        <ele>120.1</ele>
        <time>2022-10-07T14:06:26Z</time>
      </trkpt>
      <trkpt lat="49.78997" lon="2.24802">
        <ele>120.1</ele>
        <time>2022-10-07T14:06:27Z</time>
      </trkpt>
      <trkpt lat="49.78997" lon="2.24802">
        <ele>120.1</ele>
        <time>2022-10-07T14:06:28Z</time>
      </trkpt>
      <trkpt lat="49.78997" lon="2.24803">
        <ele>120.1</ele>
        <time>2022-10-07T14:06:29Z</time>
      </trkpt>
      <trkpt lat="49.78997" lon="2.24803">
        <ele>120.1</ele>
        <time>2022-10-07T14:06:30Z</time>
      </trkpt>
      <trkpt lat="49.78997" lon="2.24803">
        <ele>120.1</ele>
        <time>2022-10-07T14:06:31Z</time>
      </trkpt>
      <trkpt lat="49.78997" lon="2.24802">
        <ele>120.1</ele>
        <time>2022-10-07T14:06:33Z</time>
      </trkpt>
      <trkpt lat="49.78997" lon="2.24802">
        <ele>120.1</ele>
        <time>2022-10-07T14:06:34Z</time>
      </trkpt>
      <trkpt lat="49.78997" lon="2.24802">
        <ele>120.1</ele>
        <time>2022-10-07T14:06:35Z</time>
      </trkpt>
      <trkpt lat="49.78997" lon="2.24802">
        <ele>120.1</ele>
        <time>2022-10-07T14:06:36Z</time>
      </trkpt>
      <trkpt lat="49.78997" lon="2.24802">
        <ele>120.1</ele>
        <time>2022-10-07T14:06:37Z</time>
      </trkpt>
      <trkpt lat="49.78997" lon="2.24802">
        <ele>120.1</ele>
        <time>2022-10-07T14:06:38Z</time>
      </trkpt>
      <trkpt lat="49.78998" lon="2.24801">
        <ele>120.1</ele>
        <time>2022-10-07T14:06:39Z</time>
      </trkpt>
      <trkpt lat="49.78998" lon="2.24801">
        <ele>120.1</ele>
        <time>2022-10-07T14:06:40Z</time>
      </trkpt>
      <trkpt lat="49.78998" lon="2.24801">
        <ele>120.1</ele>
        <time>2022-10-07T14:06:41Z</time>
      </trkpt>
      <trkpt lat="49.78998" lon="2.24801">
        <ele>120.1</ele>
        <time>2022-10-07T14:06:43Z</time>
      </trkpt>
      <trkpt lat="49.78998" lon="2.24801">
        <ele>120.1</ele>
        <time>2022-10-07T14:06:44Z</time>
      </trkpt>
      <trkpt lat="49.78998" lon="2.24801">
        <ele>120.1</ele>
        <time>2022-10-07T14:06:45Z</time>
      </trkpt>
      <trkpt lat="49.78998" lon="2.24801">
        <ele>120.1</ele>
        <time>2022-10-07T14:06:46Z</time>
      </trkpt>
      <trkpt lat="49.78998" lon="2.248">
        <ele>120.1</ele>
        <time>2022-10-07T14:06:47Z</time>
      </trkpt>
      <trkpt lat="49.78998" lon="2.248">
        <ele>120.1</ele>
        <time>2022-10-07T14:06:48Z</time>
      </trkpt>
      <trkpt lat="49.78998" lon="2.248">
        <ele>120.1</ele>
        <time>2022-10-07T14:06:49Z</time>
      </trkpt>
      <trkpt lat="49.78998" lon="2.248">
        <ele>120.1</ele>
        <time>2022-10-07T14:06:50Z</time>
      </trkpt>
      <trkpt lat="49.78998" lon="2.248">
        <ele>120.1</ele>
        <time>2022-10-07T14:06:51Z</time>
      </trkpt>
      <trkpt lat="49.78998" lon="2.248">
        <ele>120.1</ele>
        <time>2022-10-07T14:06:52Z</time>
      </trkpt>
      <trkpt lat="49.78998" lon="2.24799">
        <ele>120.1</ele>
        <time>2022-10-07T14:06:53Z</time>
      </trkpt>
      <trkpt lat="49.78998" lon="2.24799">
        <ele>120.1</ele>
        <time>2022-10-07T14:06:54Z</time>
      </trkpt>
      <trkpt lat="49.78998" lon="2.24799">
        <ele>120.1</ele>
        <time>2022-10-07T14:06:55Z</time>
      </trkpt>
      <trkpt lat="49.78998" lon="2.24799">
        <ele>120.1</ele>
        <time>2022-10-07T14:06:56Z</time>
      </trkpt>
      <trkpt lat="49.78998" lon="2.24799">
        <ele>120.1</ele>
        <time>2022-10-07T14:06:57Z</time>
      </trkpt>
      <trkpt lat="49.78998" lon="2.24799">
        <ele>120.1</ele>
        <time>2022-10-07T14:06:58Z</time>
      </trkpt>
      <trkpt lat="49.78998" lon="2.24799">
        <ele>120.1</ele>
        <time>2022-10-07T14:06:59Z</time>
      </trkpt>
      <trkpt lat="49.78999" lon="2.24798">
        <ele>120.1</ele>
        <time>2022-10-07T14:07:00Z</time>
      </trkpt>
      <trkpt lat="49.78999" lon="2.24798">
        <ele>120.1</ele>
        <time>2022-10-07T14:07:01Z</time>
      </trkpt>
      <trkpt lat="49.78999" lon="2.24798">
        <ele>120.1</ele>
        <time>2022-10-07T14:07:02Z</time>
      </trkpt>
      <trkpt lat="49.78999" lon="2.24798">
        <ele>120.1</ele>
        <time>2022-10-07T14:07:03Z</time>
      </trkpt>
      <trkpt lat="49.78999" lon="2.24798">
        <ele>120.1</ele>
        <time>2022-10-07T14:07:04Z</time>
      </trkpt>
      <trkpt lat="49.78999" lon="2.24798">
        <ele>120.1</ele>
        <time>2022-10-07T14:07:05Z</time>
      </trkpt>
      <trkpt lat="49.78999" lon="2.24797">
        <ele>120.1</ele>
        <time>2022-10-07T14:07:06Z</time>
      </trkpt>
      <trkpt lat="49.78999" lon="2.24797">
        <ele>120.1</ele>
        <time>2022-10-07T14:07:07Z</time>
      </trkpt>
      <trkpt lat="49.78999" lon="2.24797">
        <ele>120.1</ele>
        <time>2022-10-07T14:07:08Z</time>
      </trkpt>
      <trkpt lat="49.78999" lon="2.24797">
        <ele>120.1</ele>
        <time>2022-10-07T14:07:09Z</time>
      </trkpt>
      <trkpt lat="49.78999" lon="2.24797">
        <ele>120.1</ele>
        <time>2022-10-07T14:07:10Z</time>
      </trkpt>
      <trkpt lat="49.78999" lon="2.24794">
        <ele>120.1</ele>
        <time>2022-10-07T14:07:11Z</time>
      </trkpt>
      <trkpt lat="49.78999" lon="2.24793">
        <ele>120.1</ele>
        <time>2022-10-07T14:07:12Z</time>
      </trkpt>
      <trkpt lat="49.78999" lon="2.24794">
        <ele>120.1</ele>
        <time>2022-10-07T14:07:13Z</time>
      </trkpt>
      <trkpt lat="49.78999" lon="2.24795">
        <ele>120.1</ele>
        <time>2022-10-07T14:07:14Z</time>
      </trkpt>
      <trkpt lat="49.78999" lon="2.24798">
        <ele>120.1</ele>
        <time>2022-10-07T14:07:15Z</time>
      </trkpt>
      <trkpt lat="49.78999" lon="2.24797">
        <ele>120.1</ele>
        <time>2022-10-07T14:07:16Z</time>
      </trkpt>
      <trkpt lat="49.78999" lon="2.24798">
        <ele>120.1</ele>
        <time>2022-10-07T14:07:17Z</time>
      </trkpt>
      <trkpt lat="49.78998" lon="2.24799">
        <ele>120.2</ele>
        <time>2022-10-07T14:07:19Z</time>
      </trkpt>
      <trkpt lat="49.78998" lon="2.24801">
        <ele>120.2</ele>
        <time>2022-10-07T14:07:20Z</time>
      </trkpt>
      <trkpt lat="49.78997" lon="2.24802">
        <ele>120.2</ele>
        <time>2022-10-07T14:07:21Z</time>
      </trkpt>
      <trkpt lat="49.78997" lon="2.24804">
        <ele>120.2</ele>
        <time>2022-10-07T14:07:22Z</time>
      </trkpt>
      <trkpt lat="49.78997" lon="2.24806">
        <ele>120.2</ele>
        <time>2022-10-07T14:07:23Z</time>
      </trkpt>
      <trkpt lat="49.78996" lon="2.24807">
        <ele>120.2</ele>
        <time>2022-10-07T14:07:24Z</time>
      </trkpt>
      <trkpt lat="49.78996" lon="2.2481">
        <ele>120.3</ele>
        <time>2022-10-07T14:07:25Z</time>
      </trkpt>
      <trkpt lat="49.78996" lon="2.24811">
        <ele>120.3</ele>
        <time>2022-10-07T14:07:26Z</time>
      </trkpt>
      <trkpt lat="49.78996" lon="2.24812">
        <ele>120.3</ele>
        <time>2022-10-07T14:07:28Z</time>
      </trkpt>
      <trkpt lat="49.78996" lon="2.24813">
        <ele>120.3</ele>
        <time>2022-10-07T14:07:29Z</time>
      </trkpt>
      <trkpt lat="49.78996" lon="2.24814">
        <ele>120.3</ele>
        <time>2022-10-07T14:07:30Z</time>
      </trkpt>
      <trkpt lat="49.78996" lon="2.24815">
        <ele>120.3</ele>
        <time>2022-10-07T14:07:31Z</time>
      </trkpt>
      <trkpt lat="49.78996" lon="2.24815">
        <ele>120.3</ele>
        <time>2022-10-07T14:07:32Z</time>
      </trkpt>
      <trkpt lat="49.78995" lon="2.24816">
        <ele>120.3</ele>
        <time>2022-10-07T14:07:34Z</time>
      </trkpt>
      <trkpt lat="49.78995" lon="2.24817">
        <ele>120.3</ele>
        <time>2022-10-07T14:07:35Z</time>
      </trkpt>
      <trkpt lat="49.78995" lon="2.24818">
        <ele>120.3</ele>
        <time>2022-10-07T14:07:36Z</time>
      </trkpt>
      <trkpt lat="49.78994" lon="2.24819">
        <ele>120.4</ele>
        <time>2022-10-07T14:07:37Z</time>
      </trkpt>
      <trkpt lat="49.78994" lon="2.2482">
        <ele>120.4</ele>
        <time>2022-10-07T14:07:38Z</time>
      </trkpt>
      <trkpt lat="49.78993" lon="2.24822">
        <ele>120.4</ele>
        <time>2022-10-07T14:07:39Z</time>
      </trkpt>
      <trkpt lat="49.78992" lon="2.24824">
        <ele>120.4</ele>
        <time>2022-10-07T14:07:41Z</time>
      </trkpt>
      <trkpt lat="49.78991" lon="2.24825">
        <ele>120.4</ele>
        <time>2022-10-07T14:07:42Z</time>
      </trkpt>
      <trkpt lat="49.7899" lon="2.24827">
        <ele>120.5</ele>
        <time>2022-10-07T14:07:43Z</time>
      </trkpt>
      <trkpt lat="49.7899" lon="2.24829">
        <ele>120.5</ele>
        <time>2022-10-07T14:07:44Z</time>
      </trkpt>
      <trkpt lat="49.78988" lon="2.24831">
        <ele>120.5</ele>
        <time>2022-10-07T14:07:45Z</time>
      </trkpt>
      <trkpt lat="49.78987" lon="2.24833">
        <ele>120.5</ele>
        <time>2022-10-07T14:07:46Z</time>
      </trkpt>
      <trkpt lat="49.78986" lon="2.24835">
        <ele>120.6</ele>
        <time>2022-10-07T14:07:47Z</time>
      </trkpt>
      <trkpt lat="49.78985" lon="2.24836">
        <ele>120.6</ele>
        <time>2022-10-07T14:07:49Z</time>
      </trkpt>
      <trkpt lat="49.78985" lon="2.24838">
        <ele>120.6</ele>
        <time>2022-10-07T14:07:50Z</time>
      </trkpt>
      <trkpt lat="49.78984" lon="2.24841">
        <ele>120.6</ele>
        <time>2022-10-07T14:07:51Z</time>
      </trkpt>
      <trkpt lat="49.78983" lon="2.24843">
        <ele>120.6</ele>
        <time>2022-10-07T14:07:52Z</time>
      </trkpt>
      <trkpt lat="49.78983" lon="2.24845">
        <ele>120.7</ele>
        <time>2022-10-07T14:07:54Z</time>
      </trkpt>
      <trkpt lat="49.78983" lon="2.24847">
        <ele>120.7</ele>
        <time>2022-10-07T14:07:55Z</time>
      </trkpt>
      <trkpt lat="49.78982" lon="2.24849">
        <ele>120.7</ele>
        <time>2022-10-07T14:07:56Z</time>
      </trkpt>
      <trkpt lat="49.78981" lon="2.2485">
        <ele>120.7</ele>
        <time>2022-10-07T14:07:57Z</time>
      </trkpt>
      <trkpt lat="49.78981" lon="2.24852">
        <ele>120.7</ele>
        <time>2022-10-07T14:07:58Z</time>
      </trkpt>
      <trkpt lat="49.78981" lon="2.24854">
        <ele>120.7</ele>
        <time>2022-10-07T14:07:59Z</time>
      </trkpt>
      <trkpt lat="49.78979" lon="2.24859">
        <ele>120.8</ele>
        <time>2022-10-07T14:08:01Z</time>
      </trkpt>
      <trkpt lat="49.78979" lon="2.2486">
        <ele>120.8</ele>
        <time>2022-10-07T14:08:02Z</time>
      </trkpt>
      <trkpt lat="49.78979" lon="2.24862">
        <ele>120.8</ele>
        <time>2022-10-07T14:08:03Z</time>
      </trkpt>
      <trkpt lat="49.78979" lon="2.24863">
        <ele>120.8</ele>
        <time>2022-10-07T14:08:04Z</time>
      </trkpt>
      <trkpt lat="49.78978" lon="2.24867">
        <ele>120.9</ele>
        <time>2022-10-07T14:08:05Z</time>
      </trkpt>
      <trkpt lat="49.78978" lon="2.24867">
        <ele>120.9</ele>
        <time>2022-10-07T14:08:06Z</time>
      </trkpt>
      <trkpt lat="49.78978" lon="2.24869">
        <ele>120.9</ele>
        <time>2022-10-07T14:08:07Z</time>
      </trkpt>
      <trkpt lat="49.78978" lon="2.2487">
        <ele>120.9</ele>
        <time>2022-10-07T14:08:09Z</time>
      </trkpt>
      <trkpt lat="49.78978" lon="2.24872">
        <ele>120.9</ele>
        <time>2022-10-07T14:08:10Z</time>
      </trkpt>
      <trkpt lat="49.78976" lon="2.24875">
        <ele>121</ele>
        <time>2022-10-07T14:08:11Z</time>
      </trkpt>
      <trkpt lat="49.78976" lon="2.24876">
        <ele>121</ele>
        <time>2022-10-07T14:08:12Z</time>
      </trkpt>
      <trkpt lat="49.78976" lon="2.24877">
        <ele>121</ele>
        <time>2022-10-07T14:08:13Z</time>
      </trkpt>
      <trkpt lat="49.78976" lon="2.24879">
        <ele>121</ele>
        <time>2022-10-07T14:08:14Z</time>
      </trkpt>
      <trkpt lat="49.78974" lon="2.24881">
        <ele>121</ele>
        <time>2022-10-07T14:08:15Z</time>
      </trkpt>
      <trkpt lat="49.78974" lon="2.24884">
        <ele>121</ele>
        <time>2022-10-07T14:08:17Z</time>
      </trkpt>
      <trkpt lat="49.78973" lon="2.24885">
        <ele>121</ele>
        <time>2022-10-07T14:08:18Z</time>
      </trkpt>
      <trkpt lat="49.78973" lon="2.24887">
        <ele>121</ele>
        <time>2022-10-07T14:08:19Z</time>
      </trkpt>
      <trkpt lat="49.78972" lon="2.24888">
        <ele>121</ele>
        <time>2022-10-07T14:08:20Z</time>
      </trkpt>
      <trkpt lat="49.78971" lon="2.2489">
        <ele>121</ele>
        <time>2022-10-07T14:08:22Z</time>
      </trkpt>
      <trkpt lat="49.78971" lon="2.24891">
        <ele>121.1</ele>
        <time>2022-10-07T14:08:23Z</time>
      </trkpt>
      <trkpt lat="49.78971" lon="2.24892">
        <ele>121.1</ele>
        <time>2022-10-07T14:08:24Z</time>
      </trkpt>
      <trkpt lat="49.7897" lon="2.24893">
        <ele>121.1</ele>
        <time>2022-10-07T14:08:25Z</time>
      </trkpt>
      <trkpt lat="49.78969" lon="2.24895">
        <ele>121.1</ele>
        <time>2022-10-07T14:08:26Z</time>
      </trkpt>
      <trkpt lat="49.78969" lon="2.24896">
        <ele>121.1</ele>
        <time>2022-10-07T14:08:27Z</time>
      </trkpt>
      <trkpt lat="49.78969" lon="2.24898">
        <ele>121.1</ele>
        <time>2022-10-07T14:08:28Z</time>
      </trkpt>
      <trkpt lat="49.78968" lon="2.24899">
        <ele>121.1</ele>
        <time>2022-10-07T14:08:29Z</time>
      </trkpt>
      <trkpt lat="49.78968" lon="2.24902">
        <ele>121.1</ele>
        <time>2022-10-07T14:08:31Z</time>
      </trkpt>
      <trkpt lat="49.78968" lon="2.24903">
        <ele>121.1</ele>
        <time>2022-10-07T14:08:32Z</time>
      </trkpt>
      <trkpt lat="49.78967" lon="2.24904">
        <ele>121.1</ele>
        <time>2022-10-07T14:08:33Z</time>
      </trkpt>
      <trkpt lat="49.78967" lon="2.24906">
        <ele>121.1</ele>
        <time>2022-10-07T14:08:34Z</time>
      </trkpt>
      <trkpt lat="49.78966" lon="2.24907">
        <ele>121.1</ele>
        <time>2022-10-07T14:08:35Z</time>
      </trkpt>
      <trkpt lat="49.78964" lon="2.24908">
        <ele>121.1</ele>
        <time>2022-10-07T14:08:36Z</time>
      </trkpt>
      <trkpt lat="49.78964" lon="2.24909">
        <ele>121.1</ele>
        <time>2022-10-07T14:08:37Z</time>
      </trkpt>
      <trkpt lat="49.78964" lon="2.24911">
        <ele>121.1</ele>
        <time>2022-10-07T14:08:38Z</time>
      </trkpt>
      <trkpt lat="49.78963" lon="2.24912">
        <ele>121.1</ele>
        <time>2022-10-07T14:08:40Z</time>
      </trkpt>
      <trkpt lat="49.78962" lon="2.24915">
        <ele>121.1</ele>
        <time>2022-10-07T14:08:41Z</time>
      </trkpt>
      <trkpt lat="49.78962" lon="2.24917">
        <ele>121.1</ele>
        <time>2022-10-07T14:08:42Z</time>
      </trkpt>
      <trkpt lat="49.78961" lon="2.24918">
        <ele>121.2</ele>
        <time>2022-10-07T14:08:43Z</time>
      </trkpt>
      <trkpt lat="49.78961" lon="2.24919">
        <ele>121.2</ele>
        <time>2022-10-07T14:08:44Z</time>
      </trkpt>
      <trkpt lat="49.78961" lon="2.24921">
        <ele>121.2</ele>
        <time>2022-10-07T14:08:45Z</time>
      </trkpt>
      <trkpt lat="49.78961" lon="2.24922">
        <ele>121.2</ele>
        <time>2022-10-07T14:08:46Z</time>
      </trkpt>
      <trkpt lat="49.78962" lon="2.24922">
        <ele>121.2</ele>
        <time>2022-10-07T14:08:47Z</time>
      </trkpt>
      <trkpt lat="49.78961" lon="2.24922">
        <ele>121.2</ele>
        <time>2022-10-07T14:08:49Z</time>
      </trkpt>
      <trkpt lat="49.78961" lon="2.24923">
        <ele>121.2</ele>
        <time>2022-10-07T14:08:50Z</time>
      </trkpt>
      <trkpt lat="49.7896" lon="2.24925">
        <ele>121.2</ele>
        <time>2022-10-07T14:08:51Z</time>
      </trkpt>
      <trkpt lat="49.78959" lon="2.24926">
        <ele>121.2</ele>
        <time>2022-10-07T14:08:52Z</time>
      </trkpt>
      <trkpt lat="49.78959" lon="2.24928">
        <ele>121.2</ele>
        <time>2022-10-07T14:08:53Z</time>
      </trkpt>
      <trkpt lat="49.78958" lon="2.2493">
        <ele>121.2</ele>
        <time>2022-10-07T14:08:54Z</time>
      </trkpt>
      <trkpt lat="49.78957" lon="2.24932">
        <ele>121.2</ele>
        <time>2022-10-07T14:08:55Z</time>
      </trkpt>
      <trkpt lat="49.78956" lon="2.24933">
        <ele>121.2</ele>
        <time>2022-10-07T14:08:56Z</time>
      </trkpt>
      <trkpt lat="49.78955" lon="2.24936">
        <ele>121.2</ele>
        <time>2022-10-07T14:08:58Z</time>
      </trkpt>
      <trkpt lat="49.78954" lon="2.24937">
        <ele>121.2</ele>
        <time>2022-10-07T14:08:59Z</time>
      </trkpt>
      <trkpt lat="49.78954" lon="2.24938">
        <ele>121.2</ele>
        <time>2022-10-07T14:09:00Z</time>
      </trkpt>
      <trkpt lat="49.78951" lon="2.2494">
        <ele>121.3</ele>
        <time>2022-10-07T14:09:01Z</time>
      </trkpt>
      <trkpt lat="49.7895" lon="2.24942">
        <ele>121.3</ele>
        <time>2022-10-07T14:09:02Z</time>
      </trkpt>
      <trkpt lat="49.78949" lon="2.24943">
        <ele>121.3</ele>
        <time>2022-10-07T14:09:03Z</time>
      </trkpt>
      <trkpt lat="49.78949" lon="2.24945">
        <ele>121.3</ele>
        <time>2022-10-07T14:09:04Z</time>
      </trkpt>
      <trkpt lat="49.78945" lon="2.24946">
        <ele>121.3</ele>
        <time>2022-10-07T14:09:05Z</time>
      </trkpt>
      <trkpt lat="49.78945" lon="2.24947">
        <ele>121.3</ele>
        <time>2022-10-07T14:09:07Z</time>
      </trkpt>
      <trkpt lat="49.78944" lon="2.24948">
        <ele>121.3</ele>
        <time>2022-10-07T14:09:08Z</time>
      </trkpt>
      <trkpt lat="49.78944" lon="2.2495">
        <ele>121.3</ele>
        <time>2022-10-07T14:09:09Z</time>
      </trkpt>
      <trkpt lat="49.78944" lon="2.24951">
        <ele>121.3</ele>
        <time>2022-10-07T14:09:10Z</time>
      </trkpt>
      <trkpt lat="49.78942" lon="2.24955">
        <ele>121.4</ele>
        <time>2022-10-07T14:09:11Z</time>
      </trkpt>
      <trkpt lat="49.78942" lon="2.24956">
        <ele>121.4</ele>
        <time>2022-10-07T14:09:12Z</time>
      </trkpt>
      <trkpt lat="49.78941" lon="2.24958">
        <ele>121.4</ele>
        <time>2022-10-07T14:09:13Z</time>
      </trkpt>
      <trkpt lat="49.78942" lon="2.24959">
        <ele>121.4</ele>
        <time>2022-10-07T14:09:14Z</time>
      </trkpt>
      <trkpt lat="49.7894" lon="2.24963">
        <ele>121.4</ele>
        <time>2022-10-07T14:09:16Z</time>
      </trkpt>
      <trkpt lat="49.7894" lon="2.24964">
        <ele>121.4</ele>
        <time>2022-10-07T14:09:17Z</time>
      </trkpt>
      <trkpt lat="49.78941" lon="2.24966">
        <ele>121.5</ele>
        <time>2022-10-07T14:09:18Z</time>
      </trkpt>
      <trkpt lat="49.78941" lon="2.24967">
        <ele>121.5</ele>
        <time>2022-10-07T14:09:19Z</time>
      </trkpt>
      <trkpt lat="49.78941" lon="2.24969">
        <ele>121.5</ele>
        <time>2022-10-07T14:09:20Z</time>
      </trkpt>
      <trkpt lat="49.78938" lon="2.24971">
        <ele>121.5</ele>
        <time>2022-10-07T14:09:22Z</time>
      </trkpt>
      <trkpt lat="49.78938" lon="2.24972">
        <ele>121.5</ele>
        <time>2022-10-07T14:09:23Z</time>
      </trkpt>
      <trkpt lat="49.78938" lon="2.24974">
        <ele>121.5</ele>
        <time>2022-10-07T14:09:24Z</time>
      </trkpt>
      <trkpt lat="49.78937" lon="2.24975">
        <ele>121.6</ele>
        <time>2022-10-07T14:09:25Z</time>
      </trkpt>
      <trkpt lat="49.78935" lon="2.24977">
        <ele>121.6</ele>
        <time>2022-10-07T14:09:26Z</time>
      </trkpt>
      <trkpt lat="49.78935" lon="2.24979">
        <ele>121.6</ele>
        <time>2022-10-07T14:09:28Z</time>
      </trkpt>
      <trkpt lat="49.78934" lon="2.24982">
        <ele>121.6</ele>
        <time>2022-10-07T14:09:29Z</time>
      </trkpt>
      <trkpt lat="49.78933" lon="2.24984">
        <ele>121.7</ele>
        <time>2022-10-07T14:09:30Z</time>
      </trkpt>
      <trkpt lat="49.78933" lon="2.24985">
        <ele>121.7</ele>
        <time>2022-10-07T14:09:31Z</time>
      </trkpt>
      <trkpt lat="49.78932" lon="2.24986">
        <ele>121.7</ele>
        <time>2022-10-07T14:09:32Z</time>
      </trkpt>
      <trkpt lat="49.78932" lon="2.24988">
        <ele>121.7</ele>
        <time>2022-10-07T14:09:33Z</time>
      </trkpt>
      <trkpt lat="49.78932" lon="2.24989">
        <ele>121.7</ele>
        <time>2022-10-07T14:09:35Z</time>
      </trkpt>
      <trkpt lat="49.7893" lon="2.24992">
        <ele>121.8</ele>
        <time>2022-10-07T14:09:36Z</time>
      </trkpt>
      <trkpt lat="49.7893" lon="2.24993">
        <ele>121.7</ele>
        <time>2022-10-07T14:09:37Z</time>
      </trkpt>
      <trkpt lat="49.78931" lon="2.24994">
        <ele>121.7</ele>
        <time>2022-10-07T14:09:38Z</time>
      </trkpt>
      <trkpt lat="49.78931" lon="2.24996">
        <ele>121.7</ele>
        <time>2022-10-07T14:09:39Z</time>
      </trkpt>
      <trkpt lat="49.78932" lon="2.24997">
        <ele>121.6</ele>
        <time>2022-10-07T14:09:40Z</time>
      </trkpt>
      <trkpt lat="49.78934" lon="2.24998">
        <ele>121.6</ele>
        <time>2022-10-07T14:09:41Z</time>
      </trkpt>
      <trkpt lat="49.78935" lon="2.24999">
        <ele>121.6</ele>
        <time>2022-10-07T14:09:43Z</time>
      </trkpt>
      <trkpt lat="49.78937" lon="2.25">
        <ele>121.5</ele>
        <time>2022-10-07T14:09:44Z</time>
      </trkpt>
      <trkpt lat="49.7894" lon="2.25001">
        <ele>121.5</ele>
        <time>2022-10-07T14:09:45Z</time>
      </trkpt>
      <trkpt lat="49.78941" lon="2.25001">
        <ele>121.5</ele>
        <time>2022-10-07T14:09:46Z</time>
      </trkpt>
      <trkpt lat="49.78943" lon="2.25002">
        <ele>121.5</ele>
        <time>2022-10-07T14:09:47Z</time>
      </trkpt>
      <trkpt lat="49.78944" lon="2.25003">
        <ele>121.5</ele>
        <time>2022-10-07T14:09:48Z</time>
      </trkpt>
      <trkpt lat="49.78945" lon="2.25003">
        <ele>121.4</ele>
        <time>2022-10-07T14:09:49Z</time>
      </trkpt>
      <trkpt lat="49.78946" lon="2.25003">
        <ele>121.4</ele>
        <time>2022-10-07T14:09:50Z</time>
      </trkpt>
      <trkpt lat="49.78948" lon="2.25003">
        <ele>121.4</ele>
        <time>2022-10-07T14:09:51Z</time>
      </trkpt>
      <trkpt lat="49.78949" lon="2.25002">
        <ele>121.4</ele>
        <time>2022-10-07T14:09:53Z</time>
      </trkpt>
      <trkpt lat="49.78951" lon="2.25002">
        <ele>121.4</ele>
        <time>2022-10-07T14:09:54Z</time>
      </trkpt>
      <trkpt lat="49.78953" lon="2.25003">
        <ele>121.3</ele>
        <time>2022-10-07T14:09:55Z</time>
      </trkpt>
      <trkpt lat="49.78954" lon="2.25003">
        <ele>121.3</ele>
        <time>2022-10-07T14:09:56Z</time>
      </trkpt>
      <trkpt lat="49.78954" lon="2.25004">
        <ele>121.3</ele>
        <time>2022-10-07T14:09:57Z</time>
      </trkpt>
      <trkpt lat="49.78956" lon="2.25005">
        <ele>121.3</ele>
        <time>2022-10-07T14:09:58Z</time>
      </trkpt>
      <trkpt lat="49.78957" lon="2.25006">
        <ele>121.3</ele>
        <time>2022-10-07T14:09:59Z</time>
      </trkpt>
      <trkpt lat="49.78959" lon="2.25009">
        <ele>121.2</ele>
        <time>2022-10-07T14:10:01Z</time>
      </trkpt>
      <trkpt lat="49.78959" lon="2.25009">
        <ele>121.2</ele>
        <time>2022-10-07T14:10:02Z</time>
      </trkpt>
      <trkpt lat="49.7896" lon="2.2501">
        <ele>121.2</ele>
        <time>2022-10-07T14:10:03Z</time>
      </trkpt>
      <trkpt lat="49.78961" lon="2.25011">
        <ele>121.2</ele>
        <time>2022-10-07T14:10:04Z</time>
      </trkpt>
      <trkpt lat="49.78963" lon="2.25014">
        <ele>121.1</ele>
        <time>2022-10-07T14:10:05Z</time>
      </trkpt>
      <trkpt lat="49.78964" lon="2.25016">
        <ele>121.1</ele>
        <time>2022-10-07T14:10:06Z</time>
      </trkpt>
      <trkpt lat="49.78965" lon="2.25017">
        <ele>121.1</ele>
        <time>2022-10-07T14:10:07Z</time>
      </trkpt>
      <trkpt lat="49.78966" lon="2.25018">
        <ele>121</ele>
        <time>2022-10-07T14:10:08Z</time>
      </trkpt>
      <trkpt lat="49.78967" lon="2.2502">
        <ele>121</ele>
        <time>2022-10-07T14:10:09Z</time>
      </trkpt>
      <trkpt lat="49.78969" lon="2.25022">
        <ele>120.9</ele>
        <time>2022-10-07T14:10:10Z</time>
      </trkpt>
      <trkpt lat="49.7897" lon="2.25023">
        <ele>120.9</ele>
        <time>2022-10-07T14:10:12Z</time>
      </trkpt>
      <trkpt lat="49.78971" lon="2.25024">
        <ele>120.9</ele>
        <time>2022-10-07T14:10:13Z</time>
      </trkpt>
      <trkpt lat="49.78972" lon="2.25026">
        <ele>120.9</ele>
        <time>2022-10-07T14:10:14Z</time>
      </trkpt>
      <trkpt lat="49.78973" lon="2.25027">
        <ele>120.8</ele>
        <time>2022-10-07T14:10:15Z</time>
      </trkpt>
      <trkpt lat="49.78975" lon="2.25028">
        <ele>120.8</ele>
        <time>2022-10-07T14:10:16Z</time>
      </trkpt>
      <trkpt lat="49.78975" lon="2.25029">
        <ele>120.8</ele>
        <time>2022-10-07T14:10:17Z</time>
      </trkpt>
      <trkpt lat="49.78976" lon="2.2503">
        <ele>120.7</ele>
        <time>2022-10-07T14:10:18Z</time>
      </trkpt>
      <trkpt lat="49.78978" lon="2.25031">
        <ele>120.7</ele>
        <time>2022-10-07T14:10:19Z</time>
      </trkpt>
      <trkpt lat="49.78979" lon="2.25032">
        <ele>120.7</ele>
        <time>2022-10-07T14:10:21Z</time>
      </trkpt>
      <trkpt lat="49.7898" lon="2.25034">
        <ele>120.6</ele>
        <time>2022-10-07T14:10:22Z</time>
      </trkpt>
      <trkpt lat="49.78981" lon="2.25035">
        <ele>120.6</ele>
        <time>2022-10-07T14:10:23Z</time>
      </trkpt>
      <trkpt lat="49.78982" lon="2.25036">
        <ele>120.6</ele>
        <time>2022-10-07T14:10:24Z</time>
      </trkpt>
      <trkpt lat="49.78982" lon="2.25037">
        <ele>120.6</ele>
        <time>2022-10-07T14:10:25Z</time>
      </trkpt>
      <trkpt lat="49.78984" lon="2.25039">
        <ele>120.5</ele>
        <time>2022-10-07T14:10:26Z</time>
      </trkpt>
      <trkpt lat="49.78984" lon="2.25039">
        <ele>120.5</ele>
        <time>2022-10-07T14:10:27Z</time>
      </trkpt>
      <trkpt lat="49.78985" lon="2.2504">
        <ele>120.5</ele>
        <time>2022-10-07T14:10:28Z</time>
      </trkpt>
      <trkpt lat="49.78985" lon="2.25041">
        <ele>120.5</ele>
        <time>2022-10-07T14:10:30Z</time>
      </trkpt>
      <trkpt lat="49.78985" lon="2.25043">
        <ele>120.5</ele>
        <time>2022-10-07T14:10:31Z</time>
      </trkpt>
      <trkpt lat="49.78986" lon="2.25045">
        <ele>120.4</ele>
        <time>2022-10-07T14:10:32Z</time>
      </trkpt>
      <trkpt lat="49.78986" lon="2.25046">
        <ele>120.4</ele>
        <time>2022-10-07T14:10:33Z</time>
      </trkpt>
      <trkpt lat="49.78987" lon="2.25047">
        <ele>120.4</ele>
        <time>2022-10-07T14:10:34Z</time>
      </trkpt>
      <trkpt lat="49.78988" lon="2.2505">
        <ele>120.4</ele>
        <time>2022-10-07T14:10:35Z</time>
      </trkpt>
      <trkpt lat="49.78989" lon="2.25051">
        <ele>120.3</ele>
        <time>2022-10-07T14:10:36Z</time>
      </trkpt>
      <trkpt lat="49.78989" lon="2.25052">
        <ele>120.3</ele>
        <time>2022-10-07T14:10:38Z</time>
      </trkpt>
      <trkpt lat="49.7899" lon="2.25053">
        <ele>120.3</ele>
        <time>2022-10-07T14:10:39Z</time>
      </trkpt>
      <trkpt lat="49.78991" lon="2.25054">
        <ele>120.3</ele>
        <time>2022-10-07T14:10:40Z</time>
      </trkpt>
      <trkpt lat="49.78991" lon="2.25055">
        <ele>120.2</ele>
        <time>2022-10-07T14:10:41Z</time>
      </trkpt>
      <trkpt lat="49.78992" lon="2.25056">
        <ele>120.2</ele>
        <time>2022-10-07T14:10:43Z</time>
      </trkpt>
      <trkpt lat="49.78993" lon="2.25057">
        <ele>120.2</ele>
        <time>2022-10-07T14:10:44Z</time>
      </trkpt>
      <trkpt lat="49.78994" lon="2.25059">
        <ele>120.2</ele>
        <time>2022-10-07T14:10:45Z</time>
      </trkpt>
      <trkpt lat="49.78994" lon="2.2506">
        <ele>120.2</ele>
        <time>2022-10-07T14:10:46Z</time>
      </trkpt>
      <trkpt lat="49.78996" lon="2.25062">
        <ele>120.1</ele>
        <time>2022-10-07T14:10:47Z</time>
      </trkpt>
      <trkpt lat="49.78996" lon="2.25063">
        <ele>120.1</ele>
        <time>2022-10-07T14:10:48Z</time>
      </trkpt>
      <trkpt lat="49.78997" lon="2.25064">
        <ele>120.1</ele>
        <time>2022-10-07T14:10:49Z</time>
      </trkpt>
      <trkpt lat="49.78998" lon="2.25064">
        <ele>120.1</ele>
        <time>2022-10-07T14:10:50Z</time>
      </trkpt>
      <trkpt lat="49.79" lon="2.25066">
        <ele>120</ele>
        <time>2022-10-07T14:10:51Z</time>
      </trkpt>
      <trkpt lat="49.79" lon="2.25066">
        <ele>120</ele>
        <time>2022-10-07T14:10:52Z</time>
      </trkpt>
      <trkpt lat="49.79001" lon="2.25068">
        <ele>120</ele>
        <time>2022-10-07T14:10:54Z</time>
      </trkpt>
      <trkpt lat="49.79004" lon="2.25072">
        <ele>119.9</ele>
        <time>2022-10-07T14:10:56Z</time>
      </trkpt>
      <trkpt lat="49.79005" lon="2.25073">
        <ele>119.9</ele>
        <time>2022-10-07T14:10:57Z</time>
      </trkpt>
      <trkpt lat="49.79006" lon="2.25075">
        <ele>119.9</ele>
        <time>2022-10-07T14:10:58Z</time>
      </trkpt>
      <trkpt lat="49.79007" lon="2.25076">
        <ele>119.8</ele>
        <time>2022-10-07T14:10:59Z</time>
      </trkpt>
      <trkpt lat="49.79007" lon="2.25077">
        <ele>119.8</ele>
        <time>2022-10-07T14:11:00Z</time>
      </trkpt>
      <trkpt lat="49.79009" lon="2.25079">
        <ele>119.8</ele>
        <time>2022-10-07T14:11:01Z</time>
      </trkpt>
      <trkpt lat="49.7901" lon="2.25079">
        <ele>119.7</ele>
        <time>2022-10-07T14:11:02Z</time>
      </trkpt>
      <trkpt lat="49.79011" lon="2.2508">
        <ele>119.7</ele>
        <time>2022-10-07T14:11:03Z</time>
      </trkpt>
      <trkpt lat="49.79012" lon="2.25081">
        <ele>119.7</ele>
        <time>2022-10-07T14:11:05Z</time>
      </trkpt>
      <trkpt lat="49.79013" lon="2.25082">
        <ele>119.7</ele>
        <time>2022-10-07T14:11:06Z</time>
      </trkpt>
      <trkpt lat="49.79014" lon="2.25083">
        <ele>119.6</ele>
        <time>2022-10-07T14:11:07Z</time>
      </trkpt>
      <trkpt lat="49.79015" lon="2.25084">
        <ele>119.6</ele>
        <time>2022-10-07T14:11:08Z</time>
      </trkpt>
      <trkpt lat="49.79017" lon="2.25085">
        <ele>119.6</ele>
        <time>2022-10-07T14:11:09Z</time>
      </trkpt>
      <trkpt lat="49.79018" lon="2.25086">
        <ele>119.5</ele>
        <time>2022-10-07T14:11:10Z</time>
      </trkpt>
      <trkpt lat="49.79019" lon="2.25087">
        <ele>119.5</ele>
        <time>2022-10-07T14:11:11Z</time>
      </trkpt>
      <trkpt lat="49.7902" lon="2.25087">
        <ele>119.5</ele>
        <time>2022-10-07T14:11:12Z</time>
      </trkpt>
      <trkpt lat="49.79021" lon="2.25088">
        <ele>119.5</ele>
        <time>2022-10-07T14:11:13Z</time>
      </trkpt>
      <trkpt lat="49.79022" lon="2.25088">
        <ele>119.5</ele>
        <time>2022-10-07T14:11:15Z</time>
      </trkpt>
      <trkpt lat="49.79023" lon="2.25089">
        <ele>119.5</ele>
        <time>2022-10-07T14:11:16Z</time>
      </trkpt>
      <trkpt lat="49.79025" lon="2.2509">
        <ele>119.4</ele>
        <time>2022-10-07T14:11:17Z</time>
      </trkpt>
      <trkpt lat="49.79026" lon="2.2509">
        <ele>119.4</ele>
        <time>2022-10-07T14:11:18Z</time>
      </trkpt>
      <trkpt lat="49.79028" lon="2.25092">
        <ele>119.3</ele>
        <time>2022-10-07T14:11:19Z</time>
      </trkpt>
      <trkpt lat="49.7903" lon="2.25092">
        <ele>119.3</ele>
        <time>2022-10-07T14:11:20Z</time>
      </trkpt>
      <trkpt lat="49.79031" lon="2.25093">
        <ele>119.3</ele>
        <time>2022-10-07T14:11:21Z</time>
      </trkpt>
      <trkpt lat="49.79032" lon="2.25093">
        <ele>119.3</ele>
        <time>2022-10-07T14:11:22Z</time>
      </trkpt>
      <trkpt lat="49.79033" lon="2.25094">
        <ele>119.3</ele>
        <time>2022-10-07T14:11:23Z</time>
      </trkpt>
      <trkpt lat="49.79033" lon="2.25095">
        <ele>119.2</ele>
        <time>2022-10-07T14:11:25Z</time>
      </trkpt>
      <trkpt lat="49.79034" lon="2.25096">
        <ele>119.2</ele>
        <time>2022-10-07T14:11:26Z</time>
      </trkpt>
      <trkpt lat="49.79036" lon="2.25097">
        <ele>119.2</ele>
        <time>2022-10-07T14:11:27Z</time>
      </trkpt>
      <trkpt lat="49.79037" lon="2.25097">
        <ele>119.2</ele>
        <time>2022-10-07T14:11:28Z</time>
      </trkpt>
      <trkpt lat="49.79038" lon="2.25098">
        <ele>119.1</ele>
        <time>2022-10-07T14:11:29Z</time>
      </trkpt>
      <trkpt lat="49.79039" lon="2.25099">
        <ele>119.1</ele>
        <time>2022-10-07T14:11:30Z</time>
      </trkpt>
      <trkpt lat="49.7904" lon="2.25102">
        <ele>119.1</ele>
        <time>2022-10-07T14:11:31Z</time>
      </trkpt>
      <trkpt lat="49.7904" lon="2.25103">
        <ele>119.1</ele>
        <time>2022-10-07T14:11:32Z</time>
      </trkpt>
      <trkpt lat="49.79041" lon="2.25104">
        <ele>119</ele>
        <time>2022-10-07T14:11:33Z</time>
      </trkpt>
      <trkpt lat="49.79042" lon="2.25106">
        <ele>119</ele>
        <time>2022-10-07T14:11:34Z</time>
      </trkpt>
      <trkpt lat="49.79043" lon="2.25107">
        <ele>119</ele>
        <time>2022-10-07T14:11:36Z</time>
      </trkpt>
      <trkpt lat="49.79043" lon="2.25108">
        <ele>119</ele>
        <time>2022-10-07T14:11:37Z</time>
      </trkpt>
      <trkpt lat="49.79044" lon="2.25109">
        <ele>119</ele>
        <time>2022-10-07T14:11:38Z</time>
      </trkpt>
      <trkpt lat="49.79045" lon="2.2511">
        <ele>118.9</ele>
        <time>2022-10-07T14:11:39Z</time>
      </trkpt>
      <trkpt lat="49.79046" lon="2.25111">
        <ele>118.9</ele>
        <time>2022-10-07T14:11:40Z</time>
      </trkpt>
      <trkpt lat="49.79047" lon="2.25112">
        <ele>118.9</ele>
        <time>2022-10-07T14:11:41Z</time>
      </trkpt>
      <trkpt lat="49.79047" lon="2.25113">
        <ele>118.9</ele>
        <time>2022-10-07T14:11:42Z</time>
      </trkpt>
      <trkpt lat="49.79048" lon="2.25114">
        <ele>118.9</ele>
        <time>2022-10-07T14:11:43Z</time>
      </trkpt>
      <trkpt lat="49.7905" lon="2.25116">
        <ele>118.8</ele>
        <time>2022-10-07T14:11:44Z</time>
      </trkpt>
      <trkpt lat="49.7905" lon="2.25118">
        <ele>118.8</ele>
        <time>2022-10-07T14:11:46Z</time>
      </trkpt>
      <trkpt lat="49.79051" lon="2.25119">
        <ele>118.8</ele>
        <time>2022-10-07T14:11:47Z</time>
      </trkpt>
      <trkpt lat="49.79051" lon="2.2512">
        <ele>118.8</ele>
        <time>2022-10-07T14:11:48Z</time>
      </trkpt>
      <trkpt lat="49.79051" lon="2.25121">
        <ele>118.8</ele>
        <time>2022-10-07T14:11:49Z</time>
      </trkpt>
      <trkpt lat="49.79051" lon="2.25123">
        <ele>118.8</ele>
        <time>2022-10-07T14:11:50Z</time>
      </trkpt>
      <trkpt lat="49.7905" lon="2.25125">
        <ele>118.7</ele>
        <time>2022-10-07T14:11:52Z</time>
      </trkpt>
      <trkpt lat="49.79051" lon="2.25126">
        <ele>118.7</ele>
        <time>2022-10-07T14:11:53Z</time>
      </trkpt>
      <trkpt lat="49.79051" lon="2.25127">
        <ele>118.7</ele>
        <time>2022-10-07T14:11:54Z</time>
      </trkpt>
      <trkpt lat="49.79052" lon="2.25129">
        <ele>118.7</ele>
        <time>2022-10-07T14:11:55Z</time>
      </trkpt>
      <trkpt lat="49.79053" lon="2.25131">
        <ele>118.7</ele>
        <time>2022-10-07T14:11:57Z</time>
      </trkpt>
      <trkpt lat="49.79054" lon="2.25132">
        <ele>118.7</ele>
        <time>2022-10-07T14:11:58Z</time>
      </trkpt>
      <trkpt lat="49.79055" lon="2.25134">
        <ele>118.6</ele>
        <time>2022-10-07T14:11:59Z</time>
      </trkpt>
      <trkpt lat="49.79056" lon="2.25135">
        <ele>118.6</ele>
        <time>2022-10-07T14:12:00Z</time>
      </trkpt>
      <trkpt lat="49.79057" lon="2.25136">
        <ele>118.6</ele>
        <time>2022-10-07T14:12:01Z</time>
      </trkpt>
      <trkpt lat="49.79057" lon="2.25137">
        <ele>118.6</ele>
        <time>2022-10-07T14:12:03Z</time>
      </trkpt>
      <trkpt lat="49.79058" lon="2.25139">
        <ele>118.6</ele>
        <time>2022-10-07T14:12:04Z</time>
      </trkpt>
      <trkpt lat="49.79058" lon="2.2514">
        <ele>118.6</ele>
        <time>2022-10-07T14:12:05Z</time>
      </trkpt>
      <trkpt lat="49.79059" lon="2.25142">
        <ele>118.6</ele>
        <time>2022-10-07T14:12:06Z</time>
      </trkpt>
      <trkpt lat="49.79059" lon="2.25145">
        <ele>118.6</ele>
        <time>2022-10-07T14:12:07Z</time>
      </trkpt>
      <trkpt lat="49.7906" lon="2.25148">
        <ele>118.5</ele>
        <time>2022-10-07T14:12:08Z</time>
      </trkpt>
      <trkpt lat="49.7906" lon="2.25149">
        <ele>118.5</ele>
        <time>2022-10-07T14:12:09Z</time>
      </trkpt>
      <trkpt lat="49.7906" lon="2.25151">
        <ele>118.5</ele>
        <time>2022-10-07T14:12:11Z</time>
      </trkpt>
      <trkpt lat="49.79061" lon="2.25152">
        <ele>118.5</ele>
        <time>2022-10-07T14:12:12Z</time>
      </trkpt>
      <trkpt lat="49.79061" lon="2.25154">
        <ele>118.5</ele>
        <time>2022-10-07T14:12:13Z</time>
      </trkpt>
      <trkpt lat="49.79061" lon="2.25155">
        <ele>118.4</ele>
        <time>2022-10-07T14:12:14Z</time>
      </trkpt>
      <trkpt lat="49.79062" lon="2.25157">
        <ele>118.4</ele>
        <time>2022-10-07T14:12:16Z</time>
      </trkpt>
      <trkpt lat="49.79062" lon="2.25159">
        <ele>118.4</ele>
        <time>2022-10-07T14:12:17Z</time>
      </trkpt>
      <trkpt lat="49.79062" lon="2.2516">
        <ele>118.4</ele>
        <time>2022-10-07T14:12:18Z</time>
      </trkpt>
      <trkpt lat="49.79062" lon="2.25161">
        <ele>118.4</ele>
        <time>2022-10-07T14:12:19Z</time>
      </trkpt>
      <trkpt lat="49.79063" lon="2.25163">
        <ele>118.4</ele>
        <time>2022-10-07T14:12:20Z</time>
      </trkpt>
      <trkpt lat="49.79063" lon="2.25165">
        <ele>118.3</ele>
        <time>2022-10-07T14:12:21Z</time>
      </trkpt>
      <trkpt lat="49.79063" lon="2.25168">
        <ele>118.3</ele>
        <time>2022-10-07T14:12:22Z</time>
      </trkpt>
      <trkpt lat="49.79063" lon="2.25169">
        <ele>118.3</ele>
        <time>2022-10-07T14:12:23Z</time>
      </trkpt>
      <trkpt lat="49.79063" lon="2.2517">
        <ele>118.3</ele>
        <time>2022-10-07T14:12:24Z</time>
      </trkpt>
      <trkpt lat="49.79063" lon="2.25172">
        <ele>118.3</ele>
        <time>2022-10-07T14:12:25Z</time>
      </trkpt>
      <trkpt lat="49.79063" lon="2.25175">
        <ele>118.3</ele>
        <time>2022-10-07T14:12:27Z</time>
      </trkpt>
      <trkpt lat="49.79063" lon="2.25176">
        <ele>118.3</ele>
        <time>2022-10-07T14:12:28Z</time>
      </trkpt>
      <trkpt lat="49.79063" lon="2.25178">
        <ele>118.2</ele>
        <time>2022-10-07T14:12:29Z</time>
      </trkpt>
      <trkpt lat="49.79063" lon="2.25179">
        <ele>118.2</ele>
        <time>2022-10-07T14:12:30Z</time>
      </trkpt>
      <trkpt lat="49.79063" lon="2.25181">
        <ele>118.2</ele>
        <time>2022-10-07T14:12:31Z</time>
      </trkpt>
      <trkpt lat="49.79063" lon="2.25183">
        <ele>118.2</ele>
        <time>2022-10-07T14:12:32Z</time>
      </trkpt>
      <trkpt lat="49.79062" lon="2.25185">
        <ele>118.2</ele>
        <time>2022-10-07T14:12:33Z</time>
      </trkpt>
      <trkpt lat="49.79062" lon="2.25187">
        <ele>118.2</ele>
        <time>2022-10-07T14:12:34Z</time>
      </trkpt>
      <trkpt lat="49.79062" lon="2.25189">
        <ele>118.1</ele>
        <time>2022-10-07T14:12:36Z</time>
      </trkpt>
      <trkpt lat="49.79061" lon="2.2519">
        <ele>118.1</ele>
        <time>2022-10-07T14:12:37Z</time>
      </trkpt>
      <trkpt lat="49.79061" lon="2.25192">
        <ele>118.1</ele>
        <time>2022-10-07T14:12:38Z</time>
      </trkpt>
      <trkpt lat="49.7906" lon="2.25194">
        <ele>118.1</ele>
        <time>2022-10-07T14:12:39Z</time>
      </trkpt>
      <trkpt lat="49.79059" lon="2.25196">
        <ele>118.1</ele>
        <time>2022-10-07T14:12:40Z</time>
      </trkpt>
      <trkpt lat="49.79059" lon="2.25197">
        <ele>118.1</ele>
        <time>2022-10-07T14:12:41Z</time>
      </trkpt>
      <trkpt lat="49.79058" lon="2.25199">
        <ele>118.1</ele>
        <time>2022-10-07T14:12:43Z</time>
      </trkpt>
      <trkpt lat="49.79058" lon="2.252">
        <ele>118.1</ele>
        <time>2022-10-07T14:12:44Z</time>
      </trkpt>
      <trkpt lat="49.79057" lon="2.25202">
        <ele>118.1</ele>
        <time>2022-10-07T14:12:45Z</time>
      </trkpt>
      <trkpt lat="49.79056" lon="2.25203">
        <ele>118.1</ele>
        <time>2022-10-07T14:12:46Z</time>
      </trkpt>
      <trkpt lat="49.79055" lon="2.25205">
        <ele>118.1</ele>
        <time>2022-10-07T14:12:47Z</time>
      </trkpt>
      <trkpt lat="49.79055" lon="2.25206">
        <ele>118.1</ele>
        <time>2022-10-07T14:12:48Z</time>
      </trkpt>
      <trkpt lat="49.79054" lon="2.25207">
        <ele>118.1</ele>
        <time>2022-10-07T14:12:49Z</time>
      </trkpt>
      <trkpt lat="49.79054" lon="2.25209">
        <ele>118.1</ele>
        <time>2022-10-07T14:12:50Z</time>
      </trkpt>
      <trkpt lat="49.79052" lon="2.25211">
        <ele>118.2</ele>
        <time>2022-10-07T14:12:51Z</time>
      </trkpt>
      <trkpt lat="49.79052" lon="2.25212">
        <ele>118.2</ele>
        <time>2022-10-07T14:12:53Z</time>
      </trkpt>
      <trkpt lat="49.79051" lon="2.25213">
        <ele>118.2</ele>
        <time>2022-10-07T14:12:54Z</time>
      </trkpt>
      <trkpt lat="49.79051" lon="2.25214">
        <ele>118.2</ele>
        <time>2022-10-07T14:12:55Z</time>
      </trkpt>
      <trkpt lat="49.7905" lon="2.25215">
        <ele>118.2</ele>
        <time>2022-10-07T14:12:56Z</time>
      </trkpt>
      <trkpt lat="49.79047" lon="2.25216">
        <ele>118.2</ele>
        <time>2022-10-07T14:12:57Z</time>
      </trkpt>
      <trkpt lat="49.79047" lon="2.25218">
        <ele>118.2</ele>
        <time>2022-10-07T14:12:58Z</time>
      </trkpt>
      <trkpt lat="49.79045" lon="2.2522">
        <ele>118.2</ele>
        <time>2022-10-07T14:12:59Z</time>
      </trkpt>
      <trkpt lat="49.79044" lon="2.25221">
        <ele>118.2</ele>
        <time>2022-10-07T14:13:01Z</time>
      </trkpt>
      <trkpt lat="49.79043" lon="2.25222">
        <ele>118.3</ele>
        <time>2022-10-07T14:13:02Z</time>
      </trkpt>
      <trkpt lat="49.79043" lon="2.25221">
        <ele>118.3</ele>
        <time>2022-10-07T14:13:03Z</time>
      </trkpt>
      <trkpt lat="49.79042" lon="2.25221">
        <ele>118.3</ele>
        <time>2022-10-07T14:13:04Z</time>
      </trkpt>
      <trkpt lat="49.79041" lon="2.25219">
        <ele>118.3</ele>
        <time>2022-10-07T14:13:06Z</time>
      </trkpt>
      <trkpt lat="49.79039" lon="2.25217">
        <ele>118.3</ele>
        <time>2022-10-07T14:13:07Z</time>
      </trkpt>
      <trkpt lat="49.79039" lon="2.25217">
        <ele>118.3</ele>
        <time>2022-10-07T14:13:08Z</time>
      </trkpt>
      <trkpt lat="49.79038" lon="2.25218">
        <ele>118.3</ele>
        <time>2022-10-07T14:13:09Z</time>
      </trkpt>
      <trkpt lat="49.79038" lon="2.25218">
        <ele>118.3</ele>
        <time>2022-10-07T14:13:10Z</time>
      </trkpt>
      <trkpt lat="49.79038" lon="2.25218">
        <ele>118.3</ele>
        <time>2022-10-07T14:13:11Z</time>
      </trkpt>
      <trkpt lat="49.79038" lon="2.25218">
        <ele>118.3</ele>
        <time>2022-10-07T14:13:12Z</time>
      </trkpt>
      <trkpt lat="49.79038" lon="2.25218">
        <ele>118.3</ele>
        <time>2022-10-07T14:13:13Z</time>
      </trkpt>
      <trkpt lat="49.79038" lon="2.25218">
        <ele>118.3</ele>
        <time>2022-10-07T14:13:14Z</time>
      </trkpt>
      <trkpt lat="49.79038" lon="2.25218">
        <ele>118.3</ele>
        <time>2022-10-07T14:13:15Z</time>
      </trkpt>
      <trkpt lat="49.79038" lon="2.25218">
        <ele>118.3</ele>
        <time>2022-10-07T14:13:16Z</time>
      </trkpt>
      <trkpt lat="49.79039" lon="2.25217">
        <ele>118.3</ele>
        <time>2022-10-07T14:13:17Z</time>
      </trkpt>
      <trkpt lat="49.7904" lon="2.25216">
        <ele>118.3</ele>
        <time>2022-10-07T14:13:18Z</time>
      </trkpt>
      <trkpt lat="49.79041" lon="2.25215">
        <ele>118.3</ele>
        <time>2022-10-07T14:13:19Z</time>
      </trkpt>
      <trkpt lat="49.79042" lon="2.25215">
        <ele>118.3</ele>
        <time>2022-10-07T14:13:20Z</time>
      </trkpt>
      <trkpt lat="49.79041" lon="2.25215">
        <ele>118.3</ele>
        <time>2022-10-07T14:13:21Z</time>
      </trkpt>
      <trkpt lat="49.79041" lon="2.25215">
        <ele>118.3</ele>
        <time>2022-10-07T14:13:23Z</time>
      </trkpt>
      <trkpt lat="49.79041" lon="2.25215">
        <ele>118.3</ele>
        <time>2022-10-07T14:13:24Z</time>
      </trkpt>
      <trkpt lat="49.7904" lon="2.25216">
        <ele>118.3</ele>
        <time>2022-10-07T14:13:25Z</time>
      </trkpt>
      <trkpt lat="49.79039" lon="2.25217">
        <ele>118.4</ele>
        <time>2022-10-07T14:13:26Z</time>
      </trkpt>
      <trkpt lat="49.79038" lon="2.25218">
        <ele>118.4</ele>
        <time>2022-10-07T14:13:28Z</time>
      </trkpt>
      <trkpt lat="49.79038" lon="2.25219">
        <ele>118.4</ele>
        <time>2022-10-07T14:13:29Z</time>
      </trkpt>
      <trkpt lat="49.79037" lon="2.25222">
        <ele>118.4</ele>
        <time>2022-10-07T14:13:30Z</time>
      </trkpt>
      <trkpt lat="49.79036" lon="2.25223">
        <ele>118.4</ele>
        <time>2022-10-07T14:13:31Z</time>
      </trkpt>
      <trkpt lat="49.79036" lon="2.25225">
        <ele>118.4</ele>
        <time>2022-10-07T14:13:32Z</time>
      </trkpt>
      <trkpt lat="49.79035" lon="2.25226">
        <ele>118.4</ele>
        <time>2022-10-07T14:13:34Z</time>
      </trkpt>
      <trkpt lat="49.79035" lon="2.25227">
        <ele>118.4</ele>
        <time>2022-10-07T14:13:35Z</time>
      </trkpt>
      <trkpt lat="49.79034" lon="2.25229">
        <ele>118.4</ele>
        <time>2022-10-07T14:13:36Z</time>
      </trkpt>
      <trkpt lat="49.79033" lon="2.25232">
        <ele>118.4</ele>
        <time>2022-10-07T14:13:37Z</time>
      </trkpt>
      <trkpt lat="49.79033" lon="2.25232">
        <ele>118.4</ele>
        <time>2022-10-07T14:13:38Z</time>
      </trkpt>
      <trkpt lat="49.79033" lon="2.25233">
        <ele>118.4</ele>
        <time>2022-10-07T14:13:39Z</time>
      </trkpt>
      <trkpt lat="49.79032" lon="2.25234">
        <ele>118.5</ele>
        <time>2022-10-07T14:13:40Z</time>
      </trkpt>
      <trkpt lat="49.79032" lon="2.25236">
        <ele>118.5</ele>
        <time>2022-10-07T14:13:41Z</time>
      </trkpt>
      <trkpt lat="49.79033" lon="2.25238">
        <ele>118.5</ele>
        <time>2022-10-07T14:13:42Z</time>
      </trkpt>
      <trkpt lat="49.79031" lon="2.25241">
        <ele>118.5</ele>
        <time>2022-10-07T14:13:44Z</time>
      </trkpt>
      <trkpt lat="49.79031" lon="2.25242">
        <ele>118.5</ele>
        <time>2022-10-07T14:13:45Z</time>
      </trkpt>
      <trkpt lat="49.7903" lon="2.25243">
        <ele>118.5</ele>
        <time>2022-10-07T14:13:46Z</time>
      </trkpt>
      <trkpt lat="49.79028" lon="2.25246">
        <ele>118.5</ele>
        <time>2022-10-07T14:13:47Z</time>
      </trkpt>
      <trkpt lat="49.79027" lon="2.25247">
        <ele>118.5</ele>
        <time>2022-10-07T14:13:49Z</time>
      </trkpt>
      <trkpt lat="49.79027" lon="2.25249">
        <ele>118.5</ele>
        <time>2022-10-07T14:13:50Z</time>
      </trkpt>
      <trkpt lat="49.79027" lon="2.2525">
        <ele>118.5</ele>
        <time>2022-10-07T14:13:51Z</time>
      </trkpt>
      <trkpt lat="49.79026" lon="2.25252">
        <ele>118.5</ele>
        <time>2022-10-07T14:13:52Z</time>
      </trkpt>
      <trkpt lat="49.79026" lon="2.25253">
        <ele>118.5</ele>
        <time>2022-10-07T14:13:53Z</time>
      </trkpt>
      <trkpt lat="49.79025" lon="2.25255">
        <ele>118.5</ele>
        <time>2022-10-07T14:13:54Z</time>
      </trkpt>
      <trkpt lat="49.79025" lon="2.25258">
        <ele>118.5</ele>
        <time>2022-10-07T14:13:55Z</time>
      </trkpt>
      <trkpt lat="49.79024" lon="2.25259">
        <ele>118.5</ele>
        <time>2022-10-07T14:13:56Z</time>
      </trkpt>
      <trkpt lat="49.79024" lon="2.2526">
        <ele>118.5</ele>
        <time>2022-10-07T14:13:57Z</time>
      </trkpt>
      <trkpt lat="49.79023" lon="2.25262">
        <ele>118.5</ele>
        <time>2022-10-07T14:13:58Z</time>
      </trkpt>
      <trkpt lat="49.79022" lon="2.25264">
        <ele>118.5</ele>
        <time>2022-10-07T14:13:59Z</time>
      </trkpt>
      <trkpt lat="49.79021" lon="2.25268">
        <ele>118.5</ele>
        <time>2022-10-07T14:14:01Z</time>
      </trkpt>
      <trkpt lat="49.7902" lon="2.25269">
        <ele>118.5</ele>
        <time>2022-10-07T14:14:02Z</time>
      </trkpt>
      <trkpt lat="49.7902" lon="2.2527">
        <ele>118.5</ele>
        <time>2022-10-07T14:14:03Z</time>
      </trkpt>
      <trkpt lat="49.7902" lon="2.25272">
        <ele>118.5</ele>
        <time>2022-10-07T14:14:04Z</time>
      </trkpt>
      <trkpt lat="49.79021" lon="2.25273">
        <ele>118.5</ele>
        <time>2022-10-07T14:14:05Z</time>
      </trkpt>
      <trkpt lat="49.79021" lon="2.25274">
        <ele>118.5</ele>
        <time>2022-10-07T14:14:06Z</time>
      </trkpt>
      <trkpt lat="49.7902" lon="2.25274">
        <ele>118.5</ele>
        <time>2022-10-07T14:14:08Z</time>
      </trkpt>
      <trkpt lat="49.7902" lon="2.25275">
        <ele>118.5</ele>
        <time>2022-10-07T14:14:09Z</time>
      </trkpt>
      <trkpt lat="49.7902" lon="2.25274">
        <ele>118.5</ele>
        <time>2022-10-07T14:14:10Z</time>
      </trkpt>
      <trkpt lat="49.7902" lon="2.25274">
        <ele>118.5</ele>
        <time>2022-10-07T14:14:11Z</time>
      </trkpt>
      <trkpt lat="49.79021" lon="2.25274">
        <ele>118.5</ele>
        <time>2022-10-07T14:14:12Z</time>
      </trkpt>
      <trkpt lat="49.79022" lon="2.25274">
        <ele>118.5</ele>
        <time>2022-10-07T14:14:13Z</time>
      </trkpt>
      <trkpt lat="49.79022" lon="2.25274">
        <ele>118.5</ele>
        <time>2022-10-07T14:14:14Z</time>
      </trkpt>
      <trkpt lat="49.79022" lon="2.25274">
        <ele>118.5</ele>
        <time>2022-10-07T14:14:15Z</time>
      </trkpt>
      <trkpt lat="49.79022" lon="2.25274">
        <ele>118.5</ele>
        <time>2022-10-07T14:14:16Z</time>
      </trkpt>
      <trkpt lat="49.79023" lon="2.25274">
        <ele>118.5</ele>
        <time>2022-10-07T14:14:18Z</time>
      </trkpt>
      <trkpt lat="49.79023" lon="2.25273">
        <ele>118.5</ele>
        <time>2022-10-07T14:14:19Z</time>
      </trkpt>
      <trkpt lat="49.79023" lon="2.25273">
        <ele>118.5</ele>
        <time>2022-10-07T14:14:20Z</time>
      </trkpt>
      <trkpt lat="49.79024" lon="2.25272">
        <ele>118.5</ele>
        <time>2022-10-07T14:14:21Z</time>
      </trkpt>
      <trkpt lat="49.79024" lon="2.25272">
        <ele>118.5</ele>
        <time>2022-10-07T14:14:22Z</time>
      </trkpt>
      <trkpt lat="49.79024" lon="2.25272">
        <ele>118.5</ele>
        <time>2022-10-07T14:14:23Z</time>
      </trkpt>
      <trkpt lat="49.79024" lon="2.25272">
        <ele>118.5</ele>
        <time>2022-10-07T14:14:24Z</time>
      </trkpt>
      <trkpt lat="49.79024" lon="2.25271">
        <ele>118.5</ele>
        <time>2022-10-07T14:14:25Z</time>
      </trkpt>
      <trkpt lat="49.79024" lon="2.25271">
        <ele>118.5</ele>
        <time>2022-10-07T14:14:26Z</time>
      </trkpt>
      <trkpt lat="49.79024" lon="2.25271">
        <ele>118.5</ele>
        <time>2022-10-07T14:14:27Z</time>
      </trkpt>
      <trkpt lat="49.79024" lon="2.2527">
        <ele>118.5</ele>
        <time>2022-10-07T14:14:28Z</time>
      </trkpt>
      <trkpt lat="49.79024" lon="2.2527">
        <ele>118.5</ele>
        <time>2022-10-07T14:14:29Z</time>
      </trkpt>
      <trkpt lat="49.79024" lon="2.2527">
        <ele>118.5</ele>
        <time>2022-10-07T14:14:30Z</time>
      </trkpt>
      <trkpt lat="49.79024" lon="2.25269">
        <ele>118.5</ele>
        <time>2022-10-07T14:14:31Z</time>
      </trkpt>
      <trkpt lat="49.79024" lon="2.25269">
        <ele>118.5</ele>
        <time>2022-10-07T14:14:32Z</time>
      </trkpt>
      <trkpt lat="49.79024" lon="2.25269">
        <ele>118.5</ele>
        <time>2022-10-07T14:14:33Z</time>
      </trkpt>
      <trkpt lat="49.79024" lon="2.25269">
        <ele>118.5</ele>
        <time>2022-10-07T14:14:34Z</time>
      </trkpt>
      <trkpt lat="49.79024" lon="2.25268">
        <ele>118.5</ele>
        <time>2022-10-07T14:14:35Z</time>
      </trkpt>
      <trkpt lat="49.79024" lon="2.25268">
        <ele>118.5</ele>
        <time>2022-10-07T14:14:36Z</time>
      </trkpt>
      <trkpt lat="49.79024" lon="2.25268">
        <ele>118.5</ele>
        <time>2022-10-07T14:14:37Z</time>
      </trkpt>
      <trkpt lat="49.79024" lon="2.25267">
        <ele>118.5</ele>
        <time>2022-10-07T14:14:38Z</time>
      </trkpt>
      <trkpt lat="49.79024" lon="2.25267">
        <ele>118.5</ele>
        <time>2022-10-07T14:14:39Z</time>
      </trkpt>
      <trkpt lat="49.79024" lon="2.25267">
        <ele>118.5</ele>
        <time>2022-10-07T14:14:40Z</time>
      </trkpt>
      <trkpt lat="49.79024" lon="2.25266">
        <ele>118.5</ele>
        <time>2022-10-07T14:14:41Z</time>
      </trkpt>
      <trkpt lat="49.79024" lon="2.25266">
        <ele>118.5</ele>
        <time>2022-10-07T14:14:42Z</time>
      </trkpt>
      <trkpt lat="49.79024" lon="2.25266">
        <ele>118.5</ele>
        <time>2022-10-07T14:14:43Z</time>
      </trkpt>
      <trkpt lat="49.79024" lon="2.25262">
        <ele>118.5</ele>
        <time>2022-10-07T14:14:44Z</time>
      </trkpt>
      <trkpt lat="49.79024" lon="2.25262">
        <ele>118.5</ele>
        <time>2022-10-07T14:14:45Z</time>
      </trkpt>
      <trkpt lat="49.79024" lon="2.25261">
        <ele>118.5</ele>
        <time>2022-10-07T14:14:46Z</time>
      </trkpt>
      <trkpt lat="49.79024" lon="2.25261">
        <ele>118.5</ele>
        <time>2022-10-07T14:14:47Z</time>
      </trkpt>
      <trkpt lat="49.79024" lon="2.25261">
        <ele>118.5</ele>
        <time>2022-10-07T14:14:48Z</time>
      </trkpt>
      <trkpt lat="49.79024" lon="2.25261">
        <ele>118.5</ele>
        <time>2022-10-07T14:14:49Z</time>
      </trkpt>
      <trkpt lat="49.79024" lon="2.25261">
        <ele>118.5</ele>
        <time>2022-10-07T14:14:50Z</time>
      </trkpt>
      <trkpt lat="49.79024" lon="2.25261">
        <ele>118.5</ele>
        <time>2022-10-07T14:14:51Z</time>
      </trkpt>
      <trkpt lat="49.79024" lon="2.2526">
        <ele>118.5</ele>
        <time>2022-10-07T14:14:52Z</time>
      </trkpt>
      <trkpt lat="49.79024" lon="2.2526">
        <ele>118.5</ele>
        <time>2022-10-07T14:14:53Z</time>
      </trkpt>
      <trkpt lat="49.79024" lon="2.2526">
        <ele>118.5</ele>
        <time>2022-10-07T14:14:54Z</time>
      </trkpt>
      <trkpt lat="49.79024" lon="2.2526">
        <ele>118.5</ele>
        <time>2022-10-07T14:14:55Z</time>
      </trkpt>
      <trkpt lat="49.79024" lon="2.2526">
        <ele>118.5</ele>
        <time>2022-10-07T14:14:56Z</time>
      </trkpt>
      <trkpt lat="49.79024" lon="2.2526">
        <ele>118.5</ele>
        <time>2022-10-07T14:14:57Z</time>
      </trkpt>
      <trkpt lat="49.79024" lon="2.2526">
        <ele>118.5</ele>
        <time>2022-10-07T14:14:58Z</time>
      </trkpt>
      <trkpt lat="49.79024" lon="2.2526">
        <ele>118.5</ele>
        <time>2022-10-07T14:14:59Z</time>
      </trkpt>
      <trkpt lat="49.79024" lon="2.2526">
        <ele>118.5</ele>
        <time>2022-10-07T14:15:00Z</time>
      </trkpt>
      <trkpt lat="49.79024" lon="2.2526">
        <ele>118.5</ele>
        <time>2022-10-07T14:15:01Z</time>
      </trkpt>
      <trkpt lat="49.79024" lon="2.2526">
        <ele>118.5</ele>
        <time>2022-10-07T14:15:02Z</time>
      </trkpt>
      <trkpt lat="49.79024" lon="2.2526">
        <ele>118.5</ele>
        <time>2022-10-07T14:15:03Z</time>
      </trkpt>
      <trkpt lat="49.79024" lon="2.2526">
        <ele>118.5</ele>
        <time>2022-10-07T14:15:04Z</time>
      </trkpt>
      <trkpt lat="49.79024" lon="2.2526">
        <ele>118.5</ele>
        <time>2022-10-07T14:15:05Z</time>
      </trkpt>
      <trkpt lat="49.79024" lon="2.2526">
        <ele>118.5</ele>
        <time>2022-10-07T14:15:06Z</time>
      </trkpt>
      <trkpt lat="49.79024" lon="2.2526">
        <ele>118.5</ele>
        <time>2022-10-07T14:15:07Z</time>
      </trkpt>
      <trkpt lat="49.79024" lon="2.2526">
        <ele>118.5</ele>
        <time>2022-10-07T14:15:08Z</time>
      </trkpt>
      <trkpt lat="49.79024" lon="2.2526">
        <ele>118.5</ele>
        <time>2022-10-07T14:15:09Z</time>
      </trkpt>
      <trkpt lat="49.79024" lon="2.2526">
        <ele>118.5</ele>
        <time>2022-10-07T14:15:10Z</time>
      </trkpt>
      <trkpt lat="49.79024" lon="2.2526">
        <ele>118.5</ele>
        <time>2022-10-07T14:15:11Z</time>
      </trkpt>
      <trkpt lat="49.79024" lon="2.2526">
        <ele>118.5</ele>
        <time>2022-10-07T14:15:12Z</time>
      </trkpt>
      <trkpt lat="49.79024" lon="2.2526">
        <ele>118.5</ele>
        <time>2022-10-07T14:15:13Z</time>
      </trkpt>
      <trkpt lat="49.79024" lon="2.2526">
        <ele>118.5</ele>
        <time>2022-10-07T14:15:14Z</time>
      </trkpt>
      <trkpt lat="49.79024" lon="2.2526">
        <ele>118.5</ele>
        <time>2022-10-07T14:15:15Z</time>
      </trkpt>
      <trkpt lat="49.79024" lon="2.2526">
        <ele>118.5</ele>
        <time>2022-10-07T14:15:16Z</time>
      </trkpt>
      <trkpt lat="49.79024" lon="2.2526">
        <ele>118.5</ele>
        <time>2022-10-07T14:15:17Z</time>
      </trkpt>
      <trkpt lat="49.79024" lon="2.2526">
        <ele>118.5</ele>
        <time>2022-10-07T14:15:18Z</time>
      </trkpt>
      <trkpt lat="49.79024" lon="2.2526">
        <ele>118.5</ele>
        <time>2022-10-07T14:15:19Z</time>
      </trkpt>
      <trkpt lat="49.79024" lon="2.2526">
        <ele>118.5</ele>
        <time>2022-10-07T14:15:20Z</time>
      </trkpt>
      <trkpt lat="49.79024" lon="2.2526">
        <ele>118.5</ele>
        <time>2022-10-07T14:15:21Z</time>
      </trkpt>
      <trkpt lat="49.79024" lon="2.2526">
        <ele>118.5</ele>
        <time>2022-10-07T14:15:22Z</time>
      </trkpt>
      <trkpt lat="49.79024" lon="2.2526">
        <ele>118.5</ele>
        <time>2022-10-07T14:15:23Z</time>
      </trkpt>
      <trkpt lat="49.79024" lon="2.2526">
        <ele>118.5</ele>
        <time>2022-10-07T14:15:24Z</time>
      </trkpt>
      <trkpt lat="49.79024" lon="2.2526">
        <ele>118.5</ele>
        <time>2022-10-07T14:15:25Z</time>
      </trkpt>
      <trkpt lat="49.79024" lon="2.2526">
        <ele>118.5</ele>
        <time>2022-10-07T14:15:26Z</time>
      </trkpt>
      <trkpt lat="49.79024" lon="2.2526">
        <ele>118.5</ele>
        <time>2022-10-07T14:15:27Z</time>
      </trkpt>
      <trkpt lat="49.79024" lon="2.2526">
        <ele>118.5</ele>
        <time>2022-10-07T14:15:28Z</time>
      </trkpt>
      <trkpt lat="49.79024" lon="2.2526">
        <ele>118.5</ele>
        <time>2022-10-07T14:15:29Z</time>
      </trkpt>
      <trkpt lat="49.79024" lon="2.2526">
        <ele>118.5</ele>
        <time>2022-10-07T14:15:30Z</time>
      </trkpt>
      <trkpt lat="49.79024" lon="2.2526">
        <ele>118.5</ele>
        <time>2022-10-07T14:15:31Z</time>
      </trkpt>
      <trkpt lat="49.79024" lon="2.2526">
        <ele>118.5</ele>
        <time>2022-10-07T14:15:32Z</time>
      </trkpt>
      <trkpt lat="49.79024" lon="2.2526">
        <ele>118.5</ele>
        <time>2022-10-07T14:15:33Z</time>
      </trkpt>
      <trkpt lat="49.79024" lon="2.2526">
        <ele>118.5</ele>
        <time>2022-10-07T14:15:34Z</time>
      </trkpt>
      <trkpt lat="49.79024" lon="2.2526">
        <ele>118.5</ele>
        <time>2022-10-07T14:15:35Z</time>
      </trkpt>
      <trkpt lat="49.79024" lon="2.2526">
        <ele>118.5</ele>
        <time>2022-10-07T14:15:36Z</time>
      </trkpt>
      <trkpt lat="49.79024" lon="2.2526">
        <ele>118.5</ele>
        <time>2022-10-07T14:15:37Z</time>
      </trkpt>
      <trkpt lat="49.79023" lon="2.25259">
        <ele>118.5</ele>
        <time>2022-10-07T14:15:38Z</time>
      </trkpt>
      <trkpt lat="49.79022" lon="2.25259">
        <ele>118.5</ele>
        <time>2022-10-07T14:15:39Z</time>
      </trkpt>
      <trkpt lat="49.79021" lon="2.25258">
        <ele>118.5</ele>
        <time>2022-10-07T14:15:40Z</time>
      </trkpt>
      <trkpt lat="49.79021" lon="2.25258">
        <ele>118.5</ele>
        <time>2022-10-07T14:15:41Z</time>
      </trkpt>
      <trkpt lat="49.79021" lon="2.25257">
        <ele>118.5</ele>
        <time>2022-10-07T14:15:42Z</time>
      </trkpt>
      <trkpt lat="49.7902" lon="2.25257">
        <ele>118.5</ele>
        <time>2022-10-07T14:15:43Z</time>
      </trkpt>
      <trkpt lat="49.7902" lon="2.25256">
        <ele>118.5</ele>
        <time>2022-10-07T14:15:44Z</time>
      </trkpt>
      <trkpt lat="49.79019" lon="2.25256">
        <ele>118.5</ele>
        <time>2022-10-07T14:15:45Z</time>
      </trkpt>
      <trkpt lat="49.79019" lon="2.25256">
        <ele>118.5</ele>
        <time>2022-10-07T14:15:46Z</time>
      </trkpt>
      <trkpt lat="49.79019" lon="2.25255">
        <ele>118.5</ele>
        <time>2022-10-07T14:15:47Z</time>
      </trkpt>
      <trkpt lat="49.79019" lon="2.25256">
        <ele>118.5</ele>
        <time>2022-10-07T14:15:48Z</time>
      </trkpt>
      <trkpt lat="49.79019" lon="2.25256">
        <ele>118.5</ele>
        <time>2022-10-07T14:15:49Z</time>
      </trkpt>
      <trkpt lat="49.79019" lon="2.25256">
        <ele>118.5</ele>
        <time>2022-10-07T14:15:50Z</time>
      </trkpt>
      <trkpt lat="49.79019" lon="2.25256">
        <ele>118.5</ele>
        <time>2022-10-07T14:15:51Z</time>
      </trkpt>
      <trkpt lat="49.79019" lon="2.25256">
        <ele>118.5</ele>
        <time>2022-10-07T14:15:52Z</time>
      </trkpt>
      <trkpt lat="49.79019" lon="2.25256">
        <ele>118.5</ele>
        <time>2022-10-07T14:15:53Z</time>
      </trkpt>
      <trkpt lat="49.79019" lon="2.25256">
        <ele>118.5</ele>
        <time>2022-10-07T14:15:54Z</time>
      </trkpt>
      <trkpt lat="49.79018" lon="2.25256">
        <ele>118.5</ele>
        <time>2022-10-07T14:15:55Z</time>
      </trkpt>
      <trkpt lat="49.79018" lon="2.25256">
        <ele>118.5</ele>
        <time>2022-10-07T14:15:56Z</time>
      </trkpt>
      <trkpt lat="49.79018" lon="2.25256">
        <ele>118.5</ele>
        <time>2022-10-07T14:15:57Z</time>
      </trkpt>
      <trkpt lat="49.79018" lon="2.25255">
        <ele>118.5</ele>
        <time>2022-10-07T14:15:58Z</time>
      </trkpt>
      <trkpt lat="49.79018" lon="2.25255">
        <ele>118.5</ele>
        <time>2022-10-07T14:15:59Z</time>
      </trkpt>
      <trkpt lat="49.79018" lon="2.25255">
        <ele>118.5</ele>
        <time>2022-10-07T14:16:00Z</time>
      </trkpt>
      <trkpt lat="49.79018" lon="2.25255">
        <ele>118.5</ele>
        <time>2022-10-07T14:16:01Z</time>
      </trkpt>
      <trkpt lat="49.79018" lon="2.25256">
        <ele>118.5</ele>
        <time>2022-10-07T14:16:02Z</time>
      </trkpt>
      <trkpt lat="49.79018" lon="2.25256">
        <ele>118.5</ele>
        <time>2022-10-07T14:16:03Z</time>
      </trkpt>
      <trkpt lat="49.79018" lon="2.25256">
        <ele>118.5</ele>
        <time>2022-10-07T14:16:04Z</time>
      </trkpt>
      <trkpt lat="49.79018" lon="2.25256">
        <ele>118.5</ele>
        <time>2022-10-07T14:16:05Z</time>
      </trkpt>
      <trkpt lat="49.79018" lon="2.25256">
        <ele>118.5</ele>
        <time>2022-10-07T14:16:06Z</time>
      </trkpt>
      <trkpt lat="49.79018" lon="2.25256">
        <ele>118.5</ele>
        <time>2022-10-07T14:16:07Z</time>
      </trkpt>
      <trkpt lat="49.79018" lon="2.25256">
        <ele>118.5</ele>
        <time>2022-10-07T14:16:08Z</time>
      </trkpt>
      <trkpt lat="49.79018" lon="2.25256">
        <ele>118.5</ele>
        <time>2022-10-07T14:16:09Z</time>
      </trkpt>
      <trkpt lat="49.79018" lon="2.25256">
        <ele>118.5</ele>
        <time>2022-10-07T14:16:10Z</time>
      </trkpt>
      <trkpt lat="49.79018" lon="2.25256">
        <ele>118.5</ele>
        <time>2022-10-07T14:16:11Z</time>
      </trkpt>
      <trkpt lat="49.79018" lon="2.25256">
        <ele>118.5</ele>
        <time>2022-10-07T14:16:12Z</time>
      </trkpt>
      <trkpt lat="49.79018" lon="2.25256">
        <ele>118.5</ele>
        <time>2022-10-07T14:16:13Z</time>
      </trkpt>
      <trkpt lat="49.79018" lon="2.25256">
        <ele>118.5</ele>
        <time>2022-10-07T14:16:14Z</time>
      </trkpt>
      <trkpt lat="49.79018" lon="2.25256">
        <ele>118.5</ele>
        <time>2022-10-07T14:16:15Z</time>
      </trkpt>
      <trkpt lat="49.79018" lon="2.25256">
        <ele>118.5</ele>
        <time>2022-10-07T14:16:16Z</time>
      </trkpt>
      <trkpt lat="49.79018" lon="2.25256">
        <ele>118.5</ele>
        <time>2022-10-07T14:16:17Z</time>
      </trkpt>
      <trkpt lat="49.79018" lon="2.25256">
        <ele>118.5</ele>
        <time>2022-10-07T14:16:18Z</time>
      </trkpt>
      <trkpt lat="49.79018" lon="2.25256">
        <ele>118.5</ele>
        <time>2022-10-07T14:16:19Z</time>
      </trkpt>
      <trkpt lat="49.79018" lon="2.25256">
        <ele>118.5</ele>
        <time>2022-10-07T14:16:20Z</time>
      </trkpt>
      <trkpt lat="49.79018" lon="2.25256">
        <ele>118.5</ele>
        <time>2022-10-07T14:16:21Z</time>
      </trkpt>
      <trkpt lat="49.79018" lon="2.25256">
        <ele>118.5</ele>
        <time>2022-10-07T14:16:22Z</time>
      </trkpt>
      <trkpt lat="49.79018" lon="2.25256">
        <ele>118.5</ele>
        <time>2022-10-07T14:16:23Z</time>
      </trkpt>
      <trkpt lat="49.79018" lon="2.25256">
        <ele>118.5</ele>
        <time>2022-10-07T14:16:24Z</time>
      </trkpt>
      <trkpt lat="49.79018" lon="2.25256">
        <ele>118.5</ele>
        <time>2022-10-07T14:16:25Z</time>
      </trkpt>
      <trkpt lat="49.79018" lon="2.25256">
        <ele>118.5</ele>
        <time>2022-10-07T14:16:26Z</time>
      </trkpt>
      <trkpt lat="49.79018" lon="2.25256">
        <ele>118.5</ele>
        <time>2022-10-07T14:16:27Z</time>
      </trkpt>
      <trkpt lat="49.79018" lon="2.25256">
        <ele>118.5</ele>
        <time>2022-10-07T14:16:28Z</time>
      </trkpt>
      <trkpt lat="49.79018" lon="2.25256">
        <ele>118.5</ele>
        <time>2022-10-07T14:16:29Z</time>
      </trkpt>
      <trkpt lat="49.79018" lon="2.25256">
        <ele>118.5</ele>
        <time>2022-10-07T14:16:30Z</time>
      </trkpt>
      <trkpt lat="49.79018" lon="2.25256">
        <ele>118.5</ele>
        <time>2022-10-07T14:16:31Z</time>
      </trkpt>
    </trkseg>
  </trk>
</gpx>